<?xml version='1.0' encoding='UTF-8'?><gpx version="1.1" creator="JPX - https://github.com/jenetics/jpx" xmlns="http://www.topografix.com/GPX/1/1"><trk><trkseg><trkpt lat="45.952889" lon="12.118797"><ele>195.99999999999997</ele><time>2026-05-02T06:31:03.503Z</time></trkpt><trkpt lat="45.9528523" lon="12.1186994"><ele>196.0</ele><time>2026-05-02T06:32:53.532Z</time></trkpt><trkpt lat="45.9528407" lon="12.1186093"><ele>196.0</ele><time>2026-05-02T06:32:58.496Z</time></trkpt><trkpt lat="45.9528628" lon="12.1185163"><ele>196.0</ele><time>2026-05-02T06:33:02.496Z</time></trkpt><trkpt lat="45.9529249" lon="12.1184902"><ele>195.99999999999997</ele><time>2026-05-02T06:33:04.495Z</time></trkpt><trkpt lat="45.9529915" lon="12.1184381"><ele>196.0</ele><time>2026-05-02T06:33:06.496Z</time></trkpt><trkpt lat="45.9531167" lon="12.1182533"><ele>196.0</ele><time>2026-05-02T06:33:08.394Z</time></trkpt><trkpt lat="45.9532" lon="12.118225"><ele>196.0</ele><time>2026-05-02T06:33:10.393Z</time></trkpt><trkpt lat="45.9533317" lon="12.1183383"><ele>196.0</ele><time>2026-05-02T06:33:12.394Z</time></trkpt><trkpt lat="45.9533883" lon="12.11843"><ele>196.0</ele><time>2026-05-02T06:33:13.394Z</time></trkpt><trkpt lat="45.9534367" lon="12.1185183"><ele>196.0</ele><time>2026-05-02T06:33:14.394Z</time></trkpt><trkpt lat="45.95348" lon="12.11861"><ele>196.66666666666666</ele><time>2026-05-02T06:33:15.394Z</time></trkpt><trkpt lat="45.9535167" lon="12.1187"><ele>197.33333333333331</ele><time>2026-05-02T06:33:16.394Z</time></trkpt><trkpt lat="45.95355" lon="12.1187817"><ele>198.0</ele><time>2026-05-02T06:33:17.393Z</time></trkpt><trkpt lat="45.9536183" lon="12.1189467"><ele>198.66666666666669</ele><time>2026-05-02T06:33:19.393Z</time></trkpt><trkpt lat="45.9536717" lon="12.11904"><ele>199.33333333333334</ele><time>2026-05-02T06:33:20.394Z</time></trkpt><trkpt lat="45.953735" lon="12.1191317"><ele>200.0</ele><time>2026-05-02T06:33:21.394Z</time></trkpt><trkpt lat="45.953795" lon="12.1192183"><ele>200.0</ele><time>2026-05-02T06:33:22.394Z</time></trkpt><trkpt lat="45.9538517" lon="12.1193233"><ele>200.0</ele><time>2026-05-02T06:33:23.394Z</time></trkpt><trkpt lat="45.9539217" lon="12.1194283"><ele>200.0</ele><time>2026-05-02T06:33:24.394Z</time></trkpt><trkpt lat="45.9540083" lon="12.11952"><ele>200.0</ele><time>2026-05-02T06:33:25.394Z</time></trkpt><trkpt lat="45.954095" lon="12.1196133"><ele>200.0</ele><time>2026-05-02T06:33:26.393Z</time></trkpt><trkpt lat="45.9541783" lon="12.1197133"><ele>200.75</ele><time>2026-05-02T06:33:27.394Z</time></trkpt><trkpt lat="45.95427" lon="12.1198217"><ele>201.5</ele><time>2026-05-02T06:33:28.393Z</time></trkpt><trkpt lat="45.9543817" lon="12.1199217"><ele>202.25</ele><time>2026-05-02T06:33:29.394Z</time></trkpt><trkpt lat="45.954495" lon="12.120035"><ele>203.0</ele><time>2026-05-02T06:33:30.394Z</time></trkpt><trkpt lat="45.954615" lon="12.12015"><ele>202.25</ele><time>2026-05-02T06:33:31.394Z</time></trkpt><trkpt lat="45.95473" lon="12.1202767"><ele>201.5</ele><time>2026-05-02T06:33:32.394Z</time></trkpt><trkpt lat="45.9548467" lon="12.1203983"><ele>200.75</ele><time>2026-05-02T06:33:33.393Z</time></trkpt><trkpt lat="45.9549633" lon="12.120515"><ele>200.0</ele><time>2026-05-02T06:33:34.394Z</time></trkpt><trkpt lat="45.9550733" lon="12.1206317"><ele>199.75</ele><time>2026-05-02T06:33:35.394Z</time></trkpt><trkpt lat="45.955185" lon="12.1207517"><ele>199.5</ele><time>2026-05-02T06:33:36.394Z</time></trkpt><trkpt lat="45.9553083" lon="12.1208683"><ele>199.25</ele><time>2026-05-02T06:33:37.394Z</time></trkpt><trkpt lat="45.9554283" lon="12.1209683"><ele>199.0</ele><time>2026-05-02T06:33:38.394Z</time></trkpt><trkpt lat="45.9555467" lon="12.1210683"><ele>199.0</ele><time>2026-05-02T06:33:39.393Z</time></trkpt><trkpt lat="45.9556583" lon="12.12116"><ele>199.0</ele><time>2026-05-02T06:33:40.394Z</time></trkpt><trkpt lat="45.9557783" lon="12.12125"><ele>199.0</ele><time>2026-05-02T06:33:41.394Z</time></trkpt><trkpt lat="45.9558867" lon="12.12136"><ele>199.0</ele><time>2026-05-02T06:33:42.394Z</time></trkpt><trkpt lat="45.9560083" lon="12.1214617"><ele>199.5</ele><time>2026-05-02T06:33:43.394Z</time></trkpt><trkpt lat="45.9561267" lon="12.121585"><ele>200.0</ele><time>2026-05-02T06:33:44.394Z</time></trkpt><trkpt lat="45.9562417" lon="12.121705"><ele>200.5</ele><time>2026-05-02T06:33:45.394Z</time></trkpt><trkpt lat="45.956355" lon="12.1218217"><ele>201.0</ele><time>2026-05-02T06:33:46.394Z</time></trkpt><trkpt lat="45.956475" lon="12.121935"><ele>201.0</ele><time>2026-05-02T06:33:47.394Z</time></trkpt><trkpt lat="45.9565933" lon="12.1220417"><ele>201.0</ele><time>2026-05-02T06:33:48.394Z</time></trkpt><trkpt lat="45.9567033" lon="12.1221483"><ele>201.0</ele><time>2026-05-02T06:33:49.394Z</time></trkpt><trkpt lat="45.956815" lon="12.1222417"><ele>201.0</ele><time>2026-05-02T06:33:50.394Z</time></trkpt><trkpt lat="45.95693" lon="12.1223533"><ele>201.5</ele><time>2026-05-02T06:33:51.394Z</time></trkpt><trkpt lat="45.957045" lon="12.1224567"><ele>202.0</ele><time>2026-05-02T06:33:52.394Z</time></trkpt><trkpt lat="45.9571467" lon="12.122555"><ele>202.5</ele><time>2026-05-02T06:33:53.394Z</time></trkpt><trkpt lat="45.957245" lon="12.122625"><ele>203.0</ele><time>2026-05-02T06:33:54.393Z</time></trkpt><trkpt lat="45.957325" lon="12.12269"><ele>203.0</ele><time>2026-05-02T06:33:55.393Z</time></trkpt><trkpt lat="45.9573867" lon="12.122755"><ele>203.0</ele><time>2026-05-02T06:33:56.394Z</time></trkpt><trkpt lat="45.95746" lon="12.1228717"><ele>203.0</ele><time>2026-05-02T06:33:58.394Z</time></trkpt><trkpt lat="45.957495" lon="12.1229733"><ele>203.0</ele><time>2026-05-02T06:34:01.394Z</time></trkpt><trkpt lat="45.957525" lon="12.1230917"><ele>203.0</ele><time>2026-05-02T06:34:06.394Z</time></trkpt><trkpt lat="45.95762" lon="12.1232033"><ele>204.0</ele><time>2026-05-02T06:34:08.394Z</time></trkpt><trkpt lat="45.9577133" lon="12.123255"><ele>205.0</ele><time>2026-05-02T06:34:09.394Z</time></trkpt><trkpt lat="45.9578283" lon="12.123305"><ele>206.0</ele><time>2026-05-02T06:34:10.393Z</time></trkpt><trkpt lat="45.9579617" lon="12.12338"><ele>207.0</ele><time>2026-05-02T06:34:11.394Z</time></trkpt><trkpt lat="45.9581" lon="12.1234833"><ele>207.0</ele><time>2026-05-02T06:34:12.393Z</time></trkpt><trkpt lat="45.9582367" lon="12.12359"><ele>207.0</ele><time>2026-05-02T06:34:13.394Z</time></trkpt><trkpt lat="45.958375" lon="12.123715"><ele>207.0</ele><time>2026-05-02T06:34:14.394Z</time></trkpt><trkpt lat="45.95851" lon="12.1238567"><ele>207.33333333333331</ele><time>2026-05-02T06:34:15.394Z</time></trkpt><trkpt lat="45.958645" lon="12.1240067"><ele>207.66666666666666</ele><time>2026-05-02T06:34:16.394Z</time></trkpt><trkpt lat="45.9587783" lon="12.124175"><ele>208.0</ele><time>2026-05-02T06:34:17.394Z</time></trkpt><trkpt lat="45.9589033" lon="12.12435"><ele>209.33333333333331</ele><time>2026-05-02T06:34:18.394Z</time></trkpt><trkpt lat="45.959015" lon="12.1245267"><ele>210.66666666666669</ele><time>2026-05-02T06:34:19.394Z</time></trkpt><trkpt lat="45.95912" lon="12.1247117"><ele>212.0</ele><time>2026-05-02T06:34:20.394Z</time></trkpt><trkpt lat="45.9592167" lon="12.1249017"><ele>212.66666666666669</ele><time>2026-05-02T06:34:21.394Z</time></trkpt><trkpt lat="45.95929" lon="12.125115"><ele>213.33333333333331</ele><time>2026-05-02T06:34:22.393Z</time></trkpt><trkpt lat="45.959365" lon="12.1253133"><ele>214.0</ele><time>2026-05-02T06:34:23.394Z</time></trkpt><trkpt lat="45.9594483" lon="12.1255283"><ele>214.33333333333331</ele><time>2026-05-02T06:34:24.394Z</time></trkpt><trkpt lat="45.9595267" lon="12.1257483"><ele>214.66666666666669</ele><time>2026-05-02T06:34:25.393Z</time></trkpt><trkpt lat="45.9596067" lon="12.125975"><ele>215.0</ele><time>2026-05-02T06:34:26.394Z</time></trkpt><trkpt lat="45.9596883" lon="12.1262083"><ele>215.0</ele><time>2026-05-02T06:34:27.393Z</time></trkpt><trkpt lat="45.9597767" lon="12.1264483"><ele>215.0</ele><time>2026-05-02T06:34:28.394Z</time></trkpt><trkpt lat="45.9598617" lon="12.1267"><ele>215.0</ele><time>2026-05-02T06:34:29.394Z</time></trkpt><trkpt lat="45.95995" lon="12.12695"><ele>215.33333333333334</ele><time>2026-05-02T06:34:30.394Z</time></trkpt><trkpt lat="45.9600467" lon="12.1271983"><ele>215.66666666666669</ele><time>2026-05-02T06:34:31.394Z</time></trkpt><trkpt lat="45.96015" lon="12.1274583"><ele>216.0</ele><time>2026-05-02T06:34:32.394Z</time></trkpt><trkpt lat="45.9602633" lon="12.12771"><ele>216.66666666666669</ele><time>2026-05-02T06:34:33.394Z</time></trkpt><trkpt lat="45.9603917" lon="12.12795"><ele>217.33333333333334</ele><time>2026-05-02T06:34:34.393Z</time></trkpt><trkpt lat="45.960525" lon="12.1281717"><ele>218.0</ele><time>2026-05-02T06:34:35.394Z</time></trkpt><trkpt lat="45.960665" lon="12.1283833"><ele>218.0</ele><time>2026-05-02T06:34:36.393Z</time></trkpt><trkpt lat="45.9608117" lon="12.1285733"><ele>218.0</ele><time>2026-05-02T06:34:37.393Z</time></trkpt><trkpt lat="45.96096" lon="12.12877"><ele>218.0</ele><time>2026-05-02T06:34:38.393Z</time></trkpt><trkpt lat="45.9611017" lon="12.1289667"><ele>219.0</ele><time>2026-05-02T06:34:39.394Z</time></trkpt><trkpt lat="45.9612383" lon="12.129155"><ele>220.0</ele><time>2026-05-02T06:34:40.394Z</time></trkpt><trkpt lat="45.9613633" lon="12.1293317"><ele>221.0</ele><time>2026-05-02T06:34:41.394Z</time></trkpt><trkpt lat="45.9614883" lon="12.1295"><ele>221.0</ele><time>2026-05-02T06:34:42.394Z</time></trkpt><trkpt lat="45.961615" lon="12.1296667"><ele>221.0</ele><time>2026-05-02T06:34:43.394Z</time></trkpt><trkpt lat="45.9617433" lon="12.1298433"><ele>221.0</ele><time>2026-05-02T06:34:44.394Z</time></trkpt><trkpt lat="45.9618717" lon="12.1300167"><ele>220.66666666666669</ele><time>2026-05-02T06:34:45.394Z</time></trkpt><trkpt lat="45.9619983" lon="12.1301967"><ele>220.33333333333331</ele><time>2026-05-02T06:34:46.394Z</time></trkpt><trkpt lat="45.9621267" lon="12.1303683"><ele>220.0</ele><time>2026-05-02T06:34:47.394Z</time></trkpt><trkpt lat="45.9622583" lon="12.13055"><ele>220.0</ele><time>2026-05-02T06:34:48.393Z</time></trkpt><trkpt lat="45.9623933" lon="12.1307233"><ele>220.0</ele><time>2026-05-02T06:34:49.394Z</time></trkpt><trkpt lat="45.9625283" lon="12.1308967"><ele>220.0</ele><time>2026-05-02T06:34:50.394Z</time></trkpt><trkpt lat="45.9626633" lon="12.1310817"><ele>221.0</ele><time>2026-05-02T06:34:51.394Z</time></trkpt><trkpt lat="45.9627967" lon="12.1312683"><ele>222.0</ele><time>2026-05-02T06:34:52.394Z</time></trkpt><trkpt lat="45.9629317" lon="12.1314533"><ele>223.0</ele><time>2026-05-02T06:34:53.394Z</time></trkpt><trkpt lat="45.9630683" lon="12.1316383"><ele>224.0</ele><time>2026-05-02T06:34:54.393Z</time></trkpt><trkpt lat="45.9632" lon="12.1318167"><ele>225.0</ele><time>2026-05-02T06:34:55.394Z</time></trkpt><trkpt lat="45.9633317" lon="12.1319933"><ele>226.0</ele><time>2026-05-02T06:34:56.394Z</time></trkpt><trkpt lat="45.96346" lon="12.132175"><ele>226.0</ele><time>2026-05-02T06:34:57.394Z</time></trkpt><trkpt lat="45.963595" lon="12.132355"><ele>226.0</ele><time>2026-05-02T06:34:58.394Z</time></trkpt><trkpt lat="45.96373" lon="12.132535"><ele>226.0</ele><time>2026-05-02T06:34:59.394Z</time></trkpt><trkpt lat="45.9638683" lon="12.1327183"><ele>226.66666666666666</ele><time>2026-05-02T06:35:00.393Z</time></trkpt><trkpt lat="45.9640017" lon="12.1328883"><ele>227.33333333333331</ele><time>2026-05-02T06:35:01.394Z</time></trkpt><trkpt lat="45.964125" lon="12.133055"><ele>228.0</ele><time>2026-05-02T06:35:02.394Z</time></trkpt><trkpt lat="45.9642467" lon="12.1332183"><ele>229.33333333333331</ele><time>2026-05-02T06:35:03.394Z</time></trkpt><trkpt lat="45.964365" lon="12.1333833"><ele>230.66666666666666</ele><time>2026-05-02T06:35:04.394Z</time></trkpt><trkpt lat="45.9644817" lon="12.1335433"><ele>232.0</ele><time>2026-05-02T06:35:05.394Z</time></trkpt><trkpt lat="45.9646" lon="12.1337017"><ele>232.0</ele><time>2026-05-02T06:35:06.394Z</time></trkpt><trkpt lat="45.9647133" lon="12.133855"><ele>232.0</ele><time>2026-05-02T06:35:07.394Z</time></trkpt><trkpt lat="45.964825" lon="12.1340117"><ele>232.0</ele><time>2026-05-02T06:35:08.394Z</time></trkpt><trkpt lat="45.9649383" lon="12.1341733"><ele>233.0</ele><time>2026-05-02T06:35:09.393Z</time></trkpt><trkpt lat="45.9650533" lon="12.1343417"><ele>234.0</ele><time>2026-05-02T06:35:10.394Z</time></trkpt><trkpt lat="45.9651733" lon="12.1345183"><ele>235.0</ele><time>2026-05-02T06:35:11.393Z</time></trkpt><trkpt lat="45.9652933" lon="12.1347067"><ele>236.33333333333331</ele><time>2026-05-02T06:35:12.394Z</time></trkpt><trkpt lat="45.9654033" lon="12.13491"><ele>237.66666666666669</ele><time>2026-05-02T06:35:13.394Z</time></trkpt><trkpt lat="45.9655" lon="12.1351333"><ele>239.0</ele><time>2026-05-02T06:35:14.394Z</time></trkpt><trkpt lat="45.9655883" lon="12.1353617"><ele>239.0</ele><time>2026-05-02T06:35:15.394Z</time></trkpt><trkpt lat="45.9656617" lon="12.1355867"><ele>239.0</ele><time>2026-05-02T06:35:16.394Z</time></trkpt><trkpt lat="45.9657183" lon="12.135805"><ele>239.0</ele><time>2026-05-02T06:35:17.394Z</time></trkpt><trkpt lat="45.9657583" lon="12.13601"><ele>239.25</ele><time>2026-05-02T06:35:18.393Z</time></trkpt><trkpt lat="45.9657883" lon="12.13619"><ele>239.5</ele><time>2026-05-02T06:35:19.394Z</time></trkpt><trkpt lat="45.9658083" lon="12.1363583"><ele>239.75</ele><time>2026-05-02T06:35:20.394Z</time></trkpt><trkpt lat="45.965825" lon="12.136515"><ele>240.0</ele><time>2026-05-02T06:35:21.394Z</time></trkpt><trkpt lat="45.9658367" lon="12.1366617"><ele>240.0</ele><time>2026-05-02T06:35:22.394Z</time></trkpt><trkpt lat="45.9658417" lon="12.1368"><ele>240.0</ele><time>2026-05-02T06:35:23.394Z</time></trkpt><trkpt lat="45.96584" lon="12.1369283"><ele>240.0</ele><time>2026-05-02T06:35:24.394Z</time></trkpt><trkpt lat="45.965825" lon="12.1370333"><ele>240.0</ele><time>2026-05-02T06:35:25.394Z</time></trkpt><trkpt lat="45.9657867" lon="12.1371883"><ele>240.0</ele><time>2026-05-02T06:35:27.394Z</time></trkpt><trkpt lat="45.9657383" lon="12.137365"><ele>239.4</ele><time>2026-05-02T06:35:29.394Z</time></trkpt><trkpt lat="45.9657067" lon="12.1374733"><ele>238.8</ele><time>2026-05-02T06:35:30.394Z</time></trkpt><trkpt lat="45.9656983" lon="12.137595"><ele>238.2</ele><time>2026-05-02T06:35:31.394Z</time></trkpt><trkpt lat="45.9657133" lon="12.13773"><ele>237.6</ele><time>2026-05-02T06:35:32.394Z</time></trkpt><trkpt lat="45.965735" lon="12.137875"><ele>237.0</ele><time>2026-05-02T06:35:33.394Z</time></trkpt><trkpt lat="45.965745" lon="12.1380317"><ele>237.0</ele><time>2026-05-02T06:35:34.393Z</time></trkpt><trkpt lat="45.9657417" lon="12.1382133"><ele>237.0</ele><time>2026-05-02T06:35:35.393Z</time></trkpt><trkpt lat="45.96573" lon="12.13843"><ele>237.0</ele><time>2026-05-02T06:35:36.394Z</time></trkpt><trkpt lat="45.9657133" lon="12.138665"><ele>237.0</ele><time>2026-05-02T06:35:37.394Z</time></trkpt><trkpt lat="45.965685" lon="12.1389167"><ele>237.66666666666669</ele><time>2026-05-02T06:35:38.394Z</time></trkpt><trkpt lat="45.965645" lon="12.1391867"><ele>238.33333333333334</ele><time>2026-05-02T06:35:39.394Z</time></trkpt><trkpt lat="45.9656083" lon="12.13945"><ele>239.0</ele><time>2026-05-02T06:35:40.394Z</time></trkpt><trkpt lat="45.9655783" lon="12.1397033"><ele>239.0</ele><time>2026-05-02T06:35:41.394Z</time></trkpt><trkpt lat="45.9655483" lon="12.1399433"><ele>239.0</ele><time>2026-05-02T06:35:42.394Z</time></trkpt><trkpt lat="45.9655167" lon="12.1401767"><ele>239.0</ele><time>2026-05-02T06:35:43.394Z</time></trkpt><trkpt lat="45.965485" lon="12.1404083"><ele>239.0</ele><time>2026-05-02T06:35:44.394Z</time></trkpt><trkpt lat="45.9654483" lon="12.1406267"><ele>239.0</ele><time>2026-05-02T06:35:45.394Z</time></trkpt><trkpt lat="45.96542" lon="12.140825"><ele>239.0</ele><time>2026-05-02T06:35:46.394Z</time></trkpt><trkpt lat="45.9654033" lon="12.141"><ele>239.0</ele><time>2026-05-02T06:35:47.394Z</time></trkpt><trkpt lat="45.965385" lon="12.1411667"><ele>239.6</ele><time>2026-05-02T06:35:48.394Z</time></trkpt><trkpt lat="45.9653733" lon="12.14132"><ele>240.2</ele><time>2026-05-02T06:35:49.394Z</time></trkpt><trkpt lat="45.9653617" lon="12.14146"><ele>240.79999999999998</ele><time>2026-05-02T06:35:50.394Z</time></trkpt><trkpt lat="45.9653433" lon="12.14158"><ele>241.39999999999998</ele><time>2026-05-02T06:35:51.393Z</time></trkpt><trkpt lat="45.9653167" lon="12.1416983"><ele>242.0</ele><time>2026-05-02T06:35:52.393Z</time></trkpt><trkpt lat="45.9653" lon="12.1418167"><ele>242.0</ele><time>2026-05-02T06:35:53.394Z</time></trkpt><trkpt lat="45.9653017" lon="12.1419367"><ele>242.0</ele><time>2026-05-02T06:35:54.393Z</time></trkpt><trkpt lat="45.96532" lon="12.1420767"><ele>242.0</ele><time>2026-05-02T06:35:55.394Z</time></trkpt><trkpt lat="45.9653667" lon="12.1422383"><ele>242.0</ele><time>2026-05-02T06:35:56.394Z</time></trkpt><trkpt lat="45.96539" lon="12.1424483"><ele>241.75</ele><time>2026-05-02T06:35:57.394Z</time></trkpt><trkpt lat="45.9654017" lon="12.1426533"><ele>241.5</ele><time>2026-05-02T06:35:58.394Z</time></trkpt><trkpt lat="45.9654117" lon="12.14285"><ele>241.25</ele><time>2026-05-02T06:35:59.394Z</time></trkpt><trkpt lat="45.9654233" lon="12.1430417"><ele>241.0</ele><time>2026-05-02T06:36:00.394Z</time></trkpt><trkpt lat="45.965435" lon="12.1432217"><ele>240.75</ele><time>2026-05-02T06:36:01.394Z</time></trkpt><trkpt lat="45.9654417" lon="12.1434"><ele>240.5</ele><time>2026-05-02T06:36:02.394Z</time></trkpt><trkpt lat="45.9654533" lon="12.14359"><ele>240.25</ele><time>2026-05-02T06:36:03.394Z</time></trkpt><trkpt lat="45.96546" lon="12.1437817"><ele>240.0</ele><time>2026-05-02T06:36:04.394Z</time></trkpt><trkpt lat="45.9654733" lon="12.1439767"><ele>239.0</ele><time>2026-05-02T06:36:05.393Z</time></trkpt><trkpt lat="45.9654883" lon="12.144185"><ele>238.0</ele><time>2026-05-02T06:36:06.394Z</time></trkpt><trkpt lat="45.9655033" lon="12.1444117"><ele>237.0</ele><time>2026-05-02T06:36:07.394Z</time></trkpt><trkpt lat="45.965515" lon="12.14466"><ele>236.33333333333331</ele><time>2026-05-02T06:36:08.394Z</time></trkpt><trkpt lat="45.9655433" lon="12.144915"><ele>235.66666666666666</ele><time>2026-05-02T06:36:09.394Z</time></trkpt><trkpt lat="45.9655733" lon="12.1451767"><ele>235.0</ele><time>2026-05-02T06:36:10.394Z</time></trkpt><trkpt lat="45.9656133" lon="12.1454417"><ele>235.0</ele><time>2026-05-02T06:36:11.394Z</time></trkpt><trkpt lat="45.96566" lon="12.14571"><ele>235.0</ele><time>2026-05-02T06:36:12.394Z</time></trkpt><trkpt lat="45.9657267" lon="12.1459717"><ele>235.0</ele><time>2026-05-02T06:36:13.394Z</time></trkpt><trkpt lat="45.9658" lon="12.1462283"><ele>236.66666666666666</ele><time>2026-05-02T06:36:14.393Z</time></trkpt><trkpt lat="45.965885" lon="12.1464717"><ele>238.33333333333331</ele><time>2026-05-02T06:36:15.394Z</time></trkpt><trkpt lat="45.96598" lon="12.1467133"><ele>240.0</ele><time>2026-05-02T06:36:16.394Z</time></trkpt><trkpt lat="45.9660733" lon="12.1469433"><ele>240.33333333333331</ele><time>2026-05-02T06:36:17.394Z</time></trkpt><trkpt lat="45.96617" lon="12.1471717"><ele>240.66666666666666</ele><time>2026-05-02T06:36:18.394Z</time></trkpt><trkpt lat="45.96626" lon="12.1473867"><ele>241.0</ele><time>2026-05-02T06:36:19.394Z</time></trkpt><trkpt lat="45.9663433" lon="12.1475983"><ele>241.66666666666666</ele><time>2026-05-02T06:36:20.394Z</time></trkpt><trkpt lat="45.9664217" lon="12.1478067"><ele>242.33333333333331</ele><time>2026-05-02T06:36:21.393Z</time></trkpt><trkpt lat="45.9665017" lon="12.148005"><ele>243.0</ele><time>2026-05-02T06:36:22.394Z</time></trkpt><trkpt lat="45.966575" lon="12.1482"><ele>244.25</ele><time>2026-05-02T06:36:23.394Z</time></trkpt><trkpt lat="45.9666533" lon="12.1483933"><ele>245.5</ele><time>2026-05-02T06:36:24.394Z</time></trkpt><trkpt lat="45.9667283" lon="12.1485817"><ele>246.75</ele><time>2026-05-02T06:36:25.394Z</time></trkpt><trkpt lat="45.966795" lon="12.1487633"><ele>248.0</ele><time>2026-05-02T06:36:26.394Z</time></trkpt><trkpt lat="45.96686" lon="12.1489417"><ele>248.75</ele><time>2026-05-02T06:36:27.394Z</time></trkpt><trkpt lat="45.9669267" lon="12.1491233"><ele>249.5</ele><time>2026-05-02T06:36:28.394Z</time></trkpt><trkpt lat="45.9669967" lon="12.1493083"><ele>250.25</ele><time>2026-05-02T06:36:29.394Z</time></trkpt><trkpt lat="45.96706" lon="12.149505"><ele>251.0</ele><time>2026-05-02T06:36:30.394Z</time></trkpt><trkpt lat="45.9671267" lon="12.1497083"><ele>251.0</ele><time>2026-05-02T06:36:31.393Z</time></trkpt><trkpt lat="45.9671933" lon="12.1499117"><ele>251.0</ele><time>2026-05-02T06:36:32.394Z</time></trkpt><trkpt lat="45.9672583" lon="12.15011"><ele>251.0</ele><time>2026-05-02T06:36:33.394Z</time></trkpt><trkpt lat="45.967325" lon="12.150315"><ele>251.0</ele><time>2026-05-02T06:36:34.394Z</time></trkpt><trkpt lat="45.9673917" lon="12.150525"><ele>251.0</ele><time>2026-05-02T06:36:35.394Z</time></trkpt><trkpt lat="45.9674533" lon="12.1507317"><ele>251.0</ele><time>2026-05-02T06:36:36.394Z</time></trkpt><trkpt lat="45.9675067" lon="12.150935"><ele>253.5</ele><time>2026-05-02T06:36:37.393Z</time></trkpt><trkpt lat="45.967565" lon="12.15112"><ele>256.0</ele><time>2026-05-02T06:36:38.394Z</time></trkpt><trkpt lat="45.9676233" lon="12.1513083"><ele>258.5</ele><time>2026-05-02T06:36:39.394Z</time></trkpt><trkpt lat="45.9676767" lon="12.151485"><ele>261.0</ele><time>2026-05-02T06:36:40.393Z</time></trkpt><trkpt lat="45.96773" lon="12.151665"><ele>261.0</ele><time>2026-05-02T06:36:41.393Z</time></trkpt><trkpt lat="45.9677833" lon="12.151845"><ele>261.0</ele><time>2026-05-02T06:36:42.394Z</time></trkpt><trkpt lat="45.96784" lon="12.152025"><ele>261.0</ele><time>2026-05-02T06:36:43.394Z</time></trkpt><trkpt lat="45.9678933" lon="12.1522"><ele>261.0</ele><time>2026-05-02T06:36:44.394Z</time></trkpt><trkpt lat="45.96795" lon="12.152375"><ele>259.0</ele><time>2026-05-02T06:36:45.394Z</time></trkpt><trkpt lat="45.968005" lon="12.152565"><ele>257.0</ele><time>2026-05-02T06:36:46.394Z</time></trkpt><trkpt lat="45.968065" lon="12.1527533"><ele>255.0</ele><time>2026-05-02T06:36:47.394Z</time></trkpt><trkpt lat="45.9681233" lon="12.1529483"><ele>253.0</ele><time>2026-05-02T06:36:48.394Z</time></trkpt><trkpt lat="45.9681867" lon="12.1531367"><ele>251.75</ele><time>2026-05-02T06:36:49.394Z</time></trkpt><trkpt lat="45.968255" lon="12.153325"><ele>250.5</ele><time>2026-05-02T06:36:50.394Z</time></trkpt><trkpt lat="45.9683317" lon="12.1535083"><ele>249.25</ele><time>2026-05-02T06:36:51.394Z</time></trkpt><trkpt lat="45.9684083" lon="12.1536883"><ele>248.0</ele><time>2026-05-02T06:36:52.394Z</time></trkpt><trkpt lat="45.9684833" lon="12.1538633"><ele>249.75</ele><time>2026-05-02T06:36:53.393Z</time></trkpt><trkpt lat="45.9685733" lon="12.1540383"><ele>251.5</ele><time>2026-05-02T06:36:54.394Z</time></trkpt><trkpt lat="45.96867" lon="12.154205"><ele>253.25</ele><time>2026-05-02T06:36:55.394Z</time></trkpt><trkpt lat="45.9687633" lon="12.1543667"><ele>255.0</ele><time>2026-05-02T06:36:56.394Z</time></trkpt><trkpt lat="45.9688517" lon="12.154525"><ele>255.0</ele><time>2026-05-02T06:36:57.394Z</time></trkpt><trkpt lat="45.9689317" lon="12.15469"><ele>255.0</ele><time>2026-05-02T06:36:58.394Z</time></trkpt><trkpt lat="45.9690217" lon="12.154855"><ele>255.0</ele><time>2026-05-02T06:36:59.394Z</time></trkpt><trkpt lat="45.969115" lon="12.1550283"><ele>255.0</ele><time>2026-05-02T06:37:00.394Z</time></trkpt><trkpt lat="45.9692117" lon="12.1552067"><ele>253.66666666666669</ele><time>2026-05-02T06:37:01.394Z</time></trkpt><trkpt lat="45.969315" lon="12.15539"><ele>252.33333333333334</ele><time>2026-05-02T06:37:02.394Z</time></trkpt><trkpt lat="45.9694217" lon="12.1555767"><ele>251.0</ele><time>2026-05-02T06:37:03.394Z</time></trkpt><trkpt lat="45.9695217" lon="12.1557817"><ele>251.0</ele><time>2026-05-02T06:37:04.394Z</time></trkpt><trkpt lat="45.9696283" lon="12.1559883"><ele>251.0</ele><time>2026-05-02T06:37:05.394Z</time></trkpt><trkpt lat="45.96974" lon="12.1561867"><ele>251.0</ele><time>2026-05-02T06:37:06.393Z</time></trkpt><trkpt lat="45.969855" lon="12.1563933"><ele>246.33333333333334</ele><time>2026-05-02T06:37:07.394Z</time></trkpt><trkpt lat="45.9699667" lon="12.1565983"><ele>241.66666666666669</ele><time>2026-05-02T06:37:08.394Z</time></trkpt><trkpt lat="45.9700717" lon="12.15679"><ele>237.0</ele><time>2026-05-02T06:37:09.394Z</time></trkpt><trkpt lat="45.9701717" lon="12.1569717"><ele>243.66666666666669</ele><time>2026-05-02T06:37:10.394Z</time></trkpt><trkpt lat="45.97027" lon="12.1571417"><ele>250.33333333333334</ele><time>2026-05-02T06:37:11.394Z</time></trkpt><trkpt lat="45.970365" lon="12.1573167"><ele>257.0</ele><time>2026-05-02T06:37:12.394Z</time></trkpt><trkpt lat="45.9704583" lon="12.1574933"><ele>257.0</ele><time>2026-05-02T06:37:13.394Z</time></trkpt><trkpt lat="45.970555" lon="12.157675"><ele>257.0</ele><time>2026-05-02T06:37:14.394Z</time></trkpt><trkpt lat="45.9706517" lon="12.1578683"><ele>257.0</ele><time>2026-05-02T06:37:15.393Z</time></trkpt><trkpt lat="45.97074" lon="12.1580717"><ele>252.66666666666669</ele><time>2026-05-02T06:37:16.393Z</time></trkpt><trkpt lat="45.9708183" lon="12.15828"><ele>248.33333333333331</ele><time>2026-05-02T06:37:17.394Z</time></trkpt><trkpt lat="45.97089" lon="12.1584917"><ele>244.0</ele><time>2026-05-02T06:37:18.394Z</time></trkpt><trkpt lat="45.9709567" lon="12.1587117"><ele>252.33333333333331</ele><time>2026-05-02T06:37:19.393Z</time></trkpt><trkpt lat="45.971015" lon="12.1589317"><ele>260.6666666666667</ele><time>2026-05-02T06:37:20.394Z</time></trkpt><trkpt lat="45.97107" lon="12.1591517"><ele>269.0</ele><time>2026-05-02T06:37:21.394Z</time></trkpt><trkpt lat="45.971125" lon="12.15937"><ele>269.0</ele><time>2026-05-02T06:37:22.393Z</time></trkpt><trkpt lat="45.9711883" lon="12.1595867"><ele>269.0</ele><time>2026-05-02T06:37:23.394Z</time></trkpt><trkpt lat="45.971245" lon="12.1597967"><ele>269.0</ele><time>2026-05-02T06:37:24.393Z</time></trkpt><trkpt lat="45.9712983" lon="12.160005"><ele>265.0</ele><time>2026-05-02T06:37:25.394Z</time></trkpt><trkpt lat="45.9713483" lon="12.1602033"><ele>261.0</ele><time>2026-05-02T06:37:26.394Z</time></trkpt><trkpt lat="45.9713983" lon="12.1603967"><ele>257.0</ele><time>2026-05-02T06:37:27.394Z</time></trkpt><trkpt lat="45.9714483" lon="12.16058"><ele>253.0</ele><time>2026-05-02T06:37:28.394Z</time></trkpt><trkpt lat="45.9714983" lon="12.16076"><ele>249.75</ele><time>2026-05-02T06:37:29.394Z</time></trkpt><trkpt lat="45.971545" lon="12.1609483"><ele>246.5</ele><time>2026-05-02T06:37:30.393Z</time></trkpt><trkpt lat="45.9715933" lon="12.1611433"><ele>243.25</ele><time>2026-05-02T06:37:31.394Z</time></trkpt><trkpt lat="45.9716283" lon="12.1613433"><ele>240.0</ele><time>2026-05-02T06:37:32.394Z</time></trkpt><trkpt lat="45.9716633" lon="12.1615433"><ele>239.0</ele><time>2026-05-02T06:37:33.394Z</time></trkpt><trkpt lat="45.9716833" lon="12.1617333"><ele>238.0</ele><time>2026-05-02T06:37:34.394Z</time></trkpt><trkpt lat="45.9716983" lon="12.1619117"><ele>237.0</ele><time>2026-05-02T06:37:35.394Z</time></trkpt><trkpt lat="45.9717017" lon="12.1620933"><ele>236.0</ele><time>2026-05-02T06:37:36.394Z</time></trkpt><trkpt lat="45.9717067" lon="12.1622867"><ele>241.75</ele><time>2026-05-02T06:37:37.393Z</time></trkpt><trkpt lat="45.97171" lon="12.162485"><ele>247.5</ele><time>2026-05-02T06:37:38.394Z</time></trkpt><trkpt lat="45.9717083" lon="12.1626967"><ele>253.25</ele><time>2026-05-02T06:37:39.394Z</time></trkpt><trkpt lat="45.97171" lon="12.1629017"><ele>259.0</ele><time>2026-05-02T06:37:40.393Z</time></trkpt><trkpt lat="45.9717067" lon="12.1631017"><ele>259.5</ele><time>2026-05-02T06:37:41.394Z</time></trkpt><trkpt lat="45.97171" lon="12.1632883"><ele>260.0</ele><time>2026-05-02T06:37:42.393Z</time></trkpt><trkpt lat="45.9717167" lon="12.1634767"><ele>260.5</ele><time>2026-05-02T06:37:43.394Z</time></trkpt><trkpt lat="45.97172" lon="12.1636633"><ele>261.0</ele><time>2026-05-02T06:37:44.393Z</time></trkpt><trkpt lat="45.9717183" lon="12.1638617"><ele>260.5</ele><time>2026-05-02T06:37:45.394Z</time></trkpt><trkpt lat="45.9717217" lon="12.1640617"><ele>260.0</ele><time>2026-05-02T06:37:46.393Z</time></trkpt><trkpt lat="45.9717183" lon="12.1642767"><ele>259.5</ele><time>2026-05-02T06:37:47.393Z</time></trkpt><trkpt lat="45.9717217" lon="12.1644933"><ele>259.0</ele><time>2026-05-02T06:37:48.394Z</time></trkpt><trkpt lat="45.9717167" lon="12.16472"><ele>259.66666666666663</ele><time>2026-05-02T06:37:49.394Z</time></trkpt><trkpt lat="45.9717217" lon="12.1649467"><ele>260.3333333333333</ele><time>2026-05-02T06:37:50.394Z</time></trkpt><trkpt lat="45.9717283" lon="12.1651833"><ele>261.0</ele><time>2026-05-02T06:37:51.393Z</time></trkpt><trkpt lat="45.971735" lon="12.16543"><ele>261.0</ele><time>2026-05-02T06:37:52.394Z</time></trkpt><trkpt lat="45.9717417" lon="12.165675"><ele>261.0</ele><time>2026-05-02T06:37:53.394Z</time></trkpt><trkpt lat="45.9717567" lon="12.1659217"><ele>261.0</ele><time>2026-05-02T06:37:54.394Z</time></trkpt><trkpt lat="45.9717683" lon="12.1661667"><ele>262.3333333333333</ele><time>2026-05-02T06:37:55.394Z</time></trkpt><trkpt lat="45.9717867" lon="12.166415"><ele>263.66666666666663</ele><time>2026-05-02T06:37:56.394Z</time></trkpt><trkpt lat="45.971815" lon="12.1666667"><ele>265.0</ele><time>2026-05-02T06:37:57.394Z</time></trkpt><trkpt lat="45.97185" lon="12.1669133"><ele>266.0</ele><time>2026-05-02T06:37:58.394Z</time></trkpt><trkpt lat="45.971885" lon="12.167145"><ele>267.0</ele><time>2026-05-02T06:37:59.394Z</time></trkpt><trkpt lat="45.9719233" lon="12.1673633"><ele>268.0</ele><time>2026-05-02T06:38:00.394Z</time></trkpt><trkpt lat="45.97196" lon="12.167575"><ele>268.0</ele><time>2026-05-02T06:38:01.394Z</time></trkpt><trkpt lat="45.9720033" lon="12.16778"><ele>268.0</ele><time>2026-05-02T06:38:02.394Z</time></trkpt><trkpt lat="45.97203" lon="12.1679817"><ele>268.0</ele><time>2026-05-02T06:38:03.394Z</time></trkpt><trkpt lat="45.97206" lon="12.168175"><ele>268.0</ele><time>2026-05-02T06:38:04.394Z</time></trkpt><trkpt lat="45.9720983" lon="12.168365"><ele>267.0</ele><time>2026-05-02T06:38:05.394Z</time></trkpt><trkpt lat="45.9721383" lon="12.16856"><ele>266.0</ele><time>2026-05-02T06:38:06.394Z</time></trkpt><trkpt lat="45.972165" lon="12.1687717"><ele>265.0</ele><time>2026-05-02T06:38:07.394Z</time></trkpt><trkpt lat="45.972195" lon="12.1689833"><ele>264.0</ele><time>2026-05-02T06:38:08.394Z</time></trkpt><trkpt lat="45.9722333" lon="12.1691867"><ele>262.0</ele><time>2026-05-02T06:38:09.393Z</time></trkpt><trkpt lat="45.9722683" lon="12.16939"><ele>260.0</ele><time>2026-05-02T06:38:10.394Z</time></trkpt><trkpt lat="45.97231" lon="12.1695917"><ele>258.0</ele><time>2026-05-02T06:38:11.394Z</time></trkpt><trkpt lat="45.9723483" lon="12.1697867"><ele>256.0</ele><time>2026-05-02T06:38:12.394Z</time></trkpt><trkpt lat="45.97239" lon="12.169985"><ele>253.75</ele><time>2026-05-02T06:38:13.394Z</time></trkpt><trkpt lat="45.97243" lon="12.1701917"><ele>251.5</ele><time>2026-05-02T06:38:14.393Z</time></trkpt><trkpt lat="45.9724683" lon="12.1703933"><ele>249.25</ele><time>2026-05-02T06:38:15.393Z</time></trkpt><trkpt lat="45.9725067" lon="12.1705917"><ele>247.0</ele><time>2026-05-02T06:38:16.394Z</time></trkpt><trkpt lat="45.97255" lon="12.1708017"><ele>263.66666666666663</ele><time>2026-05-02T06:38:17.393Z</time></trkpt><trkpt lat="45.9726017" lon="12.171015"><ele>280.3333333333333</ele><time>2026-05-02T06:38:18.394Z</time></trkpt><trkpt lat="45.9726567" lon="12.1712333"><ele>297.0</ele><time>2026-05-02T06:38:19.394Z</time></trkpt><trkpt lat="45.972715" lon="12.1714467"><ele>289.6666666666667</ele><time>2026-05-02T06:38:20.393Z</time></trkpt><trkpt lat="45.9727767" lon="12.1716533"><ele>282.33333333333337</ele><time>2026-05-02T06:38:21.394Z</time></trkpt><trkpt lat="45.9728367" lon="12.1718567"><ele>275.0</ele><time>2026-05-02T06:38:22.394Z</time></trkpt><trkpt lat="45.9729" lon="12.1720617"><ele>275.0</ele><time>2026-05-02T06:38:23.394Z</time></trkpt><trkpt lat="45.9729617" lon="12.1722683"><ele>275.0</ele><time>2026-05-02T06:38:24.393Z</time></trkpt><trkpt lat="45.97302" lon="12.1724817"><ele>275.0</ele><time>2026-05-02T06:38:25.393Z</time></trkpt><trkpt lat="45.973075" lon="12.17269"><ele>267.33333333333337</ele><time>2026-05-02T06:38:26.394Z</time></trkpt><trkpt lat="45.97313" lon="12.1729017"><ele>259.6666666666667</ele><time>2026-05-02T06:38:27.394Z</time></trkpt><trkpt lat="45.97319" lon="12.1731"><ele>252.0</ele><time>2026-05-02T06:38:28.394Z</time></trkpt><trkpt lat="45.9732533" lon="12.1732983"><ele>251.75</ele><time>2026-05-02T06:38:29.394Z</time></trkpt><trkpt lat="45.9733067" lon="12.1734933"><ele>251.5</ele><time>2026-05-02T06:38:30.394Z</time></trkpt><trkpt lat="45.9733633" lon="12.173695"><ele>251.25</ele><time>2026-05-02T06:38:31.394Z</time></trkpt><trkpt lat="45.9734133" lon="12.173895"><ele>251.0</ele><time>2026-05-02T06:38:32.394Z</time></trkpt><trkpt lat="45.9734583" lon="12.17409"><ele>247.75</ele><time>2026-05-02T06:38:33.394Z</time></trkpt><trkpt lat="45.9734983" lon="12.1742733"><ele>244.5</ele><time>2026-05-02T06:38:34.394Z</time></trkpt><trkpt lat="45.9735333" lon="12.174455"><ele>241.25</ele><time>2026-05-02T06:38:35.394Z</time></trkpt><trkpt lat="45.9735633" lon="12.174635"><ele>238.0</ele><time>2026-05-02T06:38:36.394Z</time></trkpt><trkpt lat="45.9735883" lon="12.1748033"><ele>238.4</ele><time>2026-05-02T06:38:37.394Z</time></trkpt><trkpt lat="45.97361" lon="12.1749633"><ele>238.8</ele><time>2026-05-02T06:38:38.394Z</time></trkpt><trkpt lat="45.9736367" lon="12.1751117"><ele>239.2</ele><time>2026-05-02T06:38:39.394Z</time></trkpt><trkpt lat="45.9736567" lon="12.1752367"><ele>239.6</ele><time>2026-05-02T06:38:40.394Z</time></trkpt><trkpt lat="45.9736833" lon="12.175345"><ele>240.0</ele><time>2026-05-02T06:38:41.393Z</time></trkpt><trkpt lat="45.9737167" lon="12.1754417"><ele>240.0</ele><time>2026-05-02T06:38:42.393Z</time></trkpt><trkpt lat="45.9737633" lon="12.1755117"><ele>240.0</ele><time>2026-05-02T06:38:43.394Z</time></trkpt><trkpt lat="45.9738267" lon="12.1755583"><ele>240.0</ele><time>2026-05-02T06:38:44.393Z</time></trkpt><trkpt lat="45.9738933" lon="12.17558"><ele>240.0</ele><time>2026-05-02T06:38:45.394Z</time></trkpt><trkpt lat="45.973975" lon="12.1755817"><ele>240.0</ele><time>2026-05-02T06:38:46.394Z</time></trkpt><trkpt lat="45.9740567" lon="12.17556"><ele>240.0</ele><time>2026-05-02T06:38:47.394Z</time></trkpt><trkpt lat="45.9741417" lon="12.17555"><ele>240.4</ele><time>2026-05-02T06:38:48.393Z</time></trkpt><trkpt lat="45.9742283" lon="12.1755333"><ele>240.8</ele><time>2026-05-02T06:38:49.394Z</time></trkpt><trkpt lat="45.9743083" lon="12.1755183"><ele>241.2</ele><time>2026-05-02T06:38:50.393Z</time></trkpt><trkpt lat="45.97441" lon="12.1755067"><ele>241.6</ele><time>2026-05-02T06:38:52.394Z</time></trkpt><trkpt lat="45.974535" lon="12.175495"><ele>242.0</ele><time>2026-05-02T06:38:54.394Z</time></trkpt><trkpt lat="45.9746367" lon="12.1754817"><ele>242.0</ele><time>2026-05-02T06:38:55.393Z</time></trkpt><trkpt lat="45.974755" lon="12.1754617"><ele>242.0</ele><time>2026-05-02T06:38:56.393Z</time></trkpt><trkpt lat="45.9749033" lon="12.1754433"><ele>242.0</ele><time>2026-05-02T06:38:57.394Z</time></trkpt><trkpt lat="45.9750567" lon="12.1754167"><ele>242.0</ele><time>2026-05-02T06:38:58.394Z</time></trkpt><trkpt lat="45.9752133" lon="12.1753967"><ele>242.66666666666669</ele><time>2026-05-02T06:38:59.394Z</time></trkpt><trkpt lat="45.975375" lon="12.175375"><ele>243.33333333333331</ele><time>2026-05-02T06:39:00.393Z</time></trkpt><trkpt lat="45.975535" lon="12.17535"><ele>244.0</ele><time>2026-05-02T06:39:01.394Z</time></trkpt><trkpt lat="45.9756983" lon="12.175315"><ele>246.0</ele><time>2026-05-02T06:39:02.393Z</time></trkpt><trkpt lat="45.9758717" lon="12.1752517"><ele>248.0</ele><time>2026-05-02T06:39:03.394Z</time></trkpt><trkpt lat="45.9760683" lon="12.1751667"><ele>250.0</ele><time>2026-05-02T06:39:04.394Z</time></trkpt><trkpt lat="45.976285" lon="12.175075"><ele>250.0</ele><time>2026-05-02T06:39:05.394Z</time></trkpt><trkpt lat="45.9765033" lon="12.174985"><ele>250.0</ele><time>2026-05-02T06:39:06.394Z</time></trkpt><trkpt lat="45.97671" lon="12.1749083"><ele>250.0</ele><time>2026-05-02T06:39:07.393Z</time></trkpt><trkpt lat="45.9769083" lon="12.1748533"><ele>252.0</ele><time>2026-05-02T06:39:08.393Z</time></trkpt><trkpt lat="45.9770817" lon="12.1748333"><ele>254.0</ele><time>2026-05-02T06:39:09.393Z</time></trkpt><trkpt lat="45.97724" lon="12.1748267"><ele>256.0</ele><time>2026-05-02T06:39:10.394Z</time></trkpt><trkpt lat="45.9773767" lon="12.174805"><ele>256.0</ele><time>2026-05-02T06:39:11.394Z</time></trkpt><trkpt lat="45.9775017" lon="12.17479"><ele>256.0</ele><time>2026-05-02T06:39:12.394Z</time></trkpt><trkpt lat="45.9776233" lon="12.1747667"><ele>256.0</ele><time>2026-05-02T06:39:13.394Z</time></trkpt><trkpt lat="45.977745" lon="12.17474"><ele>256.0</ele><time>2026-05-02T06:39:14.393Z</time></trkpt><trkpt lat="45.9778733" lon="12.174735"><ele>256.25</ele><time>2026-05-02T06:39:15.394Z</time></trkpt><trkpt lat="45.977995" lon="12.1747333"><ele>256.5</ele><time>2026-05-02T06:39:16.393Z</time></trkpt><trkpt lat="45.9781117" lon="12.174745"><ele>256.75</ele><time>2026-05-02T06:39:17.394Z</time></trkpt><trkpt lat="45.9782217" lon="12.1747567"><ele>257.0</ele><time>2026-05-02T06:39:18.394Z</time></trkpt><trkpt lat="45.9783267" lon="12.1747767"><ele>257.4</ele><time>2026-05-02T06:39:19.394Z</time></trkpt><trkpt lat="45.978425" lon="12.174805"><ele>257.79999999999995</ele><time>2026-05-02T06:39:20.394Z</time></trkpt><trkpt lat="45.9785167" lon="12.1748367"><ele>258.2</ele><time>2026-05-02T06:39:21.394Z</time></trkpt><trkpt lat="45.978625" lon="12.1748767"><ele>258.59999999999997</ele><time>2026-05-02T06:39:22.394Z</time></trkpt><trkpt lat="45.978735" lon="12.1749067"><ele>259.0</ele><time>2026-05-02T06:39:23.394Z</time></trkpt><trkpt lat="45.9788483" lon="12.1749367"><ele>259.25</ele><time>2026-05-02T06:39:24.393Z</time></trkpt><trkpt lat="45.978965" lon="12.17495"><ele>259.5</ele><time>2026-05-02T06:39:25.394Z</time></trkpt><trkpt lat="45.9790817" lon="12.1749567"><ele>259.75</ele><time>2026-05-02T06:39:26.394Z</time></trkpt><trkpt lat="45.979205" lon="12.174965"><ele>260.0</ele><time>2026-05-02T06:39:27.394Z</time></trkpt><trkpt lat="45.9793267" lon="12.1749667"><ele>261.25</ele><time>2026-05-02T06:39:28.394Z</time></trkpt><trkpt lat="45.9794433" lon="12.1749467"><ele>262.5</ele><time>2026-05-02T06:39:29.394Z</time></trkpt><trkpt lat="45.97956" lon="12.1749033"><ele>263.75</ele><time>2026-05-02T06:39:30.393Z</time></trkpt><trkpt lat="45.979685" lon="12.17485"><ele>265.0</ele><time>2026-05-02T06:39:31.394Z</time></trkpt><trkpt lat="45.97981" lon="12.1747917"><ele>265.25</ele><time>2026-05-02T06:39:32.394Z</time></trkpt><trkpt lat="45.9799433" lon="12.1747383"><ele>265.5</ele><time>2026-05-02T06:39:33.394Z</time></trkpt><trkpt lat="45.98008" lon="12.174665"><ele>265.75</ele><time>2026-05-02T06:39:34.394Z</time></trkpt><trkpt lat="45.9802367" lon="12.17459"><ele>266.0</ele><time>2026-05-02T06:39:35.394Z</time></trkpt><trkpt lat="45.9803967" lon="12.1745333"><ele>267.33333333333337</ele><time>2026-05-02T06:39:36.394Z</time></trkpt><trkpt lat="45.980565" lon="12.1744683"><ele>268.6666666666667</ele><time>2026-05-02T06:39:37.394Z</time></trkpt><trkpt lat="45.98073" lon="12.1744017"><ele>270.0</ele><time>2026-05-02T06:39:38.394Z</time></trkpt><trkpt lat="45.9808983" lon="12.1743283"><ele>271.3333333333333</ele><time>2026-05-02T06:39:39.394Z</time></trkpt><trkpt lat="45.98107" lon="12.174265"><ele>272.66666666666663</ele><time>2026-05-02T06:39:40.394Z</time></trkpt><trkpt lat="45.9812517" lon="12.174195"><ele>274.0</ele><time>2026-05-02T06:39:41.393Z</time></trkpt><trkpt lat="45.981425" lon="12.174125"><ele>274.0</ele><time>2026-05-02T06:39:42.394Z</time></trkpt><trkpt lat="45.9815983" lon="12.174055"><ele>274.0</ele><time>2026-05-02T06:39:43.394Z</time></trkpt><trkpt lat="45.9817817" lon="12.1739867"><ele>274.0</ele><time>2026-05-02T06:39:44.394Z</time></trkpt><trkpt lat="45.9819683" lon="12.1739033"><ele>273.66666666666663</ele><time>2026-05-02T06:39:45.394Z</time></trkpt><trkpt lat="45.9821567" lon="12.1738233"><ele>273.3333333333333</ele><time>2026-05-02T06:39:46.394Z</time></trkpt><trkpt lat="45.9823567" lon="12.17374"><ele>273.0</ele><time>2026-05-02T06:39:47.394Z</time></trkpt><trkpt lat="45.982565" lon="12.1736583"><ele>276.0</ele><time>2026-05-02T06:39:48.394Z</time></trkpt><trkpt lat="45.982775" lon="12.1735717"><ele>279.0</ele><time>2026-05-02T06:39:49.394Z</time></trkpt><trkpt lat="45.9829767" lon="12.1734883"><ele>282.0</ele><time>2026-05-02T06:39:50.394Z</time></trkpt><trkpt lat="45.9831833" lon="12.1733983"><ele>284.5</ele><time>2026-05-02T06:39:51.394Z</time></trkpt><trkpt lat="45.9834033" lon="12.173305"><ele>287.0</ele><time>2026-05-02T06:39:52.393Z</time></trkpt><trkpt lat="45.983645" lon="12.1732083"><ele>287.5</ele><time>2026-05-02T06:39:53.394Z</time></trkpt><trkpt lat="45.983885" lon="12.1731317"><ele>288.0</ele><time>2026-05-02T06:39:54.394Z</time></trkpt><trkpt lat="45.9841233" lon="12.173065"><ele>290.5</ele><time>2026-05-02T06:39:55.394Z</time></trkpt><trkpt lat="45.9843567" lon="12.1730033"><ele>293.0</ele><time>2026-05-02T06:39:56.394Z</time></trkpt><trkpt lat="45.9845783" lon="12.172945"><ele>293.0</ele><time>2026-05-02T06:39:57.393Z</time></trkpt><trkpt lat="45.9847817" lon="12.172885"><ele>293.0</ele><time>2026-05-02T06:39:58.394Z</time></trkpt><trkpt lat="45.9849717" lon="12.1728283"><ele>293.0</ele><time>2026-05-02T06:39:59.394Z</time></trkpt><trkpt lat="45.9851667" lon="12.1727717"><ele>295.33333333333337</ele><time>2026-05-02T06:40:00.394Z</time></trkpt><trkpt lat="45.985365" lon="12.1727067"><ele>297.6666666666667</ele><time>2026-05-02T06:40:01.394Z</time></trkpt><trkpt lat="45.9855667" lon="12.1726217"><ele>300.0</ele><time>2026-05-02T06:40:02.394Z</time></trkpt><trkpt lat="45.9857617" lon="12.17253"><ele>302.3333333333333</ele><time>2026-05-02T06:40:03.394Z</time></trkpt><trkpt lat="45.9859583" lon="12.1724367"><ele>304.66666666666663</ele><time>2026-05-02T06:40:04.393Z</time></trkpt><trkpt lat="45.98614" lon="12.1723733"><ele>307.0</ele><time>2026-05-02T06:40:05.394Z</time></trkpt><trkpt lat="45.986345" lon="12.1723333"><ele>307.0</ele><time>2026-05-02T06:40:06.394Z</time></trkpt><trkpt lat="45.98655" lon="12.1723"><ele>307.0</ele><time>2026-05-02T06:40:07.394Z</time></trkpt><trkpt lat="45.986745" lon="12.1722767"><ele>307.0</ele><time>2026-05-02T06:40:08.394Z</time></trkpt><trkpt lat="45.9869317" lon="12.1722633"><ele>310.0</ele><time>2026-05-02T06:40:09.394Z</time></trkpt><trkpt lat="45.987115" lon="12.1722617"><ele>313.0</ele><time>2026-05-02T06:40:10.394Z</time></trkpt><trkpt lat="45.9872933" lon="12.17226"><ele>316.0</ele><time>2026-05-02T06:40:11.394Z</time></trkpt><trkpt lat="45.987485" lon="12.1722783"><ele>316.66666666666663</ele><time>2026-05-02T06:40:12.394Z</time></trkpt><trkpt lat="45.98768" lon="12.1723233"><ele>317.3333333333333</ele><time>2026-05-02T06:40:13.394Z</time></trkpt><trkpt lat="45.987875" lon="12.1723833"><ele>318.0</ele><time>2026-05-02T06:40:14.394Z</time></trkpt><trkpt lat="45.9880517" lon="12.1724483"><ele>318.0</ele><time>2026-05-02T06:40:15.393Z</time></trkpt><trkpt lat="45.9882283" lon="12.1724967"><ele>318.0</ele><time>2026-05-02T06:40:16.394Z</time></trkpt><trkpt lat="45.9884083" lon="12.1725117"><ele>318.0</ele><time>2026-05-02T06:40:17.394Z</time></trkpt><trkpt lat="45.9885917" lon="12.1725033"><ele>321.3333333333333</ele><time>2026-05-02T06:40:18.394Z</time></trkpt><trkpt lat="45.98878" lon="12.1724833"><ele>324.66666666666663</ele><time>2026-05-02T06:40:19.394Z</time></trkpt><trkpt lat="45.9889683" lon="12.1724567"><ele>328.0</ele><time>2026-05-02T06:40:20.394Z</time></trkpt><trkpt lat="45.9891633" lon="12.17241"><ele>332.3333333333333</ele><time>2026-05-02T06:40:21.394Z</time></trkpt><trkpt lat="45.98937" lon="12.1723867"><ele>336.6666666666667</ele><time>2026-05-02T06:40:22.394Z</time></trkpt><trkpt lat="45.9895667" lon="12.1723917"><ele>341.0</ele><time>2026-05-02T06:40:23.394Z</time></trkpt><trkpt lat="45.9897517" lon="12.1724183"><ele>341.0</ele><time>2026-05-02T06:40:24.394Z</time></trkpt><trkpt lat="45.9899167" lon="12.1724517"><ele>341.0</ele><time>2026-05-02T06:40:25.394Z</time></trkpt><trkpt lat="45.9900417" lon="12.172485"><ele>341.0</ele><time>2026-05-02T06:40:26.394Z</time></trkpt><trkpt lat="45.9901433" lon="12.1725083"><ele>341.0</ele><time>2026-05-02T06:40:27.394Z</time></trkpt><trkpt lat="45.9902217" lon="12.172525"><ele>342.4</ele><time>2026-05-02T06:40:28.394Z</time></trkpt><trkpt lat="45.990285" lon="12.172515"><ele>343.8</ele><time>2026-05-02T06:40:29.393Z</time></trkpt><trkpt lat="45.990335" lon="12.1723917"><ele>345.2</ele><time>2026-05-02T06:40:31.393Z</time></trkpt><trkpt lat="45.9902383" lon="12.1722483"><ele>346.59999999999997</ele><time>2026-05-02T06:40:33.393Z</time></trkpt><trkpt lat="45.9901217" lon="12.1722167"><ele>348.0</ele><time>2026-05-02T06:40:34.394Z</time></trkpt><trkpt lat="45.98997" lon="12.1721817"><ele>355.6666666666667</ele><time>2026-05-02T06:40:35.394Z</time></trkpt><trkpt lat="45.9897917" lon="12.17213"><ele>363.33333333333337</ele><time>2026-05-02T06:40:36.393Z</time></trkpt><trkpt lat="45.989605" lon="12.1720717"><ele>371.0</ele><time>2026-05-02T06:40:37.394Z</time></trkpt><trkpt lat="45.9894333" lon="12.172005"><ele>371.0</ele><time>2026-05-02T06:40:38.394Z</time></trkpt><trkpt lat="45.98927" lon="12.1719383"><ele>371.0</ele><time>2026-05-02T06:40:39.394Z</time></trkpt><trkpt lat="45.989135" lon="12.1718667"><ele>371.0</ele><time>2026-05-02T06:40:40.394Z</time></trkpt><trkpt lat="45.9890217" lon="12.1718183"><ele>371.0</ele><time>2026-05-02T06:40:41.394Z</time></trkpt><trkpt lat="45.9889467" lon="12.17179"><ele>371.0</ele><time>2026-05-02T06:40:42.394Z</time></trkpt><trkpt lat="45.9888733" lon="12.1716917"><ele>371.0</ele><time>2026-05-02T06:40:44.394Z</time></trkpt><trkpt lat="45.98892" lon="12.171565"><ele>371.0</ele><time>2026-05-02T06:40:46.394Z</time></trkpt><trkpt lat="45.9890033" lon="12.17154"><ele>371.0</ele><time>2026-05-02T06:40:47.394Z</time></trkpt><trkpt lat="45.9891183" lon="12.1715467"><ele>371.0</ele><time>2026-05-02T06:40:48.393Z</time></trkpt><trkpt lat="45.98926" lon="12.17161"><ele>371.0</ele><time>2026-05-02T06:40:49.394Z</time></trkpt><trkpt lat="45.9894217" lon="12.171715"><ele>371.0</ele><time>2026-05-02T06:40:50.394Z</time></trkpt><trkpt lat="45.9895867" lon="12.1718083"><ele>371.0</ele><time>2026-05-02T06:40:51.394Z</time></trkpt><trkpt lat="45.9897567" lon="12.1718833"><ele>371.0</ele><time>2026-05-02T06:40:52.394Z</time></trkpt><trkpt lat="45.9899433" lon="12.171925"><ele>371.0</ele><time>2026-05-02T06:40:53.394Z</time></trkpt><trkpt lat="45.99012" lon="12.1719633"><ele>371.0</ele><time>2026-05-02T06:40:54.394Z</time></trkpt><trkpt lat="45.990325" lon="12.1719817"><ele>379.0</ele><time>2026-05-02T06:40:55.394Z</time></trkpt><trkpt lat="45.9905133" lon="12.17202"><ele>387.0</ele><time>2026-05-02T06:40:56.393Z</time></trkpt><trkpt lat="45.9906817" lon="12.1720783"><ele>395.0</ele><time>2026-05-02T06:40:57.394Z</time></trkpt><trkpt lat="45.990815" lon="12.1721817"><ele>399.66666666666663</ele><time>2026-05-02T06:40:58.394Z</time></trkpt><trkpt lat="45.99098" lon="12.1722233"><ele>404.33333333333337</ele><time>2026-05-02T06:40:59.394Z</time></trkpt><trkpt lat="45.99115" lon="12.1722683"><ele>409.0</ele><time>2026-05-02T06:41:00.394Z</time></trkpt><trkpt lat="45.99129" lon="12.1723167"><ele>404.75</ele><time>2026-05-02T06:41:01.394Z</time></trkpt><trkpt lat="45.9914167" lon="12.1724033"><ele>400.5</ele><time>2026-05-02T06:41:02.394Z</time></trkpt><trkpt lat="45.991525" lon="12.1725283"><ele>396.25</ele><time>2026-05-02T06:41:03.394Z</time></trkpt><trkpt lat="45.9916217" lon="12.1726883"><ele>392.0</ele><time>2026-05-02T06:41:04.394Z</time></trkpt><trkpt lat="45.9917183" lon="12.1728117"><ele>392.0</ele><time>2026-05-02T06:41:05.394Z</time></trkpt><trkpt lat="45.991815" lon="12.1729283"><ele>392.0</ele><time>2026-05-02T06:41:06.394Z</time></trkpt><trkpt lat="45.9919383" lon="12.1729917"><ele>392.0</ele><time>2026-05-02T06:41:07.394Z</time></trkpt><trkpt lat="45.9920933" lon="12.1730533"><ele>392.0</ele><time>2026-05-02T06:41:08.394Z</time></trkpt><trkpt lat="45.9922433" lon="12.1731283"><ele>389.66666666666663</ele><time>2026-05-02T06:41:09.394Z</time></trkpt><trkpt lat="45.9923883" lon="12.173235"><ele>387.33333333333337</ele><time>2026-05-02T06:41:10.394Z</time></trkpt><trkpt lat="45.992535" lon="12.1733667"><ele>385.0</ele><time>2026-05-02T06:41:11.394Z</time></trkpt><trkpt lat="45.9926683" lon="12.1735017"><ele>385.0</ele><time>2026-05-02T06:41:12.394Z</time></trkpt><trkpt lat="45.9927783" lon="12.1736267"><ele>385.0</ele><time>2026-05-02T06:41:13.394Z</time></trkpt><trkpt lat="45.9928717" lon="12.173735"><ele>385.0</ele><time>2026-05-02T06:41:14.394Z</time></trkpt><trkpt lat="45.9929467" lon="12.173825"><ele>385.0</ele><time>2026-05-02T06:41:15.393Z</time></trkpt><trkpt lat="45.9930083" lon="12.1739017"><ele>385.0</ele><time>2026-05-02T06:41:16.394Z</time></trkpt><trkpt lat="45.9930683" lon="12.173955"><ele>385.0</ele><time>2026-05-02T06:41:17.394Z</time></trkpt><trkpt lat="45.9931583" lon="12.1739233"><ele>385.0</ele><time>2026-05-02T06:41:19.394Z</time></trkpt><trkpt lat="45.99315" lon="12.1737567"><ele>385.0</ele><time>2026-05-02T06:41:21.394Z</time></trkpt><trkpt lat="45.9930883" lon="12.173655"><ele>385.0</ele><time>2026-05-02T06:41:22.394Z</time></trkpt><trkpt lat="45.9929933" lon="12.173525"><ele>385.0</ele><time>2026-05-02T06:41:23.394Z</time></trkpt><trkpt lat="45.992865" lon="12.17337"><ele>385.0</ele><time>2026-05-02T06:41:24.394Z</time></trkpt><trkpt lat="45.9927033" lon="12.1731967"><ele>385.0</ele><time>2026-05-02T06:41:25.394Z</time></trkpt><trkpt lat="45.992545" lon="12.1730283"><ele>385.0</ele><time>2026-05-02T06:41:26.394Z</time></trkpt><trkpt lat="45.9923933" lon="12.1728983"><ele>386.4</ele><time>2026-05-02T06:41:27.394Z</time></trkpt><trkpt lat="45.992275" lon="12.1728133"><ele>387.8</ele><time>2026-05-02T06:41:28.394Z</time></trkpt><trkpt lat="45.9921883" lon="12.1727583"><ele>389.20000000000005</ele><time>2026-05-02T06:41:29.393Z</time></trkpt><trkpt lat="45.99212" lon="12.1727117"><ele>390.6</ele><time>2026-05-02T06:41:30.394Z</time></trkpt><trkpt lat="45.9920633" lon="12.1725883"><ele>392.0</ele><time>2026-05-02T06:41:32.394Z</time></trkpt><trkpt lat="45.99212" lon="12.17249"><ele>392.0</ele><time>2026-05-02T06:41:34.394Z</time></trkpt><trkpt lat="45.992185" lon="12.1725067"><ele>392.0</ele><time>2026-05-02T06:41:35.394Z</time></trkpt><trkpt lat="45.9922667" lon="12.17257"><ele>392.0</ele><time>2026-05-02T06:41:36.394Z</time></trkpt><trkpt lat="45.9923933" lon="12.1726817"><ele>392.0</ele><time>2026-05-02T06:41:37.393Z</time></trkpt><trkpt lat="45.9925483" lon="12.1727883"><ele>395.25</ele><time>2026-05-02T06:41:38.393Z</time></trkpt><trkpt lat="45.9926967" lon="12.172865"><ele>398.5</ele><time>2026-05-02T06:41:39.393Z</time></trkpt><trkpt lat="45.9928367" lon="12.1728933"><ele>401.75</ele><time>2026-05-02T06:41:40.393Z</time></trkpt><trkpt lat="45.99298" lon="12.1728733"><ele>405.0</ele><time>2026-05-02T06:41:41.394Z</time></trkpt><trkpt lat="45.9931533" lon="12.1728267"><ele>405.0</ele><time>2026-05-02T06:41:42.394Z</time></trkpt><trkpt lat="45.9933233" lon="12.1727617"><ele>405.0</ele><time>2026-05-02T06:41:43.394Z</time></trkpt><trkpt lat="45.9934633" lon="12.1727483"><ele>405.0</ele><time>2026-05-02T06:41:44.394Z</time></trkpt><trkpt lat="45.993595" lon="12.172775"><ele>405.0</ele><time>2026-05-02T06:41:45.394Z</time></trkpt><trkpt lat="45.9937367" lon="12.172855"><ele>406.66666666666663</ele><time>2026-05-02T06:41:46.394Z</time></trkpt><trkpt lat="45.9939033" lon="12.1729383"><ele>408.3333333333333</ele><time>2026-05-02T06:41:47.394Z</time></trkpt><trkpt lat="45.9940933" lon="12.1729883"><ele>410.0</ele><time>2026-05-02T06:41:48.394Z</time></trkpt><trkpt lat="45.9943033" lon="12.1730267"><ele>412.66666666666663</ele><time>2026-05-02T06:41:49.393Z</time></trkpt><trkpt lat="45.9945117" lon="12.173055"><ele>415.33333333333337</ele><time>2026-05-02T06:41:50.394Z</time></trkpt><trkpt lat="45.9947" lon="12.17306"><ele>418.0</ele><time>2026-05-02T06:41:51.394Z</time></trkpt><trkpt lat="45.9948917" lon="12.17305"><ele>419.6666666666667</ele><time>2026-05-02T06:41:52.394Z</time></trkpt><trkpt lat="45.9950783" lon="12.1729983"><ele>421.33333333333337</ele><time>2026-05-02T06:41:53.394Z</time></trkpt><trkpt lat="45.9952667" lon="12.1729133"><ele>423.0</ele><time>2026-05-02T06:41:54.394Z</time></trkpt><trkpt lat="45.9954467" lon="12.1728167"><ele>423.0</ele><time>2026-05-02T06:41:55.394Z</time></trkpt><trkpt lat="45.9956117" lon="12.17272"><ele>423.0</ele><time>2026-05-02T06:41:56.393Z</time></trkpt><trkpt lat="45.9957733" lon="12.172635"><ele>423.0</ele><time>2026-05-02T06:41:57.394Z</time></trkpt><trkpt lat="45.9959183" lon="12.1725633"><ele>424.66666666666663</ele><time>2026-05-02T06:41:58.393Z</time></trkpt><trkpt lat="45.9960583" lon="12.17248"><ele>426.3333333333333</ele><time>2026-05-02T06:41:59.394Z</time></trkpt><trkpt lat="45.9962067" lon="12.1723933"><ele>428.0</ele><time>2026-05-02T06:42:00.393Z</time></trkpt><trkpt lat="45.9963417" lon="12.17233"><ele>429.5</ele><time>2026-05-02T06:42:01.394Z</time></trkpt><trkpt lat="45.99647" lon="12.172295"><ele>431.0</ele><time>2026-05-02T06:42:02.394Z</time></trkpt><trkpt lat="45.9966033" lon="12.172295"><ele>432.5</ele><time>2026-05-02T06:42:03.394Z</time></trkpt><trkpt lat="45.99674" lon="12.1723317"><ele>434.0</ele><time>2026-05-02T06:42:04.394Z</time></trkpt><trkpt lat="45.9968767" lon="12.172385"><ele>434.0</ele><time>2026-05-02T06:42:05.394Z</time></trkpt><trkpt lat="45.997015" lon="12.1724367"><ele>434.0</ele><time>2026-05-02T06:42:06.394Z</time></trkpt><trkpt lat="45.9971317" lon="12.1724667"><ele>434.0</ele><time>2026-05-02T06:42:07.394Z</time></trkpt><trkpt lat="45.9972317" lon="12.172495"><ele>434.0</ele><time>2026-05-02T06:42:08.393Z</time></trkpt><trkpt lat="45.9973217" lon="12.1725183"><ele>433.99999999999994</ele><time>2026-05-02T06:42:09.394Z</time></trkpt><trkpt lat="45.9974033" lon="12.1725367"><ele>434.0</ele><time>2026-05-02T06:42:10.394Z</time></trkpt><trkpt lat="45.9974733" lon="12.1725583"><ele>434.0</ele><time>2026-05-02T06:42:11.394Z</time></trkpt><trkpt lat="45.9975467" lon="12.172575"><ele>434.0</ele><time>2026-05-02T06:42:12.394Z</time></trkpt><trkpt lat="45.99762" lon="12.17259"><ele>433.99999999999994</ele><time>2026-05-02T06:42:13.394Z</time></trkpt><trkpt lat="45.9977" lon="12.1726033"><ele>434.0</ele><time>2026-05-02T06:42:14.394Z</time></trkpt><trkpt lat="45.99777" lon="12.1726267"><ele>436.7142857142857</ele><time>2026-05-02T06:42:15.394Z</time></trkpt><trkpt lat="45.9978317" lon="12.1726733"><ele>439.42857142857144</ele><time>2026-05-02T06:42:16.394Z</time></trkpt><trkpt lat="45.9978767" lon="12.17274"><ele>442.1428571428571</ele><time>2026-05-02T06:42:17.394Z</time></trkpt><trkpt lat="45.997895" lon="12.172835"><ele>444.85714285714283</ele><time>2026-05-02T06:42:18.394Z</time></trkpt><trkpt lat="45.9978933" lon="12.1729267"><ele>447.57142857142856</ele><time>2026-05-02T06:42:19.394Z</time></trkpt><trkpt lat="45.997865" lon="12.1730167"><ele>450.2857142857142</ele><time>2026-05-02T06:42:20.394Z</time></trkpt><trkpt lat="45.9978167" lon="12.1730917"><ele>452.99999999999994</ele><time>2026-05-02T06:42:21.394Z</time></trkpt><trkpt lat="45.997745" lon="12.1731317"><ele>453.0</ele><time>2026-05-02T06:42:22.393Z</time></trkpt><trkpt lat="45.99763" lon="12.1731483"><ele>453.0</ele><time>2026-05-02T06:42:23.394Z</time></trkpt><trkpt lat="45.9975083" lon="12.17316"><ele>453.0</ele><time>2026-05-02T06:42:24.394Z</time></trkpt><trkpt lat="45.9973783" lon="12.173155"><ele>453.0</ele><time>2026-05-02T06:42:25.393Z</time></trkpt><trkpt lat="45.9972517" lon="12.173155"><ele>452.0</ele><time>2026-05-02T06:42:26.393Z</time></trkpt><trkpt lat="45.997135" lon="12.1731683"><ele>450.99999999999994</ele><time>2026-05-02T06:42:27.394Z</time></trkpt><trkpt lat="45.99703" lon="12.173195"><ele>449.99999999999994</ele><time>2026-05-02T06:42:28.394Z</time></trkpt><trkpt lat="45.9969333" lon="12.17324"><ele>449.0</ele><time>2026-05-02T06:42:29.393Z</time></trkpt><trkpt lat="45.9968433" lon="12.1732933"><ele>448.0</ele><time>2026-05-02T06:42:30.394Z</time></trkpt><trkpt lat="45.996755" lon="12.17335"><ele>448.00000000000006</ele><time>2026-05-02T06:42:31.394Z</time></trkpt><trkpt lat="45.9966817" lon="12.173415"><ele>448.0</ele><time>2026-05-02T06:42:32.394Z</time></trkpt><trkpt lat="45.99662" lon="12.1734917"><ele>448.0</ele><time>2026-05-02T06:42:33.394Z</time></trkpt><trkpt lat="45.9965617" lon="12.17357"><ele>448.0</ele><time>2026-05-02T06:42:34.394Z</time></trkpt><trkpt lat="45.996515" lon="12.1736383"><ele>448.00000000000006</ele><time>2026-05-02T06:42:35.394Z</time></trkpt><trkpt lat="45.9964333" lon="12.17376"><ele>448.0</ele><time>2026-05-02T06:42:37.393Z</time></trkpt><trkpt lat="45.99636" lon="12.1738817"><ele>448.0</ele><time>2026-05-02T06:42:39.394Z</time></trkpt><trkpt lat="45.99635" lon="12.1739983"><ele>447.99999999999994</ele><time>2026-05-02T06:42:41.394Z</time></trkpt><trkpt lat="45.9964483" lon="12.1740233"><ele>447.99999999999994</ele><time>2026-05-02T06:42:43.394Z</time></trkpt><trkpt lat="45.9965183" lon="12.173925"><ele>448.0</ele><time>2026-05-02T06:42:44.394Z</time></trkpt><trkpt lat="45.9966" lon="12.1738117"><ele>448.0</ele><time>2026-05-02T06:42:45.393Z</time></trkpt><trkpt lat="45.9967" lon="12.173725"><ele>448.0</ele><time>2026-05-02T06:42:46.394Z</time></trkpt><trkpt lat="45.9968067" lon="12.1736633"><ele>447.99999999999994</ele><time>2026-05-02T06:42:47.393Z</time></trkpt><trkpt lat="45.99691" lon="12.1736233"><ele>447.99999999999994</ele><time>2026-05-02T06:42:48.394Z</time></trkpt><trkpt lat="45.9970033" lon="12.1736017"><ele>448.0</ele><time>2026-05-02T06:42:49.394Z</time></trkpt><trkpt lat="45.9970933" lon="12.1736"><ele>448.0</ele><time>2026-05-02T06:42:50.394Z</time></trkpt><trkpt lat="45.9971717" lon="12.17361"><ele>448.00000000000006</ele><time>2026-05-02T06:42:51.393Z</time></trkpt><trkpt lat="45.9972533" lon="12.1736317"><ele>448.0</ele><time>2026-05-02T06:42:52.394Z</time></trkpt><trkpt lat="45.9973333" lon="12.1736783"><ele>448.0</ele><time>2026-05-02T06:42:53.393Z</time></trkpt><trkpt lat="45.997405" lon="12.1737383"><ele>448.0</ele><time>2026-05-02T06:42:54.394Z</time></trkpt><trkpt lat="45.9974867" lon="12.17379"><ele>448.00000000000006</ele><time>2026-05-02T06:42:55.394Z</time></trkpt><trkpt lat="45.9975783" lon="12.1738167"><ele>448.0</ele><time>2026-05-02T06:42:56.394Z</time></trkpt><trkpt lat="45.9976833" lon="12.1738083"><ele>445.5</ele><time>2026-05-02T06:42:57.394Z</time></trkpt><trkpt lat="45.99781" lon="12.1737733"><ele>443.0</ele><time>2026-05-02T06:42:58.394Z</time></trkpt><trkpt lat="45.997945" lon="12.1737183"><ele>440.5</ele><time>2026-05-02T06:42:59.394Z</time></trkpt><trkpt lat="45.9980767" lon="12.1736517"><ele>438.0</ele><time>2026-05-02T06:43:00.394Z</time></trkpt><trkpt lat="45.998235" lon="12.173565"><ele>438.0</ele><time>2026-05-02T06:43:01.394Z</time></trkpt><trkpt lat="45.99841" lon="12.173485"><ele>438.0</ele><time>2026-05-02T06:43:02.393Z</time></trkpt><trkpt lat="45.998585" lon="12.17343"><ele>438.0</ele><time>2026-05-02T06:43:03.393Z</time></trkpt><trkpt lat="45.9987533" lon="12.1733883"><ele>438.0</ele><time>2026-05-02T06:43:04.394Z</time></trkpt><trkpt lat="45.99891" lon="12.1733667"><ele>438.0</ele><time>2026-05-02T06:43:05.394Z</time></trkpt><trkpt lat="45.9990683" lon="12.1733433"><ele>438.0</ele><time>2026-05-02T06:43:06.394Z</time></trkpt><trkpt lat="45.99921" lon="12.1732917"><ele>456.0</ele><time>2026-05-02T06:43:07.394Z</time></trkpt><trkpt lat="45.9993467" lon="12.1732167"><ele>474.0</ele><time>2026-05-02T06:43:08.393Z</time></trkpt><trkpt lat="45.99949" lon="12.1731217"><ele>492.0</ele><time>2026-05-02T06:43:09.394Z</time></trkpt><trkpt lat="45.9996333" lon="12.173025"><ele>492.0</ele><time>2026-05-02T06:43:10.393Z</time></trkpt><trkpt lat="45.9997617" lon="12.172925"><ele>492.0</ele><time>2026-05-02T06:43:11.394Z</time></trkpt><trkpt lat="45.9998767" lon="12.17284"><ele>492.0</ele><time>2026-05-02T06:43:12.394Z</time></trkpt><trkpt lat="45.9999717" lon="12.1727617"><ele>492.0</ele><time>2026-05-02T06:43:13.394Z</time></trkpt><trkpt lat="46.0000583" lon="12.1726817"><ele>492.0</ele><time>2026-05-02T06:43:14.394Z</time></trkpt><trkpt lat="46.00012" lon="12.1726017"><ele>492.0</ele><time>2026-05-02T06:43:15.393Z</time></trkpt><trkpt lat="46.0001667" lon="12.1725"><ele>492.0</ele><time>2026-05-02T06:43:16.394Z</time></trkpt><trkpt lat="46.0001967" lon="12.1724017"><ele>492.0</ele><time>2026-05-02T06:43:17.394Z</time></trkpt><trkpt lat="46.0001517" lon="12.1723167"><ele>492.0</ele><time>2026-05-02T06:43:18.394Z</time></trkpt><trkpt lat="46.000095" lon="12.1722383"><ele>492.0</ele><time>2026-05-02T06:43:19.394Z</time></trkpt><trkpt lat="45.999995" lon="12.17216"><ele>492.0</ele><time>2026-05-02T06:43:20.393Z</time></trkpt><trkpt lat="45.9998633" lon="12.1720867"><ele>492.0</ele><time>2026-05-02T06:43:21.393Z</time></trkpt><trkpt lat="45.9996683" lon="12.1720267"><ele>492.0</ele><time>2026-05-02T06:43:22.394Z</time></trkpt><trkpt lat="45.9995267" lon="12.17197"><ele>492.0</ele><time>2026-05-02T06:43:23.394Z</time></trkpt><trkpt lat="45.9994267" lon="12.1719317"><ele>492.0</ele><time>2026-05-02T06:43:24.394Z</time></trkpt><trkpt lat="45.9993633" lon="12.1719"><ele>492.0</ele><time>2026-05-02T06:43:25.393Z</time></trkpt><trkpt lat="45.99935" lon="12.1718"><ele>492.0</ele><time>2026-05-02T06:43:27.394Z</time></trkpt><trkpt lat="45.99944" lon="12.1717567"><ele>492.0</ele><time>2026-05-02T06:43:29.393Z</time></trkpt><trkpt lat="45.9995083" lon="12.17177"><ele>492.0</ele><time>2026-05-02T06:43:30.394Z</time></trkpt><trkpt lat="45.999605" lon="12.1718167"><ele>492.0</ele><time>2026-05-02T06:43:31.394Z</time></trkpt><trkpt lat="45.9997717" lon="12.1718783"><ele>492.0</ele><time>2026-05-02T06:43:32.393Z</time></trkpt><trkpt lat="45.9999633" lon="12.1719033"><ele>492.0</ele><time>2026-05-02T06:43:33.394Z</time></trkpt><trkpt lat="46.0001683" lon="12.1719083"><ele>492.0</ele><time>2026-05-02T06:43:34.394Z</time></trkpt><trkpt lat="46.0003883" lon="12.1718867"><ele>492.0</ele><time>2026-05-02T06:43:35.393Z</time></trkpt><trkpt lat="46.00061" lon="12.17185"><ele>492.0</ele><time>2026-05-02T06:43:36.394Z</time></trkpt><trkpt lat="46.00082" lon="12.17184"><ele>492.0</ele><time>2026-05-02T06:43:37.394Z</time></trkpt><trkpt lat="46.001035" lon="12.1718683"><ele>492.0</ele><time>2026-05-02T06:43:38.394Z</time></trkpt><trkpt lat="46.0012633" lon="12.1719267"><ele>492.0</ele><time>2026-05-02T06:43:39.394Z</time></trkpt><trkpt lat="46.001455" lon="12.1720067"><ele>570.3333333333334</ele><time>2026-05-02T06:43:40.394Z</time></trkpt><trkpt lat="46.0016233" lon="12.1720733"><ele>648.6666666666667</ele><time>2026-05-02T06:43:41.394Z</time></trkpt><trkpt lat="46.0017833" lon="12.17211"><ele>727.0</ele><time>2026-05-02T06:43:42.394Z</time></trkpt><trkpt lat="46.0019117" lon="12.172075"><ele>727.0</ele><time>2026-05-02T06:43:43.394Z</time></trkpt><trkpt lat="46.0020367" lon="12.172015"><ele>727.0</ele><time>2026-05-02T06:43:44.394Z</time></trkpt><trkpt lat="46.0021417" lon="12.1719717"><ele>727.0</ele><time>2026-05-02T06:43:45.394Z</time></trkpt><trkpt lat="46.0022067" lon="12.1719867"><ele>727.0</ele><time>2026-05-02T06:43:46.394Z</time></trkpt><trkpt lat="46.0022767" lon="12.1721133"><ele>727.0</ele><time>2026-05-02T06:43:48.394Z</time></trkpt><trkpt lat="46.0022783" lon="12.1722233"><ele>727.0</ele><time>2026-05-02T06:43:49.394Z</time></trkpt><trkpt lat="46.0022567" lon="12.1723333"><ele>727.0</ele><time>2026-05-02T06:43:50.394Z</time></trkpt><trkpt lat="46.0021583" lon="12.1724717"><ele>727.0</ele><time>2026-05-02T06:43:51.394Z</time></trkpt><trkpt lat="46.0020517" lon="12.1726"><ele>727.0</ele><time>2026-05-02T06:43:52.393Z</time></trkpt><trkpt lat="46.001895" lon="12.1727317"><ele>727.0</ele><time>2026-05-02T06:43:53.394Z</time></trkpt><trkpt lat="46.0017383" lon="12.1728717"><ele>727.0</ele><time>2026-05-02T06:43:54.394Z</time></trkpt><trkpt lat="46.001595" lon="12.1729733"><ele>727.0</ele><time>2026-05-02T06:43:55.394Z</time></trkpt><trkpt lat="46.0014467" lon="12.1730283"><ele>727.0</ele><time>2026-05-02T06:43:56.394Z</time></trkpt><trkpt lat="46.00129" lon="12.1730483"><ele>727.0</ele><time>2026-05-02T06:43:57.394Z</time></trkpt><trkpt lat="46.0011217" lon="12.1730667"><ele>727.0</ele><time>2026-05-02T06:43:58.393Z</time></trkpt><trkpt lat="46.00097" lon="12.1731067"><ele>668.25</ele><time>2026-05-02T06:43:59.394Z</time></trkpt><trkpt lat="46.00083" lon="12.1731717"><ele>609.5</ele><time>2026-05-02T06:44:00.394Z</time></trkpt><trkpt lat="46.000705" lon="12.1732467"><ele>550.75</ele><time>2026-05-02T06:44:01.394Z</time></trkpt><trkpt lat="46.0005917" lon="12.17331"><ele>492.0</ele><time>2026-05-02T06:44:02.393Z</time></trkpt><trkpt lat="46.0005083" lon="12.173355"><ele>492.0</ele><time>2026-05-02T06:44:03.394Z</time></trkpt><trkpt lat="46.000455" lon="12.173405"><ele>492.00000000000006</ele><time>2026-05-02T06:44:04.394Z</time></trkpt><trkpt lat="46.0005083" lon="12.173515"><ele>492.00000000000006</ele><time>2026-05-02T06:44:06.394Z</time></trkpt><trkpt lat="46.0005933" lon="12.1735083"><ele>492.0</ele><time>2026-05-02T06:44:07.394Z</time></trkpt><trkpt lat="46.0006983" lon="12.1734567"><ele>492.0</ele><time>2026-05-02T06:44:08.394Z</time></trkpt><trkpt lat="46.0008283" lon="12.17339"><ele>492.0</ele><time>2026-05-02T06:44:09.394Z</time></trkpt><trkpt lat="46.0009567" lon="12.1733367"><ele>492.0</ele><time>2026-05-02T06:44:10.394Z</time></trkpt><trkpt lat="46.001085" lon="12.1732967"><ele>492.0</ele><time>2026-05-02T06:44:11.394Z</time></trkpt><trkpt lat="46.0012283" lon="12.1733267"><ele>492.0</ele><time>2026-05-02T06:44:12.394Z</time></trkpt><trkpt lat="46.001385" lon="12.1733867"><ele>492.0</ele><time>2026-05-02T06:44:13.394Z</time></trkpt><trkpt lat="46.001515" lon="12.1734617"><ele>492.0</ele><time>2026-05-02T06:44:14.394Z</time></trkpt><trkpt lat="46.0016417" lon="12.1735217"><ele>492.0</ele><time>2026-05-02T06:44:15.393Z</time></trkpt><trkpt lat="46.0017683" lon="12.1735317"><ele>492.0</ele><time>2026-05-02T06:44:16.393Z</time></trkpt><trkpt lat="46.001905" lon="12.173475"><ele>492.0</ele><time>2026-05-02T06:44:17.394Z</time></trkpt><trkpt lat="46.0020617" lon="12.1733717"><ele>492.0</ele><time>2026-05-02T06:44:18.394Z</time></trkpt><trkpt lat="46.00222" lon="12.17329"><ele>492.0</ele><time>2026-05-02T06:44:19.394Z</time></trkpt><trkpt lat="46.0023633" lon="12.1732433"><ele>492.0</ele><time>2026-05-02T06:44:20.394Z</time></trkpt><trkpt lat="46.0024967" lon="12.1732283"><ele>492.0</ele><time>2026-05-02T06:44:21.393Z</time></trkpt><trkpt lat="46.0026233" lon="12.1732483"><ele>492.0</ele><time>2026-05-02T06:44:22.394Z</time></trkpt><trkpt lat="46.0027617" lon="12.1733383"><ele>492.0</ele><time>2026-05-02T06:44:23.394Z</time></trkpt><trkpt lat="46.0029167" lon="12.1734333"><ele>492.0</ele><time>2026-05-02T06:44:24.393Z</time></trkpt><trkpt lat="46.0030617" lon="12.1735383"><ele>492.0</ele><time>2026-05-02T06:44:25.394Z</time></trkpt><trkpt lat="46.0032083" lon="12.1736017"><ele>492.0</ele><time>2026-05-02T06:44:26.394Z</time></trkpt><trkpt lat="46.0033633" lon="12.1736183"><ele>492.0</ele><time>2026-05-02T06:44:27.393Z</time></trkpt><trkpt lat="46.00353" lon="12.1735833"><ele>492.0</ele><time>2026-05-02T06:44:28.394Z</time></trkpt><trkpt lat="46.0036783" lon="12.1735283"><ele>492.0</ele><time>2026-05-02T06:44:29.394Z</time></trkpt><trkpt lat="46.0038033" lon="12.1734383"><ele>492.0</ele><time>2026-05-02T06:44:30.394Z</time></trkpt><trkpt lat="46.0039067" lon="12.173295"><ele>492.0</ele><time>2026-05-02T06:44:31.394Z</time></trkpt><trkpt lat="46.0040017" lon="12.17311"><ele>492.0</ele><time>2026-05-02T06:44:32.394Z</time></trkpt><trkpt lat="46.00409" lon="12.1728733"><ele>540.6666666666666</ele><time>2026-05-02T06:44:33.394Z</time></trkpt><trkpt lat="46.0041683" lon="12.172615"><ele>589.3333333333333</ele><time>2026-05-02T06:44:34.394Z</time></trkpt><trkpt lat="46.0042467" lon="12.17234"><ele>638.0</ele><time>2026-05-02T06:44:35.394Z</time></trkpt><trkpt lat="46.00432" lon="12.1720883"><ele>638.0</ele><time>2026-05-02T06:44:36.394Z</time></trkpt><trkpt lat="46.00438" lon="12.1718567"><ele>638.0</ele><time>2026-05-02T06:44:37.394Z</time></trkpt><trkpt lat="46.0044183" lon="12.171655"><ele>638.0</ele><time>2026-05-02T06:44:38.393Z</time></trkpt><trkpt lat="46.0044433" lon="12.171495"><ele>638.0</ele><time>2026-05-02T06:44:39.394Z</time></trkpt><trkpt lat="46.0044533" lon="12.1713683"><ele>656.6666666666666</ele><time>2026-05-02T06:44:40.393Z</time></trkpt><trkpt lat="46.0044467" lon="12.1712617"><ele>675.3333333333333</ele><time>2026-05-02T06:44:41.394Z</time></trkpt><trkpt lat="46.0044167" lon="12.17116"><ele>694.0</ele><time>2026-05-02T06:44:42.394Z</time></trkpt><trkpt lat="46.0043717" lon="12.1710533"><ele>712.6666666666666</ele><time>2026-05-02T06:44:43.393Z</time></trkpt><trkpt lat="46.0043133" lon="12.1709567"><ele>731.3333333333334</ele><time>2026-05-02T06:44:44.393Z</time></trkpt><trkpt lat="46.0042483" lon="12.1708833"><ele>750.0</ele><time>2026-05-02T06:44:45.394Z</time></trkpt><trkpt lat="46.0042" lon="12.1708233"><ele>750.0</ele><time>2026-05-02T06:44:46.394Z</time></trkpt><trkpt lat="46.0041833" lon="12.1707083"><ele>750.0</ele><time>2026-05-02T06:44:48.394Z</time></trkpt><trkpt lat="46.0042383" lon="12.170655"><ele>750.0</ele><time>2026-05-02T06:44:50.394Z</time></trkpt><trkpt lat="46.004375" lon="12.170735"><ele>750.0</ele><time>2026-05-02T06:44:52.394Z</time></trkpt><trkpt lat="46.004485" lon="12.1708567"><ele>750.0</ele><time>2026-05-02T06:44:53.394Z</time></trkpt><trkpt lat="46.0045833" lon="12.1710117"><ele>750.0</ele><time>2026-05-02T06:44:54.394Z</time></trkpt><trkpt lat="46.0046483" lon="12.1712083"><ele>750.0</ele><time>2026-05-02T06:44:55.394Z</time></trkpt><trkpt lat="46.004675" lon="12.1714417"><ele>750.0</ele><time>2026-05-02T06:44:56.394Z</time></trkpt><trkpt lat="46.0046933" lon="12.17168"><ele>712.6666666666666</ele><time>2026-05-02T06:44:57.394Z</time></trkpt><trkpt lat="46.0046667" lon="12.1719433"><ele>675.3333333333333</ele><time>2026-05-02T06:44:58.394Z</time></trkpt><trkpt lat="46.004635" lon="12.1721683"><ele>638.0</ele><time>2026-05-02T06:44:59.393Z</time></trkpt><trkpt lat="46.00461" lon="12.172335"><ele>638.0</ele><time>2026-05-02T06:45:00.393Z</time></trkpt><trkpt lat="46.0045983" lon="12.1724383"><ele>638.0</ele><time>2026-05-02T06:45:01.394Z</time></trkpt><trkpt lat="46.0046783" lon="12.1723167"><ele>638.0</ele><time>2026-05-02T06:45:05.394Z</time></trkpt><trkpt lat="46.0047033" lon="12.1721417"><ele>638.0</ele><time>2026-05-02T06:45:06.394Z</time></trkpt><trkpt lat="46.00474" lon="12.1719583"><ele>638.0</ele><time>2026-05-02T06:45:07.394Z</time></trkpt><trkpt lat="46.004775" lon="12.17176"><ele>638.0</ele><time>2026-05-02T06:45:08.394Z</time></trkpt><trkpt lat="46.0048" lon="12.171555"><ele>638.0</ele><time>2026-05-02T06:45:09.394Z</time></trkpt><trkpt lat="46.0048133" lon="12.1713417"><ele>638.0</ele><time>2026-05-02T06:45:10.393Z</time></trkpt><trkpt lat="46.0048083" lon="12.171145"><ele>638.0</ele><time>2026-05-02T06:45:11.394Z</time></trkpt><trkpt lat="46.0047967" lon="12.17097"><ele>646.2</ele><time>2026-05-02T06:45:12.394Z</time></trkpt><trkpt lat="46.0047583" lon="12.1708167"><ele>654.4</ele><time>2026-05-02T06:45:13.394Z</time></trkpt><trkpt lat="46.004705" lon="12.1706883"><ele>662.6</ele><time>2026-05-02T06:45:14.394Z</time></trkpt><trkpt lat="46.0046417" lon="12.170595"><ele>670.8000000000001</ele><time>2026-05-02T06:45:15.393Z</time></trkpt><trkpt lat="46.0045717" lon="12.17053"><ele>679.0</ele><time>2026-05-02T06:45:16.393Z</time></trkpt><trkpt lat="46.004515" lon="12.1704833"><ele>679.0</ele><time>2026-05-02T06:45:17.394Z</time></trkpt><trkpt lat="46.0044683" lon="12.1704167"><ele>679.0</ele><time>2026-05-02T06:45:18.394Z</time></trkpt><trkpt lat="46.0044083" lon="12.1703467"><ele>679.0</ele><time>2026-05-02T06:45:20.394Z</time></trkpt><trkpt lat="46.004345" lon="12.170295"><ele>679.0</ele><time>2026-05-02T06:45:23.394Z</time></trkpt><trkpt lat="46.0042783" lon="12.1702267"><ele>679.0</ele><time>2026-05-02T06:45:27.394Z</time></trkpt><trkpt lat="46.0042067" lon="12.1701233"><ele>679.0</ele><time>2026-05-02T06:45:29.394Z</time></trkpt><trkpt lat="46.0041417" lon="12.1700567"><ele>684.0</ele><time>2026-05-02T06:45:30.394Z</time></trkpt><trkpt lat="46.0040733" lon="12.1699983"><ele>689.0</ele><time>2026-05-02T06:45:31.394Z</time></trkpt><trkpt lat="46.0039983" lon="12.1699583"><ele>694.0</ele><time>2026-05-02T06:45:32.393Z</time></trkpt><trkpt lat="46.00392" lon="12.169935"><ele>699.0</ele><time>2026-05-02T06:45:33.394Z</time></trkpt><trkpt lat="46.0038483" lon="12.1699283"><ele>704.0</ele><time>2026-05-02T06:45:34.394Z</time></trkpt><trkpt lat="46.0037733" lon="12.169925"><ele>709.0</ele><time>2026-05-02T06:45:35.394Z</time></trkpt><trkpt lat="46.003705" lon="12.1699233"><ele>709.0</ele><time>2026-05-02T06:45:36.394Z</time></trkpt><trkpt lat="46.0036367" lon="12.1699167"><ele>709.0</ele><time>2026-05-02T06:45:37.394Z</time></trkpt><trkpt lat="46.0035583" lon="12.169905"><ele>709.0</ele><time>2026-05-02T06:45:38.394Z</time></trkpt><trkpt lat="46.0034817" lon="12.1698967"><ele>709.0</ele><time>2026-05-02T06:45:39.394Z</time></trkpt><trkpt lat="46.0031967" lon="12.1699167"><ele>709.0</ele><time>2026-05-02T06:45:43.406Z</time></trkpt><trkpt lat="46.003725" lon="12.1700733"><ele>709.0</ele><time>2026-05-02T06:45:44.406Z</time></trkpt><trkpt lat="46.0039617" lon="12.1700767"><ele>709.0</ele><time>2026-05-02T06:45:45.406Z</time></trkpt><trkpt lat="46.00415" lon="12.17008"><ele>709.0</ele><time>2026-05-02T06:45:46.405Z</time></trkpt><trkpt lat="46.0042417" lon="12.1701517"><ele>703.0</ele><time>2026-05-02T06:45:47.406Z</time></trkpt><trkpt lat="46.004295" lon="12.1702267"><ele>697.0</ele><time>2026-05-02T06:45:48.406Z</time></trkpt><trkpt lat="46.0043317" lon="12.1703017"><ele>691.0</ele><time>2026-05-02T06:45:49.406Z</time></trkpt><trkpt lat="46.0044117" lon="12.1704417"><ele>685.0</ele><time>2026-05-02T06:45:51.406Z</time></trkpt><trkpt lat="46.0044567" lon="12.1705183"><ele>679.0</ele><time>2026-05-02T06:45:52.406Z</time></trkpt><trkpt lat="46.0045483" lon="12.1703033"><ele>679.0</ele><time>2026-05-02T06:45:55.406Z</time></trkpt><trkpt lat="46.0044917" lon="12.170055"><ele>679.0</ele><time>2026-05-02T06:45:56.406Z</time></trkpt><trkpt lat="46.00438" lon="12.16989"><ele>679.0</ele><time>2026-05-02T06:45:57.405Z</time></trkpt><trkpt lat="46.004255" lon="12.1697567"><ele>686.0</ele><time>2026-05-02T06:45:58.406Z</time></trkpt><trkpt lat="46.0041867" lon="12.1697033"><ele>693.0</ele><time>2026-05-02T06:45:59.406Z</time></trkpt><trkpt lat="46.00409" lon="12.1696267"><ele>700.0</ele><time>2026-05-02T06:46:01.406Z</time></trkpt><trkpt lat="46.0040083" lon="12.1695533"><ele>707.0</ele><time>2026-05-02T06:46:03.406Z</time></trkpt><trkpt lat="46.0037517" lon="12.1694283"><ele>707.0</ele><time>2026-05-02T06:46:09.403Z</time></trkpt><trkpt lat="46.0041267" lon="12.1694967"><ele>707.0</ele><time>2026-05-02T06:46:10.403Z</time></trkpt><trkpt lat="46.0042983" lon="12.1693983"><ele>707.0</ele><time>2026-05-02T06:46:11.403Z</time></trkpt><trkpt lat="46.004415" lon="12.16936"><ele>707.0</ele><time>2026-05-02T06:46:13.403Z</time></trkpt><trkpt lat="46.004475" lon="12.1693067"><ele>707.0</ele><time>2026-05-02T06:46:15.402Z</time></trkpt><trkpt lat="46.00445" lon="12.1692217"><ele>707.0</ele><time>2026-05-02T06:46:17.403Z</time></trkpt><trkpt lat="46.0043867" lon="12.1691733"><ele>707.0</ele><time>2026-05-02T06:46:18.402Z</time></trkpt><trkpt lat="46.0043033" lon="12.1691317"><ele>707.0</ele><time>2026-05-02T06:46:19.403Z</time></trkpt><trkpt lat="46.004235" lon="12.1691"><ele>711.6</ele><time>2026-05-02T06:46:20.403Z</time></trkpt><trkpt lat="46.0041317" lon="12.169045"><ele>716.2</ele><time>2026-05-02T06:46:22.403Z</time></trkpt><trkpt lat="46.004025" lon="12.1689933"><ele>720.8</ele><time>2026-05-02T06:46:24.403Z</time></trkpt><trkpt lat="46.0039217" lon="12.1689617"><ele>725.4</ele><time>2026-05-02T06:46:26.403Z</time></trkpt><trkpt lat="46.003825" lon="12.16894"><ele>730.0</ele><time>2026-05-02T06:46:28.403Z</time></trkpt><trkpt lat="46.0041167" lon="12.1690283"><ele>718.5</ele><time>2026-05-02T06:46:31.401Z</time></trkpt><trkpt lat="46.0045033" lon="12.1691867"><ele>707.0</ele><time>2026-05-02T06:46:32.401Z</time></trkpt><trkpt lat="46.004635" lon="12.169235"><ele>707.0</ele><time>2026-05-02T06:46:33.401Z</time></trkpt><trkpt lat="46.004695" lon="12.16931"><ele>707.0</ele><time>2026-05-02T06:46:34.401Z</time></trkpt><trkpt lat="46.0047267" lon="12.1694317"><ele>707.0</ele><time>2026-05-02T06:46:35.401Z</time></trkpt><trkpt lat="46.0047167" lon="12.1695783"><ele>707.0</ele><time>2026-05-02T06:46:36.4Z</time></trkpt><trkpt lat="46.0046967" lon="12.1697017"><ele>707.0</ele><time>2026-05-02T06:46:37.401Z</time></trkpt><trkpt lat="46.0046733" lon="12.16984"><ele>705.6</ele><time>2026-05-02T06:46:38.4Z</time></trkpt><trkpt lat="46.0046717" lon="12.1699683"><ele>704.2</ele><time>2026-05-02T06:46:39.401Z</time></trkpt><trkpt lat="46.0046817" lon="12.1701033"><ele>702.8</ele><time>2026-05-02T06:46:40.401Z</time></trkpt><trkpt lat="46.0046883" lon="12.170235"><ele>701.4</ele><time>2026-05-02T06:46:41.401Z</time></trkpt><trkpt lat="46.004705" lon="12.1703767"><ele>700.0</ele><time>2026-05-02T06:46:42.401Z</time></trkpt><trkpt lat="46.0050617" lon="12.1704933"><ele>700.0</ele><time>2026-05-02T06:46:48.4Z</time></trkpt><trkpt lat="46.00506" lon="12.170175"><ele>700.0</ele><time>2026-05-02T06:46:49.401Z</time></trkpt><trkpt lat="46.0051517" lon="12.1699283"><ele>700.0</ele><time>2026-05-02T06:46:50.401Z</time></trkpt><trkpt lat="46.0052783" lon="12.1697967"><ele>702.75</ele><time>2026-05-02T06:46:51.401Z</time></trkpt><trkpt lat="46.0054283" lon="12.1697683"><ele>705.5</ele><time>2026-05-02T06:46:52.401Z</time></trkpt><trkpt lat="46.00558" lon="12.1697467"><ele>708.25</ele><time>2026-05-02T06:46:53.401Z</time></trkpt><trkpt lat="46.00572" lon="12.1697367"><ele>711.0</ele><time>2026-05-02T06:46:54.401Z</time></trkpt><trkpt lat="46.0058667" lon="12.16973"><ele>711.25</ele><time>2026-05-02T06:46:55.401Z</time></trkpt><trkpt lat="46.0060133" lon="12.1696983"><ele>711.5</ele><time>2026-05-02T06:46:56.401Z</time></trkpt><trkpt lat="46.00616" lon="12.1696633"><ele>711.75</ele><time>2026-05-02T06:46:57.401Z</time></trkpt><trkpt lat="46.0062917" lon="12.1696167"><ele>712.0</ele><time>2026-05-02T06:46:58.401Z</time></trkpt><trkpt lat="46.0064233" lon="12.16957"><ele>712.0</ele><time>2026-05-02T06:46:59.401Z</time></trkpt><trkpt lat="46.0065633" lon="12.1695133"><ele>712.0</ele><time>2026-05-02T06:47:00.401Z</time></trkpt><trkpt lat="46.006705" lon="12.16947"><ele>712.0</ele><time>2026-05-02T06:47:01.4Z</time></trkpt><trkpt lat="46.0068467" lon="12.169435"><ele>712.0</ele><time>2026-05-02T06:47:02.401Z</time></trkpt><trkpt lat="46.00699" lon="12.1693933"><ele>708.6666666666667</ele><time>2026-05-02T06:47:03.401Z</time></trkpt><trkpt lat="46.0071417" lon="12.16935"><ele>705.3333333333334</ele><time>2026-05-02T06:47:04.401Z</time></trkpt><trkpt lat="46.0072967" lon="12.169295"><ele>702.0</ele><time>2026-05-02T06:47:05.4Z</time></trkpt><trkpt lat="46.0074517" lon="12.169245"><ele>701.0</ele><time>2026-05-02T06:47:06.4Z</time></trkpt><trkpt lat="46.0076083" lon="12.1692"><ele>700.0</ele><time>2026-05-02T06:47:07.401Z</time></trkpt><trkpt lat="46.007765" lon="12.1691633"><ele>699.0</ele><time>2026-05-02T06:47:08.401Z</time></trkpt><trkpt lat="46.00792" lon="12.16911"><ele>699.0</ele><time>2026-05-02T06:47:09.401Z</time></trkpt><trkpt lat="46.0080633" lon="12.1690667"><ele>699.0</ele><time>2026-05-02T06:47:10.401Z</time></trkpt><trkpt lat="46.0082" lon="12.1690217"><ele>699.0</ele><time>2026-05-02T06:47:11.401Z</time></trkpt><trkpt lat="46.0083467" lon="12.1689733"><ele>699.0</ele><time>2026-05-02T06:47:12.401Z</time></trkpt><trkpt lat="46.0084867" lon="12.168925"><ele>695.5</ele><time>2026-05-02T06:47:13.401Z</time></trkpt><trkpt lat="46.0086283" lon="12.1688583"><ele>692.0</ele><time>2026-05-02T06:47:14.401Z</time></trkpt><trkpt lat="46.0087683" lon="12.168785"><ele>688.5</ele><time>2026-05-02T06:47:15.401Z</time></trkpt><trkpt lat="46.0089067" lon="12.1687017"><ele>685.0</ele><time>2026-05-02T06:47:16.4Z</time></trkpt><trkpt lat="46.0090567" lon="12.1686117"><ele>683.3333333333334</ele><time>2026-05-02T06:47:17.4Z</time></trkpt><trkpt lat="46.0092133" lon="12.1685383"><ele>681.6666666666666</ele><time>2026-05-02T06:47:18.401Z</time></trkpt><trkpt lat="46.0093633" lon="12.16849"><ele>680.0</ele><time>2026-05-02T06:47:19.401Z</time></trkpt><trkpt lat="46.0095283" lon="12.168435"><ele>680.0</ele><time>2026-05-02T06:47:20.401Z</time></trkpt><trkpt lat="46.0097033" lon="12.16838"><ele>680.0</ele><time>2026-05-02T06:47:21.401Z</time></trkpt><trkpt lat="46.00988" lon="12.16832"><ele>680.0</ele><time>2026-05-02T06:47:22.401Z</time></trkpt><trkpt lat="46.0100533" lon="12.1682633"><ele>680.3333333333333</ele><time>2026-05-02T06:47:23.4Z</time></trkpt><trkpt lat="46.0102117" lon="12.168205"><ele>680.6666666666666</ele><time>2026-05-02T06:47:24.4Z</time></trkpt><trkpt lat="46.0103767" lon="12.168145"><ele>681.0</ele><time>2026-05-02T06:47:25.4Z</time></trkpt><trkpt lat="46.01053" lon="12.1680817"><ele>677.6666666666666</ele><time>2026-05-02T06:47:26.401Z</time></trkpt><trkpt lat="46.0106767" lon="12.1680117"><ele>674.3333333333333</ele><time>2026-05-02T06:47:27.4Z</time></trkpt><trkpt lat="46.01082" lon="12.167925"><ele>671.0</ele><time>2026-05-02T06:47:28.401Z</time></trkpt><trkpt lat="46.010965" lon="12.1678417"><ele>670.6666666666666</ele><time>2026-05-02T06:47:29.4Z</time></trkpt><trkpt lat="46.011115" lon="12.1677617"><ele>670.3333333333334</ele><time>2026-05-02T06:47:30.4Z</time></trkpt><trkpt lat="46.0112583" lon="12.1676883"><ele>670.0</ele><time>2026-05-02T06:47:31.401Z</time></trkpt><trkpt lat="46.0114067" lon="12.167635"><ele>670.0</ele><time>2026-05-02T06:47:32.4Z</time></trkpt><trkpt lat="46.0115583" lon="12.1676117"><ele>670.0</ele><time>2026-05-02T06:47:33.4Z</time></trkpt><trkpt lat="46.0117167" lon="12.1676083"><ele>670.0</ele><time>2026-05-02T06:47:34.401Z</time></trkpt><trkpt lat="46.0118767" lon="12.167615"><ele>670.6666666666667</ele><time>2026-05-02T06:47:35.401Z</time></trkpt><trkpt lat="46.01204" lon="12.1676233"><ele>671.3333333333334</ele><time>2026-05-02T06:47:36.401Z</time></trkpt><trkpt lat="46.0122083" lon="12.1676333"><ele>672.0</ele><time>2026-05-02T06:47:37.401Z</time></trkpt><trkpt lat="46.0123733" lon="12.1676183"><ele>672.0</ele><time>2026-05-02T06:47:38.4Z</time></trkpt><trkpt lat="46.0125383" lon="12.16758"><ele>672.0</ele><time>2026-05-02T06:47:39.401Z</time></trkpt><trkpt lat="46.012695" lon="12.16754"><ele>672.0</ele><time>2026-05-02T06:47:40.401Z</time></trkpt><trkpt lat="46.01285" lon="12.1674983"><ele>672.0</ele><time>2026-05-02T06:47:41.401Z</time></trkpt><trkpt lat="46.013005" lon="12.167455"><ele>672.0</ele><time>2026-05-02T06:47:42.4Z</time></trkpt><trkpt lat="46.0131683" lon="12.167415"><ele>672.0</ele><time>2026-05-02T06:47:43.401Z</time></trkpt><trkpt lat="46.01333" lon="12.1673633"><ele>664.6666666666666</ele><time>2026-05-02T06:47:44.4Z</time></trkpt><trkpt lat="46.0134917" lon="12.1673167"><ele>657.3333333333333</ele><time>2026-05-02T06:47:45.401Z</time></trkpt><trkpt lat="46.0136633" lon="12.1672817"><ele>650.0</ele><time>2026-05-02T06:47:46.401Z</time></trkpt><trkpt lat="46.0138333" lon="12.16724"><ele>650.0</ele><time>2026-05-02T06:47:47.4Z</time></trkpt><trkpt lat="46.0140017" lon="12.1672233"><ele>650.0</ele><time>2026-05-02T06:47:48.401Z</time></trkpt><trkpt lat="46.0141667" lon="12.1672117"><ele>650.0</ele><time>2026-05-02T06:47:49.4Z</time></trkpt><trkpt lat="46.01433" lon="12.1672"><ele>651.6666666666666</ele><time>2026-05-02T06:47:50.401Z</time></trkpt><trkpt lat="46.0144933" lon="12.16718"><ele>653.3333333333334</ele><time>2026-05-02T06:47:51.401Z</time></trkpt><trkpt lat="46.014655" lon="12.1671783"><ele>655.0</ele><time>2026-05-02T06:47:52.4Z</time></trkpt><trkpt lat="46.0148183" lon="12.1671933"><ele>655.0</ele><time>2026-05-02T06:47:53.4Z</time></trkpt><trkpt lat="46.01498" lon="12.1672"><ele>655.0</ele><time>2026-05-02T06:47:54.4Z</time></trkpt><trkpt lat="46.015145" lon="12.167175"><ele>655.0</ele><time>2026-05-02T06:47:55.401Z</time></trkpt><trkpt lat="46.0153117" lon="12.1671417"><ele>654.3333333333334</ele><time>2026-05-02T06:47:56.401Z</time></trkpt><trkpt lat="46.0154867" lon="12.1671"><ele>653.6666666666666</ele><time>2026-05-02T06:47:57.401Z</time></trkpt><trkpt lat="46.01565" lon="12.1670617"><ele>653.0</ele><time>2026-05-02T06:47:58.401Z</time></trkpt><trkpt lat="46.0158083" lon="12.1670283"><ele>655.0</ele><time>2026-05-02T06:47:59.4Z</time></trkpt><trkpt lat="46.0159667" lon="12.1669883"><ele>657.0</ele><time>2026-05-02T06:48:00.401Z</time></trkpt><trkpt lat="46.0161217" lon="12.166945"><ele>659.0</ele><time>2026-05-02T06:48:01.401Z</time></trkpt><trkpt lat="46.016275" lon="12.1669017"><ele>659.0</ele><time>2026-05-02T06:48:02.401Z</time></trkpt><trkpt lat="46.0164283" lon="12.166855"><ele>659.0</ele><time>2026-05-02T06:48:03.4Z</time></trkpt><trkpt lat="46.0165817" lon="12.166815"><ele>659.0</ele><time>2026-05-02T06:48:04.401Z</time></trkpt><trkpt lat="46.0167383" lon="12.16678"><ele>661.6666666666666</ele><time>2026-05-02T06:48:05.401Z</time></trkpt><trkpt lat="46.01689" lon="12.16674"><ele>664.3333333333334</ele><time>2026-05-02T06:48:06.401Z</time></trkpt><trkpt lat="46.0170383" lon="12.166685"><ele>667.0</ele><time>2026-05-02T06:48:07.401Z</time></trkpt><trkpt lat="46.0171867" lon="12.166615"><ele>666.6666666666667</ele><time>2026-05-02T06:48:08.401Z</time></trkpt><trkpt lat="46.0173267" lon="12.1665033"><ele>666.3333333333334</ele><time>2026-05-02T06:48:09.401Z</time></trkpt><trkpt lat="46.0174517" lon="12.1663767"><ele>666.0</ele><time>2026-05-02T06:48:10.401Z</time></trkpt><trkpt lat="46.01758" lon="12.1662633"><ele>666.0</ele><time>2026-05-02T06:48:11.401Z</time></trkpt><trkpt lat="46.01771" lon="12.166195"><ele>666.0</ele><time>2026-05-02T06:48:12.401Z</time></trkpt><trkpt lat="46.0178467" lon="12.166165"><ele>666.0</ele><time>2026-05-02T06:48:13.401Z</time></trkpt><trkpt lat="46.0179867" lon="12.1661317"><ele>666.0</ele><time>2026-05-02T06:48:14.401Z</time></trkpt><trkpt lat="46.0181233" lon="12.1660683"><ele>666.0</ele><time>2026-05-02T06:48:15.4Z</time></trkpt><trkpt lat="46.0182617" lon="12.16597"><ele>666.0</ele><time>2026-05-02T06:48:16.401Z</time></trkpt><trkpt lat="46.0184033" lon="12.165845"><ele>666.0</ele><time>2026-05-02T06:48:17.401Z</time></trkpt><trkpt lat="46.01855" lon="12.1657117"><ele>662.6666666666666</ele><time>2026-05-02T06:48:18.401Z</time></trkpt><trkpt lat="46.0186933" lon="12.1655733"><ele>659.3333333333333</ele><time>2026-05-02T06:48:19.401Z</time></trkpt><trkpt lat="46.018835" lon="12.1654467"><ele>656.0</ele><time>2026-05-02T06:48:20.401Z</time></trkpt><trkpt lat="46.01897" lon="12.1653133"><ele>656.0</ele><time>2026-05-02T06:48:21.401Z</time></trkpt><trkpt lat="46.0191033" lon="12.1651867"><ele>656.0</ele><time>2026-05-02T06:48:22.401Z</time></trkpt><trkpt lat="46.0192317" lon="12.1650533"><ele>656.0</ele><time>2026-05-02T06:48:23.401Z</time></trkpt><trkpt lat="46.01936" lon="12.1649017"><ele>652.3333333333333</ele><time>2026-05-02T06:48:24.401Z</time></trkpt><trkpt lat="46.0194883" lon="12.164755"><ele>648.6666666666666</ele><time>2026-05-02T06:48:25.401Z</time></trkpt><trkpt lat="46.0196233" lon="12.1646183"><ele>645.0</ele><time>2026-05-02T06:48:26.401Z</time></trkpt><trkpt lat="46.019755" lon="12.1644883"><ele>645.0</ele><time>2026-05-02T06:48:27.401Z</time></trkpt><trkpt lat="46.019885" lon="12.1643567"><ele>645.0</ele><time>2026-05-02T06:48:28.401Z</time></trkpt><trkpt lat="46.0200133" lon="12.1642167"><ele>645.0</ele><time>2026-05-02T06:48:29.401Z</time></trkpt><trkpt lat="46.0201233" lon="12.164065"><ele>644.75</ele><time>2026-05-02T06:48:30.4Z</time></trkpt><trkpt lat="46.0202333" lon="12.163915"><ele>644.5</ele><time>2026-05-02T06:48:31.401Z</time></trkpt><trkpt lat="46.02034" lon="12.16379"><ele>644.25</ele><time>2026-05-02T06:48:32.401Z</time></trkpt><trkpt lat="46.02045" lon="12.1636967"><ele>644.0</ele><time>2026-05-02T06:48:33.401Z</time></trkpt><trkpt lat="46.0205867" lon="12.1636383"><ele>644.0</ele><time>2026-05-02T06:48:34.4Z</time></trkpt><trkpt lat="46.0207433" lon="12.1635983"><ele>644.0</ele><time>2026-05-02T06:48:35.401Z</time></trkpt><trkpt lat="46.02091" lon="12.1635467"><ele>644.0</ele><time>2026-05-02T06:48:36.401Z</time></trkpt><trkpt lat="46.0210817" lon="12.16349"><ele>639.3333333333333</ele><time>2026-05-02T06:48:37.4Z</time></trkpt><trkpt lat="46.021255" lon="12.1634383"><ele>634.6666666666666</ele><time>2026-05-02T06:48:38.4Z</time></trkpt><trkpt lat="46.0214183" lon="12.1633933"><ele>630.0</ele><time>2026-05-02T06:48:39.4Z</time></trkpt><trkpt lat="46.0215733" lon="12.1633333"><ele>628.6666666666666</ele><time>2026-05-02T06:48:40.401Z</time></trkpt><trkpt lat="46.0217267" lon="12.1632733"><ele>627.3333333333333</ele><time>2026-05-02T06:48:41.401Z</time></trkpt><trkpt lat="46.0218717" lon="12.1632083"><ele>626.0</ele><time>2026-05-02T06:48:42.401Z</time></trkpt><trkpt lat="46.0220183" lon="12.1631417"><ele>624.3333333333333</ele><time>2026-05-02T06:48:43.401Z</time></trkpt><trkpt lat="46.0221717" lon="12.1630767"><ele>622.6666666666666</ele><time>2026-05-02T06:48:44.401Z</time></trkpt><trkpt lat="46.0223267" lon="12.1630317"><ele>621.0</ele><time>2026-05-02T06:48:45.401Z</time></trkpt><trkpt lat="46.0224933" lon="12.1629833"><ele>621.0</ele><time>2026-05-02T06:48:46.401Z</time></trkpt><trkpt lat="46.02266" lon="12.1629417"><ele>621.0</ele><time>2026-05-02T06:48:47.401Z</time></trkpt><trkpt lat="46.0228183" lon="12.1628933"><ele>621.0</ele><time>2026-05-02T06:48:48.401Z</time></trkpt><trkpt lat="46.0229667" lon="12.1628333"><ele>621.0</ele><time>2026-05-02T06:48:49.401Z</time></trkpt><trkpt lat="46.023115" lon="12.1627567"><ele>621.0</ele><time>2026-05-02T06:48:50.401Z</time></trkpt><trkpt lat="46.0232683" lon="12.162675"><ele>621.0</ele><time>2026-05-02T06:48:51.401Z</time></trkpt><trkpt lat="46.023425" lon="12.1625983"><ele>620.0</ele><time>2026-05-02T06:48:52.401Z</time></trkpt><trkpt lat="46.0235767" lon="12.1625183"><ele>619.0</ele><time>2026-05-02T06:48:53.401Z</time></trkpt><trkpt lat="46.02372" lon="12.1624283"><ele>618.0</ele><time>2026-05-02T06:48:54.401Z</time></trkpt><trkpt lat="46.0238583" lon="12.16233"><ele>616.0</ele><time>2026-05-02T06:48:55.4Z</time></trkpt><trkpt lat="46.0240033" lon="12.1622433"><ele>614.0</ele><time>2026-05-02T06:48:56.4Z</time></trkpt><trkpt lat="46.0241483" lon="12.16216"><ele>612.0</ele><time>2026-05-02T06:48:57.4Z</time></trkpt><trkpt lat="46.0242933" lon="12.1621"><ele>608.0</ele><time>2026-05-02T06:48:58.401Z</time></trkpt><trkpt lat="46.0244533" lon="12.1620817"><ele>604.0</ele><time>2026-05-02T06:48:59.401Z</time></trkpt><trkpt lat="46.02461" lon="12.1620817"><ele>600.0</ele><time>2026-05-02T06:49:00.401Z</time></trkpt><trkpt lat="46.024765" lon="12.162095"><ele>600.0</ele><time>2026-05-02T06:49:01.4Z</time></trkpt><trkpt lat="46.0249133" lon="12.1620983"><ele>600.0</ele><time>2026-05-02T06:49:02.401Z</time></trkpt><trkpt lat="46.02506" lon="12.1621083"><ele>600.0</ele><time>2026-05-02T06:49:03.401Z</time></trkpt><trkpt lat="46.025205" lon="12.1621167"><ele>600.0</ele><time>2026-05-02T06:49:04.401Z</time></trkpt><trkpt lat="46.02534" lon="12.16214"><ele>599.0</ele><time>2026-05-02T06:49:05.4Z</time></trkpt><trkpt lat="46.025465" lon="12.1621767"><ele>598.0</ele><time>2026-05-02T06:49:06.401Z</time></trkpt><trkpt lat="46.0255883" lon="12.1622517"><ele>597.0</ele><time>2026-05-02T06:49:07.401Z</time></trkpt><trkpt lat="46.0257183" lon="12.1623533"><ele>596.0</ele><time>2026-05-02T06:49:08.401Z</time></trkpt><trkpt lat="46.02584" lon="12.16247"><ele>599.25</ele><time>2026-05-02T06:49:09.401Z</time></trkpt><trkpt lat="46.025965" lon="12.162565"><ele>602.5</ele><time>2026-05-02T06:49:10.401Z</time></trkpt><trkpt lat="46.0260883" lon="12.1626483"><ele>605.75</ele><time>2026-05-02T06:49:11.401Z</time></trkpt><trkpt lat="46.0262167" lon="12.1626883"><ele>609.0</ele><time>2026-05-02T06:49:12.401Z</time></trkpt><trkpt lat="46.026355" lon="12.1626867"><ele>609.0</ele><time>2026-05-02T06:49:13.401Z</time></trkpt><trkpt lat="46.02649" lon="12.16265"><ele>609.0</ele><time>2026-05-02T06:49:14.401Z</time></trkpt><trkpt lat="46.0266367" lon="12.1626233"><ele>609.0</ele><time>2026-05-02T06:49:15.401Z</time></trkpt><trkpt lat="46.0267833" lon="12.1626133"><ele>609.0</ele><time>2026-05-02T06:49:16.401Z</time></trkpt><trkpt lat="46.0269317" lon="12.1626317"><ele>604.0</ele><time>2026-05-02T06:49:17.4Z</time></trkpt><trkpt lat="46.0270883" lon="12.162665"><ele>599.0</ele><time>2026-05-02T06:49:18.401Z</time></trkpt><trkpt lat="46.0272417" lon="12.1626917"><ele>594.0</ele><time>2026-05-02T06:49:19.401Z</time></trkpt><trkpt lat="46.027395" lon="12.1626933"><ele>592.25</ele><time>2026-05-02T06:49:20.4Z</time></trkpt><trkpt lat="46.0275433" lon="12.1626967"><ele>590.5</ele><time>2026-05-02T06:49:21.401Z</time></trkpt><trkpt lat="46.0276883" lon="12.162695"><ele>588.75</ele><time>2026-05-02T06:49:22.4Z</time></trkpt><trkpt lat="46.0278367" lon="12.1627133"><ele>587.0</ele><time>2026-05-02T06:49:23.401Z</time></trkpt><trkpt lat="46.0279833" lon="12.1627317"><ele>587.0</ele><time>2026-05-02T06:49:24.401Z</time></trkpt><trkpt lat="46.02813" lon="12.1627583"><ele>587.0</ele><time>2026-05-02T06:49:25.401Z</time></trkpt><trkpt lat="46.02828" lon="12.1627817"><ele>587.0</ele><time>2026-05-02T06:49:26.4Z</time></trkpt><trkpt lat="46.0284317" lon="12.16281"><ele>583.3333333333333</ele><time>2026-05-02T06:49:27.4Z</time></trkpt><trkpt lat="46.02858" lon="12.162855"><ele>579.6666666666666</ele><time>2026-05-02T06:49:28.401Z</time></trkpt><trkpt lat="46.0287217" lon="12.162925"><ele>576.0</ele><time>2026-05-02T06:49:29.401Z</time></trkpt><trkpt lat="46.028865" lon="12.163015"><ele>576.0</ele><time>2026-05-02T06:49:30.401Z</time></trkpt><trkpt lat="46.0290167" lon="12.16311"><ele>576.0</ele><time>2026-05-02T06:49:31.401Z</time></trkpt><trkpt lat="46.0291517" lon="12.1632033"><ele>576.0</ele><time>2026-05-02T06:49:32.401Z</time></trkpt><trkpt lat="46.0293067" lon="12.1632817"><ele>576.0</ele><time>2026-05-02T06:49:33.4Z</time></trkpt><trkpt lat="46.029455" lon="12.163335"><ele>576.0</ele><time>2026-05-02T06:49:34.401Z</time></trkpt><trkpt lat="46.0296067" lon="12.1633617"><ele>576.0</ele><time>2026-05-02T06:49:35.4Z</time></trkpt><trkpt lat="46.0297633" lon="12.163365"><ele>576.0</ele><time>2026-05-02T06:49:36.4Z</time></trkpt><trkpt lat="46.02992" lon="12.1633617"><ele>576.0</ele><time>2026-05-02T06:49:37.401Z</time></trkpt><trkpt lat="46.0300733" lon="12.1633683"><ele>576.0</ele><time>2026-05-02T06:49:38.401Z</time></trkpt><trkpt lat="46.0302283" lon="12.1633767"><ele>574.3333333333334</ele><time>2026-05-02T06:49:39.4Z</time></trkpt><trkpt lat="46.03038" lon="12.1633917"><ele>572.6666666666667</ele><time>2026-05-02T06:49:40.4Z</time></trkpt><trkpt lat="46.03053" lon="12.1634133"><ele>571.0</ele><time>2026-05-02T06:49:41.401Z</time></trkpt><trkpt lat="46.0306817" lon="12.1634483"><ele>570.0</ele><time>2026-05-02T06:49:42.4Z</time></trkpt><trkpt lat="46.0308367" lon="12.163485"><ele>569.0</ele><time>2026-05-02T06:49:43.4Z</time></trkpt><trkpt lat="46.030995" lon="12.163515"><ele>568.0</ele><time>2026-05-02T06:49:44.401Z</time></trkpt><trkpt lat="46.0311533" lon="12.1635383"><ele>568.0</ele><time>2026-05-02T06:49:45.401Z</time></trkpt><trkpt lat="46.0313083" lon="12.1635517"><ele>568.0</ele><time>2026-05-02T06:49:46.401Z</time></trkpt><trkpt lat="46.031465" lon="12.1635683"><ele>568.0</ele><time>2026-05-02T06:49:47.401Z</time></trkpt><trkpt lat="46.0316217" lon="12.1635667"><ele>567.3333333333334</ele><time>2026-05-02T06:49:48.4Z</time></trkpt><trkpt lat="46.031785" lon="12.16356"><ele>566.6666666666666</ele><time>2026-05-02T06:49:49.4Z</time></trkpt><trkpt lat="46.0319417" lon="12.1635367"><ele>566.0</ele><time>2026-05-02T06:49:50.401Z</time></trkpt><trkpt lat="46.032095" lon="12.16351"><ele>566.0</ele><time>2026-05-02T06:49:51.401Z</time></trkpt><trkpt lat="46.0322467" lon="12.1634867"><ele>566.0</ele><time>2026-05-02T06:49:52.401Z</time></trkpt><trkpt lat="46.0323883" lon="12.163455"><ele>566.0</ele><time>2026-05-02T06:49:53.401Z</time></trkpt><trkpt lat="46.032525" lon="12.1634067"><ele>566.0</ele><time>2026-05-02T06:49:54.4Z</time></trkpt><trkpt lat="46.0326583" lon="12.1633517"><ele>565.6</ele><time>2026-05-02T06:49:55.401Z</time></trkpt><trkpt lat="46.0327783" lon="12.1632933"><ele>565.2</ele><time>2026-05-02T06:49:56.401Z</time></trkpt><trkpt lat="46.0328833" lon="12.16328"><ele>564.8</ele><time>2026-05-02T06:49:57.4Z</time></trkpt><trkpt lat="46.0329783" lon="12.1633017"><ele>564.4</ele><time>2026-05-02T06:49:58.401Z</time></trkpt><trkpt lat="46.0330767" lon="12.1633783"><ele>564.0</ele><time>2026-05-02T06:49:59.4Z</time></trkpt><trkpt lat="46.0331617" lon="12.1634583"><ele>564.0</ele><time>2026-05-02T06:50:00.401Z</time></trkpt><trkpt lat="46.0332383" lon="12.1635317"><ele>564.0</ele><time>2026-05-02T06:50:01.401Z</time></trkpt><trkpt lat="46.0333117" lon="12.163575"><ele>564.0</ele><time>2026-05-02T06:50:02.401Z</time></trkpt><trkpt lat="46.0333883" lon="12.1635783"><ele>564.0</ele><time>2026-05-02T06:50:03.401Z</time></trkpt><trkpt lat="46.033465" lon="12.163515"><ele>564.0</ele><time>2026-05-02T06:50:04.4Z</time></trkpt><trkpt lat="46.0335467" lon="12.1633933"><ele>562.0</ele><time>2026-05-02T06:50:05.401Z</time></trkpt><trkpt lat="46.03364" lon="12.1632517"><ele>560.0</ele><time>2026-05-02T06:50:06.401Z</time></trkpt><trkpt lat="46.0337367" lon="12.1631217"><ele>558.0</ele><time>2026-05-02T06:50:07.401Z</time></trkpt><trkpt lat="46.0338383" lon="12.1630133"><ele>556.0</ele><time>2026-05-02T06:50:08.4Z</time></trkpt><trkpt lat="46.0339467" lon="12.1629283"><ele>553.5</ele><time>2026-05-02T06:50:09.401Z</time></trkpt><trkpt lat="46.03406" lon="12.162885"><ele>551.0</ele><time>2026-05-02T06:50:10.401Z</time></trkpt><trkpt lat="46.034185" lon="12.1628433"><ele>548.5</ele><time>2026-05-02T06:50:11.4Z</time></trkpt><trkpt lat="46.034295" lon="12.1627683"><ele>546.0</ele><time>2026-05-02T06:50:12.401Z</time></trkpt><trkpt lat="46.0343867" lon="12.1626633"><ele>546.0</ele><time>2026-05-02T06:50:13.4Z</time></trkpt><trkpt lat="46.034445" lon="12.1625133"><ele>546.0</ele><time>2026-05-02T06:50:14.401Z</time></trkpt><trkpt lat="46.034485" lon="12.1623467"><ele>546.0</ele><time>2026-05-02T06:50:15.401Z</time></trkpt><trkpt lat="46.034505" lon="12.1621883"><ele>546.0</ele><time>2026-05-02T06:50:16.401Z</time></trkpt><trkpt lat="46.0345333" lon="12.1620767"><ele>546.0</ele><time>2026-05-02T06:50:17.401Z</time></trkpt><trkpt lat="46.034575" lon="12.162005"><ele>543.75</ele><time>2026-05-02T06:50:18.401Z</time></trkpt><trkpt lat="46.0347183" lon="12.1619867"><ele>541.5</ele><time>2026-05-02T06:50:20.401Z</time></trkpt><trkpt lat="46.0348333" lon="12.1620267"><ele>539.25</ele><time>2026-05-02T06:50:21.401Z</time></trkpt><trkpt lat="46.0349683" lon="12.1620717"><ele>537.0</ele><time>2026-05-02T06:50:22.401Z</time></trkpt><trkpt lat="46.0350883" lon="12.1621267"><ele>537.0</ele><time>2026-05-02T06:50:23.401Z</time></trkpt><trkpt lat="46.03518" lon="12.1622183"><ele>537.0</ele><time>2026-05-02T06:50:24.401Z</time></trkpt><trkpt lat="46.0352483" lon="12.1623233"><ele>537.0</ele><time>2026-05-02T06:50:25.401Z</time></trkpt><trkpt lat="46.0352833" lon="12.162465"><ele>537.0</ele><time>2026-05-02T06:50:26.401Z</time></trkpt><trkpt lat="46.0352917" lon="12.162635"><ele>537.0</ele><time>2026-05-02T06:50:27.401Z</time></trkpt><trkpt lat="46.0352833" lon="12.1628217"><ele>541.75</ele><time>2026-05-02T06:50:28.401Z</time></trkpt><trkpt lat="46.035275" lon="12.1629983"><ele>546.5</ele><time>2026-05-02T06:50:29.4Z</time></trkpt><trkpt lat="46.0352967" lon="12.163175"><ele>551.25</ele><time>2026-05-02T06:50:30.401Z</time></trkpt><trkpt lat="46.0353617" lon="12.1633467"><ele>556.0</ele><time>2026-05-02T06:50:31.401Z</time></trkpt><trkpt lat="46.0354433" lon="12.1635233"><ele>558.3333333333334</ele><time>2026-05-02T06:50:32.401Z</time></trkpt><trkpt lat="46.035535" lon="12.16371"><ele>560.6666666666666</ele><time>2026-05-02T06:50:33.401Z</time></trkpt><trkpt lat="46.03562" lon="12.1639083"><ele>563.0</ele><time>2026-05-02T06:50:34.401Z</time></trkpt><trkpt lat="46.0356983" lon="12.1640967"><ele>564.4</ele><time>2026-05-02T06:50:35.401Z</time></trkpt><trkpt lat="46.0357683" lon="12.1642567"><ele>565.8</ele><time>2026-05-02T06:50:36.401Z</time></trkpt><trkpt lat="46.035825" lon="12.1644067"><ele>567.2</ele><time>2026-05-02T06:50:37.401Z</time></trkpt><trkpt lat="46.03587" lon="12.1645433"><ele>568.6</ele><time>2026-05-02T06:50:38.401Z</time></trkpt><trkpt lat="46.0358867" lon="12.1646767"><ele>570.0</ele><time>2026-05-02T06:50:39.401Z</time></trkpt><trkpt lat="46.035865" lon="12.1648217"><ele>570.5</ele><time>2026-05-02T06:50:40.401Z</time></trkpt><trkpt lat="46.0358233" lon="12.1649717"><ele>571.0</ele><time>2026-05-02T06:50:41.401Z</time></trkpt><trkpt lat="46.0357733" lon="12.1651467"><ele>571.5</ele><time>2026-05-02T06:50:42.401Z</time></trkpt><trkpt lat="46.035735" lon="12.1653367"><ele>572.0</ele><time>2026-05-02T06:50:43.401Z</time></trkpt><trkpt lat="46.0357217" lon="12.1655317"><ele>572.0</ele><time>2026-05-02T06:50:44.401Z</time></trkpt><trkpt lat="46.0357317" lon="12.165725"><ele>572.0</ele><time>2026-05-02T06:50:45.401Z</time></trkpt><trkpt lat="46.03576" lon="12.16591"><ele>572.0</ele><time>2026-05-02T06:50:46.401Z</time></trkpt><trkpt lat="46.0357717" lon="12.1660783"><ele>572.0</ele><time>2026-05-02T06:50:47.401Z</time></trkpt><trkpt lat="46.0357533" lon="12.16625"><ele>572.0</ele><time>2026-05-02T06:50:48.4Z</time></trkpt><trkpt lat="46.035695" lon="12.1664167"><ele>572.0</ele><time>2026-05-02T06:50:49.401Z</time></trkpt><trkpt lat="46.0356133" lon="12.1665967"><ele>572.0</ele><time>2026-05-02T06:50:50.401Z</time></trkpt><trkpt lat="46.0355133" lon="12.1667767"><ele>572.0</ele><time>2026-05-02T06:50:51.401Z</time></trkpt><trkpt lat="46.0354083" lon="12.16695"><ele>570.6</ele><time>2026-05-02T06:50:52.401Z</time></trkpt><trkpt lat="46.0353233" lon="12.1671"><ele>569.2</ele><time>2026-05-02T06:50:53.401Z</time></trkpt><trkpt lat="46.035255" lon="12.1672183"><ele>567.8</ele><time>2026-05-02T06:50:54.401Z</time></trkpt><trkpt lat="46.0352033" lon="12.167295"><ele>566.4</ele><time>2026-05-02T06:50:55.401Z</time></trkpt><trkpt lat="46.03514" lon="12.1674083"><ele>565.0</ele><time>2026-05-02T06:50:57.401Z</time></trkpt><trkpt lat="46.0352217" lon="12.1674483"><ele>565.0</ele><time>2026-05-02T06:51:00.4Z</time></trkpt><trkpt lat="46.0353417" lon="12.1673183"><ele>565.0</ele><time>2026-05-02T06:51:02.401Z</time></trkpt><trkpt lat="46.035425" lon="12.16721"><ele>565.0</ele><time>2026-05-02T06:51:03.4Z</time></trkpt><trkpt lat="46.0355083" lon="12.16711"><ele>565.0</ele><time>2026-05-02T06:51:04.4Z</time></trkpt><trkpt lat="46.0355783" lon="12.1670133"><ele>565.0</ele><time>2026-05-02T06:51:05.401Z</time></trkpt><trkpt lat="46.035645" lon="12.1669417"><ele>565.0</ele><time>2026-05-02T06:51:06.4Z</time></trkpt><trkpt lat="46.0357067" lon="12.1669"><ele>565.0</ele><time>2026-05-02T06:51:07.401Z</time></trkpt><trkpt lat="46.0357683" lon="12.16688"><ele>565.0</ele><time>2026-05-02T06:51:08.401Z</time></trkpt><trkpt lat="46.0358433" lon="12.1668967"><ele>565.0</ele><time>2026-05-02T06:51:09.401Z</time></trkpt><trkpt lat="46.03592" lon="12.166965"><ele>565.0</ele><time>2026-05-02T06:51:10.4Z</time></trkpt><trkpt lat="46.0360067" lon="12.1670467"><ele>555.25</ele><time>2026-05-02T06:51:11.4Z</time></trkpt><trkpt lat="46.0361017" lon="12.1671483"><ele>545.5</ele><time>2026-05-02T06:51:12.4Z</time></trkpt><trkpt lat="46.0361867" lon="12.1672567"><ele>535.75</ele><time>2026-05-02T06:51:13.401Z</time></trkpt><trkpt lat="46.03627" lon="12.1673617"><ele>526.0</ele><time>2026-05-02T06:51:14.401Z</time></trkpt><trkpt lat="46.036355" lon="12.1674733"><ele>524.0</ele><time>2026-05-02T06:51:15.401Z</time></trkpt><trkpt lat="46.0364433" lon="12.1675567"><ele>522.0</ele><time>2026-05-02T06:51:16.4Z</time></trkpt><trkpt lat="46.0365317" lon="12.16762"><ele>520.0</ele><time>2026-05-02T06:51:17.401Z</time></trkpt><trkpt lat="46.0366167" lon="12.1676533"><ele>518.0</ele><time>2026-05-02T06:51:18.401Z</time></trkpt><trkpt lat="46.0366983" lon="12.16765"><ele>516.0</ele><time>2026-05-02T06:51:19.401Z</time></trkpt><trkpt lat="46.0367783" lon="12.1675933"><ele>515.25</ele><time>2026-05-02T06:51:20.401Z</time></trkpt><trkpt lat="46.0368667" lon="12.167485"><ele>514.5</ele><time>2026-05-02T06:51:21.401Z</time></trkpt><trkpt lat="46.03696" lon="12.16734"><ele>513.75</ele><time>2026-05-02T06:51:22.401Z</time></trkpt><trkpt lat="46.03706" lon="12.167175"><ele>513.0</ele><time>2026-05-02T06:51:23.401Z</time></trkpt><trkpt lat="46.0371667" lon="12.167015"><ele>513.0</ele><time>2026-05-02T06:51:24.401Z</time></trkpt><trkpt lat="46.037275" lon="12.1668583"><ele>513.0</ele><time>2026-05-02T06:51:25.401Z</time></trkpt><trkpt lat="46.0373767" lon="12.166715"><ele>513.0</ele><time>2026-05-02T06:51:26.401Z</time></trkpt><trkpt lat="46.0374833" lon="12.16657"><ele>513.0</ele><time>2026-05-02T06:51:27.4Z</time></trkpt><trkpt lat="46.03759" lon="12.1664283"><ele>513.25</ele><time>2026-05-02T06:51:28.401Z</time></trkpt><trkpt lat="46.0376967" lon="12.1662817"><ele>513.5</ele><time>2026-05-02T06:51:29.401Z</time></trkpt><trkpt lat="46.0377983" lon="12.1661283"><ele>513.75</ele><time>2026-05-02T06:51:30.4Z</time></trkpt><trkpt lat="46.0379" lon="12.165965"><ele>514.0</ele><time>2026-05-02T06:51:31.401Z</time></trkpt><trkpt lat="46.03799" lon="12.1658017"><ele>512.5</ele><time>2026-05-02T06:51:32.4Z</time></trkpt><trkpt lat="46.03806" lon="12.1656317"><ele>511.0</ele><time>2026-05-02T06:51:33.401Z</time></trkpt><trkpt lat="46.0381133" lon="12.1654367"><ele>509.5</ele><time>2026-05-02T06:51:34.4Z</time></trkpt><trkpt lat="46.0381467" lon="12.1652367"><ele>508.0</ele><time>2026-05-02T06:51:35.401Z</time></trkpt><trkpt lat="46.0381667" lon="12.1650233"><ele>509.0</ele><time>2026-05-02T06:51:36.401Z</time></trkpt><trkpt lat="46.0381817" lon="12.1648133"><ele>510.0</ele><time>2026-05-02T06:51:37.4Z</time></trkpt><trkpt lat="46.0381967" lon="12.1646083"><ele>511.0</ele><time>2026-05-02T06:51:38.401Z</time></trkpt><trkpt lat="46.0382083" lon="12.1644317"><ele>512.0</ele><time>2026-05-02T06:51:39.401Z</time></trkpt><trkpt lat="46.038205" lon="12.1642817"><ele>512.0</ele><time>2026-05-02T06:51:40.401Z</time></trkpt><trkpt lat="46.03817" lon="12.16415"><ele>512.0</ele><time>2026-05-02T06:51:41.401Z</time></trkpt><trkpt lat="46.0381083" lon="12.164035"><ele>512.0</ele><time>2026-05-02T06:51:42.4Z</time></trkpt><trkpt lat="46.0380367" lon="12.1639367"><ele>512.0</ele><time>2026-05-02T06:51:43.401Z</time></trkpt><trkpt lat="46.0379683" lon="12.1638567"><ele>512.0</ele><time>2026-05-02T06:51:44.401Z</time></trkpt><trkpt lat="46.03793" lon="12.163775"><ele>513.8000000000001</ele><time>2026-05-02T06:51:45.401Z</time></trkpt><trkpt lat="46.0379183" lon="12.1636367"><ele>515.6</ele><time>2026-05-02T06:51:47.401Z</time></trkpt><trkpt lat="46.03803" lon="12.1636533"><ele>517.4000000000001</ele><time>2026-05-02T06:51:49.401Z</time></trkpt><trkpt lat="46.0381067" lon="12.1637267"><ele>519.2</ele><time>2026-05-02T06:51:50.4Z</time></trkpt><trkpt lat="46.0382033" lon="12.16384"><ele>521.0</ele><time>2026-05-02T06:51:51.401Z</time></trkpt><trkpt lat="46.038345" lon="12.164015"><ele>526.25</ele><time>2026-05-02T06:51:52.401Z</time></trkpt><trkpt lat="46.03846" lon="12.16418"><ele>531.5</ele><time>2026-05-02T06:51:53.401Z</time></trkpt><trkpt lat="46.0385433" lon="12.164345"><ele>536.75</ele><time>2026-05-02T06:51:54.401Z</time></trkpt><trkpt lat="46.0386" lon="12.16452"><ele>542.0</ele><time>2026-05-02T06:51:55.401Z</time></trkpt><trkpt lat="46.038645" lon="12.1647167"><ele>540.25</ele><time>2026-05-02T06:51:56.401Z</time></trkpt><trkpt lat="46.0386783" lon="12.1649383"><ele>538.5</ele><time>2026-05-02T06:51:57.401Z</time></trkpt><trkpt lat="46.0386817" lon="12.1651333"><ele>536.75</ele><time>2026-05-02T06:51:58.401Z</time></trkpt><trkpt lat="46.03866" lon="12.165325"><ele>535.0</ele><time>2026-05-02T06:51:59.401Z</time></trkpt><trkpt lat="46.0386183" lon="12.1655033"><ele>535.0</ele><time>2026-05-02T06:52:00.401Z</time></trkpt><trkpt lat="46.038565" lon="12.1656667"><ele>535.0</ele><time>2026-05-02T06:52:01.4Z</time></trkpt><trkpt lat="46.0385033" lon="12.1658167"><ele>535.0</ele><time>2026-05-02T06:52:02.4Z</time></trkpt><trkpt lat="46.0384633" lon="12.165935"><ele>535.0</ele><time>2026-05-02T06:52:03.401Z</time></trkpt><trkpt lat="46.038455" lon="12.1660367"><ele>535.0</ele><time>2026-05-02T06:52:04.401Z</time></trkpt><trkpt lat="46.03851" lon="12.1661733"><ele>535.0</ele><time>2026-05-02T06:52:06.401Z</time></trkpt><trkpt lat="46.0386233" lon="12.1661217"><ele>535.0</ele><time>2026-05-02T06:52:08.401Z</time></trkpt><trkpt lat="46.0386483" lon="12.1660017"><ele>535.0</ele><time>2026-05-02T06:52:09.401Z</time></trkpt><trkpt lat="46.0386633" lon="12.1658333"><ele>535.0</ele><time>2026-05-02T06:52:10.401Z</time></trkpt><trkpt lat="46.0387033" lon="12.1656383"><ele>535.0</ele><time>2026-05-02T06:52:11.4Z</time></trkpt><trkpt lat="46.0387833" lon="12.1654367"><ele>535.0</ele><time>2026-05-02T06:52:12.401Z</time></trkpt><trkpt lat="46.0388767" lon="12.1652317"><ele>535.0</ele><time>2026-05-02T06:52:13.401Z</time></trkpt><trkpt lat="46.0389617" lon="12.1650333"><ele>536.75</ele><time>2026-05-02T06:52:14.401Z</time></trkpt><trkpt lat="46.0390383" lon="12.164855"><ele>538.5</ele><time>2026-05-02T06:52:15.401Z</time></trkpt><trkpt lat="46.0390733" lon="12.1646933"><ele>540.25</ele><time>2026-05-02T06:52:16.4Z</time></trkpt><trkpt lat="46.039075" lon="12.164535"><ele>542.0</ele><time>2026-05-02T06:52:17.401Z</time></trkpt><trkpt lat="46.039035" lon="12.1643833"><ele>542.0</ele><time>2026-05-02T06:52:18.4Z</time></trkpt><trkpt lat="46.0389733" lon="12.1642283"><ele>542.0</ele><time>2026-05-02T06:52:19.401Z</time></trkpt><trkpt lat="46.0388867" lon="12.1640667"><ele>542.0</ele><time>2026-05-02T06:52:20.401Z</time></trkpt><trkpt lat="46.0387883" lon="12.163895"><ele>542.0</ele><time>2026-05-02T06:52:21.401Z</time></trkpt><trkpt lat="46.038695" lon="12.16371"><ele>545.5</ele><time>2026-05-02T06:52:22.401Z</time></trkpt><trkpt lat="46.0385967" lon="12.1635267"><ele>549.0</ele><time>2026-05-02T06:52:23.4Z</time></trkpt><trkpt lat="46.038505" lon="12.1633583"><ele>552.5</ele><time>2026-05-02T06:52:24.401Z</time></trkpt><trkpt lat="46.0384267" lon="12.16321"><ele>556.0</ele><time>2026-05-02T06:52:25.401Z</time></trkpt><trkpt lat="46.038365" lon="12.1630867"><ele>557.2</ele><time>2026-05-02T06:52:26.401Z</time></trkpt><trkpt lat="46.0383317" lon="12.1629517"><ele>558.4000000000001</ele><time>2026-05-02T06:52:27.401Z</time></trkpt><trkpt lat="46.038325" lon="12.1628267"><ele>559.6</ele><time>2026-05-02T06:52:28.401Z</time></trkpt><trkpt lat="46.0383317" lon="12.1627"><ele>560.8000000000001</ele><time>2026-05-02T06:52:29.401Z</time></trkpt><trkpt lat="46.0383883" lon="12.162575"><ele>562.0</ele><time>2026-05-02T06:52:30.401Z</time></trkpt><trkpt lat="46.038475" lon="12.162455"><ele>560.25</ele><time>2026-05-02T06:52:31.401Z</time></trkpt><trkpt lat="46.0385783" lon="12.16235"><ele>558.5</ele><time>2026-05-02T06:52:32.401Z</time></trkpt><trkpt lat="46.0386783" lon="12.16224"><ele>556.75</ele><time>2026-05-02T06:52:33.401Z</time></trkpt><trkpt lat="46.038775" lon="12.1621183"><ele>555.0</ele><time>2026-05-02T06:52:34.401Z</time></trkpt><trkpt lat="46.0388583" lon="12.1619933"><ele>555.0</ele><time>2026-05-02T06:52:35.401Z</time></trkpt><trkpt lat="46.0389433" lon="12.16187"><ele>555.0</ele><time>2026-05-02T06:52:36.401Z</time></trkpt><trkpt lat="46.0390317" lon="12.1617417"><ele>555.0</ele><time>2026-05-02T06:52:37.401Z</time></trkpt><trkpt lat="46.0391383" lon="12.1616017"><ele>555.0</ele><time>2026-05-02T06:52:38.401Z</time></trkpt><trkpt lat="46.03925" lon="12.1614683"><ele>557.75</ele><time>2026-05-02T06:52:39.401Z</time></trkpt><trkpt lat="46.0393617" lon="12.1613417"><ele>560.5</ele><time>2026-05-02T06:52:40.401Z</time></trkpt><trkpt lat="46.0394833" lon="12.1612183"><ele>563.25</ele><time>2026-05-02T06:52:41.4Z</time></trkpt><trkpt lat="46.0396133" lon="12.1610883"><ele>566.0</ele><time>2026-05-02T06:52:42.401Z</time></trkpt><trkpt lat="46.0397417" lon="12.1609583"><ele>566.0</ele><time>2026-05-02T06:52:43.4Z</time></trkpt><trkpt lat="46.0398667" lon="12.160825"><ele>566.0</ele><time>2026-05-02T06:52:44.401Z</time></trkpt><trkpt lat="46.0399933" lon="12.1606883"><ele>566.0</ele><time>2026-05-02T06:52:45.401Z</time></trkpt><trkpt lat="46.0401133" lon="12.1605617"><ele>565.3333333333333</ele><time>2026-05-02T06:52:46.401Z</time></trkpt><trkpt lat="46.0402483" lon="12.1604567"><ele>564.6666666666666</ele><time>2026-05-02T06:52:47.401Z</time></trkpt><trkpt lat="46.0403733" lon="12.1603383"><ele>564.0</ele><time>2026-05-02T06:52:48.401Z</time></trkpt><trkpt lat="46.0405017" lon="12.16023"><ele>564.0</ele><time>2026-05-02T06:52:49.401Z</time></trkpt><trkpt lat="46.0406267" lon="12.1601167"><ele>564.0</ele><time>2026-05-02T06:52:50.401Z</time></trkpt><trkpt lat="46.0407617" lon="12.16001"><ele>564.0</ele><time>2026-05-02T06:52:51.401Z</time></trkpt><trkpt lat="46.0409117" lon="12.159915"><ele>562.6666666666666</ele><time>2026-05-02T06:52:52.4Z</time></trkpt><trkpt lat="46.0410633" lon="12.1598167"><ele>561.3333333333333</ele><time>2026-05-02T06:52:53.401Z</time></trkpt><trkpt lat="46.0412167" lon="12.15972"><ele>560.0</ele><time>2026-05-02T06:52:54.401Z</time></trkpt><trkpt lat="46.0413633" lon="12.159625"><ele>560.0</ele><time>2026-05-02T06:52:55.401Z</time></trkpt><trkpt lat="46.0415117" lon="12.159535"><ele>560.0</ele><time>2026-05-02T06:52:56.401Z</time></trkpt><trkpt lat="46.0416567" lon="12.1594467"><ele>560.0</ele><time>2026-05-02T06:52:57.401Z</time></trkpt><trkpt lat="46.0418017" lon="12.15936"><ele>560.0</ele><time>2026-05-02T06:52:58.401Z</time></trkpt><trkpt lat="46.041955" lon="12.1592717"><ele>560.0</ele><time>2026-05-02T06:52:59.4Z</time></trkpt><trkpt lat="46.0421117" lon="12.1591883"><ele>560.0</ele><time>2026-05-02T06:53:00.401Z</time></trkpt><trkpt lat="46.0422817" lon="12.1591117"><ele>560.0</ele><time>2026-05-02T06:53:01.401Z</time></trkpt><trkpt lat="46.0424567" lon="12.1590533"><ele>560.0</ele><time>2026-05-02T06:53:02.401Z</time></trkpt><trkpt lat="46.042635" lon="12.158995"><ele>560.0</ele><time>2026-05-02T06:53:03.401Z</time></trkpt><trkpt lat="46.0428083" lon="12.1589383"><ele>559.0</ele><time>2026-05-02T06:53:04.401Z</time></trkpt><trkpt lat="46.0429817" lon="12.158885"><ele>558.0</ele><time>2026-05-02T06:53:05.4Z</time></trkpt><trkpt lat="46.0431517" lon="12.158845"><ele>557.0</ele><time>2026-05-02T06:53:06.401Z</time></trkpt><trkpt lat="46.0433167" lon="12.1587967"><ele>557.0</ele><time>2026-05-02T06:53:07.4Z</time></trkpt><trkpt lat="46.0434783" lon="12.158735"><ele>557.0</ele><time>2026-05-02T06:53:08.401Z</time></trkpt><trkpt lat="46.0436383" lon="12.1586667"><ele>557.0</ele><time>2026-05-02T06:53:09.4Z</time></trkpt><trkpt lat="46.0437983" lon="12.1585733"><ele>557.0</ele><time>2026-05-02T06:53:10.401Z</time></trkpt><trkpt lat="46.0439617" lon="12.1584767"><ele>557.0</ele><time>2026-05-02T06:53:11.401Z</time></trkpt><trkpt lat="46.04412" lon="12.1583817"><ele>557.0</ele><time>2026-05-02T06:53:12.401Z</time></trkpt><trkpt lat="46.0442983" lon="12.1582817"><ele>556.0</ele><time>2026-05-02T06:53:13.4Z</time></trkpt><trkpt lat="46.0444733" lon="12.1581933"><ele>555.0</ele><time>2026-05-02T06:53:14.401Z</time></trkpt><trkpt lat="46.04464" lon="12.158095"><ele>554.0</ele><time>2026-05-02T06:53:15.401Z</time></trkpt><trkpt lat="46.0447983" lon="12.15799"><ele>554.0</ele><time>2026-05-02T06:53:16.401Z</time></trkpt><trkpt lat="46.044955" lon="12.1578867"><ele>554.0</ele><time>2026-05-02T06:53:17.4Z</time></trkpt><trkpt lat="46.0450983" lon="12.15777"><ele>554.0</ele><time>2026-05-02T06:53:18.401Z</time></trkpt><trkpt lat="46.0452183" lon="12.15765"><ele>554.0</ele><time>2026-05-02T06:53:19.401Z</time></trkpt><trkpt lat="46.0453117" lon="12.1575033"><ele>554.0</ele><time>2026-05-02T06:53:20.4Z</time></trkpt><trkpt lat="46.045395" lon="12.1573533"><ele>554.0</ele><time>2026-05-02T06:53:21.401Z</time></trkpt><trkpt lat="46.0454967" lon="12.1572117"><ele>554.0</ele><time>2026-05-02T06:53:22.401Z</time></trkpt><trkpt lat="46.0456017" lon="12.15709"><ele>552.6</ele><time>2026-05-02T06:53:23.401Z</time></trkpt><trkpt lat="46.045705" lon="12.157005"><ele>551.2</ele><time>2026-05-02T06:53:24.401Z</time></trkpt><trkpt lat="46.0458067" lon="12.1569867"><ele>549.8000000000001</ele><time>2026-05-02T06:53:25.401Z</time></trkpt><trkpt lat="46.0459133" lon="12.15701"><ele>548.4</ele><time>2026-05-02T06:53:26.401Z</time></trkpt><trkpt lat="46.046015" lon="12.1570717"><ele>547.0</ele><time>2026-05-02T06:53:27.401Z</time></trkpt><trkpt lat="46.046105" lon="12.1571233"><ele>547.0</ele><time>2026-05-02T06:53:28.401Z</time></trkpt><trkpt lat="46.04619" lon="12.1571483"><ele>547.0</ele><time>2026-05-02T06:53:29.401Z</time></trkpt><trkpt lat="46.04626" lon="12.1571317"><ele>547.0</ele><time>2026-05-02T06:53:30.401Z</time></trkpt><trkpt lat="46.04631" lon="12.1570633"><ele>547.0</ele><time>2026-05-02T06:53:31.401Z</time></trkpt><trkpt lat="46.0463517" lon="12.1569367"><ele>547.0</ele><time>2026-05-02T06:53:32.401Z</time></trkpt><trkpt lat="46.0464" lon="12.15679"><ele>547.0</ele><time>2026-05-02T06:53:33.401Z</time></trkpt><trkpt lat="46.0464617" lon="12.15665"><ele>547.0</ele><time>2026-05-02T06:53:34.401Z</time></trkpt><trkpt lat="46.0465467" lon="12.15655"><ele>547.0</ele><time>2026-05-02T06:53:35.401Z</time></trkpt><trkpt lat="46.0466483" lon="12.1564917"><ele>547.0</ele><time>2026-05-02T06:53:36.401Z</time></trkpt><trkpt lat="46.0467583" lon="12.1564667"><ele>547.0</ele><time>2026-05-02T06:53:37.401Z</time></trkpt><trkpt lat="46.046875" lon="12.1564417"><ele>547.0</ele><time>2026-05-02T06:53:38.401Z</time></trkpt><trkpt lat="46.046965" lon="12.1563733"><ele>546.25</ele><time>2026-05-02T06:53:39.401Z</time></trkpt><trkpt lat="46.0470267" lon="12.1562533"><ele>545.5</ele><time>2026-05-02T06:53:40.401Z</time></trkpt><trkpt lat="46.0470867" lon="12.1561033"><ele>544.75</ele><time>2026-05-02T06:53:41.4Z</time></trkpt><trkpt lat="46.0471617" lon="12.155935"><ele>544.0</ele><time>2026-05-02T06:53:42.4Z</time></trkpt><trkpt lat="46.0472333" lon="12.15577"><ele>543.25</ele><time>2026-05-02T06:53:43.401Z</time></trkpt><trkpt lat="46.0473283" lon="12.1556383"><ele>542.5</ele><time>2026-05-02T06:53:44.401Z</time></trkpt><trkpt lat="46.047435" lon="12.1555217"><ele>541.75</ele><time>2026-05-02T06:53:45.401Z</time></trkpt><trkpt lat="46.047565" lon="12.1554183"><ele>541.0</ele><time>2026-05-02T06:53:46.401Z</time></trkpt><trkpt lat="46.0477067" lon="12.1553133"><ele>541.0</ele><time>2026-05-02T06:53:47.4Z</time></trkpt><trkpt lat="46.0478483" lon="12.15521"><ele>541.0</ele><time>2026-05-02T06:53:48.401Z</time></trkpt><trkpt lat="46.0479867" lon="12.15509"><ele>541.0</ele><time>2026-05-02T06:53:49.401Z</time></trkpt><trkpt lat="46.0481233" lon="12.1549483"><ele>540.6666666666667</ele><time>2026-05-02T06:53:50.401Z</time></trkpt><trkpt lat="46.0482533" lon="12.1548083"><ele>540.3333333333334</ele><time>2026-05-02T06:53:51.401Z</time></trkpt><trkpt lat="46.04837" lon="12.1546683"><ele>540.0</ele><time>2026-05-02T06:53:52.401Z</time></trkpt><trkpt lat="46.0484817" lon="12.1545333"><ele>540.0</ele><time>2026-05-02T06:53:53.4Z</time></trkpt><trkpt lat="46.0485883" lon="12.1544017"><ele>540.0</ele><time>2026-05-02T06:53:54.401Z</time></trkpt><trkpt lat="46.048685" lon="12.1542717"><ele>540.0</ele><time>2026-05-02T06:53:55.401Z</time></trkpt><trkpt lat="46.04877" lon="12.1541383"><ele>540.0</ele><time>2026-05-02T06:53:56.401Z</time></trkpt><trkpt lat="46.04885" lon="12.1540083"><ele>538.75</ele><time>2026-05-02T06:53:57.401Z</time></trkpt><trkpt lat="46.0489117" lon="12.1538833"><ele>537.5</ele><time>2026-05-02T06:53:58.401Z</time></trkpt><trkpt lat="46.0489467" lon="12.1537467"><ele>536.25</ele><time>2026-05-02T06:53:59.401Z</time></trkpt><trkpt lat="46.048955" lon="12.1535683"><ele>535.0</ele><time>2026-05-02T06:54:00.401Z</time></trkpt><trkpt lat="46.0489333" lon="12.1533633"><ele>533.25</ele><time>2026-05-02T06:54:01.401Z</time></trkpt><trkpt lat="46.0488917" lon="12.1531667"><ele>531.5</ele><time>2026-05-02T06:54:02.401Z</time></trkpt><trkpt lat="46.04886" lon="12.1529733"><ele>529.75</ele><time>2026-05-02T06:54:03.401Z</time></trkpt><trkpt lat="46.0488217" lon="12.1527717"><ele>528.0</ele><time>2026-05-02T06:54:04.401Z</time></trkpt><trkpt lat="46.0487933" lon="12.152565"><ele>528.0</ele><time>2026-05-02T06:54:05.4Z</time></trkpt><trkpt lat="46.0487717" lon="12.1523683"><ele>528.0</ele><time>2026-05-02T06:54:06.4Z</time></trkpt><trkpt lat="46.0487667" lon="12.15216"><ele>528.0</ele><time>2026-05-02T06:54:07.4Z</time></trkpt><trkpt lat="46.048775" lon="12.15195"><ele>528.0</ele><time>2026-05-02T06:54:08.4Z</time></trkpt><trkpt lat="46.0488017" lon="12.1517367"><ele>527.5</ele><time>2026-05-02T06:54:09.401Z</time></trkpt><trkpt lat="46.0488467" lon="12.15153"><ele>527.0</ele><time>2026-05-02T06:54:10.401Z</time></trkpt><trkpt lat="46.0488967" lon="12.15133"><ele>526.5</ele><time>2026-05-02T06:54:11.401Z</time></trkpt><trkpt lat="46.0489567" lon="12.15113"><ele>526.0</ele><time>2026-05-02T06:54:12.401Z</time></trkpt><trkpt lat="46.0490183" lon="12.150945"><ele>526.0</ele><time>2026-05-02T06:54:13.401Z</time></trkpt><trkpt lat="46.04908" lon="12.150765"><ele>526.0</ele><time>2026-05-02T06:54:14.401Z</time></trkpt><trkpt lat="46.0491333" lon="12.1506033"><ele>526.0</ele><time>2026-05-02T06:54:15.4Z</time></trkpt><trkpt lat="46.0492" lon="12.1504483"><ele>526.0</ele><time>2026-05-02T06:54:16.401Z</time></trkpt><trkpt lat="46.0492867" lon="12.1502883"><ele>523.6666666666667</ele><time>2026-05-02T06:54:17.401Z</time></trkpt><trkpt lat="46.04939" lon="12.1501367"><ele>521.3333333333334</ele><time>2026-05-02T06:54:18.401Z</time></trkpt><trkpt lat="46.0495083" lon="12.1499867"><ele>519.0</ele><time>2026-05-02T06:54:19.401Z</time></trkpt><trkpt lat="46.0496317" lon="12.1498267"><ele>517.6666666666666</ele><time>2026-05-02T06:54:20.401Z</time></trkpt><trkpt lat="46.0497617" lon="12.1496767"><ele>516.3333333333333</ele><time>2026-05-02T06:54:21.401Z</time></trkpt><trkpt lat="46.0498833" lon="12.1495317"><ele>515.0</ele><time>2026-05-02T06:54:22.401Z</time></trkpt><trkpt lat="46.0500067" lon="12.1493817"><ele>515.0</ele><time>2026-05-02T06:54:23.401Z</time></trkpt><trkpt lat="46.0501233" lon="12.1492367"><ele>515.0</ele><time>2026-05-02T06:54:24.401Z</time></trkpt><trkpt lat="46.05024" lon="12.1490867"><ele>515.0</ele><time>2026-05-02T06:54:25.401Z</time></trkpt><trkpt lat="46.0503467" lon="12.148955"><ele>512.5</ele><time>2026-05-02T06:54:26.401Z</time></trkpt><trkpt lat="46.0504533" lon="12.1488483"><ele>510.0</ele><time>2026-05-02T06:54:27.401Z</time></trkpt><trkpt lat="46.0505633" lon="12.1487817"><ele>507.5</ele><time>2026-05-02T06:54:28.401Z</time></trkpt><trkpt lat="46.0506783" lon="12.1487583"><ele>505.0</ele><time>2026-05-02T06:54:29.401Z</time></trkpt><trkpt lat="46.0508" lon="12.14877"><ele>505.0</ele><time>2026-05-02T06:54:30.401Z</time></trkpt><trkpt lat="46.050915" lon="12.148805"><ele>505.0</ele><time>2026-05-02T06:54:31.401Z</time></trkpt><trkpt lat="46.051015" lon="12.14884"><ele>505.0</ele><time>2026-05-02T06:54:32.401Z</time></trkpt><trkpt lat="46.051095" lon="12.1488383"><ele>505.0</ele><time>2026-05-02T06:54:33.401Z</time></trkpt><trkpt lat="46.05116" lon="12.1487817"><ele>505.0</ele><time>2026-05-02T06:54:34.4Z</time></trkpt><trkpt lat="46.05121" lon="12.148685"><ele>505.0</ele><time>2026-05-02T06:54:35.401Z</time></trkpt><trkpt lat="46.05124" lon="12.1484967"><ele>505.0</ele><time>2026-05-02T06:54:36.4Z</time></trkpt><trkpt lat="46.05127" lon="12.1482867"><ele>505.0</ele><time>2026-05-02T06:54:37.401Z</time></trkpt><trkpt lat="46.0513167" lon="12.14809"><ele>505.0</ele><time>2026-05-02T06:54:38.401Z</time></trkpt><trkpt lat="46.051375" lon="12.1478917"><ele>502.5</ele><time>2026-05-02T06:54:39.4Z</time></trkpt><trkpt lat="46.0514383" lon="12.1477033"><ele>500.0</ele><time>2026-05-02T06:54:40.401Z</time></trkpt><trkpt lat="46.0515067" lon="12.1475367"><ele>497.5</ele><time>2026-05-02T06:54:41.401Z</time></trkpt><trkpt lat="46.0515867" lon="12.1473883"><ele>495.0</ele><time>2026-05-02T06:54:42.401Z</time></trkpt><trkpt lat="46.0516817" lon="12.147255"><ele>493.33333333333337</ele><time>2026-05-02T06:54:43.4Z</time></trkpt><trkpt lat="46.0517983" lon="12.1471367"><ele>491.6666666666667</ele><time>2026-05-02T06:54:44.4Z</time></trkpt><trkpt lat="46.051935" lon="12.1470267"><ele>490.0</ele><time>2026-05-02T06:54:45.401Z</time></trkpt><trkpt lat="46.052085" lon="12.1469333"><ele>490.0</ele><time>2026-05-02T06:54:46.401Z</time></trkpt><trkpt lat="46.0522317" lon="12.1468417"><ele>490.0</ele><time>2026-05-02T06:54:47.401Z</time></trkpt><trkpt lat="46.0523933" lon="12.1467433"><ele>490.0</ele><time>2026-05-02T06:54:48.401Z</time></trkpt><trkpt lat="46.0525567" lon="12.14665"><ele>490.0</ele><time>2026-05-02T06:54:49.401Z</time></trkpt><trkpt lat="46.0527183" lon="12.1465567"><ele>490.0</ele><time>2026-05-02T06:54:50.4Z</time></trkpt><trkpt lat="46.052875" lon="12.1464667"><ele>490.0</ele><time>2026-05-02T06:54:51.401Z</time></trkpt><trkpt lat="46.0530083" lon="12.1463733"><ele>490.0</ele><time>2026-05-02T06:54:52.401Z</time></trkpt><trkpt lat="46.0531267" lon="12.1462783"><ele>490.0</ele><time>2026-05-02T06:54:53.401Z</time></trkpt><trkpt lat="46.0532267" lon="12.1461533"><ele>490.0</ele><time>2026-05-02T06:54:54.401Z</time></trkpt><trkpt lat="46.0532967" lon="12.1459967"><ele>490.0</ele><time>2026-05-02T06:54:55.401Z</time></trkpt><trkpt lat="46.0533533" lon="12.1458067"><ele>489.0</ele><time>2026-05-02T06:54:56.401Z</time></trkpt><trkpt lat="46.0534083" lon="12.1456033"><ele>488.0</ele><time>2026-05-02T06:54:57.401Z</time></trkpt><trkpt lat="46.0534717" lon="12.14542"><ele>487.0</ele><time>2026-05-02T06:54:58.401Z</time></trkpt><trkpt lat="46.0535583" lon="12.14526"><ele>486.0</ele><time>2026-05-02T06:54:59.401Z</time></trkpt><trkpt lat="46.0536683" lon="12.1451483"><ele>486.0</ele><time>2026-05-02T06:55:00.401Z</time></trkpt><trkpt lat="46.0537917" lon="12.145055"><ele>486.0</ele><time>2026-05-02T06:55:01.401Z</time></trkpt><trkpt lat="46.053895" lon="12.1449433"><ele>486.0</ele><time>2026-05-02T06:55:02.401Z</time></trkpt><trkpt lat="46.0539783" lon="12.1448017"><ele>486.0</ele><time>2026-05-02T06:55:03.401Z</time></trkpt><trkpt lat="46.0540167" lon="12.144625"><ele>485.25</ele><time>2026-05-02T06:55:04.401Z</time></trkpt><trkpt lat="46.0540467" lon="12.1444233"><ele>484.5</ele><time>2026-05-02T06:55:05.401Z</time></trkpt><trkpt lat="46.0540833" lon="12.144265"><ele>483.75</ele><time>2026-05-02T06:55:06.4Z</time></trkpt><trkpt lat="46.0541417" lon="12.1441233"><ele>483.0</ele><time>2026-05-02T06:55:07.401Z</time></trkpt><trkpt lat="46.0542417" lon="12.144"><ele>477.33333333333337</ele><time>2026-05-02T06:55:08.401Z</time></trkpt><trkpt lat="46.0543617" lon="12.1438683"><ele>471.6666666666667</ele><time>2026-05-02T06:55:09.401Z</time></trkpt><trkpt lat="46.0544917" lon="12.1437233"><ele>466.0</ele><time>2026-05-02T06:55:10.401Z</time></trkpt><trkpt lat="46.05463" lon="12.1435633"><ele>466.0</ele><time>2026-05-02T06:55:11.401Z</time></trkpt><trkpt lat="46.05477" lon="12.1433967"><ele>466.0</ele><time>2026-05-02T06:55:12.401Z</time></trkpt><trkpt lat="46.054915" lon="12.1432317"><ele>466.0</ele><time>2026-05-02T06:55:13.401Z</time></trkpt><trkpt lat="46.0550517" lon="12.14307"><ele>465.0</ele><time>2026-05-02T06:55:14.401Z</time></trkpt><trkpt lat="46.0551817" lon="12.1429133"><ele>464.0</ele><time>2026-05-02T06:55:15.401Z</time></trkpt><trkpt lat="46.0553033" lon="12.1427583"><ele>463.0</ele><time>2026-05-02T06:55:16.401Z</time></trkpt><trkpt lat="46.0554267" lon="12.1426083"><ele>463.0</ele><time>2026-05-02T06:55:17.401Z</time></trkpt><trkpt lat="46.0555583" lon="12.14245"><ele>463.0</ele><time>2026-05-02T06:55:18.4Z</time></trkpt><trkpt lat="46.0556833" lon="12.142285"><ele>463.0</ele><time>2026-05-02T06:55:19.4Z</time></trkpt><trkpt lat="46.055815" lon="12.1421167"><ele>461.0</ele><time>2026-05-02T06:55:20.401Z</time></trkpt><trkpt lat="46.05594" lon="12.141945"><ele>459.0</ele><time>2026-05-02T06:55:21.401Z</time></trkpt><trkpt lat="46.0560667" lon="12.1417683"><ele>457.0</ele><time>2026-05-02T06:55:22.4Z</time></trkpt><trkpt lat="46.0561883" lon="12.1416133"><ele>451.33333333333337</ele><time>2026-05-02T06:55:23.4Z</time></trkpt><trkpt lat="46.0563067" lon="12.1414567"><ele>445.66666666666663</ele><time>2026-05-02T06:55:24.401Z</time></trkpt><trkpt lat="46.0564183" lon="12.1413083"><ele>440.0</ele><time>2026-05-02T06:55:25.401Z</time></trkpt><trkpt lat="46.0565383" lon="12.141195"><ele>442.0</ele><time>2026-05-02T06:55:26.401Z</time></trkpt><trkpt lat="46.0566533" lon="12.141125"><ele>444.0</ele><time>2026-05-02T06:55:27.401Z</time></trkpt><trkpt lat="46.0567567" lon="12.14109"><ele>446.0</ele><time>2026-05-02T06:55:28.401Z</time></trkpt><trkpt lat="46.0568533" lon="12.1410967"><ele>448.0</ele><time>2026-05-02T06:55:29.401Z</time></trkpt><trkpt lat="46.05696" lon="12.1411567"><ele>450.0</ele><time>2026-05-02T06:55:30.401Z</time></trkpt><trkpt lat="46.0570767" lon="12.1412517"><ele>450.0</ele><time>2026-05-02T06:55:31.401Z</time></trkpt><trkpt lat="46.0572117" lon="12.1413583"><ele>450.0</ele><time>2026-05-02T06:55:32.401Z</time></trkpt><trkpt lat="46.0573517" lon="12.1414867"><ele>450.0</ele><time>2026-05-02T06:55:33.401Z</time></trkpt><trkpt lat="46.0574833" lon="12.1416383"><ele>449.66666666666663</ele><time>2026-05-02T06:55:34.401Z</time></trkpt><trkpt lat="46.0576167" lon="12.141755"><ele>449.3333333333333</ele><time>2026-05-02T06:55:35.4Z</time></trkpt><trkpt lat="46.0577583" lon="12.14184"><ele>449.0</ele><time>2026-05-02T06:55:36.401Z</time></trkpt><trkpt lat="46.0579" lon="12.1419533"><ele>449.0</ele><time>2026-05-02T06:55:37.401Z</time></trkpt><trkpt lat="46.058045" lon="12.142065"><ele>449.0</ele><time>2026-05-02T06:55:38.401Z</time></trkpt><trkpt lat="46.0581917" lon="12.1421883"><ele>449.0</ele><time>2026-05-02T06:55:39.401Z</time></trkpt><trkpt lat="46.05835" lon="12.1423017"><ele>449.66666666666663</ele><time>2026-05-02T06:55:40.4Z</time></trkpt><trkpt lat="46.0585067" lon="12.14241"><ele>450.33333333333337</ele><time>2026-05-02T06:55:41.401Z</time></trkpt><trkpt lat="46.0586533" lon="12.1425317"><ele>451.0</ele><time>2026-05-02T06:55:42.401Z</time></trkpt><trkpt lat="46.0588" lon="12.1426483"><ele>451.0</ele><time>2026-05-02T06:55:43.4Z</time></trkpt><trkpt lat="46.05894" lon="12.1427733"><ele>451.0</ele><time>2026-05-02T06:55:44.401Z</time></trkpt><trkpt lat="46.05907" lon="12.142905"><ele>451.0</ele><time>2026-05-02T06:55:45.4Z</time></trkpt><trkpt lat="46.0591917" lon="12.1430417"><ele>449.75</ele><time>2026-05-02T06:55:46.4Z</time></trkpt><trkpt lat="46.0593133" lon="12.143175"><ele>448.5</ele><time>2026-05-02T06:55:47.4Z</time></trkpt><trkpt lat="46.0594267" lon="12.1433"><ele>447.25</ele><time>2026-05-02T06:55:48.401Z</time></trkpt><trkpt lat="46.0595383" lon="12.1434183"><ele>446.0</ele><time>2026-05-02T06:55:49.4Z</time></trkpt><trkpt lat="46.0596467" lon="12.1435233"><ele>446.0</ele><time>2026-05-02T06:55:50.401Z</time></trkpt><trkpt lat="46.05975" lon="12.1435833"><ele>446.0</ele><time>2026-05-02T06:55:51.401Z</time></trkpt><trkpt lat="46.0598583" lon="12.1436033"><ele>446.0</ele><time>2026-05-02T06:55:52.401Z</time></trkpt><trkpt lat="46.0599783" lon="12.143585"><ele>446.0</ele><time>2026-05-02T06:55:53.401Z</time></trkpt><trkpt lat="46.0601083" lon="12.143535"><ele>442.75</ele><time>2026-05-02T06:55:54.4Z</time></trkpt><trkpt lat="46.060245" lon="12.14349"><ele>439.5</ele><time>2026-05-02T06:55:55.401Z</time></trkpt><trkpt lat="46.0603817" lon="12.1434567"><ele>436.25</ele><time>2026-05-02T06:55:56.401Z</time></trkpt><trkpt lat="46.060515" lon="12.1434183"><ele>433.0</ele><time>2026-05-02T06:55:57.401Z</time></trkpt><trkpt lat="46.06066" lon="12.1433933"><ele>431.75</ele><time>2026-05-02T06:55:58.401Z</time></trkpt><trkpt lat="46.060795" lon="12.1433983"><ele>430.5</ele><time>2026-05-02T06:55:59.4Z</time></trkpt><trkpt lat="46.0609267" lon="12.143425"><ele>429.25</ele><time>2026-05-02T06:56:00.401Z</time></trkpt><trkpt lat="46.0610533" lon="12.1435117"><ele>428.0</ele><time>2026-05-02T06:56:01.4Z</time></trkpt><trkpt lat="46.0612" lon="12.1435967"><ele>428.0</ele><time>2026-05-02T06:56:02.401Z</time></trkpt><trkpt lat="46.06134" lon="12.1436833"><ele>428.0</ele><time>2026-05-02T06:56:03.401Z</time></trkpt><trkpt lat="46.0614733" lon="12.143765"><ele>428.0</ele><time>2026-05-02T06:56:04.401Z</time></trkpt><trkpt lat="46.0615967" lon="12.1438417"><ele>428.0</ele><time>2026-05-02T06:56:05.401Z</time></trkpt><trkpt lat="46.0617233" lon="12.1439267"><ele>427.75</ele><time>2026-05-02T06:56:06.401Z</time></trkpt><trkpt lat="46.0618417" lon="12.1440033"><ele>427.5</ele><time>2026-05-02T06:56:07.401Z</time></trkpt><trkpt lat="46.0619617" lon="12.1440783"><ele>427.25</ele><time>2026-05-02T06:56:08.401Z</time></trkpt><trkpt lat="46.0620733" lon="12.144155"><ele>427.0</ele><time>2026-05-02T06:56:09.401Z</time></trkpt><trkpt lat="46.062175" lon="12.1442267"><ele>427.0</ele><time>2026-05-02T06:56:10.401Z</time></trkpt><trkpt lat="46.06226" lon="12.1442717"><ele>427.00000000000006</ele><time>2026-05-02T06:56:11.401Z</time></trkpt><trkpt lat="46.0623467" lon="12.1442833"><ele>427.00000000000006</ele><time>2026-05-02T06:56:12.401Z</time></trkpt><trkpt lat="46.0624283" lon="12.14425"><ele>427.0</ele><time>2026-05-02T06:56:13.401Z</time></trkpt><trkpt lat="46.0625117" lon="12.1441417"><ele>427.0</ele><time>2026-05-02T06:56:14.401Z</time></trkpt><trkpt lat="46.0626067" lon="12.14399"><ele>423.25</ele><time>2026-05-02T06:56:15.401Z</time></trkpt><trkpt lat="46.06271" lon="12.143835"><ele>419.5</ele><time>2026-05-02T06:56:16.4Z</time></trkpt><trkpt lat="46.0628167" lon="12.143685"><ele>415.75</ele><time>2026-05-02T06:56:17.401Z</time></trkpt><trkpt lat="46.0629233" lon="12.1435383"><ele>412.0</ele><time>2026-05-02T06:56:18.401Z</time></trkpt><trkpt lat="46.0630317" lon="12.1433833"><ele>412.0</ele><time>2026-05-02T06:56:19.401Z</time></trkpt><trkpt lat="46.0631383" lon="12.14324"><ele>412.0</ele><time>2026-05-02T06:56:20.4Z</time></trkpt><trkpt lat="46.063235" lon="12.143105"><ele>412.0</ele><time>2026-05-02T06:56:21.401Z</time></trkpt><trkpt lat="46.063335" lon="12.1429867"><ele>412.0</ele><time>2026-05-02T06:56:22.401Z</time></trkpt><trkpt lat="46.0634567" lon="12.1428933"><ele>410.0</ele><time>2026-05-02T06:56:23.401Z</time></trkpt><trkpt lat="46.0635817" lon="12.142805"><ele>408.0</ele><time>2026-05-02T06:56:24.401Z</time></trkpt><trkpt lat="46.0637283" lon="12.1427367"><ele>406.0</ele><time>2026-05-02T06:56:25.4Z</time></trkpt><trkpt lat="46.06388" lon="12.142705"><ele>404.0</ele><time>2026-05-02T06:56:26.401Z</time></trkpt><trkpt lat="46.0640333" lon="12.142695"><ele>401.5</ele><time>2026-05-02T06:56:27.401Z</time></trkpt><trkpt lat="46.0641817" lon="12.1426867"><ele>399.0</ele><time>2026-05-02T06:56:28.4Z</time></trkpt><trkpt lat="46.0643267" lon="12.1426717"><ele>396.5</ele><time>2026-05-02T06:56:29.401Z</time></trkpt><trkpt lat="46.0644683" lon="12.1426533"><ele>394.0</ele><time>2026-05-02T06:56:30.401Z</time></trkpt><trkpt lat="46.0646233" lon="12.1426433"><ele>394.0</ele><time>2026-05-02T06:56:31.401Z</time></trkpt><trkpt lat="46.0647833" lon="12.1426467"><ele>394.0</ele><time>2026-05-02T06:56:32.401Z</time></trkpt><trkpt lat="46.0649383" lon="12.1426633"><ele>394.0</ele><time>2026-05-02T06:56:33.401Z</time></trkpt><trkpt lat="46.0650867" lon="12.142745"><ele>392.0</ele><time>2026-05-02T06:56:34.4Z</time></trkpt><trkpt lat="46.065215" lon="12.1428583"><ele>390.0</ele><time>2026-05-02T06:56:35.401Z</time></trkpt><trkpt lat="46.0653317" lon="12.142975"><ele>388.0</ele><time>2026-05-02T06:56:36.4Z</time></trkpt><trkpt lat="46.065455" lon="12.1430733"><ele>386.0</ele><time>2026-05-02T06:56:37.401Z</time></trkpt><trkpt lat="46.0655917" lon="12.14314"><ele>386.0</ele><time>2026-05-02T06:56:38.4Z</time></trkpt><trkpt lat="46.0657367" lon="12.1431967"><ele>386.0</ele><time>2026-05-02T06:56:39.401Z</time></trkpt><trkpt lat="46.0658783" lon="12.1432333"><ele>386.0</ele><time>2026-05-02T06:56:40.401Z</time></trkpt><trkpt lat="46.0660117" lon="12.1432617"><ele>386.0</ele><time>2026-05-02T06:56:41.401Z</time></trkpt><trkpt lat="46.066145" lon="12.14327"><ele>385.0</ele><time>2026-05-02T06:56:42.401Z</time></trkpt><trkpt lat="46.0662717" lon="12.1432383"><ele>384.0</ele><time>2026-05-02T06:56:43.401Z</time></trkpt><trkpt lat="46.066395" lon="12.143145"><ele>383.0</ele><time>2026-05-02T06:56:44.401Z</time></trkpt><trkpt lat="46.0665167" lon="12.1430417"><ele>382.0</ele><time>2026-05-02T06:56:45.401Z</time></trkpt><trkpt lat="46.0666367" lon="12.1429383"><ele>380.0</ele><time>2026-05-02T06:56:46.401Z</time></trkpt><trkpt lat="46.0667467" lon="12.142835"><ele>378.0</ele><time>2026-05-02T06:56:47.4Z</time></trkpt><trkpt lat="46.0668533" lon="12.1427417"><ele>376.0</ele><time>2026-05-02T06:56:48.401Z</time></trkpt><trkpt lat="46.066945" lon="12.1426517"><ele>374.0</ele><time>2026-05-02T06:56:49.401Z</time></trkpt><trkpt lat="46.0670417" lon="12.1425717"><ele>374.0</ele><time>2026-05-02T06:56:50.401Z</time></trkpt><trkpt lat="46.0671417" lon="12.14248"><ele>374.0</ele><time>2026-05-02T06:56:51.401Z</time></trkpt><trkpt lat="46.0672633" lon="12.1423717"><ele>374.0</ele><time>2026-05-02T06:56:52.401Z</time></trkpt><trkpt lat="46.0673917" lon="12.14225"><ele>374.0</ele><time>2026-05-02T06:56:53.401Z</time></trkpt><trkpt lat="46.067545" lon="12.14213"><ele>373.0</ele><time>2026-05-02T06:56:54.401Z</time></trkpt><trkpt lat="46.0676983" lon="12.1420017"><ele>372.0</ele><time>2026-05-02T06:56:55.401Z</time></trkpt><trkpt lat="46.06785" lon="12.1418817"><ele>371.0</ele><time>2026-05-02T06:56:56.401Z</time></trkpt><trkpt lat="46.0679967" lon="12.1417617"><ele>371.0</ele><time>2026-05-02T06:56:57.401Z</time></trkpt><trkpt lat="46.06815" lon="12.141645"><ele>371.0</ele><time>2026-05-02T06:56:58.401Z</time></trkpt><trkpt lat="46.06829" lon="12.141525"><ele>371.0</ele><time>2026-05-02T06:56:59.401Z</time></trkpt><trkpt lat="46.0684267" lon="12.1413883"><ele>370.5</ele><time>2026-05-02T06:57:00.401Z</time></trkpt><trkpt lat="46.0685583" lon="12.141275"><ele>370.0</ele><time>2026-05-02T06:57:01.401Z</time></trkpt><trkpt lat="46.06868" lon="12.141165"><ele>369.5</ele><time>2026-05-02T06:57:02.401Z</time></trkpt><trkpt lat="46.0687983" lon="12.14106"><ele>369.0</ele><time>2026-05-02T06:57:03.401Z</time></trkpt><trkpt lat="46.0689133" lon="12.140985"><ele>369.0</ele><time>2026-05-02T06:57:04.401Z</time></trkpt><trkpt lat="46.0690133" lon="12.1409067"><ele>369.0</ele><time>2026-05-02T06:57:05.401Z</time></trkpt><trkpt lat="46.06911" lon="12.1408267"><ele>369.0</ele><time>2026-05-02T06:57:06.401Z</time></trkpt><trkpt lat="46.0691933" lon="12.14075"><ele>369.0</ele><time>2026-05-02T06:57:07.401Z</time></trkpt><trkpt lat="46.0692717" lon="12.1406783"><ele>369.0</ele><time>2026-05-02T06:57:08.401Z</time></trkpt><trkpt lat="46.0693517" lon="12.1406017"><ele>369.0</ele><time>2026-05-02T06:57:09.401Z</time></trkpt><trkpt lat="46.0694333" lon="12.140515"><ele>369.0</ele><time>2026-05-02T06:57:10.401Z</time></trkpt><trkpt lat="46.0695033" lon="12.1404117"><ele>369.0</ele><time>2026-05-02T06:57:11.4Z</time></trkpt><trkpt lat="46.0695583" lon="12.140295"><ele>369.0</ele><time>2026-05-02T06:57:12.401Z</time></trkpt><trkpt lat="46.0695833" lon="12.1401483"><ele>369.0</ele><time>2026-05-02T06:57:13.401Z</time></trkpt><trkpt lat="46.0695983" lon="12.1399967"><ele>369.0</ele><time>2026-05-02T06:57:14.401Z</time></trkpt><trkpt lat="46.06961" lon="12.139845"><ele>369.0</ele><time>2026-05-02T06:57:15.4Z</time></trkpt><trkpt lat="46.0696167" lon="12.1396933"><ele>369.0</ele><time>2026-05-02T06:57:16.401Z</time></trkpt><trkpt lat="46.0696283" lon="12.139545"><ele>369.0</ele><time>2026-05-02T06:57:17.401Z</time></trkpt><trkpt lat="46.069645" lon="12.139405"><ele>369.0</ele><time>2026-05-02T06:57:18.401Z</time></trkpt><trkpt lat="46.069665" lon="12.1392783"><ele>369.0</ele><time>2026-05-02T06:57:19.401Z</time></trkpt><trkpt lat="46.069705" lon="12.139165"><ele>369.0</ele><time>2026-05-02T06:57:20.4Z</time></trkpt><trkpt lat="46.06977" lon="12.1390767"><ele>369.0</ele><time>2026-05-02T06:57:21.401Z</time></trkpt><trkpt lat="46.0698583" lon="12.139"><ele>369.0</ele><time>2026-05-02T06:57:22.402Z</time></trkpt><trkpt lat="46.069965" lon="12.1389417"><ele>369.0</ele><time>2026-05-02T06:57:23.402Z</time></trkpt><trkpt lat="46.070075" lon="12.13888"><ele>368.0</ele><time>2026-05-02T06:57:24.402Z</time></trkpt><trkpt lat="46.07021" lon="12.1387983"><ele>367.0</ele><time>2026-05-02T06:57:25.402Z</time></trkpt><trkpt lat="46.0703683" lon="12.138715"><ele>366.0</ele><time>2026-05-02T06:57:26.402Z</time></trkpt><trkpt lat="46.070535" lon="12.1386267"><ele>366.0</ele><time>2026-05-02T06:57:27.401Z</time></trkpt><trkpt lat="46.0707033" lon="12.1385117"><ele>366.0</ele><time>2026-05-02T06:57:28.401Z</time></trkpt><trkpt lat="46.0708533" lon="12.1383667"><ele>366.0</ele><time>2026-05-02T06:57:29.402Z</time></trkpt><trkpt lat="46.071005" lon="12.1382217"><ele>366.0</ele><time>2026-05-02T06:57:30.401Z</time></trkpt><trkpt lat="46.0711417" lon="12.1380517"><ele>366.0</ele><time>2026-05-02T06:57:31.402Z</time></trkpt><trkpt lat="46.071275" lon="12.1378783"><ele>366.0</ele><time>2026-05-02T06:57:32.401Z</time></trkpt><trkpt lat="46.0714083" lon="12.137725"><ele>366.0</ele><time>2026-05-02T06:57:33.402Z</time></trkpt><trkpt lat="46.07155" lon="12.137595"><ele>366.0</ele><time>2026-05-02T06:57:34.402Z</time></trkpt><trkpt lat="46.0716967" lon="12.1374933"><ele>366.0</ele><time>2026-05-02T06:57:35.402Z</time></trkpt><trkpt lat="46.071825" lon="12.1373933"><ele>366.75</ele><time>2026-05-02T06:57:36.401Z</time></trkpt><trkpt lat="46.071935" lon="12.1372933"><ele>367.5</ele><time>2026-05-02T06:57:37.402Z</time></trkpt><trkpt lat="46.0720283" lon="12.1371683"><ele>368.25</ele><time>2026-05-02T06:57:38.402Z</time></trkpt><trkpt lat="46.0720983" lon="12.1370167"><ele>369.0</ele><time>2026-05-02T06:57:39.402Z</time></trkpt><trkpt lat="46.07216" lon="12.13683"><ele>369.0</ele><time>2026-05-02T06:57:40.402Z</time></trkpt><trkpt lat="46.072225" lon="12.13664"><ele>369.0</ele><time>2026-05-02T06:57:41.401Z</time></trkpt><trkpt lat="46.0722917" lon="12.1364483"><ele>369.0</ele><time>2026-05-02T06:57:42.402Z</time></trkpt><trkpt lat="46.0723467" lon="12.13626"><ele>369.0</ele><time>2026-05-02T06:57:43.401Z</time></trkpt><trkpt lat="46.0723917" lon="12.1360767"><ele>369.5</ele><time>2026-05-02T06:57:44.401Z</time></trkpt><trkpt lat="46.0724283" lon="12.1359033"><ele>370.0</ele><time>2026-05-02T06:57:45.402Z</time></trkpt><trkpt lat="46.0724683" lon="12.1357417"><ele>370.5</ele><time>2026-05-02T06:57:46.402Z</time></trkpt><trkpt lat="46.0725083" lon="12.1355767"><ele>371.0</ele><time>2026-05-02T06:57:47.402Z</time></trkpt><trkpt lat="46.072555" lon="12.1354217"><ele>369.5</ele><time>2026-05-02T06:57:48.402Z</time></trkpt><trkpt lat="46.0726017" lon="12.13527"><ele>368.0</ele><time>2026-05-02T06:57:49.402Z</time></trkpt><trkpt lat="46.0726533" lon="12.1351167"><ele>366.5</ele><time>2026-05-02T06:57:50.402Z</time></trkpt><trkpt lat="46.0727067" lon="12.1349517"><ele>365.0</ele><time>2026-05-02T06:57:51.402Z</time></trkpt><trkpt lat="46.072765" lon="12.1347867"><ele>364.5</ele><time>2026-05-02T06:57:52.401Z</time></trkpt><trkpt lat="46.072815" lon="12.1346183"><ele>364.0</ele><time>2026-05-02T06:57:53.402Z</time></trkpt><trkpt lat="46.072855" lon="12.134465"><ele>363.5</ele><time>2026-05-02T06:57:54.402Z</time></trkpt><trkpt lat="46.07289" lon="12.1343083"><ele>363.0</ele><time>2026-05-02T06:57:55.401Z</time></trkpt><trkpt lat="46.0729233" lon="12.134145"><ele>362.4</ele><time>2026-05-02T06:57:56.402Z</time></trkpt><trkpt lat="46.07296" lon="12.1339967"><ele>361.79999999999995</ele><time>2026-05-02T06:57:57.402Z</time></trkpt><trkpt lat="46.0730017" lon="12.1338683"><ele>361.2</ele><time>2026-05-02T06:57:58.402Z</time></trkpt><trkpt lat="46.073055" lon="12.133755"><ele>360.6</ele><time>2026-05-02T06:57:59.402Z</time></trkpt><trkpt lat="46.073115" lon="12.1336633"><ele>360.0</ele><time>2026-05-02T06:58:00.401Z</time></trkpt><trkpt lat="46.073195" lon="12.13359"><ele>360.0</ele><time>2026-05-02T06:58:01.402Z</time></trkpt><trkpt lat="46.0732717" lon="12.133515"><ele>360.0</ele><time>2026-05-02T06:58:02.402Z</time></trkpt><trkpt lat="46.0733417" lon="12.13343"><ele>360.0</ele><time>2026-05-02T06:58:03.402Z</time></trkpt><trkpt lat="46.0734033" lon="12.1333383"><ele>360.0</ele><time>2026-05-02T06:58:04.401Z</time></trkpt><trkpt lat="46.0734567" lon="12.13325"><ele>360.0</ele><time>2026-05-02T06:58:05.402Z</time></trkpt><trkpt lat="46.0735083" lon="12.1331667"><ele>360.0</ele><time>2026-05-02T06:58:06.402Z</time></trkpt><trkpt lat="46.0735517" lon="12.1330983"><ele>358.0</ele><time>2026-05-02T06:58:07.402Z</time></trkpt><trkpt lat="46.0736283" lon="12.1329417"><ele>356.0</ele><time>2026-05-02T06:58:09.402Z</time></trkpt><trkpt lat="46.0736733" lon="12.1328767"><ele>354.0</ele><time>2026-05-02T06:58:10.402Z</time></trkpt><trkpt lat="46.073755" lon="12.1327917"><ele>352.0</ele><time>2026-05-02T06:58:12.401Z</time></trkpt><trkpt lat="46.0738367" lon="12.13276"><ele>350.0</ele><time>2026-05-02T06:58:18.402Z</time></trkpt><trkpt lat="46.0739483" lon="12.1329"><ele>350.0</ele><time>2026-05-02T06:58:20.402Z</time></trkpt><trkpt lat="46.07402" lon="12.13303"><ele>350.0</ele><time>2026-05-02T06:58:21.402Z</time></trkpt><trkpt lat="46.0740917" lon="12.1331667"><ele>350.0</ele><time>2026-05-02T06:58:22.402Z</time></trkpt><trkpt lat="46.07417" lon="12.133315"><ele>350.0</ele><time>2026-05-02T06:58:23.401Z</time></trkpt><trkpt lat="46.0742383" lon="12.1334533"><ele>349.2</ele><time>2026-05-02T06:58:24.402Z</time></trkpt><trkpt lat="46.0743133" lon="12.133575"><ele>348.4</ele><time>2026-05-02T06:58:25.402Z</time></trkpt><trkpt lat="46.0743817" lon="12.133685"><ele>347.6</ele><time>2026-05-02T06:58:26.402Z</time></trkpt><trkpt lat="46.0744483" lon="12.1337833"><ele>346.8</ele><time>2026-05-02T06:58:27.401Z</time></trkpt><trkpt lat="46.0745133" lon="12.1338667"><ele>346.0</ele><time>2026-05-02T06:58:28.401Z</time></trkpt><trkpt lat="46.074585" lon="12.133945"><ele>346.0</ele><time>2026-05-02T06:58:29.401Z</time></trkpt><trkpt lat="46.0746633" lon="12.1339983"><ele>346.0</ele><time>2026-05-02T06:58:30.402Z</time></trkpt><trkpt lat="46.0747417" lon="12.134055"><ele>346.0</ele><time>2026-05-02T06:58:31.402Z</time></trkpt><trkpt lat="46.07483" lon="12.1341"><ele>346.0</ele><time>2026-05-02T06:58:32.401Z</time></trkpt><trkpt lat="46.0749517" lon="12.134145"><ele>346.0</ele><time>2026-05-02T06:58:33.402Z</time></trkpt><trkpt lat="46.0750917" lon="12.1341867"><ele>344.66666666666663</ele><time>2026-05-02T06:58:34.402Z</time></trkpt><trkpt lat="46.075245" lon="12.134255"><ele>343.3333333333333</ele><time>2026-05-02T06:58:35.401Z</time></trkpt><trkpt lat="46.075405" lon="12.13432"><ele>342.0</ele><time>2026-05-02T06:58:36.401Z</time></trkpt><trkpt lat="46.0755517" lon="12.13437"><ele>342.0</ele><time>2026-05-02T06:58:37.401Z</time></trkpt><trkpt lat="46.0756967" lon="12.134415"><ele>342.0</ele><time>2026-05-02T06:58:38.401Z</time></trkpt><trkpt lat="46.0758317" lon="12.134455"><ele>342.0</ele><time>2026-05-02T06:58:39.402Z</time></trkpt><trkpt lat="46.07595" lon="12.134505"><ele>342.0</ele><time>2026-05-02T06:58:40.401Z</time></trkpt><trkpt lat="46.0760617" lon="12.134575"><ele>340.25</ele><time>2026-05-02T06:58:41.401Z</time></trkpt><trkpt lat="46.0761767" lon="12.1346717"><ele>338.5</ele><time>2026-05-02T06:58:42.401Z</time></trkpt><trkpt lat="46.0762933" lon="12.1347867"><ele>336.75</ele><time>2026-05-02T06:58:43.401Z</time></trkpt><trkpt lat="46.0763983" lon="12.1348933"><ele>335.0</ele><time>2026-05-02T06:58:44.402Z</time></trkpt><trkpt lat="46.07649" lon="12.1349933"><ele>335.0</ele><time>2026-05-02T06:58:45.401Z</time></trkpt><trkpt lat="46.0765767" lon="12.135085"><ele>335.0</ele><time>2026-05-02T06:58:46.401Z</time></trkpt><trkpt lat="46.0766617" lon="12.1351767"><ele>335.0</ele><time>2026-05-02T06:58:47.402Z</time></trkpt><trkpt lat="46.0767467" lon="12.1352667"><ele>335.0</ele><time>2026-05-02T06:58:48.402Z</time></trkpt><trkpt lat="46.0768333" lon="12.1353583"><ele>335.0</ele><time>2026-05-02T06:58:49.402Z</time></trkpt><trkpt lat="46.0769183" lon="12.1354517"><ele>334.4</ele><time>2026-05-02T06:58:50.402Z</time></trkpt><trkpt lat="46.077005" lon="12.13555"><ele>333.8</ele><time>2026-05-02T06:58:51.402Z</time></trkpt><trkpt lat="46.0770883" lon="12.1356417"><ele>333.20000000000005</ele><time>2026-05-02T06:58:52.402Z</time></trkpt><trkpt lat="46.0771717" lon="12.1357333"><ele>332.6</ele><time>2026-05-02T06:58:53.402Z</time></trkpt><trkpt lat="46.0772533" lon="12.1358217"><ele>332.0</ele><time>2026-05-02T06:58:54.402Z</time></trkpt><trkpt lat="46.077335" lon="12.135905"><ele>332.0</ele><time>2026-05-02T06:58:55.402Z</time></trkpt><trkpt lat="46.0774117" lon="12.1359833"><ele>332.0</ele><time>2026-05-02T06:58:56.402Z</time></trkpt><trkpt lat="46.077485" lon="12.1360567"><ele>332.0</ele><time>2026-05-02T06:58:57.402Z</time></trkpt><trkpt lat="46.0775617" lon="12.1361333"><ele>332.0</ele><time>2026-05-02T06:58:58.402Z</time></trkpt><trkpt lat="46.0776383" lon="12.1362117"><ele>332.0</ele><time>2026-05-02T06:58:59.401Z</time></trkpt><trkpt lat="46.0777117" lon="12.1363"><ele>332.0</ele><time>2026-05-02T06:59:00.402Z</time></trkpt><trkpt lat="46.077785" lon="12.1363833"><ele>332.0</ele><time>2026-05-02T06:59:01.402Z</time></trkpt><trkpt lat="46.077855" lon="12.1364617"><ele>332.0</ele><time>2026-05-02T06:59:02.402Z</time></trkpt><trkpt lat="46.0779233" lon="12.1365417"><ele>332.0</ele><time>2026-05-02T06:59:03.402Z</time></trkpt><trkpt lat="46.077985" lon="12.1366167"><ele>332.0</ele><time>2026-05-02T06:59:04.401Z</time></trkpt><trkpt lat="46.07804" lon="12.1366867"><ele>332.0</ele><time>2026-05-02T06:59:05.401Z</time></trkpt><trkpt lat="46.07812" lon="12.136795"><ele>332.1666666666667</ele><time>2026-05-02T06:59:07.402Z</time></trkpt><trkpt lat="46.0781783" lon="12.13692"><ele>332.33333333333337</ele><time>2026-05-02T06:59:09.402Z</time></trkpt><trkpt lat="46.0782583" lon="12.13699"><ele>332.5</ele><time>2026-05-02T06:59:11.402Z</time></trkpt><trkpt lat="46.078365" lon="12.1369517"><ele>332.6666666666667</ele><time>2026-05-02T06:59:13.402Z</time></trkpt><trkpt lat="46.0784183" lon="12.1368967"><ele>332.8333333333333</ele><time>2026-05-02T06:59:14.401Z</time></trkpt><trkpt lat="46.0784817" lon="12.1368433"><ele>333.0</ele><time>2026-05-02T06:59:15.402Z</time></trkpt><trkpt lat="46.0785567" lon="12.1368"><ele>332.59999999999997</ele><time>2026-05-02T06:59:16.401Z</time></trkpt><trkpt lat="46.0786417" lon="12.1367567"><ele>332.2</ele><time>2026-05-02T06:59:17.402Z</time></trkpt><trkpt lat="46.0787417" lon="12.1367283"><ele>331.8</ele><time>2026-05-02T06:59:18.402Z</time></trkpt><trkpt lat="46.078835" lon="12.136685"><ele>331.4</ele><time>2026-05-02T06:59:19.402Z</time></trkpt><trkpt lat="46.0789367" lon="12.1366417"><ele>331.0</ele><time>2026-05-02T06:59:20.402Z</time></trkpt><trkpt lat="46.0790583" lon="12.136595"><ele>330.0</ele><time>2026-05-02T06:59:21.402Z</time></trkpt><trkpt lat="46.0792" lon="12.136555"><ele>329.0</ele><time>2026-05-02T06:59:22.402Z</time></trkpt><trkpt lat="46.0793433" lon="12.1365017"><ele>328.0</ele><time>2026-05-02T06:59:23.402Z</time></trkpt><trkpt lat="46.079505" lon="12.1364517"><ele>327.66666666666663</ele><time>2026-05-02T06:59:24.402Z</time></trkpt><trkpt lat="46.0796983" lon="12.1363717"><ele>327.3333333333333</ele><time>2026-05-02T06:59:25.402Z</time></trkpt><trkpt lat="46.0799167" lon="12.136305"><ele>327.0</ele><time>2026-05-02T06:59:26.402Z</time></trkpt><trkpt lat="46.0801483" lon="12.1362533"><ele>326.3333333333333</ele><time>2026-05-02T06:59:27.401Z</time></trkpt><trkpt lat="46.08037" lon="12.1361933"><ele>325.66666666666663</ele><time>2026-05-02T06:59:28.402Z</time></trkpt><trkpt lat="46.0805867" lon="12.136125"><ele>325.0</ele><time>2026-05-02T06:59:29.402Z</time></trkpt><trkpt lat="46.0808" lon="12.1360567"><ele>325.0</ele><time>2026-05-02T06:59:30.402Z</time></trkpt><trkpt lat="46.0810033" lon="12.135985"><ele>325.0</ele><time>2026-05-02T06:59:31.402Z</time></trkpt><trkpt lat="46.081205" lon="12.13591"><ele>325.0</ele><time>2026-05-02T06:59:32.402Z</time></trkpt><trkpt lat="46.0813933" lon="12.13582"><ele>324.0</ele><time>2026-05-02T06:59:33.401Z</time></trkpt><trkpt lat="46.0815667" lon="12.135715"><ele>323.0</ele><time>2026-05-02T06:59:34.402Z</time></trkpt><trkpt lat="46.081735" lon="12.135595"><ele>322.0</ele><time>2026-05-02T06:59:35.402Z</time></trkpt><trkpt lat="46.0818917" lon="12.1354733"><ele>321.3333333333333</ele><time>2026-05-02T06:59:36.402Z</time></trkpt><trkpt lat="46.0820383" lon="12.135365"><ele>320.6666666666667</ele><time>2026-05-02T06:59:37.402Z</time></trkpt><trkpt lat="46.0821767" lon="12.1352433"><ele>320.0</ele><time>2026-05-02T06:59:38.402Z</time></trkpt><trkpt lat="46.0823117" lon="12.1351233"><ele>319.6666666666667</ele><time>2026-05-02T06:59:39.402Z</time></trkpt><trkpt lat="46.0824467" lon="12.1350167"><ele>319.3333333333333</ele><time>2026-05-02T06:59:40.401Z</time></trkpt><trkpt lat="46.082585" lon="12.1349017"><ele>319.0</ele><time>2026-05-02T06:59:41.402Z</time></trkpt><trkpt lat="46.0827233" lon="12.134775"><ele>318.66666666666663</ele><time>2026-05-02T06:59:42.402Z</time></trkpt><trkpt lat="46.0828733" lon="12.1346517"><ele>318.3333333333333</ele><time>2026-05-02T06:59:43.402Z</time></trkpt><trkpt lat="46.0830283" lon="12.1345283"><ele>318.0</ele><time>2026-05-02T06:59:44.402Z</time></trkpt><trkpt lat="46.0831817" lon="12.1344017"><ele>317.6666666666667</ele><time>2026-05-02T06:59:45.402Z</time></trkpt><trkpt lat="46.08334" lon="12.13427"><ele>317.33333333333337</ele><time>2026-05-02T06:59:46.402Z</time></trkpt><trkpt lat="46.0835" lon="12.1341217"><ele>317.0</ele><time>2026-05-02T06:59:47.402Z</time></trkpt><trkpt lat="46.0836633" lon="12.133985"><ele>316.6666666666667</ele><time>2026-05-02T06:59:48.402Z</time></trkpt><trkpt lat="46.0838283" lon="12.133845"><ele>316.3333333333333</ele><time>2026-05-02T06:59:49.401Z</time></trkpt><trkpt lat="46.0839967" lon="12.1337"><ele>316.0</ele><time>2026-05-02T06:59:50.402Z</time></trkpt><trkpt lat="46.0841667" lon="12.1335483"><ele>316.0</ele><time>2026-05-02T06:59:51.402Z</time></trkpt><trkpt lat="46.08434" lon="12.1333983"><ele>316.0</ele><time>2026-05-02T06:59:52.402Z</time></trkpt><trkpt lat="46.0845083" lon="12.133265"><ele>316.0</ele><time>2026-05-02T06:59:53.401Z</time></trkpt><trkpt lat="46.08467" lon="12.1331333"><ele>315.66666666666663</ele><time>2026-05-02T06:59:54.401Z</time></trkpt><trkpt lat="46.0848267" lon="12.1330067"><ele>315.3333333333333</ele><time>2026-05-02T06:59:55.402Z</time></trkpt><trkpt lat="46.0849833" lon="12.1328717"><ele>315.0</ele><time>2026-05-02T06:59:56.402Z</time></trkpt><trkpt lat="46.0851417" lon="12.1327483"><ele>314.6666666666667</ele><time>2026-05-02T06:59:57.402Z</time></trkpt><trkpt lat="46.0853033" lon="12.1326267"><ele>314.33333333333337</ele><time>2026-05-02T06:59:58.402Z</time></trkpt><trkpt lat="46.0854617" lon="12.132495"><ele>314.0</ele><time>2026-05-02T06:59:59.402Z</time></trkpt><trkpt lat="46.0856183" lon="12.1323583"><ele>312.6666666666667</ele><time>2026-05-02T07:00:00.402Z</time></trkpt><trkpt lat="46.0857833" lon="12.1322233"><ele>311.3333333333333</ele><time>2026-05-02T07:00:01.402Z</time></trkpt><trkpt lat="46.085945" lon="12.132085"><ele>310.0</ele><time>2026-05-02T07:00:02.402Z</time></trkpt><trkpt lat="46.0861033" lon="12.1319433"><ele>310.0</ele><time>2026-05-02T07:00:03.401Z</time></trkpt><trkpt lat="46.0862583" lon="12.1318167"><ele>310.0</ele><time>2026-05-02T07:00:04.402Z</time></trkpt><trkpt lat="46.086405" lon="12.1316917"><ele>310.0</ele><time>2026-05-02T07:00:05.402Z</time></trkpt><trkpt lat="46.0865533" lon="12.1315767"><ele>310.0</ele><time>2026-05-02T07:00:06.402Z</time></trkpt><trkpt lat="46.0866917" lon="12.1314583"><ele>310.0</ele><time>2026-05-02T07:00:07.402Z</time></trkpt><trkpt lat="46.08684" lon="12.1313433"><ele>310.0</ele><time>2026-05-02T07:00:08.402Z</time></trkpt><trkpt lat="46.086985" lon="12.1312217"><ele>310.0</ele><time>2026-05-02T07:00:09.402Z</time></trkpt><trkpt lat="46.0871283" lon="12.1310967"><ele>310.0</ele><time>2026-05-02T07:00:10.402Z</time></trkpt><trkpt lat="46.0872767" lon="12.1309717"><ele>310.0</ele><time>2026-05-02T07:00:11.402Z</time></trkpt><trkpt lat="46.08743" lon="12.13084"><ele>308.3333333333333</ele><time>2026-05-02T07:00:12.402Z</time></trkpt><trkpt lat="46.08758" lon="12.13071"><ele>306.6666666666667</ele><time>2026-05-02T07:00:13.402Z</time></trkpt><trkpt lat="46.0877333" lon="12.13058"><ele>305.0</ele><time>2026-05-02T07:00:14.402Z</time></trkpt><trkpt lat="46.0878883" lon="12.1304617"><ele>305.0</ele><time>2026-05-02T07:00:15.401Z</time></trkpt><trkpt lat="46.0880417" lon="12.1303367"><ele>305.0</ele><time>2026-05-02T07:00:16.402Z</time></trkpt><trkpt lat="46.0881967" lon="12.1302067"><ele>305.0</ele><time>2026-05-02T07:00:17.402Z</time></trkpt><trkpt lat="46.08835" lon="12.1300817"><ele>304.33333333333337</ele><time>2026-05-02T07:00:18.402Z</time></trkpt><trkpt lat="46.0884967" lon="12.129945"><ele>303.6666666666667</ele><time>2026-05-02T07:00:19.401Z</time></trkpt><trkpt lat="46.0886483" lon="12.129815"><ele>303.0</ele><time>2026-05-02T07:00:20.402Z</time></trkpt><trkpt lat="46.0888017" lon="12.12968"><ele>303.0</ele><time>2026-05-02T07:00:21.402Z</time></trkpt><trkpt lat="46.0889467" lon="12.12954"><ele>303.0</ele><time>2026-05-02T07:00:22.402Z</time></trkpt><trkpt lat="46.08909" lon="12.1294033"><ele>303.0</ele><time>2026-05-02T07:00:23.402Z</time></trkpt><trkpt lat="46.0892267" lon="12.1292617"><ele>303.0</ele><time>2026-05-02T07:00:24.402Z</time></trkpt><trkpt lat="46.0893633" lon="12.12911"><ele>303.0</ele><time>2026-05-02T07:00:25.401Z</time></trkpt><trkpt lat="46.089495" lon="12.1289433"><ele>303.0</ele><time>2026-05-02T07:00:26.401Z</time></trkpt><trkpt lat="46.0896233" lon="12.128775"><ele>303.0</ele><time>2026-05-02T07:00:27.402Z</time></trkpt><trkpt lat="46.0897483" lon="12.1285917"><ele>303.0</ele><time>2026-05-02T07:00:28.402Z</time></trkpt><trkpt lat="46.0898683" lon="12.1284117"><ele>303.0</ele><time>2026-05-02T07:00:29.401Z</time></trkpt><trkpt lat="46.0899833" lon="12.128245"><ele>301.3333333333333</ele><time>2026-05-02T07:00:30.402Z</time></trkpt><trkpt lat="46.090085" lon="12.12805"><ele>299.66666666666663</ele><time>2026-05-02T07:00:31.402Z</time></trkpt><trkpt lat="46.0901783" lon="12.127855"><ele>298.0</ele><time>2026-05-02T07:00:32.401Z</time></trkpt><trkpt lat="46.0902717" lon="12.12765"><ele>298.0</ele><time>2026-05-02T07:00:33.402Z</time></trkpt><trkpt lat="46.0903733" lon="12.1274417"><ele>298.0</ele><time>2026-05-02T07:00:34.402Z</time></trkpt><trkpt lat="46.0904733" lon="12.1272283"><ele>298.0</ele><time>2026-05-02T07:00:35.402Z</time></trkpt><trkpt lat="46.0905733" lon="12.12701"><ele>296.66666666666663</ele><time>2026-05-02T07:00:36.402Z</time></trkpt><trkpt lat="46.09066" lon="12.1268033"><ele>295.3333333333333</ele><time>2026-05-02T07:00:37.402Z</time></trkpt><trkpt lat="46.0907517" lon="12.1265933"><ele>294.0</ele><time>2026-05-02T07:00:38.402Z</time></trkpt><trkpt lat="46.090845" lon="12.1263817"><ele>293.0</ele><time>2026-05-02T07:00:39.402Z</time></trkpt><trkpt lat="46.090935" lon="12.1261683"><ele>292.0</ele><time>2026-05-02T07:00:40.402Z</time></trkpt><trkpt lat="46.0910267" lon="12.1259617"><ele>291.0</ele><time>2026-05-02T07:00:41.402Z</time></trkpt><trkpt lat="46.09112" lon="12.1257483"><ele>290.6666666666667</ele><time>2026-05-02T07:00:42.402Z</time></trkpt><trkpt lat="46.0912133" lon="12.125535"><ele>290.33333333333337</ele><time>2026-05-02T07:00:43.402Z</time></trkpt><trkpt lat="46.0913033" lon="12.1253167"><ele>290.0</ele><time>2026-05-02T07:00:44.402Z</time></trkpt><trkpt lat="46.0914033" lon="12.1250933"><ele>290.6666666666667</ele><time>2026-05-02T07:00:45.402Z</time></trkpt><trkpt lat="46.0915083" lon="12.1248633"><ele>291.3333333333333</ele><time>2026-05-02T07:00:46.402Z</time></trkpt><trkpt lat="46.0916117" lon="12.1246383"><ele>292.0</ele><time>2026-05-02T07:00:47.402Z</time></trkpt><trkpt lat="46.0917183" lon="12.124415"><ele>293.0</ele><time>2026-05-02T07:00:48.402Z</time></trkpt><trkpt lat="46.0918233" lon="12.12419"><ele>294.0</ele><time>2026-05-02T07:00:49.402Z</time></trkpt><trkpt lat="46.0919317" lon="12.123965"><ele>295.0</ele><time>2026-05-02T07:00:50.402Z</time></trkpt><trkpt lat="46.092045" lon="12.1237467"><ele>295.0</ele><time>2026-05-02T07:00:51.402Z</time></trkpt><trkpt lat="46.0921633" lon="12.1235417"><ele>295.0</ele><time>2026-05-02T07:00:52.402Z</time></trkpt><trkpt lat="46.0923" lon="12.12335"><ele>295.0</ele><time>2026-05-02T07:00:53.402Z</time></trkpt><trkpt lat="46.0924317" lon="12.123165"><ele>298.66666666666663</ele><time>2026-05-02T07:00:54.402Z</time></trkpt><trkpt lat="46.092565" lon="12.1229867"><ele>302.3333333333333</ele><time>2026-05-02T07:00:55.401Z</time></trkpt><trkpt lat="46.0926767" lon="12.1227817"><ele>306.0</ele><time>2026-05-02T07:00:56.401Z</time></trkpt><trkpt lat="46.0927733" lon="12.1225533"><ele>305.6666666666667</ele><time>2026-05-02T07:00:57.402Z</time></trkpt><trkpt lat="46.0928533" lon="12.122305"><ele>305.33333333333337</ele><time>2026-05-02T07:00:58.402Z</time></trkpt><trkpt lat="46.09291" lon="12.122035"><ele>305.0</ele><time>2026-05-02T07:00:59.402Z</time></trkpt><trkpt lat="46.0929517" lon="12.1217633"><ele>305.33333333333337</ele><time>2026-05-02T07:01:00.402Z</time></trkpt><trkpt lat="46.0929967" lon="12.1214967"><ele>305.6666666666667</ele><time>2026-05-02T07:01:01.402Z</time></trkpt><trkpt lat="46.093035" lon="12.12123"><ele>306.0</ele><time>2026-05-02T07:01:02.402Z</time></trkpt><trkpt lat="46.0930683" lon="12.12096"><ele>305.3333333333333</ele><time>2026-05-02T07:01:03.402Z</time></trkpt><trkpt lat="46.09311" lon="12.1206867"><ele>304.66666666666663</ele><time>2026-05-02T07:01:04.401Z</time></trkpt><trkpt lat="46.0931617" lon="12.1204217"><ele>304.0</ele><time>2026-05-02T07:01:05.402Z</time></trkpt><trkpt lat="46.093215" lon="12.1201533"><ele>308.66666666666663</ele><time>2026-05-02T07:01:06.402Z</time></trkpt><trkpt lat="46.0932867" lon="12.1198917"><ele>313.3333333333333</ele><time>2026-05-02T07:01:07.402Z</time></trkpt><trkpt lat="46.09336" lon="12.1196283"><ele>318.0</ele><time>2026-05-02T07:01:08.402Z</time></trkpt><trkpt lat="46.0934333" lon="12.1193683"><ele>318.0</ele><time>2026-05-02T07:01:09.402Z</time></trkpt><trkpt lat="46.0935233" lon="12.1191017"><ele>318.0</ele><time>2026-05-02T07:01:10.401Z</time></trkpt><trkpt lat="46.0936117" lon="12.1188467"><ele>318.0</ele><time>2026-05-02T07:01:11.402Z</time></trkpt><trkpt lat="46.0936967" lon="12.1185983"><ele>317.3333333333333</ele><time>2026-05-02T07:01:12.401Z</time></trkpt><trkpt lat="46.0937883" lon="12.11834"><ele>316.66666666666663</ele><time>2026-05-02T07:01:13.402Z</time></trkpt><trkpt lat="46.0938683" lon="12.1180933"><ele>316.0</ele><time>2026-05-02T07:01:14.402Z</time></trkpt><trkpt lat="46.093945" lon="12.1178233"><ele>315.0</ele><time>2026-05-02T07:01:15.401Z</time></trkpt><trkpt lat="46.094015" lon="12.117545"><ele>314.0</ele><time>2026-05-02T07:01:16.402Z</time></trkpt><trkpt lat="46.0940817" lon="12.1172533"><ele>313.0</ele><time>2026-05-02T07:01:17.402Z</time></trkpt><trkpt lat="46.0941333" lon="12.1169683"><ele>313.0</ele><time>2026-05-02T07:01:18.402Z</time></trkpt><trkpt lat="46.0941683" lon="12.11668"><ele>313.0</ele><time>2026-05-02T07:01:19.402Z</time></trkpt><trkpt lat="46.0941883" lon="12.116385"><ele>313.0</ele><time>2026-05-02T07:01:20.402Z</time></trkpt><trkpt lat="46.0941967" lon="12.1161017"><ele>312.3333333333333</ele><time>2026-05-02T07:01:21.402Z</time></trkpt><trkpt lat="46.0942" lon="12.115805"><ele>311.6666666666667</ele><time>2026-05-02T07:01:22.401Z</time></trkpt><trkpt lat="46.09419" lon="12.11551"><ele>311.0</ele><time>2026-05-02T07:01:23.402Z</time></trkpt><trkpt lat="46.0941733" lon="12.1152133"><ele>310.33333333333337</ele><time>2026-05-02T07:01:24.402Z</time></trkpt><trkpt lat="46.0941633" lon="12.11492"><ele>309.6666666666667</ele><time>2026-05-02T07:01:25.402Z</time></trkpt><trkpt lat="46.0941483" lon="12.1146183"><ele>309.0</ele><time>2026-05-02T07:01:26.402Z</time></trkpt><trkpt lat="46.0941383" lon="12.1143217"><ele>308.0</ele><time>2026-05-02T07:01:27.402Z</time></trkpt><trkpt lat="46.0941283" lon="12.1140233"><ele>307.0</ele><time>2026-05-02T07:01:28.401Z</time></trkpt><trkpt lat="46.0941133" lon="12.1137233"><ele>306.0</ele><time>2026-05-02T07:01:29.402Z</time></trkpt><trkpt lat="46.0941017" lon="12.113425"><ele>305.6666666666667</ele><time>2026-05-02T07:01:30.402Z</time></trkpt><trkpt lat="46.09409" lon="12.1131317"><ele>305.33333333333337</ele><time>2026-05-02T07:01:31.402Z</time></trkpt><trkpt lat="46.0940867" lon="12.1128367"><ele>305.0</ele><time>2026-05-02T07:01:32.402Z</time></trkpt><trkpt lat="46.0940767" lon="12.112545"><ele>301.6666666666667</ele><time>2026-05-02T07:01:33.402Z</time></trkpt><trkpt lat="46.0940667" lon="12.1122433"><ele>298.3333333333333</ele><time>2026-05-02T07:01:34.402Z</time></trkpt><trkpt lat="46.0940633" lon="12.1119483"><ele>295.0</ele><time>2026-05-02T07:01:35.401Z</time></trkpt><trkpt lat="46.0940783" lon="12.111645"><ele>296.0</ele><time>2026-05-02T07:01:36.401Z</time></trkpt><trkpt lat="46.0941017" lon="12.11135"><ele>297.0</ele><time>2026-05-02T07:01:37.402Z</time></trkpt><trkpt lat="46.0941367" lon="12.111055"><ele>298.0</ele><time>2026-05-02T07:01:38.402Z</time></trkpt><trkpt lat="46.09418" lon="12.1107633"><ele>298.3333333333333</ele><time>2026-05-02T07:01:39.402Z</time></trkpt><trkpt lat="46.0942183" lon="12.110485"><ele>298.6666666666667</ele><time>2026-05-02T07:01:40.402Z</time></trkpt><trkpt lat="46.0942517" lon="12.11021"><ele>299.0</ele><time>2026-05-02T07:01:41.401Z</time></trkpt><trkpt lat="46.0942817" lon="12.109945"><ele>299.0</ele><time>2026-05-02T07:01:42.401Z</time></trkpt><trkpt lat="46.0943183" lon="12.10967"><ele>299.0</ele><time>2026-05-02T07:01:43.402Z</time></trkpt><trkpt lat="46.0943583" lon="12.109395"><ele>299.0</ele><time>2026-05-02T07:01:44.402Z</time></trkpt><trkpt lat="46.094395" lon="12.1091183"><ele>299.6666666666667</ele><time>2026-05-02T07:01:45.402Z</time></trkpt><trkpt lat="46.094425" lon="12.108845"><ele>300.3333333333333</ele><time>2026-05-02T07:01:46.401Z</time></trkpt><trkpt lat="46.094445" lon="12.1085617"><ele>301.0</ele><time>2026-05-02T07:01:47.402Z</time></trkpt><trkpt lat="46.0944583" lon="12.1082767"><ele>301.0</ele><time>2026-05-02T07:01:48.401Z</time></trkpt><trkpt lat="46.094465" lon="12.1080017"><ele>301.0</ele><time>2026-05-02T07:01:49.402Z</time></trkpt><trkpt lat="46.094455" lon="12.1077267"><ele>301.0</ele><time>2026-05-02T07:01:50.402Z</time></trkpt><trkpt lat="46.09444" lon="12.1074617"><ele>299.3333333333333</ele><time>2026-05-02T07:01:51.402Z</time></trkpt><trkpt lat="46.0944233" lon="12.1071983"><ele>297.6666666666667</ele><time>2026-05-02T07:01:52.402Z</time></trkpt><trkpt lat="46.0943967" lon="12.1069317"><ele>296.0</ele><time>2026-05-02T07:01:53.402Z</time></trkpt><trkpt lat="46.09437" lon="12.1066717"><ele>295.33333333333337</ele><time>2026-05-02T07:01:54.401Z</time></trkpt><trkpt lat="46.0943333" lon="12.10642"><ele>294.6666666666667</ele><time>2026-05-02T07:01:55.401Z</time></trkpt><trkpt lat="46.0943017" lon="12.1061683"><ele>294.0</ele><time>2026-05-02T07:01:56.401Z</time></trkpt><trkpt lat="46.0942783" lon="12.1059183"><ele>294.3333333333333</ele><time>2026-05-02T07:01:57.402Z</time></trkpt><trkpt lat="46.09425" lon="12.1056683"><ele>294.66666666666663</ele><time>2026-05-02T07:01:58.402Z</time></trkpt><trkpt lat="46.0942183" lon="12.1054133"><ele>295.0</ele><time>2026-05-02T07:01:59.402Z</time></trkpt><trkpt lat="46.094185" lon="12.1051583"><ele>295.3333333333333</ele><time>2026-05-02T07:02:00.402Z</time></trkpt><trkpt lat="46.0941517" lon="12.104895"><ele>295.6666666666667</ele><time>2026-05-02T07:02:01.402Z</time></trkpt><trkpt lat="46.0941267" lon="12.1046233"><ele>296.0</ele><time>2026-05-02T07:02:02.402Z</time></trkpt><trkpt lat="46.0941117" lon="12.10435"><ele>296.0</ele><time>2026-05-02T07:02:03.401Z</time></trkpt><trkpt lat="46.09411" lon="12.104075"><ele>296.0</ele><time>2026-05-02T07:02:04.402Z</time></trkpt><trkpt lat="46.0941217" lon="12.1038067"><ele>296.0</ele><time>2026-05-02T07:02:05.401Z</time></trkpt><trkpt lat="46.09414" lon="12.103555"><ele>296.0</ele><time>2026-05-02T07:02:06.401Z</time></trkpt><trkpt lat="46.0941817" lon="12.1033017"><ele>296.0</ele><time>2026-05-02T07:02:07.401Z</time></trkpt><trkpt lat="46.0942383" lon="12.1030533"><ele>296.0</ele><time>2026-05-02T07:02:08.402Z</time></trkpt><trkpt lat="46.094305" lon="12.10281"><ele>296.33333333333337</ele><time>2026-05-02T07:02:09.401Z</time></trkpt><trkpt lat="46.0943833" lon="12.10257"><ele>296.6666666666667</ele><time>2026-05-02T07:02:10.402Z</time></trkpt><trkpt lat="46.09447" lon="12.1023333"><ele>297.0</ele><time>2026-05-02T07:02:11.402Z</time></trkpt><trkpt lat="46.0945533" lon="12.1021017"><ele>298.6666666666667</ele><time>2026-05-02T07:02:12.402Z</time></trkpt><trkpt lat="46.0946167" lon="12.101855"><ele>300.33333333333337</ele><time>2026-05-02T07:02:13.402Z</time></trkpt><trkpt lat="46.0946983" lon="12.1016033"><ele>302.0</ele><time>2026-05-02T07:02:14.402Z</time></trkpt><trkpt lat="46.0947667" lon="12.1013333"><ele>302.0</ele><time>2026-05-02T07:02:15.402Z</time></trkpt><trkpt lat="46.0948317" lon="12.1010833"><ele>302.0</ele><time>2026-05-02T07:02:16.402Z</time></trkpt><trkpt lat="46.0948983" lon="12.1008283"><ele>302.0</ele><time>2026-05-02T07:02:17.402Z</time></trkpt><trkpt lat="46.094965" lon="12.1005733"><ele>301.0</ele><time>2026-05-02T07:02:18.402Z</time></trkpt><trkpt lat="46.0950333" lon="12.1003183"><ele>300.0</ele><time>2026-05-02T07:02:19.402Z</time></trkpt><trkpt lat="46.0953467" lon="12.099295"><ele>300.0</ele><time>2026-05-02T07:02:23.404Z</time></trkpt><trkpt lat="46.09548" lon="12.099125"><ele>300.0</ele><time>2026-05-02T07:02:24.404Z</time></trkpt><trkpt lat="46.0955717" lon="12.0989"><ele>300.0</ele><time>2026-05-02T07:02:25.405Z</time></trkpt><trkpt lat="46.0956733" lon="12.0986667"><ele>299.0</ele><time>2026-05-02T07:02:26.405Z</time></trkpt><trkpt lat="46.09579" lon="12.0984317"><ele>298.0</ele><time>2026-05-02T07:02:27.405Z</time></trkpt><trkpt lat="46.0959083" lon="12.0981967"><ele>297.0</ele><time>2026-05-02T07:02:28.405Z</time></trkpt><trkpt lat="46.0960333" lon="12.0979733"><ele>296.6666666666667</ele><time>2026-05-02T07:02:29.404Z</time></trkpt><trkpt lat="46.0961517" lon="12.09774"><ele>296.33333333333337</ele><time>2026-05-02T07:02:30.405Z</time></trkpt><trkpt lat="46.0962617" lon="12.0975117"><ele>296.0</ele><time>2026-05-02T07:02:31.404Z</time></trkpt><trkpt lat="46.0963767" lon="12.0972817"><ele>296.6666666666667</ele><time>2026-05-02T07:02:32.405Z</time></trkpt><trkpt lat="46.0964933" lon="12.0970417"><ele>297.3333333333333</ele><time>2026-05-02T07:02:33.404Z</time></trkpt><trkpt lat="46.0966033" lon="12.09681"><ele>298.0</ele><time>2026-05-02T07:02:34.405Z</time></trkpt><trkpt lat="46.096715" lon="12.0965733"><ele>298.3333333333333</ele><time>2026-05-02T07:02:35.404Z</time></trkpt><trkpt lat="46.0968233" lon="12.0963483"><ele>298.6666666666667</ele><time>2026-05-02T07:02:36.404Z</time></trkpt><trkpt lat="46.0969317" lon="12.096125"><ele>299.0</ele><time>2026-05-02T07:02:37.404Z</time></trkpt><trkpt lat="46.0970383" lon="12.0958983"><ele>298.6666666666667</ele><time>2026-05-02T07:02:38.405Z</time></trkpt><trkpt lat="46.09714" lon="12.09568"><ele>298.3333333333333</ele><time>2026-05-02T07:02:39.405Z</time></trkpt><trkpt lat="46.097245" lon="12.0954667"><ele>298.0</ele><time>2026-05-02T07:02:40.405Z</time></trkpt><trkpt lat="46.0973567" lon="12.0952567"><ele>298.66666666666663</ele><time>2026-05-02T07:02:41.405Z</time></trkpt><trkpt lat="46.0974567" lon="12.0950333"><ele>299.3333333333333</ele><time>2026-05-02T07:02:42.405Z</time></trkpt><trkpt lat="46.0975567" lon="12.094815"><ele>300.0</ele><time>2026-05-02T07:02:43.405Z</time></trkpt><trkpt lat="46.0976533" lon="12.0945933"><ele>300.0</ele><time>2026-05-02T07:02:44.405Z</time></trkpt><trkpt lat="46.097755" lon="12.0943717"><ele>300.0</ele><time>2026-05-02T07:02:45.405Z</time></trkpt><trkpt lat="46.0978483" lon="12.0941517"><ele>300.0</ele><time>2026-05-02T07:02:46.404Z</time></trkpt><trkpt lat="46.0979467" lon="12.0939417"><ele>300.6666666666667</ele><time>2026-05-02T07:02:47.405Z</time></trkpt><trkpt lat="46.0980367" lon="12.0937233"><ele>301.33333333333337</ele><time>2026-05-02T07:02:48.404Z</time></trkpt><trkpt lat="46.0981267" lon="12.093505"><ele>302.0</ele><time>2026-05-02T07:02:49.404Z</time></trkpt><trkpt lat="46.0982133" lon="12.0932917"><ele>302.0</ele><time>2026-05-02T07:02:50.405Z</time></trkpt><trkpt lat="46.0983017" lon="12.0930867"><ele>302.0</ele><time>2026-05-02T07:02:51.405Z</time></trkpt><trkpt lat="46.0983983" lon="12.0928783"><ele>302.0</ele><time>2026-05-02T07:02:52.404Z</time></trkpt><trkpt lat="46.0984883" lon="12.09268"><ele>302.0</ele><time>2026-05-02T07:02:53.405Z</time></trkpt><trkpt lat="46.0985717" lon="12.0924767"><ele>302.0</ele><time>2026-05-02T07:02:54.404Z</time></trkpt><trkpt lat="46.0986633" lon="12.0922867"><ele>302.0</ele><time>2026-05-02T07:02:55.405Z</time></trkpt><trkpt lat="46.0987533" lon="12.0921133"><ele>302.25</ele><time>2026-05-02T07:02:56.405Z</time></trkpt><trkpt lat="46.0988417" lon="12.0919583"><ele>302.5</ele><time>2026-05-02T07:02:57.405Z</time></trkpt><trkpt lat="46.09893" lon="12.0918233"><ele>302.75</ele><time>2026-05-02T07:02:58.405Z</time></trkpt><trkpt lat="46.099025" lon="12.0916867"><ele>303.0</ele><time>2026-05-02T07:02:59.405Z</time></trkpt><trkpt lat="46.0991217" lon="12.0915333"><ele>303.25</ele><time>2026-05-02T07:03:00.405Z</time></trkpt><trkpt lat="46.0992267" lon="12.0913833"><ele>303.5</ele><time>2026-05-02T07:03:01.405Z</time></trkpt><trkpt lat="46.0993283" lon="12.0912233"><ele>303.75</ele><time>2026-05-02T07:03:02.404Z</time></trkpt><trkpt lat="46.09942" lon="12.0910567"><ele>304.0</ele><time>2026-05-02T07:03:03.405Z</time></trkpt><trkpt lat="46.0995183" lon="12.090875"><ele>304.0</ele><time>2026-05-02T07:03:04.405Z</time></trkpt><trkpt lat="46.0996033" lon="12.0907017"><ele>304.0</ele><time>2026-05-02T07:03:05.405Z</time></trkpt><trkpt lat="46.09968" lon="12.09054"><ele>304.0</ele><time>2026-05-02T07:03:06.404Z</time></trkpt><trkpt lat="46.0997467" lon="12.0903933"><ele>304.0</ele><time>2026-05-02T07:03:07.405Z</time></trkpt><trkpt lat="46.0998083" lon="12.09028"><ele>304.0</ele><time>2026-05-02T07:03:08.405Z</time></trkpt><trkpt lat="46.0998533" lon="12.090195"><ele>304.0</ele><time>2026-05-02T07:03:09.405Z</time></trkpt><trkpt lat="46.0999" lon="12.09011"><ele>304.0</ele><time>2026-05-02T07:03:11.405Z</time></trkpt><trkpt lat="46.0999617" lon="12.0900517"><ele>304.0</ele><time>2026-05-02T07:03:17.405Z</time></trkpt><trkpt lat="46.10836" lon="12.09589"><ele>306.5</ele><time>2026-05-02T07:04:58.405Z</time></trkpt><trkpt lat="46.1084833" lon="12.0958333"><ele>309.0</ele><time>2026-05-02T07:04:59.404Z</time></trkpt><trkpt lat="46.108605" lon="12.0957917"><ele>311.5</ele><time>2026-05-02T07:05:00.405Z</time></trkpt><trkpt lat="46.1087117" lon="12.0957533"><ele>314.0</ele><time>2026-05-02T07:05:01.404Z</time></trkpt><trkpt lat="46.1088033" lon="12.095725"><ele>314.0</ele><time>2026-05-02T07:05:02.405Z</time></trkpt><trkpt lat="46.1088667" lon="12.0956983"><ele>314.0</ele><time>2026-05-02T07:05:03.405Z</time></trkpt><trkpt lat="46.108945" lon="12.0956567"><ele>314.0</ele><time>2026-05-02T07:05:05.404Z</time></trkpt><trkpt lat="46.1090267" lon="12.095625"><ele>314.0</ele><time>2026-05-02T07:05:08.404Z</time></trkpt><trkpt lat="46.1091233" lon="12.0956"><ele>314.0</ele><time>2026-05-02T07:05:10.405Z</time></trkpt><trkpt lat="46.109195" lon="12.0955817"><ele>314.0</ele><time>2026-05-02T07:05:11.405Z</time></trkpt><trkpt lat="46.1093667" lon="12.0955433"><ele>314.2</ele><time>2026-05-02T07:05:13.405Z</time></trkpt><trkpt lat="46.10946" lon="12.0955183"><ele>314.4</ele><time>2026-05-02T07:05:14.404Z</time></trkpt><trkpt lat="46.109555" lon="12.0954917"><ele>314.6</ele><time>2026-05-02T07:05:15.405Z</time></trkpt><trkpt lat="46.1096667" lon="12.0954567"><ele>314.8</ele><time>2026-05-02T07:05:16.404Z</time></trkpt><trkpt lat="46.10979" lon="12.095425"><ele>315.0</ele><time>2026-05-02T07:05:17.405Z</time></trkpt><trkpt lat="46.1099167" lon="12.0954017"><ele>315.0</ele><time>2026-05-02T07:05:18.405Z</time></trkpt><trkpt lat="46.1100367" lon="12.09537"><ele>315.0</ele><time>2026-05-02T07:05:19.405Z</time></trkpt><trkpt lat="46.1101617" lon="12.0953417"><ele>315.0</ele><time>2026-05-02T07:05:20.405Z</time></trkpt><trkpt lat="46.110285" lon="12.09532"><ele>315.0</ele><time>2026-05-02T07:05:21.405Z</time></trkpt><trkpt lat="46.11041" lon="12.0952983"><ele>315.0</ele><time>2026-05-02T07:05:22.405Z</time></trkpt><trkpt lat="46.11054" lon="12.0952633"><ele>315.0</ele><time>2026-05-02T07:05:23.405Z</time></trkpt><trkpt lat="46.1106733" lon="12.095225"><ele>315.0</ele><time>2026-05-02T07:05:24.405Z</time></trkpt><trkpt lat="46.1108133" lon="12.0952067"><ele>315.0</ele><time>2026-05-02T07:05:25.405Z</time></trkpt><trkpt lat="46.1109567" lon="12.0952"><ele>315.0</ele><time>2026-05-02T07:05:26.405Z</time></trkpt><trkpt lat="46.1111067" lon="12.0952067"><ele>315.0</ele><time>2026-05-02T07:05:27.405Z</time></trkpt><trkpt lat="46.1112633" lon="12.095225"><ele>315.0</ele><time>2026-05-02T07:05:28.405Z</time></trkpt><trkpt lat="46.111415" lon="12.0952567"><ele>315.0</ele><time>2026-05-02T07:05:29.405Z</time></trkpt><trkpt lat="46.1115717" lon="12.0952983"><ele>315.0</ele><time>2026-05-02T07:05:30.404Z</time></trkpt><trkpt lat="46.1117267" lon="12.095365"><ele>315.0</ele><time>2026-05-02T07:05:31.405Z</time></trkpt><trkpt lat="46.111875" lon="12.0954517"><ele>315.5</ele><time>2026-05-02T07:05:32.405Z</time></trkpt><trkpt lat="46.1121717" lon="12.0956583"><ele>316.0</ele><time>2026-05-02T07:05:34.405Z</time></trkpt><trkpt lat="46.112315" lon="12.0957817"><ele>317.0</ele><time>2026-05-02T07:05:35.405Z</time></trkpt><trkpt lat="46.1124533" lon="12.095905"><ele>318.0</ele><time>2026-05-02T07:05:36.405Z</time></trkpt><trkpt lat="46.1125917" lon="12.0960333"><ele>319.0</ele><time>2026-05-02T07:05:37.405Z</time></trkpt><trkpt lat="46.11273" lon="12.0961533"><ele>319.0</ele><time>2026-05-02T07:05:38.405Z</time></trkpt><trkpt lat="46.11287" lon="12.096265"><ele>319.0</ele><time>2026-05-02T07:05:39.405Z</time></trkpt><trkpt lat="46.1130133" lon="12.0963867"><ele>319.0</ele><time>2026-05-02T07:05:40.405Z</time></trkpt><trkpt lat="46.1131567" lon="12.0965133"><ele>319.0</ele><time>2026-05-02T07:05:41.404Z</time></trkpt><trkpt lat="46.1132983" lon="12.0966467"><ele>319.0</ele><time>2026-05-02T07:05:42.405Z</time></trkpt><trkpt lat="46.113445" lon="12.0967833"><ele>319.0</ele><time>2026-05-02T07:05:43.405Z</time></trkpt><trkpt lat="46.1135967" lon="12.0969183"><ele>319.0</ele><time>2026-05-02T07:05:44.405Z</time></trkpt><trkpt lat="46.1137467" lon="12.0970483"><ele>319.0</ele><time>2026-05-02T07:05:45.405Z</time></trkpt><trkpt lat="46.1138933" lon="12.097185"><ele>319.0</ele><time>2026-05-02T07:05:46.404Z</time></trkpt><trkpt lat="46.1140467" lon="12.0973"><ele>319.0</ele><time>2026-05-02T07:05:47.405Z</time></trkpt><trkpt lat="46.114205" lon="12.0974117"><ele>319.0</ele><time>2026-05-02T07:05:48.405Z</time></trkpt><trkpt lat="46.1143667" lon="12.097525"><ele>319.0</ele><time>2026-05-02T07:05:49.405Z</time></trkpt><trkpt lat="46.114525" lon="12.09764"><ele>320.0</ele><time>2026-05-02T07:05:50.405Z</time></trkpt><trkpt lat="46.11468" lon="12.0977483"><ele>321.0</ele><time>2026-05-02T07:05:51.405Z</time></trkpt><trkpt lat="46.1148367" lon="12.0978533"><ele>322.0</ele><time>2026-05-02T07:05:52.405Z</time></trkpt><trkpt lat="46.1149867" lon="12.0979617"><ele>322.0</ele><time>2026-05-02T07:05:53.405Z</time></trkpt><trkpt lat="46.1152883" lon="12.0981683"><ele>322.0</ele><time>2026-05-02T07:05:55.405Z</time></trkpt><trkpt lat="46.1154333" lon="12.0982533"><ele>322.66666666666663</ele><time>2026-05-02T07:05:56.404Z</time></trkpt><trkpt lat="46.1155883" lon="12.0983383"><ele>323.3333333333333</ele><time>2026-05-02T07:05:57.405Z</time></trkpt><trkpt lat="46.11573" lon="12.09841"><ele>324.0</ele><time>2026-05-02T07:05:58.404Z</time></trkpt><trkpt lat="46.1158633" lon="12.0984783"><ele>324.0</ele><time>2026-05-02T07:05:59.405Z</time></trkpt><trkpt lat="46.1159733" lon="12.0985417"><ele>324.0</ele><time>2026-05-02T07:06:00.404Z</time></trkpt><trkpt lat="46.1160717" lon="12.0986067"><ele>324.0</ele><time>2026-05-02T07:06:01.405Z</time></trkpt><trkpt lat="46.1161567" lon="12.0986833"><ele>324.0</ele><time>2026-05-02T07:06:02.405Z</time></trkpt><trkpt lat="46.116245" lon="12.0987583"><ele>324.0</ele><time>2026-05-02T07:06:03.405Z</time></trkpt><trkpt lat="46.1163483" lon="12.0988067"><ele>324.0</ele><time>2026-05-02T07:06:04.405Z</time></trkpt><trkpt lat="46.11648" lon="12.0988383"><ele>324.0</ele><time>2026-05-02T07:06:05.404Z</time></trkpt><trkpt lat="46.1166117" lon="12.0989033"><ele>324.0</ele><time>2026-05-02T07:06:06.405Z</time></trkpt><trkpt lat="46.1167333" lon="12.09897"><ele>324.0</ele><time>2026-05-02T07:06:07.405Z</time></trkpt><trkpt lat="46.11688" lon="12.0990033"><ele>324.0</ele><time>2026-05-02T07:06:08.405Z</time></trkpt><trkpt lat="46.1170417" lon="12.0990583"><ele>324.0</ele><time>2026-05-02T07:06:09.405Z</time></trkpt><trkpt lat="46.1172033" lon="12.0991317"><ele>324.0</ele><time>2026-05-02T07:06:10.404Z</time></trkpt><trkpt lat="46.1173683" lon="12.0991767"><ele>324.0</ele><time>2026-05-02T07:06:11.405Z</time></trkpt><trkpt lat="46.1175383" lon="12.0992267"><ele>324.0</ele><time>2026-05-02T07:06:12.405Z</time></trkpt><trkpt lat="46.11771" lon="12.099265"><ele>324.0</ele><time>2026-05-02T07:06:13.405Z</time></trkpt><trkpt lat="46.117885" lon="12.0993167"><ele>325.5</ele><time>2026-05-02T07:06:14.404Z</time></trkpt><trkpt lat="46.118235" lon="12.099455"><ele>327.0</ele><time>2026-05-02T07:06:16.405Z</time></trkpt><trkpt lat="46.1184033" lon="12.0995567"><ele>327.0</ele><time>2026-05-02T07:06:17.405Z</time></trkpt><trkpt lat="46.1185683" lon="12.099685"><ele>327.0</ele><time>2026-05-02T07:06:18.405Z</time></trkpt><trkpt lat="46.11872" lon="12.0998233"><ele>327.0</ele><time>2026-05-02T07:06:19.404Z</time></trkpt><trkpt lat="46.11888" lon="12.0999583"><ele>327.6666666666667</ele><time>2026-05-02T07:06:20.405Z</time></trkpt><trkpt lat="46.1190417" lon="12.1000967"><ele>328.33333333333337</ele><time>2026-05-02T07:06:21.405Z</time></trkpt><trkpt lat="46.1192033" lon="12.1002267"><ele>329.0</ele><time>2026-05-02T07:06:22.405Z</time></trkpt><trkpt lat="46.1193667" lon="12.1003533"><ele>329.0</ele><time>2026-05-02T07:06:23.405Z</time></trkpt><trkpt lat="46.11953" lon="12.1004867"><ele>329.0</ele><time>2026-05-02T07:06:24.405Z</time></trkpt><trkpt lat="46.11969" lon="12.1006317"><ele>329.0</ele><time>2026-05-02T07:06:25.405Z</time></trkpt><trkpt lat="46.1198533" lon="12.10077"><ele>330.6666666666667</ele><time>2026-05-02T07:06:26.405Z</time></trkpt><trkpt lat="46.1200133" lon="12.1009083"><ele>332.3333333333333</ele><time>2026-05-02T07:06:27.405Z</time></trkpt><trkpt lat="46.1201767" lon="12.10105"><ele>334.0</ele><time>2026-05-02T07:06:28.405Z</time></trkpt><trkpt lat="46.1203433" lon="12.10119"><ele>334.0</ele><time>2026-05-02T07:06:29.405Z</time></trkpt><trkpt lat="46.1205217" lon="12.1013383"><ele>334.0</ele><time>2026-05-02T07:06:30.404Z</time></trkpt><trkpt lat="46.1207117" lon="12.1014567"><ele>334.0</ele><time>2026-05-02T07:06:31.405Z</time></trkpt><trkpt lat="46.120915" lon="12.10156"><ele>335.3333333333333</ele><time>2026-05-02T07:06:32.405Z</time></trkpt><trkpt lat="46.1211267" lon="12.1016533"><ele>336.6666666666667</ele><time>2026-05-02T07:06:33.404Z</time></trkpt><trkpt lat="46.1213383" lon="12.101745"><ele>338.0</ele><time>2026-05-02T07:06:34.405Z</time></trkpt><trkpt lat="46.1215517" lon="12.1018433"><ele>338.0</ele><time>2026-05-02T07:06:35.405Z</time></trkpt></trkseg><trkseg><trkpt lat="46.5493404" lon="11.8085763"><ele>2118.142857142857</ele><time>2026-05-02T10:03:04.406Z</time></trkpt><trkpt lat="46.549355" lon="11.8084854"><ele>2117.285714285714</ele><time>2026-05-02T10:03:11.419Z</time></trkpt><trkpt lat="46.5494221" lon="11.8084699"><ele>2116.4285714285716</ele><time>2026-05-02T10:03:18.366Z</time></trkpt><trkpt lat="46.5494862" lon="11.8084708"><ele>2115.5714285714284</ele><time>2026-05-02T10:03:25.446Z</time></trkpt><trkpt lat="46.5495532" lon="11.8084736"><ele>2114.714285714286</ele><time>2026-05-02T10:03:31.457Z</time></trkpt><trkpt lat="46.5496061" lon="11.8084205"><ele>2113.8571428571427</ele><time>2026-05-02T10:03:41.477Z</time></trkpt><trkpt lat="46.5496813" lon="11.8084027"><ele>2113.0</ele><time>2026-05-02T10:03:53.5Z</time></trkpt><trkpt lat="46.5497354" lon="11.8084779"><ele>2113.4</ele><time>2026-05-02T10:03:59.504Z</time></trkpt><trkpt lat="46.5497563" lon="11.8085745"><ele>2113.8</ele><time>2026-05-02T10:04:27.464Z</time></trkpt><trkpt lat="46.549755" lon="11.8084622"><ele>2114.2</ele><time>2026-05-02T10:06:15.466Z</time></trkpt><trkpt lat="46.549852" lon="11.8083201"><ele>2114.6</ele><time>2026-05-02T10:06:17.393Z</time></trkpt><trkpt lat="46.5499161" lon="11.8082144"><ele>2115.0</ele><time>2026-05-02T10:06:18.393Z</time></trkpt><trkpt lat="46.5499736" lon="11.808107"><ele>2115.8</ele><time>2026-05-02T10:06:19.393Z</time></trkpt><trkpt lat="46.550021" lon="11.8079864"><ele>2116.6</ele><time>2026-05-02T10:06:20.393Z</time></trkpt><trkpt lat="46.5500565" lon="11.8078616"><ele>2117.4</ele><time>2026-05-02T10:06:21.393Z</time></trkpt><trkpt lat="46.5500798" lon="11.8077272"><ele>2118.2</ele><time>2026-05-02T10:06:22.392Z</time></trkpt><trkpt lat="46.5500937" lon="11.8075888"><ele>2119.0</ele><time>2026-05-02T10:06:23.393Z</time></trkpt><trkpt lat="46.5500967" lon="11.8074467"><ele>2119.0</ele><time>2026-05-02T10:06:24.393Z</time></trkpt><trkpt lat="46.5500867" lon="11.8073117"><ele>2119.0</ele><time>2026-05-02T10:06:25.393Z</time></trkpt><trkpt lat="46.550065" lon="11.8071917"><ele>2119.0</ele><time>2026-05-02T10:06:26.393Z</time></trkpt><trkpt lat="46.5500217" lon="11.8070633"><ele>2119.0</ele><time>2026-05-02T10:06:27.393Z</time></trkpt><trkpt lat="46.5499533" lon="11.806915"><ele>2119.0</ele><time>2026-05-02T10:06:28.393Z</time></trkpt><trkpt lat="46.5498667" lon="11.8067667"><ele>2119.25</ele><time>2026-05-02T10:06:29.393Z</time></trkpt><trkpt lat="46.54978" lon="11.8066183"><ele>2119.5</ele><time>2026-05-02T10:06:30.392Z</time></trkpt><trkpt lat="46.5497133" lon="11.80645"><ele>2119.75</ele><time>2026-05-02T10:06:31.393Z</time></trkpt><trkpt lat="46.5496683" lon="11.806285"><ele>2120.0</ele><time>2026-05-02T10:06:32.393Z</time></trkpt><trkpt lat="46.5496233" lon="11.806135"><ele>2120.0</ele><time>2026-05-02T10:06:33.393Z</time></trkpt><trkpt lat="46.549575" lon="11.8059967"><ele>2120.0</ele><time>2026-05-02T10:06:34.393Z</time></trkpt><trkpt lat="46.5495217" lon="11.8058783"><ele>2120.0</ele><time>2026-05-02T10:06:35.393Z</time></trkpt><trkpt lat="46.5494567" lon="11.805775"><ele>2120.0</ele><time>2026-05-02T10:06:36.393Z</time></trkpt><trkpt lat="46.5493783" lon="11.805685"><ele>2120.0</ele><time>2026-05-02T10:06:37.393Z</time></trkpt><trkpt lat="46.5493017" lon="11.8056083"><ele>2118.6666666666665</ele><time>2026-05-02T10:06:38.393Z</time></trkpt><trkpt lat="46.5492283" lon="11.8055367"><ele>2117.333333333333</ele><time>2026-05-02T10:06:39.393Z</time></trkpt><trkpt lat="46.54917" lon="11.8054633"><ele>2116.0</ele><time>2026-05-02T10:06:40.393Z</time></trkpt><trkpt lat="46.5491333" lon="11.8053733"><ele>2114.6666666666665</ele><time>2026-05-02T10:06:41.393Z</time></trkpt><trkpt lat="46.549065" lon="11.8052533"><ele>2113.3333333333335</ele><time>2026-05-02T10:06:43.393Z</time></trkpt><trkpt lat="46.5489717" lon="11.805255"><ele>2112.0</ele><time>2026-05-02T10:06:45.392Z</time></trkpt><trkpt lat="46.5489333" lon="11.8054283"><ele>2112.0</ele><time>2026-05-02T10:06:47.393Z</time></trkpt><trkpt lat="46.5489583" lon="11.8055617"><ele>2112.0</ele><time>2026-05-02T10:06:48.393Z</time></trkpt><trkpt lat="46.5489683" lon="11.8057033"><ele>2112.0</ele><time>2026-05-02T10:06:49.393Z</time></trkpt><trkpt lat="46.54895" lon="11.8058483"><ele>2112.0</ele><time>2026-05-02T10:06:50.392Z</time></trkpt><trkpt lat="46.5489183" lon="11.8059867"><ele>2112.0</ele><time>2026-05-02T10:06:51.393Z</time></trkpt><trkpt lat="46.5488817" lon="11.8061283"><ele>2111.6</ele><time>2026-05-02T10:06:52.393Z</time></trkpt><trkpt lat="46.54885" lon="11.8062667"><ele>2111.2</ele><time>2026-05-02T10:06:53.393Z</time></trkpt><trkpt lat="46.5488117" lon="11.8064033"><ele>2110.8</ele><time>2026-05-02T10:06:54.393Z</time></trkpt><trkpt lat="46.54877" lon="11.8065217"><ele>2110.4</ele><time>2026-05-02T10:06:55.393Z</time></trkpt><trkpt lat="46.5487067" lon="11.80662"><ele>2110.0</ele><time>2026-05-02T10:06:56.392Z</time></trkpt><trkpt lat="46.5486267" lon="11.806675"><ele>2106.6</ele><time>2026-05-02T10:06:57.393Z</time></trkpt><trkpt lat="46.5485483" lon="11.80669"><ele>2103.2</ele><time>2026-05-02T10:06:58.393Z</time></trkpt><trkpt lat="46.54846" lon="11.806645"><ele>2099.8</ele><time>2026-05-02T10:06:59.393Z</time></trkpt><trkpt lat="46.5483783" lon="11.8065533"><ele>2096.4</ele><time>2026-05-02T10:07:00.392Z</time></trkpt><trkpt lat="46.5483133" lon="11.806435"><ele>2093.0</ele><time>2026-05-02T10:07:01.393Z</time></trkpt><trkpt lat="46.5482467" lon="11.8063"><ele>2093.0</ele><time>2026-05-02T10:07:02.392Z</time></trkpt><trkpt lat="46.548165" lon="11.8061933"><ele>2093.0</ele><time>2026-05-02T10:07:03.393Z</time></trkpt><trkpt lat="46.5480667" lon="11.8061017"><ele>2093.0</ele><time>2026-05-02T10:07:04.393Z</time></trkpt><trkpt lat="46.5479733" lon="11.80602"><ele>2093.0</ele><time>2026-05-02T10:07:05.393Z</time></trkpt><trkpt lat="46.5478867" lon="11.8059417"><ele>2093.0</ele><time>2026-05-02T10:07:06.393Z</time></trkpt><trkpt lat="46.5478167" lon="11.805835"><ele>2090.4</ele><time>2026-05-02T10:07:07.393Z</time></trkpt><trkpt lat="46.5477817" lon="11.80573"><ele>2087.8</ele><time>2026-05-02T10:07:08.393Z</time></trkpt><trkpt lat="46.547775" lon="11.8055933"><ele>2085.2</ele><time>2026-05-02T10:07:09.393Z</time></trkpt><trkpt lat="46.5478017" lon="11.805445"><ele>2082.6</ele><time>2026-05-02T10:07:10.392Z</time></trkpt><trkpt lat="46.5478183" lon="11.805305"><ele>2080.0</ele><time>2026-05-02T10:07:11.393Z</time></trkpt><trkpt lat="46.547825" lon="11.8051733"><ele>2079.666666666667</ele><time>2026-05-02T10:07:12.393Z</time></trkpt><trkpt lat="46.5478167" lon="11.8050533"><ele>2079.3333333333335</ele><time>2026-05-02T10:07:13.393Z</time></trkpt><trkpt lat="46.54779" lon="11.8049467"><ele>2079.0</ele><time>2026-05-02T10:07:14.393Z</time></trkpt><trkpt lat="46.547735" lon="11.8048617"><ele>2078.6666666666665</ele><time>2026-05-02T10:07:15.393Z</time></trkpt><trkpt lat="46.54766" lon="11.8047967"><ele>2078.333333333333</ele><time>2026-05-02T10:07:16.393Z</time></trkpt><trkpt lat="46.5475733" lon="11.804775"><ele>2078.0</ele><time>2026-05-02T10:07:17.392Z</time></trkpt><trkpt lat="46.5474817" lon="11.8048233"><ele>2078.0</ele><time>2026-05-02T10:07:18.393Z</time></trkpt><trkpt lat="46.547405" lon="11.8049033"><ele>2078.0</ele><time>2026-05-02T10:07:19.393Z</time></trkpt><trkpt lat="46.5473367" lon="11.8050467"><ele>2078.0</ele><time>2026-05-02T10:07:20.392Z</time></trkpt><trkpt lat="46.5472883" lon="11.8052067"><ele>2078.0</ele><time>2026-05-02T10:07:21.393Z</time></trkpt><trkpt lat="46.5472583" lon="11.80536"><ele>2078.0</ele><time>2026-05-02T10:07:22.393Z</time></trkpt><trkpt lat="46.54725" lon="11.8055167"><ele>2078.4</ele><time>2026-05-02T10:07:23.393Z</time></trkpt><trkpt lat="46.5472667" lon="11.8056683"><ele>2078.8</ele><time>2026-05-02T10:07:24.393Z</time></trkpt><trkpt lat="46.5473" lon="11.8058117"><ele>2079.2</ele><time>2026-05-02T10:07:25.392Z</time></trkpt><trkpt lat="46.5473383" lon="11.805945"><ele>2079.6</ele><time>2026-05-02T10:07:26.393Z</time></trkpt><trkpt lat="46.5473533" lon="11.8060417"><ele>2080.0</ele><time>2026-05-02T10:07:27.393Z</time></trkpt><trkpt lat="46.5473" lon="11.806155"><ele>2080.0</ele><time>2026-05-02T10:07:29.393Z</time></trkpt><trkpt lat="46.5471983" lon="11.8060767"><ele>2080.0</ele><time>2026-05-02T10:07:31.392Z</time></trkpt><trkpt lat="46.5471883" lon="11.80596"><ele>2080.0</ele><time>2026-05-02T10:07:32.393Z</time></trkpt><trkpt lat="46.5471783" lon="11.805815"><ele>2080.0</ele><time>2026-05-02T10:07:33.393Z</time></trkpt><trkpt lat="46.5471483" lon="11.8056433"><ele>2080.0</ele><time>2026-05-02T10:07:34.393Z</time></trkpt><trkpt lat="46.5470967" lon="11.8054833"><ele>2080.0</ele><time>2026-05-02T10:07:35.393Z</time></trkpt><trkpt lat="46.54705" lon="11.8053167"><ele>2080.0</ele><time>2026-05-02T10:07:36.393Z</time></trkpt><trkpt lat="46.547025" lon="11.8051467"><ele>2080.0</ele><time>2026-05-02T10:07:37.393Z</time></trkpt><trkpt lat="46.5470267" lon="11.80497"><ele>2080.0</ele><time>2026-05-02T10:07:38.392Z</time></trkpt><trkpt lat="46.5470367" lon="11.8048117"><ele>2079.666666666667</ele><time>2026-05-02T10:07:39.392Z</time></trkpt><trkpt lat="46.54705" lon="11.80468"><ele>2079.3333333333335</ele><time>2026-05-02T10:07:40.393Z</time></trkpt><trkpt lat="46.5470883" lon="11.8045683"><ele>2079.0</ele><time>2026-05-02T10:07:41.393Z</time></trkpt><trkpt lat="46.5471433" lon="11.8044783"><ele>2078.6666666666665</ele><time>2026-05-02T10:07:42.392Z</time></trkpt><trkpt lat="46.5472233" lon="11.8044083"><ele>2078.333333333333</ele><time>2026-05-02T10:07:43.393Z</time></trkpt><trkpt lat="46.54731" lon="11.80435"><ele>2078.0</ele><time>2026-05-02T10:07:44.393Z</time></trkpt><trkpt lat="46.547395" lon="11.8043017"><ele>2075.333333333333</ele><time>2026-05-02T10:07:45.393Z</time></trkpt><trkpt lat="46.5474733" lon="11.8042483"><ele>2072.6666666666665</ele><time>2026-05-02T10:07:46.393Z</time></trkpt><trkpt lat="46.547545" lon="11.8041883"><ele>2070.0</ele><time>2026-05-02T10:07:47.393Z</time></trkpt><trkpt lat="46.5476067" lon="11.8040983"><ele>2067.3333333333335</ele><time>2026-05-02T10:07:48.393Z</time></trkpt><trkpt lat="46.547655" lon="11.80399"><ele>2064.666666666667</ele><time>2026-05-02T10:07:49.392Z</time></trkpt><trkpt lat="46.547705" lon="11.8038783"><ele>2062.0</ele><time>2026-05-02T10:07:50.393Z</time></trkpt><trkpt lat="46.5477617" lon="11.80376"><ele>2062.0</ele><time>2026-05-02T10:07:51.393Z</time></trkpt><trkpt lat="46.5478183" lon="11.80366"><ele>2062.0</ele><time>2026-05-02T10:07:52.393Z</time></trkpt><trkpt lat="46.54787" lon="11.8035767"><ele>2062.0</ele><time>2026-05-02T10:07:53.393Z</time></trkpt><trkpt lat="46.547925" lon="11.8034267"><ele>2062.0</ele><time>2026-05-02T10:07:55.393Z</time></trkpt><trkpt lat="46.5478583" lon="11.8033117"><ele>2062.0</ele><time>2026-05-02T10:07:57.393Z</time></trkpt><trkpt lat="46.54775" lon="11.80338"><ele>2062.0</ele><time>2026-05-02T10:07:59.393Z</time></trkpt><trkpt lat="46.54769" lon="11.8035033"><ele>2062.0</ele><time>2026-05-02T10:08:00.393Z</time></trkpt><trkpt lat="46.5476067" lon="11.8036267"><ele>2062.0</ele><time>2026-05-02T10:08:01.393Z</time></trkpt><trkpt lat="46.5474967" lon="11.8037283"><ele>2062.0</ele><time>2026-05-02T10:08:02.393Z</time></trkpt><trkpt lat="46.54737" lon="11.8038017"><ele>2062.0</ele><time>2026-05-02T10:08:03.392Z</time></trkpt><trkpt lat="46.5472417" lon="11.8038533"><ele>2062.0</ele><time>2026-05-02T10:08:04.393Z</time></trkpt><trkpt lat="46.5471183" lon="11.8038733"><ele>2062.0</ele><time>2026-05-02T10:08:05.393Z</time></trkpt><trkpt lat="46.5470017" lon="11.803885"><ele>2062.0</ele><time>2026-05-02T10:08:06.393Z</time></trkpt><trkpt lat="46.546875" lon="11.8039033"><ele>2059.25</ele><time>2026-05-02T10:08:07.393Z</time></trkpt><trkpt lat="46.5467617" lon="11.8039433"><ele>2056.5</ele><time>2026-05-02T10:08:08.393Z</time></trkpt><trkpt lat="46.5466517" lon="11.80399"><ele>2053.75</ele><time>2026-05-02T10:08:09.393Z</time></trkpt><trkpt lat="46.5465433" lon="11.8040467"><ele>2051.0</ele><time>2026-05-02T10:08:10.393Z</time></trkpt><trkpt lat="46.5464383" lon="11.8040983"><ele>2051.0</ele><time>2026-05-02T10:08:11.393Z</time></trkpt><trkpt lat="46.5463367" lon="11.8041567"><ele>2051.0</ele><time>2026-05-02T10:08:12.393Z</time></trkpt><trkpt lat="46.54625" lon="11.80425"><ele>2051.0</ele><time>2026-05-02T10:08:13.393Z</time></trkpt><trkpt lat="46.546185" lon="11.8043817"><ele>2051.0</ele><time>2026-05-02T10:08:14.393Z</time></trkpt><trkpt lat="46.54614" lon="11.80454"><ele>2051.0</ele><time>2026-05-02T10:08:15.393Z</time></trkpt><trkpt lat="46.5461067" lon="11.8046967"><ele>2048.0</ele><time>2026-05-02T10:08:16.392Z</time></trkpt><trkpt lat="46.5460817" lon="11.8048583"><ele>2045.0</ele><time>2026-05-02T10:08:17.393Z</time></trkpt><trkpt lat="46.5460533" lon="11.805005"><ele>2042.0</ele><time>2026-05-02T10:08:18.393Z</time></trkpt><trkpt lat="46.546035" lon="11.8051567"><ele>2039.0</ele><time>2026-05-02T10:08:19.393Z</time></trkpt><trkpt lat="46.546035" lon="11.8053117"><ele>2036.0</ele><time>2026-05-02T10:08:20.392Z</time></trkpt><trkpt lat="46.5460467" lon="11.805475"><ele>2035.6</ele><time>2026-05-02T10:08:21.393Z</time></trkpt><trkpt lat="46.5460667" lon="11.8056417"><ele>2035.1999999999998</ele><time>2026-05-02T10:08:22.393Z</time></trkpt><trkpt lat="46.5460533" lon="11.805805"><ele>2034.8000000000002</ele><time>2026-05-02T10:08:23.393Z</time></trkpt><trkpt lat="46.54601" lon="11.8059483"><ele>2034.4</ele><time>2026-05-02T10:08:24.393Z</time></trkpt><trkpt lat="46.5459417" lon="11.8060617"><ele>2034.0</ele><time>2026-05-02T10:08:25.392Z</time></trkpt><trkpt lat="46.5458583" lon="11.8061617"><ele>2035.6</ele><time>2026-05-02T10:08:26.393Z</time></trkpt><trkpt lat="46.545775" lon="11.8062683"><ele>2037.2</ele><time>2026-05-02T10:08:27.393Z</time></trkpt><trkpt lat="46.5457017" lon="11.8063917"><ele>2038.7999999999997</ele><time>2026-05-02T10:08:28.392Z</time></trkpt><trkpt lat="46.5456433" lon="11.8065117"><ele>2040.3999999999999</ele><time>2026-05-02T10:08:29.392Z</time></trkpt><trkpt lat="46.5455867" lon="11.8066267"><ele>2042.0</ele><time>2026-05-02T10:08:30.393Z</time></trkpt><trkpt lat="46.5455133" lon="11.8067333"><ele>2042.0</ele><time>2026-05-02T10:08:31.393Z</time></trkpt><trkpt lat="46.5454233" lon="11.8068017"><ele>2042.0</ele><time>2026-05-02T10:08:32.392Z</time></trkpt><trkpt lat="46.5453117" lon="11.8068183"><ele>2042.0</ele><time>2026-05-02T10:08:33.393Z</time></trkpt><trkpt lat="46.545185" lon="11.806775"><ele>2042.0</ele><time>2026-05-02T10:08:34.393Z</time></trkpt><trkpt lat="46.5450533" lon="11.8067017"><ele>2040.75</ele><time>2026-05-02T10:08:35.392Z</time></trkpt><trkpt lat="46.544925" lon="11.8066083"><ele>2039.5</ele><time>2026-05-02T10:08:36.393Z</time></trkpt><trkpt lat="46.5448083" lon="11.8064833"><ele>2038.25</ele><time>2026-05-02T10:08:37.393Z</time></trkpt><trkpt lat="46.544695" lon="11.8063483"><ele>2037.0</ele><time>2026-05-02T10:08:38.393Z</time></trkpt><trkpt lat="46.54457" lon="11.80621"><ele>2040.0</ele><time>2026-05-02T10:08:39.393Z</time></trkpt><trkpt lat="46.544485" lon="11.8060617"><ele>2043.0</ele><time>2026-05-02T10:08:40.393Z</time></trkpt><trkpt lat="46.5443883" lon="11.805905"><ele>2046.0</ele><time>2026-05-02T10:08:41.393Z</time></trkpt><trkpt lat="46.544295" lon="11.8057417"><ele>2049.0</ele><time>2026-05-02T10:08:42.393Z</time></trkpt><trkpt lat="46.5442" lon="11.805575"><ele>2041.0</ele><time>2026-05-02T10:08:43.393Z</time></trkpt><trkpt lat="46.5441067" lon="11.8054067"><ele>2033.0</ele><time>2026-05-02T10:08:44.393Z</time></trkpt><trkpt lat="46.544005" lon="11.8052367"><ele>2025.0</ele><time>2026-05-02T10:08:45.393Z</time></trkpt><trkpt lat="46.5439017" lon="11.805075"><ele>2023.75</ele><time>2026-05-02T10:08:46.393Z</time></trkpt><trkpt lat="46.5438083" lon="11.8049067"><ele>2022.5</ele><time>2026-05-02T10:08:47.393Z</time></trkpt><trkpt lat="46.5437183" lon="11.8047583"><ele>2021.25</ele><time>2026-05-02T10:08:48.393Z</time></trkpt><trkpt lat="46.5436283" lon="11.80461"><ele>2020.0</ele><time>2026-05-02T10:08:49.393Z</time></trkpt><trkpt lat="46.54353" lon="11.8044667"><ele>2020.0</ele><time>2026-05-02T10:08:50.392Z</time></trkpt><trkpt lat="46.543435" lon="11.8043433"><ele>2020.0</ele><time>2026-05-02T10:08:51.393Z</time></trkpt><trkpt lat="46.543325" lon="11.80426"><ele>2020.0</ele><time>2026-05-02T10:08:52.393Z</time></trkpt><trkpt lat="46.5432083" lon="11.8042133"><ele>2020.0</ele><time>2026-05-02T10:08:53.393Z</time></trkpt><trkpt lat="46.5430833" lon="11.8042067"><ele>2016.75</ele><time>2026-05-02T10:08:54.393Z</time></trkpt><trkpt lat="46.542965" lon="11.804225"><ele>2013.5</ele><time>2026-05-02T10:08:55.393Z</time></trkpt><trkpt lat="46.5428383" lon="11.8042783"><ele>2010.25</ele><time>2026-05-02T10:08:56.393Z</time></trkpt><trkpt lat="46.5427217" lon="11.8043383"><ele>2007.0</ele><time>2026-05-02T10:08:57.393Z</time></trkpt><trkpt lat="46.5426033" lon="11.8043733"><ele>2006.25</ele><time>2026-05-02T10:08:58.393Z</time></trkpt><trkpt lat="46.5424917" lon="11.8043683"><ele>2005.5</ele><time>2026-05-02T10:08:59.393Z</time></trkpt><trkpt lat="46.5423717" lon="11.804315"><ele>2004.75</ele><time>2026-05-02T10:09:00.393Z</time></trkpt><trkpt lat="46.5422533" lon="11.804215"><ele>2004.0</ele><time>2026-05-02T10:09:01.393Z</time></trkpt><trkpt lat="46.5421383" lon="11.8040783"><ele>2005.25</ele><time>2026-05-02T10:09:02.393Z</time></trkpt><trkpt lat="46.5420417" lon="11.803915"><ele>2006.5</ele><time>2026-05-02T10:09:03.393Z</time></trkpt><trkpt lat="46.5419433" lon="11.80375"><ele>2007.75</ele><time>2026-05-02T10:09:04.393Z</time></trkpt><trkpt lat="46.5418733" lon="11.8035783"><ele>2009.0</ele><time>2026-05-02T10:09:05.393Z</time></trkpt><trkpt lat="46.5418033" lon="11.8034017"><ele>2009.0</ele><time>2026-05-02T10:09:06.392Z</time></trkpt><trkpt lat="46.5417183" lon="11.8032433"><ele>2009.0</ele><time>2026-05-02T10:09:07.392Z</time></trkpt><trkpt lat="46.54161" lon="11.803115"><ele>2009.0</ele><time>2026-05-02T10:09:08.393Z</time></trkpt><trkpt lat="46.5414967" lon="11.802995"><ele>2009.0</ele><time>2026-05-02T10:09:09.393Z</time></trkpt><trkpt lat="46.54138" lon="11.8028833"><ele>2009.0</ele><time>2026-05-02T10:09:10.393Z</time></trkpt><trkpt lat="46.5412667" lon="11.8027733"><ele>2009.0</ele><time>2026-05-02T10:09:11.393Z</time></trkpt><trkpt lat="46.541175" lon="11.8026417"><ele>2009.0</ele><time>2026-05-02T10:09:12.393Z</time></trkpt><trkpt lat="46.5411133" lon="11.8024767"><ele>2009.0</ele><time>2026-05-02T10:09:13.392Z</time></trkpt><trkpt lat="46.5410867" lon="11.8022783"><ele>2009.6666666666665</ele><time>2026-05-02T10:09:14.393Z</time></trkpt><trkpt lat="46.5410633" lon="11.8020567"><ele>2010.3333333333335</ele><time>2026-05-02T10:09:15.392Z</time></trkpt><trkpt lat="46.5410367" lon="11.8018267"><ele>2011.0</ele><time>2026-05-02T10:09:16.393Z</time></trkpt><trkpt lat="46.5410067" lon="11.8015967"><ele>2011.0</ele><time>2026-05-02T10:09:17.393Z</time></trkpt><trkpt lat="46.540965" lon="11.8013883"><ele>2011.0</ele><time>2026-05-02T10:09:18.393Z</time></trkpt><trkpt lat="46.54092" lon="11.8012033"><ele>2011.0</ele><time>2026-05-02T10:09:19.393Z</time></trkpt><trkpt lat="46.5408733" lon="11.801025"><ele>2011.0</ele><time>2026-05-02T10:09:20.393Z</time></trkpt><trkpt lat="46.5408267" lon="11.80086"><ele>2011.0</ele><time>2026-05-02T10:09:21.393Z</time></trkpt><trkpt lat="46.54077" lon="11.8006883"><ele>2011.0</ele><time>2026-05-02T10:09:22.393Z</time></trkpt><trkpt lat="46.5407017" lon="11.8005083"><ele>2011.0</ele><time>2026-05-02T10:09:23.393Z</time></trkpt><trkpt lat="46.5406167" lon="11.8003367"><ele>2011.0</ele><time>2026-05-02T10:09:24.393Z</time></trkpt><trkpt lat="46.5405167" lon="11.8001633"><ele>2011.6666666666667</ele><time>2026-05-02T10:09:25.392Z</time></trkpt><trkpt lat="46.540395" lon="11.7999933"><ele>2012.3333333333335</ele><time>2026-05-02T10:09:26.393Z</time></trkpt><trkpt lat="46.54027" lon="11.7998167"><ele>2013.0</ele><time>2026-05-02T10:09:27.393Z</time></trkpt><trkpt lat="46.54014" lon="11.799635"><ele>2013.0</ele><time>2026-05-02T10:09:28.393Z</time></trkpt><trkpt lat="46.5400367" lon="11.7994433"><ele>2013.0</ele><time>2026-05-02T10:09:29.392Z</time></trkpt><trkpt lat="46.5399483" lon="11.7992417"><ele>2013.0</ele><time>2026-05-02T10:09:30.393Z</time></trkpt><trkpt lat="46.5398733" lon="11.7990267"><ele>2011.0</ele><time>2026-05-02T10:09:31.393Z</time></trkpt><trkpt lat="46.5398083" lon="11.7988033"><ele>2009.0</ele><time>2026-05-02T10:09:32.393Z</time></trkpt><trkpt lat="46.5397583" lon="11.7985567"><ele>2007.0</ele><time>2026-05-02T10:09:33.393Z</time></trkpt><trkpt lat="46.5397233" lon="11.7983067"><ele>2006.0</ele><time>2026-05-02T10:09:34.393Z</time></trkpt><trkpt lat="46.5397" lon="11.7980467"><ele>2005.0</ele><time>2026-05-02T10:09:35.393Z</time></trkpt><trkpt lat="46.53969" lon="11.7977983"><ele>2004.0</ele><time>2026-05-02T10:09:36.393Z</time></trkpt><trkpt lat="46.5396733" lon="11.7975633"><ele>2003.0</ele><time>2026-05-02T10:09:37.393Z</time></trkpt><trkpt lat="46.539645" lon="11.7973467"><ele>2002.0</ele><time>2026-05-02T10:09:38.393Z</time></trkpt><trkpt lat="46.5395917" lon="11.7971467"><ele>2001.0</ele><time>2026-05-02T10:09:39.393Z</time></trkpt><trkpt lat="46.539515" lon="11.7969517"><ele>2005.0</ele><time>2026-05-02T10:09:40.393Z</time></trkpt><trkpt lat="46.5394417" lon="11.7967467"><ele>2009.0</ele><time>2026-05-02T10:09:41.393Z</time></trkpt><trkpt lat="46.5393783" lon="11.7965467"><ele>2013.0</ele><time>2026-05-02T10:09:42.393Z</time></trkpt><trkpt lat="46.5393417" lon="11.7963533"><ele>2017.0</ele><time>2026-05-02T10:09:43.393Z</time></trkpt><trkpt lat="46.5393333" lon="11.7961583"><ele>2018.25</ele><time>2026-05-02T10:09:44.393Z</time></trkpt><trkpt lat="46.5393567" lon="11.79597"><ele>2019.5</ele><time>2026-05-02T10:09:45.393Z</time></trkpt><trkpt lat="46.5393983" lon="11.795785"><ele>2020.75</ele><time>2026-05-02T10:09:46.392Z</time></trkpt><trkpt lat="46.5394317" lon="11.7956067"><ele>2022.0</ele><time>2026-05-02T10:09:47.393Z</time></trkpt><trkpt lat="46.539445" lon="11.79542"><ele>2022.0</ele><time>2026-05-02T10:09:48.393Z</time></trkpt><trkpt lat="46.539435" lon="11.795215"><ele>2022.0</ele><time>2026-05-02T10:09:49.393Z</time></trkpt><trkpt lat="46.5394083" lon="11.7949983"><ele>2022.0</ele><time>2026-05-02T10:09:50.393Z</time></trkpt><trkpt lat="46.5393617" lon="11.7947833"><ele>2022.0</ele><time>2026-05-02T10:09:51.393Z</time></trkpt><trkpt lat="46.5393067" lon="11.79456"><ele>2019.3333333333335</ele><time>2026-05-02T10:09:52.392Z</time></trkpt><trkpt lat="46.539245" lon="11.7943283"><ele>2016.6666666666667</ele><time>2026-05-02T10:09:53.393Z</time></trkpt><trkpt lat="46.5391883" lon="11.7940833"><ele>2014.0</ele><time>2026-05-02T10:09:54.393Z</time></trkpt><trkpt lat="46.539135" lon="11.79383"><ele>2014.0</ele><time>2026-05-02T10:09:55.392Z</time></trkpt><trkpt lat="46.5390783" lon="11.79358"><ele>2014.0</ele><time>2026-05-02T10:09:56.392Z</time></trkpt><trkpt lat="46.5390083" lon="11.79334"><ele>2014.0</ele><time>2026-05-02T10:09:57.393Z</time></trkpt><trkpt lat="46.5389217" lon="11.793105"><ele>2018.6666666666667</ele><time>2026-05-02T10:09:58.392Z</time></trkpt><trkpt lat="46.5388317" lon="11.7928767"><ele>2023.3333333333335</ele><time>2026-05-02T10:09:59.393Z</time></trkpt><trkpt lat="46.538725" lon="11.7926583"><ele>2028.0</ele><time>2026-05-02T10:10:00.393Z</time></trkpt><trkpt lat="46.5386233" lon="11.7924383"><ele>2028.0</ele><time>2026-05-02T10:10:01.393Z</time></trkpt><trkpt lat="46.53853" lon="11.7922133"><ele>2028.0</ele><time>2026-05-02T10:10:02.393Z</time></trkpt><trkpt lat="46.538435" lon="11.7919883"><ele>2028.0</ele><time>2026-05-02T10:10:03.393Z</time></trkpt><trkpt lat="46.5383383" lon="11.791765"><ele>2023.3333333333335</ele><time>2026-05-02T10:10:04.393Z</time></trkpt><trkpt lat="46.5382483" lon="11.7915383"><ele>2018.6666666666667</ele><time>2026-05-02T10:10:05.393Z</time></trkpt><trkpt lat="46.5381767" lon="11.7913083"><ele>2014.0</ele><time>2026-05-02T10:10:06.394Z</time></trkpt><trkpt lat="46.538125" lon="11.7910733"><ele>2009.3333333333335</ele><time>2026-05-02T10:10:07.394Z</time></trkpt><trkpt lat="46.53808" lon="11.790835"><ele>2004.6666666666665</ele><time>2026-05-02T10:10:08.393Z</time></trkpt><trkpt lat="46.5380383" lon="11.7905917"><ele>2000.0</ele><time>2026-05-02T10:10:09.394Z</time></trkpt><trkpt lat="46.5380033" lon="11.790355"><ele>1998.3333333333333</ele><time>2026-05-02T10:10:10.394Z</time></trkpt><trkpt lat="46.53796" lon="11.7901133"><ele>1996.6666666666665</ele><time>2026-05-02T10:10:11.393Z</time></trkpt><trkpt lat="46.537925" lon="11.7898817"><ele>1995.0</ele><time>2026-05-02T10:10:12.394Z</time></trkpt><trkpt lat="46.5378817" lon="11.78967"><ele>2006.0</ele><time>2026-05-02T10:10:13.393Z</time></trkpt><trkpt lat="46.537835" lon="11.78946"><ele>2017.0</ele><time>2026-05-02T10:10:14.394Z</time></trkpt><trkpt lat="46.537765" lon="11.7892567"><ele>2028.0</ele><time>2026-05-02T10:10:15.394Z</time></trkpt><trkpt lat="46.5376733" lon="11.78906"><ele>2028.0</ele><time>2026-05-02T10:10:16.394Z</time></trkpt><trkpt lat="46.53757" lon="11.7888667"><ele>2028.0</ele><time>2026-05-02T10:10:17.393Z</time></trkpt><trkpt lat="46.53747" lon="11.7886567"><ele>2028.0</ele><time>2026-05-02T10:10:18.394Z</time></trkpt><trkpt lat="46.5373833" lon="11.7884433"><ele>2023.6666666666665</ele><time>2026-05-02T10:10:19.394Z</time></trkpt><trkpt lat="46.53731" lon="11.7882517"><ele>2019.3333333333333</ele><time>2026-05-02T10:10:20.394Z</time></trkpt><trkpt lat="46.537235" lon="11.7880483"><ele>2015.0</ele><time>2026-05-02T10:10:21.394Z</time></trkpt><trkpt lat="46.5371633" lon="11.7878567"><ele>2012.75</ele><time>2026-05-02T10:10:22.394Z</time></trkpt><trkpt lat="46.5370967" lon="11.787675"><ele>2010.5</ele><time>2026-05-02T10:10:23.393Z</time></trkpt><trkpt lat="46.537035" lon="11.7874933"><ele>2008.25</ele><time>2026-05-02T10:10:24.394Z</time></trkpt><trkpt lat="46.5369817" lon="11.7873167"><ele>2006.0</ele><time>2026-05-02T10:10:25.394Z</time></trkpt><trkpt lat="46.536945" lon="11.7871417"><ele>2005.25</ele><time>2026-05-02T10:10:26.394Z</time></trkpt><trkpt lat="46.536945" lon="11.7869533"><ele>2004.5</ele><time>2026-05-02T10:10:27.394Z</time></trkpt><trkpt lat="46.536965" lon="11.7867567"><ele>2003.75</ele><time>2026-05-02T10:10:28.393Z</time></trkpt><trkpt lat="46.5370133" lon="11.7865417"><ele>2003.0</ele><time>2026-05-02T10:10:29.394Z</time></trkpt><trkpt lat="46.537065" lon="11.7863167"><ele>2003.0</ele><time>2026-05-02T10:10:30.394Z</time></trkpt><trkpt lat="46.53713" lon="11.7860867"><ele>2003.0</ele><time>2026-05-02T10:10:31.393Z</time></trkpt><trkpt lat="46.5372" lon="11.78586"><ele>2003.0</ele><time>2026-05-02T10:10:32.393Z</time></trkpt><trkpt lat="46.5372683" lon="11.7856567"><ele>2005.25</ele><time>2026-05-02T10:10:33.394Z</time></trkpt><trkpt lat="46.5373433" lon="11.7854583"><ele>2007.5</ele><time>2026-05-02T10:10:34.394Z</time></trkpt><trkpt lat="46.5374267" lon="11.7852817"><ele>2009.75</ele><time>2026-05-02T10:10:35.394Z</time></trkpt><trkpt lat="46.53751" lon="11.7851133"><ele>2012.0</ele><time>2026-05-02T10:10:36.393Z</time></trkpt><trkpt lat="46.5375683" lon="11.7849317"><ele>2014.25</ele><time>2026-05-02T10:10:37.394Z</time></trkpt><trkpt lat="46.5376117" lon="11.7847617"><ele>2016.5</ele><time>2026-05-02T10:10:38.394Z</time></trkpt><trkpt lat="46.537675" lon="11.7846"><ele>2018.75</ele><time>2026-05-02T10:10:39.394Z</time></trkpt><trkpt lat="46.53775" lon="11.78447"><ele>2021.0</ele><time>2026-05-02T10:10:40.394Z</time></trkpt><trkpt lat="46.53786" lon="11.7843417"><ele>2018.0</ele><time>2026-05-02T10:10:41.394Z</time></trkpt><trkpt lat="46.5379767" lon="11.7842133"><ele>2015.0</ele><time>2026-05-02T10:10:42.394Z</time></trkpt><trkpt lat="46.5380933" lon="11.784075"><ele>2012.0</ele><time>2026-05-02T10:10:43.393Z</time></trkpt><trkpt lat="46.5382033" lon="11.7839433"><ele>2009.0</ele><time>2026-05-02T10:10:44.394Z</time></trkpt><trkpt lat="46.538295" lon="11.7838217"><ele>2008.9999999999998</ele><time>2026-05-02T10:10:45.394Z</time></trkpt><trkpt lat="46.5383717" lon="11.78373"><ele>2009.0</ele><time>2026-05-02T10:10:46.394Z</time></trkpt><trkpt lat="46.5384283" lon="11.78364"><ele>2009.0</ele><time>2026-05-02T10:10:47.394Z</time></trkpt><trkpt lat="46.5384733" lon="11.7835467"><ele>2009.0</ele><time>2026-05-02T10:10:48.394Z</time></trkpt><trkpt lat="46.5384833" lon="11.78344"><ele>2008.9999999999998</ele><time>2026-05-02T10:10:49.394Z</time></trkpt><trkpt lat="46.53846" lon="11.78334"><ele>2009.0</ele><time>2026-05-02T10:10:50.394Z</time></trkpt><trkpt lat="46.5384067" lon="11.783265"><ele>2010.5</ele><time>2026-05-02T10:10:51.394Z</time></trkpt><trkpt lat="46.5383417" lon="11.783215"><ele>2012.0</ele><time>2026-05-02T10:10:52.394Z</time></trkpt><trkpt lat="46.53826" lon="11.7832133"><ele>2013.5</ele><time>2026-05-02T10:10:53.394Z</time></trkpt><trkpt lat="46.5381183" lon="11.7832683"><ele>2015.0</ele><time>2026-05-02T10:10:54.394Z</time></trkpt><trkpt lat="46.53797" lon="11.7833317"><ele>2013.5</ele><time>2026-05-02T10:10:55.393Z</time></trkpt><trkpt lat="46.5378233" lon="11.7833967"><ele>2012.0</ele><time>2026-05-02T10:10:56.394Z</time></trkpt><trkpt lat="46.5376817" lon="11.78345"><ele>2010.5</ele><time>2026-05-02T10:10:57.394Z</time></trkpt><trkpt lat="46.537545" lon="11.7834867"><ele>2009.0</ele><time>2026-05-02T10:10:58.394Z</time></trkpt><trkpt lat="46.5374033" lon="11.7834933"><ele>2009.0</ele><time>2026-05-02T10:10:59.394Z</time></trkpt><trkpt lat="46.53727" lon="11.78346"><ele>2009.0</ele><time>2026-05-02T10:11:00.393Z</time></trkpt><trkpt lat="46.5371417" lon="11.783395"><ele>2009.0</ele><time>2026-05-02T10:11:01.394Z</time></trkpt><trkpt lat="46.537015" lon="11.7833167"><ele>2009.0</ele><time>2026-05-02T10:11:02.393Z</time></trkpt><trkpt lat="46.5368833" lon="11.783235"><ele>2008.0</ele><time>2026-05-02T10:11:03.394Z</time></trkpt><trkpt lat="46.53675" lon="11.7831533"><ele>2007.0</ele><time>2026-05-02T10:11:04.394Z</time></trkpt><trkpt lat="46.5366183" lon="11.783065"><ele>2006.0</ele><time>2026-05-02T10:11:05.394Z</time></trkpt><trkpt lat="46.536475" lon="11.7829817"><ele>2005.0</ele><time>2026-05-02T10:11:06.393Z</time></trkpt><trkpt lat="46.5363333" lon="11.7828967"><ele>2007.3333333333335</ele><time>2026-05-02T10:11:07.394Z</time></trkpt><trkpt lat="46.53619" lon="11.782815"><ele>2009.6666666666665</ele><time>2026-05-02T10:11:08.394Z</time></trkpt><trkpt lat="46.5360467" lon="11.7827283"><ele>2012.0</ele><time>2026-05-02T10:11:09.394Z</time></trkpt><trkpt lat="46.5359083" lon="11.7826467"><ele>2006.5</ele><time>2026-05-02T10:11:10.394Z</time></trkpt><trkpt lat="46.5357767" lon="11.7825667"><ele>2001.0</ele><time>2026-05-02T10:11:11.393Z</time></trkpt><trkpt lat="46.5356433" lon="11.7824917"><ele>1995.5</ele><time>2026-05-02T10:11:12.393Z</time></trkpt><trkpt lat="46.5355233" lon="11.7824183"><ele>1990.0</ele><time>2026-05-02T10:11:13.393Z</time></trkpt><trkpt lat="46.5354" lon="11.782375"><ele>1989.5000000000002</ele><time>2026-05-02T10:11:14.393Z</time></trkpt><trkpt lat="46.53529" lon="11.782365"><ele>1989.0</ele><time>2026-05-02T10:11:15.394Z</time></trkpt><trkpt lat="46.5351967" lon="11.7823883"><ele>1988.5</ele><time>2026-05-02T10:11:16.393Z</time></trkpt><trkpt lat="46.5351183" lon="11.7824317"><ele>1988.0</ele><time>2026-05-02T10:11:17.393Z</time></trkpt><trkpt lat="46.5350533" lon="11.7824833"><ele>1987.5000000000002</ele><time>2026-05-02T10:11:18.394Z</time></trkpt><trkpt lat="46.5349967" lon="11.78254"><ele>1987.0</ele><time>2026-05-02T10:11:19.393Z</time></trkpt><trkpt lat="46.5349183" lon="11.78266"><ele>1987.0</ele><time>2026-05-02T10:11:21.394Z</time></trkpt><trkpt lat="46.5348417" lon="11.7827317"><ele>1986.9999999999998</ele><time>2026-05-02T10:11:23.394Z</time></trkpt><trkpt lat="46.5347783" lon="11.7826767"><ele>1986.9999999999998</ele><time>2026-05-02T10:11:25.393Z</time></trkpt><trkpt lat="46.5348033" lon="11.7825283"><ele>1987.0</ele><time>2026-05-02T10:11:27.394Z</time></trkpt><trkpt lat="46.5348767" lon="11.7824383"><ele>1987.0</ele><time>2026-05-02T10:11:28.393Z</time></trkpt><trkpt lat="46.534955" lon="11.7823383"><ele>1987.0</ele><time>2026-05-02T10:11:29.393Z</time></trkpt><trkpt lat="46.5350217" lon="11.7822317"><ele>1986.9999999999998</ele><time>2026-05-02T10:11:30.394Z</time></trkpt><trkpt lat="46.5350783" lon="11.7821183"><ele>1986.9999999999998</ele><time>2026-05-02T10:11:31.394Z</time></trkpt><trkpt lat="46.535125" lon="11.7819983"><ele>1987.0</ele><time>2026-05-02T10:11:32.394Z</time></trkpt><trkpt lat="46.535165" lon="11.7818733"><ele>1987.0</ele><time>2026-05-02T10:11:33.394Z</time></trkpt><trkpt lat="46.535215" lon="11.7817417"><ele>1984.75</ele><time>2026-05-02T10:11:34.394Z</time></trkpt><trkpt lat="46.535265" lon="11.7816117"><ele>1982.5</ele><time>2026-05-02T10:11:35.393Z</time></trkpt><trkpt lat="46.5353417" lon="11.7814783"><ele>1980.25</ele><time>2026-05-02T10:11:36.394Z</time></trkpt><trkpt lat="46.5354317" lon="11.7813583"><ele>1978.0</ele><time>2026-05-02T10:11:37.394Z</time></trkpt><trkpt lat="46.5355217" lon="11.7812483"><ele>1978.0</ele><time>2026-05-02T10:11:38.394Z</time></trkpt><trkpt lat="46.5356033" lon="11.7811367"><ele>1978.0000000000002</ele><time>2026-05-02T10:11:39.394Z</time></trkpt><trkpt lat="46.535665" lon="11.7810083"><ele>1978.0000000000002</ele><time>2026-05-02T10:11:40.394Z</time></trkpt><trkpt lat="46.5357183" lon="11.78087"><ele>1978.0</ele><time>2026-05-02T10:11:41.394Z</time></trkpt><trkpt lat="46.535765" lon="11.780735"><ele>1978.0</ele><time>2026-05-02T10:11:42.394Z</time></trkpt><trkpt lat="46.5358117" lon="11.7806"><ele>1976.0</ele><time>2026-05-02T10:11:43.394Z</time></trkpt><trkpt lat="46.5358583" lon="11.7804817"><ele>1974.0000000000002</ele><time>2026-05-02T10:11:44.393Z</time></trkpt><trkpt lat="46.5358967" lon="11.7803583"><ele>1972.0000000000002</ele><time>2026-05-02T10:11:45.394Z</time></trkpt><trkpt lat="46.5359367" lon="11.7802433"><ele>1970.0</ele><time>2026-05-02T10:11:46.393Z</time></trkpt><trkpt lat="46.5359783" lon="11.7801267"><ele>1968.0</ele><time>2026-05-02T10:11:47.393Z</time></trkpt><trkpt lat="46.53602" lon="11.7799967"><ele>1966.8333333333333</ele><time>2026-05-02T10:11:48.394Z</time></trkpt><trkpt lat="46.5360617" lon="11.779865"><ele>1965.6666666666665</ele><time>2026-05-02T10:11:49.394Z</time></trkpt><trkpt lat="46.5361" lon="11.77974"><ele>1964.5</ele><time>2026-05-02T10:11:50.394Z</time></trkpt><trkpt lat="46.5361417" lon="11.779615"><ele>1963.3333333333333</ele><time>2026-05-02T10:11:51.394Z</time></trkpt><trkpt lat="46.5361783" lon="11.7795067"><ele>1962.1666666666665</ele><time>2026-05-02T10:11:52.394Z</time></trkpt><trkpt lat="46.5362067" lon="11.7794217"><ele>1961.0</ele><time>2026-05-02T10:11:53.393Z</time></trkpt><trkpt lat="46.5362633" lon="11.7792583"><ele>1961.0000000000002</ele><time>2026-05-02T10:11:55.394Z</time></trkpt><trkpt lat="46.5362933" lon="11.7791683"><ele>1961.0</ele><time>2026-05-02T10:11:56.394Z</time></trkpt><trkpt lat="46.5363267" lon="11.7790767"><ele>1961.0000000000002</ele><time>2026-05-02T10:11:57.394Z</time></trkpt><trkpt lat="46.53636" lon="11.7789833"><ele>1961.0000000000002</ele><time>2026-05-02T10:11:58.394Z</time></trkpt><trkpt lat="46.536395" lon="11.7788883"><ele>1961.0</ele><time>2026-05-02T10:11:59.394Z</time></trkpt><trkpt lat="46.53643" lon="11.77879"><ele>1961.0000000000002</ele><time>2026-05-02T10:12:00.394Z</time></trkpt><trkpt lat="46.5364667" lon="11.7787033"><ele>1961.0000000000002</ele><time>2026-05-02T10:12:01.394Z</time></trkpt><trkpt lat="46.5364983" lon="11.778605"><ele>1959.1999999999998</ele><time>2026-05-02T10:12:03.393Z</time></trkpt><trkpt lat="46.536525" lon="11.7784433"><ele>1957.3999999999999</ele><time>2026-05-02T10:15:36.393Z</time></trkpt><trkpt lat="46.53656" lon="11.778345"><ele>1955.6</ele><time>2026-05-02T10:15:37.393Z</time></trkpt><trkpt lat="46.536605" lon="11.7782383"><ele>1953.8</ele><time>2026-05-02T10:15:38.394Z</time></trkpt><trkpt lat="46.53666" lon="11.7781267"><ele>1952.0</ele><time>2026-05-02T10:15:39.394Z</time></trkpt><trkpt lat="46.5367283" lon="11.778035"><ele>1952.0</ele><time>2026-05-02T10:15:40.393Z</time></trkpt><trkpt lat="46.5368067" lon="11.777965"><ele>1951.9999999999998</ele><time>2026-05-02T10:15:41.393Z</time></trkpt><trkpt lat="46.5368983" lon="11.7779183"><ele>1951.9999999999998</ele><time>2026-05-02T10:15:42.393Z</time></trkpt><trkpt lat="46.5369983" lon="11.7778883"><ele>1952.0</ele><time>2026-05-02T10:15:43.394Z</time></trkpt><trkpt lat="46.5370967" lon="11.77788"><ele>1952.0</ele><time>2026-05-02T10:15:44.394Z</time></trkpt><trkpt lat="46.5372083" lon="11.7778617"><ele>1950.1999999999998</ele><time>2026-05-02T10:15:45.394Z</time></trkpt><trkpt lat="46.5373167" lon="11.7778417"><ele>1948.3999999999999</ele><time>2026-05-02T10:15:46.394Z</time></trkpt><trkpt lat="46.5374217" lon="11.7778117"><ele>1946.6000000000001</ele><time>2026-05-02T10:15:47.394Z</time></trkpt><trkpt lat="46.53752" lon="11.7777617"><ele>1944.8000000000002</ele><time>2026-05-02T10:15:48.394Z</time></trkpt><trkpt lat="46.5376017" lon="11.7777033"><ele>1943.0</ele><time>2026-05-02T10:15:49.394Z</time></trkpt><trkpt lat="46.5376683" lon="11.777625"><ele>1943.0</ele><time>2026-05-02T10:15:50.394Z</time></trkpt><trkpt lat="46.5377083" lon="11.77751"><ele>1943.0000000000002</ele><time>2026-05-02T10:15:51.394Z</time></trkpt><trkpt lat="46.537725" lon="11.777375"><ele>1943.0000000000002</ele><time>2026-05-02T10:15:52.394Z</time></trkpt><trkpt lat="46.5377317" lon="11.7772333"><ele>1943.0</ele><time>2026-05-02T10:15:53.394Z</time></trkpt><trkpt lat="46.53774" lon="11.7770833"><ele>1943.0</ele><time>2026-05-02T10:15:54.393Z</time></trkpt><trkpt lat="46.5377717" lon="11.7769433"><ele>1940.9999999999998</ele><time>2026-05-02T10:15:55.393Z</time></trkpt><trkpt lat="46.53782" lon="11.7768217"><ele>1939.0</ele><time>2026-05-02T10:15:56.394Z</time></trkpt><trkpt lat="46.5378717" lon="11.7767133"><ele>1937.0</ele><time>2026-05-02T10:15:57.394Z</time></trkpt><trkpt lat="46.5378983" lon="11.7765933"><ele>1935.0</ele><time>2026-05-02T10:15:58.394Z</time></trkpt><trkpt lat="46.53791" lon="11.7764883"><ele>1932.9999999999998</ele><time>2026-05-02T10:15:59.394Z</time></trkpt><trkpt lat="46.53789" lon="11.7763717"><ele>1931.0</ele><time>2026-05-02T10:16:00.394Z</time></trkpt><trkpt lat="46.53787" lon="11.7762533"><ele>1930.9999999999998</ele><time>2026-05-02T10:16:01.393Z</time></trkpt><trkpt lat="46.537845" lon="11.7761433"><ele>1931.0</ele><time>2026-05-02T10:16:02.393Z</time></trkpt><trkpt lat="46.53782" lon="11.7760183"><ele>1931.0</ele><time>2026-05-02T10:16:03.393Z</time></trkpt><trkpt lat="46.537785" lon="11.7758983"><ele>1931.0</ele><time>2026-05-02T10:16:04.394Z</time></trkpt><trkpt lat="46.5377583" lon="11.775795"><ele>1930.9999999999998</ele><time>2026-05-02T10:16:05.394Z</time></trkpt><trkpt lat="46.5377517" lon="11.7756967"><ele>1931.0</ele><time>2026-05-02T10:16:06.393Z</time></trkpt><trkpt lat="46.537755" lon="11.775595"><ele>1930.1666666666665</ele><time>2026-05-02T10:16:07.394Z</time></trkpt><trkpt lat="46.5377783" lon="11.7754933"><ele>1929.3333333333333</ele><time>2026-05-02T10:16:08.394Z</time></trkpt><trkpt lat="46.5378167" lon="11.775395"><ele>1928.5</ele><time>2026-05-02T10:16:09.394Z</time></trkpt><trkpt lat="46.5378617" lon="11.7753133"><ele>1927.6666666666665</ele><time>2026-05-02T10:16:10.394Z</time></trkpt><trkpt lat="46.5378933" lon="11.7751833"><ele>1926.8333333333333</ele><time>2026-05-02T10:16:12.394Z</time></trkpt><trkpt lat="46.5378383" lon="11.775085"><ele>1926.0</ele><time>2026-05-02T10:16:14.394Z</time></trkpt><trkpt lat="46.5377533" lon="11.7751317"><ele>1926.0</ele><time>2026-05-02T10:16:16.394Z</time></trkpt><trkpt lat="46.5377117" lon="11.7752183"><ele>1926.0</ele><time>2026-05-02T10:16:17.394Z</time></trkpt><trkpt lat="46.537675" lon="11.7753367"><ele>1926.0</ele><time>2026-05-02T10:16:18.394Z</time></trkpt><trkpt lat="46.537645" lon="11.7754683"><ele>1926.0</ele><time>2026-05-02T10:16:19.394Z</time></trkpt><trkpt lat="46.53761" lon="11.775595"><ele>1926.0</ele><time>2026-05-02T10:16:20.393Z</time></trkpt><trkpt lat="46.5375617" lon="11.7757233"><ele>1926.0</ele><time>2026-05-02T10:16:21.393Z</time></trkpt><trkpt lat="46.537495" lon="11.7758333"><ele>1926.0</ele><time>2026-05-02T10:16:22.394Z</time></trkpt><trkpt lat="46.5374367" lon="11.7759367"><ele>1926.0</ele><time>2026-05-02T10:16:23.394Z</time></trkpt><trkpt lat="46.5373917" lon="11.7760567"><ele>1926.0</ele><time>2026-05-02T10:16:24.393Z</time></trkpt><trkpt lat="46.5373717" lon="11.7761733"><ele>1926.0</ele><time>2026-05-02T10:16:25.394Z</time></trkpt><trkpt lat="46.5373633" lon="11.7763017"><ele>1926.8333333333333</ele><time>2026-05-02T10:16:26.394Z</time></trkpt><trkpt lat="46.5373533" lon="11.7764367"><ele>1927.6666666666665</ele><time>2026-05-02T10:16:27.394Z</time></trkpt><trkpt lat="46.537325" lon="11.7765533"><ele>1928.5</ele><time>2026-05-02T10:16:28.394Z</time></trkpt><trkpt lat="46.5372783" lon="11.7766533"><ele>1929.3333333333333</ele><time>2026-05-02T10:16:29.394Z</time></trkpt><trkpt lat="46.537215" lon="11.7767283"><ele>1930.1666666666665</ele><time>2026-05-02T10:16:30.394Z</time></trkpt><trkpt lat="46.5371317" lon="11.7767867"><ele>1931.0</ele><time>2026-05-02T10:16:31.394Z</time></trkpt><trkpt lat="46.537045" lon="11.77684"><ele>1931.3333333333333</ele><time>2026-05-02T10:16:32.394Z</time></trkpt><trkpt lat="46.5369567" lon="11.7768833"><ele>1931.6666666666665</ele><time>2026-05-02T10:16:33.394Z</time></trkpt><trkpt lat="46.536865" lon="11.7769083"><ele>1932.0</ele><time>2026-05-02T10:16:34.394Z</time></trkpt><trkpt lat="46.5367783" lon="11.7769267"><ele>1932.3333333333335</ele><time>2026-05-02T10:16:35.394Z</time></trkpt><trkpt lat="46.5367" lon="11.77691"><ele>1932.6666666666667</ele><time>2026-05-02T10:16:36.394Z</time></trkpt><trkpt lat="46.5366183" lon="11.7768667"><ele>1933.0</ele><time>2026-05-02T10:16:37.394Z</time></trkpt><trkpt lat="46.5365417" lon="11.776785"><ele>1929.3333333333335</ele><time>2026-05-02T10:16:38.393Z</time></trkpt><trkpt lat="46.5364683" lon="11.7766817"><ele>1925.6666666666667</ele><time>2026-05-02T10:16:39.393Z</time></trkpt><trkpt lat="46.5364" lon="11.776585"><ele>1922.0</ele><time>2026-05-02T10:16:40.394Z</time></trkpt><trkpt lat="46.536325" lon="11.7765183"><ele>1918.3333333333335</ele><time>2026-05-02T10:16:41.394Z</time></trkpt><trkpt lat="46.53625" lon="11.776475"><ele>1914.6666666666667</ele><time>2026-05-02T10:16:42.393Z</time></trkpt><trkpt lat="46.5361733" lon="11.77645"><ele>1911.0</ele><time>2026-05-02T10:16:43.393Z</time></trkpt><trkpt lat="46.53609" lon="11.77646"><ele>1909.8</ele><time>2026-05-02T10:16:44.393Z</time></trkpt><trkpt lat="46.5360017" lon="11.7764967"><ele>1908.6</ele><time>2026-05-02T10:16:45.394Z</time></trkpt><trkpt lat="46.5359167" lon="11.7765383"><ele>1907.4</ele><time>2026-05-02T10:16:46.393Z</time></trkpt><trkpt lat="46.5358317" lon="11.776585"><ele>1906.2</ele><time>2026-05-02T10:16:47.394Z</time></trkpt><trkpt lat="46.53574" lon="11.7766433"><ele>1905.0</ele><time>2026-05-02T10:16:48.394Z</time></trkpt><trkpt lat="46.5356467" lon="11.7767"><ele>1905.0</ele><time>2026-05-02T10:16:49.393Z</time></trkpt><trkpt lat="46.535555" lon="11.7767567"><ele>1905.0</ele><time>2026-05-02T10:16:50.394Z</time></trkpt><trkpt lat="46.5354617" lon="11.776795"><ele>1905.0</ele><time>2026-05-02T10:16:51.394Z</time></trkpt><trkpt lat="46.5353783" lon="11.776825"><ele>1905.0</ele><time>2026-05-02T10:16:52.394Z</time></trkpt><trkpt lat="46.5352983" lon="11.7768583"><ele>1905.0</ele><time>2026-05-02T10:16:53.394Z</time></trkpt><trkpt lat="46.5352167" lon="11.7769017"><ele>1905.8</ele><time>2026-05-02T10:16:54.394Z</time></trkpt><trkpt lat="46.535135" lon="11.7769633"><ele>1906.6</ele><time>2026-05-02T10:16:55.394Z</time></trkpt><trkpt lat="46.5350583" lon="11.7770417"><ele>1907.4</ele><time>2026-05-02T10:16:56.393Z</time></trkpt><trkpt lat="46.5349883" lon="11.77712"><ele>1908.2</ele><time>2026-05-02T10:16:57.393Z</time></trkpt><trkpt lat="46.53492" lon="11.7772133"><ele>1909.0</ele><time>2026-05-02T10:16:58.394Z</time></trkpt><trkpt lat="46.53485" lon="11.7773067"><ele>1909.0000000000002</ele><time>2026-05-02T10:16:59.394Z</time></trkpt><trkpt lat="46.53477" lon="11.7774017"><ele>1909.0</ele><time>2026-05-02T10:17:00.394Z</time></trkpt><trkpt lat="46.5346983" lon="11.777475"><ele>1909.0</ele><time>2026-05-02T10:17:01.394Z</time></trkpt><trkpt lat="46.53462" lon="11.777515"><ele>1909.0</ele><time>2026-05-02T10:17:02.394Z</time></trkpt><trkpt lat="46.5345383" lon="11.7775333"><ele>1909.0000000000002</ele><time>2026-05-02T10:17:03.394Z</time></trkpt><trkpt lat="46.534455" lon="11.7775217"><ele>1909.0</ele><time>2026-05-02T10:17:04.393Z</time></trkpt><trkpt lat="46.5343717" lon="11.7774583"><ele>1907.0000000000002</ele><time>2026-05-02T10:17:05.393Z</time></trkpt><trkpt lat="46.5342883" lon="11.7773783"><ele>1905.0</ele><time>2026-05-02T10:17:06.394Z</time></trkpt><trkpt lat="46.534215" lon="11.7772983"><ele>1903.0</ele><time>2026-05-02T10:17:07.393Z</time></trkpt><trkpt lat="46.53415" lon="11.7772167"><ele>1901.0</ele><time>2026-05-02T10:17:08.394Z</time></trkpt><trkpt lat="46.5340817" lon="11.7771317"><ele>1899.0000000000002</ele><time>2026-05-02T10:17:09.394Z</time></trkpt><trkpt lat="46.5340167" lon="11.7770733"><ele>1897.0</ele><time>2026-05-02T10:17:10.393Z</time></trkpt><trkpt lat="46.5339417" lon="11.7770517"><ele>1897.0</ele><time>2026-05-02T10:17:11.394Z</time></trkpt><trkpt lat="46.5338733" lon="11.7770467"><ele>1896.9999999999998</ele><time>2026-05-02T10:17:12.394Z</time></trkpt><trkpt lat="46.5337917" lon="11.7770783"><ele>1896.9999999999998</ele><time>2026-05-02T10:17:13.393Z</time></trkpt><trkpt lat="46.5337117" lon="11.7771567"><ele>1897.0</ele><time>2026-05-02T10:17:14.394Z</time></trkpt><trkpt lat="46.5336233" lon="11.7772683"><ele>1897.0</ele><time>2026-05-02T10:17:15.394Z</time></trkpt><trkpt lat="46.533515" lon="11.7774217"><ele>1895.6666666666667</ele><time>2026-05-02T10:17:16.394Z</time></trkpt><trkpt lat="46.5333883" lon="11.7775783"><ele>1894.3333333333335</ele><time>2026-05-02T10:17:17.394Z</time></trkpt><trkpt lat="46.5332417" lon="11.7777317"><ele>1893.0</ele><time>2026-05-02T10:17:18.393Z</time></trkpt><trkpt lat="46.5330883" lon="11.77788"><ele>1893.0</ele><time>2026-05-02T10:17:19.394Z</time></trkpt><trkpt lat="46.532945" lon="11.77803"><ele>1893.0</ele><time>2026-05-02T10:17:20.394Z</time></trkpt><trkpt lat="46.5328067" lon="11.7781817"><ele>1893.0</ele><time>2026-05-02T10:17:21.394Z</time></trkpt><trkpt lat="46.532685" lon="11.778315"><ele>1888.5</ele><time>2026-05-02T10:17:22.393Z</time></trkpt><trkpt lat="46.53259" lon="11.7784267"><ele>1884.0</ele><time>2026-05-02T10:17:23.393Z</time></trkpt><trkpt lat="46.53252" lon="11.7785433"><ele>1879.5</ele><time>2026-05-02T10:17:24.394Z</time></trkpt><trkpt lat="46.5324783" lon="11.778705"><ele>1875.0</ele><time>2026-05-02T10:17:25.393Z</time></trkpt><trkpt lat="46.5324583" lon="11.7788767"><ele>1875.0</ele><time>2026-05-02T10:17:26.394Z</time></trkpt><trkpt lat="46.532455" lon="11.7790283"><ele>1875.0</ele><time>2026-05-02T10:17:27.394Z</time></trkpt><trkpt lat="46.5324467" lon="11.7791333"><ele>1875.0</ele><time>2026-05-02T10:17:28.394Z</time></trkpt><trkpt lat="46.5324017" lon="11.7792367"><ele>1875.0</ele><time>2026-05-02T10:17:30.394Z</time></trkpt><trkpt lat="46.5323217" lon="11.7791833"><ele>1875.0</ele><time>2026-05-02T10:17:33.393Z</time></trkpt><trkpt lat="46.53225" lon="11.7791567"><ele>1875.0</ele><time>2026-05-02T10:17:36.394Z</time></trkpt><trkpt lat="46.5322217" lon="11.7792467"><ele>1875.8</ele><time>2026-05-02T10:17:38.394Z</time></trkpt><trkpt lat="46.5322317" lon="11.779425"><ele>1876.6</ele><time>2026-05-02T10:17:40.394Z</time></trkpt><trkpt lat="46.5322233" lon="11.7795533"><ele>1877.4</ele><time>2026-05-02T10:17:41.394Z</time></trkpt><trkpt lat="46.5322283" lon="11.7796833"><ele>1878.2</ele><time>2026-05-02T10:17:42.394Z</time></trkpt><trkpt lat="46.5322483" lon="11.7798183"><ele>1879.0</ele><time>2026-05-02T10:17:43.394Z</time></trkpt><trkpt lat="46.5322767" lon="11.7799633"><ele>1879.0000000000002</ele><time>2026-05-02T10:17:44.394Z</time></trkpt><trkpt lat="46.5322917" lon="11.78009"><ele>1879.0</ele><time>2026-05-02T10:17:45.394Z</time></trkpt><trkpt lat="46.5322833" lon="11.78021"><ele>1879.0</ele><time>2026-05-02T10:17:46.394Z</time></trkpt><trkpt lat="46.532245" lon="11.7803183"><ele>1879.0</ele><time>2026-05-02T10:17:47.394Z</time></trkpt><trkpt lat="46.5321867" lon="11.7804083"><ele>1879.0000000000002</ele><time>2026-05-02T10:17:48.393Z</time></trkpt><trkpt lat="46.532105" lon="11.7805"><ele>1879.0</ele><time>2026-05-02T10:17:49.394Z</time></trkpt><trkpt lat="46.5320183" lon="11.78061"><ele>1878.25</ele><time>2026-05-02T10:17:50.394Z</time></trkpt><trkpt lat="46.531945" lon="11.7807617"><ele>1877.5</ele><time>2026-05-02T10:17:51.394Z</time></trkpt><trkpt lat="46.5319033" lon="11.7809417"><ele>1876.75</ele><time>2026-05-02T10:17:52.394Z</time></trkpt><trkpt lat="46.5318833" lon="11.781145"><ele>1876.0</ele><time>2026-05-02T10:17:53.394Z</time></trkpt><trkpt lat="46.53189" lon="11.78137"><ele>1879.6666666666667</ele><time>2026-05-02T10:17:54.394Z</time></trkpt><trkpt lat="46.5319133" lon="11.78159"><ele>1883.3333333333335</ele><time>2026-05-02T10:17:55.394Z</time></trkpt><trkpt lat="46.53193" lon="11.7818117"><ele>1887.0</ele><time>2026-05-02T10:17:56.394Z</time></trkpt><trkpt lat="46.5319483" lon="11.782025"><ele>1889.25</ele><time>2026-05-02T10:17:57.394Z</time></trkpt><trkpt lat="46.5319567" lon="11.7822083"><ele>1891.5</ele><time>2026-05-02T10:17:58.393Z</time></trkpt><trkpt lat="46.5319467" lon="11.78238"><ele>1893.75</ele><time>2026-05-02T10:17:59.394Z</time></trkpt><trkpt lat="46.531915" lon="11.78254"><ele>1896.0</ele><time>2026-05-02T10:18:00.394Z</time></trkpt><trkpt lat="46.5318467" lon="11.782665"><ele>1899.0</ele><time>2026-05-02T10:18:01.393Z</time></trkpt><trkpt lat="46.5317567" lon="11.78278"><ele>1902.0</ele><time>2026-05-02T10:18:02.393Z</time></trkpt><trkpt lat="46.5316483" lon="11.782865"><ele>1905.0</ele><time>2026-05-02T10:18:03.394Z</time></trkpt><trkpt lat="46.531525" lon="11.7829283"><ele>1908.0</ele><time>2026-05-02T10:18:04.394Z</time></trkpt><trkpt lat="46.53141" lon="11.7830233"><ele>1908.0</ele><time>2026-05-02T10:18:05.394Z</time></trkpt><trkpt lat="46.53129" lon="11.7831617"><ele>1908.0</ele><time>2026-05-02T10:18:06.394Z</time></trkpt><trkpt lat="46.531195" lon="11.78332"><ele>1908.0</ele><time>2026-05-02T10:18:07.394Z</time></trkpt><trkpt lat="46.5311067" lon="11.7834517"><ele>1908.0</ele><time>2026-05-02T10:18:08.393Z</time></trkpt><trkpt lat="46.5309983" lon="11.7835383"><ele>1911.25</ele><time>2026-05-02T10:18:09.394Z</time></trkpt><trkpt lat="46.5308733" lon="11.7835833"><ele>1914.5</ele><time>2026-05-02T10:18:10.394Z</time></trkpt><trkpt lat="46.5307217" lon="11.7835983"><ele>1917.75</ele><time>2026-05-02T10:18:11.394Z</time></trkpt><trkpt lat="46.5305633" lon="11.7836133"><ele>1921.0</ele><time>2026-05-02T10:18:12.394Z</time></trkpt><trkpt lat="46.5304267" lon="11.7836083"><ele>1922.25</ele><time>2026-05-02T10:18:13.394Z</time></trkpt><trkpt lat="46.5303167" lon="11.7835683"><ele>1923.5</ele><time>2026-05-02T10:18:14.393Z</time></trkpt><trkpt lat="46.5302167" lon="11.7835017"><ele>1924.75</ele><time>2026-05-02T10:18:15.394Z</time></trkpt><trkpt lat="46.5301367" lon="11.783385"><ele>1926.0</ele><time>2026-05-02T10:18:16.394Z</time></trkpt><trkpt lat="46.53006" lon="11.7832167"><ele>1926.0</ele><time>2026-05-02T10:18:17.394Z</time></trkpt><trkpt lat="46.52998" lon="11.7830067"><ele>1926.0</ele><time>2026-05-02T10:18:18.394Z</time></trkpt><trkpt lat="46.529905" lon="11.7827667"><ele>1926.0</ele><time>2026-05-02T10:18:19.394Z</time></trkpt><trkpt lat="46.5298367" lon="11.7825267"><ele>1923.6666666666665</ele><time>2026-05-02T10:18:20.394Z</time></trkpt><trkpt lat="46.529785" lon="11.782275"><ele>1921.3333333333333</ele><time>2026-05-02T10:18:21.394Z</time></trkpt><trkpt lat="46.5297317" lon="11.7820233"><ele>1919.0</ele><time>2026-05-02T10:18:22.393Z</time></trkpt><trkpt lat="46.5296817" lon="11.78177"><ele>1916.3333333333333</ele><time>2026-05-02T10:18:23.394Z</time></trkpt><trkpt lat="46.5296383" lon="11.7815183"><ele>1913.6666666666665</ele><time>2026-05-02T10:18:24.393Z</time></trkpt><trkpt lat="46.5295983" lon="11.7812633"><ele>1911.0</ele><time>2026-05-02T10:18:25.394Z</time></trkpt><trkpt lat="46.5295783" lon="11.7810083"><ele>1924.75</ele><time>2026-05-02T10:18:26.393Z</time></trkpt><trkpt lat="46.5295533" lon="11.78078"><ele>1938.5</ele><time>2026-05-02T10:18:27.393Z</time></trkpt><trkpt lat="46.5295483" lon="11.7805617"><ele>1952.25</ele><time>2026-05-02T10:18:28.394Z</time></trkpt><trkpt lat="46.5295467" lon="11.7803667"><ele>1966.0</ele><time>2026-05-02T10:18:29.394Z</time></trkpt><trkpt lat="46.5295417" lon="11.7802017"><ele>1961.8</ele><time>2026-05-02T10:18:30.394Z</time></trkpt><trkpt lat="46.5295283" lon="11.7800817"><ele>1957.6</ele><time>2026-05-02T10:18:31.394Z</time></trkpt><trkpt lat="46.5295017" lon="11.77997"><ele>1953.4</ele><time>2026-05-02T10:18:32.394Z</time></trkpt><trkpt lat="46.5294617" lon="11.7798867"><ele>1949.2</ele><time>2026-05-02T10:18:33.394Z</time></trkpt><trkpt lat="46.5293767" lon="11.7798183"><ele>1945.0</ele><time>2026-05-02T10:18:34.394Z</time></trkpt><trkpt lat="46.5292317" lon="11.7797733"><ele>1945.0</ele><time>2026-05-02T10:18:35.394Z</time></trkpt><trkpt lat="46.5290783" lon="11.779735"><ele>1945.0</ele><time>2026-05-02T10:18:36.393Z</time></trkpt><trkpt lat="46.528925" lon="11.77973"><ele>1945.0</ele><time>2026-05-02T10:18:37.394Z</time></trkpt><trkpt lat="46.528765" lon="11.77975"><ele>1946.3333333333335</ele><time>2026-05-02T10:18:38.394Z</time></trkpt><trkpt lat="46.5285867" lon="11.7797617"><ele>1947.6666666666665</ele><time>2026-05-02T10:18:39.394Z</time></trkpt><trkpt lat="46.5284183" lon="11.77976"><ele>1949.0</ele><time>2026-05-02T10:18:40.394Z</time></trkpt><trkpt lat="46.528265" lon="11.7797417"><ele>1949.0</ele><time>2026-05-02T10:18:41.394Z</time></trkpt><trkpt lat="46.5281367" lon="11.779735"><ele>1949.0</ele><time>2026-05-02T10:18:42.394Z</time></trkpt><trkpt lat="46.5280117" lon="11.7797633"><ele>1949.0</ele><time>2026-05-02T10:18:43.394Z</time></trkpt><trkpt lat="46.527875" lon="11.779845"><ele>1949.0</ele><time>2026-05-02T10:18:44.394Z</time></trkpt><trkpt lat="46.5277233" lon="11.7799633"><ele>1948.0</ele><time>2026-05-02T10:18:45.394Z</time></trkpt><trkpt lat="46.52759" lon="11.780065"><ele>1947.0</ele><time>2026-05-02T10:18:46.394Z</time></trkpt><trkpt lat="46.527485" lon="11.7801233"><ele>1946.0</ele><time>2026-05-02T10:18:47.394Z</time></trkpt><trkpt lat="46.5273933" lon="11.78015"><ele>1945.0</ele><time>2026-05-02T10:18:48.393Z</time></trkpt><trkpt lat="46.5273017" lon="11.78012"><ele>1945.0</ele><time>2026-05-02T10:18:49.394Z</time></trkpt><trkpt lat="46.527205" lon="11.7800417"><ele>1945.0</ele><time>2026-05-02T10:18:50.394Z</time></trkpt><trkpt lat="46.5271067" lon="11.7799233"><ele>1945.0</ele><time>2026-05-02T10:18:51.394Z</time></trkpt><trkpt lat="46.52699" lon="11.7797867"><ele>1945.0</ele><time>2026-05-02T10:18:52.394Z</time></trkpt><trkpt lat="46.5268533" lon="11.7796467"><ele>1945.3333333333335</ele><time>2026-05-02T10:18:53.394Z</time></trkpt><trkpt lat="46.5266967" lon="11.7795183"><ele>1945.6666666666665</ele><time>2026-05-02T10:18:54.394Z</time></trkpt><trkpt lat="46.526535" lon="11.7793983"><ele>1946.0</ele><time>2026-05-02T10:18:55.393Z</time></trkpt><trkpt lat="46.526375" lon="11.779285"><ele>1945.0</ele><time>2026-05-02T10:18:56.394Z</time></trkpt><trkpt lat="46.5262183" lon="11.7791667"><ele>1944.0</ele><time>2026-05-02T10:18:57.394Z</time></trkpt><trkpt lat="46.52606" lon="11.7790517"><ele>1943.0</ele><time>2026-05-02T10:18:58.393Z</time></trkpt><trkpt lat="46.5259183" lon="11.778945"><ele>1943.0</ele><time>2026-05-02T10:18:59.394Z</time></trkpt><trkpt lat="46.5257867" lon="11.7788583"><ele>1943.0</ele><time>2026-05-02T10:19:00.394Z</time></trkpt><trkpt lat="46.52566" lon="11.7787967"><ele>1943.0</ele><time>2026-05-02T10:19:01.393Z</time></trkpt><trkpt lat="46.52553" lon="11.7787833"><ele>1943.0</ele><time>2026-05-02T10:19:02.394Z</time></trkpt><trkpt lat="46.5254" lon="11.77883"><ele>1943.5</ele><time>2026-05-02T10:19:03.394Z</time></trkpt><trkpt lat="46.525285" lon="11.7789217"><ele>1944.0</ele><time>2026-05-02T10:19:04.393Z</time></trkpt><trkpt lat="46.5251767" lon="11.77901"><ele>1944.5</ele><time>2026-05-02T10:19:05.394Z</time></trkpt><trkpt lat="46.5250717" lon="11.77906"><ele>1945.0</ele><time>2026-05-02T10:19:06.394Z</time></trkpt><trkpt lat="46.52496" lon="11.7790583"><ele>1945.0</ele><time>2026-05-02T10:19:07.394Z</time></trkpt><trkpt lat="46.524855" lon="11.7789967"><ele>1945.0</ele><time>2026-05-02T10:19:08.393Z</time></trkpt><trkpt lat="46.5247533" lon="11.778875"><ele>1945.0</ele><time>2026-05-02T10:19:09.394Z</time></trkpt><trkpt lat="46.5246467" lon="11.7787217"><ele>1945.0</ele><time>2026-05-02T10:19:10.394Z</time></trkpt><trkpt lat="46.5245317" lon="11.7785983"><ele>1946.0</ele><time>2026-05-02T10:19:11.394Z</time></trkpt><trkpt lat="46.52439" lon="11.7785067"><ele>1947.0</ele><time>2026-05-02T10:19:12.394Z</time></trkpt><trkpt lat="46.5242283" lon="11.7784483"><ele>1948.0</ele><time>2026-05-02T10:19:13.394Z</time></trkpt><trkpt lat="46.5240433" lon="11.7784283"><ele>1948.0</ele><time>2026-05-02T10:19:14.394Z</time></trkpt><trkpt lat="46.523845" lon="11.77841"><ele>1948.0</ele><time>2026-05-02T10:19:15.394Z</time></trkpt><trkpt lat="46.5236483" lon="11.7784067"><ele>1948.0</ele><time>2026-05-02T10:19:16.393Z</time></trkpt><trkpt lat="46.523455" lon="11.7784067"><ele>1950.6666666666667</ele><time>2026-05-02T10:19:17.394Z</time></trkpt><trkpt lat="46.52327" lon="11.7783967"><ele>1953.3333333333335</ele><time>2026-05-02T10:19:18.394Z</time></trkpt><trkpt lat="46.52309" lon="11.7783983"><ele>1956.0</ele><time>2026-05-02T10:19:19.394Z</time></trkpt><trkpt lat="46.5229183" lon="11.7784"><ele>1960.0</ele><time>2026-05-02T10:19:20.394Z</time></trkpt><trkpt lat="46.5227567" lon="11.778395"><ele>1964.0</ele><time>2026-05-02T10:19:21.393Z</time></trkpt><trkpt lat="46.5226033" lon="11.7783967"><ele>1968.0</ele><time>2026-05-02T10:19:22.394Z</time></trkpt><trkpt lat="46.5224583" lon="11.778405"><ele>1968.0</ele><time>2026-05-02T10:19:23.394Z</time></trkpt><trkpt lat="46.5223383" lon="11.7784083"><ele>1968.0000000000002</ele><time>2026-05-02T10:19:24.394Z</time></trkpt><trkpt lat="46.5222367" lon="11.778395"><ele>1968.0000000000002</ele><time>2026-05-02T10:19:25.393Z</time></trkpt><trkpt lat="46.5221617" lon="11.7783333"><ele>1968.0</ele><time>2026-05-02T10:19:26.394Z</time></trkpt><trkpt lat="46.52212" lon="11.7782283"><ele>1968.0</ele><time>2026-05-02T10:19:27.393Z</time></trkpt><trkpt lat="46.522105" lon="11.7780717"><ele>1968.0</ele><time>2026-05-02T10:19:28.394Z</time></trkpt><trkpt lat="46.5220867" lon="11.777885"><ele>1968.0</ele><time>2026-05-02T10:19:29.394Z</time></trkpt><trkpt lat="46.5220383" lon="11.7776967"><ele>1968.0</ele><time>2026-05-02T10:19:30.394Z</time></trkpt><trkpt lat="46.521945" lon="11.7775367"><ele>1968.0</ele><time>2026-05-02T10:19:31.394Z</time></trkpt><trkpt lat="46.521835" lon="11.77741"><ele>1970.8000000000002</ele><time>2026-05-02T10:19:32.394Z</time></trkpt><trkpt lat="46.5217283" lon="11.7773117"><ele>1973.6000000000001</ele><time>2026-05-02T10:19:33.394Z</time></trkpt><trkpt lat="46.5216567" lon="11.7771967"><ele>1976.3999999999999</ele><time>2026-05-02T10:19:34.394Z</time></trkpt><trkpt lat="46.52162" lon="11.777075"><ele>1979.1999999999998</ele><time>2026-05-02T10:19:35.394Z</time></trkpt><trkpt lat="46.5216217" lon="11.776945"><ele>1982.0</ele><time>2026-05-02T10:19:36.394Z</time></trkpt><trkpt lat="46.5216633" lon="11.7767983"><ele>1984.3333333333333</ele><time>2026-05-02T10:19:37.394Z</time></trkpt><trkpt lat="46.5217517" lon="11.7766383"><ele>1986.6666666666665</ele><time>2026-05-02T10:19:38.393Z</time></trkpt><trkpt lat="46.5218683" lon="11.7764567"><ele>1989.0</ele><time>2026-05-02T10:19:39.394Z</time></trkpt><trkpt lat="46.521985" lon="11.7762367"><ele>1988.3333333333335</ele><time>2026-05-02T10:19:40.394Z</time></trkpt><trkpt lat="46.5221" lon="11.77599"><ele>1987.6666666666667</ele><time>2026-05-02T10:19:41.394Z</time></trkpt><trkpt lat="46.5222033" lon="11.7757433"><ele>1987.0</ele><time>2026-05-02T10:19:42.394Z</time></trkpt><trkpt lat="46.5222817" lon="11.7755133"><ele>1987.0</ele><time>2026-05-02T10:19:43.394Z</time></trkpt><trkpt lat="46.52233" lon="11.7753017"><ele>1987.0</ele><time>2026-05-02T10:19:44.393Z</time></trkpt><trkpt lat="46.52234" lon="11.775105"><ele>1987.0</ele><time>2026-05-02T10:19:45.394Z</time></trkpt><trkpt lat="46.5223417" lon="11.774915"><ele>1987.0</ele><time>2026-05-02T10:19:46.394Z</time></trkpt><trkpt lat="46.5223683" lon="11.7747433"><ele>1989.25</ele><time>2026-05-02T10:19:47.394Z</time></trkpt><trkpt lat="46.5224383" lon="11.7745983"><ele>1991.5</ele><time>2026-05-02T10:19:48.394Z</time></trkpt><trkpt lat="46.522535" lon="11.7744717"><ele>1993.75</ele><time>2026-05-02T10:19:49.394Z</time></trkpt><trkpt lat="46.5226083" lon="11.774345"><ele>1996.0</ele><time>2026-05-02T10:19:50.393Z</time></trkpt><trkpt lat="46.5226517" lon="11.7741967"><ele>1998.0</ele><time>2026-05-02T10:19:51.394Z</time></trkpt><trkpt lat="46.5226583" lon="11.7740367"><ele>2000.0</ele><time>2026-05-02T10:19:52.394Z</time></trkpt><trkpt lat="46.5226183" lon="11.773875"><ele>2002.0</ele><time>2026-05-02T10:19:53.394Z</time></trkpt><trkpt lat="46.52253" lon="11.7737217"><ele>2004.0</ele><time>2026-05-02T10:19:54.393Z</time></trkpt><trkpt lat="46.522435" lon="11.7735317"><ele>2004.6666666666665</ele><time>2026-05-02T10:19:55.394Z</time></trkpt><trkpt lat="46.5223583" lon="11.7732833"><ele>2005.3333333333333</ele><time>2026-05-02T10:19:56.393Z</time></trkpt><trkpt lat="46.5222883" lon="11.7730217"><ele>2006.0</ele><time>2026-05-02T10:19:57.394Z</time></trkpt><trkpt lat="46.522225" lon="11.7727833"><ele>2006.25</ele><time>2026-05-02T10:19:58.394Z</time></trkpt><trkpt lat="46.5221817" lon="11.77256"><ele>2006.5</ele><time>2026-05-02T10:19:59.394Z</time></trkpt><trkpt lat="46.522165" lon="11.7723667"><ele>2006.75</ele><time>2026-05-02T10:20:00.393Z</time></trkpt><trkpt lat="46.5221767" lon="11.7722017"><ele>2007.0</ele><time>2026-05-02T10:20:01.394Z</time></trkpt><trkpt lat="46.5222233" lon="11.7720333"><ele>2007.0</ele><time>2026-05-02T10:20:02.394Z</time></trkpt><trkpt lat="46.522285" lon="11.77188"><ele>2006.9999999999998</ele><time>2026-05-02T10:20:03.394Z</time></trkpt><trkpt lat="46.522325" lon="11.7717317"><ele>2006.9999999999998</ele><time>2026-05-02T10:20:04.394Z</time></trkpt><trkpt lat="46.5223233" lon="11.771585"><ele>2007.0</ele><time>2026-05-02T10:20:05.394Z</time></trkpt><trkpt lat="46.5222767" lon="11.771455"><ele>2007.0</ele><time>2026-05-02T10:20:06.394Z</time></trkpt><trkpt lat="46.5221933" lon="11.7713667"><ele>2008.0</ele><time>2026-05-02T10:20:07.394Z</time></trkpt><trkpt lat="46.522065" lon="11.771305"><ele>2009.0</ele><time>2026-05-02T10:20:08.394Z</time></trkpt><trkpt lat="46.5218933" lon="11.771255"><ele>2010.0</ele><time>2026-05-02T10:20:09.394Z</time></trkpt><trkpt lat="46.5217083" lon="11.7711933"><ele>2017.0</ele><time>2026-05-02T10:20:10.394Z</time></trkpt><trkpt lat="46.52152" lon="11.7711217"><ele>2024.0</ele><time>2026-05-02T10:20:11.394Z</time></trkpt><trkpt lat="46.5213267" lon="11.7710467"><ele>2031.0</ele><time>2026-05-02T10:20:12.394Z</time></trkpt><trkpt lat="46.5211533" lon="11.77097"><ele>2034.3333333333335</ele><time>2026-05-02T10:20:13.394Z</time></trkpt><trkpt lat="46.520995" lon="11.7708867"><ele>2037.6666666666667</ele><time>2026-05-02T10:20:14.394Z</time></trkpt><trkpt lat="46.5208283" lon="11.7707917"><ele>2041.0</ele><time>2026-05-02T10:20:15.394Z</time></trkpt><trkpt lat="46.5206717" lon="11.7706483"><ele>2041.0</ele><time>2026-05-02T10:20:16.394Z</time></trkpt><trkpt lat="46.5205367" lon="11.7705133"><ele>2041.0</ele><time>2026-05-02T10:20:17.394Z</time></trkpt><trkpt lat="46.520415" lon="11.770405"><ele>2041.0</ele><time>2026-05-02T10:20:18.394Z</time></trkpt><trkpt lat="46.5202717" lon="11.7703267"><ele>2039.3333333333335</ele><time>2026-05-02T10:20:19.394Z</time></trkpt><trkpt lat="46.5201033" lon="11.7702767"><ele>2037.6666666666665</ele><time>2026-05-02T10:20:20.394Z</time></trkpt><trkpt lat="46.5199217" lon="11.770215"><ele>2036.0</ele><time>2026-05-02T10:20:21.393Z</time></trkpt><trkpt lat="46.5197283" lon="11.7701733"><ele>2041.3333333333333</ele><time>2026-05-02T10:20:22.394Z</time></trkpt><trkpt lat="46.5195367" lon="11.77012"><ele>2046.6666666666665</ele><time>2026-05-02T10:20:23.394Z</time></trkpt><trkpt lat="46.5193567" lon="11.7700683"><ele>2052.0</ele><time>2026-05-02T10:20:24.393Z</time></trkpt><trkpt lat="46.5191767" lon="11.7700183"><ele>2052.0</ele><time>2026-05-02T10:20:25.394Z</time></trkpt><trkpt lat="46.5189967" lon="11.76996"><ele>2052.0</ele><time>2026-05-02T10:20:26.393Z</time></trkpt><trkpt lat="46.5188167" lon="11.7699017"><ele>2052.0</ele><time>2026-05-02T10:20:27.394Z</time></trkpt><trkpt lat="46.518635" lon="11.76984"><ele>2058.6666666666665</ele><time>2026-05-02T10:20:28.394Z</time></trkpt><trkpt lat="46.518455" lon="11.7697783"><ele>2065.333333333333</ele><time>2026-05-02T10:20:29.393Z</time></trkpt><trkpt lat="46.5182717" lon="11.76971"><ele>2072.0</ele><time>2026-05-02T10:20:30.394Z</time></trkpt><trkpt lat="46.5180883" lon="11.769655"><ele>2077.333333333333</ele><time>2026-05-02T10:20:31.394Z</time></trkpt><trkpt lat="46.5178983" lon="11.769595"><ele>2082.6666666666665</ele><time>2026-05-02T10:20:32.394Z</time></trkpt><trkpt lat="46.517725" lon="11.7695083"><ele>2088.0</ele><time>2026-05-02T10:20:33.394Z</time></trkpt><trkpt lat="46.5175533" lon="11.7694233"><ele>2079.3333333333335</ele><time>2026-05-02T10:20:34.393Z</time></trkpt><trkpt lat="46.5173917" lon="11.7692983"><ele>2070.666666666667</ele><time>2026-05-02T10:20:35.394Z</time></trkpt><trkpt lat="46.5172433" lon="11.76915"><ele>2062.0</ele><time>2026-05-02T10:20:36.394Z</time></trkpt><trkpt lat="46.517115" lon="11.768975"><ele>2071.0</ele><time>2026-05-02T10:20:37.393Z</time></trkpt><trkpt lat="46.5169883" lon="11.7688283"><ele>2080.0</ele><time>2026-05-02T10:20:38.393Z</time></trkpt><trkpt lat="46.516855" lon="11.7687117"><ele>2089.0</ele><time>2026-05-02T10:20:39.394Z</time></trkpt><trkpt lat="46.5167017" lon="11.768635"><ele>2089.0</ele><time>2026-05-02T10:20:40.394Z</time></trkpt><trkpt lat="46.516535" lon="11.7685817"><ele>2089.0</ele><time>2026-05-02T10:20:41.394Z</time></trkpt><trkpt lat="46.5163667" lon="11.7685083"><ele>2089.0</ele><time>2026-05-02T10:20:42.393Z</time></trkpt><trkpt lat="46.5162" lon="11.7683933"><ele>2089.3333333333335</ele><time>2026-05-02T10:20:43.394Z</time></trkpt><trkpt lat="46.5160467" lon="11.76823"><ele>2089.6666666666665</ele><time>2026-05-02T10:20:44.394Z</time></trkpt><trkpt lat="46.5158867" lon="11.7680567"><ele>2090.0</ele><time>2026-05-02T10:20:45.394Z</time></trkpt><trkpt lat="46.5157283" lon="11.7678783"><ele>2090.0</ele><time>2026-05-02T10:20:46.394Z</time></trkpt><trkpt lat="46.5155667" lon="11.767695"><ele>2090.0</ele><time>2026-05-02T10:20:47.394Z</time></trkpt><trkpt lat="46.5154033" lon="11.767515"><ele>2090.0</ele><time>2026-05-02T10:20:48.394Z</time></trkpt><trkpt lat="46.5152333" lon="11.7673417"><ele>2089.0</ele><time>2026-05-02T10:20:49.394Z</time></trkpt><trkpt lat="46.5150633" lon="11.7671567"><ele>2088.0</ele><time>2026-05-02T10:20:50.394Z</time></trkpt><trkpt lat="46.5148967" lon="11.76697"><ele>2087.0</ele><time>2026-05-02T10:20:51.394Z</time></trkpt><trkpt lat="46.5147267" lon="11.7667867"><ele>2093.0</ele><time>2026-05-02T10:20:52.393Z</time></trkpt><trkpt lat="46.51457" lon="11.76661"><ele>2099.0</ele><time>2026-05-02T10:20:53.394Z</time></trkpt><trkpt lat="46.5144133" lon="11.7664417"><ele>2105.0</ele><time>2026-05-02T10:20:54.394Z</time></trkpt><trkpt lat="46.5142633" lon="11.76627"><ele>2105.0</ele><time>2026-05-02T10:20:55.394Z</time></trkpt><trkpt lat="46.5141133" lon="11.7661133"><ele>2105.0</ele><time>2026-05-02T10:20:56.394Z</time></trkpt><trkpt lat="46.5139633" lon="11.7659467"><ele>2105.0</ele><time>2026-05-02T10:20:57.393Z</time></trkpt><trkpt lat="46.513825" lon="11.76578"><ele>2107.0</ele><time>2026-05-02T10:20:58.394Z</time></trkpt><trkpt lat="46.5136933" lon="11.76564"><ele>2109.0</ele><time>2026-05-02T10:20:59.394Z</time></trkpt><trkpt lat="46.51359" lon="11.7655"><ele>2111.0</ele><time>2026-05-02T10:21:00.394Z</time></trkpt><trkpt lat="46.51352" lon="11.7653633"><ele>2113.0</ele><time>2026-05-02T10:21:01.394Z</time></trkpt><trkpt lat="46.5134867" lon="11.7652017"><ele>2113.5</ele><time>2026-05-02T10:21:02.394Z</time></trkpt><trkpt lat="46.5134833" lon="11.7650267"><ele>2114.0</ele><time>2026-05-02T10:21:03.393Z</time></trkpt><trkpt lat="46.51349" lon="11.7648317"><ele>2114.5</ele><time>2026-05-02T10:21:04.394Z</time></trkpt><trkpt lat="46.5134867" lon="11.7646333"><ele>2115.0</ele><time>2026-05-02T10:21:05.394Z</time></trkpt><trkpt lat="46.51345" lon="11.76443"><ele>2115.6666666666665</ele><time>2026-05-02T10:21:06.394Z</time></trkpt><trkpt lat="46.5133683" lon="11.7642317"><ele>2116.333333333333</ele><time>2026-05-02T10:21:07.394Z</time></trkpt><trkpt lat="46.51326" lon="11.7640317"><ele>2117.0</ele><time>2026-05-02T10:21:08.393Z</time></trkpt><trkpt lat="46.5131183" lon="11.76384"><ele>2117.0</ele><time>2026-05-02T10:21:09.393Z</time></trkpt><trkpt lat="46.5129767" lon="11.7636433"><ele>2117.0</ele><time>2026-05-02T10:21:10.394Z</time></trkpt><trkpt lat="46.51285" lon="11.763425"><ele>2117.0</ele><time>2026-05-02T10:21:11.394Z</time></trkpt><trkpt lat="46.5127433" lon="11.7632"><ele>2119.333333333333</ele><time>2026-05-02T10:21:12.394Z</time></trkpt><trkpt lat="46.51266" lon="11.7629867"><ele>2121.6666666666665</ele><time>2026-05-02T10:21:13.393Z</time></trkpt><trkpt lat="46.5125883" lon="11.7627917"><ele>2124.0</ele><time>2026-05-02T10:21:14.393Z</time></trkpt><trkpt lat="46.5124883" lon="11.7626317"><ele>2124.0</ele><time>2026-05-02T10:21:15.394Z</time></trkpt><trkpt lat="46.512355" lon="11.7625083"><ele>2124.0</ele><time>2026-05-02T10:21:16.394Z</time></trkpt><trkpt lat="46.5121933" lon="11.7624083"><ele>2124.0</ele><time>2026-05-02T10:21:17.394Z</time></trkpt><trkpt lat="46.5120217" lon="11.7623133"><ele>2127.25</ele><time>2026-05-02T10:21:18.394Z</time></trkpt><trkpt lat="46.5118817" lon="11.7621917"><ele>2130.5</ele><time>2026-05-02T10:21:19.394Z</time></trkpt><trkpt lat="46.51177" lon="11.7620567"><ele>2133.75</ele><time>2026-05-02T10:21:20.394Z</time></trkpt><trkpt lat="46.5116917" lon="11.7619017"><ele>2137.0</ele><time>2026-05-02T10:21:21.394Z</time></trkpt><trkpt lat="46.5116367" lon="11.7617333"><ele>2137.0</ele><time>2026-05-02T10:21:22.394Z</time></trkpt><trkpt lat="46.511595" lon="11.7615267"><ele>2137.0</ele><time>2026-05-02T10:21:23.394Z</time></trkpt><trkpt lat="46.51153" lon="11.761325"><ele>2137.0</ele><time>2026-05-02T10:21:24.394Z</time></trkpt><trkpt lat="46.5114367" lon="11.7611217"><ele>2136.3333333333335</ele><time>2026-05-02T10:21:25.394Z</time></trkpt><trkpt lat="46.5113183" lon="11.7609233"><ele>2135.6666666666665</ele><time>2026-05-02T10:21:26.394Z</time></trkpt><trkpt lat="46.5111783" lon="11.7607383"><ele>2135.0</ele><time>2026-05-02T10:21:27.394Z</time></trkpt><trkpt lat="46.5110333" lon="11.7605517"><ele>2139.6666666666665</ele><time>2026-05-02T10:21:28.393Z</time></trkpt><trkpt lat="46.5109017" lon="11.7603683"><ele>2144.3333333333335</ele><time>2026-05-02T10:21:29.393Z</time></trkpt><trkpt lat="46.5107683" lon="11.7601883"><ele>2149.0</ele><time>2026-05-02T10:21:30.394Z</time></trkpt><trkpt lat="46.5106433" lon="11.7600033"><ele>2149.0</ele><time>2026-05-02T10:21:31.394Z</time></trkpt><trkpt lat="46.5105183" lon="11.7598483"><ele>2149.0</ele><time>2026-05-02T10:21:32.394Z</time></trkpt><trkpt lat="46.5103883" lon="11.759725"><ele>2149.0</ele><time>2026-05-02T10:21:33.394Z</time></trkpt><trkpt lat="46.51027" lon="11.75962"><ele>2152.75</ele><time>2026-05-02T10:21:34.394Z</time></trkpt><trkpt lat="46.5101617" lon="11.7595183"><ele>2156.5</ele><time>2026-05-02T10:21:35.394Z</time></trkpt><trkpt lat="46.51008" lon="11.7593933"><ele>2160.25</ele><time>2026-05-02T10:21:36.394Z</time></trkpt><trkpt lat="46.510025" lon="11.7592517"><ele>2164.0</ele><time>2026-05-02T10:21:37.393Z</time></trkpt><trkpt lat="46.5099867" lon="11.75909"><ele>2164.0</ele><time>2026-05-02T10:21:38.394Z</time></trkpt><trkpt lat="46.50998" lon="11.7588917"><ele>2164.0</ele><time>2026-05-02T10:21:39.394Z</time></trkpt><trkpt lat="46.50999" lon="11.7586817"><ele>2164.0</ele><time>2026-05-02T10:21:40.394Z</time></trkpt><trkpt lat="46.5099917" lon="11.7584883"><ele>2164.0</ele><time>2026-05-02T10:21:41.393Z</time></trkpt><trkpt lat="46.5099917" lon="11.7583117"><ele>2165.4</ele><time>2026-05-02T10:21:42.393Z</time></trkpt><trkpt lat="46.5099883" lon="11.7581567"><ele>2166.8</ele><time>2026-05-02T10:21:43.393Z</time></trkpt><trkpt lat="46.5099767" lon="11.758015"><ele>2168.2</ele><time>2026-05-02T10:21:44.394Z</time></trkpt><trkpt lat="46.5099367" lon="11.7579017"><ele>2169.6</ele><time>2026-05-02T10:21:45.394Z</time></trkpt><trkpt lat="46.5098783" lon="11.7577917"><ele>2171.0</ele><time>2026-05-02T10:21:46.394Z</time></trkpt><trkpt lat="46.509805" lon="11.7576933"><ele>2171.0</ele><time>2026-05-02T10:21:47.394Z</time></trkpt><trkpt lat="46.5097133" lon="11.7576167"><ele>2171.0</ele><time>2026-05-02T10:21:48.393Z</time></trkpt><trkpt lat="46.50962" lon="11.7575683"><ele>2171.0</ele><time>2026-05-02T10:21:49.394Z</time></trkpt><trkpt lat="46.50953" lon="11.7575333"><ele>2171.0</ele><time>2026-05-02T10:21:50.394Z</time></trkpt><trkpt lat="46.50944" lon="11.7575083"><ele>2171.0</ele><time>2026-05-02T10:21:51.393Z</time></trkpt><trkpt lat="46.509345" lon="11.7574867"><ele>2173.0</ele><time>2026-05-02T10:21:52.394Z</time></trkpt><trkpt lat="46.5092483" lon="11.7574567"><ele>2175.0</ele><time>2026-05-02T10:21:53.394Z</time></trkpt><trkpt lat="46.509145" lon="11.757435"><ele>2177.0</ele><time>2026-05-02T10:21:54.393Z</time></trkpt><trkpt lat="46.50904" lon="11.757415"><ele>2179.0</ele><time>2026-05-02T10:21:55.393Z</time></trkpt><trkpt lat="46.508935" lon="11.7573883"><ele>2181.0</ele><time>2026-05-02T10:21:56.394Z</time></trkpt><trkpt lat="46.5088367" lon="11.7573417"><ele>2182.5</ele><time>2026-05-02T10:21:57.394Z</time></trkpt><trkpt lat="46.5087367" lon="11.7572783"><ele>2184.0</ele><time>2026-05-02T10:21:58.394Z</time></trkpt><trkpt lat="46.5086383" lon="11.7571667"><ele>2185.5</ele><time>2026-05-02T10:21:59.394Z</time></trkpt><trkpt lat="46.5085567" lon="11.75704"><ele>2187.0</ele><time>2026-05-02T10:22:00.394Z</time></trkpt><trkpt lat="46.5084817" lon="11.7569233"><ele>2187.0</ele><time>2026-05-02T10:22:01.394Z</time></trkpt><trkpt lat="46.5083917" lon="11.7568533"><ele>2187.0</ele><time>2026-05-02T10:22:02.393Z</time></trkpt><trkpt lat="46.508295" lon="11.7568333"><ele>2187.0</ele><time>2026-05-02T10:22:03.394Z</time></trkpt><trkpt lat="46.5081883" lon="11.756885"><ele>2187.0</ele><time>2026-05-02T10:22:04.394Z</time></trkpt><trkpt lat="46.5080783" lon="11.7569933"><ele>2187.0</ele><time>2026-05-02T10:22:05.394Z</time></trkpt><trkpt lat="46.5079767" lon="11.7571033"><ele>2188.0</ele><time>2026-05-02T10:22:06.394Z</time></trkpt><trkpt lat="46.50791" lon="11.75722"><ele>2189.0</ele><time>2026-05-02T10:22:07.393Z</time></trkpt><trkpt lat="46.507885" lon="11.7573717"><ele>2190.0</ele><time>2026-05-02T10:22:08.394Z</time></trkpt><trkpt lat="46.5078833" lon="11.7575433"><ele>2191.0</ele><time>2026-05-02T10:22:09.393Z</time></trkpt><trkpt lat="46.5079133" lon="11.7577067"><ele>2192.0</ele><time>2026-05-02T10:22:10.393Z</time></trkpt><trkpt lat="46.5079833" lon="11.7578467"><ele>2192.0</ele><time>2026-05-02T10:22:11.394Z</time></trkpt><trkpt lat="46.5080667" lon="11.75796"><ele>2192.0</ele><time>2026-05-02T10:22:12.393Z</time></trkpt><trkpt lat="46.5081283" lon="11.758065"><ele>2192.0</ele><time>2026-05-02T10:22:13.393Z</time></trkpt><trkpt lat="46.5081617" lon="11.7581883"><ele>2192.0</ele><time>2026-05-02T10:22:14.394Z</time></trkpt><trkpt lat="46.5081733" lon="11.75835"><ele>2192.0</ele><time>2026-05-02T10:22:15.394Z</time></trkpt><trkpt lat="46.5081783" lon="11.758545"><ele>2195.0</ele><time>2026-05-02T10:22:16.394Z</time></trkpt><trkpt lat="46.5082" lon="11.7587633"><ele>2198.0</ele><time>2026-05-02T10:22:17.394Z</time></trkpt><trkpt lat="46.5082417" lon="11.7589767"><ele>2201.0</ele><time>2026-05-02T10:22:18.394Z</time></trkpt><trkpt lat="46.5083067" lon="11.7591767"><ele>2204.0</ele><time>2026-05-02T10:22:19.394Z</time></trkpt><trkpt lat="46.5083767" lon="11.7593683"><ele>2207.0</ele><time>2026-05-02T10:22:20.393Z</time></trkpt><trkpt lat="46.5084483" lon="11.759545"><ele>2210.0</ele><time>2026-05-02T10:22:21.394Z</time></trkpt><trkpt lat="46.5085517" lon="11.7597267"><ele>2210.0</ele><time>2026-05-02T10:22:22.393Z</time></trkpt><trkpt lat="46.5086767" lon="11.75989"><ele>2210.0</ele><time>2026-05-02T10:22:23.394Z</time></trkpt><trkpt lat="46.5087817" lon="11.760045"><ele>2210.0</ele><time>2026-05-02T10:22:24.394Z</time></trkpt><trkpt lat="46.5088917" lon="11.7601633"><ele>2209.25</ele><time>2026-05-02T10:22:25.394Z</time></trkpt><trkpt lat="46.5089983" lon="11.76026"><ele>2208.5</ele><time>2026-05-02T10:22:26.394Z</time></trkpt><trkpt lat="46.5090933" lon="11.7603733"><ele>2207.75</ele><time>2026-05-02T10:22:27.394Z</time></trkpt><trkpt lat="46.5091783" lon="11.7605083"><ele>2207.0</ele><time>2026-05-02T10:22:28.394Z</time></trkpt><trkpt lat="46.50924" lon="11.7606533"><ele>2207.0</ele><time>2026-05-02T10:22:29.394Z</time></trkpt><trkpt lat="46.5092833" lon="11.7607883"><ele>2207.0</ele><time>2026-05-02T10:22:30.394Z</time></trkpt><trkpt lat="46.509305" lon="11.76091"><ele>2207.0</ele><time>2026-05-02T10:22:31.394Z</time></trkpt><trkpt lat="46.5093117" lon="11.761025"><ele>2207.0</ele><time>2026-05-02T10:22:32.394Z</time></trkpt><trkpt lat="46.5092917" lon="11.7611433"><ele>2207.0</ele><time>2026-05-02T10:22:33.394Z</time></trkpt><trkpt lat="46.509245" lon="11.7612833"><ele>2207.25</ele><time>2026-05-02T10:22:34.394Z</time></trkpt><trkpt lat="46.5092033" lon="11.7614633"><ele>2207.5</ele><time>2026-05-02T10:22:35.394Z</time></trkpt><trkpt lat="46.5091783" lon="11.7616767"><ele>2207.75</ele><time>2026-05-02T10:22:36.394Z</time></trkpt><trkpt lat="46.5091367" lon="11.761875"><ele>2208.0</ele><time>2026-05-02T10:22:37.394Z</time></trkpt><trkpt lat="46.5090767" lon="11.7620483"><ele>2208.0</ele><time>2026-05-02T10:22:38.394Z</time></trkpt><trkpt lat="46.508995" lon="11.7622183"><ele>2208.0</ele><time>2026-05-02T10:22:39.393Z</time></trkpt><trkpt lat="46.508905" lon="11.7623883"><ele>2208.0</ele><time>2026-05-02T10:22:40.394Z</time></trkpt><trkpt lat="46.50881" lon="11.762555"><ele>2208.0</ele><time>2026-05-02T10:22:41.394Z</time></trkpt><trkpt lat="46.50872" lon="11.762725"><ele>2213.0</ele><time>2026-05-02T10:22:42.394Z</time></trkpt><trkpt lat="46.5086283" lon="11.7628867"><ele>2218.0</ele><time>2026-05-02T10:22:43.394Z</time></trkpt><trkpt lat="46.5085583" lon="11.7630617"><ele>2223.0</ele><time>2026-05-02T10:22:44.394Z</time></trkpt><trkpt lat="46.5085083" lon="11.7632633"><ele>2228.0</ele><time>2026-05-02T10:22:45.394Z</time></trkpt><trkpt lat="46.50848" lon="11.763475"><ele>2228.0</ele><time>2026-05-02T10:22:46.394Z</time></trkpt><trkpt lat="46.508455" lon="11.7636667"><ele>2228.0</ele><time>2026-05-02T10:22:47.394Z</time></trkpt><trkpt lat="46.5084367" lon="11.7638383"><ele>2228.0</ele><time>2026-05-02T10:22:48.394Z</time></trkpt><trkpt lat="46.508415" lon="11.76399"><ele>2228.0</ele><time>2026-05-02T10:22:49.394Z</time></trkpt><trkpt lat="46.5083883" lon="11.7641233"><ele>2228.0</ele><time>2026-05-02T10:22:50.394Z</time></trkpt><trkpt lat="46.5083633" lon="11.7642483"><ele>2228.0</ele><time>2026-05-02T10:22:51.393Z</time></trkpt><trkpt lat="46.5083283" lon="11.76437"><ele>2228.0</ele><time>2026-05-02T10:22:52.394Z</time></trkpt><trkpt lat="46.50827" lon="11.764485"><ele>2228.0</ele><time>2026-05-02T10:22:53.394Z</time></trkpt><trkpt lat="46.5082117" lon="11.7645867"><ele>2228.0</ele><time>2026-05-02T10:22:54.394Z</time></trkpt><trkpt lat="46.5081583" lon="11.7646833"><ele>2227.0</ele><time>2026-05-02T10:22:55.393Z</time></trkpt><trkpt lat="46.5081283" lon="11.7648083"><ele>2226.0</ele><time>2026-05-02T10:22:56.394Z</time></trkpt><trkpt lat="46.5081267" lon="11.76494"><ele>2225.0</ele><time>2026-05-02T10:22:57.393Z</time></trkpt><trkpt lat="46.5081483" lon="11.76507"><ele>2224.0</ele><time>2026-05-02T10:22:58.393Z</time></trkpt><trkpt lat="46.50821" lon="11.7651967"><ele>2223.0</ele><time>2026-05-02T10:22:59.394Z</time></trkpt><trkpt lat="46.5082833" lon="11.7653283"><ele>2221.8</ele><time>2026-05-02T10:23:00.394Z</time></trkpt><trkpt lat="46.508355" lon="11.7654417"><ele>2220.6000000000004</ele><time>2026-05-02T10:23:01.394Z</time></trkpt><trkpt lat="46.5084167" lon="11.7655483"><ele>2219.3999999999996</ele><time>2026-05-02T10:23:02.394Z</time></trkpt><trkpt lat="46.508475" lon="11.7656483"><ele>2218.2</ele><time>2026-05-02T10:23:03.394Z</time></trkpt><trkpt lat="46.508535" lon="11.7657533"><ele>2217.0</ele><time>2026-05-02T10:23:04.393Z</time></trkpt><trkpt lat="46.5085933" lon="11.7658583"><ele>2217.0</ele><time>2026-05-02T10:23:05.394Z</time></trkpt><trkpt lat="46.5086433" lon="11.7659567"><ele>2217.0</ele><time>2026-05-02T10:23:06.394Z</time></trkpt><trkpt lat="46.5086817" lon="11.7660567"><ele>2217.0</ele><time>2026-05-02T10:23:07.393Z</time></trkpt><trkpt lat="46.5086983" lon="11.7661583"><ele>2217.0</ele><time>2026-05-02T10:23:08.394Z</time></trkpt><trkpt lat="46.5086833" lon="11.76633"><ele>2217.0</ele><time>2026-05-02T10:23:10.394Z</time></trkpt><trkpt lat="46.50861" lon="11.766495"><ele>2219.0</ele><time>2026-05-02T10:23:12.394Z</time></trkpt><trkpt lat="46.5085517" lon="11.7665983"><ele>2221.0</ele><time>2026-05-02T10:23:13.394Z</time></trkpt><trkpt lat="46.5084933" lon="11.7667083"><ele>2223.0</ele><time>2026-05-02T10:23:14.394Z</time></trkpt><trkpt lat="46.5084367" lon="11.7667967"><ele>2225.0</ele><time>2026-05-02T10:23:15.394Z</time></trkpt><trkpt lat="46.5084" lon="11.766875"><ele>2227.0</ele><time>2026-05-02T10:23:16.394Z</time></trkpt><trkpt lat="46.5083417" lon="11.7669833"><ele>2229.0</ele><time>2026-05-02T10:23:18.394Z</time></trkpt><trkpt lat="46.5082883" lon="11.7670767"><ele>2232.1666666666665</ele><time>2026-05-02T10:23:21.394Z</time></trkpt><trkpt lat="46.5082083" lon="11.767195"><ele>2235.3333333333335</ele><time>2026-05-02T10:24:49.394Z</time></trkpt><trkpt lat="46.5081417" lon="11.7672317"><ele>2238.5</ele><time>2026-05-02T10:25:12.394Z</time></trkpt><trkpt lat="46.5080883" lon="11.7672983"><ele>2241.666666666667</ele><time>2026-05-02T10:25:21.394Z</time></trkpt><trkpt lat="46.5080324" lon="11.7673467"><ele>2244.8333333333335</ele><time>2026-05-02T10:25:29.487Z</time></trkpt><trkpt lat="46.5079773" lon="11.7674013"><ele>2248.0</ele><time>2026-05-02T10:25:38.505Z</time></trkpt><trkpt lat="46.5079229" lon="11.7674477"><ele>2248.0000000000005</ele><time>2026-05-02T10:25:47.421Z</time></trkpt><trkpt lat="46.5079864" lon="11.7674037"><ele>2248.0</ele><time>2026-05-02T10:30:21.487Z</time></trkpt><trkpt lat="46.5080361" lon="11.76733"><ele>2248.0</ele><time>2026-05-02T10:30:29.454Z</time></trkpt><trkpt lat="46.5080972" lon="11.7672769"><ele>2248.0</ele><time>2026-05-02T10:30:38.471Z</time></trkpt><trkpt lat="46.5081555" lon="11.7672185"><ele>2248.0</ele><time>2026-05-02T10:30:46.487Z</time></trkpt><trkpt lat="46.5082091" lon="11.7671673"><ele>2248.0000000000005</ele><time>2026-05-02T10:30:57.508Z</time></trkpt><trkpt lat="46.508272" lon="11.7671246"><ele>2248.0</ele><time>2026-05-02T10:31:36.48Z</time></trkpt><trkpt lat="46.50819" lon="11.7671933"><ele>2248.0</ele><time>2026-05-02T10:33:47.394Z</time></trkpt><trkpt lat="46.5081183" lon="11.767245"><ele>2248.0</ele><time>2026-05-02T10:33:50.393Z</time></trkpt><trkpt lat="46.5080733" lon="11.76733"><ele>2248.0</ele><time>2026-05-02T10:34:05.394Z</time></trkpt><trkpt lat="46.50802" lon="11.7674667"><ele>2248.0</ele><time>2026-05-02T10:34:07.394Z</time></trkpt><trkpt lat="46.5079933" lon="11.767555"><ele>2248.0</ele><time>2026-05-02T10:34:08.394Z</time></trkpt><trkpt lat="46.50797" lon="11.7676933"><ele>2248.0</ele><time>2026-05-02T10:34:09.394Z</time></trkpt><trkpt lat="46.5079617" lon="11.76785"><ele>2250.0</ele><time>2026-05-02T10:34:10.394Z</time></trkpt><trkpt lat="46.50795" lon="11.76802"><ele>2252.0</ele><time>2026-05-02T10:34:11.394Z</time></trkpt><trkpt lat="46.50793" lon="11.7682033"><ele>2254.0</ele><time>2026-05-02T10:34:12.394Z</time></trkpt><trkpt lat="46.5079117" lon="11.7684017"><ele>2256.0</ele><time>2026-05-02T10:34:13.394Z</time></trkpt><trkpt lat="46.5078983" lon="11.7685983"><ele>2248.75</ele><time>2026-05-02T10:34:14.394Z</time></trkpt><trkpt lat="46.5078767" lon="11.7687883"><ele>2241.5</ele><time>2026-05-02T10:34:15.394Z</time></trkpt><trkpt lat="46.507865" lon="11.768955"><ele>2234.25</ele><time>2026-05-02T10:34:16.394Z</time></trkpt><trkpt lat="46.50783" lon="11.7691017"><ele>2227.0</ele><time>2026-05-02T10:34:17.394Z</time></trkpt><trkpt lat="46.5077683" lon="11.7692333"><ele>2227.0</ele><time>2026-05-02T10:34:18.394Z</time></trkpt><trkpt lat="46.5076817" lon="11.769335"><ele>2227.0</ele><time>2026-05-02T10:34:19.394Z</time></trkpt><trkpt lat="46.5075883" lon="11.7694267"><ele>2227.0</ele><time>2026-05-02T10:34:20.394Z</time></trkpt><trkpt lat="46.507485" lon="11.7695067"><ele>2227.0</ele><time>2026-05-02T10:34:21.393Z</time></trkpt><trkpt lat="46.5073883" lon="11.76957"><ele>2227.0</ele><time>2026-05-02T10:34:22.394Z</time></trkpt><trkpt lat="46.5072917" lon="11.7696183"><ele>2225.2</ele><time>2026-05-02T10:34:23.394Z</time></trkpt><trkpt lat="46.5071933" lon="11.7696817"><ele>2223.3999999999996</ele><time>2026-05-02T10:34:24.394Z</time></trkpt><trkpt lat="46.507105" lon="11.7697417"><ele>2221.6000000000004</ele><time>2026-05-02T10:34:25.394Z</time></trkpt><trkpt lat="46.50702" lon="11.7698017"><ele>2219.8</ele><time>2026-05-02T10:34:26.394Z</time></trkpt><trkpt lat="46.506945" lon="11.7698717"><ele>2218.0</ele><time>2026-05-02T10:34:27.394Z</time></trkpt><trkpt lat="46.506875" lon="11.7699667"><ele>2218.0</ele><time>2026-05-02T10:34:28.394Z</time></trkpt><trkpt lat="46.5068117" lon="11.770075"><ele>2218.0</ele><time>2026-05-02T10:34:29.394Z</time></trkpt><trkpt lat="46.5067517" lon="11.77019"><ele>2218.0</ele><time>2026-05-02T10:34:30.394Z</time></trkpt><trkpt lat="46.5066883" lon="11.7703117"><ele>2218.0</ele><time>2026-05-02T10:34:31.394Z</time></trkpt><trkpt lat="46.506625" lon="11.7704317"><ele>2218.0</ele><time>2026-05-02T10:34:32.394Z</time></trkpt><trkpt lat="46.5065667" lon="11.7705467"><ele>2214.8</ele><time>2026-05-02T10:34:33.394Z</time></trkpt><trkpt lat="46.506505" lon="11.7706583"><ele>2211.6000000000004</ele><time>2026-05-02T10:34:34.394Z</time></trkpt><trkpt lat="46.506435" lon="11.7707517"><ele>2208.3999999999996</ele><time>2026-05-02T10:34:35.393Z</time></trkpt><trkpt lat="46.506345" lon="11.77082"><ele>2205.2</ele><time>2026-05-02T10:34:36.393Z</time></trkpt><trkpt lat="46.5062567" lon="11.77088"><ele>2202.0</ele><time>2026-05-02T10:34:37.393Z</time></trkpt><trkpt lat="46.5061733" lon="11.7709317"><ele>2202.0</ele><time>2026-05-02T10:34:38.393Z</time></trkpt><trkpt lat="46.506095" lon="11.7710067"><ele>2202.0</ele><time>2026-05-02T10:34:39.394Z</time></trkpt><trkpt lat="46.5060217" lon="11.7710917"><ele>2202.0</ele><time>2026-05-02T10:34:40.394Z</time></trkpt><trkpt lat="46.5059517" lon="11.7711833"><ele>2202.0</ele><time>2026-05-02T10:34:41.394Z</time></trkpt><trkpt lat="46.5058767" lon="11.77129"><ele>2202.0</ele><time>2026-05-02T10:34:42.394Z</time></trkpt><trkpt lat="46.50581" lon="11.77139"><ele>2205.4</ele><time>2026-05-02T10:34:43.394Z</time></trkpt><trkpt lat="46.5057483" lon="11.7714883"><ele>2208.7999999999997</ele><time>2026-05-02T10:34:44.394Z</time></trkpt><trkpt lat="46.5056933" lon="11.7715933"><ele>2212.2</ele><time>2026-05-02T10:34:45.393Z</time></trkpt><trkpt lat="46.505645" lon="11.771715"><ele>2215.6</ele><time>2026-05-02T10:34:46.393Z</time></trkpt><trkpt lat="46.505605" lon="11.7718417"><ele>2219.0</ele><time>2026-05-02T10:34:47.394Z</time></trkpt><trkpt lat="46.50557" lon="11.77196"><ele>2219.5</ele><time>2026-05-02T10:34:48.394Z</time></trkpt><trkpt lat="46.5055317" lon="11.772065"><ele>2220.0</ele><time>2026-05-02T10:34:49.394Z</time></trkpt><trkpt lat="46.5054833" lon="11.7721617"><ele>2220.5</ele><time>2026-05-02T10:34:50.393Z</time></trkpt><trkpt lat="46.5054117" lon="11.7722267"><ele>2221.0</ele><time>2026-05-02T10:34:51.393Z</time></trkpt><trkpt lat="46.5053383" lon="11.77228"><ele>2221.5</ele><time>2026-05-02T10:34:52.394Z</time></trkpt><trkpt lat="46.5052817" lon="11.7723233"><ele>2222.0</ele><time>2026-05-02T10:34:53.394Z</time></trkpt><trkpt lat="46.5052283" lon="11.772435"><ele>2222.0</ele><time>2026-05-02T10:34:55.394Z</time></trkpt><trkpt lat="46.5052733" lon="11.7725583"><ele>2222.0</ele><time>2026-05-02T10:34:57.394Z</time></trkpt><trkpt lat="46.5053417" lon="11.77259"><ele>2222.0</ele><time>2026-05-02T10:34:58.394Z</time></trkpt><trkpt lat="46.5054183" lon="11.772605"><ele>2222.0</ele><time>2026-05-02T10:34:59.394Z</time></trkpt><trkpt lat="46.5054883" lon="11.7726167"><ele>2222.0</ele><time>2026-05-02T10:35:00.393Z</time></trkpt><trkpt lat="46.5055517" lon="11.7726367"><ele>2222.0</ele><time>2026-05-02T10:35:01.393Z</time></trkpt><trkpt lat="46.5056133" lon="11.7727183"><ele>2219.833333333333</ele><time>2026-05-02T10:35:03.394Z</time></trkpt><trkpt lat="46.505585" lon="11.7728133"><ele>2217.6666666666665</ele><time>2026-05-02T10:35:05.394Z</time></trkpt><trkpt lat="46.505475" lon="11.7728317"><ele>2215.5</ele><time>2026-05-02T10:35:07.394Z</time></trkpt><trkpt lat="46.5054033" lon="11.772815"><ele>2213.3333333333335</ele><time>2026-05-02T10:35:08.394Z</time></trkpt><trkpt lat="46.5053333" lon="11.7727967"><ele>2211.166666666667</ele><time>2026-05-02T10:35:09.394Z</time></trkpt><trkpt lat="46.50526" lon="11.7727967"><ele>2209.0</ele><time>2026-05-02T10:35:10.394Z</time></trkpt><trkpt lat="46.50518" lon="11.77281"><ele>2204.4</ele><time>2026-05-02T10:35:11.394Z</time></trkpt><trkpt lat="46.5050983" lon="11.7728383"><ele>2199.8</ele><time>2026-05-02T10:35:12.394Z</time></trkpt><trkpt lat="46.50501" lon="11.77287"><ele>2195.2</ele><time>2026-05-02T10:35:13.394Z</time></trkpt><trkpt lat="46.5049133" lon="11.7729183"><ele>2190.6</ele><time>2026-05-02T10:35:14.394Z</time></trkpt><trkpt lat="46.5048067" lon="11.7729533"><ele>2186.0</ele><time>2026-05-02T10:35:15.394Z</time></trkpt><trkpt lat="46.504695" lon="11.772965"><ele>2186.0</ele><time>2026-05-02T10:35:16.394Z</time></trkpt><trkpt lat="46.504595" lon="11.7729583"><ele>2186.0</ele><time>2026-05-02T10:35:17.394Z</time></trkpt><trkpt lat="46.5045" lon="11.7729433"><ele>2186.0</ele><time>2026-05-02T10:35:18.393Z</time></trkpt><trkpt lat="46.504415" lon="11.7729367"><ele>2186.0</ele><time>2026-05-02T10:35:19.394Z</time></trkpt><trkpt lat="46.5043483" lon="11.7729333"><ele>2186.0</ele><time>2026-05-02T10:35:20.394Z</time></trkpt><trkpt lat="46.5042833" lon="11.7729367"><ele>2186.0</ele><time>2026-05-02T10:35:21.394Z</time></trkpt><trkpt lat="46.5042133" lon="11.77301"><ele>2186.0</ele><time>2026-05-02T10:35:23.394Z</time></trkpt><trkpt lat="46.5042333" lon="11.77316"><ele>2186.0</ele><time>2026-05-02T10:35:25.394Z</time></trkpt><trkpt lat="46.504285" lon="11.773235"><ele>2186.0</ele><time>2026-05-02T10:35:26.394Z</time></trkpt><trkpt lat="46.504365" lon="11.7732983"><ele>2186.0</ele><time>2026-05-02T10:35:27.394Z</time></trkpt><trkpt lat="46.50445" lon="11.7733533"><ele>2186.0</ele><time>2026-05-02T10:35:28.394Z</time></trkpt><trkpt lat="46.5045333" lon="11.77339"><ele>2186.0</ele><time>2026-05-02T10:35:29.394Z</time></trkpt><trkpt lat="46.5046233" lon="11.7734117"><ele>2186.0</ele><time>2026-05-02T10:35:30.394Z</time></trkpt><trkpt lat="46.5047133" lon="11.7734217"><ele>2186.0</ele><time>2026-05-02T10:35:31.394Z</time></trkpt><trkpt lat="46.504805" lon="11.773425"><ele>2186.0</ele><time>2026-05-02T10:35:32.394Z</time></trkpt><trkpt lat="46.5048967" lon="11.773425"><ele>2186.0</ele><time>2026-05-02T10:35:33.394Z</time></trkpt><trkpt lat="46.5049733" lon="11.773435"><ele>2186.0</ele><time>2026-05-02T10:35:34.394Z</time></trkpt><trkpt lat="46.505085" lon="11.7734967"><ele>2184.1666666666665</ele><time>2026-05-02T10:35:36.394Z</time></trkpt><trkpt lat="46.505145" lon="11.7736517"><ele>2182.333333333333</ele><time>2026-05-02T10:35:38.394Z</time></trkpt><trkpt lat="46.505145" lon="11.773745"><ele>2180.5</ele><time>2026-05-02T10:35:39.394Z</time></trkpt><trkpt lat="46.505135" lon="11.77384"><ele>2178.6666666666665</ele><time>2026-05-02T10:35:40.394Z</time></trkpt><trkpt lat="46.50512" lon="11.77394"><ele>2176.8333333333335</ele><time>2026-05-02T10:35:41.394Z</time></trkpt><trkpt lat="46.5051183" lon="11.7740567"><ele>2175.0</ele><time>2026-05-02T10:35:42.394Z</time></trkpt><trkpt lat="46.5051383" lon="11.7741767"><ele>2175.0</ele><time>2026-05-02T10:35:43.393Z</time></trkpt><trkpt lat="46.5051683" lon="11.7742783"><ele>2175.0</ele><time>2026-05-02T10:35:44.394Z</time></trkpt><trkpt lat="46.5052167" lon="11.7743733"><ele>2175.0</ele><time>2026-05-02T10:35:45.394Z</time></trkpt><trkpt lat="46.5052667" lon="11.7744583"><ele>2175.0</ele><time>2026-05-02T10:35:46.394Z</time></trkpt><trkpt lat="46.5053067" lon="11.77455"><ele>2175.0</ele><time>2026-05-02T10:35:47.394Z</time></trkpt><trkpt lat="46.5053283" lon="11.7746517"><ele>2175.0</ele><time>2026-05-02T10:35:48.394Z</time></trkpt><trkpt lat="46.5053283" lon="11.774745"><ele>2175.0</ele><time>2026-05-02T10:35:49.394Z</time></trkpt><trkpt lat="46.5053133" lon="11.774835"><ele>2174.5</ele><time>2026-05-02T10:35:50.394Z</time></trkpt><trkpt lat="46.50527" lon="11.7749167"><ele>2174.0</ele><time>2026-05-02T10:35:51.394Z</time></trkpt><trkpt lat="46.5051983" lon="11.77498"><ele>2173.5</ele><time>2026-05-02T10:35:52.394Z</time></trkpt><trkpt lat="46.5051133" lon="11.7750367"><ele>2173.0</ele><time>2026-05-02T10:35:53.393Z</time></trkpt><trkpt lat="46.505035" lon="11.775085"><ele>2172.5</ele><time>2026-05-02T10:35:54.394Z</time></trkpt><trkpt lat="46.5049617" lon="11.7751417"><ele>2172.0</ele><time>2026-05-02T10:35:55.394Z</time></trkpt><trkpt lat="46.5048967" lon="11.7751917"><ele>2171.0</ele><time>2026-05-02T10:35:56.394Z</time></trkpt><trkpt lat="46.5048333" lon="11.7752417"><ele>2170.0</ele><time>2026-05-02T10:35:57.394Z</time></trkpt><trkpt lat="46.5047383" lon="11.7753067"><ele>2169.0</ele><time>2026-05-02T10:35:59.394Z</time></trkpt><trkpt lat="46.5046367" lon="11.7753483"><ele>2168.0</ele><time>2026-05-02T10:36:01.393Z</time></trkpt><trkpt lat="46.5045683" lon="11.7753367"><ele>2167.0</ele><time>2026-05-02T10:36:02.394Z</time></trkpt><trkpt lat="46.5045067" lon="11.7752817"><ele>2166.0</ele><time>2026-05-02T10:36:03.394Z</time></trkpt><trkpt lat="46.50446" lon="11.77519"><ele>2164.0</ele><time>2026-05-02T10:36:04.394Z</time></trkpt><trkpt lat="46.5044267" lon="11.77508"><ele>2162.0</ele><time>2026-05-02T10:36:05.394Z</time></trkpt><trkpt lat="46.5043967" lon="11.774955"><ele>2160.0</ele><time>2026-05-02T10:36:06.394Z</time></trkpt><trkpt lat="46.5043767" lon="11.774825"><ele>2158.0</ele><time>2026-05-02T10:36:07.394Z</time></trkpt><trkpt lat="46.5043767" lon="11.7747"><ele>2156.0</ele><time>2026-05-02T10:36:08.394Z</time></trkpt><trkpt lat="46.5043917" lon="11.77459"><ele>2154.0</ele><time>2026-05-02T10:36:09.393Z</time></trkpt><trkpt lat="46.504415" lon="11.7745017"><ele>2154.0</ele><time>2026-05-02T10:36:10.394Z</time></trkpt><trkpt lat="46.5044333" lon="11.7743783"><ele>2154.0</ele><time>2026-05-02T10:36:12.394Z</time></trkpt><trkpt lat="46.5044033" lon="11.7742967"><ele>2154.0</ele><time>2026-05-02T10:36:14.394Z</time></trkpt><trkpt lat="46.5043417" lon="11.7743233"><ele>2154.0</ele><time>2026-05-02T10:36:16.394Z</time></trkpt><trkpt lat="46.5042967" lon="11.7744883"><ele>2154.0</ele><time>2026-05-02T10:36:18.394Z</time></trkpt><trkpt lat="46.504285" lon="11.774615"><ele>2154.0</ele><time>2026-05-02T10:36:19.394Z</time></trkpt><trkpt lat="46.5042783" lon="11.7747683"><ele>2154.0</ele><time>2026-05-02T10:36:20.394Z</time></trkpt><trkpt lat="46.50427" lon="11.77494"><ele>2154.0</ele><time>2026-05-02T10:36:21.394Z</time></trkpt><trkpt lat="46.5042583" lon="11.7751167"><ele>2154.0</ele><time>2026-05-02T10:36:22.393Z</time></trkpt><trkpt lat="46.5042367" lon="11.7752933"><ele>2154.0</ele><time>2026-05-02T10:36:23.393Z</time></trkpt><trkpt lat="46.5041967" lon="11.7754717"><ele>2152.8</ele><time>2026-05-02T10:36:24.394Z</time></trkpt><trkpt lat="46.5041467" lon="11.775635"><ele>2151.6000000000004</ele><time>2026-05-02T10:36:25.394Z</time></trkpt><trkpt lat="46.50411" lon="11.77578"><ele>2150.4</ele><time>2026-05-02T10:36:26.394Z</time></trkpt><trkpt lat="46.5040767" lon="11.7759133"><ele>2149.2000000000003</ele><time>2026-05-02T10:36:27.394Z</time></trkpt><trkpt lat="46.504065" lon="11.7760383"><ele>2148.0</ele><time>2026-05-02T10:36:28.394Z</time></trkpt><trkpt lat="46.5040733" lon="11.7761733"><ele>2146.2000000000003</ele><time>2026-05-02T10:36:29.394Z</time></trkpt><trkpt lat="46.50411" lon="11.7763067"><ele>2144.4</ele><time>2026-05-02T10:36:30.394Z</time></trkpt><trkpt lat="46.5041667" lon="11.7764433"><ele>2142.6000000000004</ele><time>2026-05-02T10:36:31.393Z</time></trkpt><trkpt lat="46.5042233" lon="11.7765667"><ele>2140.8</ele><time>2026-05-02T10:36:32.393Z</time></trkpt><trkpt lat="46.5042917" lon="11.776685"><ele>2139.0</ele><time>2026-05-02T10:36:33.394Z</time></trkpt><trkpt lat="46.5043717" lon="11.7768"><ele>2138.75</ele><time>2026-05-02T10:36:34.394Z</time></trkpt><trkpt lat="46.5044633" lon="11.7769017"><ele>2138.5</ele><time>2026-05-02T10:36:35.394Z</time></trkpt><trkpt lat="46.5045717" lon="11.7769867"><ele>2138.25</ele><time>2026-05-02T10:36:36.394Z</time></trkpt><trkpt lat="46.5046833" lon="11.7770433"><ele>2138.0</ele><time>2026-05-02T10:36:37.394Z</time></trkpt><trkpt lat="46.5047933" lon="11.7770783"><ele>2138.0</ele><time>2026-05-02T10:36:38.393Z</time></trkpt><trkpt lat="46.5049017" lon="11.77712"><ele>2138.0</ele><time>2026-05-02T10:36:39.393Z</time></trkpt><trkpt lat="46.5049933" lon="11.7772083"><ele>2138.0</ele><time>2026-05-02T10:36:40.394Z</time></trkpt><trkpt lat="46.505075" lon="11.7773467"><ele>2138.0</ele><time>2026-05-02T10:36:41.394Z</time></trkpt><trkpt lat="46.5051383" lon="11.777515"><ele>2138.0</ele><time>2026-05-02T10:36:42.393Z</time></trkpt><trkpt lat="46.5051983" lon="11.7776783"><ele>2138.0</ele><time>2026-05-02T10:36:43.393Z</time></trkpt><trkpt lat="46.505255" lon="11.77783"><ele>2138.0</ele><time>2026-05-02T10:36:44.393Z</time></trkpt><trkpt lat="46.5052933" lon="11.7779733"><ele>2138.0</ele><time>2026-05-02T10:36:45.393Z</time></trkpt><trkpt lat="46.5053017" lon="11.7781133"><ele>2138.0</ele><time>2026-05-02T10:36:46.394Z</time></trkpt><trkpt lat="46.5052817" lon="11.7782567"><ele>2135.0</ele><time>2026-05-02T10:36:47.394Z</time></trkpt><trkpt lat="46.5052383" lon="11.7784"><ele>2132.0</ele><time>2026-05-02T10:36:48.393Z</time></trkpt><trkpt lat="46.5051717" lon="11.7785517"><ele>2129.0</ele><time>2026-05-02T10:36:49.394Z</time></trkpt><trkpt lat="46.5050983" lon="11.7786883"><ele>2126.0</ele><time>2026-05-02T10:36:50.393Z</time></trkpt><trkpt lat="46.5050133" lon="11.7788233"><ele>2125.0</ele><time>2026-05-02T10:36:51.394Z</time></trkpt><trkpt lat="46.5049133" lon="11.778935"><ele>2124.0</ele><time>2026-05-02T10:36:52.394Z</time></trkpt><trkpt lat="46.504805" lon="11.7790317"><ele>2123.0</ele><time>2026-05-02T10:36:53.393Z</time></trkpt><trkpt lat="46.504705" lon="11.7791"><ele>2122.0</ele><time>2026-05-02T10:36:54.394Z</time></trkpt><trkpt lat="46.5046267" lon="11.779145"><ele>2121.0</ele><time>2026-05-02T10:36:55.394Z</time></trkpt><trkpt lat="46.5045667" lon="11.779195"><ele>2119.5</ele><time>2026-05-02T10:36:56.394Z</time></trkpt><trkpt lat="46.5045267" lon="11.779355"><ele>2118.0</ele><time>2026-05-02T10:36:58.394Z</time></trkpt><trkpt lat="46.5045733" lon="11.7794717"><ele>2116.5</ele><time>2026-05-02T10:36:59.394Z</time></trkpt><trkpt lat="46.5046417" lon="11.779625"><ele>2115.0</ele><time>2026-05-02T10:37:00.394Z</time></trkpt><trkpt lat="46.5047133" lon="11.7797883"><ele>2115.0</ele><time>2026-05-02T10:37:01.394Z</time></trkpt><trkpt lat="46.5047883" lon="11.7799517"><ele>2115.0</ele><time>2026-05-02T10:37:02.393Z</time></trkpt><trkpt lat="46.5048633" lon="11.7801183"><ele>2115.0</ele><time>2026-05-02T10:37:03.394Z</time></trkpt><trkpt lat="46.5049383" lon="11.7802883"><ele>2115.0</ele><time>2026-05-02T10:37:04.394Z</time></trkpt><trkpt lat="46.5050117" lon="11.78046"><ele>2112.25</ele><time>2026-05-02T10:37:05.394Z</time></trkpt><trkpt lat="46.5050867" lon="11.7806267"><ele>2109.5</ele><time>2026-05-02T10:37:06.394Z</time></trkpt><trkpt lat="46.5051683" lon="11.780795"><ele>2106.75</ele><time>2026-05-02T10:37:07.393Z</time></trkpt><trkpt lat="46.5052517" lon="11.780965"><ele>2104.0</ele><time>2026-05-02T10:37:08.394Z</time></trkpt><trkpt lat="46.5053417" lon="11.7811167"><ele>2103.5</ele><time>2026-05-02T10:37:09.394Z</time></trkpt><trkpt lat="46.50544" lon="11.781265"><ele>2103.0</ele><time>2026-05-02T10:37:10.394Z</time></trkpt><trkpt lat="46.50555" lon="11.7814083"><ele>2102.5</ele><time>2026-05-02T10:37:11.394Z</time></trkpt><trkpt lat="46.5056583" lon="11.7815517"><ele>2102.0</ele><time>2026-05-02T10:37:12.394Z</time></trkpt><trkpt lat="46.505755" lon="11.7816983"><ele>2098.25</ele><time>2026-05-02T10:37:13.394Z</time></trkpt><trkpt lat="46.5058383" lon="11.781855"><ele>2094.5</ele><time>2026-05-02T10:37:14.393Z</time></trkpt><trkpt lat="46.505915" lon="11.7820383"><ele>2090.75</ele><time>2026-05-02T10:37:15.393Z</time></trkpt><trkpt lat="46.505985" lon="11.7822317"><ele>2087.0</ele><time>2026-05-02T10:37:16.394Z</time></trkpt><trkpt lat="46.5060533" lon="11.7824333"><ele>2087.0</ele><time>2026-05-02T10:37:17.394Z</time></trkpt><trkpt lat="46.5061233" lon="11.7826367"><ele>2087.0</ele><time>2026-05-02T10:37:18.393Z</time></trkpt><trkpt lat="46.5061867" lon="11.7828483"><ele>2087.0</ele><time>2026-05-02T10:37:19.394Z</time></trkpt><trkpt lat="46.5062467" lon="11.7830617"><ele>2089.333333333333</ele><time>2026-05-02T10:37:20.394Z</time></trkpt><trkpt lat="46.5062983" lon="11.783275"><ele>2091.6666666666665</ele><time>2026-05-02T10:37:21.394Z</time></trkpt><trkpt lat="46.5063533" lon="11.7834867"><ele>2094.0</ele><time>2026-05-02T10:37:22.393Z</time></trkpt><trkpt lat="46.5064083" lon="11.7836867"><ele>2089.0</ele><time>2026-05-02T10:37:23.394Z</time></trkpt><trkpt lat="46.50645" lon="11.7838983"><ele>2084.0</ele><time>2026-05-02T10:37:24.394Z</time></trkpt><trkpt lat="46.506495" lon="11.784105"><ele>2079.0</ele><time>2026-05-02T10:37:25.394Z</time></trkpt><trkpt lat="46.5065383" lon="11.784315"><ele>2077.5</ele><time>2026-05-02T10:37:26.394Z</time></trkpt><trkpt lat="46.5065667" lon="11.78452"><ele>2076.0</ele><time>2026-05-02T10:37:27.394Z</time></trkpt><trkpt lat="46.5065867" lon="11.7847217"><ele>2074.5</ele><time>2026-05-02T10:37:28.394Z</time></trkpt><trkpt lat="46.5065983" lon="11.7849433"><ele>2073.0</ele><time>2026-05-02T10:37:29.394Z</time></trkpt><trkpt lat="46.5066033" lon="11.7851683"><ele>2072.3333333333335</ele><time>2026-05-02T10:37:30.393Z</time></trkpt><trkpt lat="46.5066117" lon="11.7853917"><ele>2071.666666666667</ele><time>2026-05-02T10:37:31.393Z</time></trkpt><trkpt lat="46.5066217" lon="11.7856167"><ele>2071.0</ele><time>2026-05-02T10:37:32.394Z</time></trkpt><trkpt lat="46.5066283" lon="11.7858367"><ele>2070.0</ele><time>2026-05-02T10:37:33.394Z</time></trkpt><trkpt lat="46.506635" lon="11.7860567"><ele>2069.0</ele><time>2026-05-02T10:37:34.394Z</time></trkpt><trkpt lat="46.5066567" lon="11.7862733"><ele>2068.0</ele><time>2026-05-02T10:37:35.393Z</time></trkpt><trkpt lat="46.5066933" lon="11.7864867"><ele>2068.0</ele><time>2026-05-02T10:37:36.394Z</time></trkpt><trkpt lat="46.5067317" lon="11.7867033"><ele>2068.0</ele><time>2026-05-02T10:37:37.394Z</time></trkpt><trkpt lat="46.50676" lon="11.7869217"><ele>2068.0</ele><time>2026-05-02T10:37:38.394Z</time></trkpt><trkpt lat="46.5067717" lon="11.787135"><ele>2062.75</ele><time>2026-05-02T10:37:39.394Z</time></trkpt><trkpt lat="46.5067733" lon="11.7873517"><ele>2057.5</ele><time>2026-05-02T10:37:40.394Z</time></trkpt><trkpt lat="46.5067833" lon="11.7875483"><ele>2052.25</ele><time>2026-05-02T10:37:41.394Z</time></trkpt><trkpt lat="46.5067967" lon="11.7877417"><ele>2047.0</ele><time>2026-05-02T10:37:42.394Z</time></trkpt><trkpt lat="46.5068083" lon="11.7879083"><ele>2045.6666666666667</ele><time>2026-05-02T10:37:43.394Z</time></trkpt><trkpt lat="46.5068267" lon="11.7880583"><ele>2044.3333333333335</ele><time>2026-05-02T10:37:44.393Z</time></trkpt><trkpt lat="46.5068467" lon="11.7882"><ele>2043.0</ele><time>2026-05-02T10:37:45.394Z</time></trkpt><trkpt lat="46.5068583" lon="11.7883267"><ele>2041.6666666666665</ele><time>2026-05-02T10:37:46.394Z</time></trkpt><trkpt lat="46.5068617" lon="11.78842"><ele>2040.3333333333333</ele><time>2026-05-02T10:37:47.394Z</time></trkpt><trkpt lat="46.5068067" lon="11.7884967"><ele>2039.0</ele><time>2026-05-02T10:37:49.394Z</time></trkpt><trkpt lat="46.506735" lon="11.7883817"><ele>2039.0</ele><time>2026-05-02T10:37:51.394Z</time></trkpt><trkpt lat="46.5067217" lon="11.7882417"><ele>2039.0</ele><time>2026-05-02T10:37:52.394Z</time></trkpt><trkpt lat="46.506695" lon="11.788065"><ele>2039.0</ele><time>2026-05-02T10:37:53.394Z</time></trkpt><trkpt lat="46.5066517" lon="11.7878767"><ele>2039.0</ele><time>2026-05-02T10:37:54.393Z</time></trkpt><trkpt lat="46.5065967" lon="11.787695"><ele>2041.0</ele><time>2026-05-02T10:37:55.393Z</time></trkpt><trkpt lat="46.50654" lon="11.7875133"><ele>2043.0</ele><time>2026-05-02T10:37:56.394Z</time></trkpt><trkpt lat="46.5064817" lon="11.7873483"><ele>2045.0</ele><time>2026-05-02T10:37:57.394Z</time></trkpt><trkpt lat="46.5064117" lon="11.787205"><ele>2047.0</ele><time>2026-05-02T10:37:58.394Z</time></trkpt><trkpt lat="46.5063283" lon="11.7870767"><ele>2045.0</ele><time>2026-05-02T10:37:59.393Z</time></trkpt><trkpt lat="46.50624" lon="11.7869617"><ele>2043.0</ele><time>2026-05-02T10:38:00.394Z</time></trkpt><trkpt lat="46.506155" lon="11.7868333"><ele>2041.0</ele><time>2026-05-02T10:38:01.394Z</time></trkpt><trkpt lat="46.50605" lon="11.7867133"><ele>2039.0</ele><time>2026-05-02T10:38:02.394Z</time></trkpt><trkpt lat="46.5059383" lon="11.7865783"><ele>2039.0</ele><time>2026-05-02T10:38:03.394Z</time></trkpt><trkpt lat="46.50582" lon="11.78643"><ele>2039.0</ele><time>2026-05-02T10:38:04.394Z</time></trkpt><trkpt lat="46.5056983" lon="11.7862733"><ele>2039.0</ele><time>2026-05-02T10:38:05.394Z</time></trkpt><trkpt lat="46.5055633" lon="11.7861217"><ele>2041.6666666666665</ele><time>2026-05-02T10:38:06.394Z</time></trkpt><trkpt lat="46.505435" lon="11.78597"><ele>2044.3333333333335</ele><time>2026-05-02T10:38:07.393Z</time></trkpt><trkpt lat="46.50531" lon="11.78582"><ele>2047.0</ele><time>2026-05-02T10:38:08.393Z</time></trkpt><trkpt lat="46.5051867" lon="11.7856633"><ele>2040.0</ele><time>2026-05-02T10:38:09.394Z</time></trkpt><trkpt lat="46.505055" lon="11.7855167"><ele>2033.0</ele><time>2026-05-02T10:38:10.394Z</time></trkpt><trkpt lat="46.504925" lon="11.7853733"><ele>2026.0</ele><time>2026-05-02T10:38:11.394Z</time></trkpt><trkpt lat="46.5048017" lon="11.7852217"><ele>2027.5</ele><time>2026-05-02T10:38:12.394Z</time></trkpt><trkpt lat="46.504685" lon="11.7850733"><ele>2029.0</ele><time>2026-05-02T10:38:13.394Z</time></trkpt><trkpt lat="46.5045733" lon="11.7849333"><ele>2030.5</ele><time>2026-05-02T10:38:14.393Z</time></trkpt><trkpt lat="46.5044733" lon="11.7848"><ele>2032.0</ele><time>2026-05-02T10:38:15.394Z</time></trkpt><trkpt lat="46.5043817" lon="11.784685"><ele>2029.3333333333335</ele><time>2026-05-02T10:38:16.394Z</time></trkpt><trkpt lat="46.5043067" lon="11.78458"><ele>2026.6666666666667</ele><time>2026-05-02T10:38:17.393Z</time></trkpt><trkpt lat="46.5042367" lon="11.7844983"><ele>2024.0</ele><time>2026-05-02T10:38:18.394Z</time></trkpt><trkpt lat="46.50418" lon="11.7844467"><ele>2021.3333333333335</ele><time>2026-05-02T10:38:19.394Z</time></trkpt><trkpt lat="46.50408" lon="11.7844683"><ele>2018.6666666666667</ele><time>2026-05-02T10:38:21.394Z</time></trkpt><trkpt lat="46.5040433" lon="11.78455"><ele>2016.0</ele><time>2026-05-02T10:38:22.394Z</time></trkpt><trkpt lat="46.5040317" lon="11.78466"><ele>2016.0</ele><time>2026-05-02T10:38:23.394Z</time></trkpt><trkpt lat="46.5040767" lon="11.7848083"><ele>2016.0</ele><time>2026-05-02T10:38:24.394Z</time></trkpt><trkpt lat="46.50413" lon="11.7849783"><ele>2016.0</ele><time>2026-05-02T10:38:25.394Z</time></trkpt><trkpt lat="46.504175" lon="11.785155"><ele>2016.0</ele><time>2026-05-02T10:38:26.393Z</time></trkpt><trkpt lat="46.504205" lon="11.7853467"><ele>2014.25</ele><time>2026-05-02T10:38:27.394Z</time></trkpt><trkpt lat="46.5042267" lon="11.78554"><ele>2012.5</ele><time>2026-05-02T10:38:28.394Z</time></trkpt><trkpt lat="46.50424" lon="11.785745"><ele>2010.75</ele><time>2026-05-02T10:38:29.394Z</time></trkpt><trkpt lat="46.5042617" lon="11.785945"><ele>2009.0</ele><time>2026-05-02T10:38:30.394Z</time></trkpt><trkpt lat="46.504295" lon="11.78614"><ele>2007.5</ele><time>2026-05-02T10:38:31.394Z</time></trkpt><trkpt lat="46.5043317" lon="11.78632"><ele>2006.0</ele><time>2026-05-02T10:38:32.393Z</time></trkpt><trkpt lat="46.5043783" lon="11.7864933"><ele>2004.5</ele><time>2026-05-02T10:38:33.394Z</time></trkpt><trkpt lat="46.5044217" lon="11.7866633"><ele>2003.0</ele><time>2026-05-02T10:38:34.394Z</time></trkpt><trkpt lat="46.5044583" lon="11.7868117"><ele>2001.2</ele><time>2026-05-02T10:38:35.394Z</time></trkpt><trkpt lat="46.504485" lon="11.7869233"><ele>1999.4</ele><time>2026-05-02T10:38:36.394Z</time></trkpt><trkpt lat="46.5044683" lon="11.7870867"><ele>1997.6000000000001</ele><time>2026-05-02T10:38:38.394Z</time></trkpt><trkpt lat="46.5043683" lon="11.7871283"><ele>1995.8000000000002</ele><time>2026-05-02T10:38:40.393Z</time></trkpt><trkpt lat="46.5042967" lon="11.7870617"><ele>1994.0</ele><time>2026-05-02T10:38:41.394Z</time></trkpt><trkpt lat="46.504205" lon="11.78692"><ele>1997.0</ele><time>2026-05-02T10:38:42.393Z</time></trkpt><trkpt lat="46.5041067" lon="11.7867533"><ele>2000.0</ele><time>2026-05-02T10:38:43.393Z</time></trkpt><trkpt lat="46.504" lon="11.7865917"><ele>2003.0</ele><time>2026-05-02T10:38:44.394Z</time></trkpt><trkpt lat="46.5038817" lon="11.7864333"><ele>2003.0</ele><time>2026-05-02T10:38:45.394Z</time></trkpt><trkpt lat="46.50376" lon="11.7862767"><ele>2003.0</ele><time>2026-05-02T10:38:46.394Z</time></trkpt><trkpt lat="46.5036267" lon="11.78614"><ele>2003.0</ele><time>2026-05-02T10:38:47.394Z</time></trkpt><trkpt lat="46.5034983" lon="11.7860117"><ele>1998.6666666666665</ele><time>2026-05-02T10:38:48.394Z</time></trkpt><trkpt lat="46.5033783" lon="11.7858733"><ele>1994.3333333333335</ele><time>2026-05-02T10:38:49.394Z</time></trkpt><trkpt lat="46.50325" lon="11.78575"><ele>1990.0</ele><time>2026-05-02T10:38:50.394Z</time></trkpt><trkpt lat="46.5031367" lon="11.78562"><ele>1990.0</ele><time>2026-05-02T10:38:51.393Z</time></trkpt><trkpt lat="46.503025" lon="11.7854933"><ele>1990.0</ele><time>2026-05-02T10:38:52.394Z</time></trkpt><trkpt lat="46.50292" lon="11.785355"><ele>1990.0</ele><time>2026-05-02T10:38:53.394Z</time></trkpt><trkpt lat="46.5028267" lon="11.7852367"><ele>1990.0</ele><time>2026-05-02T10:38:54.394Z</time></trkpt><trkpt lat="46.5027517" lon="11.785135"><ele>1984.25</ele><time>2026-05-02T10:38:55.394Z</time></trkpt><trkpt lat="46.50269" lon="11.7850133"><ele>1978.5</ele><time>2026-05-02T10:38:56.394Z</time></trkpt><trkpt lat="46.502645" lon="11.7848583"><ele>1972.75</ele><time>2026-05-02T10:38:57.394Z</time></trkpt><trkpt lat="46.502605" lon="11.784685"><ele>1967.0</ele><time>2026-05-02T10:38:58.394Z</time></trkpt><trkpt lat="46.5025633" lon="11.7845083"><ele>1971.0</ele><time>2026-05-02T10:38:59.393Z</time></trkpt><trkpt lat="46.5025217" lon="11.7843433"><ele>1975.0</ele><time>2026-05-02T10:39:00.394Z</time></trkpt><trkpt lat="46.5024717" lon="11.784185"><ele>1979.0</ele><time>2026-05-02T10:39:01.394Z</time></trkpt><trkpt lat="46.5024017" lon="11.7840383"><ele>1983.0</ele><time>2026-05-02T10:39:02.394Z</time></trkpt><trkpt lat="46.50231" lon="11.7839133"><ele>1983.0</ele><time>2026-05-02T10:39:03.394Z</time></trkpt><trkpt lat="46.502195" lon="11.7838383"><ele>1983.0</ele><time>2026-05-02T10:39:04.394Z</time></trkpt><trkpt lat="46.5020717" lon="11.783805"><ele>1983.0</ele><time>2026-05-02T10:39:05.394Z</time></trkpt><trkpt lat="46.5019183" lon="11.7838083"><ele>1983.0</ele><time>2026-05-02T10:39:06.394Z</time></trkpt><trkpt lat="46.5017667" lon="11.78382"><ele>1977.0</ele><time>2026-05-02T10:39:07.394Z</time></trkpt><trkpt lat="46.5016183" lon="11.7838417"><ele>1971.0</ele><time>2026-05-02T10:39:08.394Z</time></trkpt><trkpt lat="46.50149" lon="11.7838417"><ele>1965.0</ele><time>2026-05-02T10:39:09.394Z</time></trkpt><trkpt lat="46.5013767" lon="11.7838183"><ele>1959.0</ele><time>2026-05-02T10:39:10.394Z</time></trkpt><trkpt lat="46.5012533" lon="11.78376"><ele>1959.0</ele><time>2026-05-02T10:39:11.394Z</time></trkpt><trkpt lat="46.5011517" lon="11.7836633"><ele>1959.0</ele><time>2026-05-02T10:39:12.394Z</time></trkpt><trkpt lat="46.5010567" lon="11.7835333"><ele>1959.0</ele><time>2026-05-02T10:39:13.394Z</time></trkpt><trkpt lat="46.5009767" lon="11.78338"><ele>1959.0</ele><time>2026-05-02T10:39:14.394Z</time></trkpt><trkpt lat="46.50091" lon="11.78322"><ele>1959.0</ele><time>2026-05-02T10:39:15.394Z</time></trkpt><trkpt lat="46.5008483" lon="11.7830917"><ele>1959.0</ele><time>2026-05-02T10:39:16.394Z</time></trkpt><trkpt lat="46.500795" lon="11.782985"><ele>1959.0</ele><time>2026-05-02T10:39:17.394Z</time></trkpt><trkpt lat="46.5007483" lon="11.7829017"><ele>1959.0</ele><time>2026-05-02T10:39:18.394Z</time></trkpt><trkpt lat="46.5006967" lon="11.78283"><ele>1959.0</ele><time>2026-05-02T10:39:19.394Z</time></trkpt><trkpt lat="46.50061" lon="11.7828483"><ele>1959.0</ele><time>2026-05-02T10:39:21.394Z</time></trkpt><trkpt lat="46.5005767" lon="11.7830033"><ele>1959.0</ele><time>2026-05-02T10:39:23.394Z</time></trkpt><trkpt lat="46.5006383" lon="11.7831433"><ele>1959.0</ele><time>2026-05-02T10:39:24.394Z</time></trkpt><trkpt lat="46.5007133" lon="11.783285"><ele>1959.0</ele><time>2026-05-02T10:39:25.394Z</time></trkpt><trkpt lat="46.5007967" lon="11.78343"><ele>1959.0</ele><time>2026-05-02T10:39:26.394Z</time></trkpt><trkpt lat="46.5008833" lon="11.7835867"><ele>1953.0</ele><time>2026-05-02T10:39:27.393Z</time></trkpt><trkpt lat="46.5009667" lon="11.7837467"><ele>1947.0</ele><time>2026-05-02T10:39:28.394Z</time></trkpt><trkpt lat="46.5010467" lon="11.7839033"><ele>1941.0</ele><time>2026-05-02T10:39:29.394Z</time></trkpt><trkpt lat="46.501125" lon="11.7840633"><ele>1935.0</ele><time>2026-05-02T10:39:30.393Z</time></trkpt><trkpt lat="46.5011883" lon="11.7842267"><ele>1935.75</ele><time>2026-05-02T10:39:31.394Z</time></trkpt><trkpt lat="46.5012517" lon="11.7843817"><ele>1936.5</ele><time>2026-05-02T10:39:32.394Z</time></trkpt><trkpt lat="46.50132" lon="11.7845267"><ele>1937.25</ele><time>2026-05-02T10:39:33.393Z</time></trkpt><trkpt lat="46.5013883" lon="11.7846683"><ele>1938.0</ele><time>2026-05-02T10:39:34.394Z</time></trkpt><trkpt lat="46.5014767" lon="11.7847967"><ele>1938.0</ele><time>2026-05-02T10:39:35.394Z</time></trkpt><trkpt lat="46.50158" lon="11.78492"><ele>1938.0</ele><time>2026-05-02T10:39:36.394Z</time></trkpt><trkpt lat="46.501685" lon="11.7850317"><ele>1938.0</ele><time>2026-05-02T10:39:37.393Z</time></trkpt><trkpt lat="46.5017833" lon="11.785155"><ele>1938.0</ele><time>2026-05-02T10:39:38.393Z</time></trkpt><trkpt lat="46.5018683" lon="11.7852967"><ele>1942.5</ele><time>2026-05-02T10:39:39.394Z</time></trkpt><trkpt lat="46.5019417" lon="11.78545"><ele>1947.0</ele><time>2026-05-02T10:39:40.394Z</time></trkpt><trkpt lat="46.502" lon="11.7856217"><ele>1951.5</ele><time>2026-05-02T10:39:41.394Z</time></trkpt><trkpt lat="46.5020517" lon="11.7858117"><ele>1956.0</ele><time>2026-05-02T10:39:42.394Z</time></trkpt><trkpt lat="46.5020967" lon="11.7859967"><ele>1952.0</ele><time>2026-05-02T10:39:43.394Z</time></trkpt><trkpt lat="46.5021417" lon="11.7861783"><ele>1948.0</ele><time>2026-05-02T10:39:44.394Z</time></trkpt><trkpt lat="46.5021833" lon="11.7863683"><ele>1944.0</ele><time>2026-05-02T10:39:45.394Z</time></trkpt><trkpt lat="46.5022217" lon="11.78656"><ele>1940.0</ele><time>2026-05-02T10:39:46.394Z</time></trkpt><trkpt lat="46.502255" lon="11.7867467"><ele>1936.0</ele><time>2026-05-02T10:39:47.393Z</time></trkpt><trkpt lat="46.50229" lon="11.78693"><ele>1932.0</ele><time>2026-05-02T10:39:48.394Z</time></trkpt><trkpt lat="46.5023317" lon="11.7871117"><ele>1928.0</ele><time>2026-05-02T10:39:49.394Z</time></trkpt><trkpt lat="46.502365" lon="11.7872933"><ele>1924.0</ele><time>2026-05-02T10:39:50.393Z</time></trkpt><trkpt lat="46.5023917" lon="11.7874733"><ele>1924.0</ele><time>2026-05-02T10:39:51.394Z</time></trkpt><trkpt lat="46.50243" lon="11.7876417"><ele>1924.0</ele><time>2026-05-02T10:39:52.394Z</time></trkpt><trkpt lat="46.50248" lon="11.787815"><ele>1924.0</ele><time>2026-05-02T10:39:53.394Z</time></trkpt><trkpt lat="46.50254" lon="11.7879883"><ele>1924.0</ele><time>2026-05-02T10:39:54.394Z</time></trkpt><trkpt lat="46.502625" lon="11.7881567"><ele>1917.0</ele><time>2026-05-02T10:39:55.394Z</time></trkpt><trkpt lat="46.502735" lon="11.78831"><ele>1910.0</ele><time>2026-05-02T10:39:56.393Z</time></trkpt><trkpt lat="46.5028567" lon="11.7884517"><ele>1903.0</ele><time>2026-05-02T10:39:57.393Z</time></trkpt><trkpt lat="46.5029633" lon="11.7885933"><ele>1903.0</ele><time>2026-05-02T10:39:58.393Z</time></trkpt><trkpt lat="46.5030583" lon="11.7887467"><ele>1903.0</ele><time>2026-05-02T10:39:59.394Z</time></trkpt><trkpt lat="46.5031517" lon="11.7889067"><ele>1903.0</ele><time>2026-05-02T10:40:00.394Z</time></trkpt><trkpt lat="46.5032367" lon="11.78907"><ele>1903.0</ele><time>2026-05-02T10:40:01.394Z</time></trkpt><trkpt lat="46.5033233" lon="11.7892367"><ele>1900.0</ele><time>2026-05-02T10:40:02.394Z</time></trkpt><trkpt lat="46.503415" lon="11.7893917"><ele>1897.0</ele><time>2026-05-02T10:40:03.394Z</time></trkpt><trkpt lat="46.50348" lon="11.7895383"><ele>1894.0</ele><time>2026-05-02T10:40:04.394Z</time></trkpt><trkpt lat="46.5035333" lon="11.7896683"><ele>1891.0</ele><time>2026-05-02T10:40:05.394Z</time></trkpt><trkpt lat="46.5035717" lon="11.7898083"><ele>1891.0</ele><time>2026-05-02T10:40:06.393Z</time></trkpt><trkpt lat="46.503585" lon="11.7899433"><ele>1891.0</ele><time>2026-05-02T10:40:07.393Z</time></trkpt><trkpt lat="46.5035617" lon="11.7901033"><ele>1891.0</ele><time>2026-05-02T10:40:08.394Z</time></trkpt><trkpt lat="46.5034967" lon="11.7902567"><ele>1891.0</ele><time>2026-05-02T10:40:09.394Z</time></trkpt><trkpt lat="46.5034" lon="11.7904133"><ele>1890.75</ele><time>2026-05-02T10:40:10.394Z</time></trkpt><trkpt lat="46.5032933" lon="11.7905633"><ele>1890.5</ele><time>2026-05-02T10:40:11.394Z</time></trkpt><trkpt lat="46.5031817" lon="11.7907083"><ele>1890.25</ele><time>2026-05-02T10:40:12.394Z</time></trkpt><trkpt lat="46.503085" lon="11.7908433"><ele>1890.0</ele><time>2026-05-02T10:40:13.394Z</time></trkpt><trkpt lat="46.50298" lon="11.7909817"><ele>1886.3333333333335</ele><time>2026-05-02T10:40:14.394Z</time></trkpt><trkpt lat="46.5028617" lon="11.7911083"><ele>1882.6666666666667</ele><time>2026-05-02T10:40:15.394Z</time></trkpt><trkpt lat="46.5027267" lon="11.79121"><ele>1879.0</ele><time>2026-05-02T10:40:16.393Z</time></trkpt><trkpt lat="46.502575" lon="11.7912883"><ele>1879.0</ele><time>2026-05-02T10:40:17.394Z</time></trkpt><trkpt lat="46.5024217" lon="11.7913417"><ele>1879.0</ele><time>2026-05-02T10:40:18.393Z</time></trkpt><trkpt lat="46.5022767" lon="11.7913917"><ele>1879.0</ele><time>2026-05-02T10:40:19.394Z</time></trkpt><trkpt lat="46.5021367" lon="11.79144"><ele>1877.75</ele><time>2026-05-02T10:40:20.394Z</time></trkpt><trkpt lat="46.502" lon="11.7914867"><ele>1876.5</ele><time>2026-05-02T10:40:21.394Z</time></trkpt><trkpt lat="46.5018667" lon="11.79154"><ele>1875.25</ele><time>2026-05-02T10:40:22.394Z</time></trkpt><trkpt lat="46.5017333" lon="11.79159"><ele>1874.0</ele><time>2026-05-02T10:40:23.393Z</time></trkpt><trkpt lat="46.50159" lon="11.7916133"><ele>1874.0</ele><time>2026-05-02T10:40:24.394Z</time></trkpt><trkpt lat="46.5014467" lon="11.79162"><ele>1874.0</ele><time>2026-05-02T10:40:25.394Z</time></trkpt><trkpt lat="46.5013033" lon="11.79159"><ele>1874.0</ele><time>2026-05-02T10:40:26.394Z</time></trkpt><trkpt lat="46.5011683" lon="11.7915317"><ele>1874.0</ele><time>2026-05-02T10:40:27.393Z</time></trkpt><trkpt lat="46.5010433" lon="11.7914367"><ele>1873.75</ele><time>2026-05-02T10:40:28.394Z</time></trkpt><trkpt lat="46.5009283" lon="11.791335"><ele>1873.5</ele><time>2026-05-02T10:40:29.394Z</time></trkpt><trkpt lat="46.50082" lon="11.7912267"><ele>1873.25</ele><time>2026-05-02T10:40:30.394Z</time></trkpt><trkpt lat="46.500705" lon="11.79112"><ele>1873.0</ele><time>2026-05-02T10:40:31.394Z</time></trkpt><trkpt lat="46.500585" lon="11.79102"><ele>1872.0</ele><time>2026-05-02T10:40:32.394Z</time></trkpt><trkpt lat="46.50047" lon="11.79092"><ele>1871.0</ele><time>2026-05-02T10:40:33.394Z</time></trkpt><trkpt lat="46.5003533" lon="11.7908233"><ele>1870.0</ele><time>2026-05-02T10:40:34.394Z</time></trkpt><trkpt lat="46.50024" lon="11.79073"><ele>1869.0</ele><time>2026-05-02T10:40:35.394Z</time></trkpt><trkpt lat="46.500125" lon="11.7906483"><ele>1868.5</ele><time>2026-05-02T10:40:36.394Z</time></trkpt><trkpt lat="46.5000133" lon="11.7905917"><ele>1868.0</ele><time>2026-05-02T10:40:37.394Z</time></trkpt><trkpt lat="46.49989" lon="11.7905667"><ele>1867.5</ele><time>2026-05-02T10:40:38.394Z</time></trkpt><trkpt lat="46.4997683" lon="11.79057"><ele>1867.0</ele><time>2026-05-02T10:40:39.394Z</time></trkpt><trkpt lat="46.4996433" lon="11.790595"><ele>1864.25</ele><time>2026-05-02T10:40:40.394Z</time></trkpt><trkpt lat="46.4995083" lon="11.790635"><ele>1861.5</ele><time>2026-05-02T10:40:41.393Z</time></trkpt><trkpt lat="46.49937" lon="11.79068"><ele>1858.75</ele><time>2026-05-02T10:40:42.394Z</time></trkpt><trkpt lat="46.4992417" lon="11.7907117"><ele>1856.0</ele><time>2026-05-02T10:40:43.394Z</time></trkpt><trkpt lat="46.4991033" lon="11.79076"><ele>1856.0</ele><time>2026-05-02T10:40:44.394Z</time></trkpt><trkpt lat="46.4989617" lon="11.7908033"><ele>1856.0</ele><time>2026-05-02T10:40:45.394Z</time></trkpt><trkpt lat="46.4988167" lon="11.79083"><ele>1856.0</ele><time>2026-05-02T10:40:46.393Z</time></trkpt><trkpt lat="46.4986667" lon="11.790845"><ele>1856.0</ele><time>2026-05-02T10:40:47.394Z</time></trkpt><trkpt lat="46.498495" lon="11.7908267"><ele>1856.6666666666665</ele><time>2026-05-02T10:40:48.393Z</time></trkpt><trkpt lat="46.498325" lon="11.7907717"><ele>1857.3333333333335</ele><time>2026-05-02T10:40:49.394Z</time></trkpt><trkpt lat="46.4981733" lon="11.7907183"><ele>1858.0</ele><time>2026-05-02T10:40:50.394Z</time></trkpt><trkpt lat="46.498025" lon="11.790655"><ele>1858.6666666666667</ele><time>2026-05-02T10:40:51.393Z</time></trkpt><trkpt lat="46.49788" lon="11.7905833"><ele>1859.3333333333335</ele><time>2026-05-02T10:40:52.394Z</time></trkpt><trkpt lat="46.4977367" lon="11.7904867"><ele>1860.0</ele><time>2026-05-02T10:40:53.394Z</time></trkpt><trkpt lat="46.4975983" lon="11.7903917"><ele>1860.0</ele><time>2026-05-02T10:40:54.394Z</time></trkpt><trkpt lat="46.4974683" lon="11.790275"><ele>1860.0</ele><time>2026-05-02T10:40:55.394Z</time></trkpt><trkpt lat="46.4973383" lon="11.7901567"><ele>1860.0</ele><time>2026-05-02T10:40:56.394Z</time></trkpt><trkpt lat="46.4972117" lon="11.79004"><ele>1857.0</ele><time>2026-05-02T10:40:57.394Z</time></trkpt><trkpt lat="46.4970767" lon="11.7899367"><ele>1854.0</ele><time>2026-05-02T10:40:58.394Z</time></trkpt><trkpt lat="46.4969467" lon="11.789855"><ele>1851.0</ele><time>2026-05-02T10:40:59.394Z</time></trkpt><trkpt lat="46.496815" lon="11.7897767"><ele>1848.0</ele><time>2026-05-02T10:41:00.393Z</time></trkpt><trkpt lat="46.4966733" lon="11.789705"><ele>1848.0</ele><time>2026-05-02T10:41:01.394Z</time></trkpt><trkpt lat="46.49654" lon="11.7896317"><ele>1848.0</ele><time>2026-05-02T10:41:02.394Z</time></trkpt><trkpt lat="46.496405" lon="11.7895617"><ele>1848.0</ele><time>2026-05-02T10:41:03.394Z</time></trkpt><trkpt lat="46.4962867" lon="11.789445"><ele>1848.0</ele><time>2026-05-02T10:41:04.394Z</time></trkpt><trkpt lat="46.4961683" lon="11.789305"><ele>1844.6666666666665</ele><time>2026-05-02T10:41:05.393Z</time></trkpt><trkpt lat="46.4960433" lon="11.7891617"><ele>1841.3333333333333</ele><time>2026-05-02T10:41:06.393Z</time></trkpt><trkpt lat="46.49593" lon="11.7890217"><ele>1838.0</ele><time>2026-05-02T10:41:07.393Z</time></trkpt><trkpt lat="46.4958333" lon="11.7888683"><ele>1838.0</ele><time>2026-05-02T10:41:08.394Z</time></trkpt><trkpt lat="46.4957483" lon="11.7887067"><ele>1838.0</ele><time>2026-05-02T10:41:09.394Z</time></trkpt><trkpt lat="46.4956717" lon="11.78856"><ele>1838.0</ele><time>2026-05-02T10:41:10.394Z</time></trkpt><trkpt lat="46.4956233" lon="11.788425"><ele>1838.0</ele><time>2026-05-02T10:41:11.393Z</time></trkpt><trkpt lat="46.4955917" lon="11.7883033"><ele>1836.3333333333333</ele><time>2026-05-02T10:41:12.394Z</time></trkpt><trkpt lat="46.4955817" lon="11.788195"><ele>1834.6666666666665</ele><time>2026-05-02T10:41:13.394Z</time></trkpt><trkpt lat="46.495645" lon="11.7880467"><ele>1833.0</ele><time>2026-05-02T10:41:15.394Z</time></trkpt><trkpt lat="46.4957183" lon="11.7880467"><ele>1831.3333333333335</ele><time>2026-05-02T10:41:16.393Z</time></trkpt><trkpt lat="46.4957767" lon="11.788085"><ele>1829.6666666666667</ele><time>2026-05-02T10:41:17.394Z</time></trkpt><trkpt lat="46.4958083" lon="11.7882"><ele>1828.0</ele><time>2026-05-02T10:41:18.394Z</time></trkpt><trkpt lat="46.4958383" lon="11.788325"><ele>1828.0000000000002</ele><time>2026-05-02T10:41:19.394Z</time></trkpt><trkpt lat="46.4958717" lon="11.7884283"><ele>1828.0</ele><time>2026-05-02T10:41:20.394Z</time></trkpt><trkpt lat="46.495935" lon="11.7884867"><ele>1828.0</ele><time>2026-05-02T10:41:21.394Z</time></trkpt><trkpt lat="46.49601" lon="11.78848"><ele>1828.0</ele><time>2026-05-02T10:41:22.394Z</time></trkpt><trkpt lat="46.4960617" lon="11.788415"><ele>1828.0000000000002</ele><time>2026-05-02T10:41:23.394Z</time></trkpt><trkpt lat="46.49608" lon="11.7882933"><ele>1828.0</ele><time>2026-05-02T10:41:24.393Z</time></trkpt><trkpt lat="46.4960817" lon="11.7881267"><ele>1828.0</ele><time>2026-05-02T10:41:25.394Z</time></trkpt><trkpt lat="46.49607" lon="11.787965"><ele>1828.0000000000002</ele><time>2026-05-02T10:41:26.393Z</time></trkpt><trkpt lat="46.4960517" lon="11.78782"><ele>1828.0000000000002</ele><time>2026-05-02T10:41:27.394Z</time></trkpt><trkpt lat="46.4960267" lon="11.78769"><ele>1828.0</ele><time>2026-05-02T10:41:28.393Z</time></trkpt><trkpt lat="46.49599" lon="11.78759"><ele>1828.0</ele><time>2026-05-02T10:41:29.393Z</time></trkpt><trkpt lat="46.4959317" lon="11.7875067"><ele>1826.4</ele><time>2026-05-02T10:41:30.394Z</time></trkpt><trkpt lat="46.4958633" lon="11.7874383"><ele>1824.8000000000002</ele><time>2026-05-02T10:41:31.394Z</time></trkpt><trkpt lat="46.495775" lon="11.787395"><ele>1823.2</ele><time>2026-05-02T10:41:32.393Z</time></trkpt><trkpt lat="46.49567" lon="11.7873517"><ele>1821.6</ele><time>2026-05-02T10:41:33.394Z</time></trkpt><trkpt lat="46.4955683" lon="11.7872867"><ele>1820.0</ele><time>2026-05-02T10:41:34.394Z</time></trkpt><trkpt lat="46.4954533" lon="11.7872083"><ele>1823.5</ele><time>2026-05-02T10:41:35.394Z</time></trkpt><trkpt lat="46.49533" lon="11.787115"><ele>1827.0</ele><time>2026-05-02T10:41:36.394Z</time></trkpt><trkpt lat="46.4952017" lon="11.787025"><ele>1830.5</ele><time>2026-05-02T10:41:37.394Z</time></trkpt><trkpt lat="46.4950633" lon="11.7869633"><ele>1834.0</ele><time>2026-05-02T10:41:38.393Z</time></trkpt><trkpt lat="46.49494" lon="11.7869117"><ele>1834.0</ele><time>2026-05-02T10:41:39.394Z</time></trkpt><trkpt lat="46.4948117" lon="11.78687"><ele>1834.0</ele><time>2026-05-02T10:41:40.394Z</time></trkpt><trkpt lat="46.4946783" lon="11.7868017"><ele>1834.0</ele><time>2026-05-02T10:41:41.393Z</time></trkpt><trkpt lat="46.49455" lon="11.7867"><ele>1834.0</ele><time>2026-05-02T10:41:42.394Z</time></trkpt><trkpt lat="46.494435" lon="11.7865883"><ele>1832.25</ele><time>2026-05-02T10:41:43.394Z</time></trkpt><trkpt lat="46.4943383" lon="11.7865017"><ele>1830.5</ele><time>2026-05-02T10:41:44.394Z</time></trkpt><trkpt lat="46.4942283" lon="11.7864483"><ele>1828.75</ele><time>2026-05-02T10:41:45.394Z</time></trkpt><trkpt lat="46.49411" lon="11.7864367"><ele>1827.0</ele><time>2026-05-02T10:41:46.394Z</time></trkpt><trkpt lat="46.4939933" lon="11.78647"><ele>1827.0</ele><time>2026-05-02T10:41:47.394Z</time></trkpt><trkpt lat="46.4939" lon="11.786565"><ele>1827.0</ele><time>2026-05-02T10:41:48.394Z</time></trkpt><trkpt lat="46.4938267" lon="11.7867083"><ele>1827.0</ele><time>2026-05-02T10:41:49.394Z</time></trkpt><trkpt lat="46.493785" lon="11.7868933"><ele>1827.0</ele><time>2026-05-02T10:41:50.394Z</time></trkpt><trkpt lat="46.49374" lon="11.7870783"><ele>1830.25</ele><time>2026-05-02T10:41:51.394Z</time></trkpt><trkpt lat="46.4936683" lon="11.787235"><ele>1833.5</ele><time>2026-05-02T10:41:52.394Z</time></trkpt><trkpt lat="46.4935717" lon="11.7873383"><ele>1836.75</ele><time>2026-05-02T10:41:53.394Z</time></trkpt><trkpt lat="46.493455" lon="11.78738"><ele>1840.0</ele><time>2026-05-02T10:41:54.394Z</time></trkpt><trkpt lat="46.4933117" lon="11.7873733"><ele>1840.0</ele><time>2026-05-02T10:41:55.393Z</time></trkpt><trkpt lat="46.493165" lon="11.787345"><ele>1840.0</ele><time>2026-05-02T10:41:56.393Z</time></trkpt><trkpt lat="46.49301" lon="11.787315"><ele>1840.0</ele><time>2026-05-02T10:41:57.394Z</time></trkpt><trkpt lat="46.492865" lon="11.7872683"><ele>1845.6666666666667</ele><time>2026-05-02T10:41:58.394Z</time></trkpt><trkpt lat="46.4927133" lon="11.7872017"><ele>1851.3333333333335</ele><time>2026-05-02T10:41:59.394Z</time></trkpt><trkpt lat="46.4925617" lon="11.7871483"><ele>1857.0</ele><time>2026-05-02T10:42:00.394Z</time></trkpt><trkpt lat="46.49239" lon="11.7871233"><ele>1857.0</ele><time>2026-05-02T10:42:01.394Z</time></trkpt><trkpt lat="46.49222" lon="11.787095"><ele>1857.0</ele><time>2026-05-02T10:42:02.394Z</time></trkpt><trkpt lat="46.492065" lon="11.7870733"><ele>1857.0</ele><time>2026-05-02T10:42:03.394Z</time></trkpt><trkpt lat="46.491915" lon="11.7870433"><ele>1858.25</ele><time>2026-05-02T10:42:04.394Z</time></trkpt><trkpt lat="46.4917767" lon="11.78702"><ele>1859.5</ele><time>2026-05-02T10:42:05.393Z</time></trkpt><trkpt lat="46.4916583" lon="11.7870133"><ele>1860.75</ele><time>2026-05-02T10:42:06.394Z</time></trkpt><trkpt lat="46.4915567" lon="11.7870267"><ele>1862.0</ele><time>2026-05-02T10:42:07.394Z</time></trkpt><trkpt lat="46.4914617" lon="11.7870817"><ele>1862.0</ele><time>2026-05-02T10:42:08.394Z</time></trkpt><trkpt lat="46.49136" lon="11.7871633"><ele>1862.0</ele><time>2026-05-02T10:42:09.394Z</time></trkpt><trkpt lat="46.4912433" lon="11.78726"><ele>1862.0</ele><time>2026-05-02T10:42:10.394Z</time></trkpt><trkpt lat="46.491125" lon="11.787355"><ele>1862.0</ele><time>2026-05-02T10:42:11.394Z</time></trkpt><trkpt lat="46.4910067" lon="11.7874333"><ele>1860.6666666666665</ele><time>2026-05-02T10:42:12.394Z</time></trkpt><trkpt lat="46.4908583" lon="11.7875"><ele>1859.3333333333335</ele><time>2026-05-02T10:42:13.394Z</time></trkpt><trkpt lat="46.49069" lon="11.7875117"><ele>1858.0</ele><time>2026-05-02T10:42:14.394Z</time></trkpt><trkpt lat="46.49052" lon="11.78754"><ele>1859.3333333333335</ele><time>2026-05-02T10:42:15.394Z</time></trkpt><trkpt lat="46.4903367" lon="11.787565"><ele>1860.6666666666665</ele><time>2026-05-02T10:42:16.393Z</time></trkpt><trkpt lat="46.4901733" lon="11.7875583"><ele>1862.0</ele><time>2026-05-02T10:42:17.394Z</time></trkpt><trkpt lat="46.4899917" lon="11.7875617"><ele>1862.0</ele><time>2026-05-02T10:42:18.394Z</time></trkpt><trkpt lat="46.4898133" lon="11.787585"><ele>1862.0</ele><time>2026-05-02T10:42:19.394Z</time></trkpt><trkpt lat="46.48963" lon="11.78763"><ele>1862.0</ele><time>2026-05-02T10:42:20.394Z</time></trkpt><trkpt lat="46.4894383" lon="11.7876117"><ele>1863.3333333333333</ele><time>2026-05-02T10:42:21.394Z</time></trkpt><trkpt lat="46.4892667" lon="11.7875683"><ele>1864.6666666666665</ele><time>2026-05-02T10:42:22.394Z</time></trkpt><trkpt lat="46.4891217" lon="11.787555"><ele>1866.0</ele><time>2026-05-02T10:42:23.394Z</time></trkpt><trkpt lat="46.48898" lon="11.7875817"><ele>1866.0</ele><time>2026-05-02T10:42:24.394Z</time></trkpt><trkpt lat="46.4888683" lon="11.7876183"><ele>1866.0</ele><time>2026-05-02T10:42:25.394Z</time></trkpt><trkpt lat="46.4887733" lon="11.7877"><ele>1866.0</ele><time>2026-05-02T10:42:26.394Z</time></trkpt><trkpt lat="46.4886783" lon="11.7878233"><ele>1866.0</ele><time>2026-05-02T10:42:27.394Z</time></trkpt><trkpt lat="46.4885667" lon="11.787945"><ele>1871.75</ele><time>2026-05-02T10:42:28.394Z</time></trkpt><trkpt lat="46.4884383" lon="11.7880467"><ele>1877.5</ele><time>2026-05-02T10:42:29.394Z</time></trkpt><trkpt lat="46.4882933" lon="11.788115"><ele>1883.25</ele><time>2026-05-02T10:42:30.393Z</time></trkpt><trkpt lat="46.4881533" lon="11.7881633"><ele>1889.0</ele><time>2026-05-02T10:42:31.393Z</time></trkpt><trkpt lat="46.4880033" lon="11.7881833"><ele>1892.3333333333333</ele><time>2026-05-02T10:42:32.394Z</time></trkpt><trkpt lat="46.487855" lon="11.7881683"><ele>1895.6666666666665</ele><time>2026-05-02T10:42:33.394Z</time></trkpt><trkpt lat="46.4876933" lon="11.7881167"><ele>1899.0</ele><time>2026-05-02T10:42:34.394Z</time></trkpt><trkpt lat="46.4875433" lon="11.78805"><ele>1899.0</ele><time>2026-05-02T10:42:35.393Z</time></trkpt><trkpt lat="46.4874017" lon="11.7879467"><ele>1899.0</ele><time>2026-05-02T10:42:36.393Z</time></trkpt><trkpt lat="46.4872733" lon="11.78783"><ele>1899.0</ele><time>2026-05-02T10:42:37.394Z</time></trkpt><trkpt lat="46.4871533" lon="11.78774"><ele>1899.0</ele><time>2026-05-02T10:42:38.394Z</time></trkpt><trkpt lat="46.4870283" lon="11.7876683"><ele>1898.0</ele><time>2026-05-02T10:42:39.393Z</time></trkpt><trkpt lat="46.4869217" lon="11.787575"><ele>1897.0</ele><time>2026-05-02T10:42:40.393Z</time></trkpt><trkpt lat="46.4868083" lon="11.78749"><ele>1896.0</ele><time>2026-05-02T10:42:41.394Z</time></trkpt><trkpt lat="46.4867067" lon="11.787425"><ele>1895.0</ele><time>2026-05-02T10:42:42.394Z</time></trkpt><trkpt lat="46.4865917" lon="11.7873833"><ele>1895.0</ele><time>2026-05-02T10:42:43.394Z</time></trkpt><trkpt lat="46.486465" lon="11.7873517"><ele>1895.0</ele><time>2026-05-02T10:42:44.393Z</time></trkpt><trkpt lat="46.4863433" lon="11.7873083"><ele>1895.0</ele><time>2026-05-02T10:42:45.394Z</time></trkpt><trkpt lat="46.48622" lon="11.7872517"><ele>1895.0</ele><time>2026-05-02T10:42:46.394Z</time></trkpt><trkpt lat="46.486105" lon="11.7871967"><ele>1896.4</ele><time>2026-05-02T10:42:47.394Z</time></trkpt><trkpt lat="46.4859967" lon="11.78715"><ele>1897.8</ele><time>2026-05-02T10:42:48.394Z</time></trkpt><trkpt lat="46.4858917" lon="11.787125"><ele>1899.1999999999998</ele><time>2026-05-02T10:42:49.393Z</time></trkpt><trkpt lat="46.485805" lon="11.78715"><ele>1900.6</ele><time>2026-05-02T10:42:50.394Z</time></trkpt><trkpt lat="46.4857283" lon="11.787205"><ele>1902.0</ele><time>2026-05-02T10:42:51.394Z</time></trkpt><trkpt lat="46.485675" lon="11.7872967"><ele>1902.0</ele><time>2026-05-02T10:42:52.393Z</time></trkpt><trkpt lat="46.4856617" lon="11.7874767"><ele>1901.9999999999998</ele><time>2026-05-02T10:42:53.394Z</time></trkpt><trkpt lat="46.4856367" lon="11.7876483"><ele>1901.9999999999998</ele><time>2026-05-02T10:42:54.394Z</time></trkpt><trkpt lat="46.4855967" lon="11.7877733"><ele>1902.0</ele><time>2026-05-02T10:42:55.394Z</time></trkpt><trkpt lat="46.4855467" lon="11.78786"><ele>1902.0</ele><time>2026-05-02T10:42:56.394Z</time></trkpt><trkpt lat="46.4854883" lon="11.7879217"><ele>1904.3999999999999</ele><time>2026-05-02T10:42:57.394Z</time></trkpt><trkpt lat="46.48541" lon="11.787915"><ele>1906.7999999999997</ele><time>2026-05-02T10:42:58.394Z</time></trkpt><trkpt lat="46.485325" lon="11.7878383"><ele>1909.2</ele><time>2026-05-02T10:42:59.394Z</time></trkpt><trkpt lat="46.4852467" lon="11.7876967"><ele>1911.6</ele><time>2026-05-02T10:43:00.394Z</time></trkpt><trkpt lat="46.4851833" lon="11.78754"><ele>1914.0</ele><time>2026-05-02T10:43:01.394Z</time></trkpt><trkpt lat="46.4851067" lon="11.78741"><ele>1914.0</ele><time>2026-05-02T10:43:02.393Z</time></trkpt><trkpt lat="46.4850167" lon="11.7873067"><ele>1914.0</ele><time>2026-05-02T10:43:03.394Z</time></trkpt><trkpt lat="46.4848967" lon="11.78723"><ele>1914.0</ele><time>2026-05-02T10:43:04.394Z</time></trkpt><trkpt lat="46.48477" lon="11.78717"><ele>1914.0</ele><time>2026-05-02T10:43:05.394Z</time></trkpt><trkpt lat="46.48466" lon="11.7871133"><ele>1918.75</ele><time>2026-05-02T10:43:06.394Z</time></trkpt><trkpt lat="46.4845433" lon="11.78708"><ele>1923.5</ele><time>2026-05-02T10:43:07.394Z</time></trkpt><trkpt lat="46.484435" lon="11.7870767"><ele>1928.25</ele><time>2026-05-02T10:43:08.393Z</time></trkpt><trkpt lat="46.4843133" lon="11.7870917"><ele>1933.0</ele><time>2026-05-02T10:43:09.394Z</time></trkpt><trkpt lat="46.4841833" lon="11.787095"><ele>1933.0</ele><time>2026-05-02T10:43:10.394Z</time></trkpt><trkpt lat="46.484025" lon="11.78711"><ele>1933.0</ele><time>2026-05-02T10:43:11.394Z</time></trkpt><trkpt lat="46.48389" lon="11.7871117"><ele>1933.0</ele><time>2026-05-02T10:43:12.394Z</time></trkpt><trkpt lat="46.4837833" lon="11.7870967"><ele>1933.0</ele><time>2026-05-02T10:43:13.394Z</time></trkpt><trkpt lat="46.483685" lon="11.7870733"><ele>1932.2</ele><time>2026-05-02T10:43:14.394Z</time></trkpt><trkpt lat="46.4835917" lon="11.78705"><ele>1931.4</ele><time>2026-05-02T10:43:15.393Z</time></trkpt><trkpt lat="46.48349" lon="11.7870533"><ele>1930.6000000000001</ele><time>2026-05-02T10:43:16.394Z</time></trkpt><trkpt lat="46.48339" lon="11.7870883"><ele>1929.8000000000002</ele><time>2026-05-02T10:43:17.393Z</time></trkpt><trkpt lat="46.4833067" lon="11.7871467"><ele>1929.0</ele><time>2026-05-02T10:43:18.393Z</time></trkpt><trkpt lat="46.48322" lon="11.7872467"><ele>1929.0</ele><time>2026-05-02T10:43:19.393Z</time></trkpt><trkpt lat="46.48313" lon="11.7873417"><ele>1929.0</ele><time>2026-05-02T10:43:20.394Z</time></trkpt><trkpt lat="46.483035" lon="11.7874167"><ele>1929.0</ele><time>2026-05-02T10:43:21.393Z</time></trkpt><trkpt lat="46.4829383" lon="11.7874967"><ele>1929.0</ele><time>2026-05-02T10:43:22.393Z</time></trkpt><trkpt lat="46.4828417" lon="11.7875783"><ele>1929.0</ele><time>2026-05-02T10:43:23.394Z</time></trkpt><trkpt lat="46.4827333" lon="11.787665"><ele>1932.75</ele><time>2026-05-02T10:43:24.394Z</time></trkpt><trkpt lat="46.4826167" lon="11.7877317"><ele>1936.5</ele><time>2026-05-02T10:43:25.394Z</time></trkpt><trkpt lat="46.4824983" lon="11.787795"><ele>1940.25</ele><time>2026-05-02T10:43:26.393Z</time></trkpt><trkpt lat="46.4823833" lon="11.7878583"><ele>1944.0</ele><time>2026-05-02T10:43:27.394Z</time></trkpt><trkpt lat="46.482275" lon="11.7878917"><ele>1944.0</ele><time>2026-05-02T10:43:28.394Z</time></trkpt><trkpt lat="46.4821633" lon="11.78788"><ele>1944.0</ele><time>2026-05-02T10:43:29.394Z</time></trkpt><trkpt lat="46.482065" lon="11.7878533"><ele>1944.0</ele><time>2026-05-02T10:43:30.394Z</time></trkpt><trkpt lat="46.481975" lon="11.7878433"><ele>1944.0</ele><time>2026-05-02T10:43:31.394Z</time></trkpt><trkpt lat="46.4819" lon="11.7878483"><ele>1944.0</ele><time>2026-05-02T10:43:32.394Z</time></trkpt><trkpt lat="46.48183" lon="11.78788"><ele>1944.0</ele><time>2026-05-02T10:43:33.394Z</time></trkpt><trkpt lat="46.4817783" lon="11.7879783"><ele>1944.0</ele><time>2026-05-02T10:43:34.394Z</time></trkpt><trkpt lat="46.48172" lon="11.7880967"><ele>1944.0</ele><time>2026-05-02T10:43:35.394Z</time></trkpt><trkpt lat="46.48167" lon="11.7882233"><ele>1944.0</ele><time>2026-05-02T10:43:36.394Z</time></trkpt><trkpt lat="46.4816267" lon="11.788325"><ele>1944.0</ele><time>2026-05-02T10:43:37.394Z</time></trkpt><trkpt lat="46.4815983" lon="11.788415"><ele>1944.0</ele><time>2026-05-02T10:43:38.394Z</time></trkpt><trkpt lat="46.4816217" lon="11.7885667"><ele>1944.0</ele><time>2026-05-02T10:43:40.393Z</time></trkpt><trkpt lat="46.4816917" lon="11.78858"><ele>1944.0</ele><time>2026-05-02T10:43:41.394Z</time></trkpt><trkpt lat="46.4817633" lon="11.7885433"><ele>1944.0</ele><time>2026-05-02T10:43:42.393Z</time></trkpt><trkpt lat="46.4818267" lon="11.7884333"><ele>1944.0</ele><time>2026-05-02T10:43:43.394Z</time></trkpt><trkpt lat="46.48189" lon="11.7883183"><ele>1944.0</ele><time>2026-05-02T10:43:44.393Z</time></trkpt><trkpt lat="46.4819733" lon="11.7882333"><ele>1944.0</ele><time>2026-05-02T10:43:45.394Z</time></trkpt><trkpt lat="46.48208" lon="11.788205"><ele>1944.0</ele><time>2026-05-02T10:43:46.394Z</time></trkpt><trkpt lat="46.4822117" lon="11.7882033"><ele>1944.0</ele><time>2026-05-02T10:43:47.394Z</time></trkpt><trkpt lat="46.4823417" lon="11.7882033"><ele>1944.0</ele><time>2026-05-02T10:43:48.393Z</time></trkpt><trkpt lat="46.4824683" lon="11.788195"><ele>1944.0</ele><time>2026-05-02T10:43:49.394Z</time></trkpt><trkpt lat="46.48259" lon="11.788185"><ele>1944.0</ele><time>2026-05-02T10:43:50.394Z</time></trkpt><trkpt lat="46.4827217" lon="11.7881567"><ele>1944.0</ele><time>2026-05-02T10:43:51.394Z</time></trkpt><trkpt lat="46.482865" lon="11.788115"><ele>1944.0</ele><time>2026-05-02T10:43:52.394Z</time></trkpt><trkpt lat="46.48302" lon="11.7880633"><ele>1944.0</ele><time>2026-05-02T10:43:53.394Z</time></trkpt><trkpt lat="46.4831717" lon="11.788005"><ele>1947.25</ele><time>2026-05-02T10:43:54.394Z</time></trkpt><trkpt lat="46.4833183" lon="11.787955"><ele>1950.5</ele><time>2026-05-02T10:43:55.394Z</time></trkpt><trkpt lat="46.4834417" lon="11.7879217"><ele>1953.75</ele><time>2026-05-02T10:43:56.393Z</time></trkpt><trkpt lat="46.4835667" lon="11.78791"><ele>1957.0</ele><time>2026-05-02T10:43:57.394Z</time></trkpt><trkpt lat="46.4836867" lon="11.7879267"><ele>1957.1999999999998</ele><time>2026-05-02T10:43:58.394Z</time></trkpt><trkpt lat="46.4838033" lon="11.7879517"><ele>1957.3999999999999</ele><time>2026-05-02T10:43:59.394Z</time></trkpt><trkpt lat="46.4839117" lon="11.7879867"><ele>1957.6000000000001</ele><time>2026-05-02T10:44:00.394Z</time></trkpt><trkpt lat="46.484" lon="11.78801"><ele>1957.8000000000002</ele><time>2026-05-02T10:44:01.394Z</time></trkpt><trkpt lat="46.4840683" lon="11.78803"><ele>1958.0</ele><time>2026-05-02T10:44:02.394Z</time></trkpt><trkpt lat="46.4841267" lon="11.788075"><ele>1958.0</ele><time>2026-05-02T10:44:03.394Z</time></trkpt><trkpt lat="46.4841833" lon="11.7881633"><ele>1958.0</ele><time>2026-05-02T10:44:04.393Z</time></trkpt><trkpt lat="46.4842383" lon="11.7882883"><ele>1958.0</ele><time>2026-05-02T10:44:05.394Z</time></trkpt><trkpt lat="46.4843" lon="11.78849"><ele>1958.0</ele><time>2026-05-02T10:44:06.393Z</time></trkpt><trkpt lat="46.4843567" lon="11.7887133"><ele>1963.3333333333333</ele><time>2026-05-02T10:44:07.394Z</time></trkpt><trkpt lat="46.4844067" lon="11.7889467"><ele>1968.6666666666665</ele><time>2026-05-02T10:44:08.394Z</time></trkpt><trkpt lat="46.4844517" lon="11.7891633"><ele>1974.0</ele><time>2026-05-02T10:44:09.394Z</time></trkpt><trkpt lat="46.4844867" lon="11.78938"><ele>1977.25</ele><time>2026-05-02T10:44:10.394Z</time></trkpt><trkpt lat="46.48453" lon="11.789585"><ele>1980.5</ele><time>2026-05-02T10:44:11.393Z</time></trkpt><trkpt lat="46.4845817" lon="11.789775"><ele>1983.75</ele><time>2026-05-02T10:44:12.394Z</time></trkpt><trkpt lat="46.48465" lon="11.7899483"><ele>1987.0</ele><time>2026-05-02T10:44:13.394Z</time></trkpt><trkpt lat="46.4847167" lon="11.7901033"><ele>1984.75</ele><time>2026-05-02T10:44:14.393Z</time></trkpt><trkpt lat="46.4847717" lon="11.7902633"><ele>1982.5</ele><time>2026-05-02T10:44:15.394Z</time></trkpt><trkpt lat="46.4847983" lon="11.7904233"><ele>1980.25</ele><time>2026-05-02T10:44:16.394Z</time></trkpt><trkpt lat="46.4847983" lon="11.7906017"><ele>1978.0</ele><time>2026-05-02T10:44:17.394Z</time></trkpt><trkpt lat="46.484805" lon="11.7907633"><ele>1978.0000000000002</ele><time>2026-05-02T10:44:18.393Z</time></trkpt><trkpt lat="46.4848267" lon="11.7908867"><ele>1978.0</ele><time>2026-05-02T10:44:19.393Z</time></trkpt><trkpt lat="46.4848617" lon="11.7909833"><ele>1978.0</ele><time>2026-05-02T10:44:20.394Z</time></trkpt><trkpt lat="46.4849067" lon="11.7910583"><ele>1978.0</ele><time>2026-05-02T10:44:21.394Z</time></trkpt><trkpt lat="46.48498" lon="11.7910933"><ele>1978.0000000000002</ele><time>2026-05-02T10:44:22.394Z</time></trkpt><trkpt lat="46.4850533" lon="11.7910867"><ele>1978.0</ele><time>2026-05-02T10:44:23.394Z</time></trkpt><trkpt lat="46.4851583" lon="11.79098"><ele>1978.0</ele><time>2026-05-02T10:44:24.394Z</time></trkpt><trkpt lat="46.485265" lon="11.7908867"><ele>1978.0</ele><time>2026-05-02T10:44:25.394Z</time></trkpt><trkpt lat="46.48538" lon="11.7908317"><ele>1978.0</ele><time>2026-05-02T10:44:26.394Z</time></trkpt><trkpt lat="46.4854917" lon="11.7908"><ele>1978.0</ele><time>2026-05-02T10:44:27.394Z</time></trkpt><trkpt lat="46.4856033" lon="11.790785"><ele>1977.2</ele><time>2026-05-02T10:44:28.394Z</time></trkpt><trkpt lat="46.4857033" lon="11.7908067"><ele>1976.4</ele><time>2026-05-02T10:44:29.394Z</time></trkpt><trkpt lat="46.4857983" lon="11.7908633"><ele>1975.6000000000001</ele><time>2026-05-02T10:44:30.393Z</time></trkpt><trkpt lat="46.48588" lon="11.7909317"><ele>1974.8000000000002</ele><time>2026-05-02T10:44:31.393Z</time></trkpt><trkpt lat="46.4859317" lon="11.791035"><ele>1974.0</ele><time>2026-05-02T10:44:32.394Z</time></trkpt><trkpt lat="46.4859833" lon="11.7911567"><ele>1978.5</ele><time>2026-05-02T10:44:33.394Z</time></trkpt><trkpt lat="46.4860383" lon="11.7913183"><ele>1983.0</ele><time>2026-05-02T10:44:34.394Z</time></trkpt><trkpt lat="46.4861017" lon="11.7914733"><ele>1987.5</ele><time>2026-05-02T10:44:35.394Z</time></trkpt><trkpt lat="46.4861717" lon="11.7916183"><ele>1992.0</ele><time>2026-05-02T10:44:36.394Z</time></trkpt><trkpt lat="46.48624" lon="11.7917433"><ele>1995.0</ele><time>2026-05-02T10:44:37.394Z</time></trkpt><trkpt lat="46.4863033" lon="11.7918483"><ele>1998.0</ele><time>2026-05-02T10:44:38.394Z</time></trkpt><trkpt lat="46.4863583" lon="11.79194"><ele>2001.0</ele><time>2026-05-02T10:44:39.394Z</time></trkpt><trkpt lat="46.4864183" lon="11.7920133"><ele>2004.0</ele><time>2026-05-02T10:44:40.393Z</time></trkpt><trkpt lat="46.486485" lon="11.79205"><ele>2007.0</ele><time>2026-05-02T10:44:41.394Z</time></trkpt><trkpt lat="46.48656" lon="11.7920467"><ele>2010.0</ele><time>2026-05-02T10:44:42.393Z</time></trkpt><trkpt lat="46.4866317" lon="11.7920033"><ele>2010.0</ele><time>2026-05-02T10:44:43.394Z</time></trkpt><trkpt lat="46.4866883" lon="11.7918867"><ele>2010.0</ele><time>2026-05-02T10:44:44.394Z</time></trkpt><trkpt lat="46.4867417" lon="11.7917183"><ele>2010.0</ele><time>2026-05-02T10:44:45.394Z</time></trkpt><trkpt lat="46.4867817" lon="11.7915583"><ele>2010.0</ele><time>2026-05-02T10:44:46.394Z</time></trkpt><trkpt lat="46.486835" lon="11.7914267"><ele>2010.0</ele><time>2026-05-02T10:44:47.394Z</time></trkpt><trkpt lat="46.4869133" lon="11.7913283"><ele>2009.25</ele><time>2026-05-02T10:44:48.394Z</time></trkpt><trkpt lat="46.486995" lon="11.79128"><ele>2008.5</ele><time>2026-05-02T10:44:49.394Z</time></trkpt><trkpt lat="46.4870917" lon="11.791275"><ele>2007.75</ele><time>2026-05-02T10:44:50.394Z</time></trkpt><trkpt lat="46.4872183" lon="11.7913133"><ele>2007.0</ele><time>2026-05-02T10:44:51.394Z</time></trkpt><trkpt lat="46.4873517" lon="11.7913683"><ele>2007.0</ele><time>2026-05-02T10:44:52.393Z</time></trkpt><trkpt lat="46.48748" lon="11.79141"><ele>2007.0</ele><time>2026-05-02T10:44:53.393Z</time></trkpt><trkpt lat="46.4876" lon="11.791445"><ele>2007.0</ele><time>2026-05-02T10:44:54.394Z</time></trkpt><trkpt lat="46.487715" lon="11.79148"><ele>2007.0</ele><time>2026-05-02T10:44:55.394Z</time></trkpt><trkpt lat="46.487835" lon="11.7914917"><ele>2009.75</ele><time>2026-05-02T10:44:56.394Z</time></trkpt><trkpt lat="46.487955" lon="11.7914467"><ele>2012.5</ele><time>2026-05-02T10:44:57.394Z</time></trkpt><trkpt lat="46.4880867" lon="11.7913733"><ele>2015.25</ele><time>2026-05-02T10:44:58.394Z</time></trkpt><trkpt lat="46.4882233" lon="11.791295"><ele>2018.0</ele><time>2026-05-02T10:44:59.393Z</time></trkpt><trkpt lat="46.4883617" lon="11.7912"><ele>2018.0</ele><time>2026-05-02T10:45:00.394Z</time></trkpt><trkpt lat="46.4885017" lon="11.7911033"><ele>2018.0</ele><time>2026-05-02T10:45:01.394Z</time></trkpt><trkpt lat="46.4886433" lon="11.791025"><ele>2018.0</ele><time>2026-05-02T10:45:02.394Z</time></trkpt><trkpt lat="46.4887733" lon="11.7909383"><ele>2017.0</ele><time>2026-05-02T10:45:03.394Z</time></trkpt><trkpt lat="46.4888983" lon="11.7908417"><ele>2016.0</ele><time>2026-05-02T10:45:04.393Z</time></trkpt><trkpt lat="46.489005" lon="11.7907317"><ele>2015.0</ele><time>2026-05-02T10:45:05.394Z</time></trkpt><trkpt lat="46.4891083" lon="11.7906367"><ele>2014.0</ele><time>2026-05-02T10:45:06.394Z</time></trkpt><trkpt lat="46.48921" lon="11.7905833"><ele>2014.0</ele><time>2026-05-02T10:45:07.394Z</time></trkpt><trkpt lat="46.4893217" lon="11.7905567"><ele>2014.0</ele><time>2026-05-02T10:45:08.394Z</time></trkpt><trkpt lat="46.4894317" lon="11.7905733"><ele>2014.0</ele><time>2026-05-02T10:45:09.394Z</time></trkpt><trkpt lat="46.4895433" lon="11.790665"><ele>2014.0</ele><time>2026-05-02T10:45:10.394Z</time></trkpt><trkpt lat="46.48964" lon="11.7907867"><ele>2013.75</ele><time>2026-05-02T10:45:11.394Z</time></trkpt><trkpt lat="46.4897283" lon="11.79094"><ele>2013.5</ele><time>2026-05-02T10:45:12.394Z</time></trkpt><trkpt lat="46.4898033" lon="11.7910917"><ele>2013.25</ele><time>2026-05-02T10:45:13.394Z</time></trkpt><trkpt lat="46.48988" lon="11.791265"><ele>2013.0</ele><time>2026-05-02T10:45:14.394Z</time></trkpt><trkpt lat="46.4899367" lon="11.7914333"><ele>2015.75</ele><time>2026-05-02T10:45:15.394Z</time></trkpt><trkpt lat="46.489975" lon="11.7916183"><ele>2018.5</ele><time>2026-05-02T10:45:16.394Z</time></trkpt><trkpt lat="46.4900017" lon="11.7918017"><ele>2021.25</ele><time>2026-05-02T10:45:17.394Z</time></trkpt><trkpt lat="46.490035" lon="11.7919967"><ele>2024.0</ele><time>2026-05-02T10:45:18.394Z</time></trkpt><trkpt lat="46.4900683" lon="11.792155"><ele>2025.4</ele><time>2026-05-02T10:45:19.393Z</time></trkpt><trkpt lat="46.4901067" lon="11.792285"><ele>2026.8000000000002</ele><time>2026-05-02T10:45:20.393Z</time></trkpt><trkpt lat="46.490155" lon="11.7923767"><ele>2028.1999999999998</ele><time>2026-05-02T10:45:21.394Z</time></trkpt><trkpt lat="46.4902" lon="11.7924533"><ele>2029.6</ele><time>2026-05-02T10:45:22.394Z</time></trkpt><trkpt lat="46.4902267" lon="11.79263"><ele>2031.0</ele><time>2026-05-02T10:45:24.394Z</time></trkpt><trkpt lat="46.4901367" lon="11.79274"><ele>2031.0</ele><time>2026-05-02T10:45:26.394Z</time></trkpt><trkpt lat="46.4900767" lon="11.7927117"><ele>2031.0</ele><time>2026-05-02T10:45:27.394Z</time></trkpt><trkpt lat="46.4900183" lon="11.7926383"><ele>2031.0</ele><time>2026-05-02T10:45:28.394Z</time></trkpt><trkpt lat="46.4899767" lon="11.792525"><ele>2031.0</ele><time>2026-05-02T10:45:29.394Z</time></trkpt><trkpt lat="46.48997" lon="11.7923467"><ele>2031.0</ele><time>2026-05-02T10:45:30.393Z</time></trkpt><trkpt lat="46.4899333" lon="11.7921433"><ele>2031.0</ele><time>2026-05-02T10:45:31.394Z</time></trkpt><trkpt lat="46.4898717" lon="11.79194"><ele>2031.0</ele><time>2026-05-02T10:45:32.394Z</time></trkpt><trkpt lat="46.4897817" lon="11.7917733"><ele>2031.0</ele><time>2026-05-02T10:45:33.394Z</time></trkpt><trkpt lat="46.4896933" lon="11.7916467"><ele>2031.0</ele><time>2026-05-02T10:45:34.394Z</time></trkpt><trkpt lat="46.4895983" lon="11.791575"><ele>2031.0</ele><time>2026-05-02T10:45:35.394Z</time></trkpt><trkpt lat="46.4895" lon="11.791535"><ele>2031.0</ele><time>2026-05-02T10:45:36.394Z</time></trkpt><trkpt lat="46.4894083" lon="11.7915017"><ele>2031.0</ele><time>2026-05-02T10:45:37.393Z</time></trkpt><trkpt lat="46.48933" lon="11.7914817"><ele>2031.0</ele><time>2026-05-02T10:45:38.394Z</time></trkpt><trkpt lat="46.48926" lon="11.7914933"><ele>2031.0</ele><time>2026-05-02T10:45:39.394Z</time></trkpt><trkpt lat="46.4891867" lon="11.79155"><ele>2031.0</ele><time>2026-05-02T10:45:40.394Z</time></trkpt><trkpt lat="46.4891183" lon="11.7916583"><ele>2031.0</ele><time>2026-05-02T10:45:41.393Z</time></trkpt><trkpt lat="46.4890533" lon="11.7918067"><ele>2031.0</ele><time>2026-05-02T10:45:42.394Z</time></trkpt><trkpt lat="46.4889683" lon="11.792"><ele>2031.0</ele><time>2026-05-02T10:45:43.394Z</time></trkpt><trkpt lat="46.488865" lon="11.7921767"><ele>2031.0</ele><time>2026-05-02T10:45:44.394Z</time></trkpt><trkpt lat="46.4887467" lon="11.7923433"><ele>2033.0</ele><time>2026-05-02T10:45:45.394Z</time></trkpt><trkpt lat="46.4886217" lon="11.792495"><ele>2035.0</ele><time>2026-05-02T10:45:46.394Z</time></trkpt><trkpt lat="46.4885033" lon="11.79263"><ele>2037.0</ele><time>2026-05-02T10:45:47.394Z</time></trkpt><trkpt lat="46.48839" lon="11.79275"><ele>2038.75</ele><time>2026-05-02T10:45:48.394Z</time></trkpt><trkpt lat="46.48826" lon="11.7928383"><ele>2040.5</ele><time>2026-05-02T10:45:49.393Z</time></trkpt><trkpt lat="46.4881167" lon="11.7928983"><ele>2042.25</ele><time>2026-05-02T10:45:50.394Z</time></trkpt><trkpt lat="46.4879733" lon="11.7929533"><ele>2044.0</ele><time>2026-05-02T10:45:51.394Z</time></trkpt><trkpt lat="46.48785" lon="11.7930083"><ele>2044.0</ele><time>2026-05-02T10:45:52.394Z</time></trkpt><trkpt lat="46.487745" lon="11.793095"><ele>2044.0</ele><time>2026-05-02T10:45:53.394Z</time></trkpt><trkpt lat="46.4876667" lon="11.7932017"><ele>2044.0</ele><time>2026-05-02T10:45:54.394Z</time></trkpt><trkpt lat="46.48762" lon="11.7933417"><ele>2044.0</ele><time>2026-05-02T10:45:55.394Z</time></trkpt><trkpt lat="46.4875967" lon="11.7935133"><ele>2047.0</ele><time>2026-05-02T10:45:56.393Z</time></trkpt><trkpt lat="46.4875967" lon="11.7937267"><ele>2050.0</ele><time>2026-05-02T10:45:57.393Z</time></trkpt><trkpt lat="46.4876017" lon="11.7939583"><ele>2053.0</ele><time>2026-05-02T10:45:58.394Z</time></trkpt><trkpt lat="46.4876067" lon="11.7941933"><ele>2055.0</ele><time>2026-05-02T10:45:59.394Z</time></trkpt><trkpt lat="46.4876167" lon="11.7944183"><ele>2057.0</ele><time>2026-05-02T10:46:00.394Z</time></trkpt><trkpt lat="46.487625" lon="11.7946567"><ele>2059.0</ele><time>2026-05-02T10:46:01.394Z</time></trkpt><trkpt lat="46.4876283" lon="11.7949033"><ele>2059.0</ele><time>2026-05-02T10:46:02.393Z</time></trkpt><trkpt lat="46.487635" lon="11.7951533"><ele>2059.0</ele><time>2026-05-02T10:46:03.394Z</time></trkpt><trkpt lat="46.4876467" lon="11.79539"><ele>2059.0</ele><time>2026-05-02T10:46:04.394Z</time></trkpt><trkpt lat="46.4876583" lon="11.79563"><ele>2060.3333333333335</ele><time>2026-05-02T10:46:05.393Z</time></trkpt><trkpt lat="46.4876583" lon="11.7958683"><ele>2061.6666666666665</ele><time>2026-05-02T10:46:06.393Z</time></trkpt><trkpt lat="46.4876733" lon="11.796085"><ele>2063.0</ele><time>2026-05-02T10:46:07.394Z</time></trkpt><trkpt lat="46.4877067" lon="11.7962767"><ele>2064.2000000000003</ele><time>2026-05-02T10:46:08.394Z</time></trkpt><trkpt lat="46.4877433" lon="11.79644"><ele>2065.4</ele><time>2026-05-02T10:46:09.393Z</time></trkpt><trkpt lat="46.48776" lon="11.796595"><ele>2066.6000000000004</ele><time>2026-05-02T10:46:10.394Z</time></trkpt><trkpt lat="46.4877483" lon="11.79676"><ele>2067.8</ele><time>2026-05-02T10:46:11.393Z</time></trkpt><trkpt lat="46.487695" lon="11.7968917"><ele>2069.0</ele><time>2026-05-02T10:46:12.394Z</time></trkpt><trkpt lat="46.4876" lon="11.7969933"><ele>2070.5</ele><time>2026-05-02T10:46:13.394Z</time></trkpt><trkpt lat="46.4874617" lon="11.7970333"><ele>2072.0</ele><time>2026-05-02T10:46:14.394Z</time></trkpt><trkpt lat="46.4873133" lon="11.7970517"><ele>2073.5</ele><time>2026-05-02T10:46:15.393Z</time></trkpt><trkpt lat="46.487185" lon="11.7970983"><ele>2075.0</ele><time>2026-05-02T10:46:16.394Z</time></trkpt><trkpt lat="46.4870883" lon="11.7971733"><ele>2075.333333333333</ele><time>2026-05-02T10:46:17.394Z</time></trkpt><trkpt lat="46.487035" lon="11.7972867"><ele>2075.6666666666665</ele><time>2026-05-02T10:46:18.394Z</time></trkpt><trkpt lat="46.4870217" lon="11.79744"><ele>2076.0</ele><time>2026-05-02T10:46:19.394Z</time></trkpt><trkpt lat="46.4870033" lon="11.797575"><ele>2076.3333333333335</ele><time>2026-05-02T10:46:20.394Z</time></trkpt><trkpt lat="46.4869667" lon="11.797675"><ele>2076.666666666667</ele><time>2026-05-02T10:46:21.394Z</time></trkpt><trkpt lat="46.486905" lon="11.7977183"><ele>2077.0</ele><time>2026-05-02T10:46:22.393Z</time></trkpt><trkpt lat="46.4868317" lon="11.797695"><ele>2077.0</ele><time>2026-05-02T10:46:23.393Z</time></trkpt><trkpt lat="46.4867517" lon="11.7976233"><ele>2077.0</ele><time>2026-05-02T10:46:24.393Z</time></trkpt><trkpt lat="46.4866667" lon="11.79751"><ele>2077.0</ele><time>2026-05-02T10:46:25.394Z</time></trkpt><trkpt lat="46.48658" lon="11.7974167"><ele>2077.0</ele><time>2026-05-02T10:46:26.394Z</time></trkpt><trkpt lat="46.486485" lon="11.797365"><ele>2077.0</ele><time>2026-05-02T10:46:27.394Z</time></trkpt><trkpt lat="46.4863867" lon="11.7973483"><ele>2077.0</ele><time>2026-05-02T10:46:28.394Z</time></trkpt><trkpt lat="46.4862917" lon="11.7973867"><ele>2077.0</ele><time>2026-05-02T10:46:29.394Z</time></trkpt><trkpt lat="46.4862017" lon="11.7975"><ele>2077.0</ele><time>2026-05-02T10:46:30.393Z</time></trkpt><trkpt lat="46.4861267" lon="11.7976483"><ele>2077.0</ele><time>2026-05-02T10:46:31.393Z</time></trkpt><trkpt lat="46.4860617" lon="11.797785"><ele>2080.0</ele><time>2026-05-02T10:46:32.394Z</time></trkpt><trkpt lat="46.4859917" lon="11.7978717"><ele>2083.0</ele><time>2026-05-02T10:46:33.394Z</time></trkpt><trkpt lat="46.4859217" lon="11.7979133"><ele>2086.0</ele><time>2026-05-02T10:46:34.393Z</time></trkpt><trkpt lat="46.4858483" lon="11.7978933"><ele>2089.0</ele><time>2026-05-02T10:46:35.394Z</time></trkpt><trkpt lat="46.4857833" lon="11.7978617"><ele>2092.0</ele><time>2026-05-02T10:46:36.394Z</time></trkpt><trkpt lat="46.4856717" lon="11.7979033"><ele>2095.0</ele><time>2026-05-02T10:46:38.393Z</time></trkpt><trkpt lat="46.4856367" lon="11.7979917"><ele>2095.0</ele><time>2026-05-02T10:46:39.394Z</time></trkpt><trkpt lat="46.4857133" lon="11.7981417"><ele>2095.0</ele><time>2026-05-02T10:46:41.394Z</time></trkpt><trkpt lat="46.4858" lon="11.7981683"><ele>2095.0</ele><time>2026-05-02T10:46:42.393Z</time></trkpt><trkpt lat="46.48591" lon="11.7981767"><ele>2095.0</ele><time>2026-05-02T10:46:43.393Z</time></trkpt><trkpt lat="46.486025" lon="11.7982217"><ele>2095.0</ele><time>2026-05-02T10:46:44.393Z</time></trkpt><trkpt lat="46.4861367" lon="11.7983117"><ele>2095.0</ele><time>2026-05-02T10:46:45.394Z</time></trkpt><trkpt lat="46.486225" lon="11.7984583"><ele>2095.0</ele><time>2026-05-02T10:46:46.394Z</time></trkpt><trkpt lat="46.4863167" lon="11.7986183"><ele>2095.0</ele><time>2026-05-02T10:46:47.393Z</time></trkpt><trkpt lat="46.4864167" lon="11.7987717"><ele>2095.0</ele><time>2026-05-02T10:46:48.393Z</time></trkpt><trkpt lat="46.4865267" lon="11.7989183"><ele>2095.5</ele><time>2026-05-02T10:46:49.394Z</time></trkpt><trkpt lat="46.4866333" lon="11.799065"><ele>2096.0</ele><time>2026-05-02T10:46:50.394Z</time></trkpt><trkpt lat="46.4867333" lon="11.799205"><ele>2096.5</ele><time>2026-05-02T10:46:51.394Z</time></trkpt><trkpt lat="46.48683" lon="11.79932"><ele>2097.0</ele><time>2026-05-02T10:46:52.393Z</time></trkpt><trkpt lat="46.486925" lon="11.7994117"><ele>2099.2</ele><time>2026-05-02T10:46:53.394Z</time></trkpt><trkpt lat="46.487025" lon="11.7994733"><ele>2101.3999999999996</ele><time>2026-05-02T10:46:54.394Z</time></trkpt><trkpt lat="46.4871067" lon="11.79952"><ele>2103.6000000000004</ele><time>2026-05-02T10:46:55.394Z</time></trkpt><trkpt lat="46.4871833" lon="11.79954"><ele>2105.8</ele><time>2026-05-02T10:46:56.394Z</time></trkpt><trkpt lat="46.4872483" lon="11.799665"><ele>2108.0</ele><time>2026-05-02T10:46:58.394Z</time></trkpt><trkpt lat="46.4871867" lon="11.7997867"><ele>2108.0</ele><time>2026-05-02T10:47:00.393Z</time></trkpt><trkpt lat="46.4871017" lon="11.7997833"><ele>2108.0</ele><time>2026-05-02T10:47:01.394Z</time></trkpt><trkpt lat="46.4869783" lon="11.799735"><ele>2108.0</ele><time>2026-05-02T10:47:02.393Z</time></trkpt><trkpt lat="46.48683" lon="11.79968"><ele>2108.0</ele><time>2026-05-02T10:47:03.394Z</time></trkpt><trkpt lat="46.4866867" lon="11.79963"><ele>2108.8</ele><time>2026-05-02T10:47:04.393Z</time></trkpt><trkpt lat="46.4865567" lon="11.799585"><ele>2109.6000000000004</ele><time>2026-05-02T10:47:05.394Z</time></trkpt><trkpt lat="46.4864467" lon="11.799545"><ele>2110.3999999999996</ele><time>2026-05-02T10:47:06.394Z</time></trkpt><trkpt lat="46.4863567" lon="11.799515"><ele>2111.2</ele><time>2026-05-02T10:47:07.394Z</time></trkpt><trkpt lat="46.4862767" lon="11.7995083"><ele>2112.0</ele><time>2026-05-02T10:47:08.394Z</time></trkpt><trkpt lat="46.4862083" lon="11.7995267"><ele>2112.0</ele><time>2026-05-02T10:47:09.394Z</time></trkpt><trkpt lat="46.4861633" lon="11.7996933"><ele>2112.0</ele><time>2026-05-02T10:47:11.393Z</time></trkpt><trkpt lat="46.48621" lon="11.7997817"><ele>2112.0</ele><time>2026-05-02T10:47:12.394Z</time></trkpt><trkpt lat="46.4862783" lon="11.7998467"><ele>2112.0</ele><time>2026-05-02T10:47:13.394Z</time></trkpt><trkpt lat="46.4863717" lon="11.79989"><ele>2112.0</ele><time>2026-05-02T10:47:14.394Z</time></trkpt><trkpt lat="46.486475" lon="11.7999483"><ele>2112.25</ele><time>2026-05-02T10:47:15.394Z</time></trkpt><trkpt lat="46.4865817" lon="11.80005"><ele>2112.5</ele><time>2026-05-02T10:47:16.394Z</time></trkpt><trkpt lat="46.4866967" lon="11.8001683"><ele>2112.75</ele><time>2026-05-02T10:47:17.394Z</time></trkpt><trkpt lat="46.48683" lon="11.8003"><ele>2113.0</ele><time>2026-05-02T10:47:18.393Z</time></trkpt><trkpt lat="46.486985" lon="11.8004133"><ele>2118.3333333333335</ele><time>2026-05-02T10:47:19.394Z</time></trkpt><trkpt lat="46.487135" lon="11.8005167"><ele>2123.6666666666665</ele><time>2026-05-02T10:47:20.394Z</time></trkpt><trkpt lat="46.48729" lon="11.8006067"><ele>2129.0</ele><time>2026-05-02T10:47:21.394Z</time></trkpt><trkpt lat="46.4874433" lon="11.8006817"><ele>2129.0</ele><time>2026-05-02T10:47:22.393Z</time></trkpt><trkpt lat="46.4876067" lon="11.8007517"><ele>2129.0</ele><time>2026-05-02T10:47:23.394Z</time></trkpt><trkpt lat="46.48777" lon="11.800815"><ele>2129.0</ele><time>2026-05-02T10:47:24.394Z</time></trkpt><trkpt lat="46.487915" lon="11.8008683"><ele>2128.75</ele><time>2026-05-02T10:47:25.394Z</time></trkpt><trkpt lat="46.4880433" lon="11.8009167"><ele>2128.5</ele><time>2026-05-02T10:47:26.393Z</time></trkpt><trkpt lat="46.4881667" lon="11.80094"><ele>2128.25</ele><time>2026-05-02T10:47:27.394Z</time></trkpt><trkpt lat="46.4882783" lon="11.8009317"><ele>2128.0</ele><time>2026-05-02T10:47:28.393Z</time></trkpt><trkpt lat="46.48839" lon="11.80087"><ele>2128.0</ele><time>2026-05-02T10:47:29.393Z</time></trkpt><trkpt lat="46.488505" lon="11.8007833"><ele>2128.0</ele><time>2026-05-02T10:47:30.394Z</time></trkpt><trkpt lat="46.4886133" lon="11.8007433"><ele>2128.0</ele><time>2026-05-02T10:47:31.394Z</time></trkpt><trkpt lat="46.4887217" lon="11.8007667"><ele>2128.0</ele><time>2026-05-02T10:47:32.393Z</time></trkpt><trkpt lat="46.4888233" lon="11.80085"><ele>2131.75</ele><time>2026-05-02T10:47:33.393Z</time></trkpt><trkpt lat="46.4888967" lon="11.8009767"><ele>2135.5</ele><time>2026-05-02T10:47:34.394Z</time></trkpt><trkpt lat="46.4889317" lon="11.80114"><ele>2139.25</ele><time>2026-05-02T10:47:35.394Z</time></trkpt><trkpt lat="46.4889133" lon="11.8013033"><ele>2143.0</ele><time>2026-05-02T10:47:36.394Z</time></trkpt><trkpt lat="46.488855" lon="11.8014867"><ele>2143.0</ele><time>2026-05-02T10:47:37.394Z</time></trkpt><trkpt lat="46.4887733" lon="11.801685"><ele>2143.0</ele><time>2026-05-02T10:47:38.394Z</time></trkpt><trkpt lat="46.4886783" lon="11.8018917"><ele>2143.0</ele><time>2026-05-02T10:47:39.394Z</time></trkpt><trkpt lat="46.4885883" lon="11.8021017"><ele>2143.0</ele><time>2026-05-02T10:47:40.394Z</time></trkpt><trkpt lat="46.4885033" lon="11.802295"><ele>2143.0</ele><time>2026-05-02T10:47:41.394Z</time></trkpt><trkpt lat="46.4884317" lon="11.80247"><ele>2143.0</ele><time>2026-05-02T10:47:42.394Z</time></trkpt><trkpt lat="46.488365" lon="11.802635"><ele>2143.0</ele><time>2026-05-02T10:47:43.393Z</time></trkpt><trkpt lat="46.4883033" lon="11.8027817"><ele>2144.666666666667</ele><time>2026-05-02T10:47:44.394Z</time></trkpt><trkpt lat="46.4882517" lon="11.8029067"><ele>2146.3333333333335</ele><time>2026-05-02T10:47:45.393Z</time></trkpt><trkpt lat="46.4882267" lon="11.80302"><ele>2148.0</ele><time>2026-05-02T10:47:46.394Z</time></trkpt><trkpt lat="46.488225" lon="11.8031267"><ele>2149.6666666666665</ele><time>2026-05-02T10:47:47.393Z</time></trkpt><trkpt lat="46.48825" lon="11.8032233"><ele>2151.333333333333</ele><time>2026-05-02T10:47:48.394Z</time></trkpt><trkpt lat="46.4882983" lon="11.8033067"><ele>2153.0</ele><time>2026-05-02T10:47:49.394Z</time></trkpt><trkpt lat="46.4883617" lon="11.803365"><ele>2153.0</ele><time>2026-05-02T10:47:50.394Z</time></trkpt><trkpt lat="46.488465" lon="11.803345"><ele>2153.0</ele><time>2026-05-02T10:47:51.394Z</time></trkpt><trkpt lat="46.488575" lon="11.8033183"><ele>2153.0</ele><time>2026-05-02T10:47:52.394Z</time></trkpt><trkpt lat="46.4886783" lon="11.80328"><ele>2153.0</ele><time>2026-05-02T10:47:53.394Z</time></trkpt><trkpt lat="46.4887817" lon="11.8032383"><ele>2153.0</ele><time>2026-05-02T10:47:54.394Z</time></trkpt><trkpt lat="46.4888767" lon="11.8031833"><ele>2155.333333333333</ele><time>2026-05-02T10:47:55.394Z</time></trkpt><trkpt lat="46.4889567" lon="11.8031417"><ele>2157.6666666666665</ele><time>2026-05-02T10:47:56.393Z</time></trkpt><trkpt lat="46.4890183" lon="11.80312"><ele>2160.0</ele><time>2026-05-02T10:47:57.393Z</time></trkpt><trkpt lat="46.48908" lon="11.8031867"><ele>2162.3333333333335</ele><time>2026-05-02T10:47:59.394Z</time></trkpt><trkpt lat="46.48905" lon="11.803345"><ele>2164.666666666667</ele><time>2026-05-02T10:48:01.394Z</time></trkpt><trkpt lat="46.4889867" lon="11.803455"><ele>2167.0</ele><time>2026-05-02T10:48:02.394Z</time></trkpt><trkpt lat="46.4889083" lon="11.803565"><ele>2166.2</ele><time>2026-05-02T10:48:03.393Z</time></trkpt><trkpt lat="46.488835" lon="11.803655"><ele>2165.3999999999996</ele><time>2026-05-02T10:48:04.394Z</time></trkpt><trkpt lat="46.48876" lon="11.803745"><ele>2164.6000000000004</ele><time>2026-05-02T10:48:05.393Z</time></trkpt><trkpt lat="46.4886883" lon="11.8038317"><ele>2163.8</ele><time>2026-05-02T10:48:06.394Z</time></trkpt><trkpt lat="46.4886217" lon="11.803905"><ele>2163.0</ele><time>2026-05-02T10:48:07.394Z</time></trkpt><trkpt lat="46.48855" lon="11.8039667"><ele>2163.0</ele><time>2026-05-02T10:48:08.394Z</time></trkpt><trkpt lat="46.488475" lon="11.8040283"><ele>2163.0</ele><time>2026-05-02T10:48:09.394Z</time></trkpt><trkpt lat="46.4883983" lon="11.804105"><ele>2163.0</ele><time>2026-05-02T10:48:10.394Z</time></trkpt><trkpt lat="46.48832" lon="11.80418"><ele>2163.0</ele><time>2026-05-02T10:48:11.394Z</time></trkpt><trkpt lat="46.4882483" lon="11.80426"><ele>2163.0</ele><time>2026-05-02T10:48:12.394Z</time></trkpt><trkpt lat="46.488185" lon="11.8043467"><ele>2165.0</ele><time>2026-05-02T10:48:13.394Z</time></trkpt><trkpt lat="46.4881333" lon="11.8044333"><ele>2167.0</ele><time>2026-05-02T10:48:14.394Z</time></trkpt><trkpt lat="46.4880967" lon="11.804515"><ele>2169.0</ele><time>2026-05-02T10:48:15.393Z</time></trkpt><trkpt lat="46.4880733" lon="11.80467"><ele>2171.0</ele><time>2026-05-02T10:48:17.394Z</time></trkpt><trkpt lat="46.4881567" lon="11.804765"><ele>2173.0</ele><time>2026-05-02T10:48:19.394Z</time></trkpt><trkpt lat="46.4882283" lon="11.8047333"><ele>2175.0</ele><time>2026-05-02T10:48:20.394Z</time></trkpt><trkpt lat="46.4883067" lon="11.804645"><ele>2175.0</ele><time>2026-05-02T10:48:21.393Z</time></trkpt><trkpt lat="46.4883817" lon="11.8045433"><ele>2175.0</ele><time>2026-05-02T10:48:22.394Z</time></trkpt><trkpt lat="46.4884583" lon="11.8044533"><ele>2175.0</ele><time>2026-05-02T10:48:23.394Z</time></trkpt><trkpt lat="46.48853" lon="11.80439"><ele>2175.0</ele><time>2026-05-02T10:48:24.393Z</time></trkpt><trkpt lat="46.4885917" lon="11.8043683"><ele>2175.0</ele><time>2026-05-02T10:48:25.394Z</time></trkpt><trkpt lat="46.4886517" lon="11.80447"><ele>2175.0</ele><time>2026-05-02T10:48:27.393Z</time></trkpt><trkpt lat="46.4885917" lon="11.8046383"><ele>2175.0</ele><time>2026-05-02T10:48:29.394Z</time></trkpt><trkpt lat="46.4885033" lon="11.80476"><ele>2175.0</ele><time>2026-05-02T10:48:30.394Z</time></trkpt><trkpt lat="46.48841" lon="11.8049"><ele>2175.0</ele><time>2026-05-02T10:48:31.394Z</time></trkpt><trkpt lat="46.48833" lon="11.8050417"><ele>2175.0</ele><time>2026-05-02T10:48:32.394Z</time></trkpt><trkpt lat="46.48826" lon="11.8051783"><ele>2176.6666666666665</ele><time>2026-05-02T10:48:33.394Z</time></trkpt><trkpt lat="46.4882067" lon="11.8052983"><ele>2178.3333333333335</ele><time>2026-05-02T10:48:34.394Z</time></trkpt><trkpt lat="46.48817" lon="11.8054067"><ele>2180.0</ele><time>2026-05-02T10:48:35.394Z</time></trkpt><trkpt lat="46.4881583" lon="11.805515"><ele>2181.666666666667</ele><time>2026-05-02T10:48:36.394Z</time></trkpt><trkpt lat="46.4881767" lon="11.805605"><ele>2183.3333333333335</ele><time>2026-05-02T10:48:37.394Z</time></trkpt><trkpt lat="46.488215" lon="11.8056783"><ele>2185.0</ele><time>2026-05-02T10:48:38.394Z</time></trkpt><trkpt lat="46.4882867" lon="11.8056933"><ele>2185.0</ele><time>2026-05-02T10:48:39.394Z</time></trkpt><trkpt lat="46.4883567" lon="11.80567"><ele>2185.0</ele><time>2026-05-02T10:48:40.393Z</time></trkpt><trkpt lat="46.4884217" lon="11.8055783"><ele>2185.0</ele><time>2026-05-02T10:48:41.394Z</time></trkpt><trkpt lat="46.4884833" lon="11.8054667"><ele>2185.0</ele><time>2026-05-02T10:48:42.394Z</time></trkpt><trkpt lat="46.48854" lon="11.8053583"><ele>2185.0</ele><time>2026-05-02T10:48:43.393Z</time></trkpt><trkpt lat="46.4886117" lon="11.8052883"><ele>2185.0</ele><time>2026-05-02T10:48:44.394Z</time></trkpt><trkpt lat="46.4886783" lon="11.8052667"><ele>2185.0</ele><time>2026-05-02T10:48:45.393Z</time></trkpt><trkpt lat="46.48875" lon="11.8054033"><ele>2185.0</ele><time>2026-05-02T10:48:47.393Z</time></trkpt><trkpt lat="46.4887567" lon="11.805525"><ele>2185.0</ele><time>2026-05-02T10:48:48.394Z</time></trkpt><trkpt lat="46.488735" lon="11.8056883"><ele>2185.0</ele><time>2026-05-02T10:48:49.393Z</time></trkpt><trkpt lat="46.4886967" lon="11.8058717"><ele>2185.0</ele><time>2026-05-02T10:48:50.393Z</time></trkpt><trkpt lat="46.488665" lon="11.80606"><ele>2187.666666666667</ele><time>2026-05-02T10:48:51.394Z</time></trkpt><trkpt lat="46.488625" lon="11.8062717"><ele>2190.3333333333335</ele><time>2026-05-02T10:48:52.394Z</time></trkpt><trkpt lat="46.4885917" lon="11.8065"><ele>2193.0</ele><time>2026-05-02T10:48:53.394Z</time></trkpt><trkpt lat="46.488545" lon="11.8067317"><ele>2195.3333333333335</ele><time>2026-05-02T10:48:54.394Z</time></trkpt><trkpt lat="46.4884917" lon="11.8069533"><ele>2197.666666666667</ele><time>2026-05-02T10:48:55.393Z</time></trkpt><trkpt lat="46.4884333" lon="11.8071617"><ele>2200.0</ele><time>2026-05-02T10:48:56.394Z</time></trkpt><trkpt lat="46.488365" lon="11.8073517"><ele>2200.0</ele><time>2026-05-02T10:48:57.394Z</time></trkpt><trkpt lat="46.4883017" lon="11.8075133"><ele>2200.0</ele><time>2026-05-02T10:48:58.394Z</time></trkpt><trkpt lat="46.488265" lon="11.8076417"><ele>2200.0</ele><time>2026-05-02T10:48:59.394Z</time></trkpt><trkpt lat="46.4882533" lon="11.8077617"><ele>2200.0</ele><time>2026-05-02T10:49:00.393Z</time></trkpt><trkpt lat="46.4882683" lon="11.8078583"><ele>2200.0</ele><time>2026-05-02T10:49:01.393Z</time></trkpt><trkpt lat="46.4883267" lon="11.8079217"><ele>2200.0</ele><time>2026-05-02T10:49:02.394Z</time></trkpt><trkpt lat="46.4884017" lon="11.807945"><ele>2200.0</ele><time>2026-05-02T10:49:03.393Z</time></trkpt><trkpt lat="46.488485" lon="11.8079067"><ele>2200.0</ele><time>2026-05-02T10:49:04.394Z</time></trkpt><trkpt lat="46.4885633" lon="11.8078133"><ele>2200.0</ele><time>2026-05-02T10:49:05.394Z</time></trkpt><trkpt lat="46.4886367" lon="11.8076817"><ele>2200.0</ele><time>2026-05-02T10:49:06.394Z</time></trkpt><trkpt lat="46.488705" lon="11.80753"><ele>2200.0</ele><time>2026-05-02T10:49:07.393Z</time></trkpt><trkpt lat="46.4887733" lon="11.8073717"><ele>2201.2</ele><time>2026-05-02T10:49:08.394Z</time></trkpt><trkpt lat="46.48883" lon="11.8072317"><ele>2202.4</ele><time>2026-05-02T10:49:09.394Z</time></trkpt><trkpt lat="46.4888833" lon="11.8070983"><ele>2203.6</ele><time>2026-05-02T10:49:10.394Z</time></trkpt><trkpt lat="46.48893" lon="11.8069817"><ele>2204.8</ele><time>2026-05-02T10:49:11.393Z</time></trkpt><trkpt lat="46.4889767" lon="11.8068833"><ele>2206.0</ele><time>2026-05-02T10:49:12.393Z</time></trkpt><trkpt lat="46.4890733" lon="11.8067983"><ele>2207.8</ele><time>2026-05-02T10:49:14.393Z</time></trkpt><trkpt lat="46.48915" lon="11.8068683"><ele>2209.6</ele><time>2026-05-02T10:49:16.394Z</time></trkpt><trkpt lat="46.489135" lon="11.80705"><ele>2211.4</ele><time>2026-05-02T10:49:18.394Z</time></trkpt><trkpt lat="46.4890933" lon="11.8071767"><ele>2213.2</ele><time>2026-05-02T10:49:19.394Z</time></trkpt><trkpt lat="46.48905" lon="11.8073033"><ele>2215.0</ele><time>2026-05-02T10:49:20.394Z</time></trkpt><trkpt lat="46.4890133" lon="11.8074317"><ele>2215.0</ele><time>2026-05-02T10:49:21.393Z</time></trkpt><trkpt lat="46.488985" lon="11.8075617"><ele>2215.0</ele><time>2026-05-02T10:49:22.394Z</time></trkpt><trkpt lat="46.4889667" lon="11.8076967"><ele>2215.0</ele><time>2026-05-02T10:49:23.394Z</time></trkpt><trkpt lat="46.488955" lon="11.80783"><ele>2215.0</ele><time>2026-05-02T10:49:24.394Z</time></trkpt><trkpt lat="46.48895" lon="11.8079717"><ele>2215.0</ele><time>2026-05-02T10:49:25.394Z</time></trkpt><trkpt lat="46.488945" lon="11.8081167"><ele>2216.0</ele><time>2026-05-02T10:49:26.394Z</time></trkpt><trkpt lat="46.4889417" lon="11.8082583"><ele>2217.0</ele><time>2026-05-02T10:49:27.394Z</time></trkpt><trkpt lat="46.4889383" lon="11.80839"><ele>2218.0</ele><time>2026-05-02T10:49:28.394Z</time></trkpt><trkpt lat="46.4889317" lon="11.8085017"><ele>2219.0</ele><time>2026-05-02T10:49:29.394Z</time></trkpt><trkpt lat="46.488925" lon="11.8086"><ele>2220.0</ele><time>2026-05-02T10:49:30.394Z</time></trkpt><trkpt lat="46.4889183" lon="11.8086933"><ele>2221.0</ele><time>2026-05-02T10:49:31.394Z</time></trkpt><trkpt lat="46.4889" lon="11.80887"><ele>2223.0</ele><time>2026-05-02T10:49:33.393Z</time></trkpt><trkpt lat="46.4888667" lon="11.8090183"><ele>2225.0</ele><time>2026-05-02T10:49:35.394Z</time></trkpt><trkpt lat="46.4888283" lon="11.809135"><ele>2227.0</ele><time>2026-05-02T10:49:37.394Z</time></trkpt><trkpt lat="46.4887883" lon="11.8092517"><ele>2229.0</ele><time>2026-05-02T10:49:39.393Z</time></trkpt><trkpt lat="46.4887533" lon="11.80935"><ele>2231.0</ele><time>2026-05-02T10:49:41.394Z</time></trkpt><trkpt lat="46.4887017" lon="11.809465"><ele>2231.0</ele><time>2026-05-02T10:49:43.394Z</time></trkpt><trkpt lat="46.4886433" lon="11.80961"><ele>2231.0</ele><time>2026-05-02T10:49:45.393Z</time></trkpt><trkpt lat="46.48858" lon="11.8097533"><ele>2231.0</ele><time>2026-05-02T10:49:47.394Z</time></trkpt><trkpt lat="46.4885183" lon="11.8098783"><ele>2231.0</ele><time>2026-05-02T10:49:49.394Z</time></trkpt><trkpt lat="46.4884583" lon="11.809985"><ele>2231.0</ele><time>2026-05-02T10:49:51.393Z</time></trkpt><trkpt lat="46.4884017" lon="11.8100533"><ele>2231.0</ele><time>2026-05-02T10:49:53.394Z</time></trkpt><trkpt lat="46.4883183" lon="11.8101067"><ele>2231.0</ele><time>2026-05-02T10:49:56.394Z</time></trkpt><trkpt lat="46.4882583" lon="11.8102117"><ele>2231.0</ele><time>2026-05-02T10:49:59.394Z</time></trkpt><trkpt lat="46.4882233" lon="11.810295"><ele>2231.0</ele><time>2026-05-02T10:50:01.394Z</time></trkpt><trkpt lat="46.4881817" lon="11.8103833"><ele>2231.0</ele><time>2026-05-02T10:50:03.394Z</time></trkpt><trkpt lat="46.4881483" lon="11.8104833"><ele>2231.0</ele><time>2026-05-02T10:50:05.393Z</time></trkpt><trkpt lat="46.4881133" lon="11.8106067"><ele>2232.6</ele><time>2026-05-02T10:50:07.394Z</time></trkpt><trkpt lat="46.488075" lon="11.8107667"><ele>2234.2</ele><time>2026-05-02T10:50:09.394Z</time></trkpt><trkpt lat="46.4880583" lon="11.8108983"><ele>2235.8</ele><time>2026-05-02T10:50:11.393Z</time></trkpt><trkpt lat="46.4880417" lon="11.8110117"><ele>2237.4</ele><time>2026-05-02T10:50:13.394Z</time></trkpt><trkpt lat="46.4880033" lon="11.8111417"><ele>2239.0</ele><time>2026-05-02T10:50:15.394Z</time></trkpt><trkpt lat="46.487955" lon="11.811285"><ele>2239.2</ele><time>2026-05-02T10:50:17.394Z</time></trkpt><trkpt lat="46.487905" lon="11.8114467"><ele>2239.4</ele><time>2026-05-02T10:50:19.394Z</time></trkpt><trkpt lat="46.4878617" lon="11.8115517"><ele>2239.6</ele><time>2026-05-02T10:50:20.393Z</time></trkpt><trkpt lat="46.487815" lon="11.81166"><ele>2239.8</ele><time>2026-05-02T10:50:21.394Z</time></trkpt><trkpt lat="46.4877667" lon="11.8117717"><ele>2240.0</ele><time>2026-05-02T10:50:22.394Z</time></trkpt><trkpt lat="46.4877183" lon="11.8118783"><ele>2240.0</ele><time>2026-05-02T10:50:23.394Z</time></trkpt><trkpt lat="46.48766" lon="11.811985"><ele>2240.0</ele><time>2026-05-02T10:50:24.393Z</time></trkpt><trkpt lat="46.4876017" lon="11.81209"><ele>2240.0</ele><time>2026-05-02T10:50:25.394Z</time></trkpt><trkpt lat="46.4875517" lon="11.8121883"><ele>2240.0</ele><time>2026-05-02T10:50:26.394Z</time></trkpt><trkpt lat="46.487505" lon="11.81229"><ele>2240.0</ele><time>2026-05-02T10:50:27.394Z</time></trkpt><trkpt lat="46.4874717" lon="11.8124"><ele>2240.0</ele><time>2026-05-02T10:50:28.394Z</time></trkpt><trkpt lat="46.4874467" lon="11.8125017"><ele>2240.0</ele><time>2026-05-02T10:50:29.394Z</time></trkpt><trkpt lat="46.48743" lon="11.8126"><ele>2240.0</ele><time>2026-05-02T10:50:30.394Z</time></trkpt><trkpt lat="46.4874183" lon="11.81277"><ele>2240.0</ele><time>2026-05-02T10:50:32.394Z</time></trkpt><trkpt lat="46.4874183" lon="11.8129133"><ele>2240.0</ele><time>2026-05-02T10:50:34.394Z</time></trkpt><trkpt lat="46.487435" lon="11.813025"><ele>2240.0</ele><time>2026-05-02T10:50:36.394Z</time></trkpt><trkpt lat="46.487465" lon="11.813135"><ele>2240.0</ele><time>2026-05-02T10:50:39.393Z</time></trkpt><trkpt lat="46.4875117" lon="11.81321"><ele>2239.5</ele><time>2026-05-02T10:50:42.394Z</time></trkpt><trkpt lat="46.48759" lon="11.8132233"><ele>2239.0</ele><time>2026-05-02T10:50:46.394Z</time></trkpt><trkpt lat="46.4876583" lon="11.8132667"><ele>2238.5</ele><time>2026-05-02T10:50:50.394Z</time></trkpt><trkpt lat="46.48773" lon="11.813285"><ele>2238.0</ele><time>2026-05-02T10:50:56.394Z</time></trkpt><trkpt lat="46.4877183" lon="11.8131917"><ele>2237.5</ele><time>2026-05-02T10:51:01.394Z</time></trkpt><trkpt lat="46.4876483" lon="11.81317"><ele>2237.0</ele><time>2026-05-02T10:51:05.393Z</time></trkpt><trkpt lat="46.4875817" lon="11.8132983"><ele>2237.0</ele><time>2026-05-02T10:53:32.394Z</time></trkpt><trkpt lat="46.4875167" lon="11.8132861"><ele>2237.0</ele><time>2026-05-02T10:54:12.449Z</time></trkpt><trkpt lat="46.4874733" lon="11.8133666"><ele>2237.0</ele><time>2026-05-02T10:54:23.49Z</time></trkpt><trkpt lat="46.4875142" lon="11.8134452"><ele>2237.0</ele><time>2026-05-02T10:54:32.487Z</time></trkpt><trkpt lat="46.4875932" lon="11.8134531"><ele>2237.0</ele><time>2026-05-02T10:54:38.498Z</time></trkpt><trkpt lat="46.4875501" lon="11.8135221"><ele>2237.0</ele><time>2026-05-02T10:55:08.453Z</time></trkpt><trkpt lat="46.4876017" lon="11.8135833"><ele>2237.0</ele><time>2026-05-02T10:55:40.401Z</time></trkpt><trkpt lat="46.4875133" lon="11.813615"><ele>2237.0</ele><time>2026-05-02T10:57:38.401Z</time></trkpt><trkpt lat="46.4876533" lon="11.8136217"><ele>2237.0</ele><time>2026-05-02T10:58:53.401Z</time></trkpt><trkpt lat="46.4876533" lon="11.8134933"><ele>2237.0</ele><time>2026-05-02T11:00:25.401Z</time></trkpt><trkpt lat="46.4876367" lon="11.8134033"><ele>2237.0</ele><time>2026-05-02T11:01:11.401Z</time></trkpt><trkpt lat="46.4875867" lon="11.813465"><ele>2237.0</ele><time>2026-05-02T11:01:37.401Z</time></trkpt><trkpt lat="46.4875383" lon="11.813535"><ele>2237.0</ele><time>2026-05-02T11:01:51.401Z</time></trkpt><trkpt lat="46.4874917" lon="11.813605"><ele>2237.0</ele><time>2026-05-02T11:02:10.401Z</time></trkpt><trkpt lat="46.4874933" lon="11.8136983"><ele>2237.0</ele><time>2026-05-02T11:02:23.401Z</time></trkpt><trkpt lat="46.4875517" lon="11.8136167"><ele>2237.0</ele><time>2026-05-02T11:06:11.401Z</time></trkpt><trkpt lat="46.4874883" lon="11.8136083"><ele>2237.0</ele><time>2026-05-02T11:06:32.4Z</time></trkpt><trkpt lat="46.4875217" lon="11.8135233"><ele>2237.0</ele><time>2026-05-02T11:07:30.401Z</time></trkpt><trkpt lat="46.4876" lon="11.8134983"><ele>2237.0</ele><time>2026-05-02T11:08:40.401Z</time></trkpt><trkpt lat="46.4877367" lon="11.8134667"><ele>2236.0</ele><time>2026-05-02T11:09:00.401Z</time></trkpt><trkpt lat="46.4876483" lon="11.8135483"><ele>2235.0</ele><time>2026-05-02T11:10:13.401Z</time></trkpt><trkpt lat="46.4875817" lon="11.8136217"><ele>2234.0</ele><time>2026-05-02T11:10:14.401Z</time></trkpt><trkpt lat="46.4875117" lon="11.8135867"><ele>2233.0</ele><time>2026-05-02T11:10:18.401Z</time></trkpt><trkpt lat="46.487455" lon="11.8136367"><ele>2232.0</ele><time>2026-05-02T11:10:22.4Z</time></trkpt><trkpt lat="46.4874833" lon="11.8137433"><ele>2231.0</ele><time>2026-05-02T11:10:29.401Z</time></trkpt><trkpt lat="46.48748" lon="11.8136317"><ele>2231.0</ele><time>2026-05-02T11:12:10.4Z</time></trkpt><trkpt lat="46.4875433" lon="11.8136417"><ele>2231.0</ele><time>2026-05-02T11:15:46.401Z</time></trkpt><trkpt lat="46.4876583" lon="11.813665"><ele>2231.0</ele><time>2026-05-02T11:18:33.401Z</time></trkpt><trkpt lat="46.4875667" lon="11.813715"><ele>2231.0</ele><time>2026-05-02T11:20:00.4Z</time></trkpt><trkpt lat="46.4876417" lon="11.8136967"><ele>2231.0</ele><time>2026-05-02T11:20:11.401Z</time></trkpt><trkpt lat="46.4877067" lon="11.8136717"><ele>2231.0</ele><time>2026-05-02T11:20:23.401Z</time></trkpt><trkpt lat="46.487625" lon="11.813595"><ele>2231.0</ele><time>2026-05-02T11:21:53.401Z</time></trkpt><trkpt lat="46.4875467" lon="11.8136233"><ele>2231.0</ele><time>2026-05-02T11:24:20.4Z</time></trkpt><trkpt lat="46.4874233" lon="11.8136083"><ele>2231.0</ele><time>2026-05-02T11:24:45.4Z</time></trkpt><trkpt lat="46.4874683" lon="11.81353"><ele>2231.0</ele><time>2026-05-02T11:25:42.4Z</time></trkpt><trkpt lat="46.48753" lon="11.8136"><ele>2231.0</ele><time>2026-05-02T11:27:36.399Z</time></trkpt><trkpt lat="46.4874383" lon="11.8135717"><ele>2231.0</ele><time>2026-05-02T11:27:55.4Z</time></trkpt><trkpt lat="46.487345" lon="11.8135717"><ele>2231.0</ele><time>2026-05-02T11:28:06.399Z</time></trkpt><trkpt lat="46.487415" lon="11.81358"><ele>2231.0</ele><time>2026-05-02T11:28:15.4Z</time></trkpt><trkpt lat="46.4875367" lon="11.81354"><ele>2231.0</ele><time>2026-05-02T11:33:14.4Z</time></trkpt><trkpt lat="46.4874333" lon="11.8135883"><ele>2231.0</ele><time>2026-05-02T11:42:30.4Z</time></trkpt><trkpt lat="46.4875233" lon="11.81361"><ele>2231.0</ele><time>2026-05-02T11:44:02.4Z</time></trkpt><trkpt lat="46.4875867" lon="11.8136267"><ele>2231.0</ele><time>2026-05-02T11:44:10.4Z</time></trkpt><trkpt lat="46.4877733" lon="11.8136283"><ele>2231.0</ele><time>2026-05-02T11:44:34.4Z</time></trkpt><trkpt lat="46.4876917" lon="11.8135933"><ele>2231.0</ele><time>2026-05-02T11:45:55.4Z</time></trkpt><trkpt lat="46.4876283" lon="11.813575"><ele>2231.0</ele><time>2026-05-02T11:47:22.4Z</time></trkpt><trkpt lat="46.4875" lon="11.813605"><ele>2231.0</ele><time>2026-05-02T11:49:01.4Z</time></trkpt><trkpt lat="46.48757" lon="11.8136033"><ele>2231.0</ele><time>2026-05-02T11:49:50.4Z</time></trkpt><trkpt lat="46.4876767" lon="11.8135983"><ele>2231.0</ele><time>2026-05-02T11:50:31.4Z</time></trkpt><trkpt lat="46.487615" lon="11.8135767"><ele>2231.0</ele><time>2026-05-02T11:50:51.4Z</time></trkpt><trkpt lat="46.4875333" lon="11.813555"><ele>2231.0</ele><time>2026-05-02T11:51:30.399Z</time></trkpt><trkpt lat="46.48744" lon="11.8135467"><ele>2231.0</ele><time>2026-05-02T11:51:33.4Z</time></trkpt><trkpt lat="46.4873283" lon="11.8135317"><ele>2231.0</ele><time>2026-05-02T11:51:35.4Z</time></trkpt><trkpt lat="46.4872583" lon="11.8135317"><ele>2231.0</ele><time>2026-05-02T11:51:38.4Z</time></trkpt><trkpt lat="46.4873133" lon="11.8135933"><ele>2231.0</ele><time>2026-05-02T11:53:01.4Z</time></trkpt><trkpt lat="46.4873767" lon="11.8135933"><ele>2231.0</ele><time>2026-05-02T11:53:02.4Z</time></trkpt><trkpt lat="46.487455" lon="11.8135717"><ele>2231.0</ele><time>2026-05-02T11:53:04.399Z</time></trkpt><trkpt lat="46.4875283" lon="11.8135717"><ele>2231.0</ele><time>2026-05-02T11:53:05.4Z</time></trkpt><trkpt lat="46.4875933" lon="11.813565"><ele>2231.0</ele><time>2026-05-02T11:53:08.4Z</time></trkpt><trkpt lat="46.4876667" lon="11.8135367"><ele>2231.0</ele><time>2026-05-02T11:55:34.4Z</time></trkpt><trkpt lat="46.4875717" lon="11.8135717"><ele>2231.0</ele><time>2026-05-02T11:57:15.4Z</time></trkpt><trkpt lat="46.487675" lon="11.8136"><ele>2231.0</ele><time>2026-05-02T11:58:22.4Z</time></trkpt><trkpt lat="46.4875983" lon="11.8135783"><ele>2231.0</ele><time>2026-05-02T11:58:25.4Z</time></trkpt><trkpt lat="46.48772" lon="11.8135833"><ele>2231.0</ele><time>2026-05-02T11:59:14.4Z</time></trkpt><trkpt lat="46.4876383" lon="11.8136033"><ele>2231.0</ele><time>2026-05-02T11:59:35.399Z</time></trkpt><trkpt lat="46.48757" lon="11.813585"><ele>2231.0</ele><time>2026-05-02T11:59:56.4Z</time></trkpt><trkpt lat="46.4876223" lon="11.8135184"><ele>2231.0</ele><time>2026-05-02T12:19:07.421Z</time></trkpt><trkpt lat="46.4874941" lon="11.8133922"><ele>2231.0</ele><time>2026-05-02T12:19:14.09Z</time></trkpt><trkpt lat="46.487615" lon="11.8134967"><ele>2231.0</ele><time>2026-05-02T12:19:22.253Z</time></trkpt><trkpt lat="46.4875617" lon="11.8133983"><ele>2231.0</ele><time>2026-05-02T12:19:27.254Z</time></trkpt><trkpt lat="46.4875667" lon="11.8133033"><ele>2231.0</ele><time>2026-05-02T12:19:35.397Z</time></trkpt><trkpt lat="46.4876117" lon="11.813235"><ele>2231.0</ele><time>2026-05-02T12:20:48.397Z</time></trkpt><trkpt lat="46.48758" lon="11.8133167"><ele>2231.0</ele><time>2026-05-02T12:23:08.397Z</time></trkpt><trkpt lat="46.4875133" lon="11.8133"><ele>2231.0</ele><time>2026-05-02T12:23:10.397Z</time></trkpt><trkpt lat="46.48745" lon="11.813285"><ele>2231.0</ele><time>2026-05-02T12:23:14.397Z</time></trkpt><trkpt lat="46.48741" lon="11.8133683"><ele>2231.0</ele><time>2026-05-02T12:23:17.397Z</time></trkpt><trkpt lat="46.4873717" lon="11.8135067"><ele>2231.0</ele><time>2026-05-02T12:23:19.397Z</time></trkpt><trkpt lat="46.48733" lon="11.813585"><ele>2231.0</ele><time>2026-05-02T12:23:20.397Z</time></trkpt><trkpt lat="46.4872683" lon="11.8136467"><ele>2231.0</ele><time>2026-05-02T12:23:21.397Z</time></trkpt><trkpt lat="46.487195" lon="11.8136667"><ele>2231.0</ele><time>2026-05-02T12:23:22.397Z</time></trkpt><trkpt lat="46.4871233" lon="11.8136517"><ele>2231.0</ele><time>2026-05-02T12:23:23.397Z</time></trkpt><trkpt lat="46.487045" lon="11.81361"><ele>2231.0</ele><time>2026-05-02T12:23:24.397Z</time></trkpt><trkpt lat="46.4869633" lon="11.8135667"><ele>2231.5</ele><time>2026-05-02T12:23:25.396Z</time></trkpt><trkpt lat="46.4868767" lon="11.813565"><ele>2232.0</ele><time>2026-05-02T12:23:26.396Z</time></trkpt><trkpt lat="46.4867983" lon="11.8136083"><ele>2232.5</ele><time>2026-05-02T12:23:27.397Z</time></trkpt><trkpt lat="46.4867417" lon="11.8137017"><ele>2233.0</ele><time>2026-05-02T12:23:28.397Z</time></trkpt><trkpt lat="46.4867167" lon="11.8138267"><ele>2233.5</ele><time>2026-05-02T12:23:29.396Z</time></trkpt><trkpt lat="46.486715" lon="11.8139717"><ele>2234.0</ele><time>2026-05-02T12:23:30.397Z</time></trkpt><trkpt lat="46.4867283" lon="11.8141283"><ele>2234.0</ele><time>2026-05-02T12:23:31.397Z</time></trkpt><trkpt lat="46.486755" lon="11.8143017"><ele>2234.0</ele><time>2026-05-02T12:23:32.397Z</time></trkpt><trkpt lat="46.4867783" lon="11.8144917"><ele>2234.0</ele><time>2026-05-02T12:23:33.397Z</time></trkpt><trkpt lat="46.486805" lon="11.8146833"><ele>2234.0</ele><time>2026-05-02T12:23:34.397Z</time></trkpt><trkpt lat="46.4868183" lon="11.814855"><ele>2231.8</ele><time>2026-05-02T12:23:35.396Z</time></trkpt><trkpt lat="46.4868167" lon="11.8150133"><ele>2229.6000000000004</ele><time>2026-05-02T12:23:36.397Z</time></trkpt><trkpt lat="46.486795" lon="11.8151617"><ele>2227.4</ele><time>2026-05-02T12:23:37.396Z</time></trkpt><trkpt lat="46.4867367" lon="11.81529"><ele>2225.2000000000003</ele><time>2026-05-02T12:23:38.396Z</time></trkpt><trkpt lat="46.48666" lon="11.8154167"><ele>2223.0</ele><time>2026-05-02T12:23:39.397Z</time></trkpt><trkpt lat="46.4865567" lon="11.81552"><ele>2220.75</ele><time>2026-05-02T12:23:40.397Z</time></trkpt><trkpt lat="46.4864517" lon="11.8156083"><ele>2218.5</ele><time>2026-05-02T12:23:41.397Z</time></trkpt><trkpt lat="46.48635" lon="11.8156983"><ele>2216.25</ele><time>2026-05-02T12:23:42.397Z</time></trkpt><trkpt lat="46.4862533" lon="11.8157867"><ele>2214.0</ele><time>2026-05-02T12:23:43.397Z</time></trkpt><trkpt lat="46.486165" lon="11.815875"><ele>2213.4</ele><time>2026-05-02T12:23:44.396Z</time></trkpt><trkpt lat="46.4860717" lon="11.8159417"><ele>2212.8</ele><time>2026-05-02T12:23:45.397Z</time></trkpt><trkpt lat="46.485985" lon="11.81597"><ele>2212.2</ele><time>2026-05-02T12:23:46.397Z</time></trkpt><trkpt lat="46.485895" lon="11.8159617"><ele>2211.6</ele><time>2026-05-02T12:23:47.396Z</time></trkpt><trkpt lat="46.4857967" lon="11.81591"><ele>2211.0</ele><time>2026-05-02T12:23:48.397Z</time></trkpt><trkpt lat="46.4856983" lon="11.81585"><ele>2211.0</ele><time>2026-05-02T12:23:49.397Z</time></trkpt><trkpt lat="46.4856" lon="11.8157917"><ele>2211.0</ele><time>2026-05-02T12:23:50.396Z</time></trkpt><trkpt lat="46.4855017" lon="11.8157517"><ele>2211.0</ele><time>2026-05-02T12:23:51.396Z</time></trkpt><trkpt lat="46.4853983" lon="11.8157533"><ele>2211.0</ele><time>2026-05-02T12:23:52.396Z</time></trkpt><trkpt lat="46.4853017" lon="11.81579"><ele>2211.0</ele><time>2026-05-02T12:23:53.397Z</time></trkpt><trkpt lat="46.4852133" lon="11.8158783"><ele>2207.0</ele><time>2026-05-02T12:23:54.397Z</time></trkpt><trkpt lat="46.4851367" lon="11.81601"><ele>2203.0</ele><time>2026-05-02T12:23:55.397Z</time></trkpt><trkpt lat="46.4850633" lon="11.8161533"><ele>2199.0</ele><time>2026-05-02T12:23:56.397Z</time></trkpt><trkpt lat="46.4849933" lon="11.8163017"><ele>2195.0</ele><time>2026-05-02T12:23:57.397Z</time></trkpt><trkpt lat="46.4849183" lon="11.81645"><ele>2195.0</ele><time>2026-05-02T12:23:58.397Z</time></trkpt><trkpt lat="46.4848417" lon="11.81659"><ele>2195.0</ele><time>2026-05-02T12:23:59.397Z</time></trkpt><trkpt lat="46.4847733" lon="11.8167283"><ele>2195.0</ele><time>2026-05-02T12:24:00.397Z</time></trkpt><trkpt lat="46.48471" lon="11.81686"><ele>2195.0</ele><time>2026-05-02T12:24:01.397Z</time></trkpt><trkpt lat="46.4846533" lon="11.816965"><ele>2195.0</ele><time>2026-05-02T12:24:02.397Z</time></trkpt><trkpt lat="46.4845717" lon="11.81705"><ele>2195.2</ele><time>2026-05-02T12:24:03.396Z</time></trkpt><trkpt lat="46.4844783" lon="11.8171017"><ele>2195.4</ele><time>2026-05-02T12:24:04.397Z</time></trkpt><trkpt lat="46.4843717" lon="11.81714"><ele>2195.6</ele><time>2026-05-02T12:24:05.397Z</time></trkpt><trkpt lat="46.4842567" lon="11.8171783"><ele>2195.8</ele><time>2026-05-02T12:24:06.397Z</time></trkpt><trkpt lat="46.4841433" lon="11.8172067"><ele>2196.0</ele><time>2026-05-02T12:24:07.397Z</time></trkpt><trkpt lat="46.4840417" lon="11.8172517"><ele>2196.0</ele><time>2026-05-02T12:24:08.396Z</time></trkpt><trkpt lat="46.48395" lon="11.8173283"><ele>2196.0</ele><time>2026-05-02T12:24:09.396Z</time></trkpt><trkpt lat="46.4838733" lon="11.8174483"><ele>2196.0</ele><time>2026-05-02T12:24:10.397Z</time></trkpt><trkpt lat="46.4838117" lon="11.817605"><ele>2196.0</ele><time>2026-05-02T12:24:11.396Z</time></trkpt><trkpt lat="46.4837567" lon="11.8177767"><ele>2195.0</ele><time>2026-05-02T12:24:12.397Z</time></trkpt><trkpt lat="46.4837017" lon="11.8179517"><ele>2194.0</ele><time>2026-05-02T12:24:13.397Z</time></trkpt><trkpt lat="46.483645" lon="11.818135"><ele>2193.0</ele><time>2026-05-02T12:24:14.397Z</time></trkpt><trkpt lat="46.4836033" lon="11.8182967"><ele>2192.0</ele><time>2026-05-02T12:24:15.397Z</time></trkpt><trkpt lat="46.4835633" lon="11.8184517"><ele>2190.25</ele><time>2026-05-02T12:24:16.397Z</time></trkpt><trkpt lat="46.4835233" lon="11.8185967"><ele>2188.5</ele><time>2026-05-02T12:24:17.396Z</time></trkpt><trkpt lat="46.48349" lon="11.81877"><ele>2186.75</ele><time>2026-05-02T12:24:18.397Z</time></trkpt><trkpt lat="46.48345" lon="11.8189567"><ele>2185.0</ele><time>2026-05-02T12:24:19.397Z</time></trkpt><trkpt lat="46.4834033" lon="11.8191383"><ele>2185.0</ele><time>2026-05-02T12:24:20.397Z</time></trkpt><trkpt lat="46.48336" lon="11.8193167"><ele>2185.0</ele><time>2026-05-02T12:24:21.397Z</time></trkpt><trkpt lat="46.483315" lon="11.819495"><ele>2185.0</ele><time>2026-05-02T12:24:22.397Z</time></trkpt><trkpt lat="46.4832767" lon="11.81968"><ele>2185.0</ele><time>2026-05-02T12:24:23.396Z</time></trkpt><trkpt lat="46.48324" lon="11.8198733"><ele>2183.75</ele><time>2026-05-02T12:24:24.397Z</time></trkpt><trkpt lat="46.4832217" lon="11.820065"><ele>2182.5</ele><time>2026-05-02T12:24:25.397Z</time></trkpt><trkpt lat="46.4832083" lon="11.820255"><ele>2181.25</ele><time>2026-05-02T12:24:26.397Z</time></trkpt><trkpt lat="46.4831983" lon="11.8204433"><ele>2180.0</ele><time>2026-05-02T12:24:27.396Z</time></trkpt><trkpt lat="46.48318" lon="11.8206283"><ele>2179.25</ele><time>2026-05-02T12:24:28.396Z</time></trkpt><trkpt lat="46.48316" lon="11.820815"><ele>2178.5</ele><time>2026-05-02T12:24:29.396Z</time></trkpt><trkpt lat="46.4831367" lon="11.8209833"><ele>2177.75</ele><time>2026-05-02T12:24:30.396Z</time></trkpt><trkpt lat="46.4831133" lon="11.8211567"><ele>2177.0</ele><time>2026-05-02T12:24:31.397Z</time></trkpt><trkpt lat="46.4830983" lon="11.8213333"><ele>2174.5</ele><time>2026-05-02T12:24:32.396Z</time></trkpt><trkpt lat="46.483055" lon="11.8215033"><ele>2172.0</ele><time>2026-05-02T12:24:33.396Z</time></trkpt><trkpt lat="46.48303" lon="11.821675"><ele>2169.5</ele><time>2026-05-02T12:24:34.396Z</time></trkpt><trkpt lat="46.4829983" lon="11.8218467"><ele>2167.0</ele><time>2026-05-02T12:24:35.397Z</time></trkpt><trkpt lat="46.4829717" lon="11.8220317"><ele>2166.5</ele><time>2026-05-02T12:24:36.397Z</time></trkpt><trkpt lat="46.4829283" lon="11.8222067"><ele>2166.0</ele><time>2026-05-02T12:24:37.397Z</time></trkpt><trkpt lat="46.4828633" lon="11.8223717"><ele>2165.5</ele><time>2026-05-02T12:24:38.397Z</time></trkpt><trkpt lat="46.4827783" lon="11.82252"><ele>2165.0</ele><time>2026-05-02T12:24:39.397Z</time></trkpt><trkpt lat="46.482685" lon="11.8226467"><ele>2162.5</ele><time>2026-05-02T12:24:40.396Z</time></trkpt><trkpt lat="46.4825767" lon="11.8227417"><ele>2160.0</ele><time>2026-05-02T12:24:41.397Z</time></trkpt><trkpt lat="46.482465" lon="11.8228233"><ele>2157.5</ele><time>2026-05-02T12:24:42.396Z</time></trkpt><trkpt lat="46.4823483" lon="11.8228983"><ele>2155.0</ele><time>2026-05-02T12:24:43.397Z</time></trkpt><trkpt lat="46.482245" lon="11.8229667"><ele>2155.0</ele><time>2026-05-02T12:24:44.396Z</time></trkpt><trkpt lat="46.48215" lon="11.8230267"><ele>2155.0</ele><time>2026-05-02T12:24:45.397Z</time></trkpt><trkpt lat="46.4820817" lon="11.8231283"><ele>2155.0</ele><time>2026-05-02T12:24:46.397Z</time></trkpt><trkpt lat="46.48203" lon="11.8232433"><ele>2155.0</ele><time>2026-05-02T12:24:47.397Z</time></trkpt><trkpt lat="46.48202" lon="11.823375"><ele>2155.0</ele><time>2026-05-02T12:24:48.396Z</time></trkpt><trkpt lat="46.482035" lon="11.8235067"><ele>2155.8</ele><time>2026-05-02T12:24:49.397Z</time></trkpt><trkpt lat="46.4820983" lon="11.8236133"><ele>2156.6</ele><time>2026-05-02T12:24:50.397Z</time></trkpt><trkpt lat="46.482185" lon="11.82368"><ele>2157.4</ele><time>2026-05-02T12:24:51.397Z</time></trkpt><trkpt lat="46.4822817" lon="11.8237"><ele>2158.2</ele><time>2026-05-02T12:24:52.397Z</time></trkpt><trkpt lat="46.4823983" lon="11.8236617"><ele>2159.0</ele><time>2026-05-02T12:24:53.397Z</time></trkpt><trkpt lat="46.482525" lon="11.8236033"><ele>2158.0</ele><time>2026-05-02T12:24:54.397Z</time></trkpt><trkpt lat="46.4826483" lon="11.8235467"><ele>2157.0</ele><time>2026-05-02T12:24:55.397Z</time></trkpt><trkpt lat="46.482765" lon="11.8234967"><ele>2156.0</ele><time>2026-05-02T12:24:56.397Z</time></trkpt><trkpt lat="46.48287" lon="11.82344"><ele>2155.0</ele><time>2026-05-02T12:24:57.396Z</time></trkpt><trkpt lat="46.4829633" lon="11.8233717"><ele>2152.8</ele><time>2026-05-02T12:24:58.397Z</time></trkpt><trkpt lat="46.483045" lon="11.82327"><ele>2150.6</ele><time>2026-05-02T12:24:59.396Z</time></trkpt><trkpt lat="46.4831167" lon="11.8231367"><ele>2148.4</ele><time>2026-05-02T12:25:00.397Z</time></trkpt><trkpt lat="46.4831717" lon="11.822995"><ele>2146.2</ele><time>2026-05-02T12:25:01.397Z</time></trkpt><trkpt lat="46.4832283" lon="11.8228867"><ele>2144.0</ele><time>2026-05-02T12:25:02.397Z</time></trkpt><trkpt lat="46.4833117" lon="11.8228183"><ele>2144.0</ele><time>2026-05-02T12:25:03.396Z</time></trkpt><trkpt lat="46.4834017" lon="11.8228033"><ele>2144.0</ele><time>2026-05-02T12:25:04.397Z</time></trkpt><trkpt lat="46.4834917" lon="11.822805"><ele>2144.0</ele><time>2026-05-02T12:25:05.397Z</time></trkpt><trkpt lat="46.483585" lon="11.8228017"><ele>2144.0</ele><time>2026-05-02T12:25:06.397Z</time></trkpt><trkpt lat="46.483675" lon="11.8227983"><ele>2144.0</ele><time>2026-05-02T12:25:07.397Z</time></trkpt><trkpt lat="46.483745" lon="11.8228133"><ele>2144.0</ele><time>2026-05-02T12:25:08.397Z</time></trkpt><trkpt lat="46.4838117" lon="11.822925"><ele>2144.0</ele><time>2026-05-02T12:25:10.397Z</time></trkpt><trkpt lat="46.48377" lon="11.8230533"><ele>2144.0</ele><time>2026-05-02T12:25:12.397Z</time></trkpt><trkpt lat="46.4837067" lon="11.8231017"><ele>2144.0</ele><time>2026-05-02T12:25:13.397Z</time></trkpt><trkpt lat="46.4836133" lon="11.8231417"><ele>2144.0</ele><time>2026-05-02T12:25:14.397Z</time></trkpt><trkpt lat="46.4835217" lon="11.8232133"><ele>2144.0</ele><time>2026-05-02T12:25:15.397Z</time></trkpt><trkpt lat="46.4834683" lon="11.8233367"><ele>2141.0</ele><time>2026-05-02T12:25:16.397Z</time></trkpt><trkpt lat="46.4834267" lon="11.8235067"><ele>2138.0</ele><time>2026-05-02T12:25:17.397Z</time></trkpt><trkpt lat="46.4833933" lon="11.8237033"><ele>2135.0</ele><time>2026-05-02T12:25:18.397Z</time></trkpt><trkpt lat="46.4833517" lon="11.8238967"><ele>2132.0</ele><time>2026-05-02T12:25:19.397Z</time></trkpt><trkpt lat="46.4833183" lon="11.82408"><ele>2132.0</ele><time>2026-05-02T12:25:20.397Z</time></trkpt><trkpt lat="46.48329" lon="11.82426"><ele>2132.0</ele><time>2026-05-02T12:25:21.397Z</time></trkpt><trkpt lat="46.4832667" lon="11.8244383"><ele>2132.0</ele><time>2026-05-02T12:25:22.397Z</time></trkpt><trkpt lat="46.4832533" lon="11.8246067"><ele>2132.0</ele><time>2026-05-02T12:25:23.397Z</time></trkpt><trkpt lat="46.48324" lon="11.8247633"><ele>2130.0</ele><time>2026-05-02T12:25:24.396Z</time></trkpt><trkpt lat="46.4832217" lon="11.8249083"><ele>2128.0</ele><time>2026-05-02T12:25:25.397Z</time></trkpt><trkpt lat="46.4832" lon="11.8250417"><ele>2126.0</ele><time>2026-05-02T12:25:26.397Z</time></trkpt><trkpt lat="46.483165" lon="11.8251683"><ele>2124.0</ele><time>2026-05-02T12:25:27.397Z</time></trkpt><trkpt lat="46.4831267" lon="11.8252967"><ele>2122.0</ele><time>2026-05-02T12:25:28.397Z</time></trkpt><trkpt lat="46.483085" lon="11.825415"><ele>2122.5</ele><time>2026-05-02T12:25:29.397Z</time></trkpt><trkpt lat="46.483035" lon="11.8255167"><ele>2123.0</ele><time>2026-05-02T12:25:30.397Z</time></trkpt><trkpt lat="46.4829917" lon="11.8256033"><ele>2123.5</ele><time>2026-05-02T12:25:31.397Z</time></trkpt><trkpt lat="46.4829567" lon="11.8256883"><ele>2124.0</ele><time>2026-05-02T12:25:32.397Z</time></trkpt><trkpt lat="46.4829317" lon="11.8257817"><ele>2124.5</ele><time>2026-05-02T12:25:33.396Z</time></trkpt><trkpt lat="46.482925" lon="11.82588"><ele>2125.0</ele><time>2026-05-02T12:25:34.397Z</time></trkpt><trkpt lat="46.4830133" lon="11.826005"><ele>2122.6</ele><time>2026-05-02T12:25:36.397Z</time></trkpt><trkpt lat="46.4830783" lon="11.8259983"><ele>2120.2</ele><time>2026-05-02T12:25:37.396Z</time></trkpt><trkpt lat="46.48315" lon="11.8259017"><ele>2117.8</ele><time>2026-05-02T12:25:38.397Z</time></trkpt><trkpt lat="46.4832167" lon="11.825745"><ele>2115.4</ele><time>2026-05-02T12:25:39.397Z</time></trkpt><trkpt lat="46.4832883" lon="11.8255617"><ele>2113.0</ele><time>2026-05-02T12:25:40.397Z</time></trkpt><trkpt lat="46.4833583" lon="11.8253783"><ele>2113.0</ele><time>2026-05-02T12:25:41.397Z</time></trkpt><trkpt lat="46.4834333" lon="11.82521"><ele>2113.0</ele><time>2026-05-02T12:25:42.396Z</time></trkpt><trkpt lat="46.4835117" lon="11.8250417"><ele>2113.0</ele><time>2026-05-02T12:25:43.397Z</time></trkpt><trkpt lat="46.4835967" lon="11.824875"><ele>2113.0</ele><time>2026-05-02T12:25:44.396Z</time></trkpt><trkpt lat="46.4837033" lon="11.8247333"><ele>2113.5</ele><time>2026-05-02T12:25:45.397Z</time></trkpt><trkpt lat="46.4838067" lon="11.8246067"><ele>2114.0</ele><time>2026-05-02T12:25:46.397Z</time></trkpt><trkpt lat="46.48391" lon="11.82449"><ele>2114.5</ele><time>2026-05-02T12:25:47.397Z</time></trkpt><trkpt lat="46.4840183" lon="11.8243717"><ele>2115.0</ele><time>2026-05-02T12:25:48.397Z</time></trkpt><trkpt lat="46.4841367" lon="11.8242783"><ele>2115.0</ele><time>2026-05-02T12:25:49.397Z</time></trkpt><trkpt lat="46.4842617" lon="11.8242133"><ele>2115.0</ele><time>2026-05-02T12:25:50.397Z</time></trkpt><trkpt lat="46.4843867" lon="11.8241733"><ele>2115.0</ele><time>2026-05-02T12:25:51.397Z</time></trkpt><trkpt lat="46.484515" lon="11.8241417"><ele>2115.0</ele><time>2026-05-02T12:25:52.396Z</time></trkpt><trkpt lat="46.48464" lon="11.824115"><ele>2112.6</ele><time>2026-05-02T12:25:53.397Z</time></trkpt><trkpt lat="46.4847533" lon="11.824085"><ele>2110.2</ele><time>2026-05-02T12:25:54.396Z</time></trkpt><trkpt lat="46.484845" lon="11.8240617"><ele>2107.8</ele><time>2026-05-02T12:25:55.396Z</time></trkpt><trkpt lat="46.4849217" lon="11.824055"><ele>2105.4</ele><time>2026-05-02T12:25:56.396Z</time></trkpt><trkpt lat="46.485015" lon="11.8241183"><ele>2103.0</ele><time>2026-05-02T12:25:58.397Z</time></trkpt><trkpt lat="46.4849867" lon="11.824265"><ele>2102.0</ele><time>2026-05-02T12:26:00.396Z</time></trkpt><trkpt lat="46.4849267" lon="11.8243267"><ele>2101.0</ele><time>2026-05-02T12:26:01.396Z</time></trkpt><trkpt lat="46.48483" lon="11.8243933"><ele>2100.0</ele><time>2026-05-02T12:26:02.396Z</time></trkpt><trkpt lat="46.4847133" lon="11.8245033"><ele>2099.0</ele><time>2026-05-02T12:26:03.397Z</time></trkpt><trkpt lat="46.4845833" lon="11.824645"><ele>2099.0</ele><time>2026-05-02T12:26:04.397Z</time></trkpt><trkpt lat="46.4844717" lon="11.8247833"><ele>2099.0</ele><time>2026-05-02T12:26:05.397Z</time></trkpt><trkpt lat="46.48438" lon="11.82494"><ele>2099.0</ele><time>2026-05-02T12:26:06.397Z</time></trkpt><trkpt lat="46.4843267" lon="11.8251083"><ele>2099.0</ele><time>2026-05-02T12:26:07.397Z</time></trkpt><trkpt lat="46.4842717" lon="11.8252883"><ele>2096.5</ele><time>2026-05-02T12:26:08.396Z</time></trkpt><trkpt lat="46.484205" lon="11.8254717"><ele>2094.0</ele><time>2026-05-02T12:26:09.397Z</time></trkpt><trkpt lat="46.484145" lon="11.8256467"><ele>2091.5</ele><time>2026-05-02T12:26:10.397Z</time></trkpt><trkpt lat="46.4841083" lon="11.825835"><ele>2089.0</ele><time>2026-05-02T12:26:11.396Z</time></trkpt><trkpt lat="46.4840783" lon="11.826015"><ele>2085.75</ele><time>2026-05-02T12:26:12.397Z</time></trkpt><trkpt lat="46.4840433" lon="11.82619"><ele>2082.5</ele><time>2026-05-02T12:26:13.397Z</time></trkpt><trkpt lat="46.4839867" lon="11.82634"><ele>2079.25</ele><time>2026-05-02T12:26:14.397Z</time></trkpt><trkpt lat="46.483915" lon="11.82646"><ele>2076.0</ele><time>2026-05-02T12:26:15.397Z</time></trkpt><trkpt lat="46.483835" lon="11.8265483"><ele>2080.2</ele><time>2026-05-02T12:26:16.397Z</time></trkpt><trkpt lat="46.4837517" lon="11.8266117"><ele>2084.3999999999996</ele><time>2026-05-02T12:26:17.396Z</time></trkpt><trkpt lat="46.4836583" lon="11.82667"><ele>2088.6</ele><time>2026-05-02T12:26:18.397Z</time></trkpt><trkpt lat="46.483595" lon="11.8267633"><ele>2092.7999999999997</ele><time>2026-05-02T12:26:19.397Z</time></trkpt><trkpt lat="46.4835517" lon="11.8268733"><ele>2097.0</ele><time>2026-05-02T12:26:20.397Z</time></trkpt><trkpt lat="46.48357" lon="11.8270067"><ele>2097.25</ele><time>2026-05-02T12:26:21.397Z</time></trkpt><trkpt lat="46.4836283" lon="11.8271567"><ele>2097.5</ele><time>2026-05-02T12:26:22.397Z</time></trkpt><trkpt lat="46.4837067" lon="11.8273167"><ele>2097.75</ele><time>2026-05-02T12:26:23.397Z</time></trkpt><trkpt lat="46.4837867" lon="11.8274833"><ele>2098.0</ele><time>2026-05-02T12:26:24.397Z</time></trkpt><trkpt lat="46.48386" lon="11.8276567"><ele>2090.75</ele><time>2026-05-02T12:26:25.396Z</time></trkpt><trkpt lat="46.4839133" lon="11.8278467"><ele>2083.5</ele><time>2026-05-02T12:26:26.397Z</time></trkpt><trkpt lat="46.4839533" lon="11.8280417"><ele>2076.25</ele><time>2026-05-02T12:26:27.397Z</time></trkpt><trkpt lat="46.4839917" lon="11.8282383"><ele>2069.0</ele><time>2026-05-02T12:26:28.397Z</time></trkpt><trkpt lat="46.4840233" lon="11.82842"><ele>2067.5</ele><time>2026-05-02T12:26:29.396Z</time></trkpt><trkpt lat="46.4840433" lon="11.8285933"><ele>2066.0</ele><time>2026-05-02T12:26:30.397Z</time></trkpt><trkpt lat="46.48405" lon="11.8287717"><ele>2064.5</ele><time>2026-05-02T12:26:31.397Z</time></trkpt><trkpt lat="46.4840467" lon="11.8289383"><ele>2063.0</ele><time>2026-05-02T12:26:32.397Z</time></trkpt><trkpt lat="46.4840367" lon="11.8291033"><ele>2063.0</ele><time>2026-05-02T12:26:33.397Z</time></trkpt><trkpt lat="46.484015" lon="11.8292633"><ele>2063.0</ele><time>2026-05-02T12:26:34.396Z</time></trkpt><trkpt lat="46.4839967" lon="11.8294033"><ele>2063.0</ele><time>2026-05-02T12:26:35.396Z</time></trkpt><trkpt lat="46.4839667" lon="11.829555"><ele>2063.0</ele><time>2026-05-02T12:26:36.397Z</time></trkpt><trkpt lat="46.4839167" lon="11.82969"><ele>2063.0</ele><time>2026-05-02T12:26:37.397Z</time></trkpt><trkpt lat="46.4838583" lon="11.8298017"><ele>2062.0</ele><time>2026-05-02T12:26:38.397Z</time></trkpt><trkpt lat="46.4837983" lon="11.8298967"><ele>2061.0</ele><time>2026-05-02T12:26:39.397Z</time></trkpt><trkpt lat="46.4837367" lon="11.8299717"><ele>2060.0</ele><time>2026-05-02T12:26:40.397Z</time></trkpt><trkpt lat="46.48369" lon="11.830045"><ele>2059.0</ele><time>2026-05-02T12:26:41.397Z</time></trkpt><trkpt lat="46.483655" lon="11.83013"><ele>2058.0</ele><time>2026-05-02T12:26:42.396Z</time></trkpt><trkpt lat="46.48367" lon="11.8302633"><ele>2057.0</ele><time>2026-05-02T12:26:44.396Z</time></trkpt><trkpt lat="46.483785" lon="11.8302617"><ele>2055.5</ele><time>2026-05-02T12:26:46.397Z</time></trkpt><trkpt lat="46.4838783" lon="11.8301483"><ele>2054.0</ele><time>2026-05-02T12:26:47.397Z</time></trkpt><trkpt lat="46.4839517" lon="11.829995"><ele>2052.5</ele><time>2026-05-02T12:26:48.396Z</time></trkpt><trkpt lat="46.4840317" lon="11.8298467"><ele>2051.0</ele><time>2026-05-02T12:26:49.397Z</time></trkpt><trkpt lat="46.4841167" lon="11.8297067"><ele>2051.0</ele><time>2026-05-02T12:26:50.397Z</time></trkpt><trkpt lat="46.4842017" lon="11.82958"><ele>2051.0</ele><time>2026-05-02T12:26:51.397Z</time></trkpt><trkpt lat="46.4842917" lon="11.82946"><ele>2051.0</ele><time>2026-05-02T12:26:52.397Z</time></trkpt><trkpt lat="46.4843683" lon="11.8293283"><ele>2051.0</ele><time>2026-05-02T12:26:53.397Z</time></trkpt><trkpt lat="46.484425" lon="11.8291783"><ele>2053.4</ele><time>2026-05-02T12:26:54.396Z</time></trkpt><trkpt lat="46.4844633" lon="11.8290267"><ele>2055.8</ele><time>2026-05-02T12:26:55.396Z</time></trkpt><trkpt lat="46.48449" lon="11.8289083"><ele>2058.2000000000003</ele><time>2026-05-02T12:26:56.396Z</time></trkpt><trkpt lat="46.4845233" lon="11.8288167"><ele>2060.6</ele><time>2026-05-02T12:26:57.397Z</time></trkpt><trkpt lat="46.484605" lon="11.8287567"><ele>2063.0</ele><time>2026-05-02T12:26:59.397Z</time></trkpt><trkpt lat="46.4846783" lon="11.8288517"><ele>2063.0</ele><time>2026-05-02T12:27:01.397Z</time></trkpt><trkpt lat="46.484655" lon="11.8290467"><ele>2063.0</ele><time>2026-05-02T12:27:03.397Z</time></trkpt><trkpt lat="46.484615" lon="11.829165"><ele>2063.0</ele><time>2026-05-02T12:27:04.397Z</time></trkpt><trkpt lat="46.4845883" lon="11.8292783"><ele>2063.0</ele><time>2026-05-02T12:27:05.397Z</time></trkpt><trkpt lat="46.4846217" lon="11.8294183"><ele>2063.0</ele><time>2026-05-02T12:27:07.397Z</time></trkpt><trkpt lat="46.4846917" lon="11.8293967"><ele>2058.2000000000003</ele><time>2026-05-02T12:27:08.397Z</time></trkpt><trkpt lat="46.4847533" lon="11.8293217"><ele>2053.4</ele><time>2026-05-02T12:27:09.397Z</time></trkpt><trkpt lat="46.4848133" lon="11.8291967"><ele>2048.6000000000004</ele><time>2026-05-02T12:27:10.396Z</time></trkpt><trkpt lat="46.4848617" lon="11.8290433"><ele>2043.8000000000002</ele><time>2026-05-02T12:27:11.397Z</time></trkpt><trkpt lat="46.48489" lon="11.8289033"><ele>2039.0</ele><time>2026-05-02T12:27:12.397Z</time></trkpt><trkpt lat="46.4848933" lon="11.8287583"><ele>2039.0</ele><time>2026-05-02T12:27:13.397Z</time></trkpt><trkpt lat="46.4848717" lon="11.8286"><ele>2039.0</ele><time>2026-05-02T12:27:14.396Z</time></trkpt><trkpt lat="46.4848367" lon="11.8284467"><ele>2039.0</ele><time>2026-05-02T12:27:15.396Z</time></trkpt><trkpt lat="46.48481" lon="11.8283"><ele>2039.0</ele><time>2026-05-02T12:27:16.397Z</time></trkpt><trkpt lat="46.4848067" lon="11.8281783"><ele>2039.0</ele><time>2026-05-02T12:27:17.396Z</time></trkpt><trkpt lat="46.4848317" lon="11.8280767"><ele>2039.3333333333333</ele><time>2026-05-02T12:27:18.397Z</time></trkpt><trkpt lat="46.484875" lon="11.8280017"><ele>2039.6666666666665</ele><time>2026-05-02T12:27:19.397Z</time></trkpt><trkpt lat="46.4849533" lon="11.8279717"><ele>2040.0</ele><time>2026-05-02T12:27:20.396Z</time></trkpt><trkpt lat="46.48504" lon="11.8279933"><ele>2040.3333333333335</ele><time>2026-05-02T12:27:21.396Z</time></trkpt><trkpt lat="46.4851117" lon="11.828055"><ele>2040.6666666666667</ele><time>2026-05-02T12:27:22.397Z</time></trkpt><trkpt lat="46.4851633" lon="11.8281633"><ele>2041.0</ele><time>2026-05-02T12:27:23.397Z</time></trkpt><trkpt lat="46.48518" lon="11.828335"><ele>2040.3333333333335</ele><time>2026-05-02T12:27:24.397Z</time></trkpt><trkpt lat="46.4851983" lon="11.82855"><ele>2039.6666666666665</ele><time>2026-05-02T12:27:25.397Z</time></trkpt><trkpt lat="46.4852183" lon="11.8287867"><ele>2039.0</ele><time>2026-05-02T12:27:26.397Z</time></trkpt><trkpt lat="46.485235" lon="11.8290233"><ele>2039.0</ele><time>2026-05-02T12:27:27.397Z</time></trkpt><trkpt lat="46.4852517" lon="11.8292383"><ele>2039.0</ele><time>2026-05-02T12:27:28.396Z</time></trkpt><trkpt lat="46.485255" lon="11.8294167"><ele>2039.0</ele><time>2026-05-02T12:27:29.397Z</time></trkpt><trkpt lat="46.485245" lon="11.82958"><ele>2039.0</ele><time>2026-05-02T12:27:30.397Z</time></trkpt><trkpt lat="46.4852033" lon="11.8297267"><ele>2036.25</ele><time>2026-05-02T12:27:31.397Z</time></trkpt><trkpt lat="46.485135" lon="11.8298767"><ele>2033.5</ele><time>2026-05-02T12:27:32.397Z</time></trkpt><trkpt lat="46.4850467" lon="11.8300183"><ele>2030.75</ele><time>2026-05-02T12:27:33.396Z</time></trkpt><trkpt lat="46.48495" lon="11.83015"><ele>2028.0</ele><time>2026-05-02T12:27:34.397Z</time></trkpt><trkpt lat="46.4848517" lon="11.8302817"><ele>2029.5</ele><time>2026-05-02T12:27:35.396Z</time></trkpt><trkpt lat="46.4847567" lon="11.830415"><ele>2031.0</ele><time>2026-05-02T12:27:36.397Z</time></trkpt><trkpt lat="46.4846667" lon="11.8305483"><ele>2032.5</ele><time>2026-05-02T12:27:37.397Z</time></trkpt><trkpt lat="46.484585" lon="11.830705"><ele>2034.0</ele><time>2026-05-02T12:27:38.397Z</time></trkpt><trkpt lat="46.4845133" lon="11.8308683"><ele>2030.5</ele><time>2026-05-02T12:27:39.397Z</time></trkpt><trkpt lat="46.48446" lon="11.83104"><ele>2027.0</ele><time>2026-05-02T12:27:40.397Z</time></trkpt><trkpt lat="46.48441" lon="11.8312267"><ele>2023.5</ele><time>2026-05-02T12:27:41.397Z</time></trkpt><trkpt lat="46.4843617" lon="11.8314117"><ele>2020.0</ele><time>2026-05-02T12:27:42.397Z</time></trkpt><trkpt lat="46.484315" lon="11.8315917"><ele>2020.0</ele><time>2026-05-02T12:27:43.396Z</time></trkpt><trkpt lat="46.4842667" lon="11.831755"><ele>2020.0</ele><time>2026-05-02T12:27:44.397Z</time></trkpt><trkpt lat="46.4842267" lon="11.8319033"><ele>2020.0</ele><time>2026-05-02T12:27:45.397Z</time></trkpt><trkpt lat="46.4841933" lon="11.8320233"><ele>2020.0</ele><time>2026-05-02T12:27:46.396Z</time></trkpt><trkpt lat="46.4841717" lon="11.8321317"><ele>2020.0</ele><time>2026-05-02T12:27:47.397Z</time></trkpt><trkpt lat="46.48417" lon="11.8322233"><ele>2018.6</ele><time>2026-05-02T12:27:48.397Z</time></trkpt><trkpt lat="46.484245" lon="11.8323333"><ele>2017.2</ele><time>2026-05-02T12:27:50.397Z</time></trkpt><trkpt lat="46.484325" lon="11.8322867"><ele>2015.8000000000002</ele><time>2026-05-02T12:27:51.397Z</time></trkpt><trkpt lat="46.4844033" lon="11.8321783"><ele>2014.4</ele><time>2026-05-02T12:27:52.397Z</time></trkpt><trkpt lat="46.48449" lon="11.8320367"><ele>2013.0</ele><time>2026-05-02T12:27:53.397Z</time></trkpt><trkpt lat="46.484585" lon="11.8318917"><ele>2010.75</ele><time>2026-05-02T12:27:54.397Z</time></trkpt><trkpt lat="46.4846883" lon="11.83175"><ele>2008.5</ele><time>2026-05-02T12:27:55.397Z</time></trkpt><trkpt lat="46.4847733" lon="11.8316"><ele>2006.25</ele><time>2026-05-02T12:27:56.396Z</time></trkpt><trkpt lat="46.484845" lon="11.8314517"><ele>2004.0</ele><time>2026-05-02T12:27:57.397Z</time></trkpt><trkpt lat="46.4848933" lon="11.831315"><ele>2004.0</ele><time>2026-05-02T12:27:58.397Z</time></trkpt><trkpt lat="46.4849383" lon="11.831225"><ele>2004.0</ele><time>2026-05-02T12:27:59.397Z</time></trkpt><trkpt lat="46.4850417" lon="11.83116"><ele>2004.0</ele><time>2026-05-02T12:28:01.396Z</time></trkpt><trkpt lat="46.48513" lon="11.8312733"><ele>2004.0</ele><time>2026-05-02T12:28:03.396Z</time></trkpt><trkpt lat="46.4851133" lon="11.83141"><ele>2004.0</ele><time>2026-05-02T12:28:04.396Z</time></trkpt><trkpt lat="46.4850817" lon="11.8315733"><ele>2004.0</ele><time>2026-05-02T12:28:05.397Z</time></trkpt><trkpt lat="46.4850367" lon="11.831775"><ele>2004.0</ele><time>2026-05-02T12:28:06.396Z</time></trkpt><trkpt lat="46.484995" lon="11.8319833"><ele>2004.0</ele><time>2026-05-02T12:28:07.397Z</time></trkpt><trkpt lat="46.4849433" lon="11.8321933"><ele>2004.0</ele><time>2026-05-02T12:28:08.397Z</time></trkpt><trkpt lat="46.48489" lon="11.8323933"><ele>2001.75</ele><time>2026-05-02T12:28:09.397Z</time></trkpt><trkpt lat="46.4848317" lon="11.8325817"><ele>1999.5</ele><time>2026-05-02T12:28:10.397Z</time></trkpt><trkpt lat="46.4847683" lon="11.83277"><ele>1997.25</ele><time>2026-05-02T12:28:11.397Z</time></trkpt><trkpt lat="46.4847017" lon="11.83296"><ele>1995.0</ele><time>2026-05-02T12:28:12.396Z</time></trkpt><trkpt lat="46.4846283" lon="11.833155"><ele>1994.75</ele><time>2026-05-02T12:28:13.397Z</time></trkpt><trkpt lat="46.48456" lon="11.8333433"><ele>1994.5</ele><time>2026-05-02T12:28:14.397Z</time></trkpt><trkpt lat="46.4844967" lon="11.8335283"><ele>1994.25</ele><time>2026-05-02T12:28:15.397Z</time></trkpt><trkpt lat="46.484435" lon="11.83371"><ele>1994.0</ele><time>2026-05-02T12:28:16.396Z</time></trkpt><trkpt lat="46.48437" lon="11.8338883"><ele>1994.0</ele><time>2026-05-02T12:28:17.397Z</time></trkpt><trkpt lat="46.48432" lon="11.8340733"><ele>1994.0</ele><time>2026-05-02T12:28:18.397Z</time></trkpt><trkpt lat="46.4842933" lon="11.8342733"><ele>1994.0</ele><time>2026-05-02T12:28:19.396Z</time></trkpt><trkpt lat="46.48429" lon="11.8344817"><ele>1994.0</ele><time>2026-05-02T12:28:20.397Z</time></trkpt><trkpt lat="46.4842967" lon="11.83471"><ele>1991.6666666666665</ele><time>2026-05-02T12:28:21.397Z</time></trkpt><trkpt lat="46.4843217" lon="11.8349383"><ele>1989.3333333333335</ele><time>2026-05-02T12:28:22.397Z</time></trkpt><trkpt lat="46.48435" lon="11.8351883"><ele>1987.0</ele><time>2026-05-02T12:28:23.397Z</time></trkpt><trkpt lat="46.484375" lon="11.835435"><ele>1986.0</ele><time>2026-05-02T12:28:24.397Z</time></trkpt><trkpt lat="46.4843817" lon="11.8356767"><ele>1985.0</ele><time>2026-05-02T12:28:25.396Z</time></trkpt><trkpt lat="46.4843867" lon="11.8359"><ele>1984.0</ele><time>2026-05-02T12:28:26.397Z</time></trkpt><trkpt lat="46.4844" lon="11.8361133"><ele>1983.3333333333335</ele><time>2026-05-02T12:28:27.397Z</time></trkpt><trkpt lat="46.4844033" lon="11.8363333"><ele>1982.6666666666665</ele><time>2026-05-02T12:28:28.397Z</time></trkpt><trkpt lat="46.4844033" lon="11.836565"><ele>1982.0</ele><time>2026-05-02T12:28:29.397Z</time></trkpt><trkpt lat="46.4844067" lon="11.8367967"><ele>1981.0</ele><time>2026-05-02T12:28:30.397Z</time></trkpt><trkpt lat="46.4843933" lon="11.8370233"><ele>1980.0</ele><time>2026-05-02T12:28:31.397Z</time></trkpt><trkpt lat="46.484365" lon="11.8372483"><ele>1979.0</ele><time>2026-05-02T12:28:32.396Z</time></trkpt><trkpt lat="46.484345" lon="11.83747"><ele>1977.75</ele><time>2026-05-02T12:28:33.397Z</time></trkpt><trkpt lat="46.4843167" lon="11.8376917"><ele>1976.5</ele><time>2026-05-02T12:28:34.397Z</time></trkpt><trkpt lat="46.4842967" lon="11.837905"><ele>1975.25</ele><time>2026-05-02T12:28:35.396Z</time></trkpt><trkpt lat="46.484295" lon="11.8381133"><ele>1974.0</ele><time>2026-05-02T12:28:36.397Z</time></trkpt><trkpt lat="46.48432" lon="11.8383283"><ele>1974.6666666666665</ele><time>2026-05-02T12:28:37.397Z</time></trkpt><trkpt lat="46.4843617" lon="11.83855"><ele>1975.3333333333333</ele><time>2026-05-02T12:28:38.397Z</time></trkpt><trkpt lat="46.4844083" lon="11.8387683"><ele>1976.0</ele><time>2026-05-02T12:28:39.397Z</time></trkpt><trkpt lat="46.484465" lon="11.838995"><ele>1976.0</ele><time>2026-05-02T12:28:40.396Z</time></trkpt><trkpt lat="46.4845133" lon="11.839225"><ele>1976.0</ele><time>2026-05-02T12:28:41.397Z</time></trkpt><trkpt lat="46.4845583" lon="11.8394483"><ele>1976.0</ele><time>2026-05-02T12:28:42.396Z</time></trkpt><trkpt lat="46.4846067" lon="11.8396617"><ele>1967.5</ele><time>2026-05-02T12:28:43.396Z</time></trkpt><trkpt lat="46.4846517" lon="11.839885"><ele>1959.0</ele><time>2026-05-02T12:28:44.396Z</time></trkpt><trkpt lat="46.4846967" lon="11.8400967"><ele>1950.5</ele><time>2026-05-02T12:28:45.397Z</time></trkpt><trkpt lat="46.484735" lon="11.8402833"><ele>1942.0</ele><time>2026-05-02T12:28:46.397Z</time></trkpt><trkpt lat="46.4847667" lon="11.8404483"><ele>1942.0</ele><time>2026-05-02T12:28:47.397Z</time></trkpt><trkpt lat="46.4847867" lon="11.8405833"><ele>1941.9999999999998</ele><time>2026-05-02T12:28:48.397Z</time></trkpt><trkpt lat="46.4847933" lon="11.8407017"><ele>1941.9999999999998</ele><time>2026-05-02T12:28:49.397Z</time></trkpt><trkpt lat="46.4847733" lon="11.8408167"><ele>1942.0</ele><time>2026-05-02T12:28:50.397Z</time></trkpt><trkpt lat="46.4847267" lon="11.840935"><ele>1942.0</ele><time>2026-05-02T12:28:51.397Z</time></trkpt><trkpt lat="46.48466" lon="11.8410433"><ele>1941.3999999999999</ele><time>2026-05-02T12:28:52.397Z</time></trkpt><trkpt lat="46.4845917" lon="11.8411367"><ele>1940.7999999999997</ele><time>2026-05-02T12:28:53.397Z</time></trkpt><trkpt lat="46.4845467" lon="11.8412283"><ele>1940.2</ele><time>2026-05-02T12:28:54.397Z</time></trkpt><trkpt lat="46.4845267" lon="11.8413183"><ele>1939.6</ele><time>2026-05-02T12:28:55.397Z</time></trkpt><trkpt lat="46.4846017" lon="11.84144"><ele>1939.0</ele><time>2026-05-02T12:28:57.397Z</time></trkpt><trkpt lat="46.4847417" lon="11.8413667"><ele>1939.0</ele><time>2026-05-02T12:28:59.397Z</time></trkpt><trkpt lat="46.4848183" lon="11.8412367"><ele>1939.0</ele><time>2026-05-02T12:29:00.396Z</time></trkpt><trkpt lat="46.484895" lon="11.84107"><ele>1939.0</ele><time>2026-05-02T12:29:01.397Z</time></trkpt><trkpt lat="46.4849667" lon="11.840875"><ele>1939.0</ele><time>2026-05-02T12:29:02.397Z</time></trkpt><trkpt lat="46.4850183" lon="11.8406717"><ele>1939.75</ele><time>2026-05-02T12:29:03.397Z</time></trkpt><trkpt lat="46.4850383" lon="11.8404633"><ele>1940.5</ele><time>2026-05-02T12:29:04.397Z</time></trkpt><trkpt lat="46.4850433" lon="11.8402567"><ele>1941.25</ele><time>2026-05-02T12:29:05.397Z</time></trkpt><trkpt lat="46.485045" lon="11.84007"><ele>1942.0</ele><time>2026-05-02T12:29:06.397Z</time></trkpt><trkpt lat="46.485075" lon="11.8399"><ele>1942.0</ele><time>2026-05-02T12:29:07.397Z</time></trkpt><trkpt lat="46.485125" lon="11.83974"><ele>1942.0</ele><time>2026-05-02T12:29:08.397Z</time></trkpt><trkpt lat="46.485195" lon="11.8395983"><ele>1942.0</ele><time>2026-05-02T12:29:09.397Z</time></trkpt><trkpt lat="46.4852883" lon="11.839465"><ele>1942.0</ele><time>2026-05-02T12:29:10.397Z</time></trkpt><trkpt lat="46.4853817" lon="11.839325"><ele>1938.3999999999999</ele><time>2026-05-02T12:29:11.397Z</time></trkpt><trkpt lat="46.485455" lon="11.839175"><ele>1934.7999999999997</ele><time>2026-05-02T12:29:12.397Z</time></trkpt><trkpt lat="46.4855067" lon="11.8390283"><ele>1931.2</ele><time>2026-05-02T12:29:13.397Z</time></trkpt><trkpt lat="46.4855583" lon="11.8389233"><ele>1927.6</ele><time>2026-05-02T12:29:14.397Z</time></trkpt><trkpt lat="46.4856133" lon="11.8388683"><ele>1924.0</ele><time>2026-05-02T12:29:15.397Z</time></trkpt><trkpt lat="46.4857283" lon="11.838915"><ele>1924.0</ele><time>2026-05-02T12:29:17.397Z</time></trkpt><trkpt lat="46.4857583" lon="11.83901"><ele>1924.0</ele><time>2026-05-02T12:29:18.396Z</time></trkpt><trkpt lat="46.4857717" lon="11.839145"><ele>1924.0</ele><time>2026-05-02T12:29:19.396Z</time></trkpt><trkpt lat="46.4857533" lon="11.8393433"><ele>1924.0</ele><time>2026-05-02T12:29:20.397Z</time></trkpt><trkpt lat="46.4857217" lon="11.8395767"><ele>1922.75</ele><time>2026-05-02T12:29:21.397Z</time></trkpt><trkpt lat="46.4856733" lon="11.839785"><ele>1921.5</ele><time>2026-05-02T12:29:22.397Z</time></trkpt><trkpt lat="46.4856133" lon="11.8399817"><ele>1920.25</ele><time>2026-05-02T12:29:23.397Z</time></trkpt><trkpt lat="46.48555" lon="11.840165"><ele>1919.0</ele><time>2026-05-02T12:29:24.397Z</time></trkpt><trkpt lat="46.4855033" lon="11.8403483"><ele>1917.75</ele><time>2026-05-02T12:29:25.397Z</time></trkpt><trkpt lat="46.4854817" lon="11.8405367"><ele>1916.5</ele><time>2026-05-02T12:29:26.397Z</time></trkpt><trkpt lat="46.4854783" lon="11.84071"><ele>1915.25</ele><time>2026-05-02T12:29:27.397Z</time></trkpt><trkpt lat="46.48549" lon="11.84087"><ele>1914.0</ele><time>2026-05-02T12:29:28.397Z</time></trkpt><trkpt lat="46.4855133" lon="11.84101"><ele>1914.0</ele><time>2026-05-02T12:29:29.396Z</time></trkpt><trkpt lat="46.4855717" lon="11.8411433"><ele>1914.0</ele><time>2026-05-02T12:29:30.397Z</time></trkpt><trkpt lat="46.4856583" lon="11.8412833"><ele>1914.0</ele><time>2026-05-02T12:29:31.396Z</time></trkpt><trkpt lat="46.4857483" lon="11.8414267"><ele>1914.0</ele><time>2026-05-02T12:29:32.397Z</time></trkpt><trkpt lat="46.485825" lon="11.8415917"><ele>1914.0</ele><time>2026-05-02T12:29:33.397Z</time></trkpt><trkpt lat="46.4858783" lon="11.841795"><ele>1914.0</ele><time>2026-05-02T12:29:34.396Z</time></trkpt><trkpt lat="46.4859267" lon="11.8420083"><ele>1914.0</ele><time>2026-05-02T12:29:35.397Z</time></trkpt><trkpt lat="46.485965" lon="11.8422067"><ele>1914.0</ele><time>2026-05-02T12:29:36.397Z</time></trkpt><trkpt lat="46.4860067" lon="11.8423933"><ele>1913.6</ele><time>2026-05-02T12:29:37.397Z</time></trkpt><trkpt lat="46.4860383" lon="11.8425783"><ele>1913.2</ele><time>2026-05-02T12:29:38.397Z</time></trkpt><trkpt lat="46.4860683" lon="11.8427483"><ele>1912.7999999999997</ele><time>2026-05-02T12:29:39.397Z</time></trkpt><trkpt lat="46.48609" lon="11.842885"><ele>1912.3999999999999</ele><time>2026-05-02T12:29:40.397Z</time></trkpt><trkpt lat="46.486115" lon="11.84298"><ele>1912.0</ele><time>2026-05-02T12:29:41.397Z</time></trkpt><trkpt lat="46.4861683" lon="11.8430483"><ele>1908.0</ele><time>2026-05-02T12:29:42.397Z</time></trkpt><trkpt lat="46.4862883" lon="11.8430617"><ele>1903.9999999999998</ele><time>2026-05-02T12:29:44.396Z</time></trkpt><trkpt lat="46.4863367" lon="11.8429867"><ele>1899.9999999999998</ele><time>2026-05-02T12:29:45.396Z</time></trkpt><trkpt lat="46.4863633" lon="11.8428717"><ele>1896.0</ele><time>2026-05-02T12:29:46.397Z</time></trkpt><trkpt lat="46.4863617" lon="11.8427033"><ele>1892.0</ele><time>2026-05-02T12:29:47.397Z</time></trkpt><trkpt lat="46.4863567" lon="11.8425133"><ele>1891.75</ele><time>2026-05-02T12:29:48.397Z</time></trkpt><trkpt lat="46.48637" lon="11.84232"><ele>1891.5</ele><time>2026-05-02T12:29:49.397Z</time></trkpt><trkpt lat="46.4863983" lon="11.8421333"><ele>1891.25</ele><time>2026-05-02T12:29:50.396Z</time></trkpt><trkpt lat="46.486435" lon="11.8419633"><ele>1891.0</ele><time>2026-05-02T12:29:51.397Z</time></trkpt><trkpt lat="46.48647" lon="11.841825"><ele>1891.0</ele><time>2026-05-02T12:29:52.396Z</time></trkpt><trkpt lat="46.4865017" lon="11.8417117"><ele>1891.0</ele><time>2026-05-02T12:29:53.396Z</time></trkpt><trkpt lat="46.486575" lon="11.8415967"><ele>1891.0</ele><time>2026-05-02T12:29:55.397Z</time></trkpt><trkpt lat="46.48668" lon="11.8416667"><ele>1891.0</ele><time>2026-05-02T12:29:57.397Z</time></trkpt><trkpt lat="46.486715" lon="11.8417917"><ele>1891.0</ele><time>2026-05-02T12:29:58.397Z</time></trkpt><trkpt lat="46.4867417" lon="11.8419683"><ele>1891.0</ele><time>2026-05-02T12:29:59.397Z</time></trkpt><trkpt lat="46.4867717" lon="11.8421783"><ele>1891.0</ele><time>2026-05-02T12:30:00.397Z</time></trkpt><trkpt lat="46.4868067" lon="11.8423883"><ele>1891.0</ele><time>2026-05-02T12:30:01.397Z</time></trkpt><trkpt lat="46.4868383" lon="11.8425783"><ele>1891.0</ele><time>2026-05-02T12:30:02.397Z</time></trkpt><trkpt lat="46.4868683" lon="11.8427617"><ele>1891.1999999999998</ele><time>2026-05-02T12:30:03.397Z</time></trkpt><trkpt lat="46.486895" lon="11.8429333"><ele>1891.3999999999999</ele><time>2026-05-02T12:30:04.396Z</time></trkpt><trkpt lat="46.4869083" lon="11.8430983"><ele>1891.6</ele><time>2026-05-02T12:30:05.397Z</time></trkpt><trkpt lat="46.4869083" lon="11.8432467"><ele>1891.8</ele><time>2026-05-02T12:30:06.396Z</time></trkpt><trkpt lat="46.4868967" lon="11.8433817"><ele>1892.0</ele><time>2026-05-02T12:30:07.397Z</time></trkpt><trkpt lat="46.4868767" lon="11.8434883"><ele>1891.4999999999998</ele><time>2026-05-02T12:30:08.397Z</time></trkpt><trkpt lat="46.48687" lon="11.8435817"><ele>1891.0</ele><time>2026-05-02T12:30:09.397Z</time></trkpt><trkpt lat="46.4869333" lon="11.843725"><ele>1890.5</ele><time>2026-05-02T12:30:11.397Z</time></trkpt><trkpt lat="46.4869967" lon="11.84372"><ele>1890.0</ele><time>2026-05-02T12:30:12.397Z</time></trkpt><trkpt lat="46.4870567" lon="11.8436717"><ele>1889.4999999999998</ele><time>2026-05-02T12:30:13.396Z</time></trkpt><trkpt lat="46.4870917" lon="11.8435633"><ele>1889.0</ele><time>2026-05-02T12:30:14.397Z</time></trkpt><trkpt lat="46.4871167" lon="11.8434017"><ele>1885.4</ele><time>2026-05-02T12:30:15.397Z</time></trkpt><trkpt lat="46.487125" lon="11.8432183"><ele>1881.8000000000002</ele><time>2026-05-02T12:30:16.397Z</time></trkpt><trkpt lat="46.4871367" lon="11.8430683"><ele>1878.1999999999998</ele><time>2026-05-02T12:30:17.396Z</time></trkpt><trkpt lat="46.4871583" lon="11.842965"><ele>1874.6</ele><time>2026-05-02T12:30:18.397Z</time></trkpt><trkpt lat="46.487245" lon="11.8428783"><ele>1871.0</ele><time>2026-05-02T12:30:20.397Z</time></trkpt><trkpt lat="46.487335" lon="11.8429617"><ele>1871.0</ele><time>2026-05-02T12:30:22.397Z</time></trkpt><trkpt lat="46.4873567" lon="11.843095"><ele>1871.0</ele><time>2026-05-02T12:30:23.397Z</time></trkpt><trkpt lat="46.4873583" lon="11.8432867"><ele>1871.0</ele><time>2026-05-02T12:30:24.397Z</time></trkpt><trkpt lat="46.48735" lon="11.843505"><ele>1871.0</ele><time>2026-05-02T12:30:25.397Z</time></trkpt><trkpt lat="46.4873433" lon="11.8437033"><ele>1870.1999999999998</ele><time>2026-05-02T12:30:26.397Z</time></trkpt><trkpt lat="46.48734" lon="11.84388"><ele>1869.3999999999999</ele><time>2026-05-02T12:30:27.397Z</time></trkpt><trkpt lat="46.4873383" lon="11.8440083"><ele>1868.6</ele><time>2026-05-02T12:30:28.397Z</time></trkpt><trkpt lat="46.4873417" lon="11.8441033"><ele>1867.8</ele><time>2026-05-02T12:30:29.396Z</time></trkpt><trkpt lat="46.4874017" lon="11.8442033"><ele>1867.0</ele><time>2026-05-02T12:30:31.396Z</time></trkpt><trkpt lat="46.487505" lon="11.8441267"><ele>1867.0000000000002</ele><time>2026-05-02T12:30:33.397Z</time></trkpt><trkpt lat="46.48753" lon="11.844015"><ele>1867.0</ele><time>2026-05-02T12:30:34.397Z</time></trkpt><trkpt lat="46.4875217" lon="11.84389"><ele>1867.0</ele><time>2026-05-02T12:30:35.397Z</time></trkpt><trkpt lat="46.4875217" lon="11.8437783"><ele>1867.0</ele><time>2026-05-02T12:30:36.397Z</time></trkpt><trkpt lat="46.4875417" lon="11.84369"><ele>1867.0000000000002</ele><time>2026-05-02T12:30:37.396Z</time></trkpt><trkpt lat="46.48763" lon="11.843635"><ele>1867.0</ele><time>2026-05-02T12:30:39.396Z</time></trkpt><trkpt lat="46.4877067" lon="11.84379"><ele>1867.0</ele><time>2026-05-02T12:30:41.397Z</time></trkpt><trkpt lat="46.4877067" lon="11.8439517"><ele>1867.0</ele><time>2026-05-02T12:30:42.397Z</time></trkpt><trkpt lat="46.4877033" lon="11.844165"><ele>1867.0</ele><time>2026-05-02T12:30:43.396Z</time></trkpt><trkpt lat="46.4877133" lon="11.8443883"><ele>1867.0</ele><time>2026-05-02T12:30:44.397Z</time></trkpt><trkpt lat="46.4877417" lon="11.8446167"><ele>1866.75</ele><time>2026-05-02T12:30:45.397Z</time></trkpt><trkpt lat="46.4877533" lon="11.844835"><ele>1866.5</ele><time>2026-05-02T12:30:46.396Z</time></trkpt><trkpt lat="46.4877333" lon="11.84503"><ele>1866.25</ele><time>2026-05-02T12:30:47.397Z</time></trkpt><trkpt lat="46.487685" lon="11.8452033"><ele>1866.0</ele><time>2026-05-02T12:30:48.397Z</time></trkpt><trkpt lat="46.4876467" lon="11.8453333"><ele>1864.8</ele><time>2026-05-02T12:30:49.397Z</time></trkpt><trkpt lat="46.48763" lon="11.84544"><ele>1863.6</ele><time>2026-05-02T12:30:50.397Z</time></trkpt><trkpt lat="46.4876233" lon="11.8455417"><ele>1862.4</ele><time>2026-05-02T12:30:51.397Z</time></trkpt><trkpt lat="46.4876333" lon="11.8456367"><ele>1861.2</ele><time>2026-05-02T12:30:52.397Z</time></trkpt><trkpt lat="46.48776" lon="11.8455967"><ele>1860.0</ele><time>2026-05-02T12:30:54.397Z</time></trkpt><trkpt lat="46.4878467" lon="11.84545"><ele>1856.3333333333335</ele><time>2026-05-02T12:30:55.397Z</time></trkpt><trkpt lat="46.4879317" lon="11.8452667"><ele>1852.6666666666667</ele><time>2026-05-02T12:30:56.397Z</time></trkpt><trkpt lat="46.4880117" lon="11.8450667"><ele>1849.0</ele><time>2026-05-02T12:30:57.397Z</time></trkpt><trkpt lat="46.4880833" lon="11.8448817"><ele>1849.0</ele><time>2026-05-02T12:30:58.397Z</time></trkpt><trkpt lat="46.488155" lon="11.84475"><ele>1849.0</ele><time>2026-05-02T12:30:59.396Z</time></trkpt><trkpt lat="46.488225" lon="11.8446667"><ele>1849.0</ele><time>2026-05-02T12:31:00.397Z</time></trkpt><trkpt lat="46.4883017" lon="11.8446133"><ele>1849.0</ele><time>2026-05-02T12:31:01.397Z</time></trkpt><trkpt lat="46.4883933" lon="11.844615"><ele>1849.0</ele><time>2026-05-02T12:31:02.396Z</time></trkpt><trkpt lat="46.4884783" lon="11.8446517"><ele>1849.0</ele><time>2026-05-02T12:31:03.397Z</time></trkpt><trkpt lat="46.488545" lon="11.84476"><ele>1849.0</ele><time>2026-05-02T12:31:04.397Z</time></trkpt><trkpt lat="46.4885983" lon="11.8449283"><ele>1849.0</ele><time>2026-05-02T12:31:05.397Z</time></trkpt><trkpt lat="46.4886383" lon="11.8451433"><ele>1849.0</ele><time>2026-05-02T12:31:06.396Z</time></trkpt><trkpt lat="46.488665" lon="11.8453833"><ele>1846.6666666666667</ele><time>2026-05-02T12:31:07.397Z</time></trkpt><trkpt lat="46.4886817" lon="11.8456183"><ele>1844.3333333333335</ele><time>2026-05-02T12:31:08.397Z</time></trkpt><trkpt lat="46.48869" lon="11.8458533"><ele>1842.0</ele><time>2026-05-02T12:31:09.396Z</time></trkpt><trkpt lat="46.4886933" lon="11.8460817"><ele>1840.0</ele><time>2026-05-02T12:31:10.396Z</time></trkpt><trkpt lat="46.4886967" lon="11.8462983"><ele>1838.0</ele><time>2026-05-02T12:31:11.397Z</time></trkpt><trkpt lat="46.4886983" lon="11.8464933"><ele>1836.0</ele><time>2026-05-02T12:31:12.396Z</time></trkpt><trkpt lat="46.488705" lon="11.8466617"><ele>1834.0</ele><time>2026-05-02T12:31:13.397Z</time></trkpt><trkpt lat="46.4887183" lon="11.8468067"><ele>1833.0</ele><time>2026-05-02T12:31:14.397Z</time></trkpt><trkpt lat="46.488765" lon="11.8469133"><ele>1832.0</ele><time>2026-05-02T12:31:15.397Z</time></trkpt><trkpt lat="46.488825" lon="11.8469983"><ele>1831.0</ele><time>2026-05-02T12:31:16.397Z</time></trkpt><trkpt lat="46.4889167" lon="11.8470617"><ele>1830.0</ele><time>2026-05-02T12:31:17.396Z</time></trkpt><trkpt lat="46.4890167" lon="11.8471017"><ele>1829.0</ele><time>2026-05-02T12:31:18.397Z</time></trkpt><trkpt lat="46.4890983" lon="11.84715"><ele>1828.9999999999998</ele><time>2026-05-02T12:31:19.397Z</time></trkpt><trkpt lat="46.489155" lon="11.847215"><ele>1829.0</ele><time>2026-05-02T12:31:20.397Z</time></trkpt><trkpt lat="46.4891383" lon="11.84738"><ele>1829.0</ele><time>2026-05-02T12:31:22.396Z</time></trkpt><trkpt lat="46.48908" lon="11.8474583"><ele>1829.0</ele><time>2026-05-02T12:31:23.397Z</time></trkpt><trkpt lat="46.488995" lon="11.8475167"><ele>1828.9999999999998</ele><time>2026-05-02T12:31:24.397Z</time></trkpt><trkpt lat="46.4889233" lon="11.8475917"><ele>1829.0</ele><time>2026-05-02T12:31:25.397Z</time></trkpt><trkpt lat="46.4888967" lon="11.8476917"><ele>1826.8000000000002</ele><time>2026-05-02T12:31:26.397Z</time></trkpt><trkpt lat="46.488905" lon="11.8478"><ele>1824.6000000000001</ele><time>2026-05-02T12:31:27.397Z</time></trkpt><trkpt lat="46.4889767" lon="11.8478683"><ele>1822.4</ele><time>2026-05-02T12:31:28.396Z</time></trkpt><trkpt lat="46.4890733" lon="11.847905"><ele>1820.2</ele><time>2026-05-02T12:31:29.397Z</time></trkpt><trkpt lat="46.489195" lon="11.847935"><ele>1818.0</ele><time>2026-05-02T12:31:30.397Z</time></trkpt><trkpt lat="46.48935" lon="11.8480217"><ele>1818.0</ele><time>2026-05-02T12:31:31.397Z</time></trkpt><trkpt lat="46.4895033" lon="11.8481633"><ele>1818.0</ele><time>2026-05-02T12:31:32.397Z</time></trkpt><trkpt lat="46.48966" lon="11.8483467"><ele>1818.0</ele><time>2026-05-02T12:31:33.397Z</time></trkpt><trkpt lat="46.4897967" lon="11.84854"><ele>1816.6666666666665</ele><time>2026-05-02T12:31:34.397Z</time></trkpt><trkpt lat="46.4899233" lon="11.84876"><ele>1815.3333333333333</ele><time>2026-05-02T12:31:35.397Z</time></trkpt><trkpt lat="46.4900383" lon="11.84899"><ele>1814.0</ele><time>2026-05-02T12:31:36.397Z</time></trkpt><trkpt lat="46.4901283" lon="11.8492217"><ele>1811.6666666666665</ele><time>2026-05-02T12:31:37.397Z</time></trkpt><trkpt lat="46.4901917" lon="11.849465"><ele>1809.3333333333335</ele><time>2026-05-02T12:31:38.397Z</time></trkpt><trkpt lat="46.4902217" lon="11.8497517"><ele>1807.0</ele><time>2026-05-02T12:31:39.397Z</time></trkpt><trkpt lat="46.4902483" lon="11.85007"><ele>1804.0</ele><time>2026-05-02T12:31:40.396Z</time></trkpt><trkpt lat="46.4902733" lon="11.8504183"><ele>1801.0</ele><time>2026-05-02T12:31:41.397Z</time></trkpt><trkpt lat="46.490295" lon="11.8507583"><ele>1798.6666666666667</ele><time>2026-05-02T12:31:42.397Z</time></trkpt><trkpt lat="46.4903367" lon="11.8510783"><ele>1796.3333333333335</ele><time>2026-05-02T12:31:43.397Z</time></trkpt><trkpt lat="46.4903817" lon="11.8513883"><ele>1794.0</ele><time>2026-05-02T12:31:44.397Z</time></trkpt><trkpt lat="46.4904317" lon="11.8516867"><ele>1795.3333333333335</ele><time>2026-05-02T12:31:45.396Z</time></trkpt><trkpt lat="46.4904667" lon="11.8519617"><ele>1796.6666666666667</ele><time>2026-05-02T12:31:46.397Z</time></trkpt><trkpt lat="46.4905" lon="11.852185"><ele>1798.0</ele><time>2026-05-02T12:31:47.397Z</time></trkpt><trkpt lat="46.4905333" lon="11.8523917"><ele>1798.0</ele><time>2026-05-02T12:31:48.397Z</time></trkpt><trkpt lat="46.4905717" lon="11.8525417"><ele>1798.0</ele><time>2026-05-02T12:31:49.397Z</time></trkpt><trkpt lat="46.4906533" lon="11.8527"><ele>1798.0</ele><time>2026-05-02T12:31:50.396Z</time></trkpt><trkpt lat="46.4907717" lon="11.8528583"><ele>1798.0</ele><time>2026-05-02T12:31:51.397Z</time></trkpt><trkpt lat="46.4908833" lon="11.85306"><ele>1794.6666666666667</ele><time>2026-05-02T12:31:52.397Z</time></trkpt><trkpt lat="46.4909583" lon="11.8532683"><ele>1791.3333333333335</ele><time>2026-05-02T12:31:53.397Z</time></trkpt><trkpt lat="46.491025" lon="11.8534967"><ele>1788.0</ele><time>2026-05-02T12:31:54.396Z</time></trkpt><trkpt lat="46.491095" lon="11.853715"><ele>1787.6666666666665</ele><time>2026-05-02T12:31:55.396Z</time></trkpt><trkpt lat="46.491175" lon="11.8539117"><ele>1787.3333333333333</ele><time>2026-05-02T12:31:56.397Z</time></trkpt><trkpt lat="46.4912767" lon="11.8540833"><ele>1787.0</ele><time>2026-05-02T12:31:57.397Z</time></trkpt><trkpt lat="46.491415" lon="11.85424"><ele>1781.6666666666665</ele><time>2026-05-02T12:31:58.397Z</time></trkpt><trkpt lat="46.4915717" lon="11.85439"><ele>1776.3333333333335</ele><time>2026-05-02T12:31:59.397Z</time></trkpt><trkpt lat="46.4917333" lon="11.8545283"><ele>1771.0</ele><time>2026-05-02T12:32:00.397Z</time></trkpt><trkpt lat="46.4918717" lon="11.8546583"><ele>1771.0</ele><time>2026-05-02T12:32:01.396Z</time></trkpt><trkpt lat="46.49199" lon="11.8547917"><ele>1771.0</ele><time>2026-05-02T12:32:02.397Z</time></trkpt><trkpt lat="46.4920767" lon="11.8549167"><ele>1771.0</ele><time>2026-05-02T12:32:03.396Z</time></trkpt><trkpt lat="46.492175" lon="11.8550083"><ele>1771.0</ele><time>2026-05-02T12:32:04.396Z</time></trkpt><trkpt lat="46.49232" lon="11.8550733"><ele>1772.0</ele><time>2026-05-02T12:32:05.397Z</time></trkpt><trkpt lat="46.4925067" lon="11.8551167"><ele>1773.0</ele><time>2026-05-02T12:32:06.397Z</time></trkpt><trkpt lat="46.49268" lon="11.85515"><ele>1774.0</ele><time>2026-05-02T12:32:07.397Z</time></trkpt><trkpt lat="46.4928283" lon="11.8551833"><ele>1773.75</ele><time>2026-05-02T12:32:08.397Z</time></trkpt><trkpt lat="46.4929533" lon="11.8552267"><ele>1773.5</ele><time>2026-05-02T12:32:09.396Z</time></trkpt><trkpt lat="46.493055" lon="11.8553017"><ele>1773.25</ele><time>2026-05-02T12:32:10.396Z</time></trkpt><trkpt lat="46.4931283" lon="11.8554133"><ele>1773.0</ele><time>2026-05-02T12:32:11.396Z</time></trkpt><trkpt lat="46.4931783" lon="11.8555783"><ele>1773.0</ele><time>2026-05-02T12:32:12.397Z</time></trkpt><trkpt lat="46.493195" lon="11.8557783"><ele>1773.0</ele><time>2026-05-02T12:32:13.397Z</time></trkpt><trkpt lat="46.4932133" lon="11.856"><ele>1773.0</ele><time>2026-05-02T12:32:14.396Z</time></trkpt><trkpt lat="46.4932467" lon="11.85621"><ele>1773.0</ele><time>2026-05-02T12:32:15.397Z</time></trkpt><trkpt lat="46.4933017" lon="11.8563833"><ele>1770.2</ele><time>2026-05-02T12:32:16.397Z</time></trkpt><trkpt lat="46.493375" lon="11.8565367"><ele>1767.4</ele><time>2026-05-02T12:32:17.397Z</time></trkpt><trkpt lat="46.4934467" lon="11.856665"><ele>1764.6000000000001</ele><time>2026-05-02T12:32:18.397Z</time></trkpt><trkpt lat="46.4935033" lon="11.8567733"><ele>1761.8000000000002</ele><time>2026-05-02T12:32:19.396Z</time></trkpt><trkpt lat="46.4935383" lon="11.856865"><ele>1759.0</ele><time>2026-05-02T12:32:20.397Z</time></trkpt><trkpt lat="46.4935483" lon="11.8569633"><ele>1757.1666666666667</ele><time>2026-05-02T12:32:21.397Z</time></trkpt><trkpt lat="46.4934883" lon="11.8570683"><ele>1755.3333333333335</ele><time>2026-05-02T12:32:23.397Z</time></trkpt><trkpt lat="46.4934117" lon="11.8569717"><ele>1753.5</ele><time>2026-05-02T12:32:25.397Z</time></trkpt><trkpt lat="46.4933833" lon="11.8568867"><ele>1751.6666666666665</ele><time>2026-05-02T12:32:26.396Z</time></trkpt><trkpt lat="46.4933467" lon="11.8568083"><ele>1749.8333333333333</ele><time>2026-05-02T12:32:27.397Z</time></trkpt><trkpt lat="46.4932283" lon="11.8568417"><ele>1748.0</ele><time>2026-05-02T12:32:29.397Z</time></trkpt><trkpt lat="46.4931967" lon="11.8569217"><ele>1748.0</ele><time>2026-05-02T12:32:30.397Z</time></trkpt><trkpt lat="46.49321" lon="11.8570583"><ele>1748.0000000000002</ele><time>2026-05-02T12:32:31.397Z</time></trkpt><trkpt lat="46.49325" lon="11.8572167"><ele>1748.0000000000002</ele><time>2026-05-02T12:32:32.397Z</time></trkpt><trkpt lat="46.4932883" lon="11.8573767"><ele>1748.0</ele><time>2026-05-02T12:32:33.396Z</time></trkpt><trkpt lat="46.49332" lon="11.857515"><ele>1748.0</ele><time>2026-05-02T12:32:34.397Z</time></trkpt><trkpt lat="46.4933383" lon="11.857625"><ele>1747.9999999999998</ele><time>2026-05-02T12:32:35.397Z</time></trkpt><trkpt lat="46.49331" lon="11.8577533"><ele>1748.0</ele><time>2026-05-02T12:32:37.397Z</time></trkpt><trkpt lat="46.49322" lon="11.8576933"><ele>1748.0</ele><time>2026-05-02T12:32:39.397Z</time></trkpt><trkpt lat="46.4931883" lon="11.8575983"><ele>1748.0</ele><time>2026-05-02T12:32:40.397Z</time></trkpt><trkpt lat="46.4931717" lon="11.8574933"><ele>1747.9999999999998</ele><time>2026-05-02T12:32:41.397Z</time></trkpt><trkpt lat="46.4931467" lon="11.8574033"><ele>1748.0</ele><time>2026-05-02T12:32:42.397Z</time></trkpt><trkpt lat="46.49303" lon="11.857385"><ele>1748.0</ele><time>2026-05-02T12:32:44.397Z</time></trkpt><trkpt lat="46.4929833" lon="11.857465"><ele>1748.0000000000002</ele><time>2026-05-02T12:32:45.397Z</time></trkpt><trkpt lat="46.49297" lon="11.857625"><ele>1748.0000000000002</ele><time>2026-05-02T12:32:46.397Z</time></trkpt><trkpt lat="46.4929783" lon="11.8578233"><ele>1748.0</ele><time>2026-05-02T12:32:47.396Z</time></trkpt><trkpt lat="46.49299" lon="11.857995"><ele>1748.0</ele><time>2026-05-02T12:32:48.397Z</time></trkpt><trkpt lat="46.493015" lon="11.8581217"><ele>1746.3333333333333</ele><time>2026-05-02T12:32:49.397Z</time></trkpt><trkpt lat="46.4930517" lon="11.8582117"><ele>1744.6666666666665</ele><time>2026-05-02T12:32:50.397Z</time></trkpt><trkpt lat="46.493135" lon="11.85826"><ele>1743.0</ele><time>2026-05-02T12:32:51.397Z</time></trkpt><trkpt lat="46.4932183" lon="11.8582883"><ele>1741.3333333333335</ele><time>2026-05-02T12:32:52.397Z</time></trkpt><trkpt lat="46.4932917" lon="11.858345"><ele>1739.6666666666667</ele><time>2026-05-02T12:32:53.397Z</time></trkpt><trkpt lat="46.49333" lon="11.8584583"><ele>1738.0</ele><time>2026-05-02T12:32:54.396Z</time></trkpt><trkpt lat="46.4933267" lon="11.858625"><ele>1735.5</ele><time>2026-05-02T12:32:55.396Z</time></trkpt><trkpt lat="46.493295" lon="11.85883"><ele>1733.0</ele><time>2026-05-02T12:32:56.397Z</time></trkpt><trkpt lat="46.4932567" lon="11.8590317"><ele>1730.5</ele><time>2026-05-02T12:32:57.397Z</time></trkpt><trkpt lat="46.493235" lon="11.8592033"><ele>1728.0</ele><time>2026-05-02T12:32:58.397Z</time></trkpt><trkpt lat="46.493225" lon="11.8593183"><ele>1726.0</ele><time>2026-05-02T12:32:59.397Z</time></trkpt><trkpt lat="46.4932467" lon="11.8594083"><ele>1724.0000000000002</ele><time>2026-05-02T12:33:00.397Z</time></trkpt><trkpt lat="46.493315" lon="11.8594483"><ele>1722.0000000000002</ele><time>2026-05-02T12:33:01.397Z</time></trkpt><trkpt lat="46.4934117" lon="11.8594533"><ele>1720.0</ele><time>2026-05-02T12:33:02.397Z</time></trkpt><trkpt lat="46.49354" lon="11.8594283"><ele>1718.0</ele><time>2026-05-02T12:33:03.396Z</time></trkpt><trkpt lat="46.4936583" lon="11.85944"><ele>1720.5</ele><time>2026-05-02T12:33:04.397Z</time></trkpt><trkpt lat="46.49376" lon="11.8594883"><ele>1723.0</ele><time>2026-05-02T12:33:05.397Z</time></trkpt><trkpt lat="46.493835" lon="11.8596117"><ele>1725.5</ele><time>2026-05-02T12:33:06.397Z</time></trkpt><trkpt lat="46.4939033" lon="11.8598167"><ele>1728.0</ele><time>2026-05-02T12:33:07.397Z</time></trkpt><trkpt lat="46.4939683" lon="11.8600717"><ele>1725.3333333333335</ele><time>2026-05-02T12:33:08.397Z</time></trkpt><trkpt lat="46.4940283" lon="11.8603233"><ele>1722.6666666666667</ele><time>2026-05-02T12:33:09.397Z</time></trkpt><trkpt lat="46.4940733" lon="11.8605717"><ele>1720.0</ele><time>2026-05-02T12:33:10.397Z</time></trkpt><trkpt lat="46.494095" lon="11.8608133"><ele>1717.0</ele><time>2026-05-02T12:33:11.396Z</time></trkpt><trkpt lat="46.4941033" lon="11.8610533"><ele>1714.0</ele><time>2026-05-02T12:33:12.397Z</time></trkpt><trkpt lat="46.4941217" lon="11.8612783"><ele>1711.0</ele><time>2026-05-02T12:33:13.396Z</time></trkpt><trkpt lat="46.4941767" lon="11.8614833"><ele>1711.0</ele><time>2026-05-02T12:33:14.396Z</time></trkpt><trkpt lat="46.49426" lon="11.86166"><ele>1711.0</ele><time>2026-05-02T12:33:15.396Z</time></trkpt><trkpt lat="46.4943567" lon="11.8618167"><ele>1711.0</ele><time>2026-05-02T12:33:16.396Z</time></trkpt><trkpt lat="46.49445" lon="11.861975"><ele>1711.0</ele><time>2026-05-02T12:33:17.396Z</time></trkpt><trkpt lat="46.4945367" lon="11.8621183"><ele>1711.25</ele><time>2026-05-02T12:33:18.397Z</time></trkpt><trkpt lat="46.49461" lon="11.8622717"><ele>1711.5</ele><time>2026-05-02T12:33:19.397Z</time></trkpt><trkpt lat="46.4946783" lon="11.8624167"><ele>1711.75</ele><time>2026-05-02T12:33:20.397Z</time></trkpt><trkpt lat="46.494725" lon="11.8625867"><ele>1712.0</ele><time>2026-05-02T12:33:21.397Z</time></trkpt><trkpt lat="46.4947483" lon="11.8627883"><ele>1712.0</ele><time>2026-05-02T12:33:22.397Z</time></trkpt><trkpt lat="46.4947583" lon="11.8629933"><ele>1712.0</ele><time>2026-05-02T12:33:23.397Z</time></trkpt><trkpt lat="46.49477" lon="11.8631983"><ele>1712.0</ele><time>2026-05-02T12:33:24.397Z</time></trkpt><trkpt lat="46.494785" lon="11.8634017"><ele>1712.0</ele><time>2026-05-02T12:33:25.397Z</time></trkpt><trkpt lat="46.4948067" lon="11.863615"><ele>1709.5</ele><time>2026-05-02T12:33:26.397Z</time></trkpt><trkpt lat="46.4948417" lon="11.863825"><ele>1707.0</ele><time>2026-05-02T12:33:27.397Z</time></trkpt><trkpt lat="46.4948717" lon="11.8640167"><ele>1704.5</ele><time>2026-05-02T12:33:28.397Z</time></trkpt><trkpt lat="46.4949083" lon="11.8642167"><ele>1702.0</ele><time>2026-05-02T12:33:29.396Z</time></trkpt><trkpt lat="46.49494" lon="11.8644317"><ele>1699.5</ele><time>2026-05-02T12:33:30.397Z</time></trkpt><trkpt lat="46.4949717" lon="11.8646383"><ele>1697.0</ele><time>2026-05-02T12:33:31.396Z</time></trkpt><trkpt lat="46.4950033" lon="11.8648383"><ele>1694.5</ele><time>2026-05-02T12:33:32.397Z</time></trkpt><trkpt lat="46.4950333" lon="11.86503"><ele>1692.0</ele><time>2026-05-02T12:33:33.397Z</time></trkpt><trkpt lat="46.495065" lon="11.86522"><ele>1689.5</ele><time>2026-05-02T12:33:34.397Z</time></trkpt><trkpt lat="46.4950917" lon="11.8654117"><ele>1687.0</ele><time>2026-05-02T12:33:35.397Z</time></trkpt><trkpt lat="46.495125" lon="11.8655967"><ele>1684.5</ele><time>2026-05-02T12:33:36.397Z</time></trkpt><trkpt lat="46.4951533" lon="11.8657867"><ele>1682.0</ele><time>2026-05-02T12:33:37.397Z</time></trkpt><trkpt lat="46.4951883" lon="11.865975"><ele>1680.25</ele><time>2026-05-02T12:33:38.397Z</time></trkpt><trkpt lat="46.4952333" lon="11.8661433"><ele>1678.5</ele><time>2026-05-02T12:33:39.397Z</time></trkpt><trkpt lat="46.4953067" lon="11.8662983"><ele>1676.75</ele><time>2026-05-02T12:33:40.397Z</time></trkpt><trkpt lat="46.4953867" lon="11.8664333"><ele>1675.0</ele><time>2026-05-02T12:33:41.397Z</time></trkpt><trkpt lat="46.4954683" lon="11.866535"><ele>1675.4</ele><time>2026-05-02T12:33:42.397Z</time></trkpt><trkpt lat="46.49553" lon="11.8666083"><ele>1675.8</ele><time>2026-05-02T12:33:43.397Z</time></trkpt><trkpt lat="46.4955917" lon="11.866765"><ele>1676.1999999999998</ele><time>2026-05-02T12:33:45.397Z</time></trkpt><trkpt lat="46.4955333" lon="11.86688"><ele>1676.6</ele><time>2026-05-02T12:33:47.397Z</time></trkpt><trkpt lat="46.4954567" lon="11.8668667"><ele>1677.0</ele><time>2026-05-02T12:33:48.397Z</time></trkpt><trkpt lat="46.4953633" lon="11.8668117"><ele>1676.5</ele><time>2026-05-02T12:33:49.397Z</time></trkpt><trkpt lat="46.4952417" lon="11.8667117"><ele>1676.0</ele><time>2026-05-02T12:33:50.396Z</time></trkpt><trkpt lat="46.4951167" lon="11.8666167"><ele>1675.5</ele><time>2026-05-02T12:33:51.397Z</time></trkpt><trkpt lat="46.495005" lon="11.8665583"><ele>1675.0</ele><time>2026-05-02T12:33:52.397Z</time></trkpt><trkpt lat="46.4949017" lon="11.8665383"><ele>1675.0</ele><time>2026-05-02T12:33:53.397Z</time></trkpt><trkpt lat="46.4948083" lon="11.8665733"><ele>1675.0</ele><time>2026-05-02T12:33:54.397Z</time></trkpt><trkpt lat="46.494735" lon="11.8666717"><ele>1675.0</ele><time>2026-05-02T12:33:55.397Z</time></trkpt><trkpt lat="46.4946917" lon="11.8668083"><ele>1675.0</ele><time>2026-05-02T12:33:56.397Z</time></trkpt><trkpt lat="46.4946583" lon="11.866935"><ele>1675.0</ele><time>2026-05-02T12:33:57.397Z</time></trkpt><trkpt lat="46.4946167" lon="11.8670083"><ele>1673.0000000000002</ele><time>2026-05-02T12:33:58.397Z</time></trkpt><trkpt lat="46.4945033" lon="11.8669933"><ele>1671.0</ele><time>2026-05-02T12:34:00.397Z</time></trkpt><trkpt lat="46.494445" lon="11.8669017"><ele>1669.0</ele><time>2026-05-02T12:34:01.396Z</time></trkpt><trkpt lat="46.494395" lon="11.86678"><ele>1667.0</ele><time>2026-05-02T12:34:02.397Z</time></trkpt><trkpt lat="46.4943517" lon="11.8666817"><ele>1665.0000000000002</ele><time>2026-05-02T12:34:03.396Z</time></trkpt><trkpt lat="46.4942967" lon="11.8666317"><ele>1663.0</ele><time>2026-05-02T12:34:04.397Z</time></trkpt><trkpt lat="46.4942333" lon="11.8666433"><ele>1663.0</ele><time>2026-05-02T12:34:05.396Z</time></trkpt><trkpt lat="46.4941817" lon="11.866705"><ele>1663.0</ele><time>2026-05-02T12:34:06.396Z</time></trkpt><trkpt lat="46.4941783" lon="11.86682"><ele>1663.0</ele><time>2026-05-02T12:34:07.397Z</time></trkpt><trkpt lat="46.4942033" lon="11.866945"><ele>1663.0</ele><time>2026-05-02T12:34:08.397Z</time></trkpt><trkpt lat="46.4943033" lon="11.867105"><ele>1663.0</ele><time>2026-05-02T12:34:09.397Z</time></trkpt><trkpt lat="46.4944233" lon="11.8672867"><ele>1662.0</ele><time>2026-05-02T12:34:10.396Z</time></trkpt><trkpt lat="46.4945383" lon="11.8674633"><ele>1661.0</ele><time>2026-05-02T12:34:11.397Z</time></trkpt><trkpt lat="46.4946433" lon="11.8676333"><ele>1660.0</ele><time>2026-05-02T12:34:12.397Z</time></trkpt><trkpt lat="46.49471" lon="11.86781"><ele>1658.75</ele><time>2026-05-02T12:34:13.396Z</time></trkpt><trkpt lat="46.49474" lon="11.867995"><ele>1657.5</ele><time>2026-05-02T12:34:14.397Z</time></trkpt><trkpt lat="46.4947367" lon="11.86819"><ele>1656.25</ele><time>2026-05-02T12:34:15.397Z</time></trkpt><trkpt lat="46.4947283" lon="11.8683667"><ele>1655.0</ele><time>2026-05-02T12:34:16.397Z</time></trkpt><trkpt lat="46.4947517" lon="11.8685367"><ele>1652.75</ele><time>2026-05-02T12:34:17.397Z</time></trkpt><trkpt lat="46.4948217" lon="11.86871"><ele>1650.5</ele><time>2026-05-02T12:34:18.397Z</time></trkpt><trkpt lat="46.4949183" lon="11.86888"><ele>1648.25</ele><time>2026-05-02T12:34:19.397Z</time></trkpt><trkpt lat="46.4950183" lon="11.86905"><ele>1646.0</ele><time>2026-05-02T12:34:20.396Z</time></trkpt><trkpt lat="46.49511" lon="11.8692117"><ele>1645.25</ele><time>2026-05-02T12:34:21.397Z</time></trkpt><trkpt lat="46.495195" lon="11.8693767"><ele>1644.5</ele><time>2026-05-02T12:34:22.397Z</time></trkpt><trkpt lat="46.495255" lon="11.86955"><ele>1643.75</ele><time>2026-05-02T12:34:23.397Z</time></trkpt><trkpt lat="46.4953033" lon="11.8697333"><ele>1643.0</ele><time>2026-05-02T12:34:24.397Z</time></trkpt><trkpt lat="46.4953533" lon="11.86993"><ele>1641.75</ele><time>2026-05-02T12:34:25.397Z</time></trkpt><trkpt lat="46.4953983" lon="11.8701167"><ele>1640.5</ele><time>2026-05-02T12:34:26.397Z</time></trkpt><trkpt lat="46.4954383" lon="11.8703017"><ele>1639.25</ele><time>2026-05-02T12:34:27.397Z</time></trkpt><trkpt lat="46.4954783" lon="11.870465"><ele>1638.0</ele><time>2026-05-02T12:34:28.397Z</time></trkpt><trkpt lat="46.4955167" lon="11.8705983"><ele>1637.0</ele><time>2026-05-02T12:34:29.396Z</time></trkpt><trkpt lat="46.49557" lon="11.8707"><ele>1636.0</ele><time>2026-05-02T12:34:30.396Z</time></trkpt><trkpt lat="46.4956267" lon="11.8707633"><ele>1635.0</ele><time>2026-05-02T12:34:31.397Z</time></trkpt><trkpt lat="46.4957" lon="11.870755"><ele>1634.0</ele><time>2026-05-02T12:34:32.397Z</time></trkpt><trkpt lat="46.4957833" lon="11.8707117"><ele>1633.0</ele><time>2026-05-02T12:34:33.396Z</time></trkpt><trkpt lat="46.49588" lon="11.8705983"><ele>1632.0</ele><time>2026-05-02T12:34:34.397Z</time></trkpt><trkpt lat="46.4959633" lon="11.87049"><ele>1632.0</ele><time>2026-05-02T12:34:35.397Z</time></trkpt><trkpt lat="46.4960317" lon="11.8704267"><ele>1632.0</ele><time>2026-05-02T12:34:36.396Z</time></trkpt><trkpt lat="46.4960983" lon="11.870415"><ele>1632.0</ele><time>2026-05-02T12:34:37.397Z</time></trkpt><trkpt lat="46.4961567" lon="11.8704567"><ele>1632.0</ele><time>2026-05-02T12:34:38.397Z</time></trkpt><trkpt lat="46.4961967" lon="11.8705517"><ele>1632.0</ele><time>2026-05-02T12:34:39.397Z</time></trkpt><trkpt lat="46.4961917" lon="11.8707117"><ele>1632.0</ele><time>2026-05-02T12:34:40.397Z</time></trkpt><trkpt lat="46.4961533" lon="11.87091"><ele>1629.75</ele><time>2026-05-02T12:34:41.397Z</time></trkpt><trkpt lat="46.4961" lon="11.8711217"><ele>1627.5</ele><time>2026-05-02T12:34:42.397Z</time></trkpt><trkpt lat="46.4960483" lon="11.8713417"><ele>1625.25</ele><time>2026-05-02T12:34:43.397Z</time></trkpt><trkpt lat="46.4960117" lon="11.87152"><ele>1623.0</ele><time>2026-05-02T12:34:44.397Z</time></trkpt><trkpt lat="46.4959933" lon="11.871655"><ele>1623.0</ele><time>2026-05-02T12:34:45.397Z</time></trkpt><trkpt lat="46.4959833" lon="11.8717683"><ele>1623.0</ele><time>2026-05-02T12:34:46.396Z</time></trkpt><trkpt lat="46.4960033" lon="11.87186"><ele>1623.0</ele><time>2026-05-02T12:34:47.397Z</time></trkpt><trkpt lat="46.4960633" lon="11.8719183"><ele>1623.0</ele><time>2026-05-02T12:34:48.397Z</time></trkpt><trkpt lat="46.4961283" lon="11.871935"><ele>1623.0</ele><time>2026-05-02T12:34:49.397Z</time></trkpt><trkpt lat="46.4962217" lon="11.8718867"><ele>1623.0</ele><time>2026-05-02T12:34:50.396Z</time></trkpt><trkpt lat="46.4963067" lon="11.8718133"><ele>1622.4</ele><time>2026-05-02T12:34:51.397Z</time></trkpt><trkpt lat="46.4964" lon="11.8716917"><ele>1621.8000000000002</ele><time>2026-05-02T12:34:52.396Z</time></trkpt><trkpt lat="46.4965" lon="11.8715967"><ele>1621.2</ele><time>2026-05-02T12:34:53.397Z</time></trkpt><trkpt lat="46.4965867" lon="11.8715283"><ele>1620.6</ele><time>2026-05-02T12:34:54.397Z</time></trkpt><trkpt lat="46.4966483" lon="11.8715033"><ele>1620.0</ele><time>2026-05-02T12:34:55.396Z</time></trkpt><trkpt lat="46.4967283" lon="11.871635"><ele>1619.0</ele><time>2026-05-02T12:34:57.397Z</time></trkpt><trkpt lat="46.496725" lon="11.871775"><ele>1618.0</ele><time>2026-05-02T12:34:58.397Z</time></trkpt><trkpt lat="46.4966867" lon="11.8719617"><ele>1617.0</ele><time>2026-05-02T12:34:59.396Z</time></trkpt><trkpt lat="46.4966317" lon="11.8721833"><ele>1616.0</ele><time>2026-05-02T12:35:00.397Z</time></trkpt><trkpt lat="46.49657" lon="11.8724167"><ele>1614.5</ele><time>2026-05-02T12:35:01.397Z</time></trkpt><trkpt lat="46.4965017" lon="11.8726333"><ele>1613.0</ele><time>2026-05-02T12:35:02.397Z</time></trkpt><trkpt lat="46.4964467" lon="11.8728317"><ele>1611.5</ele><time>2026-05-02T12:35:03.396Z</time></trkpt><trkpt lat="46.496405" lon="11.8729967"><ele>1610.0</ele><time>2026-05-02T12:35:04.397Z</time></trkpt><trkpt lat="46.4963817" lon="11.8731317"><ele>1610.0</ele><time>2026-05-02T12:35:05.397Z</time></trkpt><trkpt lat="46.496385" lon="11.8732483"><ele>1610.0</ele><time>2026-05-02T12:35:06.396Z</time></trkpt><trkpt lat="46.496425" lon="11.8733367"><ele>1610.0</ele><time>2026-05-02T12:35:07.397Z</time></trkpt><trkpt lat="46.4964917" lon="11.8733967"><ele>1610.0</ele><time>2026-05-02T12:35:08.396Z</time></trkpt><trkpt lat="46.49661" lon="11.8734317"><ele>1610.0</ele><time>2026-05-02T12:35:09.396Z</time></trkpt><trkpt lat="46.49674" lon="11.8734583"><ele>1608.5</ele><time>2026-05-02T12:35:10.397Z</time></trkpt><trkpt lat="46.4968633" lon="11.8735017"><ele>1607.0</ele><time>2026-05-02T12:35:11.396Z</time></trkpt><trkpt lat="46.4969633" lon="11.8735583"><ele>1605.5</ele><time>2026-05-02T12:35:12.397Z</time></trkpt><trkpt lat="46.49705" lon="11.8736467"><ele>1604.0</ele><time>2026-05-02T12:35:13.396Z</time></trkpt><trkpt lat="46.49712" lon="11.8737717"><ele>1603.25</ele><time>2026-05-02T12:35:14.397Z</time></trkpt><trkpt lat="46.497175" lon="11.8739183"><ele>1602.5</ele><time>2026-05-02T12:35:15.397Z</time></trkpt><trkpt lat="46.4972217" lon="11.8740833"><ele>1601.75</ele><time>2026-05-02T12:35:16.397Z</time></trkpt><trkpt lat="46.49726" lon="11.8742617"><ele>1601.0</ele><time>2026-05-02T12:35:17.397Z</time></trkpt><trkpt lat="46.4972983" lon="11.8744517"><ele>1599.75</ele><time>2026-05-02T12:35:18.397Z</time></trkpt><trkpt lat="46.497335" lon="11.8746317"><ele>1598.5</ele><time>2026-05-02T12:35:19.396Z</time></trkpt><trkpt lat="46.49737" lon="11.8748017"><ele>1597.25</ele><time>2026-05-02T12:35:20.397Z</time></trkpt><trkpt lat="46.49741" lon="11.8749567"><ele>1596.0</ele><time>2026-05-02T12:35:21.396Z</time></trkpt><trkpt lat="46.497455" lon="11.8750917"><ele>1595.0</ele><time>2026-05-02T12:35:22.397Z</time></trkpt><trkpt lat="46.4975133" lon="11.8752083"><ele>1594.0</ele><time>2026-05-02T12:35:23.397Z</time></trkpt><trkpt lat="46.49758" lon="11.8752983"><ele>1593.0</ele><time>2026-05-02T12:35:24.396Z</time></trkpt><trkpt lat="46.49766" lon="11.8753783"><ele>1592.0</ele><time>2026-05-02T12:35:25.397Z</time></trkpt><trkpt lat="46.4977417" lon="11.875445"><ele>1591.0</ele><time>2026-05-02T12:35:26.397Z</time></trkpt><trkpt lat="46.497835" lon="11.875495"><ele>1591.0</ele><time>2026-05-02T12:35:27.397Z</time></trkpt><trkpt lat="46.4979267" lon="11.8755317"><ele>1591.0</ele><time>2026-05-02T12:35:28.397Z</time></trkpt><trkpt lat="46.4980233" lon="11.8755717"><ele>1591.0</ele><time>2026-05-02T12:35:29.397Z</time></trkpt><trkpt lat="46.498115" lon="11.8756133"><ele>1591.0</ele><time>2026-05-02T12:35:30.397Z</time></trkpt><trkpt lat="46.4982017" lon="11.87566"><ele>1591.0</ele><time>2026-05-02T12:35:31.396Z</time></trkpt><trkpt lat="46.4982883" lon="11.8757167"><ele>1591.0</ele><time>2026-05-02T12:35:32.397Z</time></trkpt><trkpt lat="46.49837" lon="11.8757883"><ele>1591.0</ele><time>2026-05-02T12:35:33.396Z</time></trkpt><trkpt lat="46.49845" lon="11.8758883"><ele>1591.0</ele><time>2026-05-02T12:35:34.397Z</time></trkpt><trkpt lat="46.4985333" lon="11.876005"><ele>1591.0</ele><time>2026-05-02T12:35:35.397Z</time></trkpt><trkpt lat="46.4986083" lon="11.87613"><ele>1591.0</ele><time>2026-05-02T12:35:36.397Z</time></trkpt><trkpt lat="46.49867" lon="11.8762833"><ele>1589.75</ele><time>2026-05-02T12:35:37.397Z</time></trkpt><trkpt lat="46.4987083" lon="11.8764567"><ele>1588.5</ele><time>2026-05-02T12:35:38.397Z</time></trkpt><trkpt lat="46.4987033" lon="11.8766467"><ele>1587.25</ele><time>2026-05-02T12:35:39.397Z</time></trkpt><trkpt lat="46.4986783" lon="11.8768467"><ele>1586.0</ele><time>2026-05-02T12:35:40.397Z</time></trkpt><trkpt lat="46.4986417" lon="11.8770633"><ele>1584.3333333333333</ele><time>2026-05-02T12:35:41.397Z</time></trkpt><trkpt lat="46.4986117" lon="11.877315"><ele>1582.6666666666665</ele><time>2026-05-02T12:35:42.396Z</time></trkpt><trkpt lat="46.4985967" lon="11.8775833"><ele>1581.0</ele><time>2026-05-02T12:35:43.397Z</time></trkpt><trkpt lat="46.4985983" lon="11.8778617"><ele>1580.0</ele><time>2026-05-02T12:35:44.397Z</time></trkpt><trkpt lat="46.49861" lon="11.8781317"><ele>1579.0</ele><time>2026-05-02T12:35:45.397Z</time></trkpt><trkpt lat="46.4986267" lon="11.8783833"><ele>1578.0</ele><time>2026-05-02T12:35:46.397Z</time></trkpt><trkpt lat="46.4986367" lon="11.878625"><ele>1578.0</ele><time>2026-05-02T12:35:47.397Z</time></trkpt><trkpt lat="46.4986517" lon="11.87887"><ele>1578.0</ele><time>2026-05-02T12:35:48.397Z</time></trkpt><trkpt lat="46.4986667" lon="11.8791167"><ele>1578.0</ele><time>2026-05-02T12:35:49.397Z</time></trkpt><trkpt lat="46.4986817" lon="11.879365"><ele>1577.3333333333335</ele><time>2026-05-02T12:35:50.397Z</time></trkpt><trkpt lat="46.4987" lon="11.8795933"><ele>1576.6666666666667</ele><time>2026-05-02T12:35:51.396Z</time></trkpt><trkpt lat="46.4987133" lon="11.8798333"><ele>1576.0</ele><time>2026-05-02T12:35:52.396Z</time></trkpt><trkpt lat="46.498735" lon="11.8800683"><ele>1581.0</ele><time>2026-05-02T12:35:53.397Z</time></trkpt><trkpt lat="46.4987583" lon="11.8803083"><ele>1586.0</ele><time>2026-05-02T12:35:54.397Z</time></trkpt><trkpt lat="46.498785" lon="11.8805467"><ele>1591.0</ele><time>2026-05-02T12:35:55.397Z</time></trkpt><trkpt lat="46.4988183" lon="11.88078"><ele>1590.0</ele><time>2026-05-02T12:35:56.397Z</time></trkpt><trkpt lat="46.49885" lon="11.88102"><ele>1589.0</ele><time>2026-05-02T12:35:57.397Z</time></trkpt><trkpt lat="46.49888" lon="11.8812583"><ele>1588.0</ele><time>2026-05-02T12:35:58.396Z</time></trkpt><trkpt lat="46.4989017" lon="11.8815"><ele>1588.0</ele><time>2026-05-02T12:35:59.397Z</time></trkpt><trkpt lat="46.4989033" lon="11.8817533"><ele>1588.0</ele><time>2026-05-02T12:36:00.397Z</time></trkpt><trkpt lat="46.498875" lon="11.8820033"><ele>1588.0</ele><time>2026-05-02T12:36:01.397Z</time></trkpt><trkpt lat="46.4988417" lon="11.88225"><ele>1585.6666666666667</ele><time>2026-05-02T12:36:02.397Z</time></trkpt><trkpt lat="46.4988" lon="11.8824867"><ele>1583.3333333333335</ele><time>2026-05-02T12:36:03.397Z</time></trkpt><trkpt lat="46.4987633" lon="11.882725"><ele>1581.0</ele><time>2026-05-02T12:36:04.397Z</time></trkpt><trkpt lat="46.4987283" lon="11.8829633"><ele>1578.3333333333335</ele><time>2026-05-02T12:36:05.397Z</time></trkpt><trkpt lat="46.498685" lon="11.8832067"><ele>1575.6666666666667</ele><time>2026-05-02T12:36:06.396Z</time></trkpt><trkpt lat="46.49865" lon="11.883445"><ele>1573.0</ele><time>2026-05-02T12:36:07.397Z</time></trkpt><trkpt lat="46.4986117" lon="11.8836617"><ele>1572.6666666666667</ele><time>2026-05-02T12:36:08.397Z</time></trkpt><trkpt lat="46.49857" lon="11.8838783"><ele>1572.3333333333335</ele><time>2026-05-02T12:36:09.397Z</time></trkpt><trkpt lat="46.4985533" lon="11.88411"><ele>1572.0</ele><time>2026-05-02T12:36:10.397Z</time></trkpt><trkpt lat="46.4985517" lon="11.8843383"><ele>1571.25</ele><time>2026-05-02T12:36:11.397Z</time></trkpt><trkpt lat="46.49857" lon="11.884555"><ele>1570.5</ele><time>2026-05-02T12:36:12.397Z</time></trkpt><trkpt lat="46.4986083" lon="11.88476"><ele>1569.75</ele><time>2026-05-02T12:36:13.396Z</time></trkpt><trkpt lat="46.4986467" lon="11.8849533"><ele>1569.0</ele><time>2026-05-02T12:36:14.397Z</time></trkpt><trkpt lat="46.4986667" lon="11.8851667"><ele>1567.3333333333335</ele><time>2026-05-02T12:36:15.397Z</time></trkpt><trkpt lat="46.498655" lon="11.88538"><ele>1565.6666666666667</ele><time>2026-05-02T12:36:16.397Z</time></trkpt><trkpt lat="46.49861" lon="11.8855867"><ele>1564.0</ele><time>2026-05-02T12:36:17.397Z</time></trkpt><trkpt lat="46.498535" lon="11.8857967"><ele>1560.0</ele><time>2026-05-02T12:36:18.396Z</time></trkpt><trkpt lat="46.4984533" lon="11.8860017"><ele>1556.0</ele><time>2026-05-02T12:36:19.397Z</time></trkpt><trkpt lat="46.4983683" lon="11.8862"><ele>1552.0</ele><time>2026-05-02T12:36:20.396Z</time></trkpt><trkpt lat="46.4982817" lon="11.8863967"><ele>1552.0</ele><time>2026-05-02T12:36:21.397Z</time></trkpt><trkpt lat="46.4982033" lon="11.8866"><ele>1552.0</ele><time>2026-05-02T12:36:22.397Z</time></trkpt><trkpt lat="46.49813" lon="11.8868"><ele>1552.0</ele><time>2026-05-02T12:36:23.397Z</time></trkpt><trkpt lat="46.498065" lon="11.8869983"><ele>1551.5</ele><time>2026-05-02T12:36:24.397Z</time></trkpt><trkpt lat="46.498025" lon="11.8872067"><ele>1551.0</ele><time>2026-05-02T12:36:25.396Z</time></trkpt><trkpt lat="46.497985" lon="11.8874133"><ele>1550.5</ele><time>2026-05-02T12:36:26.396Z</time></trkpt><trkpt lat="46.4979483" lon="11.8876283"><ele>1550.0</ele><time>2026-05-02T12:36:27.397Z</time></trkpt><trkpt lat="46.497915" lon="11.8878633"><ele>1548.0</ele><time>2026-05-02T12:36:28.397Z</time></trkpt><trkpt lat="46.49786" lon="11.8880783"><ele>1546.0</ele><time>2026-05-02T12:36:29.397Z</time></trkpt><trkpt lat="46.4977917" lon="11.8882833"><ele>1544.0</ele><time>2026-05-02T12:36:30.397Z</time></trkpt><trkpt lat="46.497715" lon="11.888475"><ele>1542.0</ele><time>2026-05-02T12:36:31.397Z</time></trkpt><trkpt lat="46.497635" lon="11.8886717"><ele>1540.0</ele><time>2026-05-02T12:36:32.397Z</time></trkpt><trkpt lat="46.4975783" lon="11.8888733"><ele>1538.0</ele><time>2026-05-02T12:36:33.397Z</time></trkpt><trkpt lat="46.4975433" lon="11.8890983"><ele>1540.6666666666665</ele><time>2026-05-02T12:36:34.397Z</time></trkpt><trkpt lat="46.4975183" lon="11.8893367"><ele>1543.3333333333335</ele><time>2026-05-02T12:36:35.397Z</time></trkpt><trkpt lat="46.49753" lon="11.8895867"><ele>1546.0</ele><time>2026-05-02T12:36:36.397Z</time></trkpt><trkpt lat="46.4975417" lon="11.889825"><ele>1546.0</ele><time>2026-05-02T12:36:37.396Z</time></trkpt><trkpt lat="46.4975567" lon="11.89006"><ele>1546.0</ele><time>2026-05-02T12:36:38.397Z</time></trkpt><trkpt lat="46.497565" lon="11.890295"><ele>1546.0</ele><time>2026-05-02T12:36:39.397Z</time></trkpt><trkpt lat="46.4975833" lon="11.8905433"><ele>1545.0</ele><time>2026-05-02T12:36:40.396Z</time></trkpt><trkpt lat="46.4976083" lon="11.8907967"><ele>1544.0</ele><time>2026-05-02T12:36:41.397Z</time></trkpt><trkpt lat="46.497635" lon="11.8910433"><ele>1543.0</ele><time>2026-05-02T12:36:42.396Z</time></trkpt><trkpt lat="46.49766" lon="11.89127"><ele>1539.0</ele><time>2026-05-02T12:36:43.397Z</time></trkpt><trkpt lat="46.497665" lon="11.8915033"><ele>1535.0</ele><time>2026-05-02T12:36:44.396Z</time></trkpt><trkpt lat="46.49763" lon="11.8917333"><ele>1531.0</ele><time>2026-05-02T12:36:45.396Z</time></trkpt><trkpt lat="46.4975817" lon="11.89196"><ele>1528.75</ele><time>2026-05-02T12:36:46.397Z</time></trkpt><trkpt lat="46.4975417" lon="11.8921667"><ele>1526.5</ele><time>2026-05-02T12:36:47.397Z</time></trkpt><trkpt lat="46.497525" lon="11.8923717"><ele>1524.25</ele><time>2026-05-02T12:36:48.397Z</time></trkpt><trkpt lat="46.4975433" lon="11.8925567"><ele>1522.0</ele><time>2026-05-02T12:36:49.397Z</time></trkpt><trkpt lat="46.4975967" lon="11.89276"><ele>1519.0</ele><time>2026-05-02T12:36:50.397Z</time></trkpt><trkpt lat="46.4976683" lon="11.8929717"><ele>1516.0</ele><time>2026-05-02T12:36:51.397Z</time></trkpt><trkpt lat="46.4977417" lon="11.89319"><ele>1513.0</ele><time>2026-05-02T12:36:52.397Z</time></trkpt><trkpt lat="46.4978133" lon="11.8934167"><ele>1510.6666666666665</ele><time>2026-05-02T12:36:53.397Z</time></trkpt><trkpt lat="46.4978833" lon="11.8936433"><ele>1508.3333333333333</ele><time>2026-05-02T12:36:54.397Z</time></trkpt><trkpt lat="46.4979517" lon="11.8938667"><ele>1506.0</ele><time>2026-05-02T12:36:55.397Z</time></trkpt><trkpt lat="46.498015" lon="11.8940733"><ele>1508.5</ele><time>2026-05-02T12:36:56.397Z</time></trkpt><trkpt lat="46.4980633" lon="11.8942683"><ele>1511.0</ele><time>2026-05-02T12:36:57.396Z</time></trkpt><trkpt lat="46.498105" lon="11.89446"><ele>1513.5</ele><time>2026-05-02T12:36:58.397Z</time></trkpt><trkpt lat="46.4981317" lon="11.8946433"><ele>1516.0</ele><time>2026-05-02T12:36:59.396Z</time></trkpt><trkpt lat="46.4981467" lon="11.894815"><ele>1516.0</ele><time>2026-05-02T12:37:00.397Z</time></trkpt><trkpt lat="46.4981617" lon="11.894995"><ele>1516.0</ele><time>2026-05-02T12:37:01.397Z</time></trkpt><trkpt lat="46.4981733" lon="11.8951833"><ele>1516.0</ele><time>2026-05-02T12:37:02.397Z</time></trkpt><trkpt lat="46.49818" lon="11.8953833"><ele>1516.0</ele><time>2026-05-02T12:37:03.397Z</time></trkpt><trkpt lat="46.498185" lon="11.8956233"><ele>1514.3333333333333</ele><time>2026-05-02T12:37:04.396Z</time></trkpt><trkpt lat="46.4982" lon="11.8959133"><ele>1512.6666666666667</ele><time>2026-05-02T12:37:05.397Z</time></trkpt><trkpt lat="46.4982217" lon="11.8962267"><ele>1511.0</ele><time>2026-05-02T12:37:06.397Z</time></trkpt><trkpt lat="46.49824" lon="11.8965567"><ele>1510.3333333333335</ele><time>2026-05-02T12:37:07.397Z</time></trkpt><trkpt lat="46.4982567" lon="11.8968767"><ele>1509.6666666666667</ele><time>2026-05-02T12:37:08.397Z</time></trkpt><trkpt lat="46.498265" lon="11.89718"><ele>1509.0</ele><time>2026-05-02T12:37:09.397Z</time></trkpt><trkpt lat="46.4982733" lon="11.8974667"><ele>1508.0</ele><time>2026-05-02T12:37:10.396Z</time></trkpt><trkpt lat="46.49828" lon="11.89774"><ele>1507.0</ele><time>2026-05-02T12:37:11.396Z</time></trkpt><trkpt lat="46.4982967" lon="11.8980067"><ele>1506.0</ele><time>2026-05-02T12:37:12.397Z</time></trkpt><trkpt lat="46.498315" lon="11.8982517"><ele>1503.6666666666667</ele><time>2026-05-02T12:37:13.397Z</time></trkpt><trkpt lat="46.4983333" lon="11.8985017"><ele>1501.3333333333335</ele><time>2026-05-02T12:37:14.397Z</time></trkpt><trkpt lat="46.4983867" lon="11.89875"><ele>1499.0</ele><time>2026-05-02T12:37:15.397Z</time></trkpt><trkpt lat="46.4984517" lon="11.898975"><ele>1499.0</ele><time>2026-05-02T12:37:16.397Z</time></trkpt><trkpt lat="46.4985333" lon="11.8992"><ele>1499.0</ele><time>2026-05-02T12:37:17.397Z</time></trkpt><trkpt lat="46.4986217" lon="11.89941"><ele>1499.0</ele><time>2026-05-02T12:37:18.397Z</time></trkpt><trkpt lat="46.498705" lon="11.899605"><ele>1508.75</ele><time>2026-05-02T12:37:19.397Z</time></trkpt><trkpt lat="46.4987733" lon="11.8997917"><ele>1518.5</ele><time>2026-05-02T12:37:20.397Z</time></trkpt><trkpt lat="46.498835" lon="11.899985"><ele>1528.25</ele><time>2026-05-02T12:37:21.396Z</time></trkpt><trkpt lat="46.4988717" lon="11.9001833"><ele>1538.0</ele><time>2026-05-02T12:37:22.397Z</time></trkpt><trkpt lat="46.4988783" lon="11.90038"><ele>1538.5</ele><time>2026-05-02T12:37:23.397Z</time></trkpt><trkpt lat="46.4988617" lon="11.9005933"><ele>1539.0</ele><time>2026-05-02T12:37:24.396Z</time></trkpt><trkpt lat="46.49882" lon="11.9007967"><ele>1539.5</ele><time>2026-05-02T12:37:25.397Z</time></trkpt><trkpt lat="46.498775" lon="11.9010017"><ele>1540.0</ele><time>2026-05-02T12:37:26.397Z</time></trkpt><trkpt lat="46.498725" lon="11.90119"><ele>1531.5</ele><time>2026-05-02T12:37:27.397Z</time></trkpt><trkpt lat="46.4986717" lon="11.901375"><ele>1523.0</ele><time>2026-05-02T12:37:28.397Z</time></trkpt><trkpt lat="46.49863" lon="11.9015667"><ele>1514.5</ele><time>2026-05-02T12:37:29.397Z</time></trkpt><trkpt lat="46.4985917" lon="11.9017583"><ele>1506.0</ele><time>2026-05-02T12:37:30.397Z</time></trkpt><trkpt lat="46.4985517" lon="11.901955"><ele>1506.0</ele><time>2026-05-02T12:37:31.397Z</time></trkpt><trkpt lat="46.498495" lon="11.9021533"><ele>1506.0</ele><time>2026-05-02T12:37:32.397Z</time></trkpt><trkpt lat="46.4984217" lon="11.902355"><ele>1506.0</ele><time>2026-05-02T12:37:33.396Z</time></trkpt><trkpt lat="46.4983283" lon="11.9025633"><ele>1513.3333333333333</ele><time>2026-05-02T12:37:34.397Z</time></trkpt><trkpt lat="46.4982383" lon="11.90277"><ele>1520.6666666666665</ele><time>2026-05-02T12:37:35.397Z</time></trkpt><trkpt lat="46.4981467" lon="11.9029617"><ele>1528.0</ele><time>2026-05-02T12:37:36.397Z</time></trkpt><trkpt lat="46.4980683" lon="11.9031383"><ele>1528.0</ele><time>2026-05-02T12:37:37.397Z</time></trkpt><trkpt lat="46.4979933" lon="11.9033117"><ele>1528.0</ele><time>2026-05-02T12:37:38.397Z</time></trkpt><trkpt lat="46.4979183" lon="11.9034567"><ele>1528.0</ele><time>2026-05-02T12:37:39.396Z</time></trkpt><trkpt lat="46.4978317" lon="11.9035583"><ele>1528.0</ele><time>2026-05-02T12:37:40.396Z</time></trkpt><trkpt lat="46.4977267" lon="11.903615"><ele>1522.75</ele><time>2026-05-02T12:37:41.397Z</time></trkpt><trkpt lat="46.4976083" lon="11.9036267"><ele>1517.5</ele><time>2026-05-02T12:37:42.397Z</time></trkpt><trkpt lat="46.4974867" lon="11.9036233"><ele>1512.25</ele><time>2026-05-02T12:37:43.397Z</time></trkpt><trkpt lat="46.4973717" lon="11.9036267"><ele>1507.0</ele><time>2026-05-02T12:37:44.397Z</time></trkpt><trkpt lat="46.497255" lon="11.9036417"><ele>1507.0</ele><time>2026-05-02T12:37:45.397Z</time></trkpt><trkpt lat="46.4971567" lon="11.9037067"><ele>1507.0</ele><time>2026-05-02T12:37:46.396Z</time></trkpt><trkpt lat="46.4970583" lon="11.9038017"><ele>1507.0</ele><time>2026-05-02T12:37:47.396Z</time></trkpt><trkpt lat="46.4969733" lon="11.9039183"><ele>1507.0</ele><time>2026-05-02T12:37:48.396Z</time></trkpt><trkpt lat="46.4968967" lon="11.9040517"><ele>1498.5</ele><time>2026-05-02T12:37:49.397Z</time></trkpt><trkpt lat="46.49686" lon="11.904195"><ele>1490.0</ele><time>2026-05-02T12:37:50.397Z</time></trkpt><trkpt lat="46.4968517" lon="11.9043667"><ele>1481.5</ele><time>2026-05-02T12:37:51.397Z</time></trkpt><trkpt lat="46.4968733" lon="11.9045833"><ele>1473.0</ele><time>2026-05-02T12:37:52.397Z</time></trkpt><trkpt lat="46.4969067" lon="11.904815"><ele>1473.0</ele><time>2026-05-02T12:37:53.397Z</time></trkpt><trkpt lat="46.4969417" lon="11.9050617"><ele>1473.0</ele><time>2026-05-02T12:37:54.396Z</time></trkpt><trkpt lat="46.4969733" lon="11.9053233"><ele>1473.0</ele><time>2026-05-02T12:37:55.397Z</time></trkpt><trkpt lat="46.497005" lon="11.905575"><ele>1473.3333333333333</ele><time>2026-05-02T12:37:56.397Z</time></trkpt><trkpt lat="46.4970367" lon="11.9058233"><ele>1473.6666666666665</ele><time>2026-05-02T12:37:57.397Z</time></trkpt><trkpt lat="46.4970783" lon="11.906065"><ele>1474.0</ele><time>2026-05-02T12:37:58.397Z</time></trkpt><trkpt lat="46.49712" lon="11.906305"><ele>1478.0</ele><time>2026-05-02T12:37:59.396Z</time></trkpt><trkpt lat="46.49717" lon="11.906535"><ele>1482.0</ele><time>2026-05-02T12:38:00.397Z</time></trkpt><trkpt lat="46.4972333" lon="11.906755"><ele>1486.0</ele><time>2026-05-02T12:38:01.397Z</time></trkpt><trkpt lat="46.4972967" lon="11.9069683"><ele>1486.0</ele><time>2026-05-02T12:38:02.397Z</time></trkpt><trkpt lat="46.49737" lon="11.9071633"><ele>1486.0</ele><time>2026-05-02T12:38:03.397Z</time></trkpt><trkpt lat="46.4974717" lon="11.9073367"><ele>1486.0</ele><time>2026-05-02T12:38:04.397Z</time></trkpt><trkpt lat="46.49759" lon="11.9074983"><ele>1484.6666666666665</ele><time>2026-05-02T12:38:05.397Z</time></trkpt><trkpt lat="46.4977183" lon="11.9076333"><ele>1483.3333333333333</ele><time>2026-05-02T12:38:06.397Z</time></trkpt><trkpt lat="46.497855" lon="11.9077617"><ele>1482.0</ele><time>2026-05-02T12:38:07.397Z</time></trkpt><trkpt lat="46.497985" lon="11.9078633"><ele>1482.0</ele><time>2026-05-02T12:38:08.396Z</time></trkpt><trkpt lat="46.498115" lon="11.9079567"><ele>1482.0</ele><time>2026-05-02T12:38:09.397Z</time></trkpt><trkpt lat="46.4982383" lon="11.9080517"><ele>1482.0</ele><time>2026-05-02T12:38:10.397Z</time></trkpt><trkpt lat="46.498335" lon="11.908165"><ele>1482.0</ele><time>2026-05-02T12:38:11.397Z</time></trkpt><trkpt lat="46.4984167" lon="11.9083"><ele>1480.25</ele><time>2026-05-02T12:38:12.396Z</time></trkpt><trkpt lat="46.4984617" lon="11.9084633"><ele>1478.5</ele><time>2026-05-02T12:38:13.397Z</time></trkpt><trkpt lat="46.4984617" lon="11.9086583"><ele>1476.75</ele><time>2026-05-02T12:38:14.397Z</time></trkpt><trkpt lat="46.4984467" lon="11.9088767"><ele>1475.0</ele><time>2026-05-02T12:38:15.397Z</time></trkpt><trkpt lat="46.4984317" lon="11.9090983"><ele>1473.75</ele><time>2026-05-02T12:38:16.396Z</time></trkpt><trkpt lat="46.4984317" lon="11.9093083"><ele>1472.5</ele><time>2026-05-02T12:38:17.397Z</time></trkpt><trkpt lat="46.498455" lon="11.90951"><ele>1471.25</ele><time>2026-05-02T12:38:18.397Z</time></trkpt><trkpt lat="46.4985017" lon="11.909695"><ele>1470.0</ele><time>2026-05-02T12:38:19.396Z</time></trkpt><trkpt lat="46.4985583" lon="11.909875"><ele>1470.0</ele><time>2026-05-02T12:38:20.396Z</time></trkpt><trkpt lat="46.498605" lon="11.9100367"><ele>1470.0</ele><time>2026-05-02T12:38:21.397Z</time></trkpt><trkpt lat="46.4986217" lon="11.9101817"><ele>1470.0</ele><time>2026-05-02T12:38:22.397Z</time></trkpt><trkpt lat="46.4985983" lon="11.910325"><ele>1470.0</ele><time>2026-05-02T12:38:23.396Z</time></trkpt><trkpt lat="46.4985283" lon="11.9104633"><ele>1470.0</ele><time>2026-05-02T12:38:24.397Z</time></trkpt><trkpt lat="46.4984267" lon="11.9106067"><ele>1473.3333333333333</ele><time>2026-05-02T12:38:25.397Z</time></trkpt><trkpt lat="46.4983133" lon="11.9107533"><ele>1476.6666666666665</ele><time>2026-05-02T12:38:26.397Z</time></trkpt><trkpt lat="46.4982217" lon="11.9109167"><ele>1480.0</ele><time>2026-05-02T12:38:27.397Z</time></trkpt><trkpt lat="46.4981467" lon="11.91112"><ele>1483.6666666666665</ele><time>2026-05-02T12:38:28.397Z</time></trkpt><trkpt lat="46.4981067" lon="11.9113633"><ele>1487.3333333333333</ele><time>2026-05-02T12:38:29.396Z</time></trkpt><trkpt lat="46.4980717" lon="11.9116217"><ele>1491.0</ele><time>2026-05-02T12:38:30.397Z</time></trkpt><trkpt lat="46.4980317" lon="11.9118867"><ele>1493.3333333333333</ele><time>2026-05-02T12:38:31.397Z</time></trkpt><trkpt lat="46.4979967" lon="11.9121433"><ele>1495.6666666666665</ele><time>2026-05-02T12:38:32.396Z</time></trkpt><trkpt lat="46.4979633" lon="11.912385"><ele>1498.0</ele><time>2026-05-02T12:38:33.397Z</time></trkpt><trkpt lat="46.4979333" lon="11.9126417"><ele>1482.6666666666665</ele><time>2026-05-02T12:38:34.396Z</time></trkpt><trkpt lat="46.4979033" lon="11.9129067"><ele>1467.3333333333333</ele><time>2026-05-02T12:38:35.397Z</time></trkpt><trkpt lat="46.4978683" lon="11.9131667"><ele>1452.0</ele><time>2026-05-02T12:38:36.397Z</time></trkpt><trkpt lat="46.497835" lon="11.9134217"><ele>1452.0</ele><time>2026-05-02T12:38:37.396Z</time></trkpt><trkpt lat="46.4978133" lon="11.9136817"><ele>1452.0</ele><time>2026-05-02T12:38:38.397Z</time></trkpt><trkpt lat="46.49779" lon="11.9139417"><ele>1452.0</ele><time>2026-05-02T12:38:39.397Z</time></trkpt><trkpt lat="46.4977683" lon="11.9141883"><ele>1452.6666666666667</ele><time>2026-05-02T12:38:40.397Z</time></trkpt><trkpt lat="46.4977533" lon="11.9144283"><ele>1453.3333333333335</ele><time>2026-05-02T12:38:41.397Z</time></trkpt><trkpt lat="46.4977383" lon="11.91467"><ele>1454.0</ele><time>2026-05-02T12:38:42.397Z</time></trkpt><trkpt lat="46.4977367" lon="11.9149067"><ele>1453.6666666666667</ele><time>2026-05-02T12:38:43.396Z</time></trkpt><trkpt lat="46.497745" lon="11.9151367"><ele>1453.3333333333333</ele><time>2026-05-02T12:38:44.397Z</time></trkpt><trkpt lat="46.4977583" lon="11.9153767"><ele>1453.0</ele><time>2026-05-02T12:38:45.397Z</time></trkpt><trkpt lat="46.497755" lon="11.91563"><ele>1453.0</ele><time>2026-05-02T12:38:46.397Z</time></trkpt><trkpt lat="46.4977317" lon="11.915875"><ele>1453.0</ele><time>2026-05-02T12:38:47.397Z</time></trkpt><trkpt lat="46.497705" lon="11.9161217"><ele>1453.0</ele><time>2026-05-02T12:38:48.396Z</time></trkpt><trkpt lat="46.4976683" lon="11.9163717"><ele>1453.6666666666665</ele><time>2026-05-02T12:38:49.397Z</time></trkpt><trkpt lat="46.49764" lon="11.9166283"><ele>1454.3333333333333</ele><time>2026-05-02T12:38:50.397Z</time></trkpt><trkpt lat="46.4976117" lon="11.9168733"><ele>1455.0</ele><time>2026-05-02T12:38:51.397Z</time></trkpt><trkpt lat="46.4975883" lon="11.9171167"><ele>1455.0</ele><time>2026-05-02T12:38:52.397Z</time></trkpt><trkpt lat="46.4975783" lon="11.9173617"><ele>1455.0</ele><time>2026-05-02T12:38:53.397Z</time></trkpt><trkpt lat="46.497565" lon="11.9175733"><ele>1455.0</ele><time>2026-05-02T12:38:54.396Z</time></trkpt><trkpt lat="46.4975517" lon="11.9177667"><ele>1455.0</ele><time>2026-05-02T12:38:55.397Z</time></trkpt><trkpt lat="46.4975467" lon="11.9179667"><ele>1450.6666666666667</ele><time>2026-05-02T12:38:56.397Z</time></trkpt><trkpt lat="46.4975567" lon="11.918165"><ele>1446.3333333333335</ele><time>2026-05-02T12:38:57.397Z</time></trkpt><trkpt lat="46.4975833" lon="11.918385"><ele>1442.0</ele><time>2026-05-02T12:38:58.397Z</time></trkpt><trkpt lat="46.4976267" lon="11.918615"><ele>1442.3333333333335</ele><time>2026-05-02T12:38:59.397Z</time></trkpt><trkpt lat="46.4976717" lon="11.9188483"><ele>1442.6666666666667</ele><time>2026-05-02T12:39:00.397Z</time></trkpt><trkpt lat="46.4977133" lon="11.919065"><ele>1443.0</ele><time>2026-05-02T12:39:01.397Z</time></trkpt><trkpt lat="46.4977467" lon="11.9192533"><ele>1443.0</ele><time>2026-05-02T12:39:02.397Z</time></trkpt><trkpt lat="46.497755" lon="11.9194433"><ele>1443.0</ele><time>2026-05-02T12:39:03.397Z</time></trkpt><trkpt lat="46.4977367" lon="11.9196417"><ele>1443.0</ele><time>2026-05-02T12:39:04.397Z</time></trkpt><trkpt lat="46.4977017" lon="11.919825"><ele>1443.0</ele><time>2026-05-02T12:39:05.397Z</time></trkpt><trkpt lat="46.49767" lon="11.9199833"><ele>1446.4</ele><time>2026-05-02T12:39:06.397Z</time></trkpt><trkpt lat="46.49762" lon="11.920105"><ele>1449.8000000000002</ele><time>2026-05-02T12:39:07.397Z</time></trkpt><trkpt lat="46.49754" lon="11.9201917"><ele>1453.2</ele><time>2026-05-02T12:39:08.397Z</time></trkpt><trkpt lat="46.4974367" lon="11.9202667"><ele>1456.6</ele><time>2026-05-02T12:39:09.396Z</time></trkpt><trkpt lat="46.4973283" lon="11.9203083"><ele>1460.0</ele><time>2026-05-02T12:39:10.397Z</time></trkpt><trkpt lat="46.4972117" lon="11.920295"><ele>1460.0</ele><time>2026-05-02T12:39:11.397Z</time></trkpt><trkpt lat="46.49709" lon="11.9202483"><ele>1460.0</ele><time>2026-05-02T12:39:12.397Z</time></trkpt><trkpt lat="46.496985" lon="11.9201183"><ele>1460.0</ele><time>2026-05-02T12:39:13.396Z</time></trkpt><trkpt lat="46.4968967" lon="11.9199483"><ele>1460.0</ele><time>2026-05-02T12:39:14.397Z</time></trkpt><trkpt lat="46.4968333" lon="11.9197633"><ele>1458.0</ele><time>2026-05-02T12:39:15.396Z</time></trkpt><trkpt lat="46.4967717" lon="11.9196083"><ele>1456.0</ele><time>2026-05-02T12:39:16.396Z</time></trkpt><trkpt lat="46.4967167" lon="11.9195083"><ele>1454.0</ele><time>2026-05-02T12:39:17.397Z</time></trkpt><trkpt lat="46.49664" lon="11.9194683"><ele>1452.0</ele><time>2026-05-02T12:39:18.397Z</time></trkpt><trkpt lat="46.4965567" lon="11.9195117"><ele>1450.0</ele><time>2026-05-02T12:39:19.396Z</time></trkpt><trkpt lat="46.4964583" lon="11.9196133"><ele>1450.0</ele><time>2026-05-02T12:39:20.397Z</time></trkpt><trkpt lat="46.4963967" lon="11.91975"><ele>1450.0</ele><time>2026-05-02T12:39:21.396Z</time></trkpt><trkpt lat="46.496355" lon="11.9199517"><ele>1450.0</ele><time>2026-05-02T12:39:22.396Z</time></trkpt><trkpt lat="46.49631" lon="11.920215"><ele>1450.0</ele><time>2026-05-02T12:39:23.397Z</time></trkpt><trkpt lat="46.4962483" lon="11.9204917"><ele>1449.6666666666665</ele><time>2026-05-02T12:39:24.396Z</time></trkpt><trkpt lat="46.4961617" lon="11.9207483"><ele>1449.3333333333333</ele><time>2026-05-02T12:39:25.397Z</time></trkpt><trkpt lat="46.4960783" lon="11.920995"><ele>1449.0</ele><time>2026-05-02T12:39:26.397Z</time></trkpt><trkpt lat="46.4960083" lon="11.921225"><ele>1449.0</ele><time>2026-05-02T12:39:27.397Z</time></trkpt><trkpt lat="46.495945" lon="11.9214517"><ele>1449.0</ele><time>2026-05-02T12:39:28.397Z</time></trkpt><trkpt lat="46.4958933" lon="11.9216767"><ele>1449.0</ele><time>2026-05-02T12:39:29.397Z</time></trkpt><trkpt lat="46.4958417" lon="11.9219017"><ele>1453.3333333333333</ele><time>2026-05-02T12:39:30.397Z</time></trkpt><trkpt lat="46.49579" lon="11.9221383"><ele>1457.6666666666665</ele><time>2026-05-02T12:39:31.397Z</time></trkpt><trkpt lat="46.4957433" lon="11.9223817"><ele>1462.0</ele><time>2026-05-02T12:39:32.397Z</time></trkpt><trkpt lat="46.495695" lon="11.9226267"><ele>1466.0</ele><time>2026-05-02T12:39:33.397Z</time></trkpt><trkpt lat="46.495635" lon="11.9228633"><ele>1470.0</ele><time>2026-05-02T12:39:34.397Z</time></trkpt><trkpt lat="46.4955783" lon="11.9230917"><ele>1474.0</ele><time>2026-05-02T12:39:35.396Z</time></trkpt><trkpt lat="46.4955167" lon="11.9233"><ele>1477.0</ele><time>2026-05-02T12:39:36.396Z</time></trkpt><trkpt lat="46.49548" lon="11.923515"><ele>1480.0</ele><time>2026-05-02T12:39:37.397Z</time></trkpt><trkpt lat="46.4954617" lon="11.9237283"><ele>1483.0</ele><time>2026-05-02T12:39:38.397Z</time></trkpt><trkpt lat="46.4954567" lon="11.92395"><ele>1483.0</ele><time>2026-05-02T12:39:39.396Z</time></trkpt><trkpt lat="46.495445" lon="11.9241467"><ele>1483.0</ele><time>2026-05-02T12:39:40.397Z</time></trkpt><trkpt lat="46.495425" lon="11.9243433"><ele>1483.0</ele><time>2026-05-02T12:39:41.397Z</time></trkpt><trkpt lat="46.495405" lon="11.9245483"><ele>1483.0</ele><time>2026-05-02T12:39:42.397Z</time></trkpt><trkpt lat="46.4953783" lon="11.9247633"><ele>1470.0</ele><time>2026-05-02T12:39:43.396Z</time></trkpt><trkpt lat="46.4953517" lon="11.9249983"><ele>1457.0</ele><time>2026-05-02T12:39:44.397Z</time></trkpt><trkpt lat="46.4953167" lon="11.9252417"><ele>1444.0</ele><time>2026-05-02T12:39:45.397Z</time></trkpt><trkpt lat="46.4952567" lon="11.9254783"><ele>1444.0</ele><time>2026-05-02T12:39:46.396Z</time></trkpt><trkpt lat="46.4952167" lon="11.925725"><ele>1444.0</ele><time>2026-05-02T12:39:47.397Z</time></trkpt><trkpt lat="46.495195" lon="11.9259783"><ele>1444.0</ele><time>2026-05-02T12:39:48.396Z</time></trkpt><trkpt lat="46.4951817" lon="11.9262383"><ele>1447.3333333333333</ele><time>2026-05-02T12:39:49.397Z</time></trkpt><trkpt lat="46.4951533" lon="11.9265017"><ele>1450.6666666666667</ele><time>2026-05-02T12:39:50.397Z</time></trkpt><trkpt lat="46.49512" lon="11.9267617"><ele>1454.0</ele><time>2026-05-02T12:39:51.397Z</time></trkpt><trkpt lat="46.4950783" lon="11.9270217"><ele>1456.6666666666667</ele><time>2026-05-02T12:39:52.396Z</time></trkpt><trkpt lat="46.4950167" lon="11.9272883"><ele>1459.3333333333333</ele><time>2026-05-02T12:39:53.397Z</time></trkpt><trkpt lat="46.4949517" lon="11.9275467"><ele>1462.0</ele><time>2026-05-02T12:39:54.397Z</time></trkpt><trkpt lat="46.4948983" lon="11.92779"><ele>1464.3333333333333</ele><time>2026-05-02T12:39:55.397Z</time></trkpt><trkpt lat="46.4948483" lon="11.9280083"><ele>1466.6666666666667</ele><time>2026-05-02T12:39:56.397Z</time></trkpt><trkpt lat="46.494815" lon="11.92824"><ele>1469.0</ele><time>2026-05-02T12:39:57.397Z</time></trkpt><trkpt lat="46.49479" lon="11.928455"><ele>1471.0</ele><time>2026-05-02T12:39:58.397Z</time></trkpt><trkpt lat="46.494795" lon="11.9286533"><ele>1473.0</ele><time>2026-05-02T12:39:59.397Z</time></trkpt><trkpt lat="46.4947983" lon="11.9288583"><ele>1475.0</ele><time>2026-05-02T12:40:00.397Z</time></trkpt><trkpt lat="46.494775" lon="11.929065"><ele>1477.0</ele><time>2026-05-02T12:40:01.397Z</time></trkpt><trkpt lat="46.494715" lon="11.929285"><ele>1478.0</ele><time>2026-05-02T12:40:02.397Z</time></trkpt><trkpt lat="46.4946467" lon="11.9295183"><ele>1479.0</ele><time>2026-05-02T12:40:03.396Z</time></trkpt><trkpt lat="46.4945833" lon="11.929745"><ele>1480.0</ele><time>2026-05-02T12:40:04.397Z</time></trkpt><trkpt lat="46.4945333" lon="11.92997"><ele>1468.3333333333333</ele><time>2026-05-02T12:40:05.396Z</time></trkpt><trkpt lat="46.4944917" lon="11.9301933"><ele>1456.6666666666667</ele><time>2026-05-02T12:40:06.397Z</time></trkpt><trkpt lat="46.4944483" lon="11.9304133"><ele>1445.0</ele><time>2026-05-02T12:40:07.396Z</time></trkpt><trkpt lat="46.4944083" lon="11.9306417"><ele>1445.0</ele><time>2026-05-02T12:40:08.397Z</time></trkpt><trkpt lat="46.49437" lon="11.9308667"><ele>1445.0</ele><time>2026-05-02T12:40:09.397Z</time></trkpt><trkpt lat="46.4943267" lon="11.931095"><ele>1445.0</ele><time>2026-05-02T12:40:10.397Z</time></trkpt><trkpt lat="46.4942783" lon="11.9313267"><ele>1450.0</ele><time>2026-05-02T12:40:11.396Z</time></trkpt><trkpt lat="46.4942067" lon="11.93154"><ele>1455.0</ele><time>2026-05-02T12:40:12.397Z</time></trkpt><trkpt lat="46.4941133" lon="11.9317433"><ele>1460.0</ele><time>2026-05-02T12:40:13.397Z</time></trkpt><trkpt lat="46.4940017" lon="11.931945"><ele>1454.6666666666667</ele><time>2026-05-02T12:40:14.397Z</time></trkpt><trkpt lat="46.4938917" lon="11.9321333"><ele>1449.3333333333333</ele><time>2026-05-02T12:40:15.397Z</time></trkpt><trkpt lat="46.4937817" lon="11.9323117"><ele>1444.0</ele><time>2026-05-02T12:40:16.397Z</time></trkpt><trkpt lat="46.49369" lon="11.9324933"><ele>1449.6666666666665</ele><time>2026-05-02T12:40:17.396Z</time></trkpt><trkpt lat="46.4936167" lon="11.9326917"><ele>1455.3333333333333</ele><time>2026-05-02T12:40:18.397Z</time></trkpt><trkpt lat="46.49355" lon="11.932905"><ele>1461.0</ele><time>2026-05-02T12:40:19.397Z</time></trkpt><trkpt lat="46.4934867" lon="11.9331317"><ele>1461.0</ele><time>2026-05-02T12:40:20.396Z</time></trkpt><trkpt lat="46.4934133" lon="11.9333517"><ele>1461.0</ele><time>2026-05-02T12:40:21.397Z</time></trkpt><trkpt lat="46.4933317" lon="11.9335633"><ele>1461.0</ele><time>2026-05-02T12:40:22.397Z</time></trkpt><trkpt lat="46.4932333" lon="11.9337517"><ele>1466.3333333333333</ele><time>2026-05-02T12:40:23.396Z</time></trkpt><trkpt lat="46.493135" lon="11.9339317"><ele>1471.6666666666665</ele><time>2026-05-02T12:40:24.396Z</time></trkpt><trkpt lat="46.493035" lon="11.934115"><ele>1477.0</ele><time>2026-05-02T12:40:25.397Z</time></trkpt><trkpt lat="46.492925" lon="11.934285"><ele>1469.75</ele><time>2026-05-02T12:40:26.396Z</time></trkpt><trkpt lat="46.4928183" lon="11.9344417"><ele>1462.5</ele><time>2026-05-02T12:40:27.397Z</time></trkpt><trkpt lat="46.492715" lon="11.9345817"><ele>1455.25</ele><time>2026-05-02T12:40:28.397Z</time></trkpt><trkpt lat="46.49262" lon="11.9347217"><ele>1448.0</ele><time>2026-05-02T12:40:29.396Z</time></trkpt><trkpt lat="46.4925583" lon="11.9348783"><ele>1455.75</ele><time>2026-05-02T12:40:30.396Z</time></trkpt><trkpt lat="46.4925267" lon="11.9350567"><ele>1463.5</ele><time>2026-05-02T12:40:31.397Z</time></trkpt><trkpt lat="46.4924983" lon="11.9352333"><ele>1471.25</ele><time>2026-05-02T12:40:32.397Z</time></trkpt><trkpt lat="46.492465" lon="11.9353833"><ele>1479.0</ele><time>2026-05-02T12:40:33.397Z</time></trkpt><trkpt lat="46.4924267" lon="11.9355467"><ele>1479.0</ele><time>2026-05-02T12:40:34.396Z</time></trkpt><trkpt lat="46.4923567" lon="11.9356633"><ele>1479.0</ele><time>2026-05-02T12:40:35.397Z</time></trkpt><trkpt lat="46.4922683" lon="11.9357633"><ele>1479.0</ele><time>2026-05-02T12:40:36.397Z</time></trkpt><trkpt lat="46.4921733" lon="11.9358233"><ele>1479.0</ele><time>2026-05-02T12:40:37.396Z</time></trkpt><trkpt lat="46.4920617" lon="11.9358667"><ele>1479.0</ele><time>2026-05-02T12:40:38.397Z</time></trkpt><trkpt lat="46.4919367" lon="11.935895"><ele>1483.5</ele><time>2026-05-02T12:40:39.397Z</time></trkpt><trkpt lat="46.4918033" lon="11.9358833"><ele>1488.0</ele><time>2026-05-02T12:40:40.397Z</time></trkpt><trkpt lat="46.491685" lon="11.9359017"><ele>1492.5</ele><time>2026-05-02T12:40:41.397Z</time></trkpt><trkpt lat="46.4915667" lon="11.9359417"><ele>1497.0</ele><time>2026-05-02T12:40:42.397Z</time></trkpt><trkpt lat="46.4914517" lon="11.9360083"><ele>1497.0</ele><time>2026-05-02T12:40:43.397Z</time></trkpt><trkpt lat="46.4913383" lon="11.9361067"><ele>1497.0</ele><time>2026-05-02T12:40:44.397Z</time></trkpt><trkpt lat="46.4912317" lon="11.9362233"><ele>1497.0</ele><time>2026-05-02T12:40:45.397Z</time></trkpt><trkpt lat="46.4911217" lon="11.9363217"><ele>1497.0</ele><time>2026-05-02T12:40:46.396Z</time></trkpt><trkpt lat="46.4910183" lon="11.9364433"><ele>1497.25</ele><time>2026-05-02T12:40:47.397Z</time></trkpt><trkpt lat="46.4909083" lon="11.9365533"><ele>1497.5</ele><time>2026-05-02T12:40:48.396Z</time></trkpt><trkpt lat="46.4908083" lon="11.9366583"><ele>1497.75</ele><time>2026-05-02T12:40:49.397Z</time></trkpt><trkpt lat="46.4907167" lon="11.9367667"><ele>1498.0</ele><time>2026-05-02T12:40:50.396Z</time></trkpt><trkpt lat="46.49062" lon="11.9368667"><ele>1498.0</ele><time>2026-05-02T12:40:51.397Z</time></trkpt><trkpt lat="46.4905233" lon="11.9369617"><ele>1498.0</ele><time>2026-05-02T12:40:52.397Z</time></trkpt><trkpt lat="46.4904" lon="11.9370417"><ele>1498.0</ele><time>2026-05-02T12:40:53.397Z</time></trkpt><trkpt lat="46.490275" lon="11.937125"><ele>1498.0</ele><time>2026-05-02T12:40:54.397Z</time></trkpt><trkpt lat="46.4901583" lon="11.9372367"><ele>1495.5</ele><time>2026-05-02T12:40:55.397Z</time></trkpt><trkpt lat="46.4900533" lon="11.937385"><ele>1493.0</ele><time>2026-05-02T12:40:56.397Z</time></trkpt><trkpt lat="46.48995" lon="11.93752"><ele>1490.5</ele><time>2026-05-02T12:40:57.397Z</time></trkpt><trkpt lat="46.4898533" lon="11.9376467"><ele>1488.0</ele><time>2026-05-02T12:40:58.397Z</time></trkpt><trkpt lat="46.489755" lon="11.93777"><ele>1488.0</ele><time>2026-05-02T12:40:59.397Z</time></trkpt><trkpt lat="46.4896567" lon="11.9379017"><ele>1488.0</ele><time>2026-05-02T12:41:00.397Z</time></trkpt><trkpt lat="46.489555" lon="11.9380783"><ele>1488.0</ele><time>2026-05-02T12:41:01.397Z</time></trkpt><trkpt lat="46.4894533" lon="11.9382983"><ele>1480.3333333333333</ele><time>2026-05-02T12:41:02.396Z</time></trkpt><trkpt lat="46.4893433" lon="11.93856"><ele>1472.6666666666665</ele><time>2026-05-02T12:41:03.397Z</time></trkpt><trkpt lat="46.48922" lon="11.9388233"><ele>1465.0</ele><time>2026-05-02T12:41:04.396Z</time></trkpt><trkpt lat="46.4890917" lon="11.9390717"><ele>1470.3333333333333</ele><time>2026-05-02T12:41:05.397Z</time></trkpt><trkpt lat="46.4889733" lon="11.9393"><ele>1475.6666666666667</ele><time>2026-05-02T12:41:06.397Z</time></trkpt><trkpt lat="46.4888683" lon="11.9395067"><ele>1481.0</ele><time>2026-05-02T12:41:07.397Z</time></trkpt><trkpt lat="46.4887667" lon="11.9397133"><ele>1475.3333333333335</ele><time>2026-05-02T12:41:08.397Z</time></trkpt><trkpt lat="46.4886633" lon="11.9399183"><ele>1469.6666666666667</ele><time>2026-05-02T12:41:09.397Z</time></trkpt><trkpt lat="46.4885733" lon="11.9401283"><ele>1464.0</ele><time>2026-05-02T12:41:10.396Z</time></trkpt><trkpt lat="46.488485" lon="11.9403533"><ele>1464.0</ele><time>2026-05-02T12:41:11.396Z</time></trkpt><trkpt lat="46.4884" lon="11.9405767"><ele>1464.0</ele><time>2026-05-02T12:41:12.397Z</time></trkpt><trkpt lat="46.48832" lon="11.9407967"><ele>1464.0</ele><time>2026-05-02T12:41:13.397Z</time></trkpt><trkpt lat="46.4882383" lon="11.9410117"><ele>1468.6666666666667</ele><time>2026-05-02T12:41:14.397Z</time></trkpt><trkpt lat="46.488155" lon="11.941225"><ele>1473.3333333333335</ele><time>2026-05-02T12:41:15.396Z</time></trkpt><trkpt lat="46.4880667" lon="11.9414383"><ele>1478.0</ele><time>2026-05-02T12:41:16.397Z</time></trkpt><trkpt lat="46.4879833" lon="11.9416517"><ele>1468.0</ele><time>2026-05-02T12:41:17.397Z</time></trkpt><trkpt lat="46.4878983" lon="11.9418583"><ele>1458.0</ele><time>2026-05-02T12:41:18.396Z</time></trkpt><trkpt lat="46.4878233" lon="11.9420567"><ele>1448.0</ele><time>2026-05-02T12:41:19.397Z</time></trkpt><trkpt lat="46.4877667" lon="11.9422683"><ele>1448.0</ele><time>2026-05-02T12:41:20.397Z</time></trkpt><trkpt lat="46.4877317" lon="11.942485"><ele>1448.0</ele><time>2026-05-02T12:41:21.397Z</time></trkpt><trkpt lat="46.48772" lon="11.9427133"><ele>1448.0</ele><time>2026-05-02T12:41:22.397Z</time></trkpt><trkpt lat="46.4877167" lon="11.94296"><ele>1451.3333333333335</ele><time>2026-05-02T12:41:23.396Z</time></trkpt><trkpt lat="46.4877067" lon="11.94319"><ele>1454.6666666666667</ele><time>2026-05-02T12:41:24.397Z</time></trkpt><trkpt lat="46.4876783" lon="11.9434083"><ele>1458.0</ele><time>2026-05-02T12:41:25.396Z</time></trkpt><trkpt lat="46.4876217" lon="11.9436167"><ele>1466.0</ele><time>2026-05-02T12:41:26.397Z</time></trkpt><trkpt lat="46.4875233" lon="11.9438033"><ele>1474.0</ele><time>2026-05-02T12:41:27.397Z</time></trkpt><trkpt lat="46.487395" lon="11.9439733"><ele>1482.0</ele><time>2026-05-02T12:41:28.397Z</time></trkpt><trkpt lat="46.4872467" lon="11.9441517"><ele>1479.3333333333333</ele><time>2026-05-02T12:41:29.397Z</time></trkpt><trkpt lat="46.48711" lon="11.9443383"><ele>1476.6666666666665</ele><time>2026-05-02T12:41:30.397Z</time></trkpt><trkpt lat="46.4869717" lon="11.9445167"><ele>1474.0</ele><time>2026-05-02T12:41:31.397Z</time></trkpt><trkpt lat="46.4868417" lon="11.944685"><ele>1474.0</ele><time>2026-05-02T12:41:32.397Z</time></trkpt><trkpt lat="46.4867167" lon="11.944835"><ele>1474.0</ele><time>2026-05-02T12:41:33.397Z</time></trkpt><trkpt lat="46.4865933" lon="11.944965"><ele>1474.0</ele><time>2026-05-02T12:41:34.397Z</time></trkpt><trkpt lat="46.4864733" lon="11.9451"><ele>1472.0</ele><time>2026-05-02T12:41:35.397Z</time></trkpt><trkpt lat="46.4863367" lon="11.9452517"><ele>1470.0</ele><time>2026-05-02T12:41:36.397Z</time></trkpt><trkpt lat="46.4861917" lon="11.9454033"><ele>1468.0</ele><time>2026-05-02T12:41:37.397Z</time></trkpt><trkpt lat="46.4860467" lon="11.9455633"><ele>1468.0</ele><time>2026-05-02T12:41:38.396Z</time></trkpt><trkpt lat="46.4859117" lon="11.9457283"><ele>1468.0</ele><time>2026-05-02T12:41:39.397Z</time></trkpt><trkpt lat="46.485785" lon="11.9459017"><ele>1468.0</ele><time>2026-05-02T12:41:40.397Z</time></trkpt><trkpt lat="46.4856633" lon="11.946085"><ele>1467.3333333333333</ele><time>2026-05-02T12:41:41.396Z</time></trkpt><trkpt lat="46.48554" lon="11.946255"><ele>1466.6666666666667</ele><time>2026-05-02T12:41:42.397Z</time></trkpt><trkpt lat="46.485425" lon="11.94643"><ele>1466.0</ele><time>2026-05-02T12:41:43.397Z</time></trkpt><trkpt lat="46.4853167" lon="11.9465833"><ele>1470.3333333333335</ele><time>2026-05-02T12:41:44.396Z</time></trkpt><trkpt lat="46.4852233" lon="11.9467567"><ele>1474.6666666666667</ele><time>2026-05-02T12:41:45.396Z</time></trkpt><trkpt lat="46.48513" lon="11.946935"><ele>1479.0</ele><time>2026-05-02T12:41:46.396Z</time></trkpt><trkpt lat="46.4850533" lon="11.9471217"><ele>1479.0</ele><time>2026-05-02T12:41:47.397Z</time></trkpt><trkpt lat="46.4849833" lon="11.9473383"><ele>1479.0</ele><time>2026-05-02T12:41:48.397Z</time></trkpt><trkpt lat="46.4849033" lon="11.9475483"><ele>1479.0</ele><time>2026-05-02T12:41:49.397Z</time></trkpt><trkpt lat="46.48483" lon="11.94777"><ele>1477.6666666666667</ele><time>2026-05-02T12:41:50.396Z</time></trkpt><trkpt lat="46.4847517" lon="11.9479933"><ele>1476.3333333333335</ele><time>2026-05-02T12:41:51.397Z</time></trkpt><trkpt lat="46.4846633" lon="11.9481967"><ele>1475.0</ele><time>2026-05-02T12:41:52.396Z</time></trkpt><trkpt lat="46.4845717" lon="11.9483767"><ele>1475.0</ele><time>2026-05-02T12:41:53.397Z</time></trkpt><trkpt lat="46.48449" lon="11.9485467"><ele>1475.0</ele><time>2026-05-02T12:41:54.397Z</time></trkpt><trkpt lat="46.4844117" lon="11.94872"><ele>1475.0</ele><time>2026-05-02T12:41:55.397Z</time></trkpt><trkpt lat="46.4843233" lon="11.9488833"><ele>1475.0</ele><time>2026-05-02T12:41:56.397Z</time></trkpt><trkpt lat="46.4842283" lon="11.949045"><ele>1482.0</ele><time>2026-05-02T12:41:57.397Z</time></trkpt><trkpt lat="46.48414" lon="11.9492167"><ele>1489.0</ele><time>2026-05-02T12:41:58.397Z</time></trkpt><trkpt lat="46.484045" lon="11.9494"><ele>1496.0</ele><time>2026-05-02T12:41:59.396Z</time></trkpt><trkpt lat="46.4839483" lon="11.9495917"><ele>1496.0</ele><time>2026-05-02T12:42:00.397Z</time></trkpt><trkpt lat="46.4838567" lon="11.9498033"><ele>1496.0</ele><time>2026-05-02T12:42:01.396Z</time></trkpt><trkpt lat="46.4837683" lon="11.950025"><ele>1496.0</ele><time>2026-05-02T12:42:02.396Z</time></trkpt><trkpt lat="46.4836833" lon="11.9502433"><ele>1482.6666666666667</ele><time>2026-05-02T12:42:03.397Z</time></trkpt><trkpt lat="46.4835933" lon="11.9504467"><ele>1469.3333333333333</ele><time>2026-05-02T12:42:04.397Z</time></trkpt><trkpt lat="46.4835067" lon="11.95063"><ele>1456.0</ele><time>2026-05-02T12:42:05.397Z</time></trkpt><trkpt lat="46.4834283" lon="11.9507967"><ele>1464.25</ele><time>2026-05-02T12:42:06.397Z</time></trkpt><trkpt lat="46.483365" lon="11.9509667"><ele>1472.5</ele><time>2026-05-02T12:42:07.397Z</time></trkpt><trkpt lat="46.48332" lon="11.95116"><ele>1480.75</ele><time>2026-05-02T12:42:08.397Z</time></trkpt><trkpt lat="46.4833" lon="11.95137"><ele>1489.0</ele><time>2026-05-02T12:42:09.396Z</time></trkpt><trkpt lat="46.4832817" lon="11.9515717"><ele>1496.25</ele><time>2026-05-02T12:42:10.397Z</time></trkpt><trkpt lat="46.4832567" lon="11.9517583"><ele>1503.5</ele><time>2026-05-02T12:42:11.397Z</time></trkpt><trkpt lat="46.4832083" lon="11.95192"><ele>1510.75</ele><time>2026-05-02T12:42:12.397Z</time></trkpt><trkpt lat="46.4831417" lon="11.9520717"><ele>1518.0</ele><time>2026-05-02T12:42:13.397Z</time></trkpt><trkpt lat="46.4830283" lon="11.9521683"><ele>1506.5</ele><time>2026-05-02T12:42:14.397Z</time></trkpt><trkpt lat="46.4829033" lon="11.9522383"><ele>1495.0</ele><time>2026-05-02T12:42:15.397Z</time></trkpt><trkpt lat="46.482755" lon="11.9522867"><ele>1483.5</ele><time>2026-05-02T12:42:16.396Z</time></trkpt><trkpt lat="46.4826033" lon="11.9523367"><ele>1472.0</ele><time>2026-05-02T12:42:17.397Z</time></trkpt><trkpt lat="46.4824667" lon="11.9523883"><ele>1472.0</ele><time>2026-05-02T12:42:18.397Z</time></trkpt><trkpt lat="46.4823483" lon="11.9524383"><ele>1472.0</ele><time>2026-05-02T12:42:19.397Z</time></trkpt><trkpt lat="46.4822483" lon="11.9525133"><ele>1472.0</ele><time>2026-05-02T12:42:20.397Z</time></trkpt><trkpt lat="46.4821467" lon="11.952615"><ele>1472.0</ele><time>2026-05-02T12:42:21.397Z</time></trkpt><trkpt lat="46.4820483" lon="11.9527317"><ele>1470.75</ele><time>2026-05-02T12:42:22.397Z</time></trkpt><trkpt lat="46.4819483" lon="11.95285"><ele>1469.5</ele><time>2026-05-02T12:42:23.397Z</time></trkpt><trkpt lat="46.481865" lon="11.9529733"><ele>1468.25</ele><time>2026-05-02T12:42:24.397Z</time></trkpt><trkpt lat="46.4817867" lon="11.9531117"><ele>1467.0</ele><time>2026-05-02T12:42:25.397Z</time></trkpt><trkpt lat="46.4817283" lon="11.953235"><ele>1468.3999999999999</ele><time>2026-05-02T12:42:26.397Z</time></trkpt><trkpt lat="46.48167" lon="11.953375"><ele>1469.8</ele><time>2026-05-02T12:42:27.396Z</time></trkpt><trkpt lat="46.48163" lon="11.9535267"><ele>1471.2</ele><time>2026-05-02T12:42:28.397Z</time></trkpt><trkpt lat="46.4815933" lon="11.9536583"><ele>1472.6</ele><time>2026-05-02T12:42:29.396Z</time></trkpt><trkpt lat="46.481575" lon="11.9537783"><ele>1474.0</ele><time>2026-05-02T12:42:30.397Z</time></trkpt><trkpt lat="46.4815717" lon="11.9539"><ele>1474.0</ele><time>2026-05-02T12:42:31.397Z</time></trkpt><trkpt lat="46.4815683" lon="11.954005"><ele>1474.0</ele><time>2026-05-02T12:42:32.397Z</time></trkpt><trkpt lat="46.4815683" lon="11.9541167"><ele>1474.0</ele><time>2026-05-02T12:42:33.396Z</time></trkpt><trkpt lat="46.481575" lon="11.9542383"><ele>1474.0</ele><time>2026-05-02T12:42:34.396Z</time></trkpt><trkpt lat="46.4815783" lon="11.9543433"><ele>1474.0</ele><time>2026-05-02T12:42:35.397Z</time></trkpt><trkpt lat="46.48162" lon="11.9544383"><ele>1474.0</ele><time>2026-05-02T12:42:36.397Z</time></trkpt><trkpt lat="46.4816833" lon="11.9545333"><ele>1472.0</ele><time>2026-05-02T12:42:37.397Z</time></trkpt><trkpt lat="46.4817583" lon="11.95461"><ele>1470.0</ele><time>2026-05-02T12:42:38.397Z</time></trkpt><trkpt lat="46.4818367" lon="11.9546833"><ele>1468.0</ele><time>2026-05-02T12:42:39.396Z</time></trkpt><trkpt lat="46.4819317" lon="11.9547533"><ele>1466.0</ele><time>2026-05-02T12:42:40.397Z</time></trkpt><trkpt lat="46.4820183" lon="11.9548367"><ele>1464.0</ele><time>2026-05-02T12:42:41.397Z</time></trkpt><trkpt lat="46.4821017" lon="11.9548933"><ele>1468.4</ele><time>2026-05-02T12:42:42.397Z</time></trkpt><trkpt lat="46.4821767" lon="11.95497"><ele>1472.8000000000002</ele><time>2026-05-02T12:42:43.397Z</time></trkpt><trkpt lat="46.48224" lon="11.9550433"><ele>1477.1999999999998</ele><time>2026-05-02T12:42:44.397Z</time></trkpt><trkpt lat="46.48228" lon="11.955135"><ele>1481.6</ele><time>2026-05-02T12:42:45.397Z</time></trkpt><trkpt lat="46.4822483" lon="11.9553017"><ele>1486.0</ele><time>2026-05-02T12:42:47.397Z</time></trkpt><trkpt lat="46.4821767" lon="11.955375"><ele>1483.75</ele><time>2026-05-02T12:42:48.396Z</time></trkpt><trkpt lat="46.4820867" lon="11.9554267"><ele>1481.5</ele><time>2026-05-02T12:42:49.397Z</time></trkpt><trkpt lat="46.48196" lon="11.955445"><ele>1479.25</ele><time>2026-05-02T12:42:50.397Z</time></trkpt><trkpt lat="46.481825" lon="11.95546"><ele>1477.0</ele><time>2026-05-02T12:42:51.396Z</time></trkpt><trkpt lat="46.4816817" lon="11.9554433"><ele>1477.0</ele><time>2026-05-02T12:42:52.397Z</time></trkpt><trkpt lat="46.4815433" lon="11.9554067"><ele>1477.0</ele><time>2026-05-02T12:42:53.397Z</time></trkpt><trkpt lat="46.4814083" lon="11.95536"><ele>1477.0</ele><time>2026-05-02T12:42:54.397Z</time></trkpt><trkpt lat="46.48129" lon="11.9553433"><ele>1477.0</ele><time>2026-05-02T12:42:55.397Z</time></trkpt><trkpt lat="46.4811817" lon="11.95537"><ele>1475.5</ele><time>2026-05-02T12:42:56.396Z</time></trkpt><trkpt lat="46.4810733" lon="11.9554433"><ele>1474.0</ele><time>2026-05-02T12:42:57.397Z</time></trkpt><trkpt lat="46.480955" lon="11.95556"><ele>1472.5</ele><time>2026-05-02T12:42:58.396Z</time></trkpt><trkpt lat="46.4808333" lon="11.9557183"><ele>1471.0</ele><time>2026-05-02T12:42:59.396Z</time></trkpt><trkpt lat="46.4807033" lon="11.9558883"><ele>1471.0</ele><time>2026-05-02T12:43:00.397Z</time></trkpt><trkpt lat="46.4805867" lon="11.9560533"><ele>1471.0</ele><time>2026-05-02T12:43:01.397Z</time></trkpt><trkpt lat="46.48048" lon="11.956215"><ele>1471.0</ele><time>2026-05-02T12:43:02.397Z</time></trkpt><trkpt lat="46.4803917" lon="11.9563767"><ele>1466.75</ele><time>2026-05-02T12:43:03.397Z</time></trkpt><trkpt lat="46.4803117" lon="11.9565533"><ele>1462.5</ele><time>2026-05-02T12:43:04.397Z</time></trkpt><trkpt lat="46.4802283" lon="11.95673"><ele>1458.25</ele><time>2026-05-02T12:43:05.396Z</time></trkpt><trkpt lat="46.4801567" lon="11.9569183"><ele>1454.0</ele><time>2026-05-02T12:43:06.396Z</time></trkpt><trkpt lat="46.4800933" lon="11.957105"><ele>1454.0</ele><time>2026-05-02T12:43:07.396Z</time></trkpt><trkpt lat="46.4800367" lon="11.9572933"><ele>1454.0</ele><time>2026-05-02T12:43:08.396Z</time></trkpt><trkpt lat="46.4799717" lon="11.9574717"><ele>1454.0</ele><time>2026-05-02T12:43:09.397Z</time></trkpt><trkpt lat="46.4799033" lon="11.9576483"><ele>1454.0</ele><time>2026-05-02T12:43:10.397Z</time></trkpt><trkpt lat="46.479835" lon="11.9578217"><ele>1452.0</ele><time>2026-05-02T12:43:11.396Z</time></trkpt><trkpt lat="46.479765" lon="11.9579917"><ele>1450.0</ele><time>2026-05-02T12:43:12.397Z</time></trkpt><trkpt lat="46.4796967" lon="11.9581583"><ele>1448.0</ele><time>2026-05-02T12:43:13.397Z</time></trkpt><trkpt lat="46.4796233" lon="11.9583267"><ele>1446.0</ele><time>2026-05-02T12:43:14.397Z</time></trkpt><trkpt lat="46.4795533" lon="11.9584883"><ele>1446.0</ele><time>2026-05-02T12:43:15.396Z</time></trkpt><trkpt lat="46.4794733" lon="11.9586483"><ele>1446.0</ele><time>2026-05-02T12:43:16.396Z</time></trkpt><trkpt lat="46.4793867" lon="11.9588133"><ele>1446.0</ele><time>2026-05-02T12:43:17.396Z</time></trkpt><trkpt lat="46.479305" lon="11.9589917"><ele>1446.0</ele><time>2026-05-02T12:43:18.396Z</time></trkpt><trkpt lat="46.4792233" lon="11.9591633"><ele>1454.5</ele><time>2026-05-02T12:43:19.397Z</time></trkpt><trkpt lat="46.4791383" lon="11.95932"><ele>1463.0</ele><time>2026-05-02T12:43:20.397Z</time></trkpt><trkpt lat="46.4790567" lon="11.95948"><ele>1471.5</ele><time>2026-05-02T12:43:21.397Z</time></trkpt><trkpt lat="46.4789717" lon="11.9596317"><ele>1480.0</ele><time>2026-05-02T12:43:22.397Z</time></trkpt><trkpt lat="46.47889" lon="11.959775"><ele>1480.0</ele><time>2026-05-02T12:43:23.397Z</time></trkpt><trkpt lat="46.4788083" lon="11.95991"><ele>1480.0</ele><time>2026-05-02T12:43:24.396Z</time></trkpt><trkpt lat="46.47873" lon="11.9600433"><ele>1480.0</ele><time>2026-05-02T12:43:25.396Z</time></trkpt><trkpt lat="46.4786483" lon="11.96018"><ele>1480.0</ele><time>2026-05-02T12:43:26.397Z</time></trkpt><trkpt lat="46.4785683" lon="11.9603267"><ele>1472.6666666666665</ele><time>2026-05-02T12:43:27.397Z</time></trkpt><trkpt lat="46.4784817" lon="11.96049"><ele>1465.3333333333333</ele><time>2026-05-02T12:43:28.396Z</time></trkpt><trkpt lat="46.4783883" lon="11.960665"><ele>1458.0</ele><time>2026-05-02T12:43:29.397Z</time></trkpt><trkpt lat="46.4782783" lon="11.9608467"><ele>1453.6666666666667</ele><time>2026-05-02T12:43:30.396Z</time></trkpt><trkpt lat="46.4781633" lon="11.9610317"><ele>1449.3333333333335</ele><time>2026-05-02T12:43:31.396Z</time></trkpt><trkpt lat="46.4780533" lon="11.9612133"><ele>1445.0</ele><time>2026-05-02T12:43:32.396Z</time></trkpt><trkpt lat="46.47793" lon="11.961395"><ele>1445.0</ele><time>2026-05-02T12:43:33.397Z</time></trkpt><trkpt lat="46.477795" lon="11.9615733"><ele>1445.0</ele><time>2026-05-02T12:43:34.397Z</time></trkpt><trkpt lat="46.47765" lon="11.96174"><ele>1445.0</ele><time>2026-05-02T12:43:35.397Z</time></trkpt><trkpt lat="46.4774983" lon="11.9618983"><ele>1441.3333333333335</ele><time>2026-05-02T12:43:36.397Z</time></trkpt><trkpt lat="46.477345" lon="11.96207"><ele>1437.6666666666667</ele><time>2026-05-02T12:43:37.396Z</time></trkpt><trkpt lat="46.47719" lon="11.9622433"><ele>1434.0</ele><time>2026-05-02T12:43:38.397Z</time></trkpt><trkpt lat="46.4770367" lon="11.9624333"><ele>1442.6666666666667</ele><time>2026-05-02T12:43:39.397Z</time></trkpt><trkpt lat="46.4768967" lon="11.96264"><ele>1451.3333333333335</ele><time>2026-05-02T12:43:40.397Z</time></trkpt><trkpt lat="46.4767667" lon="11.962845"><ele>1460.0</ele><time>2026-05-02T12:43:41.397Z</time></trkpt><trkpt lat="46.4766317" lon="11.9630267"><ele>1460.0</ele><time>2026-05-02T12:43:42.397Z</time></trkpt><trkpt lat="46.4764967" lon="11.963215"><ele>1460.0</ele><time>2026-05-02T12:43:43.397Z</time></trkpt><trkpt lat="46.47638" lon="11.9634167"><ele>1460.0</ele><time>2026-05-02T12:43:44.397Z</time></trkpt><trkpt lat="46.4762767" lon="11.9636117"><ele>1455.6666666666667</ele><time>2026-05-02T12:43:45.396Z</time></trkpt><trkpt lat="46.4761783" lon="11.9637967"><ele>1451.3333333333333</ele><time>2026-05-02T12:43:46.396Z</time></trkpt><trkpt lat="46.476105" lon="11.9639983"><ele>1447.0</ele><time>2026-05-02T12:43:47.396Z</time></trkpt><trkpt lat="46.4760417" lon="11.9642033"><ele>1447.0</ele><time>2026-05-02T12:43:48.397Z</time></trkpt><trkpt lat="46.47599" lon="11.9644283"><ele>1447.0</ele><time>2026-05-02T12:43:49.397Z</time></trkpt><trkpt lat="46.47595" lon="11.9646617"><ele>1447.0</ele><time>2026-05-02T12:43:50.397Z</time></trkpt><trkpt lat="46.4759033" lon="11.964875"><ele>1447.75</ele><time>2026-05-02T12:43:51.397Z</time></trkpt><trkpt lat="46.4758667" lon="11.9650883"><ele>1448.5</ele><time>2026-05-02T12:43:52.397Z</time></trkpt><trkpt lat="46.475855" lon="11.9653"><ele>1449.25</ele><time>2026-05-02T12:43:53.397Z</time></trkpt><trkpt lat="46.4758517" lon="11.9655133"><ele>1450.0</ele><time>2026-05-02T12:43:54.397Z</time></trkpt><trkpt lat="46.47586" lon="11.9657333"><ele>1449.0</ele><time>2026-05-02T12:43:55.396Z</time></trkpt><trkpt lat="46.47586" lon="11.965945"><ele>1448.0</ele><time>2026-05-02T12:43:56.397Z</time></trkpt><trkpt lat="46.475855" lon="11.9661733"><ele>1447.0</ele><time>2026-05-02T12:43:57.397Z</time></trkpt><trkpt lat="46.4758367" lon="11.9663933"><ele>1447.0</ele><time>2026-05-02T12:43:58.397Z</time></trkpt><trkpt lat="46.4758117" lon="11.9666033"><ele>1447.0</ele><time>2026-05-02T12:43:59.397Z</time></trkpt><trkpt lat="46.4758083" lon="11.9668083"><ele>1447.0</ele><time>2026-05-02T12:44:00.396Z</time></trkpt><trkpt lat="46.4758017" lon="11.9670133"><ele>1447.0</ele><time>2026-05-02T12:44:01.396Z</time></trkpt><trkpt lat="46.4758" lon="11.9672183"><ele>1445.3333333333333</ele><time>2026-05-02T12:44:02.397Z</time></trkpt><trkpt lat="46.475815" lon="11.9674383"><ele>1443.6666666666667</ele><time>2026-05-02T12:44:03.397Z</time></trkpt><trkpt lat="46.4758383" lon="11.9676617"><ele>1442.0</ele><time>2026-05-02T12:44:04.397Z</time></trkpt><trkpt lat="46.475875" lon="11.96789"><ele>1441.6666666666667</ele><time>2026-05-02T12:44:05.397Z</time></trkpt><trkpt lat="46.4759133" lon="11.96812"><ele>1441.3333333333333</ele><time>2026-05-02T12:44:06.397Z</time></trkpt><trkpt lat="46.47595" lon="11.9683533"><ele>1441.0</ele><time>2026-05-02T12:44:07.397Z</time></trkpt><trkpt lat="46.4759817" lon="11.968585"><ele>1439.3333333333333</ele><time>2026-05-02T12:44:08.396Z</time></trkpt><trkpt lat="46.476015" lon="11.9688067"><ele>1437.6666666666667</ele><time>2026-05-02T12:44:09.397Z</time></trkpt><trkpt lat="46.4760467" lon="11.96902"><ele>1436.0</ele><time>2026-05-02T12:44:10.397Z</time></trkpt><trkpt lat="46.4760783" lon="11.9692267"><ele>1433.0</ele><time>2026-05-02T12:44:11.397Z</time></trkpt><trkpt lat="46.4761067" lon="11.9694333"><ele>1430.0</ele><time>2026-05-02T12:44:12.397Z</time></trkpt><trkpt lat="46.4761317" lon="11.9696617"><ele>1427.0</ele><time>2026-05-02T12:44:13.396Z</time></trkpt><trkpt lat="46.4761517" lon="11.96989"><ele>1424.75</ele><time>2026-05-02T12:44:14.397Z</time></trkpt><trkpt lat="46.4761633" lon="11.9701083"><ele>1422.5</ele><time>2026-05-02T12:44:15.397Z</time></trkpt><trkpt lat="46.4761833" lon="11.9703117"><ele>1420.25</ele><time>2026-05-02T12:44:16.397Z</time></trkpt><trkpt lat="46.4762033" lon="11.9705033"><ele>1418.0</ele><time>2026-05-02T12:44:17.397Z</time></trkpt><trkpt lat="46.476245" lon="11.970705"><ele>1433.3333333333335</ele><time>2026-05-02T12:44:18.397Z</time></trkpt><trkpt lat="46.4762967" lon="11.9709133"><ele>1448.6666666666667</ele><time>2026-05-02T12:44:19.397Z</time></trkpt><trkpt lat="46.4763433" lon="11.9711317"><ele>1464.0</ele><time>2026-05-02T12:44:20.397Z</time></trkpt><trkpt lat="46.476395" lon="11.971355"><ele>1464.0</ele><time>2026-05-02T12:44:21.397Z</time></trkpt><trkpt lat="46.476435" lon="11.9715833"><ele>1464.0</ele><time>2026-05-02T12:44:22.397Z</time></trkpt><trkpt lat="46.4764483" lon="11.97181"><ele>1464.0</ele><time>2026-05-02T12:44:23.397Z</time></trkpt><trkpt lat="46.4764483" lon="11.9720233"><ele>1461.0</ele><time>2026-05-02T12:44:24.397Z</time></trkpt><trkpt lat="46.4764233" lon="11.9722317"><ele>1458.0</ele><time>2026-05-02T12:44:25.397Z</time></trkpt><trkpt lat="46.4764067" lon="11.9724283"><ele>1455.0</ele><time>2026-05-02T12:44:26.397Z</time></trkpt><trkpt lat="46.4763883" lon="11.972615"><ele>1452.0</ele><time>2026-05-02T12:44:27.397Z</time></trkpt><trkpt lat="46.4763883" lon="11.9727967"><ele>1449.0</ele><time>2026-05-02T12:44:28.397Z</time></trkpt><trkpt lat="46.4763983" lon="11.9729583"><ele>1446.0</ele><time>2026-05-02T12:44:29.397Z</time></trkpt><trkpt lat="46.476435" lon="11.9730917"><ele>1443.0</ele><time>2026-05-02T12:44:30.396Z</time></trkpt><trkpt lat="46.4764883" lon="11.9731967"><ele>1440.0</ele><time>2026-05-02T12:44:31.397Z</time></trkpt><trkpt lat="46.4765617" lon="11.9732933"><ele>1437.0</ele><time>2026-05-02T12:44:32.397Z</time></trkpt><trkpt lat="46.4766717" lon="11.9733833"><ele>1437.5</ele><time>2026-05-02T12:44:33.397Z</time></trkpt><trkpt lat="46.4767917" lon="11.9734717"><ele>1438.0</ele><time>2026-05-02T12:44:34.397Z</time></trkpt><trkpt lat="46.476925" lon="11.97355"><ele>1438.5</ele><time>2026-05-02T12:44:35.397Z</time></trkpt><trkpt lat="46.47705" lon="11.973625"><ele>1439.0</ele><time>2026-05-02T12:44:36.397Z</time></trkpt><trkpt lat="46.4771667" lon="11.9737167"><ele>1439.0</ele><time>2026-05-02T12:44:37.397Z</time></trkpt><trkpt lat="46.4772617" lon="11.973845"><ele>1439.0</ele><time>2026-05-02T12:44:38.397Z</time></trkpt><trkpt lat="46.4773317" lon="11.97399"><ele>1439.0</ele><time>2026-05-02T12:44:39.397Z</time></trkpt><trkpt lat="46.4773917" lon="11.9741567"><ele>1439.0</ele><time>2026-05-02T12:44:40.396Z</time></trkpt><trkpt lat="46.477445" lon="11.9743117"><ele>1432.8000000000002</ele><time>2026-05-02T12:44:41.397Z</time></trkpt><trkpt lat="46.4775" lon="11.9744533"><ele>1426.6000000000001</ele><time>2026-05-02T12:44:42.396Z</time></trkpt><trkpt lat="46.4775667" lon="11.9745433"><ele>1420.4</ele><time>2026-05-02T12:44:43.397Z</time></trkpt><trkpt lat="46.4776367" lon="11.9745833"><ele>1414.2</ele><time>2026-05-02T12:44:44.396Z</time></trkpt><trkpt lat="46.4777267" lon="11.974585"><ele>1408.0</ele><time>2026-05-02T12:44:45.397Z</time></trkpt><trkpt lat="46.4778367" lon="11.9745233"><ele>1416.25</ele><time>2026-05-02T12:44:46.397Z</time></trkpt><trkpt lat="46.47794" lon="11.9745033"><ele>1424.5</ele><time>2026-05-02T12:44:47.397Z</time></trkpt><trkpt lat="46.4780367" lon="11.9745317"><ele>1432.75</ele><time>2026-05-02T12:44:48.397Z</time></trkpt><trkpt lat="46.47813" lon="11.97462"><ele>1441.0</ele><time>2026-05-02T12:44:49.396Z</time></trkpt><trkpt lat="46.4782183" lon="11.9747867"><ele>1441.0</ele><time>2026-05-02T12:44:50.397Z</time></trkpt><trkpt lat="46.478295" lon="11.97499"><ele>1441.0</ele><time>2026-05-02T12:44:51.396Z</time></trkpt><trkpt lat="46.478365" lon="11.9752117"><ele>1441.0</ele><time>2026-05-02T12:44:52.396Z</time></trkpt><trkpt lat="46.4784367" lon="11.97542"><ele>1433.75</ele><time>2026-05-02T12:44:53.397Z</time></trkpt><trkpt lat="46.47849" lon="11.9756167"><ele>1426.5</ele><time>2026-05-02T12:44:54.397Z</time></trkpt><trkpt lat="46.4785467" lon="11.9757933"><ele>1419.25</ele><time>2026-05-02T12:44:55.396Z</time></trkpt><trkpt lat="46.4786083" lon="11.9759533"><ele>1412.0</ele><time>2026-05-02T12:44:56.396Z</time></trkpt><trkpt lat="46.47866" lon="11.9761033"><ele>1411.0</ele><time>2026-05-02T12:44:57.396Z</time></trkpt><trkpt lat="46.4787567" lon="11.976235"><ele>1410.0</ele><time>2026-05-02T12:44:58.397Z</time></trkpt><trkpt lat="46.4788617" lon="11.9762733"><ele>1409.0</ele><time>2026-05-02T12:44:59.396Z</time></trkpt><trkpt lat="46.4789717" lon="11.97629"><ele>1408.0</ele><time>2026-05-02T12:45:00.397Z</time></trkpt><trkpt lat="46.4790933" lon="11.9762783"><ele>1408.0</ele><time>2026-05-02T12:45:01.397Z</time></trkpt><trkpt lat="46.4792067" lon="11.97622"><ele>1408.0</ele><time>2026-05-02T12:45:02.397Z</time></trkpt><trkpt lat="46.4793" lon="11.9761183"><ele>1408.0</ele><time>2026-05-02T12:45:03.397Z</time></trkpt><trkpt lat="46.47937" lon="11.9760433"><ele>1408.0</ele><time>2026-05-02T12:45:04.396Z</time></trkpt><trkpt lat="46.4794383" lon="11.9760133"><ele>1408.0</ele><time>2026-05-02T12:45:05.397Z</time></trkpt><trkpt lat="46.4794967" lon="11.9760517"><ele>1408.0</ele><time>2026-05-02T12:45:06.396Z</time></trkpt><trkpt lat="46.479555" lon="11.976145"><ele>1408.0</ele><time>2026-05-02T12:45:07.397Z</time></trkpt><trkpt lat="46.4796067" lon="11.9762717"><ele>1408.0</ele><time>2026-05-02T12:45:08.397Z</time></trkpt><trkpt lat="46.4796683" lon="11.9764317"><ele>1408.0</ele><time>2026-05-02T12:45:09.397Z</time></trkpt><trkpt lat="46.4797467" lon="11.976575"><ele>1408.0</ele><time>2026-05-02T12:45:10.396Z</time></trkpt><trkpt lat="46.479855" lon="11.9767133"><ele>1410.25</ele><time>2026-05-02T12:45:11.396Z</time></trkpt><trkpt lat="46.4799717" lon="11.9768117"><ele>1412.5</ele><time>2026-05-02T12:45:12.397Z</time></trkpt><trkpt lat="46.4801083" lon="11.9768533"><ele>1414.75</ele><time>2026-05-02T12:45:13.397Z</time></trkpt><trkpt lat="46.480235" lon="11.9769017"><ele>1417.0</ele><time>2026-05-02T12:45:14.397Z</time></trkpt><trkpt lat="46.4803317" lon="11.976965"><ele>1417.0</ele><time>2026-05-02T12:45:15.397Z</time></trkpt><trkpt lat="46.4803967" lon="11.9770033"><ele>1417.0</ele><time>2026-05-02T12:45:16.397Z</time></trkpt><trkpt lat="46.48041" lon="11.97714"><ele>1417.0</ele><time>2026-05-02T12:45:17.396Z</time></trkpt><trkpt lat="46.4803967" lon="11.977285"><ele>1417.0</ele><time>2026-05-02T12:45:18.396Z</time></trkpt><trkpt lat="46.4803683" lon="11.9774433"><ele>1417.0</ele><time>2026-05-02T12:45:19.397Z</time></trkpt><trkpt lat="46.480295" lon="11.9776067"><ele>1417.25</ele><time>2026-05-02T12:45:20.397Z</time></trkpt><trkpt lat="46.48021" lon="11.977775"><ele>1417.5</ele><time>2026-05-02T12:45:21.397Z</time></trkpt><trkpt lat="46.4801067" lon="11.9779317"><ele>1417.75</ele><time>2026-05-02T12:45:22.397Z</time></trkpt><trkpt lat="46.479995" lon="11.978075"><ele>1418.0</ele><time>2026-05-02T12:45:23.397Z</time></trkpt><trkpt lat="46.479875" lon="11.9781683"><ele>1418.0</ele><time>2026-05-02T12:45:24.397Z</time></trkpt><trkpt lat="46.4798033" lon="11.9782717"><ele>1418.0</ele><time>2026-05-02T12:45:25.397Z</time></trkpt><trkpt lat="46.479795" lon="11.9783967"><ele>1418.0</ele><time>2026-05-02T12:45:26.397Z</time></trkpt><trkpt lat="46.47983" lon="11.9785267"><ele>1418.0</ele><time>2026-05-02T12:45:27.396Z</time></trkpt><trkpt lat="46.47992" lon="11.9786883"><ele>1418.0</ele><time>2026-05-02T12:45:28.397Z</time></trkpt><trkpt lat="46.4800217" lon="11.97883"><ele>1425.25</ele><time>2026-05-02T12:45:29.397Z</time></trkpt><trkpt lat="46.4801383" lon="11.9789217"><ele>1432.5</ele><time>2026-05-02T12:45:30.397Z</time></trkpt><trkpt lat="46.480245" lon="11.9789517"><ele>1439.75</ele><time>2026-05-02T12:45:31.397Z</time></trkpt><trkpt lat="46.48036" lon="11.9789617"><ele>1447.0</ele><time>2026-05-02T12:45:32.397Z</time></trkpt><trkpt lat="46.4804733" lon="11.979"><ele>1447.0</ele><time>2026-05-02T12:45:33.397Z</time></trkpt><trkpt lat="46.4805717" lon="11.9790967"><ele>1447.0</ele><time>2026-05-02T12:45:34.397Z</time></trkpt><trkpt lat="46.48064" lon="11.979265"><ele>1447.0</ele><time>2026-05-02T12:45:35.397Z</time></trkpt><trkpt lat="46.480705" lon="11.9794833"><ele>1447.0</ele><time>2026-05-02T12:45:36.397Z</time></trkpt><trkpt lat="46.4807767" lon="11.9797117"><ele>1438.0</ele><time>2026-05-02T12:45:37.397Z</time></trkpt><trkpt lat="46.4808517" lon="11.9799267"><ele>1429.0</ele><time>2026-05-02T12:45:38.397Z</time></trkpt><trkpt lat="46.48094" lon="11.9801267"><ele>1420.0</ele><time>2026-05-02T12:45:39.397Z</time></trkpt><trkpt lat="46.48104" lon="11.9803133"><ele>1427.3333333333333</ele><time>2026-05-02T12:45:40.397Z</time></trkpt><trkpt lat="46.48115" lon="11.9804933"><ele>1434.6666666666667</ele><time>2026-05-02T12:45:41.396Z</time></trkpt><trkpt lat="46.4812767" lon="11.98067"><ele>1442.0</ele><time>2026-05-02T12:45:42.397Z</time></trkpt><trkpt lat="46.48141" lon="11.980845"><ele>1431.0</ele><time>2026-05-02T12:45:43.397Z</time></trkpt><trkpt lat="46.4815517" lon="11.9810183"><ele>1420.0</ele><time>2026-05-02T12:45:44.397Z</time></trkpt><trkpt lat="46.481695" lon="11.9811983"><ele>1409.0</ele><time>2026-05-02T12:45:45.397Z</time></trkpt><trkpt lat="46.4818367" lon="11.98139"><ele>1409.0</ele><time>2026-05-02T12:45:46.397Z</time></trkpt><trkpt lat="46.4819733" lon="11.9815633"><ele>1409.0</ele><time>2026-05-02T12:45:47.396Z</time></trkpt><trkpt lat="46.482125" lon="11.981695"><ele>1409.0</ele><time>2026-05-02T12:45:48.397Z</time></trkpt><trkpt lat="46.4822883" lon="11.9818083"><ele>1411.3333333333335</ele><time>2026-05-02T12:45:49.397Z</time></trkpt><trkpt lat="46.482455" lon="11.9818917"><ele>1413.6666666666667</ele><time>2026-05-02T12:45:50.397Z</time></trkpt><trkpt lat="46.4826233" lon="11.9819583"><ele>1416.0</ele><time>2026-05-02T12:45:51.397Z</time></trkpt><trkpt lat="46.4827917" lon="11.9820333"><ele>1421.6666666666667</ele><time>2026-05-02T12:45:52.397Z</time></trkpt><trkpt lat="46.48296" lon="11.98212"><ele>1427.3333333333335</ele><time>2026-05-02T12:45:53.397Z</time></trkpt><trkpt lat="46.4831267" lon="11.982205"><ele>1433.0</ele><time>2026-05-02T12:45:54.397Z</time></trkpt><trkpt lat="46.4832967" lon="11.9822933"><ele>1433.0</ele><time>2026-05-02T12:45:55.396Z</time></trkpt><trkpt lat="46.4834617" lon="11.9823933"><ele>1433.0</ele><time>2026-05-02T12:45:56.396Z</time></trkpt><trkpt lat="46.4836167" lon="11.9825117"><ele>1433.0</ele><time>2026-05-02T12:45:57.396Z</time></trkpt><trkpt lat="46.4837633" lon="11.9826367"><ele>1433.0</ele><time>2026-05-02T12:45:58.397Z</time></trkpt><trkpt lat="46.4839067" lon="11.9827683"><ele>1433.0</ele><time>2026-05-02T12:45:59.397Z</time></trkpt><trkpt lat="46.4840583" lon="11.98289"><ele>1433.0</ele><time>2026-05-02T12:46:00.396Z</time></trkpt><trkpt lat="46.4842233" lon="11.98299"><ele>1433.0</ele><time>2026-05-02T12:46:01.397Z</time></trkpt><trkpt lat="46.4844083" lon="11.98308"><ele>1433.0</ele><time>2026-05-02T12:46:02.397Z</time></trkpt><trkpt lat="46.4845917" lon="11.983155"><ele>1433.0</ele><time>2026-05-02T12:46:03.397Z</time></trkpt><trkpt lat="46.4847767" lon="11.983235"><ele>1431.0</ele><time>2026-05-02T12:46:04.397Z</time></trkpt><trkpt lat="46.484945" lon="11.9833267"><ele>1429.0</ele><time>2026-05-02T12:46:05.397Z</time></trkpt><trkpt lat="46.485095" lon="11.983445"><ele>1427.0</ele><time>2026-05-02T12:46:06.397Z</time></trkpt><trkpt lat="46.4852283" lon="11.9835717"><ele>1427.0</ele><time>2026-05-02T12:46:07.397Z</time></trkpt><trkpt lat="46.4853617" lon="11.9837017"><ele>1427.0</ele><time>2026-05-02T12:46:08.397Z</time></trkpt><trkpt lat="46.4854967" lon="11.9838267"><ele>1427.0</ele><time>2026-05-02T12:46:09.397Z</time></trkpt><trkpt lat="46.4856233" lon="11.9839383"><ele>1434.0</ele><time>2026-05-02T12:46:10.397Z</time></trkpt><trkpt lat="46.4857417" lon="11.98404"><ele>1441.0</ele><time>2026-05-02T12:46:11.397Z</time></trkpt><trkpt lat="46.485845" lon="11.9841067"><ele>1448.0</ele><time>2026-05-02T12:46:12.397Z</time></trkpt><trkpt lat="46.48596" lon="11.9841417"><ele>1455.0</ele><time>2026-05-02T12:46:13.397Z</time></trkpt><trkpt lat="46.4860967" lon="11.9841467"><ele>1455.0</ele><time>2026-05-02T12:46:14.397Z</time></trkpt><trkpt lat="46.486245" lon="11.9841083"><ele>1455.0</ele><time>2026-05-02T12:46:15.397Z</time></trkpt><trkpt lat="46.4863767" lon="11.98407"><ele>1455.0</ele><time>2026-05-02T12:46:16.397Z</time></trkpt><trkpt lat="46.4865033" lon="11.9840717"><ele>1455.0</ele><time>2026-05-02T12:46:17.397Z</time></trkpt><trkpt lat="46.48662" lon="11.9841183"><ele>1456.75</ele><time>2026-05-02T12:46:18.397Z</time></trkpt><trkpt lat="46.4867183" lon="11.9842133"><ele>1458.5</ele><time>2026-05-02T12:46:19.397Z</time></trkpt><trkpt lat="46.48681" lon="11.9843533"><ele>1460.25</ele><time>2026-05-02T12:46:20.397Z</time></trkpt><trkpt lat="46.4868717" lon="11.9845267"><ele>1462.0</ele><time>2026-05-02T12:46:21.397Z</time></trkpt><trkpt lat="46.4869017" lon="11.98474"><ele>1462.0</ele><time>2026-05-02T12:46:22.397Z</time></trkpt><trkpt lat="46.4869267" lon="11.9849733"><ele>1462.0</ele><time>2026-05-02T12:46:23.397Z</time></trkpt><trkpt lat="46.486945" lon="11.9852067"><ele>1462.0</ele><time>2026-05-02T12:46:24.396Z</time></trkpt><trkpt lat="46.48696" lon="11.9853883"><ele>1461.3999999999999</ele><time>2026-05-02T12:46:25.397Z</time></trkpt><trkpt lat="46.486985" lon="11.985525"><ele>1460.8</ele><time>2026-05-02T12:46:26.397Z</time></trkpt><trkpt lat="46.4870317" lon="11.9856183"><ele>1460.2</ele><time>2026-05-02T12:46:27.397Z</time></trkpt><trkpt lat="46.487115" lon="11.9856717"><ele>1459.6</ele><time>2026-05-02T12:46:28.397Z</time></trkpt><trkpt lat="46.487205" lon="11.9856867"><ele>1459.0</ele><time>2026-05-02T12:46:29.397Z</time></trkpt><trkpt lat="46.487325" lon="11.98566"><ele>1465.0</ele><time>2026-05-02T12:46:30.397Z</time></trkpt><trkpt lat="46.4874983" lon="11.985595"><ele>1471.0</ele><time>2026-05-02T12:46:31.397Z</time></trkpt><trkpt lat="46.4876483" lon="11.9855383"><ele>1477.0</ele><time>2026-05-02T12:46:32.397Z</time></trkpt><trkpt lat="46.4877633" lon="11.985515"><ele>1477.0</ele><time>2026-05-02T12:46:33.397Z</time></trkpt><trkpt lat="46.4878583" lon="11.9855283"><ele>1477.0</ele><time>2026-05-02T12:46:34.396Z</time></trkpt><trkpt lat="46.4879267" lon="11.9855833"><ele>1477.0</ele><time>2026-05-02T12:46:35.396Z</time></trkpt><trkpt lat="46.4879867" lon="11.9856717"><ele>1477.0</ele><time>2026-05-02T12:46:36.397Z</time></trkpt><trkpt lat="46.488015" lon="11.9858183"><ele>1477.0</ele><time>2026-05-02T12:46:37.397Z</time></trkpt><trkpt lat="46.4880017" lon="11.985975"><ele>1480.0</ele><time>2026-05-02T12:46:38.396Z</time></trkpt><trkpt lat="46.487955" lon="11.9861083"><ele>1483.0</ele><time>2026-05-02T12:46:39.397Z</time></trkpt><trkpt lat="46.4878617" lon="11.9862183"><ele>1486.0</ele><time>2026-05-02T12:46:40.397Z</time></trkpt><trkpt lat="46.4877367" lon="11.9863333"><ele>1489.0</ele><time>2026-05-02T12:46:41.396Z</time></trkpt><trkpt lat="46.4875767" lon="11.9864583"><ele>1489.0</ele><time>2026-05-02T12:46:42.397Z</time></trkpt><trkpt lat="46.4874183" lon="11.9865967"><ele>1489.0</ele><time>2026-05-02T12:46:43.396Z</time></trkpt><trkpt lat="46.48727" lon="11.9867133"><ele>1489.0</ele><time>2026-05-02T12:46:44.397Z</time></trkpt><trkpt lat="46.48715" lon="11.9868017"><ele>1485.75</ele><time>2026-05-02T12:46:45.397Z</time></trkpt><trkpt lat="46.48705" lon="11.9868917"><ele>1482.5</ele><time>2026-05-02T12:46:46.397Z</time></trkpt><trkpt lat="46.48699" lon="11.9869883"><ele>1479.25</ele><time>2026-05-02T12:46:47.397Z</time></trkpt><trkpt lat="46.4869667" lon="11.9871367"><ele>1476.0</ele><time>2026-05-02T12:46:48.397Z</time></trkpt><trkpt lat="46.486985" lon="11.9873367"><ele>1478.0</ele><time>2026-05-02T12:46:49.397Z</time></trkpt><trkpt lat="46.487025" lon="11.98759"><ele>1480.0</ele><time>2026-05-02T12:46:50.397Z</time></trkpt><trkpt lat="46.4870917" lon="11.987825"><ele>1482.0</ele><time>2026-05-02T12:46:51.397Z</time></trkpt><trkpt lat="46.4871783" lon="11.988045"><ele>1486.6666666666667</ele><time>2026-05-02T12:46:52.397Z</time></trkpt><trkpt lat="46.4872883" lon="11.9882433"><ele>1491.3333333333335</ele><time>2026-05-02T12:46:53.397Z</time></trkpt><trkpt lat="46.4874" lon="11.9884283"><ele>1496.0</ele><time>2026-05-02T12:46:54.397Z</time></trkpt><trkpt lat="46.4874967" lon="11.9885967"><ele>1496.0</ele><time>2026-05-02T12:46:55.396Z</time></trkpt><trkpt lat="46.4875867" lon="11.9887483"><ele>1496.0</ele><time>2026-05-02T12:46:56.397Z</time></trkpt><trkpt lat="46.4876517" lon="11.9888767"><ele>1496.0</ele><time>2026-05-02T12:46:57.397Z</time></trkpt><trkpt lat="46.48771" lon="11.98901"><ele>1496.0</ele><time>2026-05-02T12:46:58.396Z</time></trkpt><trkpt lat="46.4877567" lon="11.9891483"><ele>1497.1666666666667</ele><time>2026-05-02T12:46:59.397Z</time></trkpt><trkpt lat="46.487795" lon="11.989285"><ele>1498.3333333333335</ele><time>2026-05-02T12:47:00.397Z</time></trkpt><trkpt lat="46.4878383" lon="11.9894133"><ele>1499.5</ele><time>2026-05-02T12:47:01.397Z</time></trkpt><trkpt lat="46.48788" lon="11.989515"><ele>1500.6666666666667</ele><time>2026-05-02T12:47:02.397Z</time></trkpt><trkpt lat="46.48792" lon="11.9895933"><ele>1501.8333333333333</ele><time>2026-05-02T12:47:03.397Z</time></trkpt><trkpt lat="46.4879733" lon="11.989645"><ele>1503.0</ele><time>2026-05-02T12:47:04.396Z</time></trkpt><trkpt lat="46.4880367" lon="11.9896467"><ele>1501.6000000000001</ele><time>2026-05-02T12:47:05.397Z</time></trkpt><trkpt lat="46.4880767" lon="11.98955"><ele>1500.2</ele><time>2026-05-02T12:47:06.396Z</time></trkpt><trkpt lat="46.4880817" lon="11.9894283"><ele>1498.8</ele><time>2026-05-02T12:47:07.397Z</time></trkpt><trkpt lat="46.48805" lon="11.98928"><ele>1497.4</ele><time>2026-05-02T12:47:08.396Z</time></trkpt><trkpt lat="46.4879767" lon="11.98908"><ele>1496.0</ele><time>2026-05-02T12:47:09.396Z</time></trkpt><trkpt lat="46.4878933" lon="11.988835"><ele>1496.0</ele><time>2026-05-02T12:47:10.397Z</time></trkpt><trkpt lat="46.4878117" lon="11.9885617"><ele>1496.0</ele><time>2026-05-02T12:47:11.396Z</time></trkpt><trkpt lat="46.487745" lon="11.9882867"><ele>1496.0</ele><time>2026-05-02T12:47:12.396Z</time></trkpt><trkpt lat="46.4876883" lon="11.9880333"><ele>1497.25</ele><time>2026-05-02T12:47:13.397Z</time></trkpt><trkpt lat="46.4876417" lon="11.9878217"><ele>1498.5</ele><time>2026-05-02T12:47:14.397Z</time></trkpt><trkpt lat="46.487615" lon="11.9876467"><ele>1499.75</ele><time>2026-05-02T12:47:15.397Z</time></trkpt><trkpt lat="46.4876133" lon="11.987505"><ele>1501.0</ele><time>2026-05-02T12:47:16.397Z</time></trkpt><trkpt lat="46.487645" lon="11.9873633"><ele>1501.0</ele><time>2026-05-02T12:47:17.397Z</time></trkpt><trkpt lat="46.4877117" lon="11.987255"><ele>1501.0</ele><time>2026-05-02T12:47:18.397Z</time></trkpt><trkpt lat="46.4878217" lon="11.987175"><ele>1501.0</ele><time>2026-05-02T12:47:19.396Z</time></trkpt><trkpt lat="46.4879717" lon="11.9871233"><ele>1501.0</ele><time>2026-05-02T12:47:20.396Z</time></trkpt><trkpt lat="46.4881383" lon="11.9870833"><ele>1505.25</ele><time>2026-05-02T12:47:21.397Z</time></trkpt><trkpt lat="46.48829" lon="11.9870567"><ele>1509.5</ele><time>2026-05-02T12:47:22.397Z</time></trkpt><trkpt lat="46.4884217" lon="11.9870533"><ele>1513.75</ele><time>2026-05-02T12:47:23.397Z</time></trkpt><trkpt lat="46.4885333" lon="11.9870967"><ele>1518.0</ele><time>2026-05-02T12:47:24.396Z</time></trkpt><trkpt lat="46.488625" lon="11.9871983"><ele>1518.0</ele><time>2026-05-02T12:47:25.397Z</time></trkpt><trkpt lat="46.4887133" lon="11.9873567"><ele>1518.0</ele><time>2026-05-02T12:47:26.397Z</time></trkpt><trkpt lat="46.4887983" lon="11.9875567"><ele>1518.0</ele><time>2026-05-02T12:47:27.397Z</time></trkpt><trkpt lat="46.4888817" lon="11.987725"><ele>1518.0</ele><time>2026-05-02T12:47:28.397Z</time></trkpt><trkpt lat="46.488965" lon="11.98784"><ele>1521.0</ele><time>2026-05-02T12:47:29.397Z</time></trkpt><trkpt lat="46.4890517" lon="11.987895"><ele>1524.0</ele><time>2026-05-02T12:47:30.397Z</time></trkpt><trkpt lat="46.489145" lon="11.9878933"><ele>1527.0</ele><time>2026-05-02T12:47:31.397Z</time></trkpt><trkpt lat="46.4892633" lon="11.98783"><ele>1530.0</ele><time>2026-05-02T12:47:32.397Z</time></trkpt><trkpt lat="46.489405" lon="11.9877267"><ele>1530.0</ele><time>2026-05-02T12:47:33.396Z</time></trkpt><trkpt lat="46.4895333" lon="11.9876483"><ele>1530.0</ele><time>2026-05-02T12:47:34.397Z</time></trkpt><trkpt lat="46.48962" lon="11.987595"><ele>1530.0</ele><time>2026-05-02T12:47:35.397Z</time></trkpt><trkpt lat="46.4896933" lon="11.9875933"><ele>1530.0</ele><time>2026-05-02T12:47:36.397Z</time></trkpt><trkpt lat="46.4897517" lon="11.9876467"><ele>1530.0</ele><time>2026-05-02T12:47:37.397Z</time></trkpt><trkpt lat="46.4897533" lon="11.98775"><ele>1530.0</ele><time>2026-05-02T12:47:38.397Z</time></trkpt><trkpt lat="46.4897183" lon="11.9878817"><ele>1530.0</ele><time>2026-05-02T12:47:39.397Z</time></trkpt><trkpt lat="46.4896567" lon="11.9880433"><ele>1530.0</ele><time>2026-05-02T12:47:40.397Z</time></trkpt><trkpt lat="46.48958" lon="11.9882283"><ele>1530.0</ele><time>2026-05-02T12:47:41.397Z</time></trkpt><trkpt lat="46.4895067" lon="11.9884183"><ele>1530.0</ele><time>2026-05-02T12:47:42.397Z</time></trkpt><trkpt lat="46.4894383" lon="11.98859"><ele>1532.4</ele><time>2026-05-02T12:47:43.397Z</time></trkpt><trkpt lat="46.4893633" lon="11.9887283"><ele>1534.8</ele><time>2026-05-02T12:47:44.396Z</time></trkpt><trkpt lat="46.4892917" lon="11.988845"><ele>1537.1999999999998</ele><time>2026-05-02T12:47:45.397Z</time></trkpt><trkpt lat="46.4892167" lon="11.9889167"><ele>1539.6</ele><time>2026-05-02T12:47:46.397Z</time></trkpt><trkpt lat="46.4891167" lon="11.98896"><ele>1542.0</ele><time>2026-05-02T12:47:47.397Z</time></trkpt><trkpt lat="46.489025" lon="11.989"><ele>1542.0</ele><time>2026-05-02T12:47:48.397Z</time></trkpt><trkpt lat="46.4889367" lon="11.9890283"><ele>1542.0</ele><time>2026-05-02T12:47:49.397Z</time></trkpt><trkpt lat="46.4888667" lon="11.9890783"><ele>1542.0</ele><time>2026-05-02T12:47:50.397Z</time></trkpt><trkpt lat="46.4888167" lon="11.9891467"><ele>1542.0</ele><time>2026-05-02T12:47:51.397Z</time></trkpt><trkpt lat="46.4887817" lon="11.9892317"><ele>1542.0</ele><time>2026-05-02T12:47:52.396Z</time></trkpt><trkpt lat="46.4888033" lon="11.9894"><ele>1542.0</ele><time>2026-05-02T12:47:54.397Z</time></trkpt><trkpt lat="46.488895" lon="11.9894417"><ele>1544.3999999999999</ele><time>2026-05-02T12:47:55.396Z</time></trkpt><trkpt lat="46.48898" lon="11.989435"><ele>1546.8</ele><time>2026-05-02T12:47:56.397Z</time></trkpt><trkpt lat="46.4890783" lon="11.9893883"><ele>1549.2</ele><time>2026-05-02T12:47:57.397Z</time></trkpt><trkpt lat="46.4891883" lon="11.9893267"><ele>1551.6</ele><time>2026-05-02T12:47:58.397Z</time></trkpt><trkpt lat="46.489295" lon="11.989265"><ele>1554.0</ele><time>2026-05-02T12:47:59.396Z</time></trkpt><trkpt lat="46.4893983" lon="11.98922"><ele>1554.0</ele><time>2026-05-02T12:48:00.397Z</time></trkpt><trkpt lat="46.4895" lon="11.9891833"><ele>1554.0</ele><time>2026-05-02T12:48:01.397Z</time></trkpt><trkpt lat="46.489605" lon="11.9891567"><ele>1554.0</ele><time>2026-05-02T12:48:02.396Z</time></trkpt><trkpt lat="46.48971" lon="11.9891417"><ele>1554.0</ele><time>2026-05-02T12:48:03.397Z</time></trkpt><trkpt lat="46.4898233" lon="11.989125"><ele>1554.0</ele><time>2026-05-02T12:48:04.396Z</time></trkpt><trkpt lat="46.4899317" lon="11.989095"><ele>1553.5</ele><time>2026-05-02T12:48:05.397Z</time></trkpt><trkpt lat="46.4900417" lon="11.9890633"><ele>1553.0</ele><time>2026-05-02T12:48:06.397Z</time></trkpt><trkpt lat="46.4901583" lon="11.989045"><ele>1552.5</ele><time>2026-05-02T12:48:07.397Z</time></trkpt><trkpt lat="46.49027" lon="11.9890217"><ele>1552.0</ele><time>2026-05-02T12:48:08.397Z</time></trkpt><trkpt lat="46.4903833" lon="11.9889967"><ele>1555.0</ele><time>2026-05-02T12:48:09.397Z</time></trkpt><trkpt lat="46.4904983" lon="11.9889717"><ele>1558.0</ele><time>2026-05-02T12:48:10.397Z</time></trkpt><trkpt lat="46.4906167" lon="11.988955"><ele>1561.0</ele><time>2026-05-02T12:48:11.397Z</time></trkpt><trkpt lat="46.490725" lon="11.98894"><ele>1564.0</ele><time>2026-05-02T12:48:12.397Z</time></trkpt><trkpt lat="46.4908217" lon="11.988915"><ele>1567.0</ele><time>2026-05-02T12:48:13.396Z</time></trkpt><trkpt lat="46.4909133" lon="11.9888917"><ele>1567.0</ele><time>2026-05-02T12:48:14.397Z</time></trkpt><trkpt lat="46.4910033" lon="11.9888567"><ele>1567.0</ele><time>2026-05-02T12:48:15.397Z</time></trkpt><trkpt lat="46.491095" lon="11.9888"><ele>1567.0</ele><time>2026-05-02T12:48:16.396Z</time></trkpt><trkpt lat="46.4911917" lon="11.9887367"><ele>1567.0</ele><time>2026-05-02T12:48:17.397Z</time></trkpt><trkpt lat="46.4912783" lon="11.9886717"><ele>1567.0</ele><time>2026-05-02T12:48:18.397Z</time></trkpt><trkpt lat="46.4913517" lon="11.98861"><ele>1568.5714285714284</ele><time>2026-05-02T12:48:19.397Z</time></trkpt><trkpt lat="46.49142" lon="11.988555"><ele>1570.142857142857</ele><time>2026-05-02T12:48:20.397Z</time></trkpt><trkpt lat="46.4914867" lon="11.9885117"><ele>1571.7142857142858</ele><time>2026-05-02T12:48:21.396Z</time></trkpt><trkpt lat="46.4915533" lon="11.9884983"><ele>1573.2857142857142</ele><time>2026-05-02T12:48:22.397Z</time></trkpt><trkpt lat="46.491615" lon="11.9885167"><ele>1574.857142857143</ele><time>2026-05-02T12:48:23.397Z</time></trkpt><trkpt lat="46.4916517" lon="11.9885917"><ele>1576.4285714285713</ele><time>2026-05-02T12:48:24.396Z</time></trkpt><trkpt lat="46.4916617" lon="11.98871"><ele>1578.0</ele><time>2026-05-02T12:48:25.397Z</time></trkpt><trkpt lat="46.4916367" lon="11.9888183"><ele>1578.0</ele><time>2026-05-02T12:48:26.396Z</time></trkpt><trkpt lat="46.4915583" lon="11.9889267"><ele>1578.0</ele><time>2026-05-02T12:48:27.396Z</time></trkpt><trkpt lat="46.4914433" lon="11.9890383"><ele>1578.0</ele><time>2026-05-02T12:48:28.397Z</time></trkpt><trkpt lat="46.491295" lon="11.989145"><ele>1578.0</ele><time>2026-05-02T12:48:29.397Z</time></trkpt><trkpt lat="46.4911533" lon="11.98924"><ele>1580.25</ele><time>2026-05-02T12:48:30.397Z</time></trkpt><trkpt lat="46.4910317" lon="11.989335"><ele>1582.5</ele><time>2026-05-02T12:48:31.397Z</time></trkpt><trkpt lat="46.49092" lon="11.9894167"><ele>1584.75</ele><time>2026-05-02T12:48:32.397Z</time></trkpt><trkpt lat="46.4908217" lon="11.9894783"><ele>1587.0</ele><time>2026-05-02T12:48:33.397Z</time></trkpt><trkpt lat="46.4907317" lon="11.9895333"><ele>1587.0</ele><time>2026-05-02T12:48:34.396Z</time></trkpt><trkpt lat="46.4906383" lon="11.9895833"><ele>1587.0</ele><time>2026-05-02T12:48:35.397Z</time></trkpt><trkpt lat="46.4905467" lon="11.9896217"><ele>1587.0</ele><time>2026-05-02T12:48:36.397Z</time></trkpt><trkpt lat="46.4904533" lon="11.989665"><ele>1587.0</ele><time>2026-05-02T12:48:37.396Z</time></trkpt><trkpt lat="46.4903733" lon="11.9897033"><ele>1587.0</ele><time>2026-05-02T12:48:38.397Z</time></trkpt><trkpt lat="46.4903217" lon="11.9897583"><ele>1587.0</ele><time>2026-05-02T12:48:39.397Z</time></trkpt><trkpt lat="46.4903233" lon="11.9899233"><ele>1587.0</ele><time>2026-05-02T12:48:41.397Z</time></trkpt><trkpt lat="46.4904167" lon="11.9900267"><ele>1587.0</ele><time>2026-05-02T12:48:43.397Z</time></trkpt><trkpt lat="46.4905767" lon="11.989965"><ele>1587.0</ele><time>2026-05-02T12:48:45.397Z</time></trkpt><trkpt lat="46.490685" lon="11.9898767"><ele>1587.0</ele><time>2026-05-02T12:48:46.396Z</time></trkpt><trkpt lat="46.4908017" lon="11.9897883"><ele>1587.0</ele><time>2026-05-02T12:48:47.397Z</time></trkpt><trkpt lat="46.4909183" lon="11.9897"><ele>1587.0</ele><time>2026-05-02T12:48:48.396Z</time></trkpt><trkpt lat="46.49105" lon="11.989655"><ele>1587.0</ele><time>2026-05-02T12:48:49.397Z</time></trkpt><trkpt lat="46.4911867" lon="11.9895867"><ele>1587.0</ele><time>2026-05-02T12:48:50.397Z</time></trkpt><trkpt lat="46.491375" lon="11.9895367"><ele>1595.0</ele><time>2026-05-02T12:48:51.397Z</time></trkpt><trkpt lat="46.49159" lon="11.989485"><ele>1603.0</ele><time>2026-05-02T12:48:52.397Z</time></trkpt><trkpt lat="46.49183" lon="11.989455"><ele>1608.0</ele><time>2026-05-02T12:48:53.397Z</time></trkpt><trkpt lat="46.492095" lon="11.9894317"><ele>1613.0</ele><time>2026-05-02T12:48:54.397Z</time></trkpt><trkpt lat="46.4923817" lon="11.9894267"><ele>1613.0</ele><time>2026-05-02T12:48:55.396Z</time></trkpt><trkpt lat="46.49268" lon="11.98944"><ele>1613.0</ele><time>2026-05-02T12:48:56.396Z</time></trkpt><trkpt lat="46.4929567" lon="11.9894433"><ele>1613.0</ele><time>2026-05-02T12:48:57.396Z</time></trkpt><trkpt lat="46.49322" lon="11.989465"><ele>1613.0</ele><time>2026-05-02T12:48:58.397Z</time></trkpt><trkpt lat="46.493455" lon="11.9894433"><ele>1613.0</ele><time>2026-05-02T12:48:59.397Z</time></trkpt><trkpt lat="46.4936867" lon="11.9893783"><ele>1613.0</ele><time>2026-05-02T12:49:00.397Z</time></trkpt><trkpt lat="46.4939067" lon="11.9892633"><ele>1608.0</ele><time>2026-05-02T12:49:01.397Z</time></trkpt><trkpt lat="46.4941417" lon="11.9891217"><ele>1603.0</ele><time>2026-05-02T12:49:02.397Z</time></trkpt><trkpt lat="46.4943883" lon="11.9889767"><ele>1608.5</ele><time>2026-05-02T12:49:03.397Z</time></trkpt><trkpt lat="46.4946383" lon="11.98883"><ele>1614.0</ele><time>2026-05-02T12:49:04.397Z</time></trkpt><trkpt lat="46.49489" lon="11.9886867"><ele>1614.0</ele><time>2026-05-02T12:49:05.397Z</time></trkpt><trkpt lat="46.4951183" lon="11.98856"><ele>1614.0</ele><time>2026-05-02T12:49:06.397Z</time></trkpt><trkpt lat="46.4953267" lon="11.9884367"><ele>1615.3333333333335</ele><time>2026-05-02T12:49:07.397Z</time></trkpt><trkpt lat="46.49551" lon="11.9883233"><ele>1616.6666666666667</ele><time>2026-05-02T12:49:08.397Z</time></trkpt><trkpt lat="46.4956633" lon="11.988245"><ele>1618.0</ele><time>2026-05-02T12:49:09.397Z</time></trkpt><trkpt lat="46.4958083" lon="11.98821"><ele>1618.0</ele><time>2026-05-02T12:49:10.397Z</time></trkpt><trkpt lat="46.4959533" lon="11.9882133"><ele>1618.0</ele><time>2026-05-02T12:49:11.397Z</time></trkpt><trkpt lat="46.4961083" lon="11.9882783"><ele>1618.0</ele><time>2026-05-02T12:49:12.397Z</time></trkpt><trkpt lat="46.4962933" lon="11.9883767"><ele>1625.0</ele><time>2026-05-02T12:49:13.397Z</time></trkpt><trkpt lat="46.496495" lon="11.9884933"><ele>1632.0</ele><time>2026-05-02T12:49:14.397Z</time></trkpt><trkpt lat="46.4967" lon="11.9885983"><ele>1639.0</ele><time>2026-05-02T12:49:15.397Z</time></trkpt><trkpt lat="46.4968867" lon="11.988695"><ele>1639.0</ele><time>2026-05-02T12:49:16.397Z</time></trkpt><trkpt lat="46.4970667" lon="11.9887733"><ele>1639.0</ele><time>2026-05-02T12:49:17.397Z</time></trkpt><trkpt lat="46.4972533" lon="11.988805"><ele>1639.0</ele><time>2026-05-02T12:49:18.397Z</time></trkpt><trkpt lat="46.4974383" lon="11.98877"><ele>1641.3333333333335</ele><time>2026-05-02T12:49:19.397Z</time></trkpt><trkpt lat="46.49762" lon="11.988675"><ele>1643.6666666666665</ele><time>2026-05-02T12:49:20.397Z</time></trkpt><trkpt lat="46.4977867" lon="11.988535"><ele>1646.0</ele><time>2026-05-02T12:49:21.397Z</time></trkpt><trkpt lat="46.4979367" lon="11.9883933"><ele>1644.4</ele><time>2026-05-02T12:49:22.397Z</time></trkpt><trkpt lat="46.498045" lon="11.9883"><ele>1642.8</ele><time>2026-05-02T12:49:23.397Z</time></trkpt><trkpt lat="46.49812" lon="11.9882467"><ele>1641.2</ele><time>2026-05-02T12:49:24.396Z</time></trkpt><trkpt lat="46.498225" lon="11.98824"><ele>1639.6000000000001</ele><time>2026-05-02T12:49:26.397Z</time></trkpt><trkpt lat="46.4982783" lon="11.988355"><ele>1638.0</ele><time>2026-05-02T12:49:28.397Z</time></trkpt><trkpt lat="46.4982667" lon="11.988445"><ele>1639.6000000000001</ele><time>2026-05-02T12:49:29.397Z</time></trkpt><trkpt lat="46.4982283" lon="11.988525"><ele>1641.2</ele><time>2026-05-02T12:49:30.396Z</time></trkpt><trkpt lat="46.4981617" lon="11.9885817"><ele>1642.8</ele><time>2026-05-02T12:49:31.397Z</time></trkpt><trkpt lat="46.49807" lon="11.9886367"><ele>1644.4</ele><time>2026-05-02T12:49:32.397Z</time></trkpt><trkpt lat="46.4979667" lon="11.9887017"><ele>1646.0</ele><time>2026-05-02T12:49:33.396Z</time></trkpt><trkpt lat="46.49783" lon="11.98881"><ele>1646.0</ele><time>2026-05-02T12:49:34.398Z</time></trkpt><trkpt lat="46.49768" lon="11.98897"><ele>1646.0</ele><time>2026-05-02T12:49:35.398Z</time></trkpt><trkpt lat="46.497515" lon="11.98916"><ele>1646.0</ele><time>2026-05-02T12:49:36.398Z</time></trkpt><trkpt lat="46.4973367" lon="11.9893617"><ele>1650.0</ele><time>2026-05-02T12:49:37.397Z</time></trkpt><trkpt lat="46.4971617" lon="11.9895533"><ele>1654.0</ele><time>2026-05-02T12:49:38.398Z</time></trkpt><trkpt lat="46.496985" lon="11.989695"><ele>1658.0</ele><time>2026-05-02T12:49:39.398Z</time></trkpt><trkpt lat="46.4967933" lon="11.989825"><ele>1658.0</ele><time>2026-05-02T12:49:40.397Z</time></trkpt><trkpt lat="46.4966017" lon="11.9899367"><ele>1658.0</ele><time>2026-05-02T12:49:41.398Z</time></trkpt><trkpt lat="46.4964333" lon="11.9900183"><ele>1658.0</ele><time>2026-05-02T12:49:42.398Z</time></trkpt><trkpt lat="46.496295" lon="11.9901083"><ele>1661.6000000000001</ele><time>2026-05-02T12:49:43.398Z</time></trkpt><trkpt lat="46.4961867" lon="11.99016"><ele>1665.2</ele><time>2026-05-02T12:49:44.398Z</time></trkpt><trkpt lat="46.4961217" lon="11.9902133"><ele>1668.8</ele><time>2026-05-02T12:49:45.398Z</time></trkpt><trkpt lat="46.4961167" lon="11.9903767"><ele>1672.4</ele><time>2026-05-02T12:49:47.398Z</time></trkpt><trkpt lat="46.4962233" lon="11.99046"><ele>1676.0</ele><time>2026-05-02T12:49:49.398Z</time></trkpt><trkpt lat="46.4963233" lon="11.9904233"><ele>1677.5</ele><time>2026-05-02T12:49:50.398Z</time></trkpt><trkpt lat="46.4964433" lon="11.9903533"><ele>1679.0</ele><time>2026-05-02T12:49:51.398Z</time></trkpt><trkpt lat="46.49658" lon="11.9902617"><ele>1680.5</ele><time>2026-05-02T12:49:52.398Z</time></trkpt><trkpt lat="46.49674" lon="11.990205"><ele>1682.0</ele><time>2026-05-02T12:49:53.398Z</time></trkpt><trkpt lat="46.4969117" lon="11.9901883"><ele>1687.6666666666665</ele><time>2026-05-02T12:49:54.398Z</time></trkpt><trkpt lat="46.4971217" lon="11.9901967"><ele>1693.3333333333335</ele><time>2026-05-02T12:49:55.398Z</time></trkpt><trkpt lat="46.4973417" lon="11.9902417"><ele>1699.0</ele><time>2026-05-02T12:49:56.398Z</time></trkpt><trkpt lat="46.4975717" lon="11.990245"><ele>1699.0</ele><time>2026-05-02T12:49:57.398Z</time></trkpt><trkpt lat="46.4977933" lon="11.990195"><ele>1699.0</ele><time>2026-05-02T12:49:58.397Z</time></trkpt><trkpt lat="46.4980033" lon="11.9900833"><ele>1699.0</ele><time>2026-05-02T12:49:59.398Z</time></trkpt><trkpt lat="46.498185" lon="11.9899767"><ele>1693.3333333333335</ele><time>2026-05-02T12:50:00.398Z</time></trkpt><trkpt lat="46.498365" lon="11.9899"><ele>1687.6666666666665</ele><time>2026-05-02T12:50:01.398Z</time></trkpt><trkpt lat="46.4985417" lon="11.98986"><ele>1682.0</ele><time>2026-05-02T12:50:02.398Z</time></trkpt><trkpt lat="46.4987217" lon="11.989885"><ele>1682.3333333333333</ele><time>2026-05-02T12:50:03.398Z</time></trkpt><trkpt lat="46.49892" lon="11.98996"><ele>1682.6666666666665</ele><time>2026-05-02T12:50:04.398Z</time></trkpt><trkpt lat="46.4991467" lon="11.9900717"><ele>1683.0</ele><time>2026-05-02T12:50:05.397Z</time></trkpt><trkpt lat="46.49939" lon="11.9901683"><ele>1697.5</ele><time>2026-05-02T12:50:06.398Z</time></trkpt><trkpt lat="46.4996283" lon="11.990235"><ele>1712.0</ele><time>2026-05-02T12:50:07.397Z</time></trkpt><trkpt lat="46.49985" lon="11.990255"><ele>1712.0</ele><time>2026-05-02T12:50:08.398Z</time></trkpt><trkpt lat="46.500055" lon="11.9902567"><ele>1712.0</ele><time>2026-05-02T12:50:09.397Z</time></trkpt><trkpt lat="46.5002367" lon="11.9902567"><ele>1712.0</ele><time>2026-05-02T12:50:10.398Z</time></trkpt><trkpt lat="46.5004017" lon="11.99029"><ele>1708.0</ele><time>2026-05-02T12:50:11.397Z</time></trkpt><trkpt lat="46.50057" lon="11.9903817"><ele>1704.0</ele><time>2026-05-02T12:50:12.398Z</time></trkpt><trkpt lat="46.5007467" lon="11.9905317"><ele>1700.0</ele><time>2026-05-02T12:50:13.398Z</time></trkpt><trkpt lat="46.5009433" lon="11.9907167"><ele>1706.0</ele><time>2026-05-02T12:50:14.398Z</time></trkpt><trkpt lat="46.5011433" lon="11.9909067"><ele>1712.0</ele><time>2026-05-02T12:50:15.398Z</time></trkpt><trkpt lat="46.5013533" lon="11.9911"><ele>1712.0</ele><time>2026-05-02T12:50:16.398Z</time></trkpt><trkpt lat="46.5015567" lon="11.9912867"><ele>1712.0</ele><time>2026-05-02T12:50:17.398Z</time></trkpt><trkpt lat="46.5017417" lon="11.99146"><ele>1712.0</ele><time>2026-05-02T12:50:18.398Z</time></trkpt><trkpt lat="46.5019183" lon="11.9916"><ele>1712.0</ele><time>2026-05-02T12:50:19.397Z</time></trkpt><trkpt lat="46.5021017" lon="11.9917167"><ele>1712.0</ele><time>2026-05-02T12:50:20.398Z</time></trkpt><trkpt lat="46.5022967" lon="11.9918"><ele>1718.6666666666665</ele><time>2026-05-02T12:50:21.398Z</time></trkpt><trkpt lat="46.5025167" lon="11.991845"><ele>1725.3333333333335</ele><time>2026-05-02T12:50:22.398Z</time></trkpt><trkpt lat="46.5027283" lon="11.9918633"><ele>1732.0</ele><time>2026-05-02T12:50:23.398Z</time></trkpt><trkpt lat="46.5029017" lon="11.99187"><ele>1731.0</ele><time>2026-05-02T12:50:24.397Z</time></trkpt><trkpt lat="46.5030483" lon="11.991885"><ele>1729.9999999999998</ele><time>2026-05-02T12:50:25.398Z</time></trkpt><trkpt lat="46.50316" lon="11.9918917"><ele>1728.9999999999998</ele><time>2026-05-02T12:50:26.398Z</time></trkpt><trkpt lat="46.5032383" lon="11.9919217"><ele>1728.0</ele><time>2026-05-02T12:50:27.398Z</time></trkpt><trkpt lat="46.5032967" lon="11.99198"><ele>1727.0</ele><time>2026-05-02T12:50:28.398Z</time></trkpt><trkpt lat="46.503295" lon="11.992145"><ele>1727.0</ele><time>2026-05-02T12:50:30.398Z</time></trkpt><trkpt lat="46.5031633" lon="11.9921917"><ele>1727.0</ele><time>2026-05-02T12:50:32.398Z</time></trkpt><trkpt lat="46.5030483" lon="11.9921367"><ele>1727.0</ele><time>2026-05-02T12:50:33.398Z</time></trkpt><trkpt lat="46.5029033" lon="11.9920867"><ele>1727.0</ele><time>2026-05-02T12:50:34.398Z</time></trkpt><trkpt lat="46.502725" lon="11.9920633"><ele>1728.6666666666665</ele><time>2026-05-02T12:50:35.397Z</time></trkpt><trkpt lat="46.5025317" lon="11.99208"><ele>1730.3333333333335</ele><time>2026-05-02T12:50:36.398Z</time></trkpt><trkpt lat="46.5023217" lon="11.9920867"><ele>1732.0</ele><time>2026-05-02T12:50:37.398Z</time></trkpt><trkpt lat="46.502085" lon="11.9920767"><ele>1735.0</ele><time>2026-05-02T12:50:38.398Z</time></trkpt><trkpt lat="46.50186" lon="11.9920683"><ele>1738.0</ele><time>2026-05-02T12:50:39.398Z</time></trkpt><trkpt lat="46.5016633" lon="11.9920367"><ele>1741.0</ele><time>2026-05-02T12:50:40.398Z</time></trkpt><trkpt lat="46.5014767" lon="11.9920133"><ele>1741.0</ele><time>2026-05-02T12:50:41.398Z</time></trkpt><trkpt lat="46.5013233" lon="11.9919917"><ele>1741.0</ele><time>2026-05-02T12:50:42.398Z</time></trkpt><trkpt lat="46.5011867" lon="11.991965"><ele>1741.0</ele><time>2026-05-02T12:50:43.397Z</time></trkpt><trkpt lat="46.5010567" lon="11.9919417"><ele>1741.0</ele><time>2026-05-02T12:50:44.398Z</time></trkpt><trkpt lat="46.500935" lon="11.9919183"><ele>1745.0</ele><time>2026-05-02T12:50:45.398Z</time></trkpt><trkpt lat="46.5008083" lon="11.9919067"><ele>1749.0</ele><time>2026-05-02T12:50:46.398Z</time></trkpt><trkpt lat="46.5006733" lon="11.9918833"><ele>1753.0</ele><time>2026-05-02T12:50:47.398Z</time></trkpt><trkpt lat="46.5005283" lon="11.9918267"><ele>1757.0</ele><time>2026-05-02T12:50:48.398Z</time></trkpt><trkpt lat="46.5004033" lon="11.99175"><ele>1752.3333333333333</ele><time>2026-05-02T12:50:49.398Z</time></trkpt><trkpt lat="46.50027" lon="11.991675"><ele>1747.6666666666665</ele><time>2026-05-02T12:50:50.398Z</time></trkpt><trkpt lat="46.5001233" lon="11.991605"><ele>1743.0</ele><time>2026-05-02T12:50:51.398Z</time></trkpt><trkpt lat="46.499965" lon="11.9915633"><ele>1743.0</ele><time>2026-05-02T12:50:52.398Z</time></trkpt><trkpt lat="46.4998017" lon="11.99154"><ele>1743.0</ele><time>2026-05-02T12:50:53.398Z</time></trkpt><trkpt lat="46.4996433" lon="11.9915383"><ele>1743.0</ele><time>2026-05-02T12:50:54.398Z</time></trkpt><trkpt lat="46.4995017" lon="11.9915133"><ele>1744.25</ele><time>2026-05-02T12:50:55.398Z</time></trkpt><trkpt lat="46.4993767" lon="11.9915083"><ele>1745.5</ele><time>2026-05-02T12:50:56.398Z</time></trkpt><trkpt lat="46.499255" lon="11.99149"><ele>1746.75</ele><time>2026-05-02T12:50:57.398Z</time></trkpt><trkpt lat="46.4991333" lon="11.9914783"><ele>1748.0</ele><time>2026-05-02T12:50:58.398Z</time></trkpt><trkpt lat="46.4990217" lon="11.9914783"><ele>1748.0</ele><time>2026-05-02T12:50:59.398Z</time></trkpt><trkpt lat="46.49891" lon="11.9914817"><ele>1748.0000000000002</ele><time>2026-05-02T12:51:00.398Z</time></trkpt><trkpt lat="46.4988033" lon="11.9915017"><ele>1748.0000000000002</ele><time>2026-05-02T12:51:01.397Z</time></trkpt><trkpt lat="46.4987067" lon="11.9915383"><ele>1748.0</ele><time>2026-05-02T12:51:02.398Z</time></trkpt><trkpt lat="46.4985983" lon="11.9915983"><ele>1748.0</ele><time>2026-05-02T12:51:03.398Z</time></trkpt><trkpt lat="46.4984783" lon="11.99168"><ele>1752.75</ele><time>2026-05-02T12:51:04.397Z</time></trkpt><trkpt lat="46.4983533" lon="11.9917533"><ele>1757.5</ele><time>2026-05-02T12:51:05.397Z</time></trkpt><trkpt lat="46.4982183" lon="11.9918233"><ele>1762.25</ele><time>2026-05-02T12:51:06.398Z</time></trkpt><trkpt lat="46.4981" lon="11.9918867"><ele>1767.0</ele><time>2026-05-02T12:51:07.398Z</time></trkpt><trkpt lat="46.4979867" lon="11.99194"><ele>1764.8333333333333</ele><time>2026-05-02T12:51:08.398Z</time></trkpt><trkpt lat="46.4978933" lon="11.9920067"><ele>1762.6666666666665</ele><time>2026-05-02T12:51:09.397Z</time></trkpt><trkpt lat="46.4978133" lon="11.9920633"><ele>1760.5</ele><time>2026-05-02T12:51:10.398Z</time></trkpt><trkpt lat="46.4977533" lon="11.99212"><ele>1758.3333333333333</ele><time>2026-05-02T12:51:11.398Z</time></trkpt><trkpt lat="46.4977083" lon="11.992195"><ele>1756.1666666666665</ele><time>2026-05-02T12:51:12.398Z</time></trkpt><trkpt lat="46.497735" lon="11.9923533"><ele>1754.0</ele><time>2026-05-02T12:51:14.398Z</time></trkpt><trkpt lat="46.4978383" lon="11.9924183"><ele>1754.0</ele><time>2026-05-02T12:51:16.397Z</time></trkpt><trkpt lat="46.497915" lon="11.9923817"><ele>1754.0</ele><time>2026-05-02T12:51:17.398Z</time></trkpt><trkpt lat="46.4980033" lon="11.9923083"><ele>1754.0</ele><time>2026-05-02T12:51:18.397Z</time></trkpt><trkpt lat="46.4981083" lon="11.9922017"><ele>1754.0</ele><time>2026-05-02T12:51:19.398Z</time></trkpt><trkpt lat="46.49823" lon="11.9921017"><ele>1757.25</ele><time>2026-05-02T12:51:20.398Z</time></trkpt><trkpt lat="46.4983583" lon="11.9920383"><ele>1760.5</ele><time>2026-05-02T12:51:21.398Z</time></trkpt><trkpt lat="46.4984917" lon="11.991995"><ele>1763.75</ele><time>2026-05-02T12:51:22.398Z</time></trkpt><trkpt lat="46.498635" lon="11.99197"><ele>1767.0</ele><time>2026-05-02T12:51:23.397Z</time></trkpt><trkpt lat="46.498775" lon="11.9919783"><ele>1770.0</ele><time>2026-05-02T12:51:24.397Z</time></trkpt><trkpt lat="46.498905" lon="11.9919967"><ele>1773.0</ele><time>2026-05-02T12:51:25.398Z</time></trkpt><trkpt lat="46.4990217" lon="11.9919983"><ele>1776.0</ele><time>2026-05-02T12:51:26.398Z</time></trkpt><trkpt lat="46.49913" lon="11.991995"><ele>1779.0</ele><time>2026-05-02T12:51:27.397Z</time></trkpt><trkpt lat="46.4992583" lon="11.992015"><ele>1779.0</ele><time>2026-05-02T12:51:28.398Z</time></trkpt><trkpt lat="46.4993817" lon="11.9920667"><ele>1779.0</ele><time>2026-05-02T12:51:29.398Z</time></trkpt><trkpt lat="46.49951" lon="11.992145"><ele>1779.0</ele><time>2026-05-02T12:51:30.398Z</time></trkpt><trkpt lat="46.4996433" lon="11.9922417"><ele>1779.0</ele><time>2026-05-02T12:51:31.397Z</time></trkpt><trkpt lat="46.4997817" lon="11.99235"><ele>1776.6666666666665</ele><time>2026-05-02T12:51:32.398Z</time></trkpt><trkpt lat="46.4999267" lon="11.992475"><ele>1774.3333333333333</ele><time>2026-05-02T12:51:33.398Z</time></trkpt><trkpt lat="46.50006" lon="11.9926067"><ele>1772.0</ele><time>2026-05-02T12:51:34.398Z</time></trkpt><trkpt lat="46.50019" lon="11.99273"><ele>1775.0</ele><time>2026-05-02T12:51:35.398Z</time></trkpt><trkpt lat="46.5003117" lon="11.9928567"><ele>1778.0</ele><time>2026-05-02T12:51:36.398Z</time></trkpt><trkpt lat="46.5004383" lon="11.992965"><ele>1781.0</ele><time>2026-05-02T12:51:37.398Z</time></trkpt><trkpt lat="46.50057" lon="11.9930683"><ele>1784.0</ele><time>2026-05-02T12:51:38.398Z</time></trkpt><trkpt lat="46.500695" lon="11.9931633"><ele>1784.0</ele><time>2026-05-02T12:51:39.398Z</time></trkpt><trkpt lat="46.5008167" lon="11.9932567"><ele>1784.0</ele><time>2026-05-02T12:51:40.397Z</time></trkpt><trkpt lat="46.5009567" lon="11.9933417"><ele>1784.0</ele><time>2026-05-02T12:51:41.398Z</time></trkpt><trkpt lat="46.501095" lon="11.9934217"><ele>1784.0</ele><time>2026-05-02T12:51:42.398Z</time></trkpt><trkpt lat="46.50124" lon="11.9935033"><ele>1790.3333333333333</ele><time>2026-05-02T12:51:43.398Z</time></trkpt><trkpt lat="46.5013933" lon="11.9935983"><ele>1796.6666666666665</ele><time>2026-05-02T12:51:44.397Z</time></trkpt><trkpt lat="46.50155" lon="11.9936917"><ele>1803.0</ele><time>2026-05-02T12:51:45.398Z</time></trkpt><trkpt lat="46.5017067" lon="11.9937833"><ele>1803.0</ele><time>2026-05-02T12:51:46.398Z</time></trkpt><trkpt lat="46.5018683" lon="11.9938667"><ele>1803.0</ele><time>2026-05-02T12:51:47.397Z</time></trkpt><trkpt lat="46.5020483" lon="11.9939583"><ele>1803.0</ele><time>2026-05-02T12:51:48.398Z</time></trkpt><trkpt lat="46.5022433" lon="11.99409"><ele>1807.0</ele><time>2026-05-02T12:51:49.397Z</time></trkpt><trkpt lat="46.502455" lon="11.9942567"><ele>1811.0</ele><time>2026-05-02T12:51:50.398Z</time></trkpt><trkpt lat="46.502675" lon="11.99446"><ele>1811.0</ele><time>2026-05-02T12:51:51.397Z</time></trkpt><trkpt lat="46.502905" lon="11.994665"><ele>1811.0</ele><time>2026-05-02T12:51:52.397Z</time></trkpt><trkpt lat="46.50313" lon="11.99486"><ele>1816.5</ele><time>2026-05-02T12:51:53.398Z</time></trkpt><trkpt lat="46.503335" lon="11.9950383"><ele>1822.0</ele><time>2026-05-02T12:51:54.398Z</time></trkpt><trkpt lat="46.5035283" lon="11.9952017"><ele>1822.0</ele><time>2026-05-02T12:51:55.397Z</time></trkpt><trkpt lat="46.50371" lon="11.995355"><ele>1822.0</ele><time>2026-05-02T12:51:56.397Z</time></trkpt><trkpt lat="46.5038783" lon="11.9955633"><ele>1822.0</ele><time>2026-05-02T12:51:57.398Z</time></trkpt><trkpt lat="46.504025" lon="11.9958083"><ele>1821.5</ele><time>2026-05-02T12:51:58.398Z</time></trkpt><trkpt lat="46.5041733" lon="11.996065"><ele>1821.0</ele><time>2026-05-02T12:51:59.398Z</time></trkpt><trkpt lat="46.5043333" lon="11.996325"><ele>1821.0</ele><time>2026-05-02T12:52:00.398Z</time></trkpt><trkpt lat="46.50448" lon="11.996585"><ele>1821.0</ele><time>2026-05-02T12:52:01.398Z</time></trkpt><trkpt lat="46.5046233" lon="11.9968167"><ele>1821.0</ele><time>2026-05-02T12:52:02.398Z</time></trkpt><trkpt lat="46.5047483" lon="11.9970183"><ele>1819.75</ele><time>2026-05-02T12:52:03.397Z</time></trkpt><trkpt lat="46.5048517" lon="11.99719"><ele>1818.5</ele><time>2026-05-02T12:52:04.398Z</time></trkpt><trkpt lat="46.5049333" lon="11.9973033"><ele>1817.25</ele><time>2026-05-02T12:52:05.398Z</time></trkpt><trkpt lat="46.5050433" lon="11.9973867"><ele>1816.0</ele><time>2026-05-02T12:52:06.398Z</time></trkpt><trkpt lat="46.50519" lon="11.997415"><ele>1816.0</ele><time>2026-05-02T12:52:07.397Z</time></trkpt><trkpt lat="46.5053667" lon="11.9974017"><ele>1816.0</ele><time>2026-05-02T12:52:08.398Z</time></trkpt><trkpt lat="46.5055767" lon="11.997365"><ele>1816.0</ele><time>2026-05-02T12:52:09.398Z</time></trkpt><trkpt lat="46.5057633" lon="11.9973433"><ele>1815.0</ele><time>2026-05-02T12:52:10.398Z</time></trkpt><trkpt lat="46.505935" lon="11.9973467"><ele>1814.0</ele><time>2026-05-02T12:52:11.398Z</time></trkpt><trkpt lat="46.50612" lon="11.9974117"><ele>1813.0</ele><time>2026-05-02T12:52:12.398Z</time></trkpt><trkpt lat="46.5063167" lon="11.9975467"><ele>1817.0</ele><time>2026-05-02T12:52:13.398Z</time></trkpt><trkpt lat="46.5065083" lon="11.9976883"><ele>1821.0</ele><time>2026-05-02T12:52:14.398Z</time></trkpt><trkpt lat="46.50668" lon="11.99784"><ele>1825.0</ele><time>2026-05-02T12:52:15.398Z</time></trkpt><trkpt lat="46.5068367" lon="11.9980183"><ele>1825.0</ele><time>2026-05-02T12:52:16.398Z</time></trkpt><trkpt lat="46.506995" lon="11.9982233"><ele>1825.0</ele><time>2026-05-02T12:52:17.397Z</time></trkpt><trkpt lat="46.5071517" lon="11.9984417"><ele>1825.0</ele><time>2026-05-02T12:52:18.397Z</time></trkpt><trkpt lat="46.5073167" lon="11.9986217"><ele>1830.5</ele><time>2026-05-02T12:52:19.398Z</time></trkpt><trkpt lat="46.50753" lon="11.9987667"><ele>1836.0</ele><time>2026-05-02T12:52:20.398Z</time></trkpt><trkpt lat="46.507765" lon="11.99889"><ele>1835.0</ele><time>2026-05-02T12:52:21.397Z</time></trkpt><trkpt lat="46.5079917" lon="11.999005"><ele>1834.0</ele><time>2026-05-02T12:52:22.398Z</time></trkpt><trkpt lat="46.5081867" lon="11.9991133"><ele>1833.0</ele><time>2026-05-02T12:52:23.398Z</time></trkpt><trkpt lat="46.508335" lon="11.9991967"><ele>1837.25</ele><time>2026-05-02T12:52:24.397Z</time></trkpt><trkpt lat="46.5084583" lon="11.9992917"><ele>1841.5</ele><time>2026-05-02T12:52:25.398Z</time></trkpt><trkpt lat="46.5085633" lon="11.9994333"><ele>1845.75</ele><time>2026-05-02T12:52:26.398Z</time></trkpt><trkpt lat="46.508645" lon="11.9995967"><ele>1850.0</ele><time>2026-05-02T12:52:27.398Z</time></trkpt><trkpt lat="46.5087133" lon="11.9997683"><ele>1848.2</ele><time>2026-05-02T12:52:28.397Z</time></trkpt><trkpt lat="46.5087867" lon="11.9999"><ele>1846.4</ele><time>2026-05-02T12:52:29.398Z</time></trkpt><trkpt lat="46.5088583" lon="11.9999717"><ele>1844.6</ele><time>2026-05-02T12:52:30.398Z</time></trkpt><trkpt lat="46.508955" lon="11.999975"><ele>1842.8</ele><time>2026-05-02T12:52:31.397Z</time></trkpt><trkpt lat="46.5090733" lon="11.9999083"><ele>1841.0</ele><time>2026-05-02T12:52:32.398Z</time></trkpt><trkpt lat="46.5092083" lon="11.9998117"><ele>1841.0</ele><time>2026-05-02T12:52:33.398Z</time></trkpt><trkpt lat="46.5093417" lon="11.9997483"><ele>1841.0</ele><time>2026-05-02T12:52:34.398Z</time></trkpt><trkpt lat="46.509465" lon="11.9997383"><ele>1841.0</ele><time>2026-05-02T12:52:35.398Z</time></trkpt><trkpt lat="46.5096017" lon="11.999785"><ele>1841.0</ele><time>2026-05-02T12:52:36.397Z</time></trkpt><trkpt lat="46.5097467" lon="11.9998767"><ele>1843.75</ele><time>2026-05-02T12:52:37.398Z</time></trkpt><trkpt lat="46.50986" lon="11.9999983"><ele>1846.5</ele><time>2026-05-02T12:52:38.398Z</time></trkpt><trkpt lat="46.50994" lon="12.000115"><ele>1849.25</ele><time>2026-05-02T12:52:39.398Z</time></trkpt><trkpt lat="46.50998" lon="12.0002583"><ele>1852.0</ele><time>2026-05-02T12:52:40.397Z</time></trkpt><trkpt lat="46.5099767" lon="12.000425"><ele>1852.0</ele><time>2026-05-02T12:52:41.398Z</time></trkpt><trkpt lat="46.5099417" lon="12.00062"><ele>1852.0</ele><time>2026-05-02T12:52:42.398Z</time></trkpt><trkpt lat="46.5098917" lon="12.00081"><ele>1852.0</ele><time>2026-05-02T12:52:43.398Z</time></trkpt><trkpt lat="46.509855" lon="12.000955"><ele>1852.0</ele><time>2026-05-02T12:52:44.398Z</time></trkpt><trkpt lat="46.50985" lon="12.0010667"><ele>1852.0</ele><time>2026-05-02T12:52:45.398Z</time></trkpt><trkpt lat="46.5098933" lon="12.0011433"><ele>1851.9999999999998</ele><time>2026-05-02T12:52:46.398Z</time></trkpt><trkpt lat="46.5100267" lon="12.0011367"><ele>1851.9999999999998</ele><time>2026-05-02T12:52:48.397Z</time></trkpt><trkpt lat="46.5100967" lon="12.0010217"><ele>1852.0</ele><time>2026-05-02T12:52:49.397Z</time></trkpt><trkpt lat="46.5101617" lon="12.00084"><ele>1852.0</ele><time>2026-05-02T12:52:50.398Z</time></trkpt><trkpt lat="46.51022" lon="12.0006017"><ele>1852.0</ele><time>2026-05-02T12:52:51.398Z</time></trkpt><trkpt lat="46.51027" lon="12.00034"><ele>1852.0</ele><time>2026-05-02T12:52:52.398Z</time></trkpt><trkpt lat="46.5102767" lon="12.0000467"><ele>1852.0</ele><time>2026-05-02T12:52:53.398Z</time></trkpt><trkpt lat="46.5102467" lon="11.9997233"><ele>1852.0</ele><time>2026-05-02T12:52:54.398Z</time></trkpt><trkpt lat="46.5102033" lon="11.9993733"><ele>1852.0</ele><time>2026-05-02T12:52:55.398Z</time></trkpt><trkpt lat="46.5101683" lon="11.9989833"><ele>1856.5</ele><time>2026-05-02T12:52:56.398Z</time></trkpt><trkpt lat="46.51014" lon="11.9985833"><ele>1861.0</ele><time>2026-05-02T12:52:57.398Z</time></trkpt><trkpt lat="46.510105" lon="11.9981667"><ele>1864.0</ele><time>2026-05-02T12:52:58.398Z</time></trkpt><trkpt lat="46.51007" lon="11.9977333"><ele>1867.0</ele><time>2026-05-02T12:52:59.398Z</time></trkpt><trkpt lat="46.5100283" lon="11.9972833"><ele>1870.0</ele><time>2026-05-02T12:53:00.398Z</time></trkpt><trkpt lat="46.5099917" lon="11.9968417"><ele>1873.0</ele><time>2026-05-02T12:53:01.398Z</time></trkpt><trkpt lat="46.5099517" lon="11.9964133"><ele>1875.5</ele><time>2026-05-02T12:53:02.398Z</time></trkpt><trkpt lat="46.50992" lon="11.9960217"><ele>1878.0</ele><time>2026-05-02T12:53:03.398Z</time></trkpt><trkpt lat="46.509895" lon="11.9957167"><ele>1879.75</ele><time>2026-05-02T12:53:04.398Z</time></trkpt><trkpt lat="46.5098783" lon="11.995495"><ele>1881.5</ele><time>2026-05-02T12:53:05.398Z</time></trkpt><trkpt lat="46.5098633" lon="11.9953367"><ele>1883.25</ele><time>2026-05-02T12:53:06.398Z</time></trkpt><trkpt lat="46.509855" lon="11.9952183"><ele>1885.0</ele><time>2026-05-02T12:53:07.398Z</time></trkpt><trkpt lat="46.509905" lon="11.995085"><ele>1885.0</ele><time>2026-05-02T12:53:09.398Z</time></trkpt><trkpt lat="46.510015" lon="11.9951217"><ele>1885.0</ele><time>2026-05-02T12:53:11.398Z</time></trkpt><trkpt lat="46.5100333" lon="11.9952267"><ele>1885.0</ele><time>2026-05-02T12:53:12.398Z</time></trkpt><trkpt lat="46.5100417" lon="11.9953617"><ele>1885.0</ele><time>2026-05-02T12:53:13.397Z</time></trkpt><trkpt lat="46.5100333" lon="11.995525"><ele>1885.0</ele><time>2026-05-02T12:53:14.398Z</time></trkpt><trkpt lat="46.5100233" lon="11.9957267"><ele>1882.6666666666667</ele><time>2026-05-02T12:53:15.398Z</time></trkpt><trkpt lat="46.5100517" lon="11.9959267"><ele>1880.3333333333335</ele><time>2026-05-02T12:53:16.398Z</time></trkpt><trkpt lat="46.5101317" lon="11.99613"><ele>1878.0</ele><time>2026-05-02T12:53:17.397Z</time></trkpt><trkpt lat="46.51025" lon="11.9963567"><ele>1878.0</ele><time>2026-05-02T12:53:18.398Z</time></trkpt><trkpt lat="46.5104017" lon="11.996615"><ele>1878.0</ele><time>2026-05-02T12:53:19.398Z</time></trkpt><trkpt lat="46.5105633" lon="11.9968867"><ele>1887.5</ele><time>2026-05-02T12:53:20.398Z</time></trkpt><trkpt lat="46.510725" lon="11.9971783"><ele>1897.0</ele><time>2026-05-02T12:53:21.398Z</time></trkpt><trkpt lat="46.51091" lon="11.9974817"><ele>1893.5</ele><time>2026-05-02T12:53:22.398Z</time></trkpt><trkpt lat="46.5111067" lon="11.9978017"><ele>1890.0</ele><time>2026-05-02T12:53:23.398Z</time></trkpt><trkpt lat="46.5112967" lon="11.9981233"><ele>1897.5</ele><time>2026-05-02T12:53:24.398Z</time></trkpt><trkpt lat="46.511485" lon="11.9984367"><ele>1905.0</ele><time>2026-05-02T12:53:25.398Z</time></trkpt><trkpt lat="46.51167" lon="11.9987533"><ele>1905.0</ele><time>2026-05-02T12:53:26.397Z</time></trkpt><trkpt lat="46.511825" lon="11.9990583"><ele>1905.0</ele><time>2026-05-02T12:53:27.398Z</time></trkpt><trkpt lat="46.5119783" lon="11.9993383"><ele>1908.6666666666665</ele><time>2026-05-02T12:53:28.398Z</time></trkpt><trkpt lat="46.512125" lon="11.99959"><ele>1912.3333333333333</ele><time>2026-05-02T12:53:29.398Z</time></trkpt><trkpt lat="46.51227" lon="11.99983"><ele>1916.0</ele><time>2026-05-02T12:53:30.398Z</time></trkpt><trkpt lat="46.5123983" lon="12.0000533"><ele>1916.0</ele><time>2026-05-02T12:53:31.398Z</time></trkpt><trkpt lat="46.512515" lon="12.0002533"><ele>1916.0</ele><time>2026-05-02T12:53:32.398Z</time></trkpt><trkpt lat="46.5126433" lon="12.0004233"><ele>1916.0</ele><time>2026-05-02T12:53:33.397Z</time></trkpt><trkpt lat="46.5127867" lon="12.0005683"><ele>1919.3333333333333</ele><time>2026-05-02T12:53:34.398Z</time></trkpt><trkpt lat="46.51293" lon="12.000685"><ele>1922.6666666666665</ele><time>2026-05-02T12:53:35.398Z</time></trkpt><trkpt lat="46.5131017" lon="12.000785"><ele>1926.0</ele><time>2026-05-02T12:53:36.397Z</time></trkpt><trkpt lat="46.5132733" lon="12.00088"><ele>1926.0</ele><time>2026-05-02T12:53:37.398Z</time></trkpt><trkpt lat="46.51344" lon="12.0009867"><ele>1926.0</ele><time>2026-05-02T12:53:38.398Z</time></trkpt><trkpt lat="46.5135933" lon="12.0010917"><ele>1926.0</ele><time>2026-05-02T12:53:39.398Z</time></trkpt><trkpt lat="46.5137283" lon="12.0011817"><ele>1929.1999999999998</ele><time>2026-05-02T12:53:40.398Z</time></trkpt><trkpt lat="46.5138417" lon="12.0012667"><ele>1932.3999999999999</ele><time>2026-05-02T12:53:41.398Z</time></trkpt><trkpt lat="46.5139533" lon="12.0013417"><ele>1935.6</ele><time>2026-05-02T12:53:42.397Z</time></trkpt><trkpt lat="46.5140417" lon="12.0014067"><ele>1938.8</ele><time>2026-05-02T12:53:43.397Z</time></trkpt><trkpt lat="46.51412" lon="12.0014783"><ele>1942.0</ele><time>2026-05-02T12:53:44.398Z</time></trkpt><trkpt lat="46.5141817" lon="12.001565"><ele>1942.0000000000002</ele><time>2026-05-02T12:53:45.397Z</time></trkpt><trkpt lat="46.514225" lon="12.00165"><ele>1942.0</ele><time>2026-05-02T12:53:46.398Z</time></trkpt><trkpt lat="46.5142483" lon="12.0017533"><ele>1942.0</ele><time>2026-05-02T12:53:47.398Z</time></trkpt><trkpt lat="46.5142617" lon="12.00186"><ele>1942.0</ele><time>2026-05-02T12:53:48.398Z</time></trkpt><trkpt lat="46.514275" lon="12.001965"><ele>1942.0000000000002</ele><time>2026-05-02T12:53:49.398Z</time></trkpt><trkpt lat="46.5142917" lon="12.002065"><ele>1942.0</ele><time>2026-05-02T12:53:50.398Z</time></trkpt><trkpt lat="46.51434" lon="12.0022"><ele>1940.3999999999999</ele><time>2026-05-02T12:53:52.398Z</time></trkpt><trkpt lat="46.51442" lon="12.0022517"><ele>1938.7999999999997</ele><time>2026-05-02T12:53:54.398Z</time></trkpt><trkpt lat="46.51452" lon="12.0021183"><ele>1937.2</ele><time>2026-05-02T12:53:56.398Z</time></trkpt><trkpt lat="46.5145467" lon="12.0020017"><ele>1935.6</ele><time>2026-05-02T12:53:57.398Z</time></trkpt><trkpt lat="46.514565" lon="12.0018883"><ele>1934.0</ele><time>2026-05-02T12:53:58.397Z</time></trkpt><trkpt lat="46.5145867" lon="12.00176"><ele>1936.0</ele><time>2026-05-02T12:53:59.398Z</time></trkpt><trkpt lat="46.5146067" lon="12.0016233"><ele>1938.0</ele><time>2026-05-02T12:54:00.398Z</time></trkpt><trkpt lat="46.5146017" lon="12.0014783"><ele>1940.0</ele><time>2026-05-02T12:54:01.398Z</time></trkpt><trkpt lat="46.5145683" lon="12.0013067"><ele>1942.0</ele><time>2026-05-02T12:54:02.398Z</time></trkpt><trkpt lat="46.51452" lon="12.0010833"><ele>1947.3333333333335</ele><time>2026-05-02T12:54:03.397Z</time></trkpt><trkpt lat="46.51446" lon="12.000825"><ele>1952.6666666666665</ele><time>2026-05-02T12:54:04.398Z</time></trkpt><trkpt lat="46.5143683" lon="12.000585"><ele>1958.0</ele><time>2026-05-02T12:54:05.398Z</time></trkpt><trkpt lat="46.5142333" lon="12.0003333"><ele>1958.0</ele><time>2026-05-02T12:54:06.398Z</time></trkpt><trkpt lat="46.5140783" lon="12.0001067"><ele>1958.0</ele><time>2026-05-02T12:54:07.398Z</time></trkpt><trkpt lat="46.5139483" lon="11.9998867"><ele>1958.0</ele><time>2026-05-02T12:54:08.398Z</time></trkpt><trkpt lat="46.5138367" lon="11.9996733"><ele>1958.0</ele><time>2026-05-02T12:54:09.397Z</time></trkpt><trkpt lat="46.513745" lon="11.9994183"><ele>1958.0</ele><time>2026-05-02T12:54:10.397Z</time></trkpt><trkpt lat="46.5136717" lon="11.999115"><ele>1958.0</ele><time>2026-05-02T12:54:11.398Z</time></trkpt><trkpt lat="46.5136133" lon="11.9987767"><ele>1956.5</ele><time>2026-05-02T12:54:12.397Z</time></trkpt><trkpt lat="46.5135517" lon="11.998435"><ele>1955.0</ele><time>2026-05-02T12:54:13.398Z</time></trkpt><trkpt lat="46.5134933" lon="11.998115"><ele>1955.0</ele><time>2026-05-02T12:54:14.398Z</time></trkpt><trkpt lat="46.51344" lon="11.99786"><ele>1955.0</ele><time>2026-05-02T12:54:15.398Z</time></trkpt><trkpt lat="46.5133617" lon="11.9976667"><ele>1955.0</ele><time>2026-05-02T12:54:16.397Z</time></trkpt><trkpt lat="46.5132433" lon="11.9974867"><ele>1958.5</ele><time>2026-05-02T12:54:17.398Z</time></trkpt><trkpt lat="46.5131433" lon="11.9973117"><ele>1962.0</ele><time>2026-05-02T12:54:18.398Z</time></trkpt><trkpt lat="46.5130633" lon="11.9971267"><ele>1965.5</ele><time>2026-05-02T12:54:19.397Z</time></trkpt><trkpt lat="46.51301" lon="11.996935"><ele>1969.0</ele><time>2026-05-02T12:54:20.398Z</time></trkpt><trkpt lat="46.5129833" lon="11.9966933"><ele>1970.75</ele><time>2026-05-02T12:54:21.398Z</time></trkpt><trkpt lat="46.5129633" lon="11.9964533"><ele>1972.5</ele><time>2026-05-02T12:54:22.397Z</time></trkpt><trkpt lat="46.512945" lon="11.99628"><ele>1974.25</ele><time>2026-05-02T12:54:23.398Z</time></trkpt><trkpt lat="46.5129433" lon="11.996145"><ele>1976.0</ele><time>2026-05-02T12:54:24.397Z</time></trkpt><trkpt lat="46.5129583" lon="11.99604"><ele>1975.9999999999998</ele><time>2026-05-02T12:54:25.397Z</time></trkpt><trkpt lat="46.5130083" lon="11.9959783"><ele>1976.0</ele><time>2026-05-02T12:54:26.398Z</time></trkpt><trkpt lat="46.5130783" lon="11.995975"><ele>1976.0</ele><time>2026-05-02T12:54:27.398Z</time></trkpt><trkpt lat="46.5131383" lon="11.9960117"><ele>1976.0</ele><time>2026-05-02T12:54:28.398Z</time></trkpt><trkpt lat="46.5131867" lon="11.9960867"><ele>1975.9999999999998</ele><time>2026-05-02T12:54:29.398Z</time></trkpt><trkpt lat="46.51319" lon="11.996245"><ele>1976.0</ele><time>2026-05-02T12:54:30.397Z</time></trkpt><trkpt lat="46.513175" lon="11.996445"><ele>1976.0</ele><time>2026-05-02T12:54:31.398Z</time></trkpt><trkpt lat="46.5131583" lon="11.99665"><ele>1976.0</ele><time>2026-05-02T12:54:32.398Z</time></trkpt><trkpt lat="46.51316" lon="11.996835"><ele>1976.0</ele><time>2026-05-02T12:54:33.398Z</time></trkpt><trkpt lat="46.5132" lon="11.99699"><ele>1976.0</ele><time>2026-05-02T12:54:34.398Z</time></trkpt><trkpt lat="46.5132917" lon="11.99711"><ele>1973.6666666666665</ele><time>2026-05-02T12:54:35.398Z</time></trkpt><trkpt lat="46.5134217" lon="11.9972367"><ele>1971.3333333333335</ele><time>2026-05-02T12:54:36.398Z</time></trkpt><trkpt lat="46.513585" lon="11.9973533"><ele>1969.0</ele><time>2026-05-02T12:54:37.397Z</time></trkpt><trkpt lat="46.5137333" lon="11.9974817"><ele>1976.0</ele><time>2026-05-02T12:54:38.397Z</time></trkpt><trkpt lat="46.5138533" lon="11.9976367"><ele>1983.0</ele><time>2026-05-02T12:54:39.398Z</time></trkpt><trkpt lat="46.51396" lon="11.9978383"><ele>1990.0</ele><time>2026-05-02T12:54:40.398Z</time></trkpt><trkpt lat="46.5140433" lon="11.9980867"><ele>1990.0</ele><time>2026-05-02T12:54:41.398Z</time></trkpt><trkpt lat="46.5141217" lon="11.998325"><ele>1990.0</ele><time>2026-05-02T12:54:42.398Z</time></trkpt><trkpt lat="46.5142033" lon="11.99853"><ele>1990.0</ele><time>2026-05-02T12:54:43.397Z</time></trkpt><trkpt lat="46.5143117" lon="11.9987417"><ele>1990.5</ele><time>2026-05-02T12:54:44.398Z</time></trkpt><trkpt lat="46.5144583" lon="11.9989717"><ele>1991.0</ele><time>2026-05-02T12:54:45.398Z</time></trkpt><trkpt lat="46.514625" lon="11.9992217"><ele>1991.0</ele><time>2026-05-02T12:54:46.397Z</time></trkpt><trkpt lat="46.5147933" lon="11.9994683"><ele>1991.0</ele><time>2026-05-02T12:54:47.398Z</time></trkpt><trkpt lat="46.5149667" lon="11.9997167"><ele>1991.0</ele><time>2026-05-02T12:54:48.398Z</time></trkpt><trkpt lat="46.5151233" lon="11.99995"><ele>1991.0</ele><time>2026-05-02T12:54:49.398Z</time></trkpt><trkpt lat="46.51524" lon="12.0001667"><ele>1991.0</ele><time>2026-05-02T12:54:50.398Z</time></trkpt><trkpt lat="46.51533" lon="12.0003783"><ele>1997.75</ele><time>2026-05-02T12:54:51.397Z</time></trkpt><trkpt lat="46.5154067" lon="12.0005717"><ele>2004.5</ele><time>2026-05-02T12:54:52.398Z</time></trkpt><trkpt lat="46.515485" lon="12.0007267"><ele>2011.25</ele><time>2026-05-02T12:54:53.397Z</time></trkpt><trkpt lat="46.5156167" lon="12.0008333"><ele>2018.0</ele><time>2026-05-02T12:54:54.398Z</time></trkpt><trkpt lat="46.515795" lon="12.000925"><ele>2018.0</ele><time>2026-05-02T12:54:55.397Z</time></trkpt><trkpt lat="46.5159933" lon="12.0010067"><ele>2018.0</ele><time>2026-05-02T12:54:56.397Z</time></trkpt><trkpt lat="46.51617" lon="12.0010917"><ele>2018.0</ele><time>2026-05-02T12:54:57.397Z</time></trkpt><trkpt lat="46.516315" lon="12.0011917"><ele>2018.0</ele><time>2026-05-02T12:54:58.398Z</time></trkpt><trkpt lat="46.51647" lon="12.0013283"><ele>2018.0</ele><time>2026-05-02T12:54:59.398Z</time></trkpt><trkpt lat="46.5166" lon="12.001535"><ele>2018.0</ele><time>2026-05-02T12:55:00.398Z</time></trkpt><trkpt lat="46.5167283" lon="12.0017633"><ele>2018.0</ele><time>2026-05-02T12:55:01.398Z</time></trkpt><trkpt lat="46.5168367" lon="12.001995"><ele>2018.0</ele><time>2026-05-02T12:55:02.397Z</time></trkpt><trkpt lat="46.5169367" lon="12.002195"><ele>2018.0</ele><time>2026-05-02T12:55:03.398Z</time></trkpt><trkpt lat="46.5170467" lon="12.0023467"><ele>2018.25</ele><time>2026-05-02T12:55:04.397Z</time></trkpt><trkpt lat="46.5171217" lon="12.002505"><ele>2018.5</ele><time>2026-05-02T12:55:05.398Z</time></trkpt><trkpt lat="46.517215" lon="12.0026383"><ele>2018.75</ele><time>2026-05-02T12:55:06.398Z</time></trkpt><trkpt lat="46.5173183" lon="12.0027533"><ele>2019.0</ele><time>2026-05-02T12:55:07.398Z</time></trkpt><trkpt lat="46.5174383" lon="12.0028467"><ele>2019.0</ele><time>2026-05-02T12:55:08.398Z</time></trkpt><trkpt lat="46.517605" lon="12.0029183"><ele>2019.0</ele><time>2026-05-02T12:55:09.398Z</time></trkpt><trkpt lat="46.51773" lon="12.0029867"><ele>2019.0</ele><time>2026-05-02T12:55:10.398Z</time></trkpt><trkpt lat="46.5178733" lon="12.003065"><ele>2030.3333333333335</ele><time>2026-05-02T12:55:11.398Z</time></trkpt><trkpt lat="46.5180367" lon="12.0031533"><ele>2041.6666666666667</ele><time>2026-05-02T12:55:12.398Z</time></trkpt><trkpt lat="46.518225" lon="12.0032433"><ele>2053.0</ele><time>2026-05-02T12:55:13.398Z</time></trkpt><trkpt lat="46.518435" lon="12.00326"><ele>2047.25</ele><time>2026-05-02T12:55:14.398Z</time></trkpt><trkpt lat="46.5185917" lon="12.0033483"><ele>2041.5</ele><time>2026-05-02T12:55:15.398Z</time></trkpt><trkpt lat="46.5186167" lon="12.003465"><ele>2035.75</ele><time>2026-05-02T12:55:16.398Z</time></trkpt><trkpt lat="46.5186" lon="12.0036233"><ele>2030.0</ele><time>2026-05-02T12:55:17.397Z</time></trkpt><trkpt lat="46.5185617" lon="12.003765"><ele>2030.0</ele><time>2026-05-02T12:55:18.398Z</time></trkpt><trkpt lat="46.518495" lon="12.0039183"><ele>2030.0</ele><time>2026-05-02T12:55:19.398Z</time></trkpt><trkpt lat="46.518395" lon="12.0040917"><ele>2030.0</ele><time>2026-05-02T12:55:20.398Z</time></trkpt><trkpt lat="46.5182783" lon="12.00428"><ele>2030.3333333333333</ele><time>2026-05-02T12:55:21.398Z</time></trkpt><trkpt lat="46.51815" lon="12.0044917"><ele>2030.6666666666665</ele><time>2026-05-02T12:55:22.397Z</time></trkpt><trkpt lat="46.5180333" lon="12.0046933"><ele>2031.0</ele><time>2026-05-02T12:55:23.397Z</time></trkpt><trkpt lat="46.5179267" lon="12.0048833"><ele>2026.5</ele><time>2026-05-02T12:55:24.398Z</time></trkpt><trkpt lat="46.5178383" lon="12.0050683"><ele>2022.0</ele><time>2026-05-02T12:55:25.398Z</time></trkpt><trkpt lat="46.5177817" lon="12.0052483"><ele>2017.5</ele><time>2026-05-02T12:55:26.398Z</time></trkpt><trkpt lat="46.51773" lon="12.0054183"><ele>2013.0</ele><time>2026-05-02T12:55:27.398Z</time></trkpt><trkpt lat="46.5176717" lon="12.0055467"><ele>2013.0</ele><time>2026-05-02T12:55:28.398Z</time></trkpt><trkpt lat="46.5176" lon="12.0056517"><ele>2013.0</ele><time>2026-05-02T12:55:29.397Z</time></trkpt><trkpt lat="46.51754" lon="12.0057417"><ele>2013.0</ele><time>2026-05-02T12:55:30.398Z</time></trkpt><trkpt lat="46.5175033" lon="12.0058383"><ele>2013.0</ele><time>2026-05-02T12:55:31.397Z</time></trkpt><trkpt lat="46.5175167" lon="12.0059317"><ele>2013.0</ele><time>2026-05-02T12:55:32.398Z</time></trkpt><trkpt lat="46.5175617" lon="12.0060783"><ele>2013.0</ele><time>2026-05-02T12:55:34.398Z</time></trkpt><trkpt lat="46.5176233" lon="12.0062233"><ele>2020.5</ele><time>2026-05-02T12:55:36.398Z</time></trkpt><trkpt lat="46.51768" lon="12.0063733"><ele>2028.0</ele><time>2026-05-02T12:55:38.398Z</time></trkpt><trkpt lat="46.517735" lon="12.0064183"><ele>2035.5</ele><time>2026-05-02T12:55:39.397Z</time></trkpt><trkpt lat="46.5178233" lon="12.0063483"><ele>2043.0</ele><time>2026-05-02T12:55:40.398Z</time></trkpt><trkpt lat="46.51803" lon="12.0057867"><ele>2045.0</ele><time>2026-05-02T12:55:41.398Z</time></trkpt><trkpt lat="46.5181567" lon="12.0054"><ele>2047.0</ele><time>2026-05-02T12:55:42.398Z</time></trkpt><trkpt lat="46.5182567" lon="12.00499"><ele>2041.6666666666667</ele><time>2026-05-02T12:55:43.398Z</time></trkpt><trkpt lat="46.5183633" lon="12.0047317"><ele>2036.3333333333335</ele><time>2026-05-02T12:55:44.398Z</time></trkpt><trkpt lat="46.51848" lon="12.0045883"><ele>2031.0</ele><time>2026-05-02T12:55:45.397Z</time></trkpt><trkpt lat="46.5186083" lon="12.004525"><ele>2035.75</ele><time>2026-05-02T12:55:46.398Z</time></trkpt><trkpt lat="46.5187483" lon="12.004515"><ele>2040.5</ele><time>2026-05-02T12:55:47.398Z</time></trkpt><trkpt lat="46.51888" lon="12.0045417"><ele>2045.25</ele><time>2026-05-02T12:55:48.398Z</time></trkpt><trkpt lat="46.5190133" lon="12.0045717"><ele>2050.0</ele><time>2026-05-02T12:55:49.397Z</time></trkpt><trkpt lat="46.519145" lon="12.0045533"><ele>2050.0</ele><time>2026-05-02T12:55:50.398Z</time></trkpt><trkpt lat="46.5192783" lon="12.0044683"><ele>2050.0</ele><time>2026-05-02T12:55:51.397Z</time></trkpt><trkpt lat="46.5194133" lon="12.0043183"><ele>2050.0</ele><time>2026-05-02T12:55:52.398Z</time></trkpt><trkpt lat="46.51954" lon="12.00415"><ele>2052.8</ele><time>2026-05-02T12:55:53.398Z</time></trkpt><trkpt lat="46.5196483" lon="12.003985"><ele>2055.6</ele><time>2026-05-02T12:55:54.398Z</time></trkpt><trkpt lat="46.5197417" lon="12.0038483"><ele>2058.4</ele><time>2026-05-02T12:55:55.397Z</time></trkpt><trkpt lat="46.5198083" lon="12.0037717"><ele>2061.2</ele><time>2026-05-02T12:55:56.398Z</time></trkpt><trkpt lat="46.5198783" lon="12.0037333"><ele>2064.0</ele><time>2026-05-02T12:55:57.397Z</time></trkpt><trkpt lat="46.51995" lon="12.0037583"><ele>2064.0</ele><time>2026-05-02T12:55:58.397Z</time></trkpt><trkpt lat="46.519995" lon="12.00383"><ele>2064.0</ele><time>2026-05-02T12:55:59.398Z</time></trkpt><trkpt lat="46.5200133" lon="12.00394"><ele>2064.0</ele><time>2026-05-02T12:56:00.398Z</time></trkpt><trkpt lat="46.5199733" lon="12.0040867"><ele>2064.0</ele><time>2026-05-02T12:56:01.398Z</time></trkpt><trkpt lat="46.5198933" lon="12.0042633"><ele>2064.0</ele><time>2026-05-02T12:56:02.397Z</time></trkpt><trkpt lat="46.519795" lon="12.004465"><ele>2065.0</ele><time>2026-05-02T12:56:03.398Z</time></trkpt><trkpt lat="46.51967" lon="12.0046583"><ele>2066.0</ele><time>2026-05-02T12:56:04.398Z</time></trkpt><trkpt lat="46.5195483" lon="12.0048033"><ele>2067.0</ele><time>2026-05-02T12:56:05.398Z</time></trkpt><trkpt lat="46.519425" lon="12.0048883"><ele>2066.3333333333335</ele><time>2026-05-02T12:56:06.398Z</time></trkpt><trkpt lat="46.5193067" lon="12.0049267"><ele>2065.6666666666665</ele><time>2026-05-02T12:56:07.397Z</time></trkpt><trkpt lat="46.519225" lon="12.0049833"><ele>2065.0</ele><time>2026-05-02T12:56:08.397Z</time></trkpt><trkpt lat="46.519175" lon="12.00507"><ele>2064.333333333333</ele><time>2026-05-02T12:56:09.397Z</time></trkpt><trkpt lat="46.519155" lon="12.00517"><ele>2063.6666666666665</ele><time>2026-05-02T12:56:10.398Z</time></trkpt><trkpt lat="46.519195" lon="12.0052717"><ele>2063.0</ele><time>2026-05-02T12:56:11.398Z</time></trkpt><trkpt lat="46.51926" lon="12.0053433"><ele>2063.0</ele><time>2026-05-02T12:56:12.398Z</time></trkpt><trkpt lat="46.519385" lon="12.0053517"><ele>2063.0</ele><time>2026-05-02T12:56:13.398Z</time></trkpt><trkpt lat="46.5195283" lon="12.0053033"><ele>2063.0</ele><time>2026-05-02T12:56:14.398Z</time></trkpt><trkpt lat="46.519695" lon="12.0052383"><ele>2063.0</ele><time>2026-05-02T12:56:15.398Z</time></trkpt><trkpt lat="46.51984" lon="12.0052067"><ele>2064.6666666666665</ele><time>2026-05-02T12:56:16.398Z</time></trkpt><trkpt lat="46.519945" lon="12.005215"><ele>2066.333333333333</ele><time>2026-05-02T12:56:17.398Z</time></trkpt><trkpt lat="46.5200167" lon="12.0052567"><ele>2068.0</ele><time>2026-05-02T12:56:18.398Z</time></trkpt><trkpt lat="46.5200533" lon="12.0053383"><ele>2069.6666666666665</ele><time>2026-05-02T12:56:19.397Z</time></trkpt><trkpt lat="46.52005" lon="12.00546"><ele>2071.3333333333335</ele><time>2026-05-02T12:56:20.398Z</time></trkpt><trkpt lat="46.5199933" lon="12.00559"><ele>2073.0</ele><time>2026-05-02T12:56:21.397Z</time></trkpt><trkpt lat="46.5198983" lon="12.0057417"><ele>2074.6666666666665</ele><time>2026-05-02T12:56:22.398Z</time></trkpt><trkpt lat="46.5197567" lon="12.0058967"><ele>2076.333333333333</ele><time>2026-05-02T12:56:23.398Z</time></trkpt><trkpt lat="46.5195983" lon="12.00607"><ele>2078.0</ele><time>2026-05-02T12:56:24.398Z</time></trkpt><trkpt lat="46.51943" lon="12.0062767"><ele>2078.0</ele><time>2026-05-02T12:56:25.398Z</time></trkpt><trkpt lat="46.5192683" lon="12.006525"><ele>2078.0</ele><time>2026-05-02T12:56:26.397Z</time></trkpt><trkpt lat="46.519125" lon="12.006795"><ele>2081.6666666666665</ele><time>2026-05-02T12:56:27.397Z</time></trkpt><trkpt lat="46.5190083" lon="12.00706"><ele>2085.3333333333335</ele><time>2026-05-02T12:56:28.397Z</time></trkpt><trkpt lat="46.5189083" lon="12.0073067"><ele>2089.0</ele><time>2026-05-02T12:56:29.398Z</time></trkpt><trkpt lat="46.5188317" lon="12.0075433"><ele>2089.0</ele><time>2026-05-02T12:56:30.398Z</time></trkpt><trkpt lat="46.518785" lon="12.0077667"><ele>2089.0</ele><time>2026-05-02T12:56:31.398Z</time></trkpt><trkpt lat="46.5187517" lon="12.00797"><ele>2089.0</ele><time>2026-05-02T12:56:32.397Z</time></trkpt><trkpt lat="46.5187333" lon="12.0081483"><ele>2089.0</ele><time>2026-05-02T12:56:33.398Z</time></trkpt><trkpt lat="46.51872" lon="12.0082983"><ele>2090.166666666667</ele><time>2026-05-02T12:56:34.398Z</time></trkpt><trkpt lat="46.51871" lon="12.0084317"><ele>2091.3333333333335</ele><time>2026-05-02T12:56:35.397Z</time></trkpt><trkpt lat="46.5187067" lon="12.008535"><ele>2092.5</ele><time>2026-05-02T12:56:36.397Z</time></trkpt><trkpt lat="46.5187033" lon="12.0086283"><ele>2093.6666666666665</ele><time>2026-05-02T12:56:37.398Z</time></trkpt><trkpt lat="46.5187117" lon="12.0087717"><ele>2094.833333333333</ele><time>2026-05-02T12:56:39.398Z</time></trkpt><trkpt lat="46.518715" lon="12.008865"><ele>2096.0</ele><time>2026-05-02T12:56:41.397Z</time></trkpt><trkpt lat="46.5187133" lon="12.0089717"><ele>2096.0</ele><time>2026-05-02T12:56:44.398Z</time></trkpt><trkpt lat="46.51871" lon="12.0091383"><ele>2096.0</ele><time>2026-05-02T12:57:35.398Z</time></trkpt><trkpt lat="46.5187545" lon="12.0090666"><ele>2096.0</ele><time>2026-05-02T12:58:15.431Z</time></trkpt><trkpt lat="46.5187178" lon="12.0089841"><ele>2096.0</ele><time>2026-05-02T12:59:59.47Z</time></trkpt><trkpt lat="46.5187399" lon="12.0091463"><ele>2096.0</ele><time>2026-05-02T13:03:06.398Z</time></trkpt><trkpt lat="46.5187682" lon="12.0092611"><ele>2096.0</ele><time>2026-05-02T13:03:07.398Z</time></trkpt><trkpt lat="46.5188123" lon="12.0093898"><ele>2097.2</ele><time>2026-05-02T13:03:08.398Z</time></trkpt><trkpt lat="46.5188595" lon="12.0095141"><ele>2098.3999999999996</ele><time>2026-05-02T13:03:09.398Z</time></trkpt><trkpt lat="46.51889" lon="12.009635"><ele>2099.6</ele><time>2026-05-02T13:03:10.397Z</time></trkpt><trkpt lat="46.51894" lon="12.0097583"><ele>2100.7999999999997</ele><time>2026-05-02T13:03:11.397Z</time></trkpt><trkpt lat="46.51899" lon="12.00989"><ele>2102.0</ele><time>2026-05-02T13:03:12.398Z</time></trkpt><trkpt lat="46.5190383" lon="12.0100283"><ele>2102.0</ele><time>2026-05-02T13:03:13.398Z</time></trkpt><trkpt lat="46.519095" lon="12.010175"><ele>2102.0</ele><time>2026-05-02T13:03:14.398Z</time></trkpt><trkpt lat="46.519145" lon="12.010325"><ele>2102.0</ele><time>2026-05-02T13:03:15.398Z</time></trkpt><trkpt lat="46.5191867" lon="12.0104817"><ele>2102.0</ele><time>2026-05-02T13:03:16.398Z</time></trkpt><trkpt lat="46.5192" lon="12.0106417"><ele>2102.0</ele><time>2026-05-02T13:03:17.397Z</time></trkpt><trkpt lat="46.5192017" lon="12.0107967"><ele>2102.0</ele><time>2026-05-02T13:03:18.398Z</time></trkpt><trkpt lat="46.51919" lon="12.01095"><ele>2102.0</ele><time>2026-05-02T13:03:19.398Z</time></trkpt><trkpt lat="46.5191733" lon="12.0111033"><ele>2102.0</ele><time>2026-05-02T13:03:20.398Z</time></trkpt><trkpt lat="46.5191583" lon="12.0112683"><ele>2102.0</ele><time>2026-05-02T13:03:21.398Z</time></trkpt><trkpt lat="46.5191517" lon="12.0114383"><ele>2100.75</ele><time>2026-05-02T13:03:22.397Z</time></trkpt><trkpt lat="46.519165" lon="12.0116133"><ele>2099.5</ele><time>2026-05-02T13:03:23.398Z</time></trkpt><trkpt lat="46.5191867" lon="12.0117883"><ele>2098.25</ele><time>2026-05-02T13:03:24.397Z</time></trkpt><trkpt lat="46.5192133" lon="12.0119817"><ele>2097.0</ele><time>2026-05-02T13:03:25.398Z</time></trkpt><trkpt lat="46.5192433" lon="12.0121733"><ele>2096.25</ele><time>2026-05-02T13:03:26.398Z</time></trkpt><trkpt lat="46.5192717" lon="12.0123617"><ele>2095.5</ele><time>2026-05-02T13:03:27.398Z</time></trkpt><trkpt lat="46.5193017" lon="12.012545"><ele>2094.75</ele><time>2026-05-02T13:03:28.397Z</time></trkpt><trkpt lat="46.51933" lon="12.01272"><ele>2094.0</ele><time>2026-05-02T13:03:29.397Z</time></trkpt><trkpt lat="46.519355" lon="12.0128933"><ele>2093.0</ele><time>2026-05-02T13:03:30.397Z</time></trkpt><trkpt lat="46.5193717" lon="12.0130783"><ele>2092.0</ele><time>2026-05-02T13:03:31.397Z</time></trkpt><trkpt lat="46.5193833" lon="12.0132583"><ele>2091.0</ele><time>2026-05-02T13:03:32.398Z</time></trkpt><trkpt lat="46.5193933" lon="12.013445"><ele>2090.0</ele><time>2026-05-02T13:03:33.398Z</time></trkpt><trkpt lat="46.5194017" lon="12.0136283"><ele>2089.25</ele><time>2026-05-02T13:03:34.398Z</time></trkpt><trkpt lat="46.5194117" lon="12.0138133"><ele>2088.5</ele><time>2026-05-02T13:03:35.398Z</time></trkpt><trkpt lat="46.5194317" lon="12.0139983"><ele>2087.75</ele><time>2026-05-02T13:03:36.397Z</time></trkpt><trkpt lat="46.519455" lon="12.0141817"><ele>2087.0</ele><time>2026-05-02T13:03:37.398Z</time></trkpt><trkpt lat="46.519485" lon="12.014365"><ele>2087.0</ele><time>2026-05-02T13:03:38.397Z</time></trkpt><trkpt lat="46.5195217" lon="12.0145433"><ele>2087.0</ele><time>2026-05-02T13:03:39.397Z</time></trkpt><trkpt lat="46.519575" lon="12.0147167"><ele>2087.0</ele><time>2026-05-02T13:03:40.398Z</time></trkpt><trkpt lat="46.519645" lon="12.0148817"><ele>2087.0</ele><time>2026-05-02T13:03:41.398Z</time></trkpt><trkpt lat="46.5197133" lon="12.0150367"><ele>2087.25</ele><time>2026-05-02T13:03:42.398Z</time></trkpt><trkpt lat="46.5197817" lon="12.015185"><ele>2087.5</ele><time>2026-05-02T13:03:43.398Z</time></trkpt><trkpt lat="46.51985" lon="12.015335"><ele>2087.75</ele><time>2026-05-02T13:03:44.398Z</time></trkpt><trkpt lat="46.5199183" lon="12.01549"><ele>2088.0</ele><time>2026-05-02T13:03:45.397Z</time></trkpt><trkpt lat="46.5199867" lon="12.0156433"><ele>2088.0</ele><time>2026-05-02T13:03:46.397Z</time></trkpt><trkpt lat="46.5200617" lon="12.015805"><ele>2088.0</ele><time>2026-05-02T13:03:47.398Z</time></trkpt><trkpt lat="46.5201467" lon="12.015965"><ele>2088.0</ele><time>2026-05-02T13:03:48.398Z</time></trkpt><trkpt lat="46.52023" lon="12.0161283"><ele>2088.0</ele><time>2026-05-02T13:03:49.397Z</time></trkpt><trkpt lat="46.520315" lon="12.01628"><ele>2087.75</ele><time>2026-05-02T13:03:50.398Z</time></trkpt><trkpt lat="46.5203967" lon="12.0164317"><ele>2087.5</ele><time>2026-05-02T13:03:51.398Z</time></trkpt><trkpt lat="46.5204817" lon="12.016575"><ele>2087.25</ele><time>2026-05-02T13:03:52.398Z</time></trkpt><trkpt lat="46.5205667" lon="12.016735"><ele>2087.0</ele><time>2026-05-02T13:03:53.397Z</time></trkpt><trkpt lat="46.5206483" lon="12.0169033"><ele>2084.5</ele><time>2026-05-02T13:03:54.398Z</time></trkpt><trkpt lat="46.52072" lon="12.0170717"><ele>2082.0</ele><time>2026-05-02T13:03:55.398Z</time></trkpt><trkpt lat="46.520775" lon="12.0172567"><ele>2079.5</ele><time>2026-05-02T13:03:56.398Z</time></trkpt><trkpt lat="46.5208083" lon="12.0174583"><ele>2077.0</ele><time>2026-05-02T13:03:57.398Z</time></trkpt><trkpt lat="46.5208067" lon="12.01766"><ele>2075.25</ele><time>2026-05-02T13:03:58.398Z</time></trkpt><trkpt lat="46.520775" lon="12.0178683"><ele>2073.5</ele><time>2026-05-02T13:03:59.398Z</time></trkpt><trkpt lat="46.52072" lon="12.0180667"><ele>2071.75</ele><time>2026-05-02T13:04:00.397Z</time></trkpt><trkpt lat="46.5206517" lon="12.0182367"><ele>2070.0</ele><time>2026-05-02T13:04:01.398Z</time></trkpt><trkpt lat="46.5205733" lon="12.0183983"><ele>2069.0</ele><time>2026-05-02T13:04:02.398Z</time></trkpt><trkpt lat="46.5204917" lon="12.0185467"><ele>2068.0</ele><time>2026-05-02T13:04:03.398Z</time></trkpt><trkpt lat="46.5204183" lon="12.0186833"><ele>2067.0</ele><time>2026-05-02T13:04:04.398Z</time></trkpt><trkpt lat="46.520325" lon="12.01881"><ele>2066.0</ele><time>2026-05-02T13:04:05.398Z</time></trkpt><trkpt lat="46.520215" lon="12.01892"><ele>2062.0</ele><time>2026-05-02T13:04:06.398Z</time></trkpt><trkpt lat="46.5201017" lon="12.0190183"><ele>2058.0</ele><time>2026-05-02T13:04:07.397Z</time></trkpt><trkpt lat="46.5199867" lon="12.0191083"><ele>2054.0</ele><time>2026-05-02T13:04:08.398Z</time></trkpt><trkpt lat="46.51987" lon="12.0191883"><ele>2050.0</ele><time>2026-05-02T13:04:09.398Z</time></trkpt><trkpt lat="46.51976" lon="12.01927"><ele>2050.0</ele><time>2026-05-02T13:04:10.397Z</time></trkpt><trkpt lat="46.519655" lon="12.01936"><ele>2050.0</ele><time>2026-05-02T13:04:11.398Z</time></trkpt><trkpt lat="46.5195683" lon="12.01947"><ele>2050.0</ele><time>2026-05-02T13:04:12.398Z</time></trkpt><trkpt lat="46.5195083" lon="12.01961"><ele>2050.0</ele><time>2026-05-02T13:04:13.398Z</time></trkpt><trkpt lat="46.5194767" lon="12.019755"><ele>2050.5</ele><time>2026-05-02T13:04:14.398Z</time></trkpt><trkpt lat="46.51948" lon="12.0199"><ele>2051.0</ele><time>2026-05-02T13:04:15.398Z</time></trkpt><trkpt lat="46.519525" lon="12.020045"><ele>2051.5</ele><time>2026-05-02T13:04:16.398Z</time></trkpt><trkpt lat="46.5196167" lon="12.020195"><ele>2052.0</ele><time>2026-05-02T13:04:17.398Z</time></trkpt><trkpt lat="46.5197417" lon="12.02035"><ele>2049.6666666666665</ele><time>2026-05-02T13:04:18.398Z</time></trkpt><trkpt lat="46.5198883" lon="12.02051"><ele>2047.3333333333333</ele><time>2026-05-02T13:04:19.398Z</time></trkpt><trkpt lat="46.52003" lon="12.0206633"><ele>2045.0</ele><time>2026-05-02T13:04:20.397Z</time></trkpt><trkpt lat="46.5201567" lon="12.020835"><ele>2043.0</ele><time>2026-05-02T13:04:21.398Z</time></trkpt><trkpt lat="46.520255" lon="12.0210333"><ele>2041.0</ele><time>2026-05-02T13:04:22.398Z</time></trkpt><trkpt lat="46.5203233" lon="12.0212617"><ele>2039.0</ele><time>2026-05-02T13:04:23.397Z</time></trkpt><trkpt lat="46.5203733" lon="12.0214917"><ele>2042.0</ele><time>2026-05-02T13:04:24.398Z</time></trkpt><trkpt lat="46.5204083" lon="12.0217217"><ele>2045.0</ele><time>2026-05-02T13:04:25.398Z</time></trkpt><trkpt lat="46.5204067" lon="12.0219433"><ele>2048.0</ele><time>2026-05-02T13:04:26.397Z</time></trkpt><trkpt lat="46.52037" lon="12.0221633"><ele>2043.5</ele><time>2026-05-02T13:04:27.398Z</time></trkpt><trkpt lat="46.5203183" lon="12.0223783"><ele>2039.0</ele><time>2026-05-02T13:04:28.398Z</time></trkpt><trkpt lat="46.52028" lon="12.02258"><ele>2034.5</ele><time>2026-05-02T13:04:29.398Z</time></trkpt><trkpt lat="46.520265" lon="12.0227533"><ele>2030.0</ele><time>2026-05-02T13:04:30.398Z</time></trkpt><trkpt lat="46.520285" lon="12.022925"><ele>2028.6</ele><time>2026-05-02T13:04:31.398Z</time></trkpt><trkpt lat="46.520325" lon="12.02308"><ele>2027.2</ele><time>2026-05-02T13:04:32.398Z</time></trkpt><trkpt lat="46.52036" lon="12.0232083"><ele>2025.8000000000002</ele><time>2026-05-02T13:04:33.398Z</time></trkpt><trkpt lat="46.5203717" lon="12.02331"><ele>2024.4</ele><time>2026-05-02T13:04:34.398Z</time></trkpt><trkpt lat="46.520305" lon="12.023425"><ele>2023.0</ele><time>2026-05-02T13:04:36.398Z</time></trkpt><trkpt lat="46.5202" lon="12.0233517"><ele>2023.0</ele><time>2026-05-02T13:04:38.398Z</time></trkpt><trkpt lat="46.5201533" lon="12.023215"><ele>2023.0</ele><time>2026-05-02T13:04:39.398Z</time></trkpt><trkpt lat="46.5201117" lon="12.0230483"><ele>2023.0</ele><time>2026-05-02T13:04:40.397Z</time></trkpt><trkpt lat="46.5200667" lon="12.0228783"><ele>2023.0</ele><time>2026-05-02T13:04:41.398Z</time></trkpt><trkpt lat="46.51999" lon="12.02274"><ele>2023.0</ele><time>2026-05-02T13:04:42.398Z</time></trkpt><trkpt lat="46.5198983" lon="12.0226283"><ele>2023.0000000000002</ele><time>2026-05-02T13:04:43.398Z</time></trkpt><trkpt lat="46.5198067" lon="12.0225417"><ele>2023.0000000000002</ele><time>2026-05-02T13:04:44.398Z</time></trkpt><trkpt lat="46.519725" lon="12.0224617"><ele>2023.0</ele><time>2026-05-02T13:04:45.398Z</time></trkpt><trkpt lat="46.519645" lon="12.0224233"><ele>2023.0</ele><time>2026-05-02T13:04:46.398Z</time></trkpt><trkpt lat="46.51957" lon="12.022425"><ele>2022.0000000000002</ele><time>2026-05-02T13:04:47.398Z</time></trkpt><trkpt lat="46.5195" lon="12.02249"><ele>2021.0</ele><time>2026-05-02T13:04:48.398Z</time></trkpt><trkpt lat="46.5194467" lon="12.0225867"><ele>2020.0</ele><time>2026-05-02T13:04:49.398Z</time></trkpt><trkpt lat="46.519425" lon="12.0227033"><ele>2019.0</ele><time>2026-05-02T13:04:50.398Z</time></trkpt><trkpt lat="46.5194433" lon="12.0228233"><ele>2018.0000000000002</ele><time>2026-05-02T13:04:51.398Z</time></trkpt><trkpt lat="46.5194933" lon="12.0229433"><ele>2017.0</ele><time>2026-05-02T13:04:52.397Z</time></trkpt><trkpt lat="46.5195583" lon="12.023075"><ele>2016.5</ele><time>2026-05-02T13:04:53.398Z</time></trkpt><trkpt lat="46.5196217" lon="12.0232183"><ele>2016.0</ele><time>2026-05-02T13:04:54.398Z</time></trkpt><trkpt lat="46.51968" lon="12.0233767"><ele>2015.5</ele><time>2026-05-02T13:04:55.397Z</time></trkpt><trkpt lat="46.5197233" lon="12.0235367"><ele>2015.0</ele><time>2026-05-02T13:04:56.397Z</time></trkpt><trkpt lat="46.5197333" lon="12.0237133"><ele>2015.0</ele><time>2026-05-02T13:04:57.397Z</time></trkpt><trkpt lat="46.5197283" lon="12.0238967"><ele>2015.0</ele><time>2026-05-02T13:04:58.398Z</time></trkpt><trkpt lat="46.5197167" lon="12.0240717"><ele>2015.0</ele><time>2026-05-02T13:04:59.398Z</time></trkpt><trkpt lat="46.519705" lon="12.0242533"><ele>2015.0</ele><time>2026-05-02T13:05:00.398Z</time></trkpt><trkpt lat="46.5197" lon="12.02443"><ele>2014.5</ele><time>2026-05-02T13:05:01.397Z</time></trkpt><trkpt lat="46.519705" lon="12.024615"><ele>2014.0</ele><time>2026-05-02T13:05:02.398Z</time></trkpt><trkpt lat="46.5197083" lon="12.0248067"><ele>2013.5</ele><time>2026-05-02T13:05:03.398Z</time></trkpt><trkpt lat="46.519715" lon="12.0250067"><ele>2013.0</ele><time>2026-05-02T13:05:04.398Z</time></trkpt><trkpt lat="46.5197333" lon="12.02521"><ele>2012.75</ele><time>2026-05-02T13:05:05.398Z</time></trkpt><trkpt lat="46.5197633" lon="12.02541"><ele>2012.5</ele><time>2026-05-02T13:05:06.398Z</time></trkpt><trkpt lat="46.5197967" lon="12.0256183"><ele>2012.25</ele><time>2026-05-02T13:05:07.398Z</time></trkpt><trkpt lat="46.5198333" lon="12.02582"><ele>2012.0</ele><time>2026-05-02T13:05:08.398Z</time></trkpt><trkpt lat="46.5198633" lon="12.0260183"><ele>2009.75</ele><time>2026-05-02T13:05:09.398Z</time></trkpt><trkpt lat="46.5198933" lon="12.0262033"><ele>2007.5</ele><time>2026-05-02T13:05:10.398Z</time></trkpt><trkpt lat="46.5199233" lon="12.0263783"><ele>2005.25</ele><time>2026-05-02T13:05:11.398Z</time></trkpt><trkpt lat="46.5199517" lon="12.026535"><ele>2003.0</ele><time>2026-05-02T13:05:12.398Z</time></trkpt><trkpt lat="46.5199783" lon="12.0266817"><ele>2002.0</ele><time>2026-05-02T13:05:13.398Z</time></trkpt><trkpt lat="46.5200067" lon="12.0268217"><ele>2001.0000000000002</ele><time>2026-05-02T13:05:14.398Z</time></trkpt><trkpt lat="46.5200283" lon="12.0269583"><ele>2000.0000000000002</ele><time>2026-05-02T13:05:15.397Z</time></trkpt><trkpt lat="46.5200333" lon="12.0270917"><ele>1999.0</ele><time>2026-05-02T13:05:16.397Z</time></trkpt><trkpt lat="46.5200267" lon="12.02722"><ele>1998.0</ele><time>2026-05-02T13:05:17.397Z</time></trkpt><trkpt lat="46.52" lon="12.0273367"><ele>1998.0</ele><time>2026-05-02T13:05:18.398Z</time></trkpt><trkpt lat="46.5199533" lon="12.0274383"><ele>1998.0000000000002</ele><time>2026-05-02T13:05:19.398Z</time></trkpt><trkpt lat="46.5198917" lon="12.0275233"><ele>1998.0000000000002</ele><time>2026-05-02T13:05:20.398Z</time></trkpt><trkpt lat="46.519805" lon="12.0275783"><ele>1998.0</ele><time>2026-05-02T13:05:21.397Z</time></trkpt><trkpt lat="46.519695" lon="12.0275983"><ele>1998.0</ele><time>2026-05-02T13:05:22.398Z</time></trkpt><trkpt lat="46.5195517" lon="12.02758"><ele>1994.25</ele><time>2026-05-02T13:05:23.397Z</time></trkpt><trkpt lat="46.5194017" lon="12.027555"><ele>1990.5</ele><time>2026-05-02T13:05:24.398Z</time></trkpt><trkpt lat="46.5192667" lon="12.0275283"><ele>1986.75</ele><time>2026-05-02T13:05:25.398Z</time></trkpt><trkpt lat="46.5191417" lon="12.0274967"><ele>1983.0</ele><time>2026-05-02T13:05:26.398Z</time></trkpt><trkpt lat="46.51902" lon="12.0274717"><ele>1983.0</ele><time>2026-05-02T13:05:27.398Z</time></trkpt><trkpt lat="46.51891" lon="12.02745"><ele>1983.0000000000002</ele><time>2026-05-02T13:05:28.398Z</time></trkpt><trkpt lat="46.5188017" lon="12.0274367"><ele>1983.0000000000002</ele><time>2026-05-02T13:05:29.397Z</time></trkpt><trkpt lat="46.5186983" lon="12.027455"><ele>1983.0</ele><time>2026-05-02T13:05:30.397Z</time></trkpt><trkpt lat="46.5186033" lon="12.02751"><ele>1983.0</ele><time>2026-05-02T13:05:31.398Z</time></trkpt><trkpt lat="46.5185167" lon="12.02761"><ele>1981.0</ele><time>2026-05-02T13:05:32.398Z</time></trkpt><trkpt lat="46.5184467" lon="12.02776"><ele>1979.0</ele><time>2026-05-02T13:05:33.398Z</time></trkpt><trkpt lat="46.5183817" lon="12.0279333"><ele>1977.0</ele><time>2026-05-02T13:05:34.398Z</time></trkpt><trkpt lat="46.5183117" lon="12.028115"><ele>1975.0</ele><time>2026-05-02T13:05:35.397Z</time></trkpt><trkpt lat="46.5182433" lon="12.0282867"><ele>1976.0</ele><time>2026-05-02T13:05:36.398Z</time></trkpt><trkpt lat="46.5181767" lon="12.02845"><ele>1977.0</ele><time>2026-05-02T13:05:37.398Z</time></trkpt><trkpt lat="46.5181117" lon="12.0286067"><ele>1978.0</ele><time>2026-05-02T13:05:38.398Z</time></trkpt><trkpt lat="46.5180433" lon="12.028745"><ele>1979.0</ele><time>2026-05-02T13:05:39.398Z</time></trkpt><trkpt lat="46.5179883" lon="12.0288833"><ele>1979.0</ele><time>2026-05-02T13:05:40.398Z</time></trkpt><trkpt lat="46.5179517" lon="12.0290317"><ele>1979.0</ele><time>2026-05-02T13:05:41.397Z</time></trkpt><trkpt lat="46.5179417" lon="12.0291783"><ele>1979.0</ele><time>2026-05-02T13:05:42.397Z</time></trkpt><trkpt lat="46.5179617" lon="12.0293183"><ele>1979.0</ele><time>2026-05-02T13:05:43.397Z</time></trkpt><trkpt lat="46.5180133" lon="12.029445"><ele>1979.0</ele><time>2026-05-02T13:05:44.398Z</time></trkpt><trkpt lat="46.5180883" lon="12.029555"><ele>1978.75</ele><time>2026-05-02T13:05:45.398Z</time></trkpt><trkpt lat="46.5181917" lon="12.02966"><ele>1978.5</ele><time>2026-05-02T13:05:46.398Z</time></trkpt><trkpt lat="46.5183033" lon="12.0297567"><ele>1978.25</ele><time>2026-05-02T13:05:47.397Z</time></trkpt><trkpt lat="46.5184183" lon="12.02985"><ele>1978.0</ele><time>2026-05-02T13:05:48.398Z</time></trkpt><trkpt lat="46.5185233" lon="12.0299367"><ele>1975.5</ele><time>2026-05-02T13:05:49.398Z</time></trkpt><trkpt lat="46.51863" lon="12.0300117"><ele>1973.0</ele><time>2026-05-02T13:05:50.398Z</time></trkpt><trkpt lat="46.5187383" lon="12.0300717"><ele>1970.5</ele><time>2026-05-02T13:05:51.398Z</time></trkpt><trkpt lat="46.518845" lon="12.0300967"><ele>1968.0</ele><time>2026-05-02T13:05:52.398Z</time></trkpt><trkpt lat="46.518955" lon="12.0301117"><ele>1968.0</ele><time>2026-05-02T13:05:53.398Z</time></trkpt><trkpt lat="46.51907" lon="12.030115"><ele>1968.0000000000002</ele><time>2026-05-02T13:05:54.398Z</time></trkpt><trkpt lat="46.5191733" lon="12.0301217"><ele>1968.0000000000002</ele><time>2026-05-02T13:05:55.398Z</time></trkpt><trkpt lat="46.5192617" lon="12.0301233"><ele>1968.0</ele><time>2026-05-02T13:05:56.398Z</time></trkpt><trkpt lat="46.51934" lon="12.03015"><ele>1968.0</ele><time>2026-05-02T13:05:57.398Z</time></trkpt><trkpt lat="46.519395" lon="12.0302183"><ele>1968.0</ele><time>2026-05-02T13:05:58.398Z</time></trkpt><trkpt lat="46.5194267" lon="12.0303017"><ele>1968.0000000000002</ele><time>2026-05-02T13:05:59.398Z</time></trkpt><trkpt lat="46.5194183" lon="12.030415"><ele>1968.0000000000002</ele><time>2026-05-02T13:06:00.398Z</time></trkpt><trkpt lat="46.5193833" lon="12.0305333"><ele>1968.0</ele><time>2026-05-02T13:06:01.398Z</time></trkpt><trkpt lat="46.519325" lon="12.03066"><ele>1968.0</ele><time>2026-05-02T13:06:02.398Z</time></trkpt><trkpt lat="46.5192367" lon="12.0307933"><ele>1965.4</ele><time>2026-05-02T13:06:03.398Z</time></trkpt><trkpt lat="46.519155" lon="12.0309217"><ele>1962.8000000000002</ele><time>2026-05-02T13:06:04.397Z</time></trkpt><trkpt lat="46.5190817" lon="12.03105"><ele>1960.2</ele><time>2026-05-02T13:06:05.398Z</time></trkpt><trkpt lat="46.5190183" lon="12.0311617"><ele>1957.6</ele><time>2026-05-02T13:06:06.398Z</time></trkpt><trkpt lat="46.5189683" lon="12.0312617"><ele>1955.0</ele><time>2026-05-02T13:06:07.397Z</time></trkpt><trkpt lat="46.5189333" lon="12.0313567"><ele>1955.0</ele><time>2026-05-02T13:06:08.398Z</time></trkpt><trkpt lat="46.5189233" lon="12.03145"><ele>1955.0</ele><time>2026-05-02T13:06:09.398Z</time></trkpt><trkpt lat="46.5190233" lon="12.0315683"><ele>1955.0</ele><time>2026-05-02T13:06:11.398Z</time></trkpt><trkpt lat="46.5191217" lon="12.031535"><ele>1955.0</ele><time>2026-05-02T13:06:12.397Z</time></trkpt><trkpt lat="46.5192083" lon="12.03146"><ele>1955.0</ele><time>2026-05-02T13:06:13.398Z</time></trkpt><trkpt lat="46.5192817" lon="12.0313683"><ele>1955.0</ele><time>2026-05-02T13:06:14.398Z</time></trkpt><trkpt lat="46.5193567" lon="12.0312767"><ele>1955.0</ele><time>2026-05-02T13:06:15.398Z</time></trkpt><trkpt lat="46.51943" lon="12.0312"><ele>1955.0</ele><time>2026-05-02T13:06:16.398Z</time></trkpt><trkpt lat="46.5195167" lon="12.0311533"><ele>1955.0</ele><time>2026-05-02T13:06:17.397Z</time></trkpt><trkpt lat="46.519605" lon="12.0311417"><ele>1955.0</ele><time>2026-05-02T13:06:18.398Z</time></trkpt><trkpt lat="46.5197017" lon="12.03118"><ele>1954.75</ele><time>2026-05-02T13:06:19.398Z</time></trkpt><trkpt lat="46.51979" lon="12.0312733"><ele>1954.5</ele><time>2026-05-02T13:06:20.398Z</time></trkpt><trkpt lat="46.5198817" lon="12.0313917"><ele>1954.25</ele><time>2026-05-02T13:06:21.398Z</time></trkpt><trkpt lat="46.519965" lon="12.0315267"><ele>1954.0</ele><time>2026-05-02T13:06:22.398Z</time></trkpt><trkpt lat="46.5200383" lon="12.0316667"><ele>1951.5</ele><time>2026-05-02T13:06:23.398Z</time></trkpt><trkpt lat="46.5200917" lon="12.031825"><ele>1949.0</ele><time>2026-05-02T13:06:24.397Z</time></trkpt><trkpt lat="46.52012" lon="12.0320083"><ele>1946.5</ele><time>2026-05-02T13:06:25.398Z</time></trkpt><trkpt lat="46.5201317" lon="12.0322033"><ele>1944.0</ele><time>2026-05-02T13:06:26.398Z</time></trkpt><trkpt lat="46.5201317" lon="12.0323967"><ele>1943.0</ele><time>2026-05-02T13:06:27.398Z</time></trkpt><trkpt lat="46.5201267" lon="12.03258"><ele>1942.0</ele><time>2026-05-02T13:06:28.398Z</time></trkpt><trkpt lat="46.5201167" lon="12.0327617"><ele>1941.0</ele><time>2026-05-02T13:06:29.398Z</time></trkpt><trkpt lat="46.5201117" lon="12.0329483"><ele>1940.0</ele><time>2026-05-02T13:06:30.398Z</time></trkpt><trkpt lat="46.5201133" lon="12.033125"><ele>1940.0</ele><time>2026-05-02T13:06:31.398Z</time></trkpt><trkpt lat="46.52012" lon="12.0332917"><ele>1940.0</ele><time>2026-05-02T13:06:32.398Z</time></trkpt><trkpt lat="46.5201467" lon="12.03346"><ele>1940.0</ele><time>2026-05-02T13:06:33.398Z</time></trkpt><trkpt lat="46.520195" lon="12.0336383"><ele>1940.0</ele><time>2026-05-02T13:06:34.398Z</time></trkpt><trkpt lat="46.5202667" lon="12.0338"><ele>1941.75</ele><time>2026-05-02T13:06:35.398Z</time></trkpt><trkpt lat="46.5203533" lon="12.03396"><ele>1943.5</ele><time>2026-05-02T13:06:36.398Z</time></trkpt><trkpt lat="46.5204367" lon="12.0341317"><ele>1945.25</ele><time>2026-05-02T13:06:37.398Z</time></trkpt><trkpt lat="46.520505" lon="12.0343283"><ele>1947.0</ele><time>2026-05-02T13:06:38.398Z</time></trkpt><trkpt lat="46.52056" lon="12.0345967"><ele>1947.0</ele><time>2026-05-02T13:06:39.398Z</time></trkpt><trkpt lat="46.5206117" lon="12.0348967"><ele>1947.0</ele><time>2026-05-02T13:06:40.397Z</time></trkpt><trkpt lat="46.5206583" lon="12.03521"><ele>1947.0</ele><time>2026-05-02T13:06:41.398Z</time></trkpt><trkpt lat="46.5206983" lon="12.0355233"><ele>1940.0</ele><time>2026-05-02T13:06:42.398Z</time></trkpt><trkpt lat="46.52073" lon="12.035815"><ele>1933.0</ele><time>2026-05-02T13:06:43.398Z</time></trkpt><trkpt lat="46.52075" lon="12.0360967"><ele>1926.0</ele><time>2026-05-02T13:06:44.397Z</time></trkpt><trkpt lat="46.5207933" lon="12.0363633"><ele>1926.0</ele><time>2026-05-02T13:06:45.398Z</time></trkpt><trkpt lat="46.5208233" lon="12.036615"><ele>1926.0</ele><time>2026-05-02T13:06:46.397Z</time></trkpt><trkpt lat="46.5208633" lon="12.0368483"><ele>1926.0</ele><time>2026-05-02T13:06:47.398Z</time></trkpt><trkpt lat="46.5208967" lon="12.0370367"><ele>1924.4</ele><time>2026-05-02T13:06:48.398Z</time></trkpt><trkpt lat="46.5209283" lon="12.0371983"><ele>1922.8</ele><time>2026-05-02T13:06:49.398Z</time></trkpt><trkpt lat="46.5209533" lon="12.03732"><ele>1921.2000000000003</ele><time>2026-05-02T13:06:50.398Z</time></trkpt><trkpt lat="46.52095" lon="12.0374133"><ele>1919.6000000000001</ele><time>2026-05-02T13:06:51.398Z</time></trkpt><trkpt lat="46.520885" lon="12.0375283"><ele>1918.0</ele><time>2026-05-02T13:06:53.397Z</time></trkpt><trkpt lat="46.520795" lon="12.0374883"><ele>1918.0</ele><time>2026-05-02T13:06:54.398Z</time></trkpt><trkpt lat="46.5207117" lon="12.0373933"><ele>1918.0</ele><time>2026-05-02T13:06:55.398Z</time></trkpt><trkpt lat="46.5206183" lon="12.0372217"><ele>1918.0</ele><time>2026-05-02T13:06:56.397Z</time></trkpt><trkpt lat="46.5205317" lon="12.0370383"><ele>1918.0</ele><time>2026-05-02T13:06:57.398Z</time></trkpt><trkpt lat="46.5204683" lon="12.036855"><ele>1918.0</ele><time>2026-05-02T13:06:58.398Z</time></trkpt><trkpt lat="46.5204167" lon="12.036685"><ele>1918.0000000000002</ele><time>2026-05-02T13:06:59.398Z</time></trkpt><trkpt lat="46.5203833" lon="12.036545"><ele>1918.0000000000002</ele><time>2026-05-02T13:07:00.397Z</time></trkpt><trkpt lat="46.5203383" lon="12.036445"><ele>1918.0</ele><time>2026-05-02T13:07:01.398Z</time></trkpt><trkpt lat="46.5202717" lon="12.03638"><ele>1918.0</ele><time>2026-05-02T13:07:02.398Z</time></trkpt><trkpt lat="46.5201983" lon="12.0364067"><ele>1913.5</ele><time>2026-05-02T13:07:03.398Z</time></trkpt><trkpt lat="46.520135" lon="12.0365"><ele>1909.0</ele><time>2026-05-02T13:07:04.398Z</time></trkpt><trkpt lat="46.52009" lon="12.0366383"><ele>1904.5</ele><time>2026-05-02T13:07:05.398Z</time></trkpt><trkpt lat="46.520105" lon="12.036865"><ele>1900.0</ele><time>2026-05-02T13:07:06.397Z</time></trkpt><trkpt lat="46.5201383" lon="12.0371267"><ele>1900.0</ele><time>2026-05-02T13:07:07.398Z</time></trkpt><trkpt lat="46.5201833" lon="12.0373667"><ele>1900.0</ele><time>2026-05-02T13:07:08.398Z</time></trkpt><trkpt lat="46.520235" lon="12.0375833"><ele>1900.0</ele><time>2026-05-02T13:07:09.398Z</time></trkpt><trkpt lat="46.5203067" lon="12.03778"><ele>1900.5</ele><time>2026-05-02T13:07:10.397Z</time></trkpt><trkpt lat="46.520395" lon="12.0379367"><ele>1901.0</ele><time>2026-05-02T13:07:11.398Z</time></trkpt><trkpt lat="46.5204883" lon="12.0380717"><ele>1901.5</ele><time>2026-05-02T13:07:12.398Z</time></trkpt><trkpt lat="46.5206" lon="12.0381917"><ele>1902.0</ele><time>2026-05-02T13:07:13.398Z</time></trkpt><trkpt lat="46.52071" lon="12.0383017"><ele>1902.0</ele><time>2026-05-02T13:07:14.398Z</time></trkpt><trkpt lat="46.5208183" lon="12.0384033"><ele>1902.0</ele><time>2026-05-02T13:07:15.398Z</time></trkpt><trkpt lat="46.52091" lon="12.038515"><ele>1902.0</ele><time>2026-05-02T13:07:16.398Z</time></trkpt><trkpt lat="46.5209917" lon="12.0386433"><ele>1902.0</ele><time>2026-05-02T13:07:17.397Z</time></trkpt><trkpt lat="46.5210467" lon="12.03877"><ele>1902.0</ele><time>2026-05-02T13:07:18.398Z</time></trkpt><trkpt lat="46.5210817" lon="12.0388817"><ele>1901.9999999999998</ele><time>2026-05-02T13:07:19.398Z</time></trkpt><trkpt lat="46.52109" lon="12.0389917"><ele>1901.9999999999998</ele><time>2026-05-02T13:07:20.398Z</time></trkpt><trkpt lat="46.5209933" lon="12.0390867"><ele>1902.0</ele><time>2026-05-02T13:07:22.398Z</time></trkpt><trkpt lat="46.5209167" lon="12.03905"><ele>1902.0</ele><time>2026-05-02T13:07:23.398Z</time></trkpt><trkpt lat="46.520845" lon="12.0389417"><ele>1902.0</ele><time>2026-05-02T13:07:24.398Z</time></trkpt><trkpt lat="46.5207733" lon="12.0387917"><ele>1901.9999999999998</ele><time>2026-05-02T13:07:25.398Z</time></trkpt><trkpt lat="46.5207033" lon="12.0386467"><ele>1901.9999999999998</ele><time>2026-05-02T13:07:26.398Z</time></trkpt><trkpt lat="46.5206433" lon="12.03852"><ele>1902.0</ele><time>2026-05-02T13:07:27.397Z</time></trkpt><trkpt lat="46.5205733" lon="12.038455"><ele>1902.0</ele><time>2026-05-02T13:07:28.397Z</time></trkpt><trkpt lat="46.5204983" lon="12.0384283"><ele>1902.0</ele><time>2026-05-02T13:07:29.398Z</time></trkpt><trkpt lat="46.520435" lon="12.0384567"><ele>1901.9999999999998</ele><time>2026-05-02T13:07:30.397Z</time></trkpt><trkpt lat="46.5204267" lon="12.03858"><ele>1901.9999999999998</ele><time>2026-05-02T13:07:31.398Z</time></trkpt><trkpt lat="46.52043" lon="12.0387317"><ele>1902.0</ele><time>2026-05-02T13:07:32.398Z</time></trkpt><trkpt lat="46.5204967" lon="12.03892"><ele>1902.0</ele><time>2026-05-02T13:07:33.398Z</time></trkpt><trkpt lat="46.5205817" lon="12.0391433"><ele>1896.6666666666665</ele><time>2026-05-02T13:07:34.398Z</time></trkpt><trkpt lat="46.5206667" lon="12.039375"><ele>1891.3333333333333</ele><time>2026-05-02T13:07:35.398Z</time></trkpt><trkpt lat="46.520745" lon="12.0396"><ele>1886.0</ele><time>2026-05-02T13:07:36.397Z</time></trkpt><trkpt lat="46.5208267" lon="12.0398267"><ele>1883.3333333333333</ele><time>2026-05-02T13:07:37.398Z</time></trkpt><trkpt lat="46.5208967" lon="12.0400633"><ele>1880.6666666666665</ele><time>2026-05-02T13:07:38.398Z</time></trkpt><trkpt lat="46.5209567" lon="12.0402767"><ele>1878.0</ele><time>2026-05-02T13:07:39.398Z</time></trkpt><trkpt lat="46.521" lon="12.0405117"><ele>1878.0</ele><time>2026-05-02T13:07:40.398Z</time></trkpt><trkpt lat="46.5210433" lon="12.0407367"><ele>1878.0</ele><time>2026-05-02T13:07:41.397Z</time></trkpt><trkpt lat="46.5210917" lon="12.04097"><ele>1878.0</ele><time>2026-05-02T13:07:42.398Z</time></trkpt><trkpt lat="46.5211633" lon="12.0412083"><ele>1878.0</ele><time>2026-05-02T13:07:43.397Z</time></trkpt><trkpt lat="46.52125" lon="12.0414383"><ele>1878.0</ele><time>2026-05-02T13:07:44.398Z</time></trkpt><trkpt lat="46.52135" lon="12.041665"><ele>1878.0</ele><time>2026-05-02T13:07:45.398Z</time></trkpt><trkpt lat="46.5214367" lon="12.041875"><ele>1878.0</ele><time>2026-05-02T13:07:46.398Z</time></trkpt><trkpt lat="46.5215167" lon="12.0420983"><ele>1878.0</ele><time>2026-05-02T13:07:47.398Z</time></trkpt><trkpt lat="46.5215867" lon="12.0423433"><ele>1878.0</ele><time>2026-05-02T13:07:48.398Z</time></trkpt><trkpt lat="46.5216417" lon="12.0425983"><ele>1874.0</ele><time>2026-05-02T13:07:49.398Z</time></trkpt><trkpt lat="46.52169" lon="12.0428333"><ele>1870.0</ele><time>2026-05-02T13:07:50.397Z</time></trkpt><trkpt lat="46.52174" lon="12.0430867"><ele>1866.0</ele><time>2026-05-02T13:07:51.398Z</time></trkpt><trkpt lat="46.521785" lon="12.0433417"><ele>1862.6666666666665</ele><time>2026-05-02T13:07:52.398Z</time></trkpt><trkpt lat="46.5218417" lon="12.043605"><ele>1859.3333333333333</ele><time>2026-05-02T13:07:53.398Z</time></trkpt><trkpt lat="46.52189" lon="12.043855"><ele>1856.0</ele><time>2026-05-02T13:07:54.398Z</time></trkpt><trkpt lat="46.5219417" lon="12.0441033"><ele>1853.3333333333333</ele><time>2026-05-02T13:07:55.398Z</time></trkpt><trkpt lat="46.521975" lon="12.0443617"><ele>1850.6666666666665</ele><time>2026-05-02T13:07:56.398Z</time></trkpt><trkpt lat="46.5219983" lon="12.04463"><ele>1848.0</ele><time>2026-05-02T13:07:57.398Z</time></trkpt><trkpt lat="46.52201" lon="12.0448817"><ele>1846.6666666666665</ele><time>2026-05-02T13:07:58.398Z</time></trkpt><trkpt lat="46.522015" lon="12.04515"><ele>1845.3333333333333</ele><time>2026-05-02T13:07:59.397Z</time></trkpt><trkpt lat="46.5220183" lon="12.04541"><ele>1844.0</ele><time>2026-05-02T13:08:00.398Z</time></trkpt><trkpt lat="46.5220133" lon="12.04567"><ele>1841.6666666666665</ele><time>2026-05-02T13:08:01.398Z</time></trkpt><trkpt lat="46.5220133" lon="12.0459167"><ele>1839.3333333333335</ele><time>2026-05-02T13:08:02.397Z</time></trkpt><trkpt lat="46.5220233" lon="12.0461717"><ele>1837.0</ele><time>2026-05-02T13:08:03.398Z</time></trkpt><trkpt lat="46.5220183" lon="12.0464317"><ele>1833.6666666666667</ele><time>2026-05-02T13:08:04.398Z</time></trkpt><trkpt lat="46.5220167" lon="12.0466867"><ele>1830.3333333333335</ele><time>2026-05-02T13:08:05.398Z</time></trkpt><trkpt lat="46.5220083" lon="12.0469383"><ele>1827.0</ele><time>2026-05-02T13:08:06.398Z</time></trkpt><trkpt lat="46.52201" lon="12.0471867"><ele>1827.0</ele><time>2026-05-02T13:08:07.398Z</time></trkpt><trkpt lat="46.5220133" lon="12.0474383"><ele>1827.0</ele><time>2026-05-02T13:08:08.398Z</time></trkpt><trkpt lat="46.5220233" lon="12.0476867"><ele>1827.0</ele><time>2026-05-02T13:08:09.397Z</time></trkpt><trkpt lat="46.522055" lon="12.0479317"><ele>1827.3333333333335</ele><time>2026-05-02T13:08:10.398Z</time></trkpt><trkpt lat="46.5221117" lon="12.0481783"><ele>1827.6666666666667</ele><time>2026-05-02T13:08:11.398Z</time></trkpt><trkpt lat="46.522195" lon="12.0484183"><ele>1828.0</ele><time>2026-05-02T13:08:12.397Z</time></trkpt><trkpt lat="46.5222883" lon="12.0486533"><ele>1826.3333333333335</ele><time>2026-05-02T13:08:13.398Z</time></trkpt><trkpt lat="46.5223667" lon="12.0488933"><ele>1824.6666666666665</ele><time>2026-05-02T13:08:14.398Z</time></trkpt><trkpt lat="46.522425" lon="12.0491567"><ele>1823.0</ele><time>2026-05-02T13:08:15.398Z</time></trkpt><trkpt lat="46.5224367" lon="12.0494433"><ele>1822.3333333333333</ele><time>2026-05-02T13:08:16.397Z</time></trkpt><trkpt lat="46.5224233" lon="12.04974"><ele>1821.6666666666665</ele><time>2026-05-02T13:08:17.398Z</time></trkpt><trkpt lat="46.5224033" lon="12.0500233"><ele>1821.0</ele><time>2026-05-02T13:08:18.398Z</time></trkpt><trkpt lat="46.5223933" lon="12.0502917"><ele>1819.6666666666665</ele><time>2026-05-02T13:08:19.398Z</time></trkpt><trkpt lat="46.522405" lon="12.0505617"><ele>1818.3333333333333</ele><time>2026-05-02T13:08:20.397Z</time></trkpt><trkpt lat="46.52244" lon="12.050825"><ele>1817.0</ele><time>2026-05-02T13:08:21.398Z</time></trkpt><trkpt lat="46.5224917" lon="12.0510917"><ele>1815.6666666666665</ele><time>2026-05-02T13:08:22.398Z</time></trkpt><trkpt lat="46.5225583" lon="12.0513667"><ele>1814.3333333333335</ele><time>2026-05-02T13:08:23.398Z</time></trkpt><trkpt lat="46.5226317" lon="12.0516483"><ele>1813.0</ele><time>2026-05-02T13:08:24.397Z</time></trkpt><trkpt lat="46.5226967" lon="12.0519483"><ele>1810.6666666666667</ele><time>2026-05-02T13:08:25.398Z</time></trkpt><trkpt lat="46.522745" lon="12.0522717"><ele>1808.3333333333335</ele><time>2026-05-02T13:08:26.398Z</time></trkpt><trkpt lat="46.5227733" lon="12.05258"><ele>1806.0</ele><time>2026-05-02T13:08:27.398Z</time></trkpt><trkpt lat="46.5227917" lon="12.052895"><ele>1803.6666666666665</ele><time>2026-05-02T13:08:28.398Z</time></trkpt><trkpt lat="46.522805" lon="12.05321"><ele>1801.3333333333333</ele><time>2026-05-02T13:08:29.398Z</time></trkpt><trkpt lat="46.5228217" lon="12.05352"><ele>1799.0</ele><time>2026-05-02T13:08:30.398Z</time></trkpt><trkpt lat="46.5228533" lon="12.0538367"><ele>1801.3333333333333</ele><time>2026-05-02T13:08:31.398Z</time></trkpt><trkpt lat="46.522875" lon="12.0541567"><ele>1803.6666666666665</ele><time>2026-05-02T13:08:32.398Z</time></trkpt><trkpt lat="46.5228967" lon="12.0544817"><ele>1806.0</ele><time>2026-05-02T13:08:33.398Z</time></trkpt><trkpt lat="46.52292" lon="12.0548117"><ele>1803.6666666666665</ele><time>2026-05-02T13:08:34.398Z</time></trkpt><trkpt lat="46.5229383" lon="12.055135"><ele>1801.3333333333333</ele><time>2026-05-02T13:08:35.398Z</time></trkpt><trkpt lat="46.5229583" lon="12.05546"><ele>1799.0</ele><time>2026-05-02T13:08:36.397Z</time></trkpt><trkpt lat="46.52298" lon="12.0557783"><ele>1796.0</ele><time>2026-05-02T13:08:37.398Z</time></trkpt><trkpt lat="46.5230017" lon="12.0560817"><ele>1793.0</ele><time>2026-05-02T13:08:38.398Z</time></trkpt><trkpt lat="46.5230183" lon="12.0563783"><ele>1790.0</ele><time>2026-05-02T13:08:39.398Z</time></trkpt><trkpt lat="46.5230383" lon="12.0566633"><ele>1789.0</ele><time>2026-05-02T13:08:40.398Z</time></trkpt><trkpt lat="46.5230517" lon="12.0569333"><ele>1788.0</ele><time>2026-05-02T13:08:41.398Z</time></trkpt><trkpt lat="46.52306" lon="12.0572"><ele>1787.0</ele><time>2026-05-02T13:08:42.398Z</time></trkpt><trkpt lat="46.52305" lon="12.0574667"><ele>1784.6666666666665</ele><time>2026-05-02T13:08:43.398Z</time></trkpt><trkpt lat="46.523025" lon="12.0577417"><ele>1782.3333333333335</ele><time>2026-05-02T13:08:44.398Z</time></trkpt><trkpt lat="46.5229783" lon="12.0580367"><ele>1780.0</ele><time>2026-05-02T13:08:45.398Z</time></trkpt><trkpt lat="46.5229267" lon="12.05834"><ele>1773.3333333333335</ele><time>2026-05-02T13:08:46.397Z</time></trkpt><trkpt lat="46.5228733" lon="12.058645"><ele>1766.6666666666665</ele><time>2026-05-02T13:08:47.397Z</time></trkpt><trkpt lat="46.5228183" lon="12.05895"><ele>1760.0</ele><time>2026-05-02T13:08:48.398Z</time></trkpt><trkpt lat="46.5227633" lon="12.0592383"><ele>1760.0</ele><time>2026-05-02T13:08:49.398Z</time></trkpt><trkpt lat="46.5227117" lon="12.0595217"><ele>1760.0</ele><time>2026-05-02T13:08:50.398Z</time></trkpt><trkpt lat="46.5226583" lon="12.0598"><ele>1760.0</ele><time>2026-05-02T13:08:51.397Z</time></trkpt><trkpt lat="46.5226117" lon="12.060085"><ele>1758.6666666666665</ele><time>2026-05-02T13:08:52.398Z</time></trkpt><trkpt lat="46.522565" lon="12.0603717"><ele>1757.3333333333335</ele><time>2026-05-02T13:08:53.397Z</time></trkpt><trkpt lat="46.5225183" lon="12.0606617"><ele>1756.0</ele><time>2026-05-02T13:08:54.398Z</time></trkpt><trkpt lat="46.5224733" lon="12.060935"><ele>1755.6666666666667</ele><time>2026-05-02T13:08:55.397Z</time></trkpt><trkpt lat="46.5224233" lon="12.0612"><ele>1755.3333333333335</ele><time>2026-05-02T13:08:56.398Z</time></trkpt><trkpt lat="46.522375" lon="12.0614667"><ele>1755.0</ele><time>2026-05-02T13:08:57.398Z</time></trkpt><trkpt lat="46.5223283" lon="12.06174"><ele>1754.6666666666665</ele><time>2026-05-02T13:08:58.398Z</time></trkpt><trkpt lat="46.5222967" lon="12.062025"><ele>1754.3333333333333</ele><time>2026-05-02T13:08:59.398Z</time></trkpt><trkpt lat="46.5222783" lon="12.0623067"><ele>1754.0</ele><time>2026-05-02T13:09:00.398Z</time></trkpt><trkpt lat="46.5222917" lon="12.0625933"><ele>1752.0</ele><time>2026-05-02T13:09:01.398Z</time></trkpt><trkpt lat="46.5222917" lon="12.0628883"><ele>1750.0</ele><time>2026-05-02T13:09:02.398Z</time></trkpt><trkpt lat="46.5223117" lon="12.0631867"><ele>1748.0</ele><time>2026-05-02T13:09:03.397Z</time></trkpt><trkpt lat="46.5223267" lon="12.06349"><ele>1746.0</ele><time>2026-05-02T13:09:04.398Z</time></trkpt><trkpt lat="46.5223417" lon="12.0637767"><ele>1744.0</ele><time>2026-05-02T13:09:05.398Z</time></trkpt><trkpt lat="46.5223517" lon="12.0640633"><ele>1742.0</ele><time>2026-05-02T13:09:06.398Z</time></trkpt><trkpt lat="46.5223633" lon="12.06433"><ele>1739.6666666666665</ele><time>2026-05-02T13:09:07.397Z</time></trkpt><trkpt lat="46.5223683" lon="12.0646"><ele>1737.3333333333335</ele><time>2026-05-02T13:09:08.397Z</time></trkpt><trkpt lat="46.5223717" lon="12.0648533"><ele>1735.0</ele><time>2026-05-02T13:09:09.398Z</time></trkpt><trkpt lat="46.522385" lon="12.0651033"><ele>1734.3333333333335</ele><time>2026-05-02T13:09:10.398Z</time></trkpt><trkpt lat="46.522385" lon="12.0653517"><ele>1733.6666666666665</ele><time>2026-05-02T13:09:11.398Z</time></trkpt><trkpt lat="46.522395" lon="12.065605"><ele>1733.0</ele><time>2026-05-02T13:09:12.398Z</time></trkpt><trkpt lat="46.5223983" lon="12.0658533"><ele>1732.0</ele><time>2026-05-02T13:09:13.398Z</time></trkpt><trkpt lat="46.5223933" lon="12.0661083"><ele>1731.0</ele><time>2026-05-02T13:09:14.398Z</time></trkpt><trkpt lat="46.5223817" lon="12.06636"><ele>1730.0</ele><time>2026-05-02T13:09:15.398Z</time></trkpt><trkpt lat="46.5223617" lon="12.066615"><ele>1729.3333333333333</ele><time>2026-05-02T13:09:16.398Z</time></trkpt><trkpt lat="46.5223367" lon="12.0668567"><ele>1728.6666666666665</ele><time>2026-05-02T13:09:17.398Z</time></trkpt><trkpt lat="46.52231" lon="12.0670833"><ele>1728.0</ele><time>2026-05-02T13:09:18.397Z</time></trkpt><trkpt lat="46.522275" lon="12.0673033"><ele>1728.3333333333335</ele><time>2026-05-02T13:09:19.398Z</time></trkpt><trkpt lat="46.5222283" lon="12.0675167"><ele>1728.6666666666667</ele><time>2026-05-02T13:09:20.398Z</time></trkpt><trkpt lat="46.5221617" lon="12.0677283"><ele>1729.0</ele><time>2026-05-02T13:09:21.398Z</time></trkpt><trkpt lat="46.5220833" lon="12.0679517"><ele>1725.3333333333335</ele><time>2026-05-02T13:09:22.398Z</time></trkpt><trkpt lat="46.522" lon="12.0681767"><ele>1721.6666666666665</ele><time>2026-05-02T13:09:23.397Z</time></trkpt><trkpt lat="46.5219033" lon="12.0683917"><ele>1718.0</ele><time>2026-05-02T13:09:24.398Z</time></trkpt><trkpt lat="46.5218083" lon="12.0686067"><ele>1718.0</ele><time>2026-05-02T13:09:25.398Z</time></trkpt><trkpt lat="46.5217183" lon="12.0688267"><ele>1718.0</ele><time>2026-05-02T13:09:26.398Z</time></trkpt><trkpt lat="46.5216333" lon="12.0690267"><ele>1718.0</ele><time>2026-05-02T13:09:27.398Z</time></trkpt><trkpt lat="46.5215517" lon="12.0692117"><ele>1719.0</ele><time>2026-05-02T13:09:28.398Z</time></trkpt><trkpt lat="46.521485" lon="12.069395"><ele>1720.0</ele><time>2026-05-02T13:09:29.397Z</time></trkpt><trkpt lat="46.5214367" lon="12.0695917"><ele>1721.0</ele><time>2026-05-02T13:09:30.398Z</time></trkpt><trkpt lat="46.5214067" lon="12.0697867"><ele>1722.0</ele><time>2026-05-02T13:09:31.397Z</time></trkpt><trkpt lat="46.5214" lon="12.0700017"><ele>1723.3333333333335</ele><time>2026-05-02T13:09:32.397Z</time></trkpt><trkpt lat="46.5213933" lon="12.07023"><ele>1724.6666666666667</ele><time>2026-05-02T13:09:33.398Z</time></trkpt><trkpt lat="46.521385" lon="12.0704667"><ele>1726.0</ele><time>2026-05-02T13:09:34.398Z</time></trkpt><trkpt lat="46.5213517" lon="12.0706967"><ele>1727.3333333333335</ele><time>2026-05-02T13:09:35.397Z</time></trkpt><trkpt lat="46.521275" lon="12.0709367"><ele>1728.6666666666665</ele><time>2026-05-02T13:09:36.398Z</time></trkpt><trkpt lat="46.5211933" lon="12.0711717"><ele>1730.0</ele><time>2026-05-02T13:09:37.398Z</time></trkpt><trkpt lat="46.5211217" lon="12.0714133"><ele>1724.3333333333333</ele><time>2026-05-02T13:09:38.398Z</time></trkpt><trkpt lat="46.5210683" lon="12.071655"><ele>1718.6666666666665</ele><time>2026-05-02T13:09:39.398Z</time></trkpt><trkpt lat="46.5210383" lon="12.0719033"><ele>1713.0</ele><time>2026-05-02T13:09:40.398Z</time></trkpt><trkpt lat="46.52103" lon="12.0721283"><ele>1713.0</ele><time>2026-05-02T13:09:41.398Z</time></trkpt><trkpt lat="46.52103" lon="12.0723617"><ele>1713.0</ele><time>2026-05-02T13:09:42.398Z</time></trkpt><trkpt lat="46.521035" lon="12.072605"><ele>1713.0</ele><time>2026-05-02T13:09:43.397Z</time></trkpt><trkpt lat="46.5210383" lon="12.072855"><ele>1712.6666666666665</ele><time>2026-05-02T13:09:44.398Z</time></trkpt><trkpt lat="46.5210367" lon="12.0731083"><ele>1712.3333333333333</ele><time>2026-05-02T13:09:45.398Z</time></trkpt><trkpt lat="46.5210417" lon="12.0733467"><ele>1712.0</ele><time>2026-05-02T13:09:46.398Z</time></trkpt><trkpt lat="46.5210417" lon="12.0735983"><ele>1711.6666666666665</ele><time>2026-05-02T13:09:47.398Z</time></trkpt><trkpt lat="46.5210483" lon="12.0738467"><ele>1711.3333333333335</ele><time>2026-05-02T13:09:48.398Z</time></trkpt><trkpt lat="46.5210483" lon="12.0740883"><ele>1711.0</ele><time>2026-05-02T13:09:49.398Z</time></trkpt><trkpt lat="46.521065" lon="12.0743117"><ele>1710.75</ele><time>2026-05-02T13:09:50.398Z</time></trkpt><trkpt lat="46.5210717" lon="12.07451"><ele>1710.5</ele><time>2026-05-02T13:09:51.398Z</time></trkpt><trkpt lat="46.5210783" lon="12.0746967"><ele>1710.25</ele><time>2026-05-02T13:09:52.398Z</time></trkpt><trkpt lat="46.5210783" lon="12.07487"><ele>1710.0</ele><time>2026-05-02T13:09:53.398Z</time></trkpt><trkpt lat="46.5210417" lon="12.0750283"><ele>1710.0</ele><time>2026-05-02T13:09:54.397Z</time></trkpt><trkpt lat="46.5209917" lon="12.075175"><ele>1710.0</ele><time>2026-05-02T13:09:55.397Z</time></trkpt><trkpt lat="46.5209183" lon="12.0753"><ele>1710.0</ele><time>2026-05-02T13:09:56.398Z</time></trkpt><trkpt lat="46.52083" lon="12.075395"><ele>1710.0</ele><time>2026-05-02T13:09:57.397Z</time></trkpt><trkpt lat="46.5207417" lon="12.0754917"><ele>1710.0</ele><time>2026-05-02T13:09:58.397Z</time></trkpt><trkpt lat="46.5206667" lon="12.0755983"><ele>1710.0</ele><time>2026-05-02T13:09:59.398Z</time></trkpt><trkpt lat="46.52061" lon="12.0757217"><ele>1710.0</ele><time>2026-05-02T13:10:00.397Z</time></trkpt><trkpt lat="46.5205833" lon="12.075865"><ele>1710.0</ele><time>2026-05-02T13:10:01.398Z</time></trkpt><trkpt lat="46.520595" lon="12.0760417"><ele>1710.0</ele><time>2026-05-02T13:10:02.398Z</time></trkpt><trkpt lat="46.5206317" lon="12.0762417"><ele>1710.3333333333335</ele><time>2026-05-02T13:10:03.398Z</time></trkpt><trkpt lat="46.52068" lon="12.07647"><ele>1710.6666666666667</ele><time>2026-05-02T13:10:04.397Z</time></trkpt><trkpt lat="46.5207167" lon="12.07671"><ele>1711.0</ele><time>2026-05-02T13:10:05.398Z</time></trkpt><trkpt lat="46.5207583" lon="12.076975"><ele>1711.3333333333335</ele><time>2026-05-02T13:10:06.398Z</time></trkpt><trkpt lat="46.520805" lon="12.07725"><ele>1711.6666666666665</ele><time>2026-05-02T13:10:07.397Z</time></trkpt><trkpt lat="46.5208533" lon="12.07753"><ele>1712.0</ele><time>2026-05-02T13:10:08.397Z</time></trkpt><trkpt lat="46.5209" lon="12.077805"><ele>1712.3333333333333</ele><time>2026-05-02T13:10:09.398Z</time></trkpt><trkpt lat="46.5209317" lon="12.0780867"><ele>1712.6666666666665</ele><time>2026-05-02T13:10:10.398Z</time></trkpt><trkpt lat="46.5209717" lon="12.0783667"><ele>1713.0</ele><time>2026-05-02T13:10:11.398Z</time></trkpt><trkpt lat="46.52101" lon="12.0786383"><ele>1712.0</ele><time>2026-05-02T13:10:12.397Z</time></trkpt><trkpt lat="46.5210533" lon="12.0789033"><ele>1711.0</ele><time>2026-05-02T13:10:13.398Z</time></trkpt><trkpt lat="46.5210933" lon="12.0791533"><ele>1710.0</ele><time>2026-05-02T13:10:14.398Z</time></trkpt><trkpt lat="46.521125" lon="12.0793883"><ele>1709.5</ele><time>2026-05-02T13:10:15.398Z</time></trkpt><trkpt lat="46.52115" lon="12.0796117"><ele>1709.0</ele><time>2026-05-02T13:10:16.398Z</time></trkpt><trkpt lat="46.5211633" lon="12.0798267"><ele>1708.5</ele><time>2026-05-02T13:10:17.398Z</time></trkpt><trkpt lat="46.5211683" lon="12.0800367"><ele>1708.0</ele><time>2026-05-02T13:10:18.398Z</time></trkpt><trkpt lat="46.52115" lon="12.0802417"><ele>1707.8000000000002</ele><time>2026-05-02T13:10:19.398Z</time></trkpt><trkpt lat="46.5211383" lon="12.080415"><ele>1707.6000000000001</ele><time>2026-05-02T13:10:20.398Z</time></trkpt><trkpt lat="46.5211317" lon="12.0805717"><ele>1707.3999999999999</ele><time>2026-05-02T13:10:21.398Z</time></trkpt><trkpt lat="46.5211467" lon="12.0807033"><ele>1707.1999999999998</ele><time>2026-05-02T13:10:22.397Z</time></trkpt><trkpt lat="46.52117" lon="12.0808167"><ele>1707.0</ele><time>2026-05-02T13:10:23.398Z</time></trkpt><trkpt lat="46.5212067" lon="12.0809167"><ele>1708.1999999999998</ele><time>2026-05-02T13:10:24.398Z</time></trkpt><trkpt lat="46.5212617" lon="12.0809983"><ele>1709.3999999999999</ele><time>2026-05-02T13:10:25.397Z</time></trkpt><trkpt lat="46.5213167" lon="12.0810583"><ele>1710.6000000000001</ele><time>2026-05-02T13:10:26.398Z</time></trkpt><trkpt lat="46.5213933" lon="12.0811033"><ele>1711.8000000000002</ele><time>2026-05-02T13:10:27.398Z</time></trkpt><trkpt lat="46.5214933" lon="12.0811517"><ele>1713.0</ele><time>2026-05-02T13:10:28.397Z</time></trkpt><trkpt lat="46.5216033" lon="12.0812117"><ele>1713.0</ele><time>2026-05-02T13:10:29.398Z</time></trkpt><trkpt lat="46.521725" lon="12.08127"><ele>1713.0</ele><time>2026-05-02T13:10:30.397Z</time></trkpt><trkpt lat="46.5218417" lon="12.0813183"><ele>1713.0</ele><time>2026-05-02T13:10:31.398Z</time></trkpt><trkpt lat="46.5219517" lon="12.08136"><ele>1713.0</ele><time>2026-05-02T13:10:32.397Z</time></trkpt><trkpt lat="46.5220533" lon="12.0814083"><ele>1713.0</ele><time>2026-05-02T13:10:33.398Z</time></trkpt><trkpt lat="46.5221533" lon="12.08146"><ele>1713.0000000000002</ele><time>2026-05-02T13:10:34.398Z</time></trkpt><trkpt lat="46.522245" lon="12.0815017"><ele>1713.0000000000002</ele><time>2026-05-02T13:10:35.397Z</time></trkpt><trkpt lat="46.5223183" lon="12.0815617"><ele>1713.0</ele><time>2026-05-02T13:10:36.398Z</time></trkpt><trkpt lat="46.5223917" lon="12.08164"><ele>1713.0</ele><time>2026-05-02T13:10:37.398Z</time></trkpt><trkpt lat="46.5224367" lon="12.0817467"><ele>1713.0</ele><time>2026-05-02T13:10:38.397Z</time></trkpt><trkpt lat="46.5224633" lon="12.0818817"><ele>1713.0000000000002</ele><time>2026-05-02T13:10:39.398Z</time></trkpt><trkpt lat="46.52247" lon="12.082035"><ele>1713.0000000000002</ele><time>2026-05-02T13:10:40.398Z</time></trkpt><trkpt lat="46.522455" lon="12.0822"><ele>1713.0</ele><time>2026-05-02T13:10:41.398Z</time></trkpt><trkpt lat="46.52242" lon="12.08237"><ele>1713.0</ele><time>2026-05-02T13:10:42.398Z</time></trkpt><trkpt lat="46.52236" lon="12.0825583"><ele>1712.6666666666665</ele><time>2026-05-02T13:10:43.398Z</time></trkpt><trkpt lat="46.5223017" lon="12.0827783"><ele>1712.3333333333333</ele><time>2026-05-02T13:10:44.398Z</time></trkpt><trkpt lat="46.522225" lon="12.08299"><ele>1712.0</ele><time>2026-05-02T13:10:45.398Z</time></trkpt><trkpt lat="46.5221633" lon="12.083215"><ele>1712.5</ele><time>2026-05-02T13:10:46.397Z</time></trkpt><trkpt lat="46.5220983" lon="12.0834217"><ele>1713.0</ele><time>2026-05-02T13:10:47.397Z</time></trkpt><trkpt lat="46.5220417" lon="12.0836183"><ele>1713.5</ele><time>2026-05-02T13:10:48.397Z</time></trkpt><trkpt lat="46.5219817" lon="12.0837967"><ele>1714.0</ele><time>2026-05-02T13:10:49.398Z</time></trkpt><trkpt lat="46.5219217" lon="12.0839533"><ele>1711.25</ele><time>2026-05-02T13:10:50.398Z</time></trkpt><trkpt lat="46.5218683" lon="12.0841083"><ele>1708.5</ele><time>2026-05-02T13:10:51.398Z</time></trkpt><trkpt lat="46.5218067" lon="12.0842467"><ele>1705.75</ele><time>2026-05-02T13:10:52.397Z</time></trkpt><trkpt lat="46.52172" lon="12.0843633"><ele>1703.0</ele><time>2026-05-02T13:10:53.397Z</time></trkpt><trkpt lat="46.521625" lon="12.0844583"><ele>1703.0</ele><time>2026-05-02T13:10:54.398Z</time></trkpt><trkpt lat="46.521515" lon="12.0845183"><ele>1703.0</ele><time>2026-05-02T13:10:55.397Z</time></trkpt><trkpt lat="46.5213983" lon="12.0845417"><ele>1703.0</ele><time>2026-05-02T13:10:56.398Z</time></trkpt><trkpt lat="46.5212633" lon="12.0845383"><ele>1703.0</ele><time>2026-05-02T13:10:57.398Z</time></trkpt><trkpt lat="46.52113" lon="12.0845117"><ele>1701.8000000000002</ele><time>2026-05-02T13:10:58.398Z</time></trkpt><trkpt lat="46.5210183" lon="12.0845017"><ele>1700.6</ele><time>2026-05-02T13:10:59.397Z</time></trkpt><trkpt lat="46.5209233" lon="12.0845267"><ele>1699.4</ele><time>2026-05-02T13:11:00.398Z</time></trkpt><trkpt lat="46.520835" lon="12.08459"><ele>1698.1999999999998</ele><time>2026-05-02T13:11:01.398Z</time></trkpt><trkpt lat="46.52075" lon="12.0846983"><ele>1697.0</ele><time>2026-05-02T13:11:02.397Z</time></trkpt><trkpt lat="46.5206867" lon="12.084845"><ele>1699.3333333333333</ele><time>2026-05-02T13:11:03.397Z</time></trkpt><trkpt lat="46.5206233" lon="12.0850417"><ele>1701.6666666666665</ele><time>2026-05-02T13:11:04.398Z</time></trkpt><trkpt lat="46.5205583" lon="12.0852717"><ele>1704.0</ele><time>2026-05-02T13:11:05.398Z</time></trkpt><trkpt lat="46.52049" lon="12.0855283"><ele>1706.6666666666665</ele><time>2026-05-02T13:11:06.397Z</time></trkpt><trkpt lat="46.52041" lon="12.0857867"><ele>1709.3333333333333</ele><time>2026-05-02T13:11:07.398Z</time></trkpt><trkpt lat="46.5203333" lon="12.0860483"><ele>1712.0</ele><time>2026-05-02T13:11:08.398Z</time></trkpt><trkpt lat="46.5202533" lon="12.0863133"><ele>1705.3333333333333</ele><time>2026-05-02T13:11:09.398Z</time></trkpt><trkpt lat="46.5201933" lon="12.086575"><ele>1698.6666666666665</ele><time>2026-05-02T13:11:10.397Z</time></trkpt><trkpt lat="46.5201383" lon="12.08683"><ele>1692.0</ele><time>2026-05-02T13:11:11.398Z</time></trkpt><trkpt lat="46.52008" lon="12.0870917"><ele>1692.0</ele><time>2026-05-02T13:11:12.398Z</time></trkpt><trkpt lat="46.52001" lon="12.0873467"><ele>1692.0</ele><time>2026-05-02T13:11:13.398Z</time></trkpt><trkpt lat="46.5199483" lon="12.087605"><ele>1692.0</ele><time>2026-05-02T13:11:14.398Z</time></trkpt><trkpt lat="46.5198983" lon="12.0878617"><ele>1694.0</ele><time>2026-05-02T13:11:15.398Z</time></trkpt><trkpt lat="46.5198517" lon="12.0881133"><ele>1696.0</ele><time>2026-05-02T13:11:16.397Z</time></trkpt><trkpt lat="46.5198233" lon="12.0883617"><ele>1698.0</ele><time>2026-05-02T13:11:17.398Z</time></trkpt><trkpt lat="46.519815" lon="12.088635"><ele>1699.3333333333335</ele><time>2026-05-02T13:11:18.397Z</time></trkpt><trkpt lat="46.5198083" lon="12.0889217"><ele>1700.6666666666667</ele><time>2026-05-02T13:11:19.398Z</time></trkpt><trkpt lat="46.51979" lon="12.089205"><ele>1702.0</ele><time>2026-05-02T13:11:20.397Z</time></trkpt><trkpt lat="46.5197767" lon="12.089485"><ele>1702.0</ele><time>2026-05-02T13:11:21.398Z</time></trkpt><trkpt lat="46.5197733" lon="12.0897633"><ele>1702.0</ele><time>2026-05-02T13:11:22.398Z</time></trkpt><trkpt lat="46.519775" lon="12.0900333"><ele>1702.0</ele><time>2026-05-02T13:11:23.398Z</time></trkpt><trkpt lat="46.5197717" lon="12.09029"><ele>1701.6666666666667</ele><time>2026-05-02T13:11:24.398Z</time></trkpt><trkpt lat="46.5197733" lon="12.0905367"><ele>1701.3333333333335</ele><time>2026-05-02T13:11:25.398Z</time></trkpt><trkpt lat="46.5197683" lon="12.0907733"><ele>1701.0</ele><time>2026-05-02T13:11:26.398Z</time></trkpt><trkpt lat="46.51976" lon="12.091005"><ele>1701.5</ele><time>2026-05-02T13:11:27.397Z</time></trkpt><trkpt lat="46.51975" lon="12.0912233"><ele>1702.0</ele><time>2026-05-02T13:11:28.398Z</time></trkpt><trkpt lat="46.5197517" lon="12.0914333"><ele>1702.5</ele><time>2026-05-02T13:11:29.397Z</time></trkpt><trkpt lat="46.51977" lon="12.0916467"><ele>1703.0</ele><time>2026-05-02T13:11:30.398Z</time></trkpt><trkpt lat="46.5198083" lon="12.09186"><ele>1703.0</ele><time>2026-05-02T13:11:31.397Z</time></trkpt><trkpt lat="46.5198633" lon="12.0920733"><ele>1703.0</ele><time>2026-05-02T13:11:32.398Z</time></trkpt><trkpt lat="46.5199333" lon="12.092275"><ele>1703.0</ele><time>2026-05-02T13:11:33.398Z</time></trkpt><trkpt lat="46.5200017" lon="12.0924617"><ele>1700.5</ele><time>2026-05-02T13:11:34.398Z</time></trkpt><trkpt lat="46.520075" lon="12.0926483"><ele>1698.0</ele><time>2026-05-02T13:11:35.398Z</time></trkpt><trkpt lat="46.5201433" lon="12.0928183"><ele>1695.5</ele><time>2026-05-02T13:11:36.398Z</time></trkpt><trkpt lat="46.5202117" lon="12.0929867"><ele>1693.0</ele><time>2026-05-02T13:11:37.397Z</time></trkpt><trkpt lat="46.5202567" lon="12.0931367"><ele>1690.6000000000001</ele><time>2026-05-02T13:11:38.397Z</time></trkpt><trkpt lat="46.5202833" lon="12.0932667"><ele>1688.2</ele><time>2026-05-02T13:11:39.398Z</time></trkpt><trkpt lat="46.520265" lon="12.0934"><ele>1685.8</ele><time>2026-05-02T13:11:40.398Z</time></trkpt><trkpt lat="46.5202217" lon="12.0935083"><ele>1683.4</ele><time>2026-05-02T13:11:41.397Z</time></trkpt><trkpt lat="46.5201467" lon="12.0936167"><ele>1681.0</ele><time>2026-05-02T13:11:42.398Z</time></trkpt><trkpt lat="46.52004" lon="12.0937117"><ele>1681.0</ele><time>2026-05-02T13:11:43.398Z</time></trkpt><trkpt lat="46.5199517" lon="12.0937933"><ele>1681.0</ele><time>2026-05-02T13:11:44.398Z</time></trkpt><trkpt lat="46.5198867" lon="12.09389"><ele>1681.0</ele><time>2026-05-02T13:11:45.398Z</time></trkpt><trkpt lat="46.5198517" lon="12.0940017"><ele>1681.0</ele><time>2026-05-02T13:11:46.398Z</time></trkpt><trkpt lat="46.51986" lon="12.0941467"><ele>1681.0</ele><time>2026-05-02T13:11:47.398Z</time></trkpt><trkpt lat="46.51989" lon="12.094325"><ele>1680.0</ele><time>2026-05-02T13:11:48.398Z</time></trkpt><trkpt lat="46.51995" lon="12.0945317"><ele>1679.0</ele><time>2026-05-02T13:11:49.398Z</time></trkpt><trkpt lat="46.5200167" lon="12.0947367"><ele>1678.0</ele><time>2026-05-02T13:11:50.398Z</time></trkpt><trkpt lat="46.520065" lon="12.0949167"><ele>1677.0</ele><time>2026-05-02T13:11:51.398Z</time></trkpt><trkpt lat="46.5201" lon="12.09508"><ele>1675.3333333333333</ele><time>2026-05-02T13:11:52.398Z</time></trkpt><trkpt lat="46.5201233" lon="12.09522"><ele>1673.6666666666665</ele><time>2026-05-02T13:11:53.398Z</time></trkpt><trkpt lat="46.5201533" lon="12.0953433"><ele>1672.0</ele><time>2026-05-02T13:11:54.398Z</time></trkpt><trkpt lat="46.5201933" lon="12.09545"><ele>1670.3333333333333</ele><time>2026-05-02T13:11:55.398Z</time></trkpt><trkpt lat="46.520235" lon="12.0955583"><ele>1668.6666666666665</ele><time>2026-05-02T13:11:56.398Z</time></trkpt><trkpt lat="46.520275" lon="12.0956417"><ele>1667.0</ele><time>2026-05-02T13:11:57.397Z</time></trkpt><trkpt lat="46.520325" lon="12.0957167"><ele>1665.6</ele><time>2026-05-02T13:11:58.397Z</time></trkpt><trkpt lat="46.52039" lon="12.0957733"><ele>1664.1999999999998</ele><time>2026-05-02T13:11:59.397Z</time></trkpt><trkpt lat="46.5204583" lon="12.0958167"><ele>1662.8</ele><time>2026-05-02T13:12:00.398Z</time></trkpt><trkpt lat="46.52054" lon="12.0958267"><ele>1661.4</ele><time>2026-05-02T13:12:01.398Z</time></trkpt><trkpt lat="46.52065" lon="12.0957767"><ele>1660.0</ele><time>2026-05-02T13:12:02.398Z</time></trkpt><trkpt lat="46.520785" lon="12.0956683"><ele>1664.0</ele><time>2026-05-02T13:12:03.398Z</time></trkpt><trkpt lat="46.5209183" lon="12.09555"><ele>1668.0</ele><time>2026-05-02T13:12:04.398Z</time></trkpt><trkpt lat="46.5210317" lon="12.0954717"><ele>1672.0</ele><time>2026-05-02T13:12:05.398Z</time></trkpt><trkpt lat="46.52112" lon="12.095425"><ele>1676.0</ele><time>2026-05-02T13:12:06.398Z</time></trkpt><trkpt lat="46.5212033" lon="12.095405"><ele>1674.9999999999998</ele><time>2026-05-02T13:12:07.398Z</time></trkpt><trkpt lat="46.5212767" lon="12.0954167"><ele>1674.0</ele><time>2026-05-02T13:12:08.398Z</time></trkpt><trkpt lat="46.5213383" lon="12.0954667"><ele>1673.0</ele><time>2026-05-02T13:12:09.398Z</time></trkpt><trkpt lat="46.5213783" lon="12.09554"><ele>1672.0</ele><time>2026-05-02T13:12:10.397Z</time></trkpt><trkpt lat="46.5213833" lon="12.0956417"><ele>1670.9999999999998</ele><time>2026-05-02T13:12:11.398Z</time></trkpt><trkpt lat="46.5213217" lon="12.0958"><ele>1670.0</ele><time>2026-05-02T13:12:12.398Z</time></trkpt><trkpt lat="46.5212517" lon="12.0959533"><ele>1668.0</ele><time>2026-05-02T13:12:13.398Z</time></trkpt><trkpt lat="46.5211783" lon="12.096095"><ele>1666.0</ele><time>2026-05-02T13:12:14.398Z</time></trkpt><trkpt lat="46.52112" lon="12.0962267"><ele>1664.0</ele><time>2026-05-02T13:12:15.397Z</time></trkpt><trkpt lat="46.52107" lon="12.0963517"><ele>1662.0</ele><time>2026-05-02T13:12:16.398Z</time></trkpt><trkpt lat="46.5210383" lon="12.0964633"><ele>1660.0</ele><time>2026-05-02T13:12:17.398Z</time></trkpt><trkpt lat="46.5210283" lon="12.0965667"><ele>1659.0</ele><time>2026-05-02T13:12:18.398Z</time></trkpt><trkpt lat="46.5210333" lon="12.09666"><ele>1658.0</ele><time>2026-05-02T13:12:19.398Z</time></trkpt><trkpt lat="46.521135" lon="12.096775"><ele>1657.0</ele><time>2026-05-02T13:12:21.398Z</time></trkpt><trkpt lat="46.5212167" lon="12.0967817"><ele>1656.0</ele><time>2026-05-02T13:12:22.398Z</time></trkpt><trkpt lat="46.5213267" lon="12.0967267"><ele>1655.0</ele><time>2026-05-02T13:12:23.398Z</time></trkpt><trkpt lat="46.5214417" lon="12.0966633"><ele>1655.0</ele><time>2026-05-02T13:12:24.398Z</time></trkpt><trkpt lat="46.5215583" lon="12.0966083"><ele>1655.0</ele><time>2026-05-02T13:12:25.397Z</time></trkpt><trkpt lat="46.52167" lon="12.096585"><ele>1655.0</ele><time>2026-05-02T13:12:26.397Z</time></trkpt><trkpt lat="46.521765" lon="12.0966017"><ele>1655.0</ele><time>2026-05-02T13:12:27.397Z</time></trkpt><trkpt lat="46.52184" lon="12.09664"><ele>1655.0</ele><time>2026-05-02T13:12:28.398Z</time></trkpt><trkpt lat="46.5219017" lon="12.0967133"><ele>1655.0</ele><time>2026-05-02T13:12:29.397Z</time></trkpt><trkpt lat="46.521965" lon="12.0968233"><ele>1655.0</ele><time>2026-05-02T13:12:30.398Z</time></trkpt><trkpt lat="46.52201" lon="12.097005"><ele>1655.0</ele><time>2026-05-02T13:12:31.398Z</time></trkpt><trkpt lat="46.5220667" lon="12.097205"><ele>1655.0</ele><time>2026-05-02T13:12:32.398Z</time></trkpt><trkpt lat="46.5221233" lon="12.097415"><ele>1651.0</ele><time>2026-05-02T13:12:33.398Z</time></trkpt><trkpt lat="46.5221833" lon="12.0976233"><ele>1647.0</ele><time>2026-05-02T13:12:34.398Z</time></trkpt><trkpt lat="46.5222417" lon="12.0978283"><ele>1643.0</ele><time>2026-05-02T13:12:35.397Z</time></trkpt><trkpt lat="46.5223067" lon="12.0980167"><ele>1643.0</ele><time>2026-05-02T13:12:36.397Z</time></trkpt><trkpt lat="46.5223583" lon="12.0981967"><ele>1643.0</ele><time>2026-05-02T13:12:37.398Z</time></trkpt><trkpt lat="46.5224083" lon="12.0983733"><ele>1643.0</ele><time>2026-05-02T13:12:38.398Z</time></trkpt><trkpt lat="46.52245" lon="12.0985367"><ele>1643.0</ele><time>2026-05-02T13:12:39.398Z</time></trkpt><trkpt lat="46.52248" lon="12.0986933"><ele>1641.5</ele><time>2026-05-02T13:12:40.398Z</time></trkpt><trkpt lat="46.522505" lon="12.09885"><ele>1640.0</ele><time>2026-05-02T13:12:41.397Z</time></trkpt><trkpt lat="46.5225083" lon="12.09901"><ele>1638.5</ele><time>2026-05-02T13:12:42.398Z</time></trkpt><trkpt lat="46.5224933" lon="12.0991783"><ele>1637.0</ele><time>2026-05-02T13:12:43.398Z</time></trkpt><trkpt lat="46.522455" lon="12.0993667"><ele>1635.3333333333333</ele><time>2026-05-02T13:12:44.398Z</time></trkpt><trkpt lat="46.5223817" lon="12.0995683"><ele>1633.6666666666665</ele><time>2026-05-02T13:12:45.398Z</time></trkpt><trkpt lat="46.5223017" lon="12.0997667"><ele>1632.0</ele><time>2026-05-02T13:12:46.398Z</time></trkpt><trkpt lat="46.52222" lon="12.099965"><ele>1632.0</ele><time>2026-05-02T13:12:47.398Z</time></trkpt><trkpt lat="46.52214" lon="12.1001467"><ele>1632.0</ele><time>2026-05-02T13:12:48.398Z</time></trkpt><trkpt lat="46.52206" lon="12.1003117"><ele>1632.0</ele><time>2026-05-02T13:12:49.398Z</time></trkpt><trkpt lat="46.5219817" lon="12.1004283"><ele>1632.0</ele><time>2026-05-02T13:12:50.397Z</time></trkpt><trkpt lat="46.5218933" lon="12.1005117"><ele>1630.6</ele><time>2026-05-02T13:12:51.398Z</time></trkpt><trkpt lat="46.52179" lon="12.1005683"><ele>1629.1999999999998</ele><time>2026-05-02T13:12:52.398Z</time></trkpt><trkpt lat="46.5216767" lon="12.100595"><ele>1627.8</ele><time>2026-05-02T13:12:53.398Z</time></trkpt><trkpt lat="46.52157" lon="12.100605"><ele>1626.4</ele><time>2026-05-02T13:12:54.398Z</time></trkpt><trkpt lat="46.5214667" lon="12.1006067"><ele>1625.0</ele><time>2026-05-02T13:12:55.397Z</time></trkpt><trkpt lat="46.52138" lon="12.1006233"><ele>1624.9999999999998</ele><time>2026-05-02T13:12:56.398Z</time></trkpt><trkpt lat="46.521305" lon="12.1006467"><ele>1625.0</ele><time>2026-05-02T13:12:57.398Z</time></trkpt><trkpt lat="46.521245" lon="12.1007033"><ele>1625.0</ele><time>2026-05-02T13:12:58.398Z</time></trkpt><trkpt lat="46.5212017" lon="12.100775"><ele>1625.0</ele><time>2026-05-02T13:12:59.397Z</time></trkpt><trkpt lat="46.52116" lon="12.1008717"><ele>1624.9999999999998</ele><time>2026-05-02T13:13:00.397Z</time></trkpt><trkpt lat="46.5211367" lon="12.1010033"><ele>1625.0</ele><time>2026-05-02T13:13:01.398Z</time></trkpt><trkpt lat="46.5211417" lon="12.1011717"><ele>1624.75</ele><time>2026-05-02T13:13:02.398Z</time></trkpt><trkpt lat="46.5211433" lon="12.1013583"><ele>1624.5</ele><time>2026-05-02T13:13:03.398Z</time></trkpt><trkpt lat="46.5211267" lon="12.1015283"><ele>1624.25</ele><time>2026-05-02T13:13:04.398Z</time></trkpt><trkpt lat="46.5210983" lon="12.1017133"><ele>1624.0</ele><time>2026-05-02T13:13:05.397Z</time></trkpt><trkpt lat="46.5210617" lon="12.1018767"><ele>1624.0</ele><time>2026-05-02T13:13:06.398Z</time></trkpt><trkpt lat="46.5210367" lon="12.102045"><ele>1624.0</ele><time>2026-05-02T13:13:07.398Z</time></trkpt><trkpt lat="46.5210217" lon="12.1022133"><ele>1624.0</ele><time>2026-05-02T13:13:08.398Z</time></trkpt><trkpt lat="46.5210233" lon="12.10238"><ele>1624.0</ele><time>2026-05-02T13:13:09.398Z</time></trkpt><trkpt lat="46.5210333" lon="12.1025367"><ele>1622.5</ele><time>2026-05-02T13:13:10.398Z</time></trkpt><trkpt lat="46.5210567" lon="12.1026867"><ele>1621.0</ele><time>2026-05-02T13:13:11.398Z</time></trkpt><trkpt lat="46.52109" lon="12.1028267"><ele>1619.5</ele><time>2026-05-02T13:13:12.398Z</time></trkpt><trkpt lat="46.5211533" lon="12.1029633"><ele>1618.0</ele><time>2026-05-02T13:13:13.398Z</time></trkpt><trkpt lat="46.52124" lon="12.103105"><ele>1619.5</ele><time>2026-05-02T13:13:14.398Z</time></trkpt><trkpt lat="46.5213483" lon="12.1032317"><ele>1621.0</ele><time>2026-05-02T13:13:15.398Z</time></trkpt><trkpt lat="46.5214567" lon="12.10335"><ele>1622.5</ele><time>2026-05-02T13:13:16.398Z</time></trkpt><trkpt lat="46.521565" lon="12.1034533"><ele>1624.0</ele><time>2026-05-02T13:13:17.398Z</time></trkpt><trkpt lat="46.521665" lon="12.1035617"><ele>1624.0</ele><time>2026-05-02T13:13:18.398Z</time></trkpt><trkpt lat="46.52175" lon="12.1036733"><ele>1624.0</ele><time>2026-05-02T13:13:19.398Z</time></trkpt><trkpt lat="46.5218267" lon="12.10376"><ele>1624.0</ele><time>2026-05-02T13:13:20.398Z</time></trkpt><trkpt lat="46.521885" lon="12.103825"><ele>1624.0</ele><time>2026-05-02T13:13:21.398Z</time></trkpt><trkpt lat="46.5220033" lon="12.1038983"><ele>1624.0</ele><time>2026-05-02T13:13:23.398Z</time></trkpt><trkpt lat="46.522075" lon="12.10389"><ele>1621.6666666666667</ele><time>2026-05-02T13:13:24.397Z</time></trkpt><trkpt lat="46.52213" lon="12.1038417"><ele>1619.3333333333335</ele><time>2026-05-02T13:13:25.398Z</time></trkpt><trkpt lat="46.5221867" lon="12.1037617"><ele>1617.0</ele><time>2026-05-02T13:13:26.398Z</time></trkpt><trkpt lat="46.52224" lon="12.1036483"><ele>1614.6666666666665</ele><time>2026-05-02T13:13:27.398Z</time></trkpt><trkpt lat="46.5222983" lon="12.1035183"><ele>1612.3333333333333</ele><time>2026-05-02T13:13:28.397Z</time></trkpt><trkpt lat="46.5223483" lon="12.1034217"><ele>1610.0</ele><time>2026-05-02T13:13:29.397Z</time></trkpt><trkpt lat="46.5224467" lon="12.1033683"><ele>1610.0</ele><time>2026-05-02T13:13:31.398Z</time></trkpt><trkpt lat="46.5225567" lon="12.1034717"><ele>1610.0</ele><time>2026-05-02T13:13:33.398Z</time></trkpt><trkpt lat="46.5226167" lon="12.1035633"><ele>1610.0</ele><time>2026-05-02T13:13:34.397Z</time></trkpt><trkpt lat="46.5226517" lon="12.1037317"><ele>1610.0</ele><time>2026-05-02T13:13:35.398Z</time></trkpt><trkpt lat="46.52268" lon="12.1039533"><ele>1606.3333333333333</ele><time>2026-05-02T13:13:36.397Z</time></trkpt><trkpt lat="46.5227017" lon="12.104225"><ele>1602.6666666666665</ele><time>2026-05-02T13:13:37.398Z</time></trkpt><trkpt lat="46.522705" lon="12.1044867"><ele>1599.0</ele><time>2026-05-02T13:13:38.398Z</time></trkpt><trkpt lat="46.5227283" lon="12.1047167"><ele>1598.0</ele><time>2026-05-02T13:13:39.398Z</time></trkpt><trkpt lat="46.5227533" lon="12.1049367"><ele>1597.0</ele><time>2026-05-02T13:13:40.398Z</time></trkpt><trkpt lat="46.522765" lon="12.10516"><ele>1596.0</ele><time>2026-05-02T13:13:41.398Z</time></trkpt><trkpt lat="46.5227867" lon="12.10538"><ele>1596.0</ele><time>2026-05-02T13:13:42.398Z</time></trkpt><trkpt lat="46.5228" lon="12.1055767"><ele>1596.0</ele><time>2026-05-02T13:13:43.397Z</time></trkpt><trkpt lat="46.5228083" lon="12.1057683"><ele>1596.0</ele><time>2026-05-02T13:13:44.398Z</time></trkpt><trkpt lat="46.5228183" lon="12.1059383"><ele>1596.0</ele><time>2026-05-02T13:13:45.398Z</time></trkpt><trkpt lat="46.5228233" lon="12.1060783"><ele>1595.0</ele><time>2026-05-02T13:13:46.398Z</time></trkpt><trkpt lat="46.52283" lon="12.1061917"><ele>1594.0</ele><time>2026-05-02T13:13:47.398Z</time></trkpt><trkpt lat="46.5228283" lon="12.1062833"><ele>1593.0</ele><time>2026-05-02T13:13:48.398Z</time></trkpt><trkpt lat="46.5228033" lon="12.1064267"><ele>1592.0</ele><time>2026-05-02T13:13:50.397Z</time></trkpt><trkpt lat="46.5227067" lon="12.1064533"><ele>1591.0</ele><time>2026-05-02T13:13:52.398Z</time></trkpt><trkpt lat="46.5226117" lon="12.10632"><ele>1591.0000000000002</ele><time>2026-05-02T13:13:54.398Z</time></trkpt><trkpt lat="46.52257" lon="12.10622"><ele>1591.0</ele><time>2026-05-02T13:13:55.398Z</time></trkpt><trkpt lat="46.5225267" lon="12.1061417"><ele>1591.0</ele><time>2026-05-02T13:13:56.397Z</time></trkpt><trkpt lat="46.5224433" lon="12.1060967"><ele>1591.0</ele><time>2026-05-02T13:13:58.398Z</time></trkpt><trkpt lat="46.5223583" lon="12.1062267"><ele>1591.0000000000002</ele><time>2026-05-02T13:14:00.398Z</time></trkpt><trkpt lat="46.5223583" lon="12.1063283"><ele>1591.0</ele><time>2026-05-02T13:14:01.397Z</time></trkpt><trkpt lat="46.5224217" lon="12.1064533"><ele>1588.75</ele><time>2026-05-02T13:14:02.397Z</time></trkpt><trkpt lat="46.5225033" lon="12.1065917"><ele>1586.5</ele><time>2026-05-02T13:14:03.398Z</time></trkpt><trkpt lat="46.522615" lon="12.1067467"><ele>1584.25</ele><time>2026-05-02T13:14:04.398Z</time></trkpt><trkpt lat="46.522725" lon="12.106905"><ele>1582.0</ele><time>2026-05-02T13:14:05.398Z</time></trkpt><trkpt lat="46.5228383" lon="12.107055"><ele>1581.5</ele><time>2026-05-02T13:14:06.398Z</time></trkpt><trkpt lat="46.5229483" lon="12.1072"><ele>1581.0</ele><time>2026-05-02T13:14:07.397Z</time></trkpt><trkpt lat="46.5230467" lon="12.1073183"><ele>1580.5</ele><time>2026-05-02T13:14:08.398Z</time></trkpt><trkpt lat="46.5231417" lon="12.1074083"><ele>1580.0</ele><time>2026-05-02T13:14:09.397Z</time></trkpt><trkpt lat="46.523235" lon="12.1074783"><ele>1578.8</ele><time>2026-05-02T13:14:10.398Z</time></trkpt><trkpt lat="46.5233417" lon="12.1075283"><ele>1577.6</ele><time>2026-05-02T13:14:11.398Z</time></trkpt><trkpt lat="46.523455" lon="12.107545"><ele>1576.4</ele><time>2026-05-02T13:14:12.397Z</time></trkpt><trkpt lat="46.5235633" lon="12.1075233"><ele>1575.2</ele><time>2026-05-02T13:14:13.398Z</time></trkpt><trkpt lat="46.523665" lon="12.107485"><ele>1574.0</ele><time>2026-05-02T13:14:14.398Z</time></trkpt><trkpt lat="46.52376" lon="12.1074533"><ele>1572.3333333333333</ele><time>2026-05-02T13:14:15.398Z</time></trkpt><trkpt lat="46.523835" lon="12.1074333"><ele>1570.6666666666665</ele><time>2026-05-02T13:14:16.398Z</time></trkpt><trkpt lat="46.5239017" lon="12.1074317"><ele>1569.0</ele><time>2026-05-02T13:14:17.398Z</time></trkpt><trkpt lat="46.5239683" lon="12.1074483"><ele>1567.3333333333335</ele><time>2026-05-02T13:14:18.398Z</time></trkpt><trkpt lat="46.5240183" lon="12.107505"><ele>1565.6666666666667</ele><time>2026-05-02T13:14:19.397Z</time></trkpt><trkpt lat="46.524025" lon="12.10768"><ele>1564.0</ele><time>2026-05-02T13:14:21.397Z</time></trkpt><trkpt lat="46.5239867" lon="12.1078233"><ele>1564.0</ele><time>2026-05-02T13:14:22.398Z</time></trkpt><trkpt lat="46.5239017" lon="12.1080183"><ele>1564.0</ele><time>2026-05-02T13:14:23.398Z</time></trkpt><trkpt lat="46.5238317" lon="12.108215"><ele>1564.0</ele><time>2026-05-02T13:14:24.397Z</time></trkpt><trkpt lat="46.523765" lon="12.1084033"><ele>1563.75</ele><time>2026-05-02T13:14:25.397Z</time></trkpt><trkpt lat="46.5237067" lon="12.10859"><ele>1563.5</ele><time>2026-05-02T13:14:26.398Z</time></trkpt><trkpt lat="46.5236483" lon="12.1087483"><ele>1563.25</ele><time>2026-05-02T13:14:27.398Z</time></trkpt><trkpt lat="46.5235983" lon="12.1088733"><ele>1563.0</ele><time>2026-05-02T13:14:28.397Z</time></trkpt><trkpt lat="46.5235467" lon="12.1089733"><ele>1563.0</ele><time>2026-05-02T13:14:29.398Z</time></trkpt><trkpt lat="46.52349" lon="12.1090533"><ele>1563.0</ele><time>2026-05-02T13:14:30.398Z</time></trkpt><trkpt lat="46.5234233" lon="12.1091167"><ele>1563.0</ele><time>2026-05-02T13:14:31.398Z</time></trkpt><trkpt lat="46.5233467" lon="12.1091633"><ele>1563.0</ele><time>2026-05-02T13:14:32.398Z</time></trkpt><trkpt lat="46.5232567" lon="12.1092017"><ele>1563.0</ele><time>2026-05-02T13:14:33.397Z</time></trkpt><trkpt lat="46.523135" lon="12.10922"><ele>1561.5</ele><time>2026-05-02T13:14:34.398Z</time></trkpt><trkpt lat="46.5229883" lon="12.1092217"><ele>1560.0</ele><time>2026-05-02T13:14:35.398Z</time></trkpt><trkpt lat="46.5228517" lon="12.1092233"><ele>1558.5</ele><time>2026-05-02T13:14:36.397Z</time></trkpt><trkpt lat="46.52273" lon="12.1092083"><ele>1557.0</ele><time>2026-05-02T13:14:37.398Z</time></trkpt><trkpt lat="46.5226183" lon="12.1091633"><ele>1556.1999999999998</ele><time>2026-05-02T13:14:38.398Z</time></trkpt><trkpt lat="46.5225217" lon="12.10911"><ele>1555.4</ele><time>2026-05-02T13:14:39.398Z</time></trkpt><trkpt lat="46.5224317" lon="12.1090433"><ele>1554.6</ele><time>2026-05-02T13:14:40.398Z</time></trkpt><trkpt lat="46.522355" lon="12.1089917"><ele>1553.8000000000002</ele><time>2026-05-02T13:14:41.398Z</time></trkpt><trkpt lat="46.52229" lon="12.108965"><ele>1553.0</ele><time>2026-05-02T13:14:42.398Z</time></trkpt><trkpt lat="46.522195" lon="12.1090283"><ele>1553.0</ele><time>2026-05-02T13:14:44.398Z</time></trkpt><trkpt lat="46.5221867" lon="12.109125"><ele>1553.0</ele><time>2026-05-02T13:14:45.398Z</time></trkpt><trkpt lat="46.5221867" lon="12.1092317"><ele>1553.0</ele><time>2026-05-02T13:14:46.397Z</time></trkpt><trkpt lat="46.5222433" lon="12.1093967"><ele>1553.0</ele><time>2026-05-02T13:14:47.398Z</time></trkpt><trkpt lat="46.522315" lon="12.1095917"><ele>1553.0</ele><time>2026-05-02T13:14:48.397Z</time></trkpt><trkpt lat="46.522375" lon="12.1097767"><ele>1550.0</ele><time>2026-05-02T13:14:49.397Z</time></trkpt><trkpt lat="46.522425" lon="12.1099417"><ele>1547.0</ele><time>2026-05-02T13:14:50.398Z</time></trkpt><trkpt lat="46.5224783" lon="12.11011"><ele>1544.0</ele><time>2026-05-02T13:14:51.398Z</time></trkpt><trkpt lat="46.5225367" lon="12.1102683"><ele>1541.0</ele><time>2026-05-02T13:14:52.398Z</time></trkpt><trkpt lat="46.5225983" lon="12.1104317"><ele>1541.0</ele><time>2026-05-02T13:14:53.398Z</time></trkpt><trkpt lat="46.522675" lon="12.11057"><ele>1541.0</ele><time>2026-05-02T13:14:54.398Z</time></trkpt><trkpt lat="46.5227533" lon="12.1107"><ele>1541.0</ele><time>2026-05-02T13:14:55.398Z</time></trkpt><trkpt lat="46.522845" lon="12.1108167"><ele>1541.0</ele><time>2026-05-02T13:14:56.397Z</time></trkpt><trkpt lat="46.522945" lon="12.1109267"><ele>1540.5</ele><time>2026-05-02T13:14:57.397Z</time></trkpt><trkpt lat="46.5230583" lon="12.111025"><ele>1540.0</ele><time>2026-05-02T13:14:58.398Z</time></trkpt><trkpt lat="46.52318" lon="12.11112"><ele>1539.5</ele><time>2026-05-02T13:14:59.398Z</time></trkpt><trkpt lat="46.5232967" lon="12.11123"><ele>1539.0</ele><time>2026-05-02T13:15:00.398Z</time></trkpt><trkpt lat="46.5234133" lon="12.11134"><ele>1539.0</ele><time>2026-05-02T13:15:01.398Z</time></trkpt><trkpt lat="46.52353" lon="12.1114583"><ele>1539.0</ele><time>2026-05-02T13:15:02.398Z</time></trkpt><trkpt lat="46.5236433" lon="12.11157"><ele>1539.0</ele><time>2026-05-02T13:15:03.397Z</time></trkpt><trkpt lat="46.5237617" lon="12.1116717"><ele>1539.0</ele><time>2026-05-02T13:15:04.398Z</time></trkpt><trkpt lat="46.5238733" lon="12.11178"><ele>1537.5</ele><time>2026-05-02T13:15:05.397Z</time></trkpt><trkpt lat="46.52398" lon="12.1118883"><ele>1536.0</ele><time>2026-05-02T13:15:06.398Z</time></trkpt><trkpt lat="46.5240817" lon="12.111995"><ele>1534.5</ele><time>2026-05-02T13:15:07.398Z</time></trkpt><trkpt lat="46.524175" lon="12.1121233"><ele>1533.0</ele><time>2026-05-02T13:15:08.398Z</time></trkpt><trkpt lat="46.5242517" lon="12.1122667"><ele>1533.0</ele><time>2026-05-02T13:15:09.398Z</time></trkpt><trkpt lat="46.5243117" lon="12.11242"><ele>1533.0</ele><time>2026-05-02T13:15:10.397Z</time></trkpt><trkpt lat="46.524365" lon="12.1125833"><ele>1533.0</ele><time>2026-05-02T13:15:11.398Z</time></trkpt><trkpt lat="46.5244" lon="12.1127383"><ele>1533.0</ele><time>2026-05-02T13:15:12.398Z</time></trkpt><trkpt lat="46.5244167" lon="12.1129"><ele>1533.0</ele><time>2026-05-02T13:15:13.398Z</time></trkpt><trkpt lat="46.5244083" lon="12.1130533"><ele>1533.0</ele><time>2026-05-02T13:15:14.398Z</time></trkpt><trkpt lat="46.524375" lon="12.113205"><ele>1533.0</ele><time>2026-05-02T13:15:15.398Z</time></trkpt><trkpt lat="46.52431" lon="12.113345"><ele>1533.0</ele><time>2026-05-02T13:15:16.398Z</time></trkpt><trkpt lat="46.5241983" lon="12.1134467"><ele>1533.0</ele><time>2026-05-02T13:15:17.398Z</time></trkpt><trkpt lat="46.5240567" lon="12.113535"><ele>1533.0</ele><time>2026-05-02T13:15:18.398Z</time></trkpt><trkpt lat="46.5239083" lon="12.1136117"><ele>1533.0</ele><time>2026-05-02T13:15:19.397Z</time></trkpt><trkpt lat="46.5237717" lon="12.113675"><ele>1531.5</ele><time>2026-05-02T13:15:20.398Z</time></trkpt><trkpt lat="46.5236367" lon="12.1137083"><ele>1530.0</ele><time>2026-05-02T13:15:21.398Z</time></trkpt><trkpt lat="46.5235033" lon="12.1137183"><ele>1528.5</ele><time>2026-05-02T13:15:22.397Z</time></trkpt><trkpt lat="46.523375" lon="12.1137067"><ele>1527.0</ele><time>2026-05-02T13:15:23.397Z</time></trkpt><trkpt lat="46.52326" lon="12.1136717"><ele>1527.0</ele><time>2026-05-02T13:15:24.398Z</time></trkpt><trkpt lat="46.5231633" lon="12.1136467"><ele>1527.0</ele><time>2026-05-02T13:15:25.398Z</time></trkpt><trkpt lat="46.5230833" lon="12.1136433"><ele>1527.0</ele><time>2026-05-02T13:15:26.398Z</time></trkpt><trkpt lat="46.5230183" lon="12.11367"><ele>1527.0</ele><time>2026-05-02T13:15:27.397Z</time></trkpt><trkpt lat="46.5229633" lon="12.113725"><ele>1527.0</ele><time>2026-05-02T13:15:28.397Z</time></trkpt><trkpt lat="46.5229533" lon="12.1138983"><ele>1527.0</ele><time>2026-05-02T13:15:30.397Z</time></trkpt><trkpt lat="46.523045" lon="12.1140367"><ele>1527.0</ele><time>2026-05-02T13:15:32.398Z</time></trkpt><trkpt lat="46.5231467" lon="12.1140333"><ele>1527.0</ele><time>2026-05-02T13:15:33.398Z</time></trkpt><trkpt lat="46.5232367" lon="12.1140533"><ele>1527.0</ele><time>2026-05-02T13:15:34.397Z</time></trkpt><trkpt lat="46.523315" lon="12.11409"><ele>1527.0</ele><time>2026-05-02T13:15:35.397Z</time></trkpt><trkpt lat="46.5233817" lon="12.11414"><ele>1527.0</ele><time>2026-05-02T13:15:36.398Z</time></trkpt><trkpt lat="46.5234183" lon="12.114215"><ele>1527.0</ele><time>2026-05-02T13:15:37.398Z</time></trkpt><trkpt lat="46.523355" lon="12.1143367"><ele>1527.25</ele><time>2026-05-02T13:15:38.397Z</time></trkpt><trkpt lat="46.5232833" lon="12.1144567"><ele>1527.5</ele><time>2026-05-02T13:15:39.398Z</time></trkpt><trkpt lat="46.5231667" lon="12.11456"><ele>1527.75</ele><time>2026-05-02T13:15:40.398Z</time></trkpt><trkpt lat="46.523005" lon="12.1146683"><ele>1528.0</ele><time>2026-05-02T13:15:41.398Z</time></trkpt><trkpt lat="46.5228817" lon="12.1147567"><ele>1525.0</ele><time>2026-05-02T13:15:42.398Z</time></trkpt><trkpt lat="46.522775" lon="12.1148167"><ele>1522.0</ele><time>2026-05-02T13:15:43.398Z</time></trkpt><trkpt lat="46.5226667" lon="12.114815"><ele>1519.0</ele><time>2026-05-02T13:15:44.398Z</time></trkpt><trkpt lat="46.5225717" lon="12.114745"><ele>1516.0</ele><time>2026-05-02T13:15:45.398Z</time></trkpt><trkpt lat="46.5224833" lon="12.1145983"><ele>1516.0</ele><time>2026-05-02T13:15:46.398Z</time></trkpt><trkpt lat="46.5224233" lon="12.1143767"><ele>1516.0</ele><time>2026-05-02T13:15:47.398Z</time></trkpt><trkpt lat="46.52236" lon="12.1141283"><ele>1516.0</ele><time>2026-05-02T13:15:48.398Z</time></trkpt><trkpt lat="46.5222967" lon="12.1138967"><ele>1515.5</ele><time>2026-05-02T13:15:49.398Z</time></trkpt><trkpt lat="46.52223" lon="12.1136867"><ele>1515.0</ele><time>2026-05-02T13:15:50.398Z</time></trkpt><trkpt lat="46.522165" lon="12.1135167"><ele>1514.5</ele><time>2026-05-02T13:15:51.398Z</time></trkpt><trkpt lat="46.5220967" lon="12.1133883"><ele>1514.0</ele><time>2026-05-02T13:15:52.397Z</time></trkpt><trkpt lat="46.5220067" lon="12.1132867"><ele>1514.2</ele><time>2026-05-02T13:15:53.398Z</time></trkpt><trkpt lat="46.5218967" lon="12.113215"><ele>1514.4</ele><time>2026-05-02T13:15:54.398Z</time></trkpt><trkpt lat="46.5217783" lon="12.1131883"><ele>1514.6</ele><time>2026-05-02T13:15:55.397Z</time></trkpt><trkpt lat="46.521675" lon="12.1131867"><ele>1514.8</ele><time>2026-05-02T13:15:56.398Z</time></trkpt><trkpt lat="46.5215933" lon="12.1132017"><ele>1515.0</ele><time>2026-05-02T13:15:57.398Z</time></trkpt><trkpt lat="46.5215283" lon="12.11324"><ele>1514.0</ele><time>2026-05-02T13:15:58.397Z</time></trkpt><trkpt lat="46.521505" lon="12.1133367"><ele>1513.0</ele><time>2026-05-02T13:15:59.397Z</time></trkpt><trkpt lat="46.5214917" lon="12.1134567"><ele>1512.0</ele><time>2026-05-02T13:16:00.398Z</time></trkpt><trkpt lat="46.521525" lon="12.1135883"><ele>1511.0</ele><time>2026-05-02T13:16:01.398Z</time></trkpt><trkpt lat="46.5215933" lon="12.1137367"><ele>1510.0</ele><time>2026-05-02T13:16:02.398Z</time></trkpt><trkpt lat="46.5216833" lon="12.1138967"><ele>1510.0</ele><time>2026-05-02T13:16:03.397Z</time></trkpt><trkpt lat="46.521775" lon="12.1140667"><ele>1510.0</ele><time>2026-05-02T13:16:04.398Z</time></trkpt><trkpt lat="46.521845" lon="12.1142383"><ele>1510.0</ele><time>2026-05-02T13:16:05.398Z</time></trkpt><trkpt lat="46.5218867" lon="12.114415"><ele>1510.0</ele><time>2026-05-02T13:16:06.398Z</time></trkpt><trkpt lat="46.521895" lon="12.1145883"><ele>1507.25</ele><time>2026-05-02T13:16:07.398Z</time></trkpt><trkpt lat="46.5218917" lon="12.1147467"><ele>1504.5</ele><time>2026-05-02T13:16:08.398Z</time></trkpt><trkpt lat="46.521885" lon="12.1149"><ele>1501.75</ele><time>2026-05-02T13:16:09.397Z</time></trkpt><trkpt lat="46.5219083" lon="12.1150683"><ele>1499.0</ele><time>2026-05-02T13:16:10.398Z</time></trkpt><trkpt lat="46.5219633" lon="12.1152417"><ele>1502.6666666666667</ele><time>2026-05-02T13:16:11.398Z</time></trkpt><trkpt lat="46.5220467" lon="12.11541"><ele>1506.3333333333333</ele><time>2026-05-02T13:16:12.397Z</time></trkpt><trkpt lat="46.522165" lon="12.1155667"><ele>1510.0</ele><time>2026-05-02T13:16:13.398Z</time></trkpt><trkpt lat="46.5223317" lon="12.1157267"><ele>1504.3333333333333</ele><time>2026-05-02T13:16:14.398Z</time></trkpt><trkpt lat="46.5225133" lon="12.1158767"><ele>1498.6666666666667</ele><time>2026-05-02T13:16:15.397Z</time></trkpt><trkpt lat="46.522675" lon="12.116015"><ele>1493.0</ele><time>2026-05-02T13:16:16.397Z</time></trkpt><trkpt lat="46.5228083" lon="12.1161333"><ele>1494.4</ele><time>2026-05-02T13:16:17.398Z</time></trkpt><trkpt lat="46.5229183" lon="12.11624"><ele>1495.8000000000002</ele><time>2026-05-02T13:16:18.398Z</time></trkpt><trkpt lat="46.523" lon="12.1163217"><ele>1497.2</ele><time>2026-05-02T13:16:19.397Z</time></trkpt><trkpt lat="46.5230617" lon="12.116395"><ele>1498.6</ele><time>2026-05-02T13:16:20.398Z</time></trkpt><trkpt lat="46.5230983" lon="12.116475"><ele>1500.0</ele><time>2026-05-02T13:16:21.397Z</time></trkpt><trkpt lat="46.5230833" lon="12.1165933"><ele>1500.0</ele><time>2026-05-02T13:16:23.398Z</time></trkpt><trkpt lat="46.5229783" lon="12.116575"><ele>1500.0</ele><time>2026-05-02T13:16:24.398Z</time></trkpt><trkpt lat="46.5228933" lon="12.1165333"><ele>1500.0</ele><time>2026-05-02T13:16:25.398Z</time></trkpt><trkpt lat="46.5227667" lon="12.1164017"><ele>1500.0</ele><time>2026-05-02T13:16:26.398Z</time></trkpt><trkpt lat="46.522605" lon="12.1162467"><ele>1497.6666666666667</ele><time>2026-05-02T13:16:27.397Z</time></trkpt><trkpt lat="46.5224317" lon="12.1160917"><ele>1495.3333333333335</ele><time>2026-05-02T13:16:28.397Z</time></trkpt><trkpt lat="46.5222667" lon="12.1159333"><ele>1493.0</ele><time>2026-05-02T13:16:29.397Z</time></trkpt><trkpt lat="46.5220967" lon="12.1158217"><ele>1490.75</ele><time>2026-05-02T13:16:30.398Z</time></trkpt><trkpt lat="46.5219433" lon="12.1157283"><ele>1488.5</ele><time>2026-05-02T13:16:31.398Z</time></trkpt><trkpt lat="46.5218317" lon="12.115625"><ele>1486.25</ele><time>2026-05-02T13:16:32.398Z</time></trkpt><trkpt lat="46.5217367" lon="12.11555"><ele>1484.0</ele><time>2026-05-02T13:16:33.398Z</time></trkpt><trkpt lat="46.5216417" lon="12.1154433"><ele>1484.0</ele><time>2026-05-02T13:16:34.397Z</time></trkpt><trkpt lat="46.5215567" lon="12.1153117"><ele>1484.0</ele><time>2026-05-02T13:16:35.398Z</time></trkpt><trkpt lat="46.521505" lon="12.115135"><ele>1484.0</ele><time>2026-05-02T13:16:36.398Z</time></trkpt><trkpt lat="46.5214583" lon="12.11497"><ele>1484.0</ele><time>2026-05-02T13:16:37.398Z</time></trkpt><trkpt lat="46.5214017" lon="12.1148317"><ele>1484.6</ele><time>2026-05-02T13:16:38.398Z</time></trkpt><trkpt lat="46.5213417" lon="12.11472"><ele>1485.2</ele><time>2026-05-02T13:16:39.397Z</time></trkpt><trkpt lat="46.5212483" lon="12.11464"><ele>1485.8</ele><time>2026-05-02T13:16:40.397Z</time></trkpt><trkpt lat="46.521135" lon="12.1146033"><ele>1486.3999999999999</ele><time>2026-05-02T13:16:41.398Z</time></trkpt><trkpt lat="46.5210167" lon="12.114585"><ele>1487.0</ele><time>2026-05-02T13:16:42.398Z</time></trkpt><trkpt lat="46.5209083" lon="12.1145583"><ele>1487.0</ele><time>2026-05-02T13:16:43.397Z</time></trkpt><trkpt lat="46.5208117" lon="12.11451"><ele>1487.0</ele><time>2026-05-02T13:16:44.398Z</time></trkpt><trkpt lat="46.5207217" lon="12.11445"><ele>1487.0</ele><time>2026-05-02T13:16:45.398Z</time></trkpt><trkpt lat="46.520645" lon="12.114385"><ele>1487.0</ele><time>2026-05-02T13:16:46.398Z</time></trkpt><trkpt lat="46.5205717" lon="12.1143283"><ele>1487.0</ele><time>2026-05-02T13:16:47.397Z</time></trkpt><trkpt lat="46.5205" lon="12.11431"><ele>1487.0</ele><time>2026-05-02T13:16:48.398Z</time></trkpt><trkpt lat="46.5204317" lon="12.1143133"><ele>1487.0</ele><time>2026-05-02T13:16:49.397Z</time></trkpt><trkpt lat="46.5203733" lon="12.1144667"><ele>1487.0</ele><time>2026-05-02T13:16:51.398Z</time></trkpt><trkpt lat="46.520395" lon="12.1145717"><ele>1487.0</ele><time>2026-05-02T13:16:53.397Z</time></trkpt><trkpt lat="46.5204483" lon="12.1146433"><ele>1487.0</ele><time>2026-05-02T13:16:54.397Z</time></trkpt><trkpt lat="46.5205367" lon="12.114705"><ele>1487.0</ele><time>2026-05-02T13:16:55.398Z</time></trkpt><trkpt lat="46.5206517" lon="12.114755"><ele>1487.0</ele><time>2026-05-02T13:16:56.398Z</time></trkpt><trkpt lat="46.5207883" lon="12.114805"><ele>1487.0</ele><time>2026-05-02T13:16:57.398Z</time></trkpt><trkpt lat="46.52092" lon="12.1148617"><ele>1487.0</ele><time>2026-05-02T13:16:58.398Z</time></trkpt><trkpt lat="46.5210383" lon="12.1149367"><ele>1487.0</ele><time>2026-05-02T13:16:59.398Z</time></trkpt><trkpt lat="46.521125" lon="12.1150033"><ele>1486.3999999999999</ele><time>2026-05-02T13:17:00.397Z</time></trkpt><trkpt lat="46.5212" lon="12.1150983"><ele>1485.8</ele><time>2026-05-02T13:17:01.398Z</time></trkpt><trkpt lat="46.52124" lon="12.1152183"><ele>1485.2</ele><time>2026-05-02T13:17:02.397Z</time></trkpt><trkpt lat="46.5212233" lon="12.1153783"><ele>1484.6</ele><time>2026-05-02T13:17:03.398Z</time></trkpt><trkpt lat="46.52122" lon="12.1155717"><ele>1484.0</ele><time>2026-05-02T13:17:04.398Z</time></trkpt><trkpt lat="46.5212383" lon="12.1157967"><ele>1478.3333333333335</ele><time>2026-05-02T13:17:05.398Z</time></trkpt><trkpt lat="46.5212717" lon="12.11604"><ele>1472.6666666666667</ele><time>2026-05-02T13:17:06.398Z</time></trkpt><trkpt lat="46.5213217" lon="12.1162867"><ele>1467.0</ele><time>2026-05-02T13:17:07.398Z</time></trkpt><trkpt lat="46.5213783" lon="12.1165217"><ele>1462.0</ele><time>2026-05-02T13:17:08.397Z</time></trkpt><trkpt lat="46.52143" lon="12.1167583"><ele>1457.0</ele><time>2026-05-02T13:17:09.397Z</time></trkpt><trkpt lat="46.5214967" lon="12.1170117"><ele>1452.0</ele><time>2026-05-02T13:17:10.398Z</time></trkpt><trkpt lat="46.5215767" lon="12.1172533"><ele>1449.6666666666667</ele><time>2026-05-02T13:17:11.398Z</time></trkpt><trkpt lat="46.5216617" lon="12.1174767"><ele>1447.3333333333335</ele><time>2026-05-02T13:17:12.398Z</time></trkpt><trkpt lat="46.5217483" lon="12.1176683"><ele>1445.0</ele><time>2026-05-02T13:17:13.397Z</time></trkpt><trkpt lat="46.5218483" lon="12.11784"><ele>1445.0</ele><time>2026-05-02T13:17:14.398Z</time></trkpt><trkpt lat="46.5219717" lon="12.1179983"><ele>1445.0</ele><time>2026-05-02T13:17:15.398Z</time></trkpt><trkpt lat="46.5220783" lon="12.118125"><ele>1445.0</ele><time>2026-05-02T13:17:16.397Z</time></trkpt><trkpt lat="46.52218" lon="12.11826"><ele>1445.0</ele><time>2026-05-02T13:17:17.397Z</time></trkpt><trkpt lat="46.5222567" lon="12.1184017"><ele>1447.0</ele><time>2026-05-02T13:17:18.398Z</time></trkpt><trkpt lat="46.52232" lon="12.1185583"><ele>1449.0</ele><time>2026-05-02T13:17:19.397Z</time></trkpt><trkpt lat="46.5223567" lon="12.1187417"><ele>1451.0</ele><time>2026-05-02T13:17:20.397Z</time></trkpt><trkpt lat="46.5223633" lon="12.1189383"><ele>1453.0</ele><time>2026-05-02T13:17:21.397Z</time></trkpt><trkpt lat="46.52236" lon="12.11914"><ele>1453.0</ele><time>2026-05-02T13:17:22.398Z</time></trkpt><trkpt lat="46.522365" lon="12.1193483"><ele>1453.0</ele><time>2026-05-02T13:17:23.397Z</time></trkpt><trkpt lat="46.522385" lon="12.119545"><ele>1453.0</ele><time>2026-05-02T13:17:24.398Z</time></trkpt><trkpt lat="46.5223967" lon="12.119725"><ele>1453.0</ele><time>2026-05-02T13:17:25.398Z</time></trkpt><trkpt lat="46.5224017" lon="12.1198717"><ele>1449.5</ele><time>2026-05-02T13:17:26.398Z</time></trkpt><trkpt lat="46.5224083" lon="12.1199967"><ele>1446.0</ele><time>2026-05-02T13:17:27.398Z</time></trkpt><trkpt lat="46.52242" lon="12.1201067"><ele>1442.5</ele><time>2026-05-02T13:17:28.398Z</time></trkpt><trkpt lat="46.52245" lon="12.1202"><ele>1439.0</ele><time>2026-05-02T13:17:29.398Z</time></trkpt><trkpt lat="46.52249" lon="12.1202917"><ele>1435.5</ele><time>2026-05-02T13:17:30.398Z</time></trkpt><trkpt lat="46.522535" lon="12.1203817"><ele>1432.0</ele><time>2026-05-02T13:17:31.398Z</time></trkpt><trkpt lat="46.522615" lon="12.120445"><ele>1432.0</ele><time>2026-05-02T13:17:32.397Z</time></trkpt><trkpt lat="46.5227333" lon="12.1204917"><ele>1432.0</ele><time>2026-05-02T13:17:33.397Z</time></trkpt><trkpt lat="46.5228817" lon="12.1204883"><ele>1432.0</ele><time>2026-05-02T13:17:34.398Z</time></trkpt><trkpt lat="46.5230067" lon="12.12051"><ele>1432.0</ele><time>2026-05-02T13:17:35.398Z</time></trkpt><trkpt lat="46.5231517" lon="12.1204333"><ele>1438.75</ele><time>2026-05-02T13:17:36.397Z</time></trkpt><trkpt lat="46.5232867" lon="12.12038"><ele>1445.5</ele><time>2026-05-02T13:17:37.397Z</time></trkpt><trkpt lat="46.5234083" lon="12.120305"><ele>1452.25</ele><time>2026-05-02T13:17:38.397Z</time></trkpt><trkpt lat="46.5235283" lon="12.1202"><ele>1459.0</ele><time>2026-05-02T13:17:39.397Z</time></trkpt><trkpt lat="46.5236517" lon="12.1201167"><ele>1442.5</ele><time>2026-05-02T13:17:40.397Z</time></trkpt><trkpt lat="46.52377" lon="12.1200267"><ele>1426.0</ele><time>2026-05-02T13:17:41.398Z</time></trkpt><trkpt lat="46.5238933" lon="12.11995"><ele>1409.5</ele><time>2026-05-02T13:17:42.398Z</time></trkpt><trkpt lat="46.52403" lon="12.1199017"><ele>1393.0</ele><time>2026-05-02T13:17:43.398Z</time></trkpt><trkpt lat="46.5242017" lon="12.1198817"><ele>1395.3333333333333</ele><time>2026-05-02T13:17:44.398Z</time></trkpt><trkpt lat="46.5244067" lon="12.1198933"><ele>1397.6666666666667</ele><time>2026-05-02T13:17:45.398Z</time></trkpt><trkpt lat="46.5246467" lon="12.119945"><ele>1400.0</ele><time>2026-05-02T13:17:46.398Z</time></trkpt><trkpt lat="46.524885" lon="12.1200033"><ele>1400.0</ele><time>2026-05-02T13:17:47.398Z</time></trkpt><trkpt lat="46.525115" lon="12.1200683"><ele>1400.0</ele><time>2026-05-02T13:17:48.398Z</time></trkpt><trkpt lat="46.5253233" lon="12.1201333"><ele>1400.0</ele><time>2026-05-02T13:17:49.398Z</time></trkpt><trkpt lat="46.525495" lon="12.1202083"><ele>1401.3333333333335</ele><time>2026-05-02T13:17:50.398Z</time></trkpt><trkpt lat="46.5256533" lon="12.1202867"><ele>1402.6666666666667</ele><time>2026-05-02T13:17:51.398Z</time></trkpt><trkpt lat="46.525805" lon="12.1203717"><ele>1404.0</ele><time>2026-05-02T13:17:52.398Z</time></trkpt><trkpt lat="46.5259317" lon="12.12049"><ele>1404.0</ele><time>2026-05-02T13:17:53.398Z</time></trkpt><trkpt lat="46.526055" lon="12.120605"><ele>1404.0</ele><time>2026-05-02T13:17:54.397Z</time></trkpt><trkpt lat="46.5261767" lon="12.1206833"><ele>1404.0</ele><time>2026-05-02T13:17:55.398Z</time></trkpt><trkpt lat="46.52632" lon="12.1207117"><ele>1404.0</ele><time>2026-05-02T13:17:56.398Z</time></trkpt><trkpt lat="46.5264817" lon="12.120705"><ele>1406.3333333333333</ele><time>2026-05-02T13:17:57.398Z</time></trkpt><trkpt lat="46.5266683" lon="12.1206517"><ele>1408.6666666666665</ele><time>2026-05-02T13:17:58.398Z</time></trkpt><trkpt lat="46.5268267" lon="12.120635"><ele>1411.0</ele><time>2026-05-02T13:17:59.398Z</time></trkpt><trkpt lat="46.526985" lon="12.1206617"><ele>1401.6666666666665</ele><time>2026-05-02T13:18:00.398Z</time></trkpt><trkpt lat="46.5271583" lon="12.1207417"><ele>1392.3333333333333</ele><time>2026-05-02T13:18:01.398Z</time></trkpt><trkpt lat="46.5273317" lon="12.1208717"><ele>1383.0</ele><time>2026-05-02T13:18:02.398Z</time></trkpt><trkpt lat="46.5275083" lon="12.1210333"><ele>1383.0</ele><time>2026-05-02T13:18:03.398Z</time></trkpt><trkpt lat="46.52767" lon="12.121205"><ele>1383.0</ele><time>2026-05-02T13:18:04.398Z</time></trkpt><trkpt lat="46.52783" lon="12.1213583"><ele>1383.0</ele><time>2026-05-02T13:18:05.397Z</time></trkpt><trkpt lat="46.5279833" lon="12.1214783"><ele>1382.0</ele><time>2026-05-02T13:18:06.398Z</time></trkpt><trkpt lat="46.528135" lon="12.1215733"><ele>1381.0</ele><time>2026-05-02T13:18:07.398Z</time></trkpt><trkpt lat="46.5282833" lon="12.1216183"><ele>1380.0</ele><time>2026-05-02T13:18:08.398Z</time></trkpt><trkpt lat="46.5284683" lon="12.1215183"><ele>1380.0</ele><time>2026-05-02T13:18:09.398Z</time></trkpt><trkpt lat="46.5286633" lon="12.1213833"><ele>1380.0</ele><time>2026-05-02T13:18:10.398Z</time></trkpt><trkpt lat="46.5288517" lon="12.1212767"><ele>1380.0</ele><time>2026-05-02T13:18:11.397Z</time></trkpt><trkpt lat="46.52904" lon="12.1212167"><ele>1374.6666666666667</ele><time>2026-05-02T13:18:12.397Z</time></trkpt><trkpt lat="46.52922" lon="12.1211717"><ele>1369.3333333333335</ele><time>2026-05-02T13:18:13.398Z</time></trkpt><trkpt lat="46.52938" lon="12.12112"><ele>1364.0</ele><time>2026-05-02T13:18:14.398Z</time></trkpt><trkpt lat="46.529545" lon="12.1211017"><ele>1361.3333333333335</ele><time>2026-05-02T13:18:15.398Z</time></trkpt><trkpt lat="46.5297033" lon="12.1211117"><ele>1358.6666666666667</ele><time>2026-05-02T13:18:16.398Z</time></trkpt><trkpt lat="46.5298617" lon="12.1211233"><ele>1356.0</ele><time>2026-05-02T13:18:17.398Z</time></trkpt><trkpt lat="46.5300183" lon="12.1211483"><ele>1356.0</ele><time>2026-05-02T13:18:18.398Z</time></trkpt><trkpt lat="46.5301733" lon="12.12117"><ele>1356.0</ele><time>2026-05-02T13:18:19.398Z</time></trkpt><trkpt lat="46.5303217" lon="12.1211867"><ele>1356.0</ele><time>2026-05-02T13:18:20.398Z</time></trkpt><trkpt lat="46.5304733" lon="12.121195"><ele>1354.25</ele><time>2026-05-02T13:18:21.398Z</time></trkpt><trkpt lat="46.530615" lon="12.1212117"><ele>1352.5</ele><time>2026-05-02T13:18:22.398Z</time></trkpt><trkpt lat="46.5307517" lon="12.1212217"><ele>1350.75</ele><time>2026-05-02T13:18:23.398Z</time></trkpt><trkpt lat="46.5308883" lon="12.1212283"><ele>1349.0</ele><time>2026-05-02T13:18:24.398Z</time></trkpt><trkpt lat="46.5310183" lon="12.1212467"><ele>1349.0</ele><time>2026-05-02T13:18:25.398Z</time></trkpt><trkpt lat="46.5311483" lon="12.1212583"><ele>1349.0</ele><time>2026-05-02T13:18:26.398Z</time></trkpt><trkpt lat="46.5312883" lon="12.1212633"><ele>1349.0</ele><time>2026-05-02T13:18:27.398Z</time></trkpt><trkpt lat="46.5314133" lon="12.1212667"><ele>1349.0</ele><time>2026-05-02T13:18:28.398Z</time></trkpt><trkpt lat="46.5315417" lon="12.1212617"><ele>1347.75</ele><time>2026-05-02T13:18:29.398Z</time></trkpt><trkpt lat="46.5316683" lon="12.1212467"><ele>1346.5</ele><time>2026-05-02T13:18:30.398Z</time></trkpt><trkpt lat="46.5317867" lon="12.1212067"><ele>1345.25</ele><time>2026-05-02T13:18:31.398Z</time></trkpt><trkpt lat="46.531895" lon="12.1211467"><ele>1344.0</ele><time>2026-05-02T13:18:32.397Z</time></trkpt><trkpt lat="46.5320017" lon="12.1210883"><ele>1342.4</ele><time>2026-05-02T13:18:33.398Z</time></trkpt><trkpt lat="46.5320967" lon="12.1210233"><ele>1340.8000000000002</ele><time>2026-05-02T13:18:34.397Z</time></trkpt><trkpt lat="46.5321983" lon="12.1209883"><ele>1339.1999999999998</ele><time>2026-05-02T13:18:35.397Z</time></trkpt><trkpt lat="46.5323083" lon="12.1209733"><ele>1337.6</ele><time>2026-05-02T13:18:36.398Z</time></trkpt><trkpt lat="46.5324167" lon="12.120995"><ele>1336.0</ele><time>2026-05-02T13:18:37.398Z</time></trkpt><trkpt lat="46.5325217" lon="12.1210217"><ele>1336.0</ele><time>2026-05-02T13:18:38.398Z</time></trkpt><trkpt lat="46.53261" lon="12.121085"><ele>1336.0</ele><time>2026-05-02T13:18:39.398Z</time></trkpt><trkpt lat="46.5326883" lon="12.1211833"><ele>1336.0</ele><time>2026-05-02T13:18:40.398Z</time></trkpt><trkpt lat="46.5327583" lon="12.1213167"><ele>1336.0</ele><time>2026-05-02T13:18:41.398Z</time></trkpt><trkpt lat="46.5328267" lon="12.1214717"><ele>1336.0</ele><time>2026-05-02T13:18:42.398Z</time></trkpt><trkpt lat="46.5329117" lon="12.12161"><ele>1333.0</ele><time>2026-05-02T13:18:43.398Z</time></trkpt><trkpt lat="46.533015" lon="12.1217467"><ele>1330.0</ele><time>2026-05-02T13:18:44.398Z</time></trkpt><trkpt lat="46.5331317" lon="12.1218467"><ele>1327.0</ele><time>2026-05-02T13:18:45.398Z</time></trkpt><trkpt lat="46.5332583" lon="12.1218967"><ele>1324.0</ele><time>2026-05-02T13:18:46.398Z</time></trkpt><trkpt lat="46.5333733" lon="12.1219567"><ele>1324.0</ele><time>2026-05-02T13:18:47.398Z</time></trkpt><trkpt lat="46.5334617" lon="12.1220067"><ele>1324.0</ele><time>2026-05-02T13:18:48.397Z</time></trkpt><trkpt lat="46.5335367" lon="12.1220767"><ele>1324.0</ele><time>2026-05-02T13:18:49.398Z</time></trkpt><trkpt lat="46.5336017" lon="12.12217"><ele>1324.0</ele><time>2026-05-02T13:18:50.398Z</time></trkpt><trkpt lat="46.533645" lon="12.1223067"><ele>1324.0</ele><time>2026-05-02T13:18:51.398Z</time></trkpt><trkpt lat="46.5336933" lon="12.1224517"><ele>1323.4</ele><time>2026-05-02T13:18:52.398Z</time></trkpt><trkpt lat="46.5337433" lon="12.1225817"><ele>1322.8000000000002</ele><time>2026-05-02T13:18:53.398Z</time></trkpt><trkpt lat="46.533805" lon="12.1226983"><ele>1322.1999999999998</ele><time>2026-05-02T13:18:54.398Z</time></trkpt><trkpt lat="46.5338867" lon="12.1228033"><ele>1321.6</ele><time>2026-05-02T13:18:55.398Z</time></trkpt><trkpt lat="46.5339683" lon="12.1229"><ele>1321.0</ele><time>2026-05-02T13:18:56.398Z</time></trkpt><trkpt lat="46.534055" lon="12.1229817"><ele>1321.0</ele><time>2026-05-02T13:18:57.397Z</time></trkpt><trkpt lat="46.5341483" lon="12.12305"><ele>1321.0</ele><time>2026-05-02T13:18:58.398Z</time></trkpt><trkpt lat="46.5342417" lon="12.1231217"><ele>1321.0</ele><time>2026-05-02T13:18:59.398Z</time></trkpt><trkpt lat="46.5343367" lon="12.1231783"><ele>1321.0</ele><time>2026-05-02T13:19:00.398Z</time></trkpt><trkpt lat="46.534435" lon="12.1232317"><ele>1321.0</ele><time>2026-05-02T13:19:01.398Z</time></trkpt><trkpt lat="46.53454" lon="12.1232883"><ele>1320.0</ele><time>2026-05-02T13:19:02.398Z</time></trkpt><trkpt lat="46.5346417" lon="12.1233317"><ele>1319.0</ele><time>2026-05-02T13:19:03.398Z</time></trkpt><trkpt lat="46.5347417" lon="12.123375"><ele>1318.0</ele><time>2026-05-02T13:19:04.397Z</time></trkpt><trkpt lat="46.53485" lon="12.12342"><ele>1317.0</ele><time>2026-05-02T13:19:05.398Z</time></trkpt><trkpt lat="46.5349517" lon="12.1234733"><ele>1316.0</ele><time>2026-05-02T13:19:06.397Z</time></trkpt><trkpt lat="46.53505" lon="12.1235183"><ele>1316.0</ele><time>2026-05-02T13:19:07.398Z</time></trkpt><trkpt lat="46.5351417" lon="12.12357"><ele>1316.0</ele><time>2026-05-02T13:19:08.397Z</time></trkpt><trkpt lat="46.5352317" lon="12.12364"><ele>1316.0</ele><time>2026-05-02T13:19:09.398Z</time></trkpt><trkpt lat="46.5353" lon="12.1237267"><ele>1316.0</ele><time>2026-05-02T13:19:10.398Z</time></trkpt><trkpt lat="46.5353767" lon="12.1238"><ele>1316.0</ele><time>2026-05-02T13:19:11.398Z</time></trkpt><trkpt lat="46.535455" lon="12.123865"><ele>1315.4</ele><time>2026-05-02T13:19:12.398Z</time></trkpt><trkpt lat="46.5355417" lon="12.1239267"><ele>1314.8</ele><time>2026-05-02T13:19:13.398Z</time></trkpt><trkpt lat="46.53563" lon="12.123985"><ele>1314.2</ele><time>2026-05-02T13:19:14.398Z</time></trkpt><trkpt lat="46.535725" lon="12.124035"><ele>1313.6000000000001</ele><time>2026-05-02T13:19:15.398Z</time></trkpt><trkpt lat="46.5358133" lon="12.1240883"><ele>1313.0</ele><time>2026-05-02T13:19:16.397Z</time></trkpt><trkpt lat="46.5359067" lon="12.1241233"><ele>1311.4</ele><time>2026-05-02T13:19:17.398Z</time></trkpt><trkpt lat="46.535995" lon="12.1241583"><ele>1309.8000000000002</ele><time>2026-05-02T13:19:18.398Z</time></trkpt><trkpt lat="46.5360917" lon="12.12419"><ele>1308.2</ele><time>2026-05-02T13:19:19.398Z</time></trkpt><trkpt lat="46.5361883" lon="12.1242083"><ele>1306.6</ele><time>2026-05-02T13:19:20.398Z</time></trkpt><trkpt lat="46.53628" lon="12.1242133"><ele>1305.0</ele><time>2026-05-02T13:19:21.398Z</time></trkpt><trkpt lat="46.5363717" lon="12.1242217"><ele>1305.0</ele><time>2026-05-02T13:19:22.398Z</time></trkpt><trkpt lat="46.53644" lon="12.1242317"><ele>1305.0</ele><time>2026-05-02T13:19:23.398Z</time></trkpt><trkpt lat="46.5365167" lon="12.1242617"><ele>1305.0</ele><time>2026-05-02T13:19:24.398Z</time></trkpt><trkpt lat="46.53659" lon="12.1243117"><ele>1305.0</ele><time>2026-05-02T13:19:25.398Z</time></trkpt><trkpt lat="46.5366667" lon="12.1243717"><ele>1305.0</ele><time>2026-05-02T13:19:26.397Z</time></trkpt><trkpt lat="46.5367433" lon="12.1244567"><ele>1305.0</ele><time>2026-05-02T13:19:27.398Z</time></trkpt><trkpt lat="46.5368217" lon="12.1245383"><ele>1305.0</ele><time>2026-05-02T13:19:28.398Z</time></trkpt><trkpt lat="46.5369033" lon="12.1246283"><ele>1305.0</ele><time>2026-05-02T13:19:29.398Z</time></trkpt><trkpt lat="46.5369817" lon="12.1247117"><ele>1305.0</ele><time>2026-05-02T13:19:30.398Z</time></trkpt><trkpt lat="46.5370583" lon="12.1248017"><ele>1305.0</ele><time>2026-05-02T13:19:31.398Z</time></trkpt><trkpt lat="46.537135" lon="12.1248817"><ele>1305.0</ele><time>2026-05-02T13:19:32.397Z</time></trkpt><trkpt lat="46.5372183" lon="12.1249517"><ele>1303.2</ele><time>2026-05-02T13:19:33.398Z</time></trkpt><trkpt lat="46.5373117" lon="12.1249967"><ele>1301.4</ele><time>2026-05-02T13:19:34.398Z</time></trkpt><trkpt lat="46.5374017" lon="12.12502"><ele>1299.6</ele><time>2026-05-02T13:19:35.398Z</time></trkpt><trkpt lat="46.5374967" lon="12.12501"><ele>1297.8</ele><time>2026-05-02T13:19:36.398Z</time></trkpt><trkpt lat="46.5375867" lon="12.1249767"><ele>1296.0</ele><time>2026-05-02T13:19:37.397Z</time></trkpt><trkpt lat="46.5376783" lon="12.124915"><ele>1295.0</ele><time>2026-05-02T13:19:38.398Z</time></trkpt><trkpt lat="46.53778" lon="12.1248383"><ele>1294.0</ele><time>2026-05-02T13:19:39.398Z</time></trkpt><trkpt lat="46.5378717" lon="12.124745"><ele>1293.0</ele><time>2026-05-02T13:19:40.398Z</time></trkpt><trkpt lat="46.53796" lon="12.1246517"><ele>1292.0</ele><time>2026-05-02T13:19:41.398Z</time></trkpt><trkpt lat="46.5380517" lon="12.1245767"><ele>1291.0</ele><time>2026-05-02T13:19:42.397Z</time></trkpt><trkpt lat="46.5381433" lon="12.1244867"><ele>1291.0</ele><time>2026-05-02T13:19:43.398Z</time></trkpt><trkpt lat="46.53823" lon="12.1243983"><ele>1291.0</ele><time>2026-05-02T13:19:44.398Z</time></trkpt><trkpt lat="46.5383183" lon="12.124305"><ele>1291.0</ele><time>2026-05-02T13:19:45.397Z</time></trkpt><trkpt lat="46.5384017" lon="12.1242133"><ele>1291.0</ele><time>2026-05-02T13:19:46.397Z</time></trkpt><trkpt lat="46.5384917" lon="12.1241283"><ele>1291.0</ele><time>2026-05-02T13:19:47.398Z</time></trkpt><trkpt lat="46.53859" lon="12.1240367"><ele>1292.4</ele><time>2026-05-02T13:19:48.397Z</time></trkpt><trkpt lat="46.5386867" lon="12.1239583"><ele>1293.8</ele><time>2026-05-02T13:19:49.398Z</time></trkpt><trkpt lat="46.53879" lon="12.12389"><ele>1295.2</ele><time>2026-05-02T13:19:50.398Z</time></trkpt><trkpt lat="46.5388967" lon="12.12384"><ele>1296.6000000000001</ele><time>2026-05-02T13:19:51.398Z</time></trkpt><trkpt lat="46.5390083" lon="12.1238367"><ele>1298.0</ele><time>2026-05-02T13:19:52.398Z</time></trkpt><trkpt lat="46.53912" lon="12.123865"><ele>1298.0</ele><time>2026-05-02T13:19:53.398Z</time></trkpt><trkpt lat="46.5392233" lon="12.1239083"><ele>1298.0</ele><time>2026-05-02T13:19:54.398Z</time></trkpt><trkpt lat="46.539315" lon="12.12397"><ele>1298.0</ele><time>2026-05-02T13:19:55.398Z</time></trkpt><trkpt lat="46.5394167" lon="12.12403"><ele>1298.0</ele><time>2026-05-02T13:19:56.398Z</time></trkpt><trkpt lat="46.5395217" lon="12.1240933"><ele>1298.0</ele><time>2026-05-02T13:19:57.398Z</time></trkpt><trkpt lat="46.5396183" lon="12.12416"><ele>1294.2</ele><time>2026-05-02T13:19:58.398Z</time></trkpt><trkpt lat="46.5397167" lon="12.1242267"><ele>1290.4</ele><time>2026-05-02T13:19:59.397Z</time></trkpt><trkpt lat="46.539815" lon="12.1242933"><ele>1286.6000000000001</ele><time>2026-05-02T13:20:00.398Z</time></trkpt><trkpt lat="46.5399167" lon="12.1243567"><ele>1282.8000000000002</ele><time>2026-05-02T13:20:01.398Z</time></trkpt><trkpt lat="46.540025" lon="12.1244233"><ele>1279.0</ele><time>2026-05-02T13:20:02.398Z</time></trkpt><trkpt lat="46.54013" lon="12.1244717"><ele>1279.0</ele><time>2026-05-02T13:20:03.398Z</time></trkpt><trkpt lat="46.540245" lon="12.1245117"><ele>1279.0</ele><time>2026-05-02T13:20:04.398Z</time></trkpt><trkpt lat="46.54038" lon="12.1245433"><ele>1279.0</ele><time>2026-05-02T13:20:05.397Z</time></trkpt><trkpt lat="46.5405367" lon="12.1245833"><ele>1279.0</ele><time>2026-05-02T13:20:06.398Z</time></trkpt><trkpt lat="46.54071" lon="12.1246233"><ele>1276.3333333333333</ele><time>2026-05-02T13:20:07.398Z</time></trkpt><trkpt lat="46.5408767" lon="12.1246767"><ele>1273.6666666666667</ele><time>2026-05-02T13:20:08.398Z</time></trkpt><trkpt lat="46.5410333" lon="12.1247283"><ele>1271.0</ele><time>2026-05-02T13:20:09.398Z</time></trkpt><trkpt lat="46.5411833" lon="12.1247667"><ele>1271.25</ele><time>2026-05-02T13:20:10.397Z</time></trkpt><trkpt lat="46.54133" lon="12.12481"><ele>1271.5</ele><time>2026-05-02T13:20:11.398Z</time></trkpt><trkpt lat="46.54147" lon="12.1248517"><ele>1271.75</ele><time>2026-05-02T13:20:12.397Z</time></trkpt><trkpt lat="46.5416" lon="12.1248767"><ele>1272.0</ele><time>2026-05-02T13:20:13.398Z</time></trkpt><trkpt lat="46.5417333" lon="12.1248667"><ele>1272.0</ele><time>2026-05-02T13:20:14.398Z</time></trkpt><trkpt lat="46.541855" lon="12.1248333"><ele>1272.0</ele><time>2026-05-02T13:20:15.398Z</time></trkpt><trkpt lat="46.54196" lon="12.1247833"><ele>1272.0</ele><time>2026-05-02T13:20:16.398Z</time></trkpt><trkpt lat="46.5420517" lon="12.124725"><ele>1272.0</ele><time>2026-05-02T13:20:17.398Z</time></trkpt><trkpt lat="46.5421433" lon="12.1246733"><ele>1272.0</ele><time>2026-05-02T13:20:18.398Z</time></trkpt><trkpt lat="46.5422217" lon="12.1246367"><ele>1272.6666666666667</ele><time>2026-05-02T13:20:19.397Z</time></trkpt><trkpt lat="46.54229" lon="12.124625"><ele>1273.3333333333333</ele><time>2026-05-02T13:20:20.398Z</time></trkpt><trkpt lat="46.54237" lon="12.1246433"><ele>1274.0</ele><time>2026-05-02T13:20:21.397Z</time></trkpt><trkpt lat="46.5424433" lon="12.124705"><ele>1274.6666666666665</ele><time>2026-05-02T13:20:22.397Z</time></trkpt><trkpt lat="46.5425" lon="12.12481"><ele>1275.3333333333333</ele><time>2026-05-02T13:20:23.398Z</time></trkpt><trkpt lat="46.5425367" lon="12.1249367"><ele>1276.0</ele><time>2026-05-02T13:20:24.397Z</time></trkpt><trkpt lat="46.542565" lon="12.1250983"><ele>1272.25</ele><time>2026-05-02T13:20:25.398Z</time></trkpt><trkpt lat="46.5425933" lon="12.1252667"><ele>1268.5</ele><time>2026-05-02T13:20:26.398Z</time></trkpt><trkpt lat="46.542625" lon="12.1254283"><ele>1264.75</ele><time>2026-05-02T13:20:27.398Z</time></trkpt><trkpt lat="46.5426583" lon="12.1255883"><ele>1261.0</ele><time>2026-05-02T13:20:28.398Z</time></trkpt><trkpt lat="46.5427" lon="12.125735"><ele>1261.2</ele><time>2026-05-02T13:20:29.398Z</time></trkpt><trkpt lat="46.5427483" lon="12.1258783"><ele>1261.3999999999999</ele><time>2026-05-02T13:20:30.398Z</time></trkpt><trkpt lat="46.5428017" lon="12.126015"><ele>1261.6</ele><time>2026-05-02T13:20:31.397Z</time></trkpt><trkpt lat="46.54287" lon="12.126145"><ele>1261.8</ele><time>2026-05-02T13:20:32.397Z</time></trkpt><trkpt lat="46.542955" lon="12.1262617"><ele>1262.0</ele><time>2026-05-02T13:20:33.398Z</time></trkpt><trkpt lat="46.543035" lon="12.1263633"><ele>1262.0</ele><time>2026-05-02T13:20:34.398Z</time></trkpt><trkpt lat="46.54311" lon="12.1264567"><ele>1262.0</ele><time>2026-05-02T13:20:35.398Z</time></trkpt><trkpt lat="46.54317" lon="12.1265383"><ele>1262.0</ele><time>2026-05-02T13:20:36.398Z</time></trkpt><trkpt lat="46.5432317" lon="12.12662"><ele>1262.0</ele><time>2026-05-02T13:20:37.398Z</time></trkpt><trkpt lat="46.54329" lon="12.1267117"><ele>1262.0</ele><time>2026-05-02T13:20:38.398Z</time></trkpt><trkpt lat="46.5433417" lon="12.1268133"><ele>1262.0</ele><time>2026-05-02T13:20:39.398Z</time></trkpt><trkpt lat="46.5433783" lon="12.1269133"><ele>1259.5</ele><time>2026-05-02T13:20:40.398Z</time></trkpt><trkpt lat="46.543405" lon="12.1270367"><ele>1257.0</ele><time>2026-05-02T13:20:41.397Z</time></trkpt><trkpt lat="46.5434283" lon="12.1271583"><ele>1254.5</ele><time>2026-05-02T13:20:42.398Z</time></trkpt><trkpt lat="46.5434517" lon="12.1272833"><ele>1252.0</ele><time>2026-05-02T13:20:43.398Z</time></trkpt><trkpt lat="46.543475" lon="12.1274"><ele>1249.5</ele><time>2026-05-02T13:20:44.398Z</time></trkpt><trkpt lat="46.54351" lon="12.127505"><ele>1247.0</ele><time>2026-05-02T13:20:45.398Z</time></trkpt><trkpt lat="46.5435433" lon="12.1276133"><ele>1246.1666666666667</ele><time>2026-05-02T13:20:46.398Z</time></trkpt><trkpt lat="46.543585" lon="12.1276883"><ele>1245.3333333333335</ele><time>2026-05-02T13:20:47.398Z</time></trkpt><trkpt lat="46.54366" lon="12.1277583"><ele>1244.5</ele><time>2026-05-02T13:20:49.398Z</time></trkpt><trkpt lat="46.543725" lon="12.1277833"><ele>1243.6666666666667</ele><time>2026-05-02T13:20:51.398Z</time></trkpt><trkpt lat="46.5438067" lon="12.1277833"><ele>1242.8333333333333</ele><time>2026-05-02T13:20:53.398Z</time></trkpt><trkpt lat="46.5438917" lon="12.1277567"><ele>1242.0</ele><time>2026-05-02T13:20:55.398Z</time></trkpt><trkpt lat="46.5439817" lon="12.1277083"><ele>1242.0</ele><time>2026-05-02T13:20:57.398Z</time></trkpt><trkpt lat="46.5440417" lon="12.1276567"><ele>1242.0</ele><time>2026-05-02T13:20:59.398Z</time></trkpt><trkpt lat="46.5441083" lon="12.1275967"><ele>1242.0</ele><time>2026-05-02T13:21:01.398Z</time></trkpt><trkpt lat="46.5441767" lon="12.1275483"><ele>1242.0</ele><time>2026-05-02T13:21:03.397Z</time></trkpt><trkpt lat="46.5442667" lon="12.1274817"><ele>1242.0</ele><time>2026-05-02T13:21:05.398Z</time></trkpt><trkpt lat="46.544355" lon="12.127435"><ele>1242.0</ele><time>2026-05-02T13:21:07.398Z</time></trkpt><trkpt lat="46.5444467" lon="12.1274983"><ele>1242.0</ele><time>2026-05-02T13:21:09.398Z</time></trkpt><trkpt lat="46.5444483" lon="12.1276683"><ele>1242.0</ele><time>2026-05-02T13:21:11.398Z</time></trkpt><trkpt lat="46.5443467" lon="12.1277683"><ele>1242.0</ele><time>2026-05-02T13:21:13.398Z</time></trkpt><trkpt lat="46.54427" lon="12.1277783"><ele>1242.0</ele><time>2026-05-02T13:21:14.397Z</time></trkpt><trkpt lat="46.544195" lon="12.1277833"><ele>1242.0</ele><time>2026-05-02T13:21:15.398Z</time></trkpt><trkpt lat="46.5441233" lon="12.1278033"><ele>1241.9999999999998</ele><time>2026-05-02T13:21:16.397Z</time></trkpt><trkpt lat="46.5440583" lon="12.1278417"><ele>1242.0</ele><time>2026-05-02T13:21:17.398Z</time></trkpt><trkpt lat="46.5439967" lon="12.1279"><ele>1242.0</ele><time>2026-05-02T13:21:18.398Z</time></trkpt><trkpt lat="46.5439367" lon="12.127955"><ele>1242.0</ele><time>2026-05-02T13:21:19.398Z</time></trkpt><trkpt lat="46.543885" lon="12.1280167"><ele>1242.0</ele><time>2026-05-02T13:21:20.397Z</time></trkpt><trkpt lat="46.5438433" lon="12.12809"><ele>1241.9999999999998</ele><time>2026-05-02T13:21:21.397Z</time></trkpt><trkpt lat="46.5437983" lon="12.1281617"><ele>1242.0</ele><time>2026-05-02T13:21:22.398Z</time></trkpt><trkpt lat="46.543745" lon="12.1282283"><ele>1239.5</ele><time>2026-05-02T13:21:23.398Z</time></trkpt><trkpt lat="46.5436833" lon="12.1282917"><ele>1237.0</ele><time>2026-05-02T13:21:24.398Z</time></trkpt><trkpt lat="46.543615" lon="12.128345"><ele>1234.5</ele><time>2026-05-02T13:21:25.397Z</time></trkpt><trkpt lat="46.54353" lon="12.1283833"><ele>1232.0</ele><time>2026-05-02T13:21:26.398Z</time></trkpt><trkpt lat="46.543435" lon="12.1284167"><ele>1229.5</ele><time>2026-05-02T13:21:27.397Z</time></trkpt><trkpt lat="46.54334" lon="12.1284367"><ele>1227.0</ele><time>2026-05-02T13:21:28.398Z</time></trkpt><trkpt lat="46.5432433" lon="12.1284417"><ele>1227.0</ele><time>2026-05-02T13:21:29.398Z</time></trkpt><trkpt lat="46.5431583" lon="12.1284533"><ele>1227.0</ele><time>2026-05-02T13:21:30.397Z</time></trkpt><trkpt lat="46.54307" lon="12.1284717"><ele>1227.0</ele><time>2026-05-02T13:21:31.398Z</time></trkpt><trkpt lat="46.542975" lon="12.1285217"><ele>1227.0</ele><time>2026-05-02T13:21:32.398Z</time></trkpt><trkpt lat="46.54289" lon="12.1285867"><ele>1227.0</ele><time>2026-05-02T13:21:33.398Z</time></trkpt><trkpt lat="46.542805" lon="12.1286533"><ele>1226.0</ele><time>2026-05-02T13:21:34.398Z</time></trkpt><trkpt lat="46.5427217" lon="12.12871"><ele>1225.0</ele><time>2026-05-02T13:21:35.398Z</time></trkpt><trkpt lat="46.54264" lon="12.128775"><ele>1224.0</ele><time>2026-05-02T13:21:36.398Z</time></trkpt><trkpt lat="46.5425567" lon="12.1288383"><ele>1223.0</ele><time>2026-05-02T13:21:37.398Z</time></trkpt><trkpt lat="46.5424717" lon="12.1288933"><ele>1222.0</ele><time>2026-05-02T13:21:38.398Z</time></trkpt><trkpt lat="46.542385" lon="12.1289417"><ele>1222.0</ele><time>2026-05-02T13:21:39.398Z</time></trkpt><trkpt lat="46.542295" lon="12.1289833"><ele>1222.0</ele><time>2026-05-02T13:21:40.398Z</time></trkpt><trkpt lat="46.542205" lon="12.12902"><ele>1222.0</ele><time>2026-05-02T13:21:41.398Z</time></trkpt><trkpt lat="46.5421083" lon="12.1290467"><ele>1222.0</ele><time>2026-05-02T13:21:42.398Z</time></trkpt><trkpt lat="46.5420017" lon="12.1290617"><ele>1222.0</ele><time>2026-05-02T13:21:43.397Z</time></trkpt><trkpt lat="46.541895" lon="12.129075"><ele>1220.2</ele><time>2026-05-02T13:21:44.398Z</time></trkpt><trkpt lat="46.54179" lon="12.1290917"><ele>1218.4</ele><time>2026-05-02T13:21:45.398Z</time></trkpt><trkpt lat="46.5416883" lon="12.1291133"><ele>1216.6</ele><time>2026-05-02T13:21:46.398Z</time></trkpt><trkpt lat="46.5415883" lon="12.1291333"><ele>1214.8</ele><time>2026-05-02T13:21:47.398Z</time></trkpt><trkpt lat="46.5414933" lon="12.129155"><ele>1213.0</ele><time>2026-05-02T13:21:48.398Z</time></trkpt><trkpt lat="46.5413983" lon="12.1291683"><ele>1213.0</ele><time>2026-05-02T13:21:49.397Z</time></trkpt><trkpt lat="46.54131" lon="12.129175"><ele>1213.0</ele><time>2026-05-02T13:21:50.398Z</time></trkpt><trkpt lat="46.5412267" lon="12.1291933"><ele>1213.0</ele><time>2026-05-02T13:21:51.397Z</time></trkpt><trkpt lat="46.5411417" lon="12.12923"><ele>1213.0</ele><time>2026-05-02T13:21:52.397Z</time></trkpt><trkpt lat="46.5410533" lon="12.129275"><ele>1213.0</ele><time>2026-05-02T13:21:53.398Z</time></trkpt><trkpt lat="46.540975" lon="12.1293233"><ele>1213.0</ele><time>2026-05-02T13:21:54.398Z</time></trkpt><trkpt lat="46.540895" lon="12.12937"><ele>1213.5</ele><time>2026-05-02T13:21:55.398Z</time></trkpt><trkpt lat="46.5408183" lon="12.1294183"><ele>1214.0</ele><time>2026-05-02T13:21:56.398Z</time></trkpt><trkpt lat="46.5407367" lon="12.1294617"><ele>1214.5</ele><time>2026-05-02T13:21:57.398Z</time></trkpt><trkpt lat="46.5406533" lon="12.1295017"><ele>1215.0</ele><time>2026-05-02T13:21:58.397Z</time></trkpt><trkpt lat="46.5405617" lon="12.1295417"><ele>1215.5</ele><time>2026-05-02T13:21:59.398Z</time></trkpt><trkpt lat="46.540485" lon="12.129585"><ele>1216.0</ele><time>2026-05-02T13:22:00.397Z</time></trkpt><trkpt lat="46.5404167" lon="12.12962"><ele>1215.8333333333333</ele><time>2026-05-02T13:22:01.398Z</time></trkpt><trkpt lat="46.5403267" lon="12.1296817"><ele>1215.6666666666665</ele><time>2026-05-02T13:22:03.398Z</time></trkpt><trkpt lat="46.5402467" lon="12.1297433"><ele>1215.5</ele><time>2026-05-02T13:22:06.398Z</time></trkpt><trkpt lat="46.540175" lon="12.129815"><ele>1215.3333333333333</ele><time>2026-05-02T13:22:09.398Z</time></trkpt><trkpt lat="46.5401233" lon="12.1298733"><ele>1215.1666666666667</ele><time>2026-05-02T13:22:11.398Z</time></trkpt><trkpt lat="46.54006" lon="12.129945"><ele>1215.0</ele><time>2026-05-02T13:22:14.397Z</time></trkpt><trkpt lat="46.5400033" lon="12.13"><ele>1213.6666666666667</ele><time>2026-05-02T13:22:17.397Z</time></trkpt><trkpt lat="46.5399533" lon="12.1300717"><ele>1212.3333333333333</ele><time>2026-05-02T13:22:22.398Z</time></trkpt><trkpt lat="46.5399083" lon="12.1301367"><ele>1211.0</ele><time>2026-05-02T13:22:26.398Z</time></trkpt><trkpt lat="46.5398433" lon="12.1302383"><ele>1209.6666666666665</ele><time>2026-05-02T13:22:29.398Z</time></trkpt><trkpt lat="46.5397817" lon="12.1302933"><ele>1208.3333333333333</ele><time>2026-05-02T13:22:31.397Z</time></trkpt><trkpt lat="46.53971" lon="12.1303817"><ele>1207.0</ele><time>2026-05-02T13:22:34.397Z</time></trkpt><trkpt lat="46.5396483" lon="12.13045"><ele>1207.0</ele><time>2026-05-02T13:22:36.398Z</time></trkpt><trkpt lat="46.5395683" lon="12.1305283"><ele>1207.0</ele><time>2026-05-02T13:22:38.398Z</time></trkpt><trkpt lat="46.5394867" lon="12.1306433"><ele>1207.0</ele><time>2026-05-02T13:22:40.398Z</time></trkpt><trkpt lat="46.5394067" lon="12.130775"><ele>1207.0</ele><time>2026-05-02T13:22:42.397Z</time></trkpt><trkpt lat="46.5393483" lon="12.1309217"><ele>1207.0</ele><time>2026-05-02T13:22:44.397Z</time></trkpt><trkpt lat="46.5393233" lon="12.1310833"><ele>1207.5</ele><time>2026-05-02T13:22:46.398Z</time></trkpt><trkpt lat="46.5393367" lon="12.13124"><ele>1208.0</ele><time>2026-05-02T13:22:48.398Z</time></trkpt><trkpt lat="46.5394183" lon="12.131355"><ele>1208.5</ele><time>2026-05-02T13:22:50.398Z</time></trkpt><trkpt lat="46.5395083" lon="12.1314583"><ele>1209.0</ele><time>2026-05-02T13:22:52.397Z</time></trkpt><trkpt lat="46.5396017" lon="12.13156"><ele>1206.4</ele><time>2026-05-02T13:22:54.398Z</time></trkpt><trkpt lat="46.5396933" lon="12.13166"><ele>1203.8000000000002</ele><time>2026-05-02T13:22:56.398Z</time></trkpt><trkpt lat="46.5397667" lon="12.1317767"><ele>1201.1999999999998</ele><time>2026-05-02T13:22:58.398Z</time></trkpt><trkpt lat="46.5398033" lon="12.1319233"><ele>1198.6</ele><time>2026-05-02T13:23:00.397Z</time></trkpt><trkpt lat="46.5397933" lon="12.132095"><ele>1196.0</ele><time>2026-05-02T13:23:02.397Z</time></trkpt><trkpt lat="46.5397467" lon="12.1322483"><ele>1196.0</ele><time>2026-05-02T13:23:04.397Z</time></trkpt><trkpt lat="46.539725" lon="12.132345"><ele>1196.0</ele><time>2026-05-02T13:23:05.398Z</time></trkpt><trkpt lat="46.5396967" lon="12.1324433"><ele>1196.0</ele><time>2026-05-02T13:23:06.398Z</time></trkpt><trkpt lat="46.5396683" lon="12.1325417"><ele>1196.0</ele><time>2026-05-02T13:23:07.398Z</time></trkpt><trkpt lat="46.5396383" lon="12.1326317"><ele>1196.0</ele><time>2026-05-02T13:23:08.398Z</time></trkpt><trkpt lat="46.5396083" lon="12.1327233"><ele>1196.0</ele><time>2026-05-02T13:23:09.397Z</time></trkpt><trkpt lat="46.5395767" lon="12.1328133"><ele>1196.0</ele><time>2026-05-02T13:23:10.398Z</time></trkpt><trkpt lat="46.5395317" lon="12.1329583"><ele>1196.3999999999999</ele><time>2026-05-02T13:23:12.397Z</time></trkpt><trkpt lat="46.5394733" lon="12.13309"><ele>1196.8</ele><time>2026-05-02T13:23:14.398Z</time></trkpt><trkpt lat="46.5394" lon="12.1332"><ele>1197.1999999999998</ele><time>2026-05-02T13:23:16.398Z</time></trkpt><trkpt lat="46.5393633" lon="12.13329"><ele>1197.6</ele><time>2026-05-02T13:23:18.397Z</time></trkpt><trkpt lat="46.5393317" lon="12.133375"><ele>1198.0</ele><time>2026-05-02T13:23:20.398Z</time></trkpt><trkpt lat="46.539255" lon="12.1334717"><ele>1199.1666666666665</ele><time>2026-05-02T13:23:22.398Z</time></trkpt><trkpt lat="46.5391733" lon="12.1335883"><ele>1200.3333333333333</ele><time>2026-05-02T13:23:24.398Z</time></trkpt><trkpt lat="46.539125" lon="12.1336533"><ele>1201.5</ele><time>2026-05-02T13:23:25.397Z</time></trkpt><trkpt lat="46.5390667" lon="12.1337583"><ele>1202.6666666666667</ele><time>2026-05-02T13:23:27.397Z</time></trkpt><trkpt lat="46.539025" lon="12.1338367"><ele>1203.8333333333335</ele><time>2026-05-02T13:23:29.398Z</time></trkpt><trkpt lat="46.53896" lon="12.1339433"><ele>1205.0</ele><time>2026-05-02T13:23:31.398Z</time></trkpt><trkpt lat="46.5389117" lon="12.1340183"><ele>1205.0</ele><time>2026-05-02T13:23:32.398Z</time></trkpt><trkpt lat="46.5388617" lon="12.134095"><ele>1205.0</ele><time>2026-05-02T13:23:33.398Z</time></trkpt><trkpt lat="46.5388083" lon="12.1341867"><ele>1205.0</ele><time>2026-05-02T13:23:34.398Z</time></trkpt><trkpt lat="46.5387533" lon="12.1342783"><ele>1205.0</ele><time>2026-05-02T13:23:35.398Z</time></trkpt><trkpt lat="46.5387" lon="12.1343733"><ele>1205.0</ele><time>2026-05-02T13:23:36.398Z</time></trkpt><trkpt lat="46.5386433" lon="12.1344567"><ele>1205.0</ele><time>2026-05-02T13:23:37.398Z</time></trkpt><trkpt lat="46.5385833" lon="12.134525"><ele>1205.0</ele><time>2026-05-02T13:23:38.397Z</time></trkpt><trkpt lat="46.5385317" lon="12.13459"><ele>1205.0</ele><time>2026-05-02T13:23:39.397Z</time></trkpt><trkpt lat="46.5384467" lon="12.1346967"><ele>1205.0</ele><time>2026-05-02T13:23:41.398Z</time></trkpt><trkpt lat="46.5383983" lon="12.1347883"><ele>1205.0</ele><time>2026-05-02T13:23:43.397Z</time></trkpt><trkpt lat="46.5383567" lon="12.1348617"><ele>1205.0</ele><time>2026-05-02T13:23:45.397Z</time></trkpt><trkpt lat="46.5383083" lon="12.1349383"><ele>1205.0</ele><time>2026-05-02T13:23:48.397Z</time></trkpt><trkpt lat="46.538265" lon="12.1350317"><ele>1206.3333333333335</ele><time>2026-05-02T13:23:51.398Z</time></trkpt><trkpt lat="46.53821" lon="12.13512"><ele>1207.6666666666667</ele><time>2026-05-02T13:23:54.398Z</time></trkpt><trkpt lat="46.5381717" lon="12.1351933"><ele>1209.0</ele><time>2026-05-02T13:23:56.397Z</time></trkpt><trkpt lat="46.53812" lon="12.1352667"><ele>1210.3333333333333</ele><time>2026-05-02T13:23:59.397Z</time></trkpt><trkpt lat="46.5380783" lon="12.1353383"><ele>1211.6666666666665</ele><time>2026-05-02T13:24:02.398Z</time></trkpt><trkpt lat="46.5380633" lon="12.13545"><ele>1213.0</ele><time>2026-05-02T13:24:05.398Z</time></trkpt><trkpt lat="46.538015" lon="12.1355667"><ele>1213.0</ele><time>2026-05-02T13:24:08.398Z</time></trkpt><trkpt lat="46.5379567" lon="12.1356167"><ele>1213.0</ele><time>2026-05-02T13:24:10.398Z</time></trkpt><trkpt lat="46.5379017" lon="12.1356683"><ele>1213.0</ele><time>2026-05-02T13:24:12.398Z</time></trkpt><trkpt lat="46.5378333" lon="12.135745"><ele>1213.0</ele><time>2026-05-02T13:24:14.398Z</time></trkpt><trkpt lat="46.5377567" lon="12.1358517"><ele>1213.0</ele><time>2026-05-02T13:24:16.397Z</time></trkpt><trkpt lat="46.53768" lon="12.135955"><ele>1213.0</ele><time>2026-05-02T13:24:18.398Z</time></trkpt><trkpt lat="46.5375517" lon="12.1360517"><ele>1212.6666666666665</ele><time>2026-05-02T13:24:20.397Z</time></trkpt><trkpt lat="46.53747" lon="12.136095"><ele>1212.3333333333333</ele><time>2026-05-02T13:24:21.398Z</time></trkpt><trkpt lat="46.5373983" lon="12.1361483"><ele>1212.0</ele><time>2026-05-02T13:24:22.398Z</time></trkpt><trkpt lat="46.537325" lon="12.1362133"><ele>1211.6666666666667</ele><time>2026-05-02T13:24:23.398Z</time></trkpt><trkpt lat="46.5372567" lon="12.1362917"><ele>1211.3333333333335</ele><time>2026-05-02T13:24:24.398Z</time></trkpt><trkpt lat="46.537195" lon="12.136375"><ele>1211.0</ele><time>2026-05-02T13:24:25.398Z</time></trkpt><trkpt lat="46.5371583" lon="12.136465"><ele>1211.0</ele><time>2026-05-02T13:24:26.398Z</time></trkpt><trkpt lat="46.5371183" lon="12.1365467"><ele>1211.0</ele><time>2026-05-02T13:24:27.398Z</time></trkpt><trkpt lat="46.53708" lon="12.1366317"><ele>1211.0</ele><time>2026-05-02T13:24:28.398Z</time></trkpt><trkpt lat="46.5370417" lon="12.136705"><ele>1211.0</ele><time>2026-05-02T13:24:29.397Z</time></trkpt><trkpt lat="46.5369633" lon="12.136805"><ele>1211.0</ele><time>2026-05-02T13:24:31.397Z</time></trkpt><trkpt lat="46.53691" lon="12.1368883"><ele>1211.0</ele><time>2026-05-02T13:24:33.397Z</time></trkpt><trkpt lat="46.5368283" lon="12.1370017"><ele>1210.6</ele><time>2026-05-02T13:24:36.398Z</time></trkpt><trkpt lat="46.5367667" lon="12.1371117"><ele>1210.1999999999998</ele><time>2026-05-02T13:24:38.398Z</time></trkpt><trkpt lat="46.5367183" lon="12.1372183"><ele>1209.8000000000002</ele><time>2026-05-02T13:24:40.398Z</time></trkpt><trkpt lat="46.5366667" lon="12.13732"><ele>1209.4</ele><time>2026-05-02T13:24:42.398Z</time></trkpt><trkpt lat="46.5366067" lon="12.137425"><ele>1209.0</ele><time>2026-05-02T13:24:44.398Z</time></trkpt><trkpt lat="46.5365333" lon="12.13752"><ele>1209.0</ele><time>2026-05-02T13:24:46.398Z</time></trkpt><trkpt lat="46.5364917" lon="12.137665"><ele>1209.0</ele><time>2026-05-02T13:24:48.398Z</time></trkpt><trkpt lat="46.53646" lon="12.1378383"><ele>1209.0</ele><time>2026-05-02T13:24:50.398Z</time></trkpt><trkpt lat="46.5364317" lon="12.1379283"><ele>1209.0</ele><time>2026-05-02T13:24:51.397Z</time></trkpt><trkpt lat="46.5363967" lon="12.138015"><ele>1209.0</ele><time>2026-05-02T13:24:52.398Z</time></trkpt><trkpt lat="46.5363683" lon="12.1381183"><ele>1209.0</ele><time>2026-05-02T13:24:53.398Z</time></trkpt><trkpt lat="46.5363417" lon="12.13823"><ele>1208.8333333333333</ele><time>2026-05-02T13:24:54.398Z</time></trkpt><trkpt lat="46.536315" lon="12.1383467"><ele>1208.6666666666667</ele><time>2026-05-02T13:24:55.397Z</time></trkpt><trkpt lat="46.5362833" lon="12.1384667"><ele>1208.5</ele><time>2026-05-02T13:24:56.398Z</time></trkpt><trkpt lat="46.5362417" lon="12.13858"><ele>1208.3333333333335</ele><time>2026-05-02T13:24:57.398Z</time></trkpt><trkpt lat="46.5361933" lon="12.1386817"><ele>1208.1666666666667</ele><time>2026-05-02T13:24:58.398Z</time></trkpt><trkpt lat="46.5361383" lon="12.1387683"><ele>1208.0</ele><time>2026-05-02T13:24:59.398Z</time></trkpt><trkpt lat="46.53607" lon="12.13883"><ele>1206.0</ele><time>2026-05-02T13:25:00.398Z</time></trkpt><trkpt lat="46.5360083" lon="12.1388883"><ele>1204.0</ele><time>2026-05-02T13:25:01.398Z</time></trkpt><trkpt lat="46.5359517" lon="12.1389367"><ele>1202.0</ele><time>2026-05-02T13:25:02.397Z</time></trkpt><trkpt lat="46.5359017" lon="12.1389967"><ele>1200.0</ele><time>2026-05-02T13:25:04.397Z</time></trkpt><trkpt lat="46.5358567" lon="12.1390733"><ele>1198.0</ele><time>2026-05-02T13:25:09.398Z</time></trkpt><trkpt lat="46.53585" lon="12.1392317"><ele>1196.0</ele><time>2026-05-02T13:25:12.398Z</time></trkpt><trkpt lat="46.535855" lon="12.1393767"><ele>1196.0</ele><time>2026-05-02T13:25:14.398Z</time></trkpt><trkpt lat="46.535875" lon="12.1394717"><ele>1196.0</ele><time>2026-05-02T13:25:16.398Z</time></trkpt><trkpt lat="46.5358867" lon="12.1395967"><ele>1196.0</ele><time>2026-05-02T13:25:19.397Z</time></trkpt><trkpt lat="46.53592" lon="12.1397"><ele>1196.0</ele><time>2026-05-02T13:25:21.398Z</time></trkpt><trkpt lat="46.5359917" lon="12.1397833"><ele>1196.0</ele><time>2026-05-02T13:25:23.398Z</time></trkpt><trkpt lat="46.5360767" lon="12.139835"><ele>1196.0</ele><time>2026-05-02T13:25:25.398Z</time></trkpt><trkpt lat="46.5361583" lon="12.1399"><ele>1197.6</ele><time>2026-05-02T13:25:27.397Z</time></trkpt><trkpt lat="46.5362267" lon="12.139975"><ele>1199.1999999999998</ele><time>2026-05-02T13:25:29.398Z</time></trkpt><trkpt lat="46.5362933" lon="12.1400517"><ele>1200.8000000000002</ele><time>2026-05-02T13:25:31.398Z</time></trkpt><trkpt lat="46.5363667" lon="12.14011"><ele>1202.4</ele><time>2026-05-02T13:25:33.398Z</time></trkpt><trkpt lat="46.5364367" lon="12.1401983"><ele>1204.0</ele><time>2026-05-02T13:25:36.398Z</time></trkpt><trkpt lat="46.5364967" lon="12.1403383"><ele>1204.0</ele><time>2026-05-02T13:25:38.397Z</time></trkpt><trkpt lat="46.5365367" lon="12.1404317"><ele>1204.0</ele><time>2026-05-02T13:25:39.398Z</time></trkpt><trkpt lat="46.5365883" lon="12.1405133"><ele>1204.0</ele><time>2026-05-02T13:25:40.398Z</time></trkpt><trkpt lat="46.5366417" lon="12.1405867"><ele>1204.0</ele><time>2026-05-02T13:25:41.398Z</time></trkpt><trkpt lat="46.5366983" lon="12.1406467"><ele>1204.0</ele><time>2026-05-02T13:25:42.398Z</time></trkpt><trkpt lat="46.5367583" lon="12.1406867"><ele>1204.0</ele><time>2026-05-02T13:25:43.397Z</time></trkpt><trkpt lat="46.5368167" lon="12.1407283"><ele>1204.0</ele><time>2026-05-02T13:25:44.398Z</time></trkpt><trkpt lat="46.536875" lon="12.1407767"><ele>1204.2</ele><time>2026-05-02T13:25:45.398Z</time></trkpt><trkpt lat="46.5369383" lon="12.1408233"><ele>1204.4</ele><time>2026-05-02T13:25:46.398Z</time></trkpt><trkpt lat="46.53702" lon="12.14088"><ele>1204.6</ele><time>2026-05-02T13:25:47.398Z</time></trkpt><trkpt lat="46.5371117" lon="12.14094"><ele>1204.8</ele><time>2026-05-02T13:25:48.398Z</time></trkpt><trkpt lat="46.5372067" lon="12.141005"><ele>1205.0</ele><time>2026-05-02T13:25:49.397Z</time></trkpt><trkpt lat="46.537285" lon="12.1410833"><ele>1207.0</ele><time>2026-05-02T13:25:50.398Z</time></trkpt><trkpt lat="46.53736" lon="12.1411617"><ele>1209.0</ele><time>2026-05-02T13:25:51.398Z</time></trkpt><trkpt lat="46.5374283" lon="12.14124"><ele>1211.0</ele><time>2026-05-02T13:25:52.398Z</time></trkpt><trkpt lat="46.5374967" lon="12.141325"><ele>1213.0</ele><time>2026-05-02T13:25:53.398Z</time></trkpt><trkpt lat="46.5375667" lon="12.14141"><ele>1215.0</ele><time>2026-05-02T13:25:54.398Z</time></trkpt><trkpt lat="46.53765" lon="12.1414683"><ele>1215.0</ele><time>2026-05-02T13:25:55.398Z</time></trkpt><trkpt lat="46.5377333" lon="12.1415233"><ele>1215.0</ele><time>2026-05-02T13:25:56.397Z</time></trkpt><trkpt lat="46.5378133" lon="12.14157"><ele>1215.0</ele><time>2026-05-02T13:25:57.398Z</time></trkpt><trkpt lat="46.5379" lon="12.1416"><ele>1215.0</ele><time>2026-05-02T13:25:58.398Z</time></trkpt><trkpt lat="46.537975" lon="12.1416283"><ele>1215.0</ele><time>2026-05-02T13:25:59.398Z</time></trkpt><trkpt lat="46.5380717" lon="12.1416733"><ele>1215.0</ele><time>2026-05-02T13:26:01.398Z</time></trkpt><trkpt lat="46.5381467" lon="12.141635"><ele>1216.6666666666667</ele><time>2026-05-02T13:26:03.398Z</time></trkpt><trkpt lat="46.5382333" lon="12.1415767"><ele>1218.3333333333333</ele><time>2026-05-02T13:26:05.398Z</time></trkpt><trkpt lat="46.5382933" lon="12.14146"><ele>1220.0</ele><time>2026-05-02T13:26:07.398Z</time></trkpt><trkpt lat="46.5382967" lon="12.1413167"><ele>1221.6666666666665</ele><time>2026-05-02T13:26:09.397Z</time></trkpt><trkpt lat="46.5382567" lon="12.1412417"><ele>1223.3333333333333</ele><time>2026-05-02T13:26:10.398Z</time></trkpt><trkpt lat="46.5382017" lon="12.14118"><ele>1225.0</ele><time>2026-05-02T13:26:11.398Z</time></trkpt><trkpt lat="46.5381" lon="12.14111"><ele>1225.0</ele><time>2026-05-02T13:26:13.398Z</time></trkpt><trkpt lat="46.5379833" lon="12.1410833"><ele>1225.0</ele><time>2026-05-02T13:26:15.398Z</time></trkpt><trkpt lat="46.53788" lon="12.1410467"><ele>1225.0</ele><time>2026-05-02T13:26:17.398Z</time></trkpt><trkpt lat="46.5377983" lon="12.1409583"><ele>1225.0</ele><time>2026-05-02T13:26:19.397Z</time></trkpt><trkpt lat="46.5377233" lon="12.1408217"><ele>1225.0</ele><time>2026-05-02T13:26:21.397Z</time></trkpt><trkpt lat="46.537685" lon="12.1407467"><ele>1224.0</ele><time>2026-05-02T13:26:22.397Z</time></trkpt><trkpt lat="46.5376417" lon="12.1405983"><ele>1223.0</ele><time>2026-05-02T13:26:24.397Z</time></trkpt><trkpt lat="46.53767" lon="12.1404517"><ele>1222.0</ele><time>2026-05-02T13:26:26.397Z</time></trkpt><trkpt lat="46.5377167" lon="12.1403867"><ele>1221.0</ele><time>2026-05-02T13:26:27.398Z</time></trkpt><trkpt lat="46.5377683" lon="12.14033"><ele>1220.0</ele><time>2026-05-02T13:26:28.398Z</time></trkpt><trkpt lat="46.5378217" lon="12.140275"><ele>1219.0</ele><time>2026-05-02T13:26:29.398Z</time></trkpt><trkpt lat="46.5378833" lon="12.1402083"><ele>1220.3333333333333</ele><time>2026-05-02T13:26:30.398Z</time></trkpt><trkpt lat="46.5379433" lon="12.1401367"><ele>1221.6666666666665</ele><time>2026-05-02T13:26:31.397Z</time></trkpt><trkpt lat="46.537995" lon="12.1400633"><ele>1223.0</ele><time>2026-05-02T13:26:32.398Z</time></trkpt><trkpt lat="46.5380483" lon="12.13999"><ele>1224.3333333333333</ele><time>2026-05-02T13:26:33.398Z</time></trkpt><trkpt lat="46.53809" lon="12.1399133"><ele>1225.6666666666667</ele><time>2026-05-02T13:26:34.398Z</time></trkpt><trkpt lat="46.538145" lon="12.13975"><ele>1227.0</ele><time>2026-05-02T13:26:36.398Z</time></trkpt><trkpt lat="46.538185" lon="12.13966"><ele>1227.0</ele><time>2026-05-02T13:26:37.397Z</time></trkpt><trkpt lat="46.538225" lon="12.1395783"><ele>1227.0</ele><time>2026-05-02T13:26:38.398Z</time></trkpt><trkpt lat="46.5382517" lon="12.13949"><ele>1227.0</ele><time>2026-05-02T13:26:39.398Z</time></trkpt><trkpt lat="46.5383183" lon="12.1393483"><ele>1227.0</ele><time>2026-05-02T13:26:41.398Z</time></trkpt><trkpt lat="46.5383817" lon="12.1392267"><ele>1227.0</ele><time>2026-05-02T13:26:43.398Z</time></trkpt><trkpt lat="46.5384533" lon="12.1390833"><ele>1227.142857142857</ele><time>2026-05-02T13:26:45.398Z</time></trkpt><trkpt lat="46.538495" lon="12.1389967"><ele>1227.2857142857142</ele><time>2026-05-02T13:26:46.397Z</time></trkpt><trkpt lat="46.5385333" lon="12.1389033"><ele>1227.4285714285713</ele><time>2026-05-02T13:26:47.398Z</time></trkpt><trkpt lat="46.538575" lon="12.138815"><ele>1227.5714285714284</ele><time>2026-05-02T13:26:48.398Z</time></trkpt><trkpt lat="46.5386083" lon="12.1387183"><ele>1227.7142857142858</ele><time>2026-05-02T13:26:49.398Z</time></trkpt><trkpt lat="46.5386483" lon="12.1386267"><ele>1227.8571428571427</ele><time>2026-05-02T13:26:50.398Z</time></trkpt><trkpt lat="46.5386817" lon="12.1385367"><ele>1228.0</ele><time>2026-05-02T13:26:51.398Z</time></trkpt><trkpt lat="46.5387217" lon="12.1384467"><ele>1228.2</ele><time>2026-05-02T13:26:52.398Z</time></trkpt><trkpt lat="46.5387567" lon="12.1383617"><ele>1228.4</ele><time>2026-05-02T13:26:53.398Z</time></trkpt><trkpt lat="46.5388267" lon="12.1382083"><ele>1228.6000000000001</ele><time>2026-05-02T13:26:55.398Z</time></trkpt><trkpt lat="46.5388933" lon="12.1380483"><ele>1228.8</ele><time>2026-05-02T13:26:57.398Z</time></trkpt><trkpt lat="46.5389367" lon="12.13797"><ele>1229.0</ele><time>2026-05-02T13:26:58.398Z</time></trkpt><trkpt lat="46.53898" lon="12.1378867"><ele>1228.4</ele><time>2026-05-02T13:26:59.398Z</time></trkpt><trkpt lat="46.5390133" lon="12.13779"><ele>1227.8000000000002</ele><time>2026-05-02T13:27:00.398Z</time></trkpt><trkpt lat="46.5390817" lon="12.1376383"><ele>1227.1999999999998</ele><time>2026-05-02T13:27:02.398Z</time></trkpt><trkpt lat="46.5391183" lon="12.1375533"><ele>1226.6</ele><time>2026-05-02T13:27:03.397Z</time></trkpt><trkpt lat="46.5391817" lon="12.137425"><ele>1226.0</ele><time>2026-05-02T13:27:05.397Z</time></trkpt><trkpt lat="46.5392617" lon="12.1373"><ele>1225.6</ele><time>2026-05-02T13:27:07.398Z</time></trkpt><trkpt lat="46.5393467" lon="12.13716"><ele>1225.1999999999998</ele><time>2026-05-02T13:27:09.397Z</time></trkpt><trkpt lat="46.5394217" lon="12.1370633"><ele>1224.8000000000002</ele><time>2026-05-02T13:27:11.398Z</time></trkpt><trkpt lat="46.5394967" lon="12.1369617"><ele>1224.4</ele><time>2026-05-02T13:27:13.398Z</time></trkpt><trkpt lat="46.5395783" lon="12.1368583"><ele>1224.0</ele><time>2026-05-02T13:27:15.397Z</time></trkpt><trkpt lat="46.539665" lon="12.13674"><ele>1223.5</ele><time>2026-05-02T13:27:17.398Z</time></trkpt><trkpt lat="46.5397483" lon="12.1366317"><ele>1223.0</ele><time>2026-05-02T13:27:19.398Z</time></trkpt><trkpt lat="46.5398483" lon="12.136525"><ele>1222.5</ele><time>2026-05-02T13:27:21.397Z</time></trkpt><trkpt lat="46.539935" lon="12.13642"><ele>1222.0</ele><time>2026-05-02T13:27:23.398Z</time></trkpt><trkpt lat="46.540025" lon="12.1363117"><ele>1222.0</ele><time>2026-05-02T13:27:25.398Z</time></trkpt><trkpt lat="46.540075" lon="12.1362533"><ele>1222.0</ele><time>2026-05-02T13:27:26.398Z</time></trkpt><trkpt lat="46.54015" lon="12.1361483"><ele>1222.0</ele><time>2026-05-02T13:27:28.398Z</time></trkpt><trkpt lat="46.54023" lon="12.1360533"><ele>1222.0</ele><time>2026-05-02T13:27:30.397Z</time></trkpt><trkpt lat="46.5403083" lon="12.1359533"><ele>1222.0</ele><time>2026-05-02T13:27:32.398Z</time></trkpt><trkpt lat="46.5404033" lon="12.1358483"><ele>1222.1666666666665</ele><time>2026-05-02T13:27:34.398Z</time></trkpt><trkpt lat="46.5404633" lon="12.135735"><ele>1222.3333333333333</ele><time>2026-05-02T13:27:36.398Z</time></trkpt><trkpt lat="46.54048" lon="12.1355967"><ele>1222.5</ele><time>2026-05-02T13:27:38.398Z</time></trkpt><trkpt lat="46.540485" lon="12.1354817"><ele>1222.6666666666667</ele><time>2026-05-02T13:27:40.398Z</time></trkpt><trkpt lat="46.540495" lon="12.135375"><ele>1222.8333333333335</ele><time>2026-05-02T13:27:43.398Z</time></trkpt><trkpt lat="46.540505" lon="12.1352683"><ele>1223.0</ele><time>2026-05-02T13:27:47.398Z</time></trkpt><trkpt lat="46.540535" lon="12.13517"><ele>1223.0</ele><time>2026-05-02T13:27:50.398Z</time></trkpt><trkpt lat="46.5406017" lon="12.1351183"><ele>1223.0</ele><time>2026-05-02T13:27:52.398Z</time></trkpt><trkpt lat="46.54069" lon="12.13512"><ele>1223.0</ele><time>2026-05-02T13:27:54.398Z</time></trkpt><trkpt lat="46.5407783" lon="12.1351267"><ele>1223.0</ele><time>2026-05-02T13:27:56.398Z</time></trkpt><trkpt lat="46.5408983" lon="12.135135"><ele>1223.0</ele><time>2026-05-02T13:27:58.398Z</time></trkpt><trkpt lat="46.5409783" lon="12.1351567"><ele>1223.0</ele><time>2026-05-02T13:27:59.398Z</time></trkpt><trkpt lat="46.5410683" lon="12.1351883"><ele>1223.0</ele><time>2026-05-02T13:28:00.397Z</time></trkpt><trkpt lat="46.54115" lon="12.1352083"><ele>1223.0</ele><time>2026-05-02T13:28:01.398Z</time></trkpt><trkpt lat="46.5412317" lon="12.1352333"><ele>1223.0</ele><time>2026-05-02T13:28:02.398Z</time></trkpt><trkpt lat="46.5413167" lon="12.1352733"><ele>1223.0</ele><time>2026-05-02T13:28:03.398Z</time></trkpt><trkpt lat="46.5414017" lon="12.1353083"><ele>1223.0</ele><time>2026-05-02T13:28:04.398Z</time></trkpt><trkpt lat="46.5414933" lon="12.1353417"><ele>1223.2</ele><time>2026-05-02T13:28:05.398Z</time></trkpt><trkpt lat="46.5415933" lon="12.1353683"><ele>1223.4</ele><time>2026-05-02T13:28:06.397Z</time></trkpt><trkpt lat="46.5416867" lon="12.1354117"><ele>1223.6000000000001</ele><time>2026-05-02T13:28:07.398Z</time></trkpt><trkpt lat="46.541775" lon="12.1354667"><ele>1223.8</ele><time>2026-05-02T13:28:08.397Z</time></trkpt><trkpt lat="46.5418717" lon="12.135535"><ele>1224.0</ele><time>2026-05-02T13:28:09.398Z</time></trkpt><trkpt lat="46.5419733" lon="12.1356083"><ele>1223.4</ele><time>2026-05-02T13:28:10.397Z</time></trkpt><trkpt lat="46.5420717" lon="12.1356683"><ele>1222.8000000000002</ele><time>2026-05-02T13:28:11.398Z</time></trkpt><trkpt lat="46.54216" lon="12.13573"><ele>1222.1999999999998</ele><time>2026-05-02T13:28:12.398Z</time></trkpt><trkpt lat="46.5422467" lon="12.1358017"><ele>1221.6</ele><time>2026-05-02T13:28:13.397Z</time></trkpt><trkpt lat="46.5423267" lon="12.1358767"><ele>1221.0</ele><time>2026-05-02T13:28:14.397Z</time></trkpt><trkpt lat="46.542405" lon="12.1359517"><ele>1222.6</ele><time>2026-05-02T13:28:15.398Z</time></trkpt><trkpt lat="46.54249" lon="12.13603"><ele>1224.1999999999998</ele><time>2026-05-02T13:28:16.398Z</time></trkpt><trkpt lat="46.5425867" lon="12.1361033"><ele>1225.8000000000002</ele><time>2026-05-02T13:28:17.398Z</time></trkpt><trkpt lat="46.542675" lon="12.1361817"><ele>1227.4</ele><time>2026-05-02T13:28:18.398Z</time></trkpt><trkpt lat="46.54276" lon="12.13625"><ele>1229.0</ele><time>2026-05-02T13:28:19.397Z</time></trkpt><trkpt lat="46.5428533" lon="12.13633"><ele>1229.2</ele><time>2026-05-02T13:28:20.398Z</time></trkpt><trkpt lat="46.5429517" lon="12.1364017"><ele>1229.4</ele><time>2026-05-02T13:28:21.398Z</time></trkpt><trkpt lat="46.5430383" lon="12.1364867"><ele>1229.6</ele><time>2026-05-02T13:28:22.397Z</time></trkpt><trkpt lat="46.543125" lon="12.1365433"><ele>1229.8</ele><time>2026-05-02T13:28:23.398Z</time></trkpt><trkpt lat="46.543205" lon="12.1366"><ele>1230.0</ele><time>2026-05-02T13:28:24.397Z</time></trkpt><trkpt lat="46.5432883" lon="12.1366667"><ele>1231.2</ele><time>2026-05-02T13:28:25.398Z</time></trkpt><trkpt lat="46.54338" lon="12.1367117"><ele>1232.4</ele><time>2026-05-02T13:28:26.398Z</time></trkpt><trkpt lat="46.54347" lon="12.1367317"><ele>1233.6</ele><time>2026-05-02T13:28:27.397Z</time></trkpt><trkpt lat="46.5435683" lon="12.136745"><ele>1234.8</ele><time>2026-05-02T13:28:28.397Z</time></trkpt><trkpt lat="46.5436633" lon="12.1367317"><ele>1236.0</ele><time>2026-05-02T13:28:29.397Z</time></trkpt><trkpt lat="46.5437517" lon="12.136695"><ele>1236.2</ele><time>2026-05-02T13:28:30.397Z</time></trkpt><trkpt lat="46.543845" lon="12.1366417"><ele>1236.3999999999999</ele><time>2026-05-02T13:28:31.397Z</time></trkpt><trkpt lat="46.5439383" lon="12.1365933"><ele>1236.6</ele><time>2026-05-02T13:28:32.398Z</time></trkpt><trkpt lat="46.544035" lon="12.136555"><ele>1236.8</ele><time>2026-05-02T13:28:33.397Z</time></trkpt><trkpt lat="46.5441317" lon="12.1365267"><ele>1237.0</ele><time>2026-05-02T13:28:34.397Z</time></trkpt><trkpt lat="46.544225" lon="12.1364917"><ele>1236.6</ele><time>2026-05-02T13:28:35.398Z</time></trkpt><trkpt lat="46.5443133" lon="12.136455"><ele>1236.2</ele><time>2026-05-02T13:28:36.398Z</time></trkpt><trkpt lat="46.5444083" lon="12.13643"><ele>1235.8</ele><time>2026-05-02T13:28:37.398Z</time></trkpt><trkpt lat="46.5444983" lon="12.1364117"><ele>1235.4</ele><time>2026-05-02T13:28:38.398Z</time></trkpt><trkpt lat="46.5445917" lon="12.1363617"><ele>1235.0</ele><time>2026-05-02T13:28:39.398Z</time></trkpt><trkpt lat="46.5446967" lon="12.1363183"><ele>1235.0</ele><time>2026-05-02T13:28:40.397Z</time></trkpt><trkpt lat="46.5447933" lon="12.1362767"><ele>1235.0</ele><time>2026-05-02T13:28:41.398Z</time></trkpt><trkpt lat="46.5448867" lon="12.13624"><ele>1235.0</ele><time>2026-05-02T13:28:42.398Z</time></trkpt><trkpt lat="46.5449717" lon="12.1361933"><ele>1235.0</ele><time>2026-05-02T13:28:43.398Z</time></trkpt><trkpt lat="46.5450567" lon="12.1361517"><ele>1235.0</ele><time>2026-05-02T13:28:44.398Z</time></trkpt><trkpt lat="46.5451483" lon="12.1361117"><ele>1235.0</ele><time>2026-05-02T13:28:45.398Z</time></trkpt><trkpt lat="46.5452267" lon="12.136055"><ele>1235.0</ele><time>2026-05-02T13:28:46.398Z</time></trkpt><trkpt lat="46.5453167" lon="12.1359967"><ele>1235.0</ele><time>2026-05-02T13:28:47.398Z</time></trkpt><trkpt lat="46.5454017" lon="12.13593"><ele>1235.0</ele><time>2026-05-02T13:28:48.398Z</time></trkpt><trkpt lat="46.5454817" lon="12.1358417"><ele>1235.0</ele><time>2026-05-02T13:28:49.398Z</time></trkpt><trkpt lat="46.545545" lon="12.135725"><ele>1235.8</ele><time>2026-05-02T13:28:50.397Z</time></trkpt><trkpt lat="46.5456017" lon="12.1356083"><ele>1236.6</ele><time>2026-05-02T13:28:51.398Z</time></trkpt><trkpt lat="46.5456567" lon="12.1354933"><ele>1237.4</ele><time>2026-05-02T13:28:52.398Z</time></trkpt><trkpt lat="46.5457083" lon="12.1353833"><ele>1238.2</ele><time>2026-05-02T13:28:53.398Z</time></trkpt><trkpt lat="46.54576" lon="12.1352683"><ele>1239.0</ele><time>2026-05-02T13:28:54.398Z</time></trkpt><trkpt lat="46.5458117" lon="12.1351433"><ele>1239.0</ele><time>2026-05-02T13:28:55.398Z</time></trkpt><trkpt lat="46.5458633" lon="12.1350133"><ele>1239.0</ele><time>2026-05-02T13:28:56.397Z</time></trkpt><trkpt lat="46.5459167" lon="12.1348833"><ele>1239.0</ele><time>2026-05-02T13:28:57.398Z</time></trkpt><trkpt lat="46.54597" lon="12.13476"><ele>1239.0</ele><time>2026-05-02T13:28:58.398Z</time></trkpt><trkpt lat="46.54603" lon="12.1346483"><ele>1239.0</ele><time>2026-05-02T13:28:59.398Z</time></trkpt><trkpt lat="46.5460933" lon="12.1345383"><ele>1238.0</ele><time>2026-05-02T13:29:00.398Z</time></trkpt><trkpt lat="46.5461767" lon="12.1344333"><ele>1237.0</ele><time>2026-05-02T13:29:01.398Z</time></trkpt><trkpt lat="46.546255" lon="12.1343333"><ele>1236.0</ele><time>2026-05-02T13:29:02.398Z</time></trkpt><trkpt lat="46.5463367" lon="12.13425"><ele>1235.0</ele><time>2026-05-02T13:29:03.398Z</time></trkpt><trkpt lat="46.5464233" lon="12.1341883"><ele>1234.0</ele><time>2026-05-02T13:29:04.398Z</time></trkpt><trkpt lat="46.54651" lon="12.1341367"><ele>1235.8333333333333</ele><time>2026-05-02T13:29:05.398Z</time></trkpt><trkpt lat="46.5465983" lon="12.1341083"><ele>1237.6666666666665</ele><time>2026-05-02T13:29:06.398Z</time></trkpt><trkpt lat="46.5466783" lon="12.1340933"><ele>1239.5</ele><time>2026-05-02T13:29:07.398Z</time></trkpt><trkpt lat="46.5467633" lon="12.1340833"><ele>1241.3333333333333</ele><time>2026-05-02T13:29:08.397Z</time></trkpt><trkpt lat="46.54685" lon="12.13409"><ele>1243.1666666666667</ele><time>2026-05-02T13:29:09.398Z</time></trkpt><trkpt lat="46.54695" lon="12.1340783"><ele>1245.0</ele><time>2026-05-02T13:29:10.398Z</time></trkpt><trkpt lat="46.5470483" lon="12.13407"><ele>1245.2</ele><time>2026-05-02T13:29:11.398Z</time></trkpt><trkpt lat="46.5471533" lon="12.13404"><ele>1245.4</ele><time>2026-05-02T13:29:12.398Z</time></trkpt><trkpt lat="46.5472633" lon="12.1340017"><ele>1245.6</ele><time>2026-05-02T13:29:13.398Z</time></trkpt><trkpt lat="46.547355" lon="12.133935"><ele>1245.8</ele><time>2026-05-02T13:29:14.398Z</time></trkpt><trkpt lat="46.547445" lon="12.1338833"><ele>1246.0</ele><time>2026-05-02T13:29:15.397Z</time></trkpt><trkpt lat="46.5475233" lon="12.13381"><ele>1246.0</ele><time>2026-05-02T13:29:16.397Z</time></trkpt><trkpt lat="46.5476033" lon="12.1337483"><ele>1246.0</ele><time>2026-05-02T13:29:17.398Z</time></trkpt><trkpt lat="46.5476833" lon="12.1336767"><ele>1246.0</ele><time>2026-05-02T13:29:18.398Z</time></trkpt><trkpt lat="46.5477683" lon="12.1336033"><ele>1246.0</ele><time>2026-05-02T13:29:19.398Z</time></trkpt><trkpt lat="46.5478583" lon="12.1335083"><ele>1246.0</ele><time>2026-05-02T13:29:20.398Z</time></trkpt><trkpt lat="46.5479417" lon="12.133415"><ele>1247.0</ele><time>2026-05-02T13:29:21.398Z</time></trkpt><trkpt lat="46.5480183" lon="12.133315"><ele>1248.0</ele><time>2026-05-02T13:29:22.398Z</time></trkpt><trkpt lat="46.548095" lon="12.1332083"><ele>1249.0</ele><time>2026-05-02T13:29:23.398Z</time></trkpt><trkpt lat="46.5481517" lon="12.1330833"><ele>1250.0</ele><time>2026-05-02T13:29:24.398Z</time></trkpt><trkpt lat="46.5481983" lon="12.132965"><ele>1251.0</ele><time>2026-05-02T13:29:25.398Z</time></trkpt><trkpt lat="46.548255" lon="12.1328467"><ele>1251.0</ele><time>2026-05-02T13:29:26.398Z</time></trkpt><trkpt lat="46.54832" lon="12.1327317"><ele>1251.0</ele><time>2026-05-02T13:29:27.397Z</time></trkpt><trkpt lat="46.5483767" lon="12.1326183"><ele>1251.0</ele><time>2026-05-02T13:29:28.398Z</time></trkpt><trkpt lat="46.5484417" lon="12.1324933"><ele>1251.0</ele><time>2026-05-02T13:29:29.398Z</time></trkpt><trkpt lat="46.5485083" lon="12.1323733"><ele>1251.0</ele><time>2026-05-02T13:29:30.398Z</time></trkpt><trkpt lat="46.5485767" lon="12.1322467"><ele>1252.0</ele><time>2026-05-02T13:29:31.398Z</time></trkpt><trkpt lat="46.5486483" lon="12.132115"><ele>1253.0</ele><time>2026-05-02T13:29:32.398Z</time></trkpt><trkpt lat="46.548725" lon="12.13199"><ele>1254.0</ele><time>2026-05-02T13:29:33.398Z</time></trkpt><trkpt lat="46.54881" lon="12.13184"><ele>1255.0</ele><time>2026-05-02T13:29:34.398Z</time></trkpt><trkpt lat="46.5488883" lon="12.1316833"><ele>1254.5</ele><time>2026-05-02T13:29:35.398Z</time></trkpt><trkpt lat="46.5489567" lon="12.1315317"><ele>1254.0</ele><time>2026-05-02T13:29:36.398Z</time></trkpt><trkpt lat="46.549025" lon="12.1313833"><ele>1253.5</ele><time>2026-05-02T13:29:37.398Z</time></trkpt><trkpt lat="46.5490983" lon="12.1312583"><ele>1253.0</ele><time>2026-05-02T13:29:38.398Z</time></trkpt><trkpt lat="46.5491783" lon="12.1311517"><ele>1253.0</ele><time>2026-05-02T13:29:39.397Z</time></trkpt><trkpt lat="46.5492567" lon="12.1310333"><ele>1253.0</ele><time>2026-05-02T13:29:40.398Z</time></trkpt><trkpt lat="46.5493233" lon="12.1309183"><ele>1253.0</ele><time>2026-05-02T13:29:41.398Z</time></trkpt><trkpt lat="46.5493883" lon="12.130785"><ele>1253.0</ele><time>2026-05-02T13:29:42.397Z</time></trkpt><trkpt lat="46.549455" lon="12.1306783"><ele>1253.0</ele><time>2026-05-02T13:29:43.398Z</time></trkpt><trkpt lat="46.549525" lon="12.1305783"><ele>1253.5</ele><time>2026-05-02T13:29:44.397Z</time></trkpt><trkpt lat="46.5496083" lon="12.13047"><ele>1254.0</ele><time>2026-05-02T13:29:45.398Z</time></trkpt><trkpt lat="46.5497067" lon="12.130375"><ele>1254.5</ele><time>2026-05-02T13:29:46.398Z</time></trkpt><trkpt lat="46.5498183" lon="12.130305"><ele>1255.0</ele><time>2026-05-02T13:29:47.398Z</time></trkpt><trkpt lat="46.5499233" lon="12.1302383"><ele>1255.0</ele><time>2026-05-02T13:29:48.398Z</time></trkpt><trkpt lat="46.5500383" lon="12.1301817"><ele>1255.0</ele><time>2026-05-02T13:29:49.398Z</time></trkpt><trkpt lat="46.5501533" lon="12.1301417"><ele>1255.0</ele><time>2026-05-02T13:29:50.398Z</time></trkpt><trkpt lat="46.5502633" lon="12.1301"><ele>1255.0</ele><time>2026-05-02T13:29:51.398Z</time></trkpt><trkpt lat="46.5503717" lon="12.1300533"><ele>1255.2</ele><time>2026-05-02T13:29:52.398Z</time></trkpt><trkpt lat="46.5504717" lon="12.1299983"><ele>1255.4</ele><time>2026-05-02T13:29:53.398Z</time></trkpt><trkpt lat="46.5505867" lon="12.1299633"><ele>1255.6</ele><time>2026-05-02T13:29:54.398Z</time></trkpt><trkpt lat="46.5506817" lon="12.1299017"><ele>1255.8</ele><time>2026-05-02T13:29:55.398Z</time></trkpt><trkpt lat="46.550785" lon="12.129845"><ele>1256.0</ele><time>2026-05-02T13:29:56.398Z</time></trkpt><trkpt lat="46.5508867" lon="12.129805"><ele>1256.0</ele><time>2026-05-02T13:29:57.398Z</time></trkpt><trkpt lat="46.5509817" lon="12.1297783"><ele>1256.0</ele><time>2026-05-02T13:29:58.397Z</time></trkpt><trkpt lat="46.5510783" lon="12.1297583"><ele>1256.0</ele><time>2026-05-02T13:29:59.398Z</time></trkpt><trkpt lat="46.5511767" lon="12.1297617"><ele>1256.0</ele><time>2026-05-02T13:30:00.398Z</time></trkpt><trkpt lat="46.5512733" lon="12.1297783"><ele>1256.0</ele><time>2026-05-02T13:30:01.398Z</time></trkpt><trkpt lat="46.5513733" lon="12.1298067"><ele>1255.6</ele><time>2026-05-02T13:30:02.398Z</time></trkpt><trkpt lat="46.5514683" lon="12.129855"><ele>1255.1999999999998</ele><time>2026-05-02T13:30:03.398Z</time></trkpt><trkpt lat="46.551565" lon="12.1299083"><ele>1254.8000000000002</ele><time>2026-05-02T13:30:04.397Z</time></trkpt><trkpt lat="46.5516567" lon="12.1299633"><ele>1254.4</ele><time>2026-05-02T13:30:05.398Z</time></trkpt><trkpt lat="46.5517517" lon="12.130025"><ele>1254.0</ele><time>2026-05-02T13:30:06.397Z</time></trkpt><trkpt lat="46.5518533" lon="12.1300767"><ele>1255.6000000000001</ele><time>2026-05-02T13:30:07.398Z</time></trkpt><trkpt lat="46.551955" lon="12.1301317"><ele>1257.2</ele><time>2026-05-02T13:30:08.398Z</time></trkpt><trkpt lat="46.5520533" lon="12.1301733"><ele>1258.8000000000002</ele><time>2026-05-02T13:30:09.397Z</time></trkpt><trkpt lat="46.5521483" lon="12.13021"><ele>1260.4</ele><time>2026-05-02T13:30:10.397Z</time></trkpt><trkpt lat="46.552255" lon="12.13022"><ele>1262.0</ele><time>2026-05-02T13:30:11.398Z</time></trkpt><trkpt lat="46.5523633" lon="12.130215"><ele>1262.8</ele><time>2026-05-02T13:30:12.398Z</time></trkpt><trkpt lat="46.5524667" lon="12.1301983"><ele>1263.6</ele><time>2026-05-02T13:30:13.397Z</time></trkpt><trkpt lat="46.5525667" lon="12.1301833"><ele>1264.3999999999999</ele><time>2026-05-02T13:30:14.398Z</time></trkpt><trkpt lat="46.5526767" lon="12.13016"><ele>1265.2</ele><time>2026-05-02T13:30:15.398Z</time></trkpt><trkpt lat="46.552785" lon="12.1301383"><ele>1266.0</ele><time>2026-05-02T13:30:16.398Z</time></trkpt><trkpt lat="46.5528983" lon="12.1301267"><ele>1266.25</ele><time>2026-05-02T13:30:17.398Z</time></trkpt><trkpt lat="46.553015" lon="12.1301233"><ele>1266.5</ele><time>2026-05-02T13:30:18.397Z</time></trkpt><trkpt lat="46.55313" lon="12.130105"><ele>1266.75</ele><time>2026-05-02T13:30:19.397Z</time></trkpt><trkpt lat="46.5532433" lon="12.1300967"><ele>1267.0</ele><time>2026-05-02T13:30:20.397Z</time></trkpt><trkpt lat="46.5533617" lon="12.1300883"><ele>1267.0</ele><time>2026-05-02T13:30:21.398Z</time></trkpt><trkpt lat="46.553465" lon="12.1300817"><ele>1267.0</ele><time>2026-05-02T13:30:22.397Z</time></trkpt><trkpt lat="46.5535583" lon="12.1300683"><ele>1267.0</ele><time>2026-05-02T13:30:23.398Z</time></trkpt><trkpt lat="46.5536533" lon="12.1300533"><ele>1267.0</ele><time>2026-05-02T13:30:24.398Z</time></trkpt><trkpt lat="46.5537383" lon="12.1300333"><ele>1267.0</ele><time>2026-05-02T13:30:25.398Z</time></trkpt><trkpt lat="46.5538133" lon="12.1300083"><ele>1267.0</ele><time>2026-05-02T13:30:26.397Z</time></trkpt><trkpt lat="46.553885" lon="12.1299833"><ele>1267.0</ele><time>2026-05-02T13:30:27.398Z</time></trkpt><trkpt lat="46.5539567" lon="12.1299383"><ele>1267.0</ele><time>2026-05-02T13:30:28.397Z</time></trkpt><trkpt lat="46.554025" lon="12.1298617"><ele>1267.0</ele><time>2026-05-02T13:30:29.398Z</time></trkpt><trkpt lat="46.554095" lon="12.129765"><ele>1267.0</ele><time>2026-05-02T13:30:30.398Z</time></trkpt><trkpt lat="46.5541617" lon="12.129665"><ele>1267.0</ele><time>2026-05-02T13:30:31.398Z</time></trkpt><trkpt lat="46.554235" lon="12.1295683"><ele>1267.0</ele><time>2026-05-02T13:30:32.398Z</time></trkpt><trkpt lat="46.5543117" lon="12.1294717"><ele>1267.0</ele><time>2026-05-02T13:30:33.398Z</time></trkpt><trkpt lat="46.5543883" lon="12.1293783"><ele>1267.0</ele><time>2026-05-02T13:30:34.397Z</time></trkpt><trkpt lat="46.5544617" lon="12.1292733"><ele>1267.0</ele><time>2026-05-02T13:30:35.398Z</time></trkpt><trkpt lat="46.5545317" lon="12.1291667"><ele>1267.0</ele><time>2026-05-02T13:30:36.398Z</time></trkpt><trkpt lat="46.5546033" lon="12.1290583"><ele>1268.4</ele><time>2026-05-02T13:30:37.397Z</time></trkpt><trkpt lat="46.5546817" lon="12.1289583"><ele>1269.8000000000002</ele><time>2026-05-02T13:30:38.398Z</time></trkpt><trkpt lat="46.5547667" lon="12.12886"><ele>1271.2</ele><time>2026-05-02T13:30:39.397Z</time></trkpt><trkpt lat="46.5548433" lon="12.128775"><ele>1272.6000000000001</ele><time>2026-05-02T13:30:40.398Z</time></trkpt><trkpt lat="46.5549283" lon="12.1286933"><ele>1274.0</ele><time>2026-05-02T13:30:41.398Z</time></trkpt><trkpt lat="46.5550217" lon="12.1286167"><ele>1274.0</ele><time>2026-05-02T13:30:42.397Z</time></trkpt><trkpt lat="46.5551183" lon="12.1285533"><ele>1274.0</ele><time>2026-05-02T13:30:43.398Z</time></trkpt><trkpt lat="46.5552117" lon="12.1284933"><ele>1274.0</ele><time>2026-05-02T13:30:44.398Z</time></trkpt><trkpt lat="46.5553083" lon="12.1284333"><ele>1274.0</ele><time>2026-05-02T13:30:45.397Z</time></trkpt><trkpt lat="46.5554167" lon="12.1283767"><ele>1274.0</ele><time>2026-05-02T13:30:46.398Z</time></trkpt><trkpt lat="46.5555267" lon="12.1283233"><ele>1274.3333333333335</ele><time>2026-05-02T13:30:47.398Z</time></trkpt><trkpt lat="46.555645" lon="12.1282583"><ele>1274.6666666666667</ele><time>2026-05-02T13:30:48.398Z</time></trkpt><trkpt lat="46.5557983" lon="12.12815"><ele>1275.0</ele><time>2026-05-02T13:30:49.397Z</time></trkpt><trkpt lat="46.5559917" lon="12.128045"><ele>1278.5</ele><time>2026-05-02T13:30:50.398Z</time></trkpt><trkpt lat="46.55621" lon="12.1279367"><ele>1282.0</ele><time>2026-05-02T13:30:51.397Z</time></trkpt><trkpt lat="46.5564633" lon="12.12783"><ele>1282.0</ele><time>2026-05-02T13:30:52.398Z</time></trkpt><trkpt lat="46.5567333" lon="12.1277117"><ele>1282.0</ele><time>2026-05-02T13:30:53.398Z</time></trkpt><trkpt lat="46.5569883" lon="12.1275783"><ele>1279.5</ele><time>2026-05-02T13:30:54.398Z</time></trkpt><trkpt lat="46.5572367" lon="12.1274467"><ele>1277.0</ele><time>2026-05-02T13:30:55.397Z</time></trkpt><trkpt lat="46.5574733" lon="12.1273367"><ele>1277.0</ele><time>2026-05-02T13:30:56.397Z</time></trkpt><trkpt lat="46.5577033" lon="12.12723"><ele>1277.0</ele><time>2026-05-02T13:30:57.398Z</time></trkpt><trkpt lat="46.557935" lon="12.12713"><ele>1282.0</ele><time>2026-05-02T13:30:58.398Z</time></trkpt><trkpt lat="46.558155" lon="12.12702"><ele>1287.0</ele><time>2026-05-02T13:30:59.398Z</time></trkpt><trkpt lat="46.558365" lon="12.12688"><ele>1287.0</ele><time>2026-05-02T13:31:00.397Z</time></trkpt><trkpt lat="46.5585683" lon="12.1267033"><ele>1287.0</ele><time>2026-05-02T13:31:01.398Z</time></trkpt><trkpt lat="46.5587683" lon="12.1264817"><ele>1287.5</ele><time>2026-05-02T13:31:02.398Z</time></trkpt><trkpt lat="46.558965" lon="12.1262383"><ele>1288.0</ele><time>2026-05-02T13:31:03.398Z</time></trkpt><trkpt lat="46.559185" lon="12.1260117"><ele>1288.0</ele><time>2026-05-02T13:31:04.397Z</time></trkpt><trkpt lat="46.5594333" lon="12.1258183"><ele>1288.0</ele><time>2026-05-02T13:31:05.398Z</time></trkpt><trkpt lat="46.55969" lon="12.1256617"><ele>1285.5</ele><time>2026-05-02T13:31:06.398Z</time></trkpt><trkpt lat="46.5599483" lon="12.1255617"><ele>1283.0</ele><time>2026-05-02T13:31:07.398Z</time></trkpt><trkpt lat="46.5602167" lon="12.1254717"><ele>1285.0</ele><time>2026-05-02T13:31:08.398Z</time></trkpt><trkpt lat="46.5604717" lon="12.12538"><ele>1287.0</ele><time>2026-05-02T13:31:09.398Z</time></trkpt><trkpt lat="46.5607183" lon="12.1252867"><ele>1287.0</ele><time>2026-05-02T13:31:10.398Z</time></trkpt><trkpt lat="46.560945" lon="12.1251667"><ele>1287.0</ele><time>2026-05-02T13:31:11.398Z</time></trkpt><trkpt lat="46.5611467" lon="12.1250033"><ele>1287.0</ele><time>2026-05-02T13:31:12.398Z</time></trkpt><trkpt lat="46.5613383" lon="12.1247867"><ele>1287.0</ele><time>2026-05-02T13:31:13.397Z</time></trkpt><trkpt lat="46.5615317" lon="12.12456"><ele>1287.0</ele><time>2026-05-02T13:31:14.398Z</time></trkpt><trkpt lat="46.561715" lon="12.1243467"><ele>1287.0</ele><time>2026-05-02T13:31:15.398Z</time></trkpt><trkpt lat="46.5619183" lon="12.1241617"><ele>1286.5</ele><time>2026-05-02T13:31:16.398Z</time></trkpt><trkpt lat="46.56212" lon="12.123995"><ele>1286.0</ele><time>2026-05-02T13:31:17.398Z</time></trkpt><trkpt lat="46.5623217" lon="12.1238417"><ele>1286.0</ele><time>2026-05-02T13:31:18.398Z</time></trkpt><trkpt lat="46.5625167" lon="12.1236883"><ele>1286.0</ele><time>2026-05-02T13:31:19.398Z</time></trkpt><trkpt lat="46.5627" lon="12.12353"><ele>1286.0</ele><time>2026-05-02T13:31:20.398Z</time></trkpt><trkpt lat="46.562875" lon="12.123365"><ele>1286.3333333333335</ele><time>2026-05-02T13:31:21.398Z</time></trkpt><trkpt lat="46.5630417" lon="12.1231883"><ele>1286.6666666666667</ele><time>2026-05-02T13:31:22.398Z</time></trkpt><trkpt lat="46.5631967" lon="12.1230017"><ele>1287.0</ele><time>2026-05-02T13:31:23.397Z</time></trkpt><trkpt lat="46.5633533" lon="12.1228283"><ele>1287.0</ele><time>2026-05-02T13:31:24.398Z</time></trkpt><trkpt lat="46.563505" lon="12.122665"><ele>1287.0</ele><time>2026-05-02T13:31:25.398Z</time></trkpt><trkpt lat="46.5636633" lon="12.12252"><ele>1287.0</ele><time>2026-05-02T13:31:26.398Z</time></trkpt><trkpt lat="46.5638233" lon="12.1223867"><ele>1287.0</ele><time>2026-05-02T13:31:27.397Z</time></trkpt><trkpt lat="46.563985" lon="12.1222817"><ele>1287.0</ele><time>2026-05-02T13:31:28.398Z</time></trkpt><trkpt lat="46.564145" lon="12.122175"><ele>1287.0</ele><time>2026-05-02T13:31:29.397Z</time></trkpt><trkpt lat="46.5643083" lon="12.122075"><ele>1287.0</ele><time>2026-05-02T13:31:30.398Z</time></trkpt><trkpt lat="46.5644717" lon="12.1219683"><ele>1287.0</ele><time>2026-05-02T13:31:31.398Z</time></trkpt><trkpt lat="46.56463" lon="12.1218683"><ele>1287.0</ele><time>2026-05-02T13:31:32.397Z</time></trkpt><trkpt lat="46.5647783" lon="12.1217617"><ele>1289.0</ele><time>2026-05-02T13:31:33.397Z</time></trkpt><trkpt lat="46.56493" lon="12.121685"><ele>1291.0</ele><time>2026-05-02T13:31:34.397Z</time></trkpt><trkpt lat="46.5650783" lon="12.12162"><ele>1293.0</ele><time>2026-05-02T13:31:35.398Z</time></trkpt><trkpt lat="46.5652367" lon="12.1215667"><ele>1291.3333333333333</ele><time>2026-05-02T13:31:36.398Z</time></trkpt><trkpt lat="46.5654017" lon="12.1215183"><ele>1289.6666666666665</ele><time>2026-05-02T13:31:37.398Z</time></trkpt><trkpt lat="46.5655733" lon="12.12149"><ele>1288.0</ele><time>2026-05-02T13:31:38.398Z</time></trkpt><trkpt lat="46.5657517" lon="12.1214667"><ele>1288.0</ele><time>2026-05-02T13:31:39.398Z</time></trkpt><trkpt lat="46.5659233" lon="12.12144"><ele>1288.0</ele><time>2026-05-02T13:31:40.397Z</time></trkpt><trkpt lat="46.566095" lon="12.12142"><ele>1288.0</ele><time>2026-05-02T13:31:41.398Z</time></trkpt><trkpt lat="46.5662633" lon="12.1214017"><ele>1287.3333333333333</ele><time>2026-05-02T13:31:42.398Z</time></trkpt><trkpt lat="46.566425" lon="12.1213717"><ele>1286.6666666666667</ele><time>2026-05-02T13:31:43.398Z</time></trkpt><trkpt lat="46.5665833" lon="12.1213383"><ele>1286.0</ele><time>2026-05-02T13:31:44.398Z</time></trkpt><trkpt lat="46.5667533" lon="12.121285"><ele>1286.0</ele><time>2026-05-02T13:31:45.398Z</time></trkpt><trkpt lat="46.5669167" lon="12.1211933"><ele>1286.0</ele><time>2026-05-02T13:31:46.398Z</time></trkpt><trkpt lat="46.5670633" lon="12.1210817"><ele>1286.0</ele><time>2026-05-02T13:31:47.398Z</time></trkpt><trkpt lat="46.5672033" lon="12.120955"><ele>1287.0</ele><time>2026-05-02T13:31:48.398Z</time></trkpt><trkpt lat="46.56735" lon="12.1208267"><ele>1288.0</ele><time>2026-05-02T13:31:49.397Z</time></trkpt><trkpt lat="46.5674967" lon="12.1206817"><ele>1289.0</ele><time>2026-05-02T13:31:50.398Z</time></trkpt><trkpt lat="46.5676417" lon="12.1205167"><ele>1289.0</ele><time>2026-05-02T13:31:51.397Z</time></trkpt><trkpt lat="46.5677967" lon="12.1203633"><ele>1289.0</ele><time>2026-05-02T13:31:52.398Z</time></trkpt><trkpt lat="46.56794" lon="12.1202"><ele>1289.0</ele><time>2026-05-02T13:31:53.398Z</time></trkpt><trkpt lat="46.568085" lon="12.1200417"><ele>1291.3333333333335</ele><time>2026-05-02T13:31:54.397Z</time></trkpt><trkpt lat="46.568235" lon="12.11989"><ele>1293.6666666666667</ele><time>2026-05-02T13:31:55.398Z</time></trkpt><trkpt lat="46.5683783" lon="12.1197367"><ele>1296.0</ele><time>2026-05-02T13:31:56.398Z</time></trkpt><trkpt lat="46.5685183" lon="12.1195833"><ele>1296.0</ele><time>2026-05-02T13:31:57.398Z</time></trkpt><trkpt lat="46.568675" lon="12.11943"><ele>1296.0</ele><time>2026-05-02T13:31:58.398Z</time></trkpt><trkpt lat="46.56883" lon="12.11928"><ele>1296.0</ele><time>2026-05-02T13:31:59.398Z</time></trkpt><trkpt lat="46.56898" lon="12.119125"><ele>1294.3333333333333</ele><time>2026-05-02T13:32:00.398Z</time></trkpt><trkpt lat="46.5691267" lon="12.1189883"><ele>1292.6666666666665</ele><time>2026-05-02T13:32:01.398Z</time></trkpt><trkpt lat="46.569295" lon="12.1188733"><ele>1291.0</ele><time>2026-05-02T13:32:02.398Z</time></trkpt><trkpt lat="46.5694717" lon="12.1187833"><ele>1292.0</ele><time>2026-05-02T13:32:03.398Z</time></trkpt><trkpt lat="46.56965" lon="12.1187"><ele>1293.0</ele><time>2026-05-02T13:32:04.397Z</time></trkpt><trkpt lat="46.5698267" lon="12.11863"><ele>1294.0</ele><time>2026-05-02T13:32:05.397Z</time></trkpt><trkpt lat="46.570005" lon="12.1185767"><ele>1294.0</ele><time>2026-05-02T13:32:06.398Z</time></trkpt><trkpt lat="46.5701833" lon="12.1185117"><ele>1294.0</ele><time>2026-05-02T13:32:07.398Z</time></trkpt><trkpt lat="46.5703667" lon="12.11844"><ele>1294.0</ele><time>2026-05-02T13:32:08.397Z</time></trkpt><trkpt lat="46.5705583" lon="12.118385"><ele>1293.3333333333333</ele><time>2026-05-02T13:32:09.398Z</time></trkpt><trkpt lat="46.5707483" lon="12.1183167"><ele>1292.6666666666667</ele><time>2026-05-02T13:32:10.398Z</time></trkpt><trkpt lat="46.570935" lon="12.11824"><ele>1292.0</ele><time>2026-05-02T13:32:11.398Z</time></trkpt><trkpt lat="46.5711217" lon="12.1181667"><ele>1291.0</ele><time>2026-05-02T13:32:12.398Z</time></trkpt><trkpt lat="46.5713033" lon="12.1180917"><ele>1290.0</ele><time>2026-05-02T13:32:13.398Z</time></trkpt><trkpt lat="46.57148" lon="12.11802"><ele>1289.0</ele><time>2026-05-02T13:32:14.398Z</time></trkpt><trkpt lat="46.571645" lon="12.11795"><ele>1289.0</ele><time>2026-05-02T13:32:15.398Z</time></trkpt><trkpt lat="46.5718167" lon="12.11787"><ele>1289.0</ele><time>2026-05-02T13:32:16.398Z</time></trkpt><trkpt lat="46.5719817" lon="12.117805"><ele>1289.0</ele><time>2026-05-02T13:32:17.398Z</time></trkpt><trkpt lat="46.5721483" lon="12.1177383"><ele>1290.3333333333335</ele><time>2026-05-02T13:32:18.398Z</time></trkpt><trkpt lat="46.5723083" lon="12.1176783"><ele>1291.6666666666667</ele><time>2026-05-02T13:32:19.398Z</time></trkpt><trkpt lat="46.5724667" lon="12.1176217"><ele>1293.0</ele><time>2026-05-02T13:32:20.398Z</time></trkpt><trkpt lat="46.57262" lon="12.1175567"><ele>1293.0</ele><time>2026-05-02T13:32:21.398Z</time></trkpt><trkpt lat="46.5727783" lon="12.1174933"><ele>1293.0</ele><time>2026-05-02T13:32:22.397Z</time></trkpt><trkpt lat="46.572935" lon="12.11743"><ele>1293.0</ele><time>2026-05-02T13:32:23.398Z</time></trkpt><trkpt lat="46.5730933" lon="12.1173633"><ele>1295.6666666666667</ele><time>2026-05-02T13:32:24.398Z</time></trkpt><trkpt lat="46.5732467" lon="12.1173017"><ele>1298.3333333333335</ele><time>2026-05-02T13:32:25.398Z</time></trkpt><trkpt lat="46.5733933" lon="12.1172383"><ele>1301.0</ele><time>2026-05-02T13:32:26.398Z</time></trkpt><trkpt lat="46.5735417" lon="12.117175"><ele>1300.3333333333335</ele><time>2026-05-02T13:32:27.398Z</time></trkpt><trkpt lat="46.573695" lon="12.1171033"><ele>1299.6666666666667</ele><time>2026-05-02T13:32:28.397Z</time></trkpt><trkpt lat="46.5738483" lon="12.1170417"><ele>1299.0</ele><time>2026-05-02T13:32:29.398Z</time></trkpt><trkpt lat="46.5739983" lon="12.1169883"><ele>1299.0</ele><time>2026-05-02T13:32:30.398Z</time></trkpt><trkpt lat="46.5741467" lon="12.1169317"><ele>1299.0</ele><time>2026-05-02T13:32:31.398Z</time></trkpt><trkpt lat="46.574295" lon="12.116865"><ele>1299.0</ele><time>2026-05-02T13:32:32.397Z</time></trkpt><trkpt lat="46.57444" lon="12.1168083"><ele>1298.0</ele><time>2026-05-02T13:32:33.398Z</time></trkpt><trkpt lat="46.5746" lon="12.1167517"><ele>1297.0</ele><time>2026-05-02T13:32:34.397Z</time></trkpt><trkpt lat="46.5747567" lon="12.1166917"><ele>1296.0</ele><time>2026-05-02T13:32:35.398Z</time></trkpt><trkpt lat="46.574905" lon="12.11662"><ele>1295.75</ele><time>2026-05-02T13:32:36.398Z</time></trkpt><trkpt lat="46.5750483" lon="12.1165567"><ele>1295.5</ele><time>2026-05-02T13:32:37.398Z</time></trkpt><trkpt lat="46.5751917" lon="12.1164967"><ele>1295.25</ele><time>2026-05-02T13:32:38.397Z</time></trkpt><trkpt lat="46.5753317" lon="12.1164433"><ele>1295.0</ele><time>2026-05-02T13:32:39.397Z</time></trkpt><trkpt lat="46.575475" lon="12.1163917"><ele>1296.25</ele><time>2026-05-02T13:32:40.398Z</time></trkpt><trkpt lat="46.575615" lon="12.1163383"><ele>1297.5</ele><time>2026-05-02T13:32:41.398Z</time></trkpt><trkpt lat="46.5757583" lon="12.1162867"><ele>1298.75</ele><time>2026-05-02T13:32:42.398Z</time></trkpt><trkpt lat="46.5758967" lon="12.1162467"><ele>1300.0</ele><time>2026-05-02T13:32:43.397Z</time></trkpt><trkpt lat="46.576035" lon="12.1162017"><ele>1302.0</ele><time>2026-05-02T13:32:44.398Z</time></trkpt><trkpt lat="46.5761867" lon="12.11615"><ele>1304.0</ele><time>2026-05-02T13:32:45.398Z</time></trkpt><trkpt lat="46.5763333" lon="12.1160917"><ele>1306.0</ele><time>2026-05-02T13:32:46.397Z</time></trkpt><trkpt lat="46.5764783" lon="12.11602"><ele>1306.0</ele><time>2026-05-02T13:32:47.398Z</time></trkpt><trkpt lat="46.5766217" lon="12.1159467"><ele>1306.0</ele><time>2026-05-02T13:32:48.398Z</time></trkpt><trkpt lat="46.5767633" lon="12.1158917"><ele>1306.0</ele><time>2026-05-02T13:32:49.397Z</time></trkpt><trkpt lat="46.57691" lon="12.1158467"><ele>1306.0</ele><time>2026-05-02T13:32:50.398Z</time></trkpt><trkpt lat="46.5770583" lon="12.115795"><ele>1306.0</ele><time>2026-05-02T13:32:51.398Z</time></trkpt><trkpt lat="46.5772117" lon="12.115745"><ele>1306.0</ele><time>2026-05-02T13:32:52.398Z</time></trkpt><trkpt lat="46.577355" lon="12.1156917"><ele>1306.0</ele><time>2026-05-02T13:32:53.398Z</time></trkpt><trkpt lat="46.57749" lon="12.1156183"><ele>1306.0</ele><time>2026-05-02T13:32:54.398Z</time></trkpt><trkpt lat="46.5776467" lon="12.1155583"><ele>1306.0</ele><time>2026-05-02T13:32:55.398Z</time></trkpt><trkpt lat="46.5778067" lon="12.1154967"><ele>1306.0</ele><time>2026-05-02T13:32:56.397Z</time></trkpt><trkpt lat="46.577975" lon="12.1154283"><ele>1306.0</ele><time>2026-05-02T13:32:57.397Z</time></trkpt><trkpt lat="46.5781583" lon="12.1153583"><ele>1305.6666666666665</ele><time>2026-05-02T13:32:58.398Z</time></trkpt><trkpt lat="46.57835" lon="12.115285"><ele>1305.3333333333333</ele><time>2026-05-02T13:32:59.398Z</time></trkpt><trkpt lat="46.5785583" lon="12.1152167"><ele>1305.0</ele><time>2026-05-02T13:33:00.397Z</time></trkpt><trkpt lat="46.5787883" lon="12.1151317"><ele>1305.0</ele><time>2026-05-02T13:33:01.398Z</time></trkpt><trkpt lat="46.5790317" lon="12.1150367"><ele>1305.0</ele><time>2026-05-02T13:33:02.398Z</time></trkpt><trkpt lat="46.5792867" lon="12.1149367"><ele>1305.0</ele><time>2026-05-02T13:33:03.398Z</time></trkpt><trkpt lat="46.57956" lon="12.114825"><ele>1305.0</ele><time>2026-05-02T13:33:04.398Z</time></trkpt><trkpt lat="46.5798467" lon="12.114715"><ele>1305.0</ele><time>2026-05-02T13:33:05.397Z</time></trkpt><trkpt lat="46.5801267" lon="12.1146083"><ele>1305.0</ele><time>2026-05-02T13:33:06.397Z</time></trkpt><trkpt lat="46.58039" lon="12.1144983"><ele>1310.0</ele><time>2026-05-02T13:33:07.397Z</time></trkpt><trkpt lat="46.5806333" lon="12.114365"><ele>1315.0</ele><time>2026-05-02T13:33:08.398Z</time></trkpt><trkpt lat="46.580875" lon="12.114235"><ele>1315.0</ele><time>2026-05-02T13:33:09.398Z</time></trkpt><trkpt lat="46.58109" lon="12.1141083"><ele>1315.0</ele><time>2026-05-02T13:33:10.398Z</time></trkpt><trkpt lat="46.581305" lon="12.1139817"><ele>1315.3333333333333</ele><time>2026-05-02T13:33:11.398Z</time></trkpt><trkpt lat="46.5815067" lon="12.1138633"><ele>1315.6666666666667</ele><time>2026-05-02T13:33:12.398Z</time></trkpt><trkpt lat="46.5817017" lon="12.1137533"><ele>1316.0</ele><time>2026-05-02T13:33:13.398Z</time></trkpt><trkpt lat="46.5819033" lon="12.1136433"><ele>1318.5</ele><time>2026-05-02T13:33:14.397Z</time></trkpt><trkpt lat="46.5821217" lon="12.11354"><ele>1321.0</ele><time>2026-05-02T13:33:15.397Z</time></trkpt><trkpt lat="46.5823383" lon="12.11346"><ele>1321.0</ele><time>2026-05-02T13:33:16.398Z</time></trkpt><trkpt lat="46.582565" lon="12.1134017"><ele>1321.0</ele><time>2026-05-02T13:33:17.398Z</time></trkpt><trkpt lat="46.58279" lon="12.11336"><ele>1323.0</ele><time>2026-05-02T13:33:18.398Z</time></trkpt><trkpt lat="46.58302" lon="12.1133233"><ele>1325.0</ele><time>2026-05-02T13:33:19.398Z</time></trkpt><trkpt lat="46.583245" lon="12.1132667"><ele>1321.0</ele><time>2026-05-02T13:33:20.398Z</time></trkpt><trkpt lat="46.58347" lon="12.1131933"><ele>1317.0</ele><time>2026-05-02T13:33:21.398Z</time></trkpt><trkpt lat="46.583685" lon="12.11313"><ele>1317.0</ele><time>2026-05-02T13:33:22.398Z</time></trkpt><trkpt lat="46.5838983" lon="12.1130683"><ele>1317.0</ele><time>2026-05-02T13:33:23.398Z</time></trkpt><trkpt lat="46.5841" lon="12.1130083"><ele>1317.0</ele><time>2026-05-02T13:33:24.398Z</time></trkpt><trkpt lat="46.5843133" lon="12.1129483"><ele>1317.0</ele><time>2026-05-02T13:33:25.398Z</time></trkpt><trkpt lat="46.5844983" lon="12.1128983"><ele>1317.0</ele><time>2026-05-02T13:33:26.398Z</time></trkpt><trkpt lat="46.5846717" lon="12.1128683"><ele>1317.0</ele><time>2026-05-02T13:33:27.398Z</time></trkpt><trkpt lat="46.5848483" lon="12.11289"><ele>1315.0</ele><time>2026-05-02T13:33:28.398Z</time></trkpt><trkpt lat="46.5850033" lon="12.11297"><ele>1313.0</ele><time>2026-05-02T13:33:29.398Z</time></trkpt><trkpt lat="46.5851567" lon="12.11307"><ele>1311.0</ele><time>2026-05-02T13:33:30.397Z</time></trkpt><trkpt lat="46.5853417" lon="12.1131683"><ele>1316.6666666666667</ele><time>2026-05-02T13:33:31.398Z</time></trkpt><trkpt lat="46.5855133" lon="12.1132483"><ele>1322.3333333333335</ele><time>2026-05-02T13:33:32.398Z</time></trkpt><trkpt lat="46.5857067" lon="12.1132833"><ele>1328.0</ele><time>2026-05-02T13:33:33.398Z</time></trkpt><trkpt lat="46.58592" lon="12.1132917"><ele>1328.0</ele><time>2026-05-02T13:33:34.398Z</time></trkpt><trkpt lat="46.5861233" lon="12.1132967"><ele>1328.0</ele><time>2026-05-02T13:33:35.397Z</time></trkpt><trkpt lat="46.5863267" lon="12.1133133"><ele>1328.0</ele><time>2026-05-02T13:33:36.398Z</time></trkpt><trkpt lat="46.5865283" lon="12.1133483"><ele>1329.3333333333335</ele><time>2026-05-02T13:33:37.398Z</time></trkpt><trkpt lat="46.5867317" lon="12.1133767"><ele>1330.6666666666667</ele><time>2026-05-02T13:33:38.398Z</time></trkpt><trkpt lat="46.5869367" lon="12.1134333"><ele>1332.0</ele><time>2026-05-02T13:33:39.398Z</time></trkpt><trkpt lat="46.5871417" lon="12.113485"><ele>1333.0</ele><time>2026-05-02T13:33:40.398Z</time></trkpt><trkpt lat="46.5873317" lon="12.11353"><ele>1334.0</ele><time>2026-05-02T13:33:41.398Z</time></trkpt><trkpt lat="46.587515" lon="12.1135817"><ele>1335.0</ele><time>2026-05-02T13:33:42.397Z</time></trkpt><trkpt lat="46.587705" lon="12.1136533"><ele>1332.6666666666667</ele><time>2026-05-02T13:33:43.398Z</time></trkpt><trkpt lat="46.5878933" lon="12.1137733"><ele>1330.3333333333335</ele><time>2026-05-02T13:33:44.397Z</time></trkpt><trkpt lat="46.5880667" lon="12.1138967"><ele>1328.0</ele><time>2026-05-02T13:33:45.397Z</time></trkpt><trkpt lat="46.588235" lon="12.11404"><ele>1333.6666666666667</ele><time>2026-05-02T13:33:46.398Z</time></trkpt><trkpt lat="46.5884317" lon="12.1141433"><ele>1339.3333333333333</ele><time>2026-05-02T13:33:47.397Z</time></trkpt><trkpt lat="46.5885967" lon="12.11421"><ele>1345.0</ele><time>2026-05-02T13:33:48.398Z</time></trkpt><trkpt lat="46.588775" lon="12.1142383"><ele>1345.0</ele><time>2026-05-02T13:33:49.398Z</time></trkpt><trkpt lat="46.5889667" lon="12.1141983"><ele>1345.0</ele><time>2026-05-02T13:33:50.398Z</time></trkpt><trkpt lat="46.5891683" lon="12.114165"><ele>1345.0</ele><time>2026-05-02T13:33:51.398Z</time></trkpt><trkpt lat="46.5893783" lon="12.1141433"><ele>1350.0</ele><time>2026-05-02T13:33:52.398Z</time></trkpt><trkpt lat="46.5896017" lon="12.1141317"><ele>1355.0</ele><time>2026-05-02T13:33:53.397Z</time></trkpt><trkpt lat="46.5898317" lon="12.1141217"><ele>1355.0</ele><time>2026-05-02T13:33:54.398Z</time></trkpt><trkpt lat="46.5900567" lon="12.1141133"><ele>1355.0</ele><time>2026-05-02T13:33:55.398Z</time></trkpt><trkpt lat="46.590285" lon="12.114105"><ele>1356.0</ele><time>2026-05-02T13:33:56.398Z</time></trkpt><trkpt lat="46.5905217" lon="12.1140967"><ele>1357.0</ele><time>2026-05-02T13:33:57.398Z</time></trkpt><trkpt lat="46.5907667" lon="12.1140883"><ele>1357.0</ele><time>2026-05-02T13:33:58.397Z</time></trkpt><trkpt lat="46.5910033" lon="12.1141067"><ele>1357.0</ele><time>2026-05-02T13:33:59.398Z</time></trkpt><trkpt lat="46.59124" lon="12.114135"><ele>1356.5</ele><time>2026-05-02T13:34:00.397Z</time></trkpt><trkpt lat="46.59147" lon="12.1141933"><ele>1356.0</ele><time>2026-05-02T13:34:01.398Z</time></trkpt><trkpt lat="46.59169" lon="12.1142667"><ele>1356.0</ele><time>2026-05-02T13:34:02.398Z</time></trkpt><trkpt lat="46.5918917" lon="12.1143317"><ele>1356.0</ele><time>2026-05-02T13:34:03.398Z</time></trkpt><trkpt lat="46.5920833" lon="12.114385"><ele>1356.0</ele><time>2026-05-02T13:34:04.397Z</time></trkpt><trkpt lat="46.59228" lon="12.1144083"><ele>1356.6666666666667</ele><time>2026-05-02T13:34:05.398Z</time></trkpt><trkpt lat="46.5924817" lon="12.1143933"><ele>1357.3333333333335</ele><time>2026-05-02T13:34:06.397Z</time></trkpt><trkpt lat="46.5927" lon="12.1142833"><ele>1358.0</ele><time>2026-05-02T13:34:07.398Z</time></trkpt><trkpt lat="46.5929233" lon="12.1141817"><ele>1348.5</ele><time>2026-05-02T13:34:08.398Z</time></trkpt><trkpt lat="46.593155" lon="12.1141067"><ele>1339.0</ele><time>2026-05-02T13:34:09.398Z</time></trkpt><trkpt lat="46.59339" lon="12.1140333"><ele>1339.0</ele><time>2026-05-02T13:34:10.398Z</time></trkpt><trkpt lat="46.5936183" lon="12.1139633"><ele>1339.0</ele><time>2026-05-02T13:34:11.398Z</time></trkpt><trkpt lat="46.5938383" lon="12.1139033"><ele>1344.3333333333333</ele><time>2026-05-02T13:34:12.398Z</time></trkpt><trkpt lat="46.59404" lon="12.113825"><ele>1349.6666666666667</ele><time>2026-05-02T13:34:13.398Z</time></trkpt><trkpt lat="46.594235" lon="12.1137383"><ele>1355.0</ele><time>2026-05-02T13:34:14.398Z</time></trkpt><trkpt lat="46.5944133" lon="12.113665"><ele>1362.3333333333335</ele><time>2026-05-02T13:34:15.398Z</time></trkpt><trkpt lat="46.5945783" lon="12.11358"><ele>1369.6666666666667</ele><time>2026-05-02T13:34:16.398Z</time></trkpt><trkpt lat="46.594725" lon="12.1134717"><ele>1377.0</ele><time>2026-05-02T13:34:17.397Z</time></trkpt><trkpt lat="46.5948583" lon="12.1133533"><ele>1373.0</ele><time>2026-05-02T13:34:18.398Z</time></trkpt><trkpt lat="46.5949733" lon="12.1132017"><ele>1369.0</ele><time>2026-05-02T13:34:19.397Z</time></trkpt><trkpt lat="46.5950933" lon="12.113055"><ele>1365.0</ele><time>2026-05-02T13:34:20.398Z</time></trkpt><trkpt lat="46.59521" lon="12.1129033"><ele>1365.0</ele><time>2026-05-02T13:34:21.397Z</time></trkpt><trkpt lat="46.59532" lon="12.11271"><ele>1365.0</ele><time>2026-05-02T13:34:22.398Z</time></trkpt><trkpt lat="46.5954133" lon="12.1125083"><ele>1365.0</ele><time>2026-05-02T13:34:23.397Z</time></trkpt><trkpt lat="46.5954933" lon="12.112305"><ele>1376.0</ele><time>2026-05-02T13:34:24.398Z</time></trkpt><trkpt lat="46.5955733" lon="12.11209"><ele>1387.0</ele><time>2026-05-02T13:34:25.397Z</time></trkpt><trkpt lat="46.5956517" lon="12.111875"><ele>1398.0</ele><time>2026-05-02T13:34:26.397Z</time></trkpt><trkpt lat="46.59572" lon="12.11167"><ele>1392.0</ele><time>2026-05-02T13:34:27.397Z</time></trkpt><trkpt lat="46.59579" lon="12.111475"><ele>1386.0</ele><time>2026-05-02T13:34:28.398Z</time></trkpt><trkpt lat="46.595865" lon="12.1112833"><ele>1380.0</ele><time>2026-05-02T13:34:29.397Z</time></trkpt><trkpt lat="46.59594" lon="12.1110933"><ele>1380.0</ele><time>2026-05-02T13:34:30.397Z</time></trkpt><trkpt lat="46.596005" lon="12.1108967"><ele>1380.0</ele><time>2026-05-02T13:34:31.398Z</time></trkpt><trkpt lat="46.596065" lon="12.1107083"><ele>1380.0</ele><time>2026-05-02T13:34:32.398Z</time></trkpt><trkpt lat="46.596125" lon="12.1105217"><ele>1380.0</ele><time>2026-05-02T13:34:33.398Z</time></trkpt><trkpt lat="46.5961783" lon="12.1103533"><ele>1381.6</ele><time>2026-05-02T13:34:34.397Z</time></trkpt><trkpt lat="46.5962483" lon="12.1102117"><ele>1383.2</ele><time>2026-05-02T13:34:35.398Z</time></trkpt><trkpt lat="46.596325" lon="12.1100967"><ele>1384.8000000000002</ele><time>2026-05-02T13:34:36.398Z</time></trkpt><trkpt lat="46.5964117" lon="12.1100267"><ele>1386.4</ele><time>2026-05-02T13:34:37.398Z</time></trkpt><trkpt lat="46.596505" lon="12.1099867"><ele>1388.0</ele><time>2026-05-02T13:34:38.398Z</time></trkpt><trkpt lat="46.5966183" lon="12.10995"><ele>1385.5</ele><time>2026-05-02T13:34:39.398Z</time></trkpt><trkpt lat="46.5967483" lon="12.1099033"><ele>1383.0</ele><time>2026-05-02T13:34:40.398Z</time></trkpt><trkpt lat="46.59689" lon="12.1098517"><ele>1380.5</ele><time>2026-05-02T13:34:41.398Z</time></trkpt><trkpt lat="46.5970417" lon="12.1098117"><ele>1378.0</ele><time>2026-05-02T13:34:42.398Z</time></trkpt><trkpt lat="46.597205" lon="12.1097683"><ele>1378.0</ele><time>2026-05-02T13:34:43.398Z</time></trkpt><trkpt lat="46.5973683" lon="12.1097583"><ele>1378.0</ele><time>2026-05-02T13:34:44.398Z</time></trkpt><trkpt lat="46.5975217" lon="12.109755"><ele>1378.0</ele><time>2026-05-02T13:34:45.398Z</time></trkpt><trkpt lat="46.59766" lon="12.10974"><ele>1378.0</ele><time>2026-05-02T13:34:46.398Z</time></trkpt><trkpt lat="46.5977883" lon="12.1097267"><ele>1378.0</ele><time>2026-05-02T13:34:47.398Z</time></trkpt><trkpt lat="46.59791" lon="12.1097117"><ele>1378.0</ele><time>2026-05-02T13:34:48.398Z</time></trkpt><trkpt lat="46.5980217" lon="12.1096567"><ele>1378.0</ele><time>2026-05-02T13:34:49.398Z</time></trkpt><trkpt lat="46.59813" lon="12.1096"><ele>1379.75</ele><time>2026-05-02T13:34:50.398Z</time></trkpt><trkpt lat="46.59824" lon="12.109525"><ele>1381.5</ele><time>2026-05-02T13:34:51.398Z</time></trkpt><trkpt lat="46.5983483" lon="12.1094417"><ele>1383.25</ele><time>2026-05-02T13:34:52.398Z</time></trkpt><trkpt lat="46.59847" lon="12.10935"><ele>1385.0</ele><time>2026-05-02T13:34:53.398Z</time></trkpt><trkpt lat="46.5986017" lon="12.109265"><ele>1390.5</ele><time>2026-05-02T13:34:54.398Z</time></trkpt><trkpt lat="46.5987417" lon="12.1092117"><ele>1396.0</ele><time>2026-05-02T13:34:55.397Z</time></trkpt><trkpt lat="46.598885" lon="12.1091867"><ele>1401.5</ele><time>2026-05-02T13:34:56.398Z</time></trkpt><trkpt lat="46.5990167" lon="12.1091733"><ele>1407.0</ele><time>2026-05-02T13:34:57.398Z</time></trkpt><trkpt lat="46.59915" lon="12.109165"><ele>1407.0</ele><time>2026-05-02T13:34:58.398Z</time></trkpt><trkpt lat="46.5992867" lon="12.1091333"><ele>1407.0</ele><time>2026-05-02T13:34:59.398Z</time></trkpt><trkpt lat="46.59943" lon="12.1090467"><ele>1407.0</ele><time>2026-05-02T13:35:00.398Z</time></trkpt><trkpt lat="46.5995833" lon="12.10896"><ele>1404.0</ele><time>2026-05-02T13:35:01.397Z</time></trkpt><trkpt lat="46.5997283" lon="12.1088917"><ele>1401.0</ele><time>2026-05-02T13:35:02.398Z</time></trkpt><trkpt lat="46.5998767" lon="12.1088417"><ele>1398.0</ele><time>2026-05-02T13:35:03.398Z</time></trkpt><trkpt lat="46.6000133" lon="12.1088067"><ele>1395.0</ele><time>2026-05-02T13:35:04.398Z</time></trkpt><trkpt lat="46.6001483" lon="12.108765"><ele>1395.0</ele><time>2026-05-02T13:35:05.398Z</time></trkpt><trkpt lat="46.60028" lon="12.1087267"><ele>1395.0</ele><time>2026-05-02T13:35:06.398Z</time></trkpt><trkpt lat="46.6004217" lon="12.1086883"><ele>1395.0</ele><time>2026-05-02T13:35:07.398Z</time></trkpt><trkpt lat="46.6005533" lon="12.108655"><ele>1395.0</ele><time>2026-05-02T13:35:08.398Z</time></trkpt><trkpt lat="46.6006733" lon="12.1086183"><ele>1398.5</ele><time>2026-05-02T13:35:09.398Z</time></trkpt><trkpt lat="46.600805" lon="12.1086133"><ele>1402.0</ele><time>2026-05-02T13:35:10.398Z</time></trkpt><trkpt lat="46.600935" lon="12.1086317"><ele>1405.5</ele><time>2026-05-02T13:35:11.398Z</time></trkpt><trkpt lat="46.60106" lon="12.1086933"><ele>1409.0</ele><time>2026-05-02T13:35:12.398Z</time></trkpt><trkpt lat="46.60117" lon="12.10876"><ele>1411.6</ele><time>2026-05-02T13:35:13.398Z</time></trkpt><trkpt lat="46.6012733" lon="12.1088233"><ele>1414.2</ele><time>2026-05-02T13:35:14.398Z</time></trkpt><trkpt lat="46.601355" lon="12.1088633"><ele>1416.8</ele><time>2026-05-02T13:35:15.398Z</time></trkpt><trkpt lat="46.60145" lon="12.1088583"><ele>1419.3999999999999</ele><time>2026-05-02T13:35:16.398Z</time></trkpt><trkpt lat="46.6015417" lon="12.1088183"><ele>1422.0</ele><time>2026-05-02T13:35:17.398Z</time></trkpt><trkpt lat="46.6016133" lon="12.108735"><ele>1422.0</ele><time>2026-05-02T13:35:18.398Z</time></trkpt><trkpt lat="46.6016717" lon="12.1086167"><ele>1422.0</ele><time>2026-05-02T13:35:19.397Z</time></trkpt><trkpt lat="46.601705" lon="12.1084617"><ele>1422.0</ele><time>2026-05-02T13:35:20.398Z</time></trkpt><trkpt lat="46.6017033" lon="12.108295"><ele>1422.0</ele><time>2026-05-02T13:35:21.398Z</time></trkpt><trkpt lat="46.60169" lon="12.1081367"><ele>1422.0</ele><time>2026-05-02T13:35:22.397Z</time></trkpt><trkpt lat="46.6016933" lon="12.1080133"><ele>1421.8333333333333</ele><time>2026-05-02T13:35:23.398Z</time></trkpt><trkpt lat="46.6017183" lon="12.1079017"><ele>1421.6666666666667</ele><time>2026-05-02T13:35:24.397Z</time></trkpt><trkpt lat="46.6017583" lon="12.107815"><ele>1421.5</ele><time>2026-05-02T13:35:25.398Z</time></trkpt><trkpt lat="46.6018217" lon="12.10774"><ele>1421.3333333333335</ele><time>2026-05-02T13:35:26.398Z</time></trkpt><trkpt lat="46.6019017" lon="12.1076817"><ele>1421.1666666666667</ele><time>2026-05-02T13:35:27.398Z</time></trkpt><trkpt lat="46.6019767" lon="12.10764"><ele>1421.0</ele><time>2026-05-02T13:35:28.398Z</time></trkpt><trkpt lat="46.6020333" lon="12.1075817"><ele>1424.75</ele><time>2026-05-02T13:35:29.398Z</time></trkpt><trkpt lat="46.602135" lon="12.10748"><ele>1428.5</ele><time>2026-05-02T13:35:31.398Z</time></trkpt><trkpt lat="46.6022533" lon="12.10742"><ele>1432.25</ele><time>2026-05-02T13:35:33.397Z</time></trkpt><trkpt lat="46.6023633" lon="12.1074767"><ele>1436.0</ele><time>2026-05-02T13:35:35.398Z</time></trkpt><trkpt lat="46.60235" lon="12.1076717"><ele>1436.0</ele><time>2026-05-02T13:35:37.398Z</time></trkpt><trkpt lat="46.60229" lon="12.1077883"><ele>1436.0</ele><time>2026-05-02T13:35:38.397Z</time></trkpt><trkpt lat="46.602195" lon="12.1079167"><ele>1436.0</ele><time>2026-05-02T13:35:39.398Z</time></trkpt><trkpt lat="46.6020733" lon="12.1080533"><ele>1436.0</ele><time>2026-05-02T13:35:40.398Z</time></trkpt><trkpt lat="46.6019783" lon="12.1081833"><ele>1432.5</ele><time>2026-05-02T13:35:41.398Z</time></trkpt><trkpt lat="46.6019183" lon="12.1083233"><ele>1429.0</ele><time>2026-05-02T13:35:42.397Z</time></trkpt><trkpt lat="46.6019" lon="12.1084667"><ele>1425.5</ele><time>2026-05-02T13:35:43.397Z</time></trkpt><trkpt lat="46.601935" lon="12.1086367"><ele>1422.0</ele><time>2026-05-02T13:35:44.398Z</time></trkpt><trkpt lat="46.60199" lon="12.1088283"><ele>1423.6</ele><time>2026-05-02T13:35:45.397Z</time></trkpt><trkpt lat="46.6020183" lon="12.1089933"><ele>1425.1999999999998</ele><time>2026-05-02T13:35:46.398Z</time></trkpt><trkpt lat="46.6020267" lon="12.109145"><ele>1426.8</ele><time>2026-05-02T13:35:47.398Z</time></trkpt><trkpt lat="46.6019783" lon="12.1092683"><ele>1428.4</ele><time>2026-05-02T13:35:48.397Z</time></trkpt><trkpt lat="46.60188" lon="12.1093767"><ele>1430.0</ele><time>2026-05-02T13:35:49.397Z</time></trkpt><trkpt lat="46.60175" lon="12.109475"><ele>1430.0</ele><time>2026-05-02T13:35:50.398Z</time></trkpt><trkpt lat="46.6016133" lon="12.109565"><ele>1430.0</ele><time>2026-05-02T13:35:51.398Z</time></trkpt><trkpt lat="46.6014883" lon="12.1096567"><ele>1430.0</ele><time>2026-05-02T13:35:52.398Z</time></trkpt><trkpt lat="46.60137" lon="12.1097433"><ele>1430.0</ele><time>2026-05-02T13:35:53.398Z</time></trkpt><trkpt lat="46.60126" lon="12.1098283"><ele>1433.0</ele><time>2026-05-02T13:35:54.397Z</time></trkpt><trkpt lat="46.6011667" lon="12.1099167"><ele>1436.0</ele><time>2026-05-02T13:35:55.398Z</time></trkpt><trkpt lat="46.6010733" lon="12.1100017"><ele>1439.0</ele><time>2026-05-02T13:35:56.398Z</time></trkpt><trkpt lat="46.6009683" lon="12.11007"><ele>1442.0</ele><time>2026-05-02T13:35:57.398Z</time></trkpt><trkpt lat="46.6008583" lon="12.110085"><ele>1445.0</ele><time>2026-05-02T13:35:58.398Z</time></trkpt><trkpt lat="46.6007317" lon="12.110055"><ele>1445.75</ele><time>2026-05-02T13:35:59.398Z</time></trkpt><trkpt lat="46.6006233" lon="12.10999"><ele>1446.5</ele><time>2026-05-02T13:36:00.398Z</time></trkpt><trkpt lat="46.6005133" lon="12.1098983"><ele>1447.25</ele><time>2026-05-02T13:36:01.397Z</time></trkpt><trkpt lat="46.6004067" lon="12.1097917"><ele>1448.0</ele><time>2026-05-02T13:36:02.398Z</time></trkpt><trkpt lat="46.60032" lon="12.1097033"><ele>1443.8000000000002</ele><time>2026-05-02T13:36:03.398Z</time></trkpt><trkpt lat="46.6002467" lon="12.1096417"><ele>1439.6</ele><time>2026-05-02T13:36:04.397Z</time></trkpt><trkpt lat="46.6001517" lon="12.10962"><ele>1435.4</ele><time>2026-05-02T13:36:05.398Z</time></trkpt><trkpt lat="46.600045" lon="12.1096217"><ele>1431.1999999999998</ele><time>2026-05-02T13:36:06.397Z</time></trkpt><trkpt lat="46.5999417" lon="12.1096433"><ele>1427.0</ele><time>2026-05-02T13:36:07.397Z</time></trkpt><trkpt lat="46.5998267" lon="12.10966"><ele>1427.0</ele><time>2026-05-02T13:36:08.397Z</time></trkpt><trkpt lat="46.599725" lon="12.1096567"><ele>1427.0</ele><time>2026-05-02T13:36:09.398Z</time></trkpt><trkpt lat="46.5996117" lon="12.109625"><ele>1427.0</ele><time>2026-05-02T13:36:10.397Z</time></trkpt><trkpt lat="46.599505" lon="12.1095867"><ele>1427.0</ele><time>2026-05-02T13:36:11.398Z</time></trkpt><trkpt lat="46.5993967" lon="12.1095417"><ele>1427.0</ele><time>2026-05-02T13:36:12.398Z</time></trkpt><trkpt lat="46.5992917" lon="12.1095467"><ele>1423.0</ele><time>2026-05-02T13:36:13.398Z</time></trkpt><trkpt lat="46.5991883" lon="12.109595"><ele>1419.0</ele><time>2026-05-02T13:36:14.398Z</time></trkpt><trkpt lat="46.5990867" lon="12.10964"><ele>1415.0</ele><time>2026-05-02T13:36:15.398Z</time></trkpt><trkpt lat="46.5989933" lon="12.1096933"><ele>1411.0</ele><time>2026-05-02T13:36:16.398Z</time></trkpt><trkpt lat="46.5989067" lon="12.1097467"><ele>1407.0</ele><time>2026-05-02T13:36:17.398Z</time></trkpt><trkpt lat="46.598835" lon="12.1098083"><ele>1407.0</ele><time>2026-05-02T13:36:18.398Z</time></trkpt><trkpt lat="46.59877" lon="12.109875"><ele>1407.0</ele><time>2026-05-02T13:36:19.398Z</time></trkpt><trkpt lat="46.5987433" lon="12.1099867"><ele>1407.0</ele><time>2026-05-02T13:36:20.398Z</time></trkpt><trkpt lat="46.5987433" lon="12.1101133"><ele>1407.0</ele><time>2026-05-02T13:36:21.398Z</time></trkpt><trkpt lat="46.5988017" lon="12.1102567"><ele>1407.0</ele><time>2026-05-02T13:36:22.398Z</time></trkpt><trkpt lat="46.5988967" lon="12.1104033"><ele>1418.75</ele><time>2026-05-02T13:36:23.398Z</time></trkpt><trkpt lat="46.5989983" lon="12.1105483"><ele>1430.5</ele><time>2026-05-02T13:36:24.397Z</time></trkpt><trkpt lat="46.599105" lon="12.110675"><ele>1442.25</ele><time>2026-05-02T13:36:25.397Z</time></trkpt><trkpt lat="46.5991967" lon="12.1107983"><ele>1454.0</ele><time>2026-05-02T13:36:26.398Z</time></trkpt><trkpt lat="46.5992917" lon="12.1108867"><ele>1455.8000000000002</ele><time>2026-05-02T13:36:27.398Z</time></trkpt><trkpt lat="46.5993817" lon="12.1109533"><ele>1457.6000000000001</ele><time>2026-05-02T13:36:28.398Z</time></trkpt><trkpt lat="46.5994717" lon="12.1110067"><ele>1459.4</ele><time>2026-05-02T13:36:29.398Z</time></trkpt><trkpt lat="46.599565" lon="12.1110467"><ele>1461.2</ele><time>2026-05-02T13:36:30.397Z</time></trkpt><trkpt lat="46.5996583" lon="12.11109"><ele>1463.0</ele><time>2026-05-02T13:36:31.398Z</time></trkpt><trkpt lat="46.59975" lon="12.1111217"><ele>1463.6000000000001</ele><time>2026-05-02T13:36:32.398Z</time></trkpt><trkpt lat="46.5998333" lon="12.11116"><ele>1464.2</ele><time>2026-05-02T13:36:33.398Z</time></trkpt><trkpt lat="46.5999117" lon="12.1112183"><ele>1464.8</ele><time>2026-05-02T13:36:34.398Z</time></trkpt><trkpt lat="46.5999817" lon="12.1112967"><ele>1465.4</ele><time>2026-05-02T13:36:35.398Z</time></trkpt><trkpt lat="46.600035" lon="12.1114117"><ele>1466.0</ele><time>2026-05-02T13:36:36.398Z</time></trkpt><trkpt lat="46.6000517" lon="12.111575"><ele>1466.0</ele><time>2026-05-02T13:36:37.397Z</time></trkpt><trkpt lat="46.60004" lon="12.1117683"><ele>1466.0</ele><time>2026-05-02T13:36:38.398Z</time></trkpt><trkpt lat="46.5999867" lon="12.1119517"><ele>1466.0</ele><time>2026-05-02T13:36:39.397Z</time></trkpt><trkpt lat="46.5998917" lon="12.1121267"><ele>1466.0</ele><time>2026-05-02T13:36:40.398Z</time></trkpt><trkpt lat="46.5997933" lon="12.1123"><ele>1468.0</ele><time>2026-05-02T13:36:41.398Z</time></trkpt><trkpt lat="46.5996867" lon="12.11245"><ele>1470.0</ele><time>2026-05-02T13:36:42.398Z</time></trkpt><trkpt lat="46.599595" lon="12.1126033"><ele>1472.0</ele><time>2026-05-02T13:36:43.398Z</time></trkpt><trkpt lat="46.5995233" lon="12.1127433"><ele>1474.0</ele><time>2026-05-02T13:36:44.398Z</time></trkpt><trkpt lat="46.599465" lon="12.1129017"><ele>1474.0</ele><time>2026-05-02T13:36:45.398Z</time></trkpt><trkpt lat="46.5994217" lon="12.1130567"><ele>1474.0</ele><time>2026-05-02T13:36:46.397Z</time></trkpt><trkpt lat="46.599395" lon="12.1132217"><ele>1474.0</ele><time>2026-05-02T13:36:47.397Z</time></trkpt><trkpt lat="46.5993783" lon="12.11338"><ele>1474.0</ele><time>2026-05-02T13:36:48.397Z</time></trkpt><trkpt lat="46.599375" lon="12.11353"><ele>1474.0</ele><time>2026-05-02T13:36:49.397Z</time></trkpt><trkpt lat="46.59938" lon="12.113675"><ele>1474.8000000000002</ele><time>2026-05-02T13:36:50.397Z</time></trkpt><trkpt lat="46.59939" lon="12.1138167"><ele>1475.6000000000001</ele><time>2026-05-02T13:36:51.398Z</time></trkpt><trkpt lat="46.5994017" lon="12.1139583"><ele>1476.4</ele><time>2026-05-02T13:36:52.398Z</time></trkpt><trkpt lat="46.59942" lon="12.1140967"><ele>1477.2</ele><time>2026-05-02T13:36:53.398Z</time></trkpt><trkpt lat="46.5994383" lon="12.1142333"><ele>1478.0</ele><time>2026-05-02T13:36:54.398Z</time></trkpt><trkpt lat="46.5994583" lon="12.1143683"><ele>1478.0</ele><time>2026-05-02T13:36:55.397Z</time></trkpt><trkpt lat="46.5994717" lon="12.1145"><ele>1478.0</ele><time>2026-05-02T13:36:56.398Z</time></trkpt><trkpt lat="46.59949" lon="12.1146417"><ele>1478.0</ele><time>2026-05-02T13:36:57.398Z</time></trkpt><trkpt lat="46.5995083" lon="12.1147917"><ele>1478.0</ele><time>2026-05-02T13:36:58.398Z</time></trkpt><trkpt lat="46.5995167" lon="12.1149567"><ele>1478.0</ele><time>2026-05-02T13:36:59.398Z</time></trkpt><trkpt lat="46.5995167" lon="12.1151517"><ele>1478.75</ele><time>2026-05-02T13:37:00.398Z</time></trkpt><trkpt lat="46.5994983" lon="12.115345"><ele>1479.5</ele><time>2026-05-02T13:37:01.398Z</time></trkpt><trkpt lat="46.599475" lon="12.11553"><ele>1480.25</ele><time>2026-05-02T13:37:02.398Z</time></trkpt><trkpt lat="46.59945" lon="12.1157"><ele>1481.0</ele><time>2026-05-02T13:37:03.398Z</time></trkpt><trkpt lat="46.599435" lon="12.115855"><ele>1481.4</ele><time>2026-05-02T13:37:04.397Z</time></trkpt><trkpt lat="46.5994183" lon="12.1160133"><ele>1481.8</ele><time>2026-05-02T13:37:05.398Z</time></trkpt><trkpt lat="46.5994017" lon="12.11617"><ele>1482.2</ele><time>2026-05-02T13:37:06.398Z</time></trkpt><trkpt lat="46.59941" lon="12.1163317"><ele>1482.6000000000001</ele><time>2026-05-02T13:37:07.398Z</time></trkpt><trkpt lat="46.5994133" lon="12.1164983"><ele>1483.0</ele><time>2026-05-02T13:37:08.398Z</time></trkpt><trkpt lat="46.599425" lon="12.116675"><ele>1483.5</ele><time>2026-05-02T13:37:09.397Z</time></trkpt><trkpt lat="46.5993983" lon="12.1168583"><ele>1484.0</ele><time>2026-05-02T13:37:10.398Z</time></trkpt><trkpt lat="46.5993567" lon="12.1170267"><ele>1484.5</ele><time>2026-05-02T13:37:11.398Z</time></trkpt><trkpt lat="46.5993167" lon="12.1171733"><ele>1485.0</ele><time>2026-05-02T13:37:12.398Z</time></trkpt><trkpt lat="46.5992867" lon="12.11732"><ele>1485.0</ele><time>2026-05-02T13:37:13.397Z</time></trkpt><trkpt lat="46.59927" lon="12.1174683"><ele>1485.0</ele><time>2026-05-02T13:37:14.397Z</time></trkpt><trkpt lat="46.5992717" lon="12.1176383"><ele>1485.0</ele><time>2026-05-02T13:37:15.398Z</time></trkpt><trkpt lat="46.59929" lon="12.1178233"><ele>1485.0</ele><time>2026-05-02T13:37:16.398Z</time></trkpt><trkpt lat="46.5993283" lon="12.1180133"><ele>1485.0</ele><time>2026-05-02T13:37:17.398Z</time></trkpt><trkpt lat="46.599365" lon="12.118215"><ele>1485.0</ele><time>2026-05-02T13:37:18.398Z</time></trkpt><trkpt lat="46.5994" lon="12.1184167"><ele>1485.0</ele><time>2026-05-02T13:37:19.398Z</time></trkpt><trkpt lat="46.5994417" lon="12.1186183"><ele>1485.0</ele><time>2026-05-02T13:37:20.398Z</time></trkpt><trkpt lat="46.599485" lon="12.1188117"><ele>1488.75</ele><time>2026-05-02T13:37:21.398Z</time></trkpt><trkpt lat="46.5995367" lon="12.1189967"><ele>1492.5</ele><time>2026-05-02T13:37:22.398Z</time></trkpt><trkpt lat="46.599595" lon="12.1191783"><ele>1496.25</ele><time>2026-05-02T13:37:23.398Z</time></trkpt><trkpt lat="46.5996567" lon="12.1193433"><ele>1500.0</ele><time>2026-05-02T13:37:24.397Z</time></trkpt><trkpt lat="46.5997133" lon="12.119505"><ele>1500.0</ele><time>2026-05-02T13:37:25.398Z</time></trkpt><trkpt lat="46.5997767" lon="12.1196533"><ele>1500.0</ele><time>2026-05-02T13:37:26.398Z</time></trkpt><trkpt lat="46.59985" lon="12.1197933"><ele>1500.0</ele><time>2026-05-02T13:37:27.398Z</time></trkpt><trkpt lat="46.5999317" lon="12.119925"><ele>1500.0</ele><time>2026-05-02T13:37:28.398Z</time></trkpt><trkpt lat="46.6000133" lon="12.1200567"><ele>1498.0</ele><time>2026-05-02T13:37:29.397Z</time></trkpt><trkpt lat="46.6000883" lon="12.1201833"><ele>1496.0</ele><time>2026-05-02T13:37:30.398Z</time></trkpt><trkpt lat="46.6001617" lon="12.1203033"><ele>1494.0</ele><time>2026-05-02T13:37:31.398Z</time></trkpt><trkpt lat="46.6002267" lon="12.120445"><ele>1492.0</ele><time>2026-05-02T13:37:32.398Z</time></trkpt><trkpt lat="46.600265" lon="12.1206017"><ele>1490.5</ele><time>2026-05-02T13:37:33.398Z</time></trkpt><trkpt lat="46.6002917" lon="12.12078"><ele>1489.0</ele><time>2026-05-02T13:37:34.397Z</time></trkpt><trkpt lat="46.6002967" lon="12.1209533"><ele>1487.5</ele><time>2026-05-02T13:37:35.398Z</time></trkpt><trkpt lat="46.6002933" lon="12.121115"><ele>1486.0</ele><time>2026-05-02T13:37:36.398Z</time></trkpt><trkpt lat="46.60028" lon="12.1212633"><ele>1486.0</ele><time>2026-05-02T13:37:37.397Z</time></trkpt><trkpt lat="46.6002717" lon="12.1214083"><ele>1486.0</ele><time>2026-05-02T13:37:38.398Z</time></trkpt><trkpt lat="46.6002817" lon="12.1215883"><ele>1486.0</ele><time>2026-05-02T13:37:39.398Z</time></trkpt><trkpt lat="46.6003083" lon="12.121805"><ele>1486.0</ele><time>2026-05-02T13:37:40.398Z</time></trkpt><trkpt lat="46.6003583" lon="12.1220417"><ele>1492.6666666666665</ele><time>2026-05-02T13:37:41.398Z</time></trkpt><trkpt lat="46.600405" lon="12.122285"><ele>1499.3333333333333</ele><time>2026-05-02T13:37:42.398Z</time></trkpt><trkpt lat="46.6004567" lon="12.1225267"><ele>1506.0</ele><time>2026-05-02T13:37:43.398Z</time></trkpt><trkpt lat="46.600495" lon="12.1227767"><ele>1506.0</ele><time>2026-05-02T13:37:44.397Z</time></trkpt><trkpt lat="46.6005183" lon="12.1230317"><ele>1506.0</ele><time>2026-05-02T13:37:45.397Z</time></trkpt><trkpt lat="46.6005367" lon="12.1232767"><ele>1506.0</ele><time>2026-05-02T13:37:46.398Z</time></trkpt><trkpt lat="46.600555" lon="12.1235167"><ele>1505.25</ele><time>2026-05-02T13:37:47.398Z</time></trkpt><trkpt lat="46.6005683" lon="12.1237367"><ele>1504.5</ele><time>2026-05-02T13:37:48.398Z</time></trkpt><trkpt lat="46.60059" lon="12.12395"><ele>1503.75</ele><time>2026-05-02T13:37:49.398Z</time></trkpt><trkpt lat="46.6005967" lon="12.1241317"><ele>1503.0</ele><time>2026-05-02T13:37:50.398Z</time></trkpt><trkpt lat="46.6006117" lon="12.124315"><ele>1503.0</ele><time>2026-05-02T13:37:51.398Z</time></trkpt><trkpt lat="46.6006383" lon="12.1244883"><ele>1503.0</ele><time>2026-05-02T13:37:52.398Z</time></trkpt><trkpt lat="46.6006833" lon="12.1246417"><ele>1503.0</ele><time>2026-05-02T13:37:53.397Z</time></trkpt><trkpt lat="46.6007667" lon="12.1247817"><ele>1503.0</ele><time>2026-05-02T13:37:54.398Z</time></trkpt><trkpt lat="46.60087" lon="12.1249117"><ele>1500.25</ele><time>2026-05-02T13:37:55.398Z</time></trkpt><trkpt lat="46.600975" lon="12.1250333"><ele>1497.5</ele><time>2026-05-02T13:37:56.398Z</time></trkpt><trkpt lat="46.601065" lon="12.1251733"><ele>1494.75</ele><time>2026-05-02T13:37:57.398Z</time></trkpt><trkpt lat="46.60113" lon="12.1253633"><ele>1492.0</ele><time>2026-05-02T13:37:58.397Z</time></trkpt><trkpt lat="46.60116" lon="12.12557"><ele>1490.25</ele><time>2026-05-02T13:37:59.398Z</time></trkpt><trkpt lat="46.6011783" lon="12.1257733"><ele>1488.5</ele><time>2026-05-02T13:38:00.398Z</time></trkpt><trkpt lat="46.60117" lon="12.12598"><ele>1486.75</ele><time>2026-05-02T13:38:01.398Z</time></trkpt><trkpt lat="46.6011433" lon="12.1261867"><ele>1485.0</ele><time>2026-05-02T13:38:02.397Z</time></trkpt><trkpt lat="46.6011283" lon="12.1263867"><ele>1489.0</ele><time>2026-05-02T13:38:03.398Z</time></trkpt><trkpt lat="46.60113" lon="12.1266067"><ele>1493.0</ele><time>2026-05-02T13:38:04.398Z</time></trkpt><trkpt lat="46.6011633" lon="12.126835"><ele>1497.0</ele><time>2026-05-02T13:38:05.398Z</time></trkpt><trkpt lat="46.6012167" lon="12.1270483"><ele>1500.3333333333333</ele><time>2026-05-02T13:38:06.398Z</time></trkpt><trkpt lat="46.6012633" lon="12.127275"><ele>1503.6666666666665</ele><time>2026-05-02T13:38:07.398Z</time></trkpt><trkpt lat="46.601295" lon="12.127525"><ele>1507.0</ele><time>2026-05-02T13:38:08.397Z</time></trkpt><trkpt lat="46.6013133" lon="12.1278167"><ele>1507.0</ele><time>2026-05-02T13:38:09.398Z</time></trkpt><trkpt lat="46.60133" lon="12.128155"><ele>1507.0</ele><time>2026-05-02T13:38:10.398Z</time></trkpt><trkpt lat="46.601345" lon="12.1285167"><ele>1508.0</ele><time>2026-05-02T13:38:11.398Z</time></trkpt><trkpt lat="46.6013383" lon="12.1288883"><ele>1509.0</ele><time>2026-05-02T13:38:12.398Z</time></trkpt><trkpt lat="46.6013467" lon="12.1292717"><ele>1509.0</ele><time>2026-05-02T13:38:13.398Z</time></trkpt><trkpt lat="46.6013483" lon="12.129665"><ele>1509.0</ele><time>2026-05-02T13:38:14.398Z</time></trkpt><trkpt lat="46.6013583" lon="12.1300417"><ele>1508.5</ele><time>2026-05-02T13:38:15.398Z</time></trkpt><trkpt lat="46.601375" lon="12.1304033"><ele>1508.0</ele><time>2026-05-02T13:38:16.398Z</time></trkpt><trkpt lat="46.6013967" lon="12.1307633"><ele>1507.0</ele><time>2026-05-02T13:38:17.398Z</time></trkpt><trkpt lat="46.601415" lon="12.1311117"><ele>1506.0</ele><time>2026-05-02T13:38:18.398Z</time></trkpt><trkpt lat="46.6014183" lon="12.13146"><ele>1506.3333333333333</ele><time>2026-05-02T13:38:19.398Z</time></trkpt><trkpt lat="46.6014117" lon="12.1317933"><ele>1506.6666666666665</ele><time>2026-05-02T13:38:20.398Z</time></trkpt><trkpt lat="46.60139" lon="12.1320883"><ele>1507.0</ele><time>2026-05-02T13:38:21.398Z</time></trkpt><trkpt lat="46.60136" lon="12.1323667"><ele>1507.3333333333333</ele><time>2026-05-02T13:38:22.398Z</time></trkpt><trkpt lat="46.60134" lon="12.132645"><ele>1507.6666666666667</ele><time>2026-05-02T13:38:23.398Z</time></trkpt><trkpt lat="46.60135" lon="12.1329233"><ele>1508.0</ele><time>2026-05-02T13:38:24.398Z</time></trkpt><trkpt lat="46.601355" lon="12.133185"><ele>1510.0</ele><time>2026-05-02T13:38:25.398Z</time></trkpt><trkpt lat="46.6013717" lon="12.1334433"><ele>1512.0</ele><time>2026-05-02T13:38:26.398Z</time></trkpt><trkpt lat="46.601385" lon="12.1336833"><ele>1514.0</ele><time>2026-05-02T13:38:27.398Z</time></trkpt><trkpt lat="46.60141" lon="12.1339083"><ele>1512.25</ele><time>2026-05-02T13:38:28.398Z</time></trkpt><trkpt lat="46.60143" lon="12.1341083"><ele>1510.5</ele><time>2026-05-02T13:38:29.398Z</time></trkpt><trkpt lat="46.6014433" lon="12.1342967"><ele>1508.75</ele><time>2026-05-02T13:38:30.397Z</time></trkpt><trkpt lat="46.6014533" lon="12.1344583"><ele>1507.0</ele><time>2026-05-02T13:38:31.398Z</time></trkpt><trkpt lat="46.6014633" lon="12.134605"><ele>1507.0</ele><time>2026-05-02T13:38:32.397Z</time></trkpt><trkpt lat="46.601475" lon="12.1347417"><ele>1507.0</ele><time>2026-05-02T13:38:33.398Z</time></trkpt><trkpt lat="46.601495" lon="12.1348783"><ele>1507.0</ele><time>2026-05-02T13:38:34.398Z</time></trkpt><trkpt lat="46.6015133" lon="12.1350117"><ele>1507.0</ele><time>2026-05-02T13:38:35.398Z</time></trkpt><trkpt lat="46.60154" lon="12.135155"><ele>1507.0</ele><time>2026-05-02T13:38:36.398Z</time></trkpt><trkpt lat="46.6015617" lon="12.1352917"><ele>1506.1666666666665</ele><time>2026-05-02T13:38:37.398Z</time></trkpt><trkpt lat="46.6015833" lon="12.1354183"><ele>1505.3333333333333</ele><time>2026-05-02T13:38:38.398Z</time></trkpt><trkpt lat="46.6016033" lon="12.1355383"><ele>1504.5</ele><time>2026-05-02T13:38:39.398Z</time></trkpt><trkpt lat="46.6016317" lon="12.1356583"><ele>1503.6666666666667</ele><time>2026-05-02T13:38:40.397Z</time></trkpt><trkpt lat="46.6016617" lon="12.1357867"><ele>1502.8333333333335</ele><time>2026-05-02T13:38:41.398Z</time></trkpt><trkpt lat="46.6016883" lon="12.1359167"><ele>1502.0</ele><time>2026-05-02T13:38:42.397Z</time></trkpt><trkpt lat="46.6017083" lon="12.13604"><ele>1501.0</ele><time>2026-05-02T13:38:43.397Z</time></trkpt><trkpt lat="46.60173" lon="12.1361683"><ele>1500.0</ele><time>2026-05-02T13:38:44.398Z</time></trkpt><trkpt lat="46.6017517" lon="12.1362933"><ele>1499.0</ele><time>2026-05-02T13:38:45.398Z</time></trkpt><trkpt lat="46.601765" lon="12.1364333"><ele>1498.0</ele><time>2026-05-02T13:38:46.398Z</time></trkpt><trkpt lat="46.6017733" lon="12.13659"><ele>1497.0</ele><time>2026-05-02T13:38:47.397Z</time></trkpt><trkpt lat="46.6017783" lon="12.136755"><ele>1495.1999999999998</ele><time>2026-05-02T13:38:48.398Z</time></trkpt><trkpt lat="46.6017833" lon="12.136915"><ele>1493.4</ele><time>2026-05-02T13:38:49.398Z</time></trkpt><trkpt lat="46.6018017" lon="12.137075"><ele>1491.6</ele><time>2026-05-02T13:38:50.398Z</time></trkpt><trkpt lat="46.6018183" lon="12.13723"><ele>1489.8000000000002</ele><time>2026-05-02T13:38:51.398Z</time></trkpt><trkpt lat="46.6018383" lon="12.1373867"><ele>1488.0</ele><time>2026-05-02T13:38:52.398Z</time></trkpt><trkpt lat="46.6018567" lon="12.13754"><ele>1486.8000000000002</ele><time>2026-05-02T13:38:53.398Z</time></trkpt><trkpt lat="46.6018733" lon="12.1376833"><ele>1485.6</ele><time>2026-05-02T13:38:54.398Z</time></trkpt><trkpt lat="46.6018867" lon="12.1378217"><ele>1484.4</ele><time>2026-05-02T13:38:55.398Z</time></trkpt><trkpt lat="46.6018967" lon="12.137965"><ele>1483.1999999999998</ele><time>2026-05-02T13:38:56.398Z</time></trkpt><trkpt lat="46.6019167" lon="12.1381083"><ele>1482.0</ele><time>2026-05-02T13:38:57.398Z</time></trkpt><trkpt lat="46.601935" lon="12.1382683"><ele>1481.75</ele><time>2026-05-02T13:38:58.398Z</time></trkpt><trkpt lat="46.601955" lon="12.1384333"><ele>1481.5</ele><time>2026-05-02T13:38:59.397Z</time></trkpt><trkpt lat="46.6019733" lon="12.1385933"><ele>1481.25</ele><time>2026-05-02T13:39:00.398Z</time></trkpt><trkpt lat="46.601995" lon="12.13876"><ele>1481.0</ele><time>2026-05-02T13:39:01.398Z</time></trkpt><trkpt lat="46.602025" lon="12.1389183"><ele>1487.25</ele><time>2026-05-02T13:39:02.398Z</time></trkpt><trkpt lat="46.6020617" lon="12.1390867"><ele>1493.5</ele><time>2026-05-02T13:39:03.398Z</time></trkpt><trkpt lat="46.6021" lon="12.1392633"><ele>1499.75</ele><time>2026-05-02T13:39:04.398Z</time></trkpt><trkpt lat="46.6021433" lon="12.13945"><ele>1506.0</ele><time>2026-05-02T13:39:05.398Z</time></trkpt><trkpt lat="46.6021933" lon="12.13965"><ele>1506.0</ele><time>2026-05-02T13:39:06.397Z</time></trkpt><trkpt lat="46.6022467" lon="12.1398583"><ele>1506.0</ele><time>2026-05-02T13:39:07.398Z</time></trkpt><trkpt lat="46.6023" lon="12.1400633"><ele>1506.0</ele><time>2026-05-02T13:39:08.398Z</time></trkpt><trkpt lat="46.6023467" lon="12.140265"><ele>1504.5</ele><time>2026-05-02T13:39:09.398Z</time></trkpt><trkpt lat="46.6023983" lon="12.1404617"><ele>1503.0</ele><time>2026-05-02T13:39:10.398Z</time></trkpt><trkpt lat="46.60245" lon="12.1406633"><ele>1501.5</ele><time>2026-05-02T13:39:11.398Z</time></trkpt><trkpt lat="46.60249" lon="12.1408667"><ele>1500.0</ele><time>2026-05-02T13:39:12.398Z</time></trkpt><trkpt lat="46.6025317" lon="12.1410617"><ele>1498.25</ele><time>2026-05-02T13:39:13.398Z</time></trkpt><trkpt lat="46.602595" lon="12.14125"><ele>1496.5</ele><time>2026-05-02T13:39:14.397Z</time></trkpt><trkpt lat="46.6026617" lon="12.1414383"><ele>1494.75</ele><time>2026-05-02T13:39:15.398Z</time></trkpt><trkpt lat="46.6027267" lon="12.141615"><ele>1493.0</ele><time>2026-05-02T13:39:16.398Z</time></trkpt><trkpt lat="46.6027817" lon="12.1417817"><ele>1497.75</ele><time>2026-05-02T13:39:17.397Z</time></trkpt><trkpt lat="46.60284" lon="12.1419467"><ele>1502.5</ele><time>2026-05-02T13:39:18.397Z</time></trkpt><trkpt lat="46.60289" lon="12.1421067"><ele>1507.25</ele><time>2026-05-02T13:39:19.397Z</time></trkpt><trkpt lat="46.6029467" lon="12.142245"><ele>1512.0</ele><time>2026-05-02T13:39:20.398Z</time></trkpt><trkpt lat="46.6030067" lon="12.14237"><ele>1508.3999999999999</ele><time>2026-05-02T13:39:21.398Z</time></trkpt><trkpt lat="46.6030817" lon="12.1424733"><ele>1504.8</ele><time>2026-05-02T13:39:22.398Z</time></trkpt><trkpt lat="46.6031733" lon="12.142555"><ele>1501.2</ele><time>2026-05-02T13:39:23.398Z</time></trkpt><trkpt lat="46.6032683" lon="12.1426433"><ele>1497.6</ele><time>2026-05-02T13:39:24.398Z</time></trkpt><trkpt lat="46.6033833" lon="12.14271"><ele>1494.0</ele><time>2026-05-02T13:39:25.397Z</time></trkpt><trkpt lat="46.603505" lon="12.1428017"><ele>1494.0</ele><time>2026-05-02T13:39:26.397Z</time></trkpt><trkpt lat="46.6036283" lon="12.142895"><ele>1494.0</ele><time>2026-05-02T13:39:27.398Z</time></trkpt><trkpt lat="46.6037483" lon="12.14302"><ele>1494.0</ele><time>2026-05-02T13:39:28.398Z</time></trkpt><trkpt lat="46.6038733" lon="12.14317"><ele>1494.0</ele><time>2026-05-02T13:39:29.397Z</time></trkpt><trkpt lat="46.6039917" lon="12.143335"><ele>1494.6666666666667</ele><time>2026-05-02T13:39:30.397Z</time></trkpt><trkpt lat="46.6041033" lon="12.143515"><ele>1495.3333333333335</ele><time>2026-05-02T13:39:31.397Z</time></trkpt><trkpt lat="46.6042183" lon="12.1437017"><ele>1496.0</ele><time>2026-05-02T13:39:32.398Z</time></trkpt><trkpt lat="46.6043333" lon="12.14388"><ele>1492.6666666666667</ele><time>2026-05-02T13:39:33.398Z</time></trkpt><trkpt lat="46.6044417" lon="12.14407"><ele>1489.3333333333333</ele><time>2026-05-02T13:39:34.398Z</time></trkpt><trkpt lat="46.6045283" lon="12.1442633"><ele>1486.0</ele><time>2026-05-02T13:39:35.398Z</time></trkpt><trkpt lat="46.6045967" lon="12.14447"><ele>1492.0</ele><time>2026-05-02T13:39:36.398Z</time></trkpt><trkpt lat="46.604635" lon="12.144685"><ele>1498.0</ele><time>2026-05-02T13:39:37.397Z</time></trkpt><trkpt lat="46.6046633" lon="12.144885"><ele>1504.0</ele><time>2026-05-02T13:39:38.398Z</time></trkpt><trkpt lat="46.604695" lon="12.145085"><ele>1510.0</ele><time>2026-05-02T13:39:39.397Z</time></trkpt><trkpt lat="46.6047367" lon="12.1452783"><ele>1510.0</ele><time>2026-05-02T13:39:40.398Z</time></trkpt><trkpt lat="46.604795" lon="12.145465"><ele>1510.0</ele><time>2026-05-02T13:39:41.398Z</time></trkpt><trkpt lat="46.60487" lon="12.1456367"><ele>1510.0</ele><time>2026-05-02T13:39:42.398Z</time></trkpt><trkpt lat="46.60496" lon="12.145795"><ele>1510.0</ele><time>2026-05-02T13:39:43.398Z</time></trkpt><trkpt lat="46.6050483" lon="12.1459433"><ele>1508.25</ele><time>2026-05-02T13:39:44.398Z</time></trkpt><trkpt lat="46.605125" lon="12.1460967"><ele>1506.5</ele><time>2026-05-02T13:39:45.398Z</time></trkpt><trkpt lat="46.6051867" lon="12.1462733"><ele>1504.75</ele><time>2026-05-02T13:39:46.398Z</time></trkpt><trkpt lat="46.60522" lon="12.1464783"><ele>1503.0</ele><time>2026-05-02T13:39:47.398Z</time></trkpt><trkpt lat="46.60524" lon="12.146695"><ele>1500.75</ele><time>2026-05-02T13:39:48.398Z</time></trkpt><trkpt lat="46.605245" lon="12.1468917"><ele>1498.5</ele><time>2026-05-02T13:39:49.398Z</time></trkpt><trkpt lat="46.6052633" lon="12.1470933"><ele>1496.25</ele><time>2026-05-02T13:39:50.397Z</time></trkpt><trkpt lat="46.6052867" lon="12.147295"><ele>1494.0</ele><time>2026-05-02T13:39:51.398Z</time></trkpt><trkpt lat="46.6053333" lon="12.1474933"><ele>1502.0</ele><time>2026-05-02T13:39:52.398Z</time></trkpt><trkpt lat="46.6054083" lon="12.1476967"><ele>1510.0</ele><time>2026-05-02T13:39:53.397Z</time></trkpt><trkpt lat="46.6055183" lon="12.1479033"><ele>1518.0</ele><time>2026-05-02T13:39:54.398Z</time></trkpt><trkpt lat="46.6056517" lon="12.148115"><ele>1510.5</ele><time>2026-05-02T13:39:55.397Z</time></trkpt><trkpt lat="46.6058017" lon="12.1483467"><ele>1503.0</ele><time>2026-05-02T13:39:56.398Z</time></trkpt><trkpt lat="46.6059717" lon="12.148615"><ele>1503.0</ele><time>2026-05-02T13:39:57.398Z</time></trkpt><trkpt lat="46.606145" lon="12.1489167"><ele>1503.0</ele><time>2026-05-02T13:39:58.398Z</time></trkpt><trkpt lat="46.6063117" lon="12.1492467"><ele>1502.5</ele><time>2026-05-02T13:39:59.397Z</time></trkpt><trkpt lat="46.6064767" lon="12.149575"><ele>1502.0</ele><time>2026-05-02T13:40:00.398Z</time></trkpt><trkpt lat="46.60665" lon="12.1499067"><ele>1502.0</ele><time>2026-05-02T13:40:01.398Z</time></trkpt><trkpt lat="46.60681" lon="12.1502567"><ele>1502.0</ele><time>2026-05-02T13:40:02.397Z</time></trkpt><trkpt lat="46.6069483" lon="12.1506333"><ele>1516.5</ele><time>2026-05-02T13:40:03.398Z</time></trkpt><trkpt lat="46.6070833" lon="12.150985"><ele>1531.0</ele><time>2026-05-02T13:40:04.398Z</time></trkpt><trkpt lat="46.607225" lon="12.1513183"><ele>1519.0</ele><time>2026-05-02T13:40:05.398Z</time></trkpt><trkpt lat="46.60737" lon="12.151625"><ele>1507.0</ele><time>2026-05-02T13:40:06.398Z</time></trkpt><trkpt lat="46.6075133" lon="12.151915"><ele>1507.0</ele><time>2026-05-02T13:40:07.398Z</time></trkpt><trkpt lat="46.60766" lon="12.1521883"><ele>1507.0</ele><time>2026-05-02T13:40:08.398Z</time></trkpt><trkpt lat="46.6077883" lon="12.152455"><ele>1508.6666666666665</ele><time>2026-05-02T13:40:09.398Z</time></trkpt><trkpt lat="46.6079183" lon="12.1527083"><ele>1510.3333333333333</ele><time>2026-05-02T13:40:10.398Z</time></trkpt><trkpt lat="46.608035" lon="12.152955"><ele>1512.0</ele><time>2026-05-02T13:40:11.397Z</time></trkpt><trkpt lat="46.608135" lon="12.1532283"><ele>1512.0</ele><time>2026-05-02T13:40:12.398Z</time></trkpt><trkpt lat="46.6082067" lon="12.1535183"><ele>1512.0</ele><time>2026-05-02T13:40:13.398Z</time></trkpt><trkpt lat="46.6082483" lon="12.15384"><ele>1512.0</ele><time>2026-05-02T13:40:14.398Z</time></trkpt><trkpt lat="46.6082717" lon="12.1541667"><ele>1511.0</ele><time>2026-05-02T13:40:15.397Z</time></trkpt><trkpt lat="46.6082967" lon="12.1544783"><ele>1510.0</ele><time>2026-05-02T13:40:16.398Z</time></trkpt><trkpt lat="46.6083217" lon="12.1547867"><ele>1509.0</ele><time>2026-05-02T13:40:17.398Z</time></trkpt><trkpt lat="46.6083467" lon="12.1550867"><ele>1509.0</ele><time>2026-05-02T13:40:18.398Z</time></trkpt><trkpt lat="46.60837" lon="12.155385"><ele>1509.0</ele><time>2026-05-02T13:40:19.397Z</time></trkpt><trkpt lat="46.6083933" lon="12.1556617"><ele>1509.0</ele><time>2026-05-02T13:40:20.398Z</time></trkpt><trkpt lat="46.6084167" lon="12.155925"><ele>1508.6666666666667</ele><time>2026-05-02T13:40:21.398Z</time></trkpt><trkpt lat="46.6084517" lon="12.1561883"><ele>1508.3333333333335</ele><time>2026-05-02T13:40:22.397Z</time></trkpt><trkpt lat="46.6085183" lon="12.15644"><ele>1508.0</ele><time>2026-05-02T13:40:23.398Z</time></trkpt><trkpt lat="46.6086" lon="12.1566933"><ele>1509.0</ele><time>2026-05-02T13:40:24.397Z</time></trkpt><trkpt lat="46.608705" lon="12.1569517"><ele>1510.0</ele><time>2026-05-02T13:40:25.397Z</time></trkpt><trkpt lat="46.60882" lon="12.1572083"><ele>1511.0</ele><time>2026-05-02T13:40:26.398Z</time></trkpt><trkpt lat="46.60893" lon="12.1574683"><ele>1511.0</ele><time>2026-05-02T13:40:27.398Z</time></trkpt><trkpt lat="46.6090433" lon="12.1577367"><ele>1511.0</ele><time>2026-05-02T13:40:28.397Z</time></trkpt><trkpt lat="46.6091583" lon="12.1579967"><ele>1511.0</ele><time>2026-05-02T13:40:29.398Z</time></trkpt><trkpt lat="46.6092767" lon="12.15827"><ele>1510.6666666666667</ele><time>2026-05-02T13:40:30.397Z</time></trkpt><trkpt lat="46.6094017" lon="12.1585417"><ele>1510.3333333333333</ele><time>2026-05-02T13:40:31.398Z</time></trkpt><trkpt lat="46.60952" lon="12.15881"><ele>1510.0</ele><time>2026-05-02T13:40:32.398Z</time></trkpt><trkpt lat="46.6096567" lon="12.1590667"><ele>1511.0</ele><time>2026-05-02T13:40:33.397Z</time></trkpt><trkpt lat="46.6097983" lon="12.1593133"><ele>1512.0</ele><time>2026-05-02T13:40:34.398Z</time></trkpt><trkpt lat="46.6099417" lon="12.1595517"><ele>1513.0</ele><time>2026-05-02T13:40:35.397Z</time></trkpt><trkpt lat="46.610095" lon="12.15979"><ele>1512.6666666666665</ele><time>2026-05-02T13:40:36.398Z</time></trkpt><trkpt lat="46.6102367" lon="12.1600233"><ele>1512.3333333333333</ele><time>2026-05-02T13:40:37.398Z</time></trkpt><trkpt lat="46.6103833" lon="12.160255"><ele>1512.0</ele><time>2026-05-02T13:40:38.398Z</time></trkpt><trkpt lat="46.6105217" lon="12.1604833"><ele>1512.6666666666667</ele><time>2026-05-02T13:40:39.398Z</time></trkpt><trkpt lat="46.610655" lon="12.1606933"><ele>1513.3333333333335</ele><time>2026-05-02T13:40:40.398Z</time></trkpt><trkpt lat="46.6107967" lon="12.1609067"><ele>1514.0</ele><time>2026-05-02T13:40:41.398Z</time></trkpt><trkpt lat="46.61095" lon="12.16111"><ele>1514.0</ele><time>2026-05-02T13:40:42.398Z</time></trkpt><trkpt lat="46.6111067" lon="12.1612867"><ele>1514.0</ele><time>2026-05-02T13:40:43.398Z</time></trkpt><trkpt lat="46.6112783" lon="12.16144"><ele>1514.0</ele><time>2026-05-02T13:40:44.397Z</time></trkpt><trkpt lat="46.6114583" lon="12.1615767"><ele>1513.6666666666667</ele><time>2026-05-02T13:40:45.398Z</time></trkpt><trkpt lat="46.611635" lon="12.1617167"><ele>1513.3333333333333</ele><time>2026-05-02T13:40:46.397Z</time></trkpt><trkpt lat="46.611785" lon="12.1618967"><ele>1513.0</ele><time>2026-05-02T13:40:47.397Z</time></trkpt><trkpt lat="46.6119117" lon="12.16212"><ele>1515.6666666666665</ele><time>2026-05-02T13:40:48.398Z</time></trkpt><trkpt lat="46.612025" lon="12.1623517"><ele>1518.3333333333333</ele><time>2026-05-02T13:40:49.397Z</time></trkpt><trkpt lat="46.6121333" lon="12.1626017"><ele>1521.0</ele><time>2026-05-02T13:40:50.398Z</time></trkpt><trkpt lat="46.6122333" lon="12.16286"><ele>1521.0</ele><time>2026-05-02T13:40:51.397Z</time></trkpt><trkpt lat="46.6123417" lon="12.1631233"><ele>1521.0</ele><time>2026-05-02T13:40:52.398Z</time></trkpt><trkpt lat="46.6124483" lon="12.1633817"><ele>1521.0</ele><time>2026-05-02T13:40:53.397Z</time></trkpt><trkpt lat="46.6125567" lon="12.1636217"><ele>1519.6666666666667</ele><time>2026-05-02T13:40:54.398Z</time></trkpt><trkpt lat="46.6126683" lon="12.1638533"><ele>1518.3333333333335</ele><time>2026-05-02T13:40:55.397Z</time></trkpt><trkpt lat="46.6128017" lon="12.1640733"><ele>1517.0</ele><time>2026-05-02T13:40:56.398Z</time></trkpt><trkpt lat="46.6129583" lon="12.164275"><ele>1517.0</ele><time>2026-05-02T13:40:57.398Z</time></trkpt><trkpt lat="46.6131383" lon="12.16447"><ele>1517.0</ele><time>2026-05-02T13:40:58.398Z</time></trkpt><trkpt lat="46.6133167" lon="12.1646633"><ele>1517.0</ele><time>2026-05-02T13:40:59.398Z</time></trkpt><trkpt lat="46.613495" lon="12.164865"><ele>1517.3333333333335</ele><time>2026-05-02T13:41:00.398Z</time></trkpt><trkpt lat="46.6136733" lon="12.1650617"><ele>1517.6666666666667</ele><time>2026-05-02T13:41:01.398Z</time></trkpt><trkpt lat="46.61385" lon="12.1652567"><ele>1518.0</ele><time>2026-05-02T13:41:02.398Z</time></trkpt><trkpt lat="46.614015" lon="12.1654533"><ele>1518.0</ele><time>2026-05-02T13:41:03.398Z</time></trkpt><trkpt lat="46.614185" lon="12.1656433"><ele>1518.0</ele><time>2026-05-02T13:41:04.398Z</time></trkpt><trkpt lat="46.614355" lon="12.165835"><ele>1518.0</ele><time>2026-05-02T13:41:05.398Z</time></trkpt><trkpt lat="46.6145167" lon="12.1660133"><ele>1518.3333333333333</ele><time>2026-05-02T13:41:06.398Z</time></trkpt><trkpt lat="46.614675" lon="12.1661767"><ele>1518.6666666666665</ele><time>2026-05-02T13:41:07.398Z</time></trkpt><trkpt lat="46.614825" lon="12.1663417"><ele>1519.0</ele><time>2026-05-02T13:41:08.397Z</time></trkpt><trkpt lat="46.61497" lon="12.16649"><ele>1518.3333333333333</ele><time>2026-05-02T13:41:09.397Z</time></trkpt><trkpt lat="46.6151067" lon="12.166655"><ele>1517.6666666666667</ele><time>2026-05-02T13:41:10.398Z</time></trkpt><trkpt lat="46.6152333" lon="12.16685"><ele>1517.0</ele><time>2026-05-02T13:41:11.398Z</time></trkpt><trkpt lat="46.615355" lon="12.1670617"><ele>1517.6666666666667</ele><time>2026-05-02T13:41:12.397Z</time></trkpt><trkpt lat="46.615465" lon="12.1672983"><ele>1518.3333333333333</ele><time>2026-05-02T13:41:13.398Z</time></trkpt><trkpt lat="46.6155767" lon="12.1675433"><ele>1519.0</ele><time>2026-05-02T13:41:14.398Z</time></trkpt><trkpt lat="46.61568" lon="12.1677917"><ele>1519.0</ele><time>2026-05-02T13:41:15.398Z</time></trkpt><trkpt lat="46.6157867" lon="12.1680433"><ele>1519.0</ele><time>2026-05-02T13:41:16.398Z</time></trkpt><trkpt lat="46.615895" lon="12.168295"><ele>1519.0</ele><time>2026-05-02T13:41:17.398Z</time></trkpt><trkpt lat="46.616" lon="12.1685483"><ele>1519.6666666666665</ele><time>2026-05-02T13:41:18.398Z</time></trkpt><trkpt lat="46.6161067" lon="12.168795"><ele>1520.3333333333333</ele><time>2026-05-02T13:41:19.397Z</time></trkpt><trkpt lat="46.6162067" lon="12.1690433"><ele>1521.0</ele><time>2026-05-02T13:41:20.398Z</time></trkpt><trkpt lat="46.6163067" lon="12.1692833"><ele>1521.0</ele><time>2026-05-02T13:41:21.398Z</time></trkpt><trkpt lat="46.61641" lon="12.1695183"><ele>1521.0</ele><time>2026-05-02T13:41:22.398Z</time></trkpt><trkpt lat="46.6165067" lon="12.169765"><ele>1521.0</ele><time>2026-05-02T13:41:23.398Z</time></trkpt><trkpt lat="46.61661" lon="12.17"><ele>1518.6666666666667</ele><time>2026-05-02T13:41:24.398Z</time></trkpt><trkpt lat="46.6167033" lon="12.1702267"><ele>1516.3333333333335</ele><time>2026-05-02T13:41:25.397Z</time></trkpt><trkpt lat="46.6167933" lon="12.1704467"><ele>1514.0</ele><time>2026-05-02T13:41:26.398Z</time></trkpt><trkpt lat="46.61688" lon="12.1706683"><ele>1513.6666666666667</ele><time>2026-05-02T13:41:27.398Z</time></trkpt><trkpt lat="46.61697" lon="12.1708833"><ele>1513.3333333333333</ele><time>2026-05-02T13:41:28.398Z</time></trkpt><trkpt lat="46.6170667" lon="12.171105"><ele>1513.0</ele><time>2026-05-02T13:41:29.398Z</time></trkpt><trkpt lat="46.617155" lon="12.1713317"><ele>1513.6666666666665</ele><time>2026-05-02T13:41:30.398Z</time></trkpt><trkpt lat="46.617235" lon="12.1715433"><ele>1514.3333333333333</ele><time>2026-05-02T13:41:31.398Z</time></trkpt><trkpt lat="46.6173233" lon="12.1717567"><ele>1515.0</ele><time>2026-05-02T13:41:32.397Z</time></trkpt><trkpt lat="46.6174183" lon="12.171985"><ele>1515.0</ele><time>2026-05-02T13:41:33.398Z</time></trkpt><trkpt lat="46.6175083" lon="12.172225"><ele>1515.0</ele><time>2026-05-02T13:41:34.398Z</time></trkpt><trkpt lat="46.6175883" lon="12.1724783"><ele>1515.0</ele><time>2026-05-02T13:41:35.397Z</time></trkpt><trkpt lat="46.6176583" lon="12.17274"><ele>1516.0</ele><time>2026-05-02T13:41:36.398Z</time></trkpt><trkpt lat="46.6177083" lon="12.173"><ele>1517.0</ele><time>2026-05-02T13:41:37.398Z</time></trkpt><trkpt lat="46.6177433" lon="12.1732633"><ele>1518.0</ele><time>2026-05-02T13:41:38.398Z</time></trkpt><trkpt lat="46.6177967" lon="12.1735117"><ele>1518.6666666666667</ele><time>2026-05-02T13:41:39.398Z</time></trkpt><trkpt lat="46.6178017" lon="12.1737567"><ele>1519.3333333333335</ele><time>2026-05-02T13:41:40.398Z</time></trkpt><trkpt lat="46.6177983" lon="12.17402"><ele>1520.0</ele><time>2026-05-02T13:41:41.398Z</time></trkpt><trkpt lat="46.6177817" lon="12.1742767"><ele>1520.6666666666667</ele><time>2026-05-02T13:41:42.398Z</time></trkpt><trkpt lat="46.61776" lon="12.174515"><ele>1521.3333333333333</ele><time>2026-05-02T13:41:43.398Z</time></trkpt><trkpt lat="46.6177433" lon="12.1747433"><ele>1522.0</ele><time>2026-05-02T13:41:44.397Z</time></trkpt><trkpt lat="46.6177183" lon="12.1749517"><ele>1522.0</ele><time>2026-05-02T13:41:45.398Z</time></trkpt><trkpt lat="46.6176933" lon="12.175155"><ele>1522.0</ele><time>2026-05-02T13:41:46.398Z</time></trkpt><trkpt lat="46.6176767" lon="12.175365"><ele>1522.0</ele><time>2026-05-02T13:41:47.398Z</time></trkpt><trkpt lat="46.6176683" lon="12.1755783"><ele>1522.0</ele><time>2026-05-02T13:41:48.398Z</time></trkpt><trkpt lat="46.617675" lon="12.1758033"><ele>1522.3333333333333</ele><time>2026-05-02T13:41:49.398Z</time></trkpt><trkpt lat="46.6176983" lon="12.1760317"><ele>1522.6666666666667</ele><time>2026-05-02T13:41:50.397Z</time></trkpt><trkpt lat="46.617745" lon="12.1762817"><ele>1523.0</ele><time>2026-05-02T13:41:51.398Z</time></trkpt><trkpt lat="46.6178067" lon="12.1765483"><ele>1523.0</ele><time>2026-05-02T13:41:52.398Z</time></trkpt><trkpt lat="46.6178717" lon="12.176835"><ele>1523.0</ele><time>2026-05-02T13:41:53.397Z</time></trkpt><trkpt lat="46.61795" lon="12.1771367"><ele>1523.0</ele><time>2026-05-02T13:41:54.398Z</time></trkpt><trkpt lat="46.6180267" lon="12.1774517"><ele>1523.0</ele><time>2026-05-02T13:41:55.398Z</time></trkpt><trkpt lat="46.6180983" lon="12.1777933"><ele>1523.0</ele><time>2026-05-02T13:41:56.397Z</time></trkpt><trkpt lat="46.6181583" lon="12.1781367"><ele>1523.0</ele><time>2026-05-02T13:41:57.398Z</time></trkpt><trkpt lat="46.6182283" lon="12.1784617"><ele>1523.0</ele><time>2026-05-02T13:41:58.398Z</time></trkpt><trkpt lat="46.618285" lon="12.1787783"><ele>1524.0</ele><time>2026-05-02T13:41:59.397Z</time></trkpt><trkpt lat="46.6183483" lon="12.1790867"><ele>1525.0</ele><time>2026-05-02T13:42:00.398Z</time></trkpt><trkpt lat="46.6184117" lon="12.1793833"><ele>1526.0</ele><time>2026-05-02T13:42:01.398Z</time></trkpt><trkpt lat="46.618495" lon="12.1796683"><ele>1527.3333333333335</ele><time>2026-05-02T13:42:02.398Z</time></trkpt><trkpt lat="46.618605" lon="12.1799433"><ele>1528.6666666666667</ele><time>2026-05-02T13:42:03.397Z</time></trkpt><trkpt lat="46.6187333" lon="12.1802"><ele>1530.0</ele><time>2026-05-02T13:42:04.398Z</time></trkpt><trkpt lat="46.6188617" lon="12.1804333"><ele>1530.0</ele><time>2026-05-02T13:42:05.398Z</time></trkpt><trkpt lat="46.6189833" lon="12.1806667"><ele>1530.0</ele><time>2026-05-02T13:42:06.398Z</time></trkpt><trkpt lat="46.619105" lon="12.1808883"><ele>1530.0</ele><time>2026-05-02T13:42:07.397Z</time></trkpt><trkpt lat="46.6192267" lon="12.181095"><ele>1530.3333333333333</ele><time>2026-05-02T13:42:08.398Z</time></trkpt><trkpt lat="46.6193383" lon="12.1812867"><ele>1530.6666666666665</ele><time>2026-05-02T13:42:09.398Z</time></trkpt><trkpt lat="46.61944" lon="12.1814667"><ele>1531.0</ele><time>2026-05-02T13:42:10.398Z</time></trkpt><trkpt lat="46.6195383" lon="12.1816417"><ele>1532.0</ele><time>2026-05-02T13:42:11.398Z</time></trkpt><trkpt lat="46.619635" lon="12.18182"><ele>1533.0</ele><time>2026-05-02T13:42:12.397Z</time></trkpt><trkpt lat="46.6197133" lon="12.182"><ele>1534.0</ele><time>2026-05-02T13:42:13.398Z</time></trkpt><trkpt lat="46.6197883" lon="12.1821867"><ele>1534.0</ele><time>2026-05-02T13:42:14.398Z</time></trkpt><trkpt lat="46.61986" lon="12.1823583"><ele>1534.0</ele><time>2026-05-02T13:42:15.398Z</time></trkpt><trkpt lat="46.619935" lon="12.18253"><ele>1534.0</ele><time>2026-05-02T13:42:16.398Z</time></trkpt><trkpt lat="46.62001" lon="12.1827183"><ele>1534.0</ele><time>2026-05-02T13:42:17.397Z</time></trkpt><trkpt lat="46.6200933" lon="12.1829017"><ele>1534.0</ele><time>2026-05-02T13:42:18.397Z</time></trkpt><trkpt lat="46.6201733" lon="12.1830917"><ele>1534.0</ele><time>2026-05-02T13:42:19.398Z</time></trkpt><trkpt lat="46.6202583" lon="12.1832833"><ele>1534.0</ele><time>2026-05-02T13:42:20.398Z</time></trkpt><trkpt lat="46.6203483" lon="12.1834833"><ele>1533.6666666666665</ele><time>2026-05-02T13:42:21.398Z</time></trkpt><trkpt lat="46.6204333" lon="12.1836783"><ele>1533.3333333333333</ele><time>2026-05-02T13:42:22.397Z</time></trkpt><trkpt lat="46.6205217" lon="12.1838933"><ele>1533.0</ele><time>2026-05-02T13:42:23.398Z</time></trkpt><trkpt lat="46.6206183" lon="12.1841183"><ele>1533.0</ele><time>2026-05-02T13:42:24.398Z</time></trkpt><trkpt lat="46.6207217" lon="12.1843417"><ele>1533.0</ele><time>2026-05-02T13:42:25.397Z</time></trkpt><trkpt lat="46.6208233" lon="12.18457"><ele>1533.0</ele><time>2026-05-02T13:42:26.398Z</time></trkpt><trkpt lat="46.6209333" lon="12.18481"><ele>1533.0</ele><time>2026-05-02T13:42:27.398Z</time></trkpt><trkpt lat="46.62104" lon="12.1850483"><ele>1533.0</ele><time>2026-05-02T13:42:28.398Z</time></trkpt><trkpt lat="46.62114" lon="12.1853"><ele>1533.0</ele><time>2026-05-02T13:42:29.398Z</time></trkpt><trkpt lat="46.621245" lon="12.1855617"><ele>1531.6666666666667</ele><time>2026-05-02T13:42:30.398Z</time></trkpt><trkpt lat="46.621345" lon="12.1858367"><ele>1530.3333333333335</ele><time>2026-05-02T13:42:31.398Z</time></trkpt><trkpt lat="46.6214283" lon="12.1861233"><ele>1529.0</ele><time>2026-05-02T13:42:32.398Z</time></trkpt><trkpt lat="46.6215067" lon="12.18642"><ele>1529.0</ele><time>2026-05-02T13:42:33.398Z</time></trkpt><trkpt lat="46.6215783" lon="12.1867183"><ele>1529.0</ele><time>2026-05-02T13:42:34.398Z</time></trkpt><trkpt lat="46.621655" lon="12.1870233"><ele>1529.0</ele><time>2026-05-02T13:42:35.398Z</time></trkpt><trkpt lat="46.6217333" lon="12.1873133"><ele>1529.0</ele><time>2026-05-02T13:42:36.398Z</time></trkpt><trkpt lat="46.621815" lon="12.1876117"><ele>1529.0</ele><time>2026-05-02T13:42:37.398Z</time></trkpt><trkpt lat="46.6218983" lon="12.187905"><ele>1529.0</ele><time>2026-05-02T13:42:38.398Z</time></trkpt><trkpt lat="46.621975" lon="12.1882"><ele>1529.0</ele><time>2026-05-02T13:42:39.398Z</time></trkpt><trkpt lat="46.62205" lon="12.188485"><ele>1529.0</ele><time>2026-05-02T13:42:40.398Z</time></trkpt><trkpt lat="46.6221267" lon="12.1887633"><ele>1529.0</ele><time>2026-05-02T13:42:41.397Z</time></trkpt><trkpt lat="46.6222017" lon="12.1890267"><ele>1528.6666666666667</ele><time>2026-05-02T13:42:42.398Z</time></trkpt><trkpt lat="46.62228" lon="12.189275"><ele>1528.3333333333333</ele><time>2026-05-02T13:42:43.398Z</time></trkpt><trkpt lat="46.62236" lon="12.1895033"><ele>1528.0</ele><time>2026-05-02T13:42:44.398Z</time></trkpt><trkpt lat="46.6224733" lon="12.1897117"><ele>1527.6666666666665</ele><time>2026-05-02T13:42:45.397Z</time></trkpt><trkpt lat="46.622615" lon="12.1898967"><ele>1527.3333333333333</ele><time>2026-05-02T13:42:46.398Z</time></trkpt><trkpt lat="46.6227767" lon="12.1900467"><ele>1527.0</ele><time>2026-05-02T13:42:47.398Z</time></trkpt><trkpt lat="46.6229417" lon="12.190195"><ele>1526.3333333333333</ele><time>2026-05-02T13:42:48.398Z</time></trkpt><trkpt lat="46.6231083" lon="12.190325"><ele>1525.6666666666665</ele><time>2026-05-02T13:42:49.398Z</time></trkpt><trkpt lat="46.62327" lon="12.1904633"><ele>1525.0</ele><time>2026-05-02T13:42:50.398Z</time></trkpt><trkpt lat="46.623425" lon="12.1905933"><ele>1524.3333333333333</ele><time>2026-05-02T13:42:51.398Z</time></trkpt><trkpt lat="46.623565" lon="12.19074"><ele>1523.6666666666667</ele><time>2026-05-02T13:42:52.398Z</time></trkpt><trkpt lat="46.62369" lon="12.1909183"><ele>1523.0</ele><time>2026-05-02T13:42:53.397Z</time></trkpt><trkpt lat="46.6238083" lon="12.191115"><ele>1525.0</ele><time>2026-05-02T13:42:54.398Z</time></trkpt><trkpt lat="46.6239067" lon="12.191325"><ele>1527.0</ele><time>2026-05-02T13:42:55.398Z</time></trkpt><trkpt lat="46.6239917" lon="12.1915567"><ele>1529.0</ele><time>2026-05-02T13:42:56.398Z</time></trkpt><trkpt lat="46.6240617" lon="12.1917983"><ele>1529.0</ele><time>2026-05-02T13:42:57.398Z</time></trkpt><trkpt lat="46.62412" lon="12.1920583"><ele>1529.0</ele><time>2026-05-02T13:42:58.398Z</time></trkpt><trkpt lat="46.624165" lon="12.192315"><ele>1529.0</ele><time>2026-05-02T13:42:59.398Z</time></trkpt><trkpt lat="46.6241883" lon="12.1925917"><ele>1528.3333333333335</ele><time>2026-05-02T13:43:00.398Z</time></trkpt><trkpt lat="46.6242133" lon="12.1928667"><ele>1527.6666666666667</ele><time>2026-05-02T13:43:01.398Z</time></trkpt><trkpt lat="46.6242283" lon="12.1931433"><ele>1527.0</ele><time>2026-05-02T13:43:02.397Z</time></trkpt><trkpt lat="46.6242283" lon="12.1934117"><ele>1525.6666666666667</ele><time>2026-05-02T13:43:03.397Z</time></trkpt><trkpt lat="46.6242217" lon="12.1936767"><ele>1524.3333333333335</ele><time>2026-05-02T13:43:04.398Z</time></trkpt><trkpt lat="46.6242033" lon="12.1939367"><ele>1523.0</ele><time>2026-05-02T13:43:05.398Z</time></trkpt><trkpt lat="46.6241833" lon="12.19418"><ele>1522.0</ele><time>2026-05-02T13:43:06.398Z</time></trkpt><trkpt lat="46.6241833" lon="12.1944167"><ele>1521.0</ele><time>2026-05-02T13:43:07.398Z</time></trkpt><trkpt lat="46.6241933" lon="12.19466"><ele>1520.0</ele><time>2026-05-02T13:43:08.398Z</time></trkpt><trkpt lat="46.6242117" lon="12.1949167"><ele>1520.0</ele><time>2026-05-02T13:43:09.398Z</time></trkpt><trkpt lat="46.6242017" lon="12.1951733"><ele>1520.0</ele><time>2026-05-02T13:43:10.397Z</time></trkpt><trkpt lat="46.6241717" lon="12.1954433"><ele>1520.0</ele><time>2026-05-02T13:43:11.398Z</time></trkpt><trkpt lat="46.6241183" lon="12.1957083"><ele>1520.0</ele><time>2026-05-02T13:43:12.398Z</time></trkpt><trkpt lat="46.6240517" lon="12.1959583"><ele>1520.0</ele><time>2026-05-02T13:43:13.398Z</time></trkpt><trkpt lat="46.6239633" lon="12.1961967"><ele>1520.0</ele><time>2026-05-02T13:43:14.397Z</time></trkpt><trkpt lat="46.6238767" lon="12.196415"><ele>1521.3333333333335</ele><time>2026-05-02T13:43:15.397Z</time></trkpt><trkpt lat="46.6238133" lon="12.1966233"><ele>1522.6666666666667</ele><time>2026-05-02T13:43:16.397Z</time></trkpt><trkpt lat="46.6237583" lon="12.1968417"><ele>1524.0</ele><time>2026-05-02T13:43:17.398Z</time></trkpt><trkpt lat="46.6237267" lon="12.1970683"><ele>1524.0</ele><time>2026-05-02T13:43:18.398Z</time></trkpt><trkpt lat="46.6237283" lon="12.1972933"><ele>1524.0</ele><time>2026-05-02T13:43:19.398Z</time></trkpt><trkpt lat="46.6237467" lon="12.1975267"><ele>1524.0</ele><time>2026-05-02T13:43:20.398Z</time></trkpt><trkpt lat="46.6237683" lon="12.1977717"><ele>1524.0</ele><time>2026-05-02T13:43:21.398Z</time></trkpt><trkpt lat="46.623765" lon="12.19803"><ele>1524.0</ele><time>2026-05-02T13:43:22.397Z</time></trkpt><trkpt lat="46.623725" lon="12.1982817"><ele>1524.0</ele><time>2026-05-02T13:43:23.398Z</time></trkpt><trkpt lat="46.6236467" lon="12.1985383"><ele>1516.3333333333333</ele><time>2026-05-02T13:43:24.398Z</time></trkpt><trkpt lat="46.623555" lon="12.19879"><ele>1508.6666666666665</ele><time>2026-05-02T13:43:25.398Z</time></trkpt><trkpt lat="46.6234583" lon="12.1990367"><ele>1501.0</ele><time>2026-05-02T13:43:26.398Z</time></trkpt><trkpt lat="46.62336" lon="12.1992933"><ele>1501.0</ele><time>2026-05-02T13:43:27.398Z</time></trkpt><trkpt lat="46.6232533" lon="12.19955"><ele>1501.0</ele><time>2026-05-02T13:43:28.398Z</time></trkpt><trkpt lat="46.62315" lon="12.1998117"><ele>1501.0</ele><time>2026-05-02T13:43:29.398Z</time></trkpt><trkpt lat="46.62305" lon="12.2000683"><ele>1504.3333333333333</ele><time>2026-05-02T13:43:30.398Z</time></trkpt><trkpt lat="46.62296" lon="12.2003283"><ele>1507.6666666666667</ele><time>2026-05-02T13:43:31.397Z</time></trkpt><trkpt lat="46.6228867" lon="12.2006117"><ele>1511.0</ele><time>2026-05-02T13:43:32.397Z</time></trkpt><trkpt lat="46.6228133" lon="12.2009033"><ele>1503.0</ele><time>2026-05-02T13:43:33.398Z</time></trkpt><trkpt lat="46.6227417" lon="12.2011867"><ele>1495.0</ele><time>2026-05-02T13:43:34.398Z</time></trkpt><trkpt lat="46.6226633" lon="12.2014617"><ele>1487.0</ele><time>2026-05-02T13:43:35.398Z</time></trkpt><trkpt lat="46.6225817" lon="12.201735"><ele>1487.0</ele><time>2026-05-02T13:43:36.397Z</time></trkpt><trkpt lat="46.6224967" lon="12.2020083"><ele>1487.0</ele><time>2026-05-02T13:43:37.398Z</time></trkpt><trkpt lat="46.6224067" lon="12.2023"><ele>1487.0</ele><time>2026-05-02T13:43:38.398Z</time></trkpt><trkpt lat="46.6223217" lon="12.2025867"><ele>1488.0</ele><time>2026-05-02T13:43:39.398Z</time></trkpt><trkpt lat="46.622245" lon="12.202865"><ele>1489.0</ele><time>2026-05-02T13:43:40.398Z</time></trkpt><trkpt lat="46.6221833" lon="12.2031633"><ele>1490.0</ele><time>2026-05-02T13:43:41.398Z</time></trkpt><trkpt lat="46.622115" lon="12.20346"><ele>1492.3333333333335</ele><time>2026-05-02T13:43:42.397Z</time></trkpt><trkpt lat="46.622045" lon="12.2037583"><ele>1494.6666666666667</ele><time>2026-05-02T13:43:43.398Z</time></trkpt><trkpt lat="46.6219883" lon="12.2040483"><ele>1497.0</ele><time>2026-05-02T13:43:44.398Z</time></trkpt><trkpt lat="46.6219333" lon="12.2043233"><ele>1489.6666666666667</ele><time>2026-05-02T13:43:45.397Z</time></trkpt><trkpt lat="46.621895" lon="12.204605"><ele>1482.3333333333335</ele><time>2026-05-02T13:43:46.397Z</time></trkpt><trkpt lat="46.6218717" lon="12.2048733"><ele>1475.0</ele><time>2026-05-02T13:43:47.397Z</time></trkpt><trkpt lat="46.62186" lon="12.2051133"><ele>1475.0</ele><time>2026-05-02T13:43:48.398Z</time></trkpt><trkpt lat="46.621875" lon="12.2053333"><ele>1475.0</ele><time>2026-05-02T13:43:49.397Z</time></trkpt><trkpt lat="46.621915" lon="12.20553"><ele>1475.0</ele><time>2026-05-02T13:43:50.398Z</time></trkpt><trkpt lat="46.6219933" lon="12.205705"><ele>1475.0</ele><time>2026-05-02T13:43:51.397Z</time></trkpt><trkpt lat="46.6221183" lon="12.2058817"><ele>1478.6666666666667</ele><time>2026-05-02T13:43:52.398Z</time></trkpt><trkpt lat="46.622235" lon="12.2060583"><ele>1482.3333333333333</ele><time>2026-05-02T13:43:53.398Z</time></trkpt><trkpt lat="46.6223433" lon="12.2062483"><ele>1486.0</ele><time>2026-05-02T13:43:54.398Z</time></trkpt><trkpt lat="46.622415" lon="12.2064483"><ele>1483.3333333333333</ele><time>2026-05-02T13:43:55.398Z</time></trkpt><trkpt lat="46.622445" lon="12.20667"><ele>1480.6666666666667</ele><time>2026-05-02T13:43:56.398Z</time></trkpt><trkpt lat="46.622445" lon="12.2069083"><ele>1478.0</ele><time>2026-05-02T13:43:57.398Z</time></trkpt><trkpt lat="46.6224033" lon="12.20715"><ele>1478.6666666666667</ele><time>2026-05-02T13:43:58.398Z</time></trkpt><trkpt lat="46.6223233" lon="12.2074"><ele>1479.3333333333333</ele><time>2026-05-02T13:43:59.398Z</time></trkpt><trkpt lat="46.62222" lon="12.2076433"><ele>1480.0</ele><time>2026-05-02T13:44:00.398Z</time></trkpt><trkpt lat="46.622105" lon="12.207885"><ele>1480.0</ele><time>2026-05-02T13:44:01.398Z</time></trkpt><trkpt lat="46.621985" lon="12.2081233"><ele>1480.0</ele><time>2026-05-02T13:44:02.398Z</time></trkpt><trkpt lat="46.6218817" lon="12.2083517"><ele>1480.0</ele><time>2026-05-02T13:44:03.397Z</time></trkpt><trkpt lat="46.62178" lon="12.208565"><ele>1475.0</ele><time>2026-05-02T13:44:04.397Z</time></trkpt><trkpt lat="46.6216783" lon="12.208765"><ele>1470.0</ele><time>2026-05-02T13:44:05.397Z</time></trkpt><trkpt lat="46.6215917" lon="12.2089867"><ele>1465.0</ele><time>2026-05-02T13:44:06.398Z</time></trkpt><trkpt lat="46.6215267" lon="12.2092217"><ele>1465.0</ele><time>2026-05-02T13:44:07.398Z</time></trkpt><trkpt lat="46.6214967" lon="12.20947"><ele>1465.0</ele><time>2026-05-02T13:44:08.398Z</time></trkpt><trkpt lat="46.6214783" lon="12.2097267"><ele>1465.0</ele><time>2026-05-02T13:44:09.398Z</time></trkpt><trkpt lat="46.6214633" lon="12.2099833"><ele>1466.0</ele><time>2026-05-02T13:44:10.398Z</time></trkpt><trkpt lat="46.621455" lon="12.2102417"><ele>1467.0</ele><time>2026-05-02T13:44:11.398Z</time></trkpt><trkpt lat="46.62144" lon="12.2104933"><ele>1468.0</ele><time>2026-05-02T13:44:12.398Z</time></trkpt><trkpt lat="46.6214183" lon="12.21074"><ele>1468.0</ele><time>2026-05-02T13:44:13.398Z</time></trkpt><trkpt lat="46.6213833" lon="12.210985"><ele>1468.0</ele><time>2026-05-02T13:44:14.398Z</time></trkpt><trkpt lat="46.6213133" lon="12.21122"><ele>1468.0</ele><time>2026-05-02T13:44:15.398Z</time></trkpt><trkpt lat="46.6212267" lon="12.2114433"><ele>1461.3333333333333</ele><time>2026-05-02T13:44:16.398Z</time></trkpt><trkpt lat="46.62112" lon="12.2116483"><ele>1454.6666666666667</ele><time>2026-05-02T13:44:17.398Z</time></trkpt><trkpt lat="46.6210117" lon="12.2118517"><ele>1448.0</ele><time>2026-05-02T13:44:18.397Z</time></trkpt><trkpt lat="46.620915" lon="12.2120633"><ele>1448.0</ele><time>2026-05-02T13:44:19.398Z</time></trkpt><trkpt lat="46.62083" lon="12.2122967"><ele>1448.0</ele><time>2026-05-02T13:44:20.397Z</time></trkpt><trkpt lat="46.620745" lon="12.2125433"><ele>1448.0</ele><time>2026-05-02T13:44:21.398Z</time></trkpt><trkpt lat="46.62067" lon="12.2127967"><ele>1450.0</ele><time>2026-05-02T13:44:22.398Z</time></trkpt><trkpt lat="46.6206083" lon="12.2130333"><ele>1452.0</ele><time>2026-05-02T13:44:23.398Z</time></trkpt><trkpt lat="46.6205583" lon="12.2132733"><ele>1454.0</ele><time>2026-05-02T13:44:24.398Z</time></trkpt><trkpt lat="46.6205033" lon="12.2134967"><ele>1455.3333333333335</ele><time>2026-05-02T13:44:25.398Z</time></trkpt><trkpt lat="46.6204467" lon="12.2137133"><ele>1456.6666666666667</ele><time>2026-05-02T13:44:26.397Z</time></trkpt><trkpt lat="46.6204167" lon="12.2139333"><ele>1458.0</ele><time>2026-05-02T13:44:27.398Z</time></trkpt><trkpt lat="46.6204067" lon="12.2141633"><ele>1459.3333333333333</ele><time>2026-05-02T13:44:28.397Z</time></trkpt><trkpt lat="46.62042" lon="12.2143983"><ele>1460.6666666666665</ele><time>2026-05-02T13:44:29.397Z</time></trkpt><trkpt lat="46.62044" lon="12.2146267"><ele>1462.0</ele><time>2026-05-02T13:44:30.397Z</time></trkpt><trkpt lat="46.62045" lon="12.2148533"><ele>1462.6666666666665</ele><time>2026-05-02T13:44:31.398Z</time></trkpt><trkpt lat="46.6204283" lon="12.215085"><ele>1463.3333333333333</ele><time>2026-05-02T13:44:32.398Z</time></trkpt><trkpt lat="46.6203783" lon="12.2152967"><ele>1464.0</ele><time>2026-05-02T13:44:33.398Z</time></trkpt><trkpt lat="46.620315" lon="12.2154933"><ele>1458.75</ele><time>2026-05-02T13:44:34.397Z</time></trkpt><trkpt lat="46.6202567" lon="12.21568"><ele>1453.5</ele><time>2026-05-02T13:44:35.398Z</time></trkpt><trkpt lat="46.62021" lon="12.2158667"><ele>1448.25</ele><time>2026-05-02T13:44:36.398Z</time></trkpt><trkpt lat="46.62021" lon="12.2160733"><ele>1443.0</ele><time>2026-05-02T13:44:37.398Z</time></trkpt><trkpt lat="46.620245" lon="12.216295"><ele>1442.3333333333333</ele><time>2026-05-02T13:44:38.398Z</time></trkpt><trkpt lat="46.620295" lon="12.2165117"><ele>1441.6666666666665</ele><time>2026-05-02T13:44:39.398Z</time></trkpt><trkpt lat="46.6203683" lon="12.21673"><ele>1441.0</ele><time>2026-05-02T13:44:40.398Z</time></trkpt><trkpt lat="46.6204333" lon="12.2169517"><ele>1444.75</ele><time>2026-05-02T13:44:41.398Z</time></trkpt><trkpt lat="46.6204983" lon="12.2171533"><ele>1448.5</ele><time>2026-05-02T13:44:42.398Z</time></trkpt><trkpt lat="46.6205583" lon="12.217345"><ele>1452.25</ele><time>2026-05-02T13:44:43.398Z</time></trkpt><trkpt lat="46.620615" lon="12.2175367"><ele>1456.0</ele><time>2026-05-02T13:44:44.398Z</time></trkpt><trkpt lat="46.6206667" lon="12.21773"><ele>1456.0</ele><time>2026-05-02T13:44:45.398Z</time></trkpt><trkpt lat="46.620705" lon="12.2179217"><ele>1456.0</ele><time>2026-05-02T13:44:46.398Z</time></trkpt><trkpt lat="46.6207283" lon="12.21812"><ele>1456.0</ele><time>2026-05-02T13:44:47.398Z</time></trkpt><trkpt lat="46.6207233" lon="12.21833"><ele>1456.0</ele><time>2026-05-02T13:44:48.398Z</time></trkpt><trkpt lat="46.6207183" lon="12.2185167"><ele>1455.0</ele><time>2026-05-02T13:44:49.398Z</time></trkpt><trkpt lat="46.620705" lon="12.2186833"><ele>1454.0</ele><time>2026-05-02T13:44:50.398Z</time></trkpt><trkpt lat="46.6206917" lon="12.2188283"><ele>1453.0</ele><time>2026-05-02T13:44:51.397Z</time></trkpt><trkpt lat="46.620675" lon="12.2189483"><ele>1452.0</ele><time>2026-05-02T13:44:52.398Z</time></trkpt><trkpt lat="46.620645" lon="12.2190467"><ele>1451.0</ele><time>2026-05-02T13:44:53.398Z</time></trkpt><trkpt lat="46.62059" lon="12.21913"><ele>1449.0</ele><time>2026-05-02T13:44:54.398Z</time></trkpt><trkpt lat="46.6204917" lon="12.2192"><ele>1447.0</ele><time>2026-05-02T13:44:55.398Z</time></trkpt><trkpt lat="46.6203633" lon="12.2192467"><ele>1445.0</ele><time>2026-05-02T13:44:56.398Z</time></trkpt><trkpt lat="46.6202267" lon="12.2192883"><ele>1443.0</ele><time>2026-05-02T13:44:57.397Z</time></trkpt><trkpt lat="46.620085" lon="12.2193417"><ele>1439.6666666666667</ele><time>2026-05-02T13:44:58.398Z</time></trkpt><trkpt lat="46.6199333" lon="12.2193983"><ele>1436.3333333333335</ele><time>2026-05-02T13:44:59.398Z</time></trkpt><trkpt lat="46.6197767" lon="12.2194583"><ele>1433.0</ele><time>2026-05-02T13:45:00.397Z</time></trkpt><trkpt lat="46.6196083" lon="12.21953"><ele>1435.3333333333335</ele><time>2026-05-02T13:45:01.398Z</time></trkpt><trkpt lat="46.6194183" lon="12.2196083"><ele>1437.6666666666667</ele><time>2026-05-02T13:45:02.398Z</time></trkpt><trkpt lat="46.61922" lon="12.219695"><ele>1440.0</ele><time>2026-05-02T13:45:03.398Z</time></trkpt><trkpt lat="46.6190167" lon="12.2197783"><ele>1440.0</ele><time>2026-05-02T13:45:04.398Z</time></trkpt><trkpt lat="46.6188183" lon="12.2198517"><ele>1440.0</ele><time>2026-05-02T13:45:05.398Z</time></trkpt><trkpt lat="46.6186233" lon="12.2199367"><ele>1440.0</ele><time>2026-05-02T13:45:06.398Z</time></trkpt><trkpt lat="46.6184333" lon="12.2200233"><ele>1442.3333333333333</ele><time>2026-05-02T13:45:07.397Z</time></trkpt><trkpt lat="46.6182467" lon="12.220115"><ele>1444.6666666666665</ele><time>2026-05-02T13:45:08.398Z</time></trkpt><trkpt lat="46.6180683" lon="12.220185"><ele>1447.0</ele><time>2026-05-02T13:45:09.398Z</time></trkpt><trkpt lat="46.617895" lon="12.2202667"><ele>1449.3333333333333</ele><time>2026-05-02T13:45:10.398Z</time></trkpt><trkpt lat="46.6177233" lon="12.2203567"><ele>1451.6666666666667</ele><time>2026-05-02T13:45:11.398Z</time></trkpt><trkpt lat="46.6175583" lon="12.2204567"><ele>1454.0</ele><time>2026-05-02T13:45:12.397Z</time></trkpt><trkpt lat="46.617395" lon="12.220605"><ele>1453.6666666666667</ele><time>2026-05-02T13:45:13.398Z</time></trkpt><trkpt lat="46.617235" lon="12.220785"><ele>1453.3333333333333</ele><time>2026-05-02T13:45:14.398Z</time></trkpt><trkpt lat="46.6170767" lon="12.2209833"><ele>1453.0</ele><time>2026-05-02T13:45:15.398Z</time></trkpt><trkpt lat="46.6169217" lon="12.2211933"><ele>1455.0</ele><time>2026-05-02T13:45:16.398Z</time></trkpt><trkpt lat="46.6167767" lon="12.2214"><ele>1457.0</ele><time>2026-05-02T13:45:17.398Z</time></trkpt><trkpt lat="46.6166183" lon="12.2215983"><ele>1459.0</ele><time>2026-05-02T13:45:18.398Z</time></trkpt><trkpt lat="46.6164633" lon="12.22179"><ele>1459.0</ele><time>2026-05-02T13:45:19.398Z</time></trkpt><trkpt lat="46.6163083" lon="12.2219933"><ele>1459.0</ele><time>2026-05-02T13:45:20.398Z</time></trkpt><trkpt lat="46.6161433" lon="12.22219"><ele>1459.0</ele><time>2026-05-02T13:45:21.397Z</time></trkpt><trkpt lat="46.6159783" lon="12.2223983"><ele>1461.3333333333333</ele><time>2026-05-02T13:45:22.397Z</time></trkpt><trkpt lat="46.615815" lon="12.2226083"><ele>1463.6666666666667</ele><time>2026-05-02T13:45:23.398Z</time></trkpt><trkpt lat="46.6156517" lon="12.222815"><ele>1466.0</ele><time>2026-05-02T13:45:24.398Z</time></trkpt><trkpt lat="46.6154883" lon="12.2230367"><ele>1468.0</ele><time>2026-05-02T13:45:25.398Z</time></trkpt><trkpt lat="46.61532" lon="12.22325"><ele>1470.0</ele><time>2026-05-02T13:45:26.398Z</time></trkpt><trkpt lat="46.6151583" lon="12.223455"><ele>1472.0</ele><time>2026-05-02T13:45:27.398Z</time></trkpt><trkpt lat="46.6150017" lon="12.2236733"><ele>1472.0</ele><time>2026-05-02T13:45:28.397Z</time></trkpt><trkpt lat="46.6148483" lon="12.2238783"><ele>1472.0</ele><time>2026-05-02T13:45:29.397Z</time></trkpt><trkpt lat="46.6146883" lon="12.22408"><ele>1472.0</ele><time>2026-05-02T13:45:30.398Z</time></trkpt><trkpt lat="46.6145317" lon="12.2242783"><ele>1473.6666666666667</ele><time>2026-05-02T13:45:31.398Z</time></trkpt><trkpt lat="46.6143833" lon="12.2244633"><ele>1475.3333333333333</ele><time>2026-05-02T13:45:32.398Z</time></trkpt><trkpt lat="46.6142483" lon="12.2246267"><ele>1477.0</ele><time>2026-05-02T13:45:33.397Z</time></trkpt><trkpt lat="46.6141217" lon="12.224775"><ele>1476.25</ele><time>2026-05-02T13:45:34.398Z</time></trkpt><trkpt lat="46.614" lon="12.22492"><ele>1475.5</ele><time>2026-05-02T13:45:35.397Z</time></trkpt><trkpt lat="46.613895" lon="12.2250617"><ele>1474.75</ele><time>2026-05-02T13:45:36.398Z</time></trkpt><trkpt lat="46.6137933" lon="12.22519"><ele>1474.0</ele><time>2026-05-02T13:45:37.398Z</time></trkpt><trkpt lat="46.6136917" lon="12.2252983"><ele>1474.0</ele><time>2026-05-02T13:45:38.398Z</time></trkpt><trkpt lat="46.6136083" lon="12.2253967"><ele>1474.0</ele><time>2026-05-02T13:45:39.398Z</time></trkpt><trkpt lat="46.6135367" lon="12.2254917"><ele>1474.0</ele><time>2026-05-02T13:45:40.398Z</time></trkpt><trkpt lat="46.6134683" lon="12.2255717"><ele>1474.0</ele><time>2026-05-02T13:45:41.398Z</time></trkpt><trkpt lat="46.6134083" lon="12.22565"><ele>1474.0</ele><time>2026-05-02T13:45:42.398Z</time></trkpt><trkpt lat="46.613355" lon="12.225725"><ele>1474.0</ele><time>2026-05-02T13:45:43.398Z</time></trkpt><trkpt lat="46.6133017" lon="12.2257867"><ele>1474.0</ele><time>2026-05-02T13:45:44.398Z</time></trkpt><trkpt lat="46.6132217" lon="12.2258967"><ele>1474.0</ele><time>2026-05-02T13:45:46.398Z</time></trkpt><trkpt lat="46.61316" lon="12.2259783"><ele>1474.0</ele><time>2026-05-02T13:45:48.398Z</time></trkpt><trkpt lat="46.6130917" lon="12.2260283"><ele>1474.0</ele><time>2026-05-02T13:45:51.398Z</time></trkpt><trkpt lat="46.613025" lon="12.22608"><ele>1474.0</ele><time>2026-05-02T13:45:54.397Z</time></trkpt><trkpt lat="46.6131017" lon="12.226095"><ele>1474.0</ele><time>2026-05-02T13:47:35.398Z</time></trkpt><trkpt lat="46.61318" lon="12.2259767"><ele>1474.0</ele><time>2026-05-02T13:47:37.398Z</time></trkpt><trkpt lat="46.613255" lon="12.2258917"><ele>1474.0</ele><time>2026-05-02T13:47:39.398Z</time></trkpt><trkpt lat="46.613345" lon="12.22578"><ele>1474.0</ele><time>2026-05-02T13:47:41.398Z</time></trkpt><trkpt lat="46.6134183" lon="12.225685"><ele>1474.0</ele><time>2026-05-02T13:47:42.398Z</time></trkpt><trkpt lat="46.61351" lon="12.2255717"><ele>1474.0</ele><time>2026-05-02T13:47:43.398Z</time></trkpt><trkpt lat="46.613615" lon="12.2254217"><ele>1474.0</ele><time>2026-05-02T13:47:44.397Z</time></trkpt><trkpt lat="46.6137267" lon="12.22527"><ele>1474.0</ele><time>2026-05-02T13:47:45.397Z</time></trkpt><trkpt lat="46.613845" lon="12.225125"><ele>1474.0</ele><time>2026-05-02T13:47:46.398Z</time></trkpt><trkpt lat="46.61396" lon="12.2249817"><ele>1474.0</ele><time>2026-05-02T13:47:47.397Z</time></trkpt><trkpt lat="46.61408" lon="12.2248433"><ele>1474.0</ele><time>2026-05-02T13:47:48.398Z</time></trkpt><trkpt lat="46.6141983" lon="12.2247033"><ele>1474.0</ele><time>2026-05-02T13:47:49.398Z</time></trkpt><trkpt lat="46.61432" lon="12.2245617"><ele>1473.3333333333333</ele><time>2026-05-02T13:47:50.397Z</time></trkpt><trkpt lat="46.6144367" lon="12.2244167"><ele>1472.6666666666667</ele><time>2026-05-02T13:47:51.398Z</time></trkpt><trkpt lat="46.6145617" lon="12.22426"><ele>1472.0</ele><time>2026-05-02T13:47:52.398Z</time></trkpt><trkpt lat="46.6146817" lon="12.2240933"><ele>1472.0</ele><time>2026-05-02T13:47:53.397Z</time></trkpt><trkpt lat="46.6148067" lon="12.2239383"><ele>1472.0</ele><time>2026-05-02T13:47:54.398Z</time></trkpt><trkpt lat="46.6149383" lon="12.2237867"><ele>1472.0</ele><time>2026-05-02T13:47:55.398Z</time></trkpt><trkpt lat="46.6150733" lon="12.2236233"><ele>1472.0</ele><time>2026-05-02T13:47:56.398Z</time></trkpt><trkpt lat="46.615195" lon="12.2234533"><ele>1472.0</ele><time>2026-05-02T13:47:57.398Z</time></trkpt><trkpt lat="46.6153317" lon="12.2232817"><ele>1472.0</ele><time>2026-05-02T13:47:58.398Z</time></trkpt><trkpt lat="46.6154767" lon="12.2231267"><ele>1470.0</ele><time>2026-05-02T13:47:59.398Z</time></trkpt><trkpt lat="46.61561" lon="12.222975"><ele>1468.0</ele><time>2026-05-02T13:48:00.397Z</time></trkpt><trkpt lat="46.61574" lon="12.2228167"><ele>1466.0</ele><time>2026-05-02T13:48:01.398Z</time></trkpt><trkpt lat="46.6158583" lon="12.22264"><ele>1466.0</ele><time>2026-05-02T13:48:02.397Z</time></trkpt><trkpt lat="46.615975" lon="12.2224833"><ele>1466.0</ele><time>2026-05-02T13:48:03.398Z</time></trkpt><trkpt lat="46.6161" lon="12.2223083"><ele>1466.0</ele><time>2026-05-02T13:48:04.398Z</time></trkpt><trkpt lat="46.6162217" lon="12.2221483"><ele>1463.6666666666667</ele><time>2026-05-02T13:48:05.398Z</time></trkpt><trkpt lat="46.6163417" lon="12.2219917"><ele>1461.3333333333333</ele><time>2026-05-02T13:48:06.398Z</time></trkpt><trkpt lat="46.61646" lon="12.22184"><ele>1459.0</ele><time>2026-05-02T13:48:07.398Z</time></trkpt><trkpt lat="46.61657" lon="12.2216883"><ele>1459.0</ele><time>2026-05-02T13:48:08.398Z</time></trkpt><trkpt lat="46.6166833" lon="12.22155"><ele>1459.0</ele><time>2026-05-02T13:48:09.398Z</time></trkpt><trkpt lat="46.6168033" lon="12.2214117"><ele>1459.0</ele><time>2026-05-02T13:48:10.398Z</time></trkpt><trkpt lat="46.61692" lon="12.2212833"><ele>1459.0</ele><time>2026-05-02T13:48:11.398Z</time></trkpt><trkpt lat="46.6170367" lon="12.2211483"><ele>1457.0</ele><time>2026-05-02T13:48:12.398Z</time></trkpt><trkpt lat="46.6171583" lon="12.221015"><ele>1455.0</ele><time>2026-05-02T13:48:13.398Z</time></trkpt><trkpt lat="46.61727" lon="12.220875"><ele>1453.0</ele><time>2026-05-02T13:48:14.398Z</time></trkpt><trkpt lat="46.6173867" lon="12.2207317"><ele>1453.3333333333333</ele><time>2026-05-02T13:48:15.398Z</time></trkpt><trkpt lat="46.6175133" lon="12.2205867"><ele>1453.6666666666667</ele><time>2026-05-02T13:48:16.398Z</time></trkpt><trkpt lat="46.6176433" lon="12.22045"><ele>1454.0</ele><time>2026-05-02T13:48:17.398Z</time></trkpt><trkpt lat="46.61779" lon="12.2203467"><ele>1451.6666666666667</ele><time>2026-05-02T13:48:18.398Z</time></trkpt><trkpt lat="46.61794" lon="12.2202633"><ele>1449.3333333333333</ele><time>2026-05-02T13:48:19.398Z</time></trkpt><trkpt lat="46.6180967" lon="12.22019"><ele>1447.0</ele><time>2026-05-02T13:48:20.397Z</time></trkpt><trkpt lat="46.61825" lon="12.2201233"><ele>1447.0</ele><time>2026-05-02T13:48:21.397Z</time></trkpt><trkpt lat="46.6184083" lon="12.22007"><ele>1447.0</ele><time>2026-05-02T13:48:22.397Z</time></trkpt><trkpt lat="46.61856" lon="12.22"><ele>1447.0</ele><time>2026-05-02T13:48:23.398Z</time></trkpt><trkpt lat="46.618705" lon="12.21994"><ele>1445.25</ele><time>2026-05-02T13:48:24.398Z</time></trkpt><trkpt lat="46.6188467" lon="12.2198767"><ele>1443.5</ele><time>2026-05-02T13:48:25.398Z</time></trkpt><trkpt lat="46.61899" lon="12.2198217"><ele>1441.75</ele><time>2026-05-02T13:48:26.398Z</time></trkpt><trkpt lat="46.6191383" lon="12.2197683"><ele>1440.0</ele><time>2026-05-02T13:48:27.397Z</time></trkpt><trkpt lat="46.6192867" lon="12.2197017"><ele>1440.0</ele><time>2026-05-02T13:48:28.397Z</time></trkpt><trkpt lat="46.6194417" lon="12.2196317"><ele>1440.0</ele><time>2026-05-02T13:48:29.398Z</time></trkpt><trkpt lat="46.619595" lon="12.21955"><ele>1440.0</ele><time>2026-05-02T13:48:30.398Z</time></trkpt><trkpt lat="46.6197433" lon="12.2194933"><ele>1438.25</ele><time>2026-05-02T13:48:31.397Z</time></trkpt><trkpt lat="46.6198917" lon="12.2194317"><ele>1436.5</ele><time>2026-05-02T13:48:32.398Z</time></trkpt><trkpt lat="46.6200283" lon="12.219385"><ele>1434.75</ele><time>2026-05-02T13:48:33.398Z</time></trkpt><trkpt lat="46.6201417" lon="12.21935"><ele>1433.0</ele><time>2026-05-02T13:48:34.398Z</time></trkpt><trkpt lat="46.6202367" lon="12.2193117"><ele>1434.6666666666667</ele><time>2026-05-02T13:48:35.398Z</time></trkpt><trkpt lat="46.6203267" lon="12.21928"><ele>1436.3333333333335</ele><time>2026-05-02T13:48:36.397Z</time></trkpt><trkpt lat="46.6203933" lon="12.21925"><ele>1438.0</ele><time>2026-05-02T13:48:37.398Z</time></trkpt><trkpt lat="46.620455" lon="12.2192217"><ele>1439.6666666666667</ele><time>2026-05-02T13:48:38.398Z</time></trkpt><trkpt lat="46.620575" lon="12.2191883"><ele>1441.3333333333333</ele><time>2026-05-02T13:48:40.398Z</time></trkpt><trkpt lat="46.6206383" lon="12.2191883"><ele>1443.0</ele><time>2026-05-02T13:48:41.397Z</time></trkpt><trkpt lat="46.62075" lon="12.2192967"><ele>1443.0</ele><time>2026-05-02T13:48:43.398Z</time></trkpt><trkpt lat="46.6208033" lon="12.2194283"><ele>1443.0</ele><time>2026-05-02T13:48:44.397Z</time></trkpt><trkpt lat="46.6208683" lon="12.2195983"><ele>1443.0</ele><time>2026-05-02T13:48:45.398Z</time></trkpt><trkpt lat="46.6209533" lon="12.2197967"><ele>1443.0</ele><time>2026-05-02T13:48:46.398Z</time></trkpt><trkpt lat="46.6210517" lon="12.22"><ele>1445.6666666666667</ele><time>2026-05-02T13:48:47.398Z</time></trkpt><trkpt lat="46.6211517" lon="12.220215"><ele>1448.3333333333335</ele><time>2026-05-02T13:48:48.398Z</time></trkpt><trkpt lat="46.6212483" lon="12.2204333"><ele>1451.0</ele><time>2026-05-02T13:48:49.398Z</time></trkpt><trkpt lat="46.621345" lon="12.220665"><ele>1451.0</ele><time>2026-05-02T13:48:50.398Z</time></trkpt><trkpt lat="46.62145" lon="12.2209067"><ele>1451.0</ele><time>2026-05-02T13:48:51.398Z</time></trkpt><trkpt lat="46.6215533" lon="12.221135"><ele>1451.0</ele><time>2026-05-02T13:48:52.398Z</time></trkpt><trkpt lat="46.6216567" lon="12.2213517"><ele>1446.3333333333335</ele><time>2026-05-02T13:48:53.398Z</time></trkpt><trkpt lat="46.62176" lon="12.2215483"><ele>1441.6666666666667</ele><time>2026-05-02T13:48:54.398Z</time></trkpt><trkpt lat="46.6218783" lon="12.221715"><ele>1437.0</ele><time>2026-05-02T13:48:55.398Z</time></trkpt><trkpt lat="46.6220067" lon="12.22184"><ele>1448.6666666666667</ele><time>2026-05-02T13:48:56.398Z</time></trkpt><trkpt lat="46.6221517" lon="12.22195"><ele>1460.3333333333335</ele><time>2026-05-02T13:48:57.398Z</time></trkpt><trkpt lat="46.6222867" lon="12.2220733"><ele>1472.0</ele><time>2026-05-02T13:48:58.398Z</time></trkpt><trkpt lat="46.6224333" lon="12.2221617"><ele>1472.0</ele><time>2026-05-02T13:48:59.398Z</time></trkpt><trkpt lat="46.622565" lon="12.2222967"><ele>1472.0</ele><time>2026-05-02T13:49:00.398Z</time></trkpt><trkpt lat="46.6226817" lon="12.2224333"><ele>1472.0</ele><time>2026-05-02T13:49:01.398Z</time></trkpt><trkpt lat="46.6227867" lon="12.22259"><ele>1468.3333333333335</ele><time>2026-05-02T13:49:02.398Z</time></trkpt><trkpt lat="46.6228783" lon="12.2227583"><ele>1464.6666666666667</ele><time>2026-05-02T13:49:03.398Z</time></trkpt><trkpt lat="46.6229417" lon="12.2229717"><ele>1461.0</ele><time>2026-05-02T13:49:04.397Z</time></trkpt><trkpt lat="46.6229967" lon="12.22321"><ele>1457.0</ele><time>2026-05-02T13:49:05.397Z</time></trkpt><trkpt lat="46.6230533" lon="12.2234367"><ele>1453.0</ele><time>2026-05-02T13:49:06.398Z</time></trkpt><trkpt lat="46.6231083" lon="12.2236533"><ele>1449.0</ele><time>2026-05-02T13:49:07.398Z</time></trkpt><trkpt lat="46.62316" lon="12.223885"><ele>1444.0</ele><time>2026-05-02T13:49:08.397Z</time></trkpt><trkpt lat="46.6232233" lon="12.2240967"><ele>1439.0</ele><time>2026-05-02T13:49:09.398Z</time></trkpt><trkpt lat="46.6233067" lon="12.2242783"><ele>1434.0</ele><time>2026-05-02T13:49:10.398Z</time></trkpt><trkpt lat="46.6234083" lon="12.224445"><ele>1434.0</ele><time>2026-05-02T13:49:11.398Z</time></trkpt><trkpt lat="46.62352" lon="12.2246033"><ele>1434.0</ele><time>2026-05-02T13:49:12.397Z</time></trkpt><trkpt lat="46.6236433" lon="12.2247533"><ele>1434.0</ele><time>2026-05-02T13:49:13.398Z</time></trkpt><trkpt lat="46.6237767" lon="12.2249017"><ele>1433.0</ele><time>2026-05-02T13:49:14.397Z</time></trkpt><trkpt lat="46.6239133" lon="12.225035"><ele>1432.0</ele><time>2026-05-02T13:49:15.398Z</time></trkpt><trkpt lat="46.6240567" lon="12.225155"><ele>1431.0</ele><time>2026-05-02T13:49:16.397Z</time></trkpt><trkpt lat="46.62421" lon="12.2252517"><ele>1431.0</ele><time>2026-05-02T13:49:17.398Z</time></trkpt><trkpt lat="46.6243683" lon="12.2252933"><ele>1431.0</ele><time>2026-05-02T13:49:18.398Z</time></trkpt><trkpt lat="46.62454" lon="12.2253417"><ele>1431.0</ele><time>2026-05-02T13:49:19.397Z</time></trkpt><trkpt lat="46.6247133" lon="12.225395"><ele>1439.0</ele><time>2026-05-02T13:49:20.398Z</time></trkpt><trkpt lat="46.624895" lon="12.2254383"><ele>1447.0</ele><time>2026-05-02T13:49:21.397Z</time></trkpt><trkpt lat="46.6250717" lon="12.225495"><ele>1455.0</ele><time>2026-05-02T13:49:22.397Z</time></trkpt><trkpt lat="46.62524" lon="12.2255667"><ele>1445.6666666666667</ele><time>2026-05-02T13:49:23.398Z</time></trkpt><trkpt lat="46.6253933" lon="12.2256533"><ele>1436.3333333333335</ele><time>2026-05-02T13:49:24.397Z</time></trkpt><trkpt lat="46.6255567" lon="12.2257583"><ele>1427.0</ele><time>2026-05-02T13:49:25.398Z</time></trkpt><trkpt lat="46.6257133" lon="12.22589"><ele>1427.0</ele><time>2026-05-02T13:49:26.398Z</time></trkpt><trkpt lat="46.6258667" lon="12.2260283"><ele>1427.0</ele><time>2026-05-02T13:49:27.398Z</time></trkpt><trkpt lat="46.6260117" lon="12.22618"><ele>1427.0</ele><time>2026-05-02T13:49:28.398Z</time></trkpt><trkpt lat="46.6261517" lon="12.2263233"><ele>1425.3333333333335</ele><time>2026-05-02T13:49:29.398Z</time></trkpt><trkpt lat="46.6263" lon="12.22647"><ele>1423.6666666666667</ele><time>2026-05-02T13:49:30.397Z</time></trkpt><trkpt lat="46.6264417" lon="12.2266267"><ele>1422.0</ele><time>2026-05-02T13:49:31.398Z</time></trkpt><trkpt lat="46.6265867" lon="12.2267883"><ele>1422.0</ele><time>2026-05-02T13:49:32.398Z</time></trkpt><trkpt lat="46.6267283" lon="12.2269317"><ele>1422.0</ele><time>2026-05-02T13:49:33.398Z</time></trkpt><trkpt lat="46.6268767" lon="12.2270767"><ele>1422.0</ele><time>2026-05-02T13:49:34.398Z</time></trkpt><trkpt lat="46.6270133" lon="12.2272283"><ele>1417.6666666666667</ele><time>2026-05-02T13:49:35.398Z</time></trkpt><trkpt lat="46.627155" lon="12.2273783"><ele>1413.3333333333335</ele><time>2026-05-02T13:49:36.397Z</time></trkpt><trkpt lat="46.627305" lon="12.2275233"><ele>1409.0</ele><time>2026-05-02T13:49:37.398Z</time></trkpt><trkpt lat="46.627445" lon="12.2276733"><ele>1409.0</ele><time>2026-05-02T13:49:38.398Z</time></trkpt><trkpt lat="46.6275983" lon="12.22782"><ele>1409.0</ele><time>2026-05-02T13:49:39.398Z</time></trkpt><trkpt lat="46.627745" lon="12.2279667"><ele>1409.0</ele><time>2026-05-02T13:49:40.398Z</time></trkpt><trkpt lat="46.62789" lon="12.2281067"><ele>1407.3333333333335</ele><time>2026-05-02T13:49:41.398Z</time></trkpt><trkpt lat="46.6280267" lon="12.2282483"><ele>1405.6666666666667</ele><time>2026-05-02T13:49:42.398Z</time></trkpt><trkpt lat="46.6281567" lon="12.2283833"><ele>1404.0</ele><time>2026-05-02T13:49:43.398Z</time></trkpt><trkpt lat="46.6283017" lon="12.22851"><ele>1404.0</ele><time>2026-05-02T13:49:44.398Z</time></trkpt><trkpt lat="46.6284583" lon="12.22862"><ele>1404.0</ele><time>2026-05-02T13:49:45.398Z</time></trkpt><trkpt lat="46.6286217" lon="12.2287083"><ele>1404.0</ele><time>2026-05-02T13:49:46.398Z</time></trkpt><trkpt lat="46.6287867" lon="12.2287467"><ele>1410.0</ele><time>2026-05-02T13:49:47.398Z</time></trkpt><trkpt lat="46.6289533" lon="12.2287667"><ele>1416.0</ele><time>2026-05-02T13:49:48.398Z</time></trkpt><trkpt lat="46.6291167" lon="12.2287783"><ele>1422.0</ele><time>2026-05-02T13:49:49.398Z</time></trkpt><trkpt lat="46.62928" lon="12.22879"><ele>1422.0</ele><time>2026-05-02T13:49:50.398Z</time></trkpt><trkpt lat="46.629435" lon="12.228805"><ele>1422.0</ele><time>2026-05-02T13:49:51.398Z</time></trkpt><trkpt lat="46.6295783" lon="12.2288217"><ele>1422.0</ele><time>2026-05-02T13:49:52.397Z</time></trkpt><trkpt lat="46.6297233" lon="12.228835"><ele>1422.0</ele><time>2026-05-02T13:49:53.398Z</time></trkpt><trkpt lat="46.6298667" lon="12.2288533"><ele>1423.0</ele><time>2026-05-02T13:49:54.398Z</time></trkpt><trkpt lat="46.630005" lon="12.2288567"><ele>1424.0</ele><time>2026-05-02T13:49:55.398Z</time></trkpt><trkpt lat="46.630135" lon="12.2288733"><ele>1425.0</ele><time>2026-05-02T13:49:56.398Z</time></trkpt><trkpt lat="46.6302717" lon="12.228875"><ele>1426.0</ele><time>2026-05-02T13:49:57.398Z</time></trkpt><trkpt lat="46.6304083" lon="12.2288783"><ele>1427.25</ele><time>2026-05-02T13:49:58.398Z</time></trkpt><trkpt lat="46.63055" lon="12.2288883"><ele>1428.5</ele><time>2026-05-02T13:49:59.398Z</time></trkpt><trkpt lat="46.6306933" lon="12.228915"><ele>1429.75</ele><time>2026-05-02T13:50:00.398Z</time></trkpt><trkpt lat="46.6308333" lon="12.2289617"><ele>1431.0</ele><time>2026-05-02T13:50:01.398Z</time></trkpt><trkpt lat="46.6309667" lon="12.22902"><ele>1424.5</ele><time>2026-05-02T13:50:02.398Z</time></trkpt><trkpt lat="46.6310917" lon="12.2290817"><ele>1418.0</ele><time>2026-05-02T13:50:03.398Z</time></trkpt><trkpt lat="46.6312233" lon="12.2291383"><ele>1411.5</ele><time>2026-05-02T13:50:04.398Z</time></trkpt><trkpt lat="46.6313517" lon="12.2291933"><ele>1405.0</ele><time>2026-05-02T13:50:05.397Z</time></trkpt><trkpt lat="46.6314733" lon="12.229245"><ele>1405.0</ele><time>2026-05-02T13:50:06.397Z</time></trkpt><trkpt lat="46.631595" lon="12.2293017"><ele>1405.0</ele><time>2026-05-02T13:50:07.398Z</time></trkpt><trkpt lat="46.6317183" lon="12.2293483"><ele>1405.0</ele><time>2026-05-02T13:50:08.398Z</time></trkpt><trkpt lat="46.6318467" lon="12.2294017"><ele>1405.0</ele><time>2026-05-02T13:50:09.398Z</time></trkpt><trkpt lat="46.6319667" lon="12.22945"><ele>1405.0</ele><time>2026-05-02T13:50:10.397Z</time></trkpt><trkpt lat="46.6320917" lon="12.2294967"><ele>1405.0</ele><time>2026-05-02T13:50:11.398Z</time></trkpt><trkpt lat="46.6322167" lon="12.22955"><ele>1405.0</ele><time>2026-05-02T13:50:12.398Z</time></trkpt><trkpt lat="46.6323367" lon="12.2296133"><ele>1405.0</ele><time>2026-05-02T13:50:13.398Z</time></trkpt><trkpt lat="46.6324417" lon="12.2296767"><ele>1404.5</ele><time>2026-05-02T13:50:14.398Z</time></trkpt><trkpt lat="46.6325433" lon="12.229755"><ele>1404.0</ele><time>2026-05-02T13:50:15.398Z</time></trkpt><trkpt lat="46.6326467" lon="12.2298283"><ele>1403.5</ele><time>2026-05-02T13:50:16.398Z</time></trkpt><trkpt lat="46.6327483" lon="12.229905"><ele>1403.0</ele><time>2026-05-02T13:50:17.398Z</time></trkpt><trkpt lat="46.6328483" lon="12.2299933"><ele>1406.0</ele><time>2026-05-02T13:50:18.398Z</time></trkpt><trkpt lat="46.6329517" lon="12.2300783"><ele>1409.0</ele><time>2026-05-02T13:50:19.398Z</time></trkpt><trkpt lat="46.6330633" lon="12.2301617"><ele>1412.0</ele><time>2026-05-02T13:50:20.398Z</time></trkpt><trkpt lat="46.6331783" lon="12.2302467"><ele>1415.0</ele><time>2026-05-02T13:50:21.398Z</time></trkpt><trkpt lat="46.6332933" lon="12.2303383"><ele>1415.0</ele><time>2026-05-02T13:50:22.398Z</time></trkpt><trkpt lat="46.633415" lon="12.2304317"><ele>1415.0</ele><time>2026-05-02T13:50:23.398Z</time></trkpt><trkpt lat="46.6335367" lon="12.2305283"><ele>1415.0</ele><time>2026-05-02T13:50:24.397Z</time></trkpt><trkpt lat="46.6336567" lon="12.2306183"><ele>1415.0</ele><time>2026-05-02T13:50:25.398Z</time></trkpt><trkpt lat="46.63378" lon="12.2307083"><ele>1415.75</ele><time>2026-05-02T13:50:26.398Z</time></trkpt><trkpt lat="46.6339" lon="12.2308017"><ele>1416.5</ele><time>2026-05-02T13:50:27.398Z</time></trkpt><trkpt lat="46.6340133" lon="12.2308867"><ele>1417.25</ele><time>2026-05-02T13:50:28.398Z</time></trkpt><trkpt lat="46.634125" lon="12.2309733"><ele>1418.0</ele><time>2026-05-02T13:50:29.398Z</time></trkpt><trkpt lat="46.6342317" lon="12.2310583"><ele>1418.0</ele><time>2026-05-02T13:50:30.397Z</time></trkpt><trkpt lat="46.634335" lon="12.2311317"><ele>1418.0</ele><time>2026-05-02T13:50:31.398Z</time></trkpt><trkpt lat="46.63444" lon="12.2312033"><ele>1418.0</ele><time>2026-05-02T13:50:32.398Z</time></trkpt><trkpt lat="46.63455" lon="12.2312583"><ele>1418.0</ele><time>2026-05-02T13:50:33.398Z</time></trkpt><trkpt lat="46.6346783" lon="12.2313017"><ele>1420.3333333333335</ele><time>2026-05-02T13:50:34.398Z</time></trkpt><trkpt lat="46.6348217" lon="12.2313117"><ele>1422.6666666666667</ele><time>2026-05-02T13:50:35.398Z</time></trkpt><trkpt lat="46.63499" lon="12.2312967"><ele>1425.0</ele><time>2026-05-02T13:50:36.398Z</time></trkpt><trkpt lat="46.6351817" lon="12.2312417"><ele>1424.0</ele><time>2026-05-02T13:50:37.398Z</time></trkpt><trkpt lat="46.635385" lon="12.2311717"><ele>1423.0</ele><time>2026-05-02T13:50:38.398Z</time></trkpt><trkpt lat="46.6355867" lon="12.2311217"><ele>1422.0</ele><time>2026-05-02T13:50:39.398Z</time></trkpt><trkpt lat="46.6357883" lon="12.231085"><ele>1422.0</ele><time>2026-05-02T13:50:40.398Z</time></trkpt><trkpt lat="46.6359867" lon="12.2310533"><ele>1422.0</ele><time>2026-05-02T13:50:41.398Z</time></trkpt><trkpt lat="46.63618" lon="12.23103"><ele>1422.0</ele><time>2026-05-02T13:50:42.397Z</time></trkpt><trkpt lat="46.6363633" lon="12.2309917"><ele>1420.6666666666667</ele><time>2026-05-02T13:50:43.398Z</time></trkpt><trkpt lat="46.6365467" lon="12.2309667"><ele>1419.3333333333335</ele><time>2026-05-02T13:50:44.398Z</time></trkpt><trkpt lat="46.6367233" lon="12.2309367"><ele>1418.0</ele><time>2026-05-02T13:50:45.398Z</time></trkpt><trkpt lat="46.636905" lon="12.2308967"><ele>1417.0</ele><time>2026-05-02T13:50:46.398Z</time></trkpt><trkpt lat="46.6370817" lon="12.2308433"><ele>1416.0</ele><time>2026-05-02T13:50:47.398Z</time></trkpt><trkpt lat="46.6372467" lon="12.230765"><ele>1415.0</ele><time>2026-05-02T13:50:48.397Z</time></trkpt><trkpt lat="46.637405" lon="12.2306733"><ele>1420.0</ele><time>2026-05-02T13:50:49.398Z</time></trkpt><trkpt lat="46.6375683" lon="12.2305583"><ele>1425.0</ele><time>2026-05-02T13:50:50.398Z</time></trkpt><trkpt lat="46.6377267" lon="12.2304583"><ele>1430.0</ele><time>2026-05-02T13:50:51.398Z</time></trkpt><trkpt lat="46.6378783" lon="12.23037"><ele>1430.0</ele><time>2026-05-02T13:50:52.398Z</time></trkpt><trkpt lat="46.6380283" lon="12.2303"><ele>1430.0</ele><time>2026-05-02T13:50:53.398Z</time></trkpt><trkpt lat="46.6381833" lon="12.2302683"><ele>1430.0</ele><time>2026-05-02T13:50:54.398Z</time></trkpt><trkpt lat="46.6383433" lon="12.23028"><ele>1430.0</ele><time>2026-05-02T13:50:55.398Z</time></trkpt><trkpt lat="46.63851" lon="12.2303333"><ele>1430.0</ele><time>2026-05-02T13:50:56.397Z</time></trkpt><trkpt lat="46.63869" lon="12.230405"><ele>1430.0</ele><time>2026-05-02T13:50:57.397Z</time></trkpt><trkpt lat="46.6388583" lon="12.230475"><ele>1430.6666666666667</ele><time>2026-05-02T13:50:58.398Z</time></trkpt><trkpt lat="46.6390283" lon="12.23055"><ele>1431.3333333333333</ele><time>2026-05-02T13:50:59.398Z</time></trkpt><trkpt lat="46.63919" lon="12.2306583"><ele>1432.0</ele><time>2026-05-02T13:51:00.398Z</time></trkpt><trkpt lat="46.6393433" lon="12.2307817"><ele>1426.6666666666665</ele><time>2026-05-02T13:51:01.398Z</time></trkpt><trkpt lat="46.6395" lon="12.2309083"><ele>1421.3333333333333</ele><time>2026-05-02T13:51:02.398Z</time></trkpt><trkpt lat="46.63964" lon="12.2310433"><ele>1416.0</ele><time>2026-05-02T13:51:03.397Z</time></trkpt><trkpt lat="46.6397667" lon="12.231175"><ele>1416.0</ele><time>2026-05-02T13:51:04.398Z</time></trkpt><trkpt lat="46.6398933" lon="12.2312983"><ele>1416.0</ele><time>2026-05-02T13:51:05.397Z</time></trkpt><trkpt lat="46.6400167" lon="12.2314183"><ele>1416.0</ele><time>2026-05-02T13:51:06.397Z</time></trkpt><trkpt lat="46.6401417" lon="12.2315233"><ele>1416.0</ele><time>2026-05-02T13:51:07.398Z</time></trkpt><trkpt lat="46.640255" lon="12.2316217"><ele>1412.0</ele><time>2026-05-02T13:51:08.398Z</time></trkpt><trkpt lat="46.6403717" lon="12.2317283"><ele>1408.0</ele><time>2026-05-02T13:51:09.398Z</time></trkpt><trkpt lat="46.6404933" lon="12.2318383"><ele>1404.0</ele><time>2026-05-02T13:51:10.398Z</time></trkpt><trkpt lat="46.6406333" lon="12.231935"><ele>1400.0</ele><time>2026-05-02T13:51:11.398Z</time></trkpt><trkpt lat="46.6407767" lon="12.2319967"><ele>1400.0</ele><time>2026-05-02T13:51:12.397Z</time></trkpt><trkpt lat="46.6409283" lon="12.2320433"><ele>1400.0</ele><time>2026-05-02T13:51:13.398Z</time></trkpt><trkpt lat="46.6410817" lon="12.2320383"><ele>1400.0</ele><time>2026-05-02T13:51:14.398Z</time></trkpt><trkpt lat="46.641235" lon="12.2320683"><ele>1401.3333333333335</ele><time>2026-05-02T13:51:15.398Z</time></trkpt><trkpt lat="46.641405" lon="12.23212"><ele>1402.6666666666667</ele><time>2026-05-02T13:51:16.397Z</time></trkpt><trkpt lat="46.64158" lon="12.2321567"><ele>1404.0</ele><time>2026-05-02T13:51:17.398Z</time></trkpt><trkpt lat="46.6417567" lon="12.2321817"><ele>1404.0</ele><time>2026-05-02T13:51:18.398Z</time></trkpt><trkpt lat="46.6419333" lon="12.2322017"><ele>1404.0</ele><time>2026-05-02T13:51:19.398Z</time></trkpt><trkpt lat="46.6421067" lon="12.2322217"><ele>1404.0</ele><time>2026-05-02T13:51:20.398Z</time></trkpt><trkpt lat="46.6422817" lon="12.232245"><ele>1403.3333333333333</ele><time>2026-05-02T13:51:21.398Z</time></trkpt><trkpt lat="46.6424533" lon="12.232265"><ele>1402.6666666666665</ele><time>2026-05-02T13:51:22.398Z</time></trkpt><trkpt lat="46.6426183" lon="12.2322817"><ele>1402.0</ele><time>2026-05-02T13:51:23.398Z</time></trkpt><trkpt lat="46.6427817" lon="12.2323017"><ele>1401.3333333333333</ele><time>2026-05-02T13:51:24.398Z</time></trkpt><trkpt lat="46.6429367" lon="12.2323217"><ele>1400.6666666666667</ele><time>2026-05-02T13:51:25.398Z</time></trkpt><trkpt lat="46.6430867" lon="12.2323283"><ele>1400.0</ele><time>2026-05-02T13:51:26.398Z</time></trkpt><trkpt lat="46.64324" lon="12.2323417"><ele>1400.0</ele><time>2026-05-02T13:51:27.398Z</time></trkpt><trkpt lat="46.64339" lon="12.2323583"><ele>1400.0</ele><time>2026-05-02T13:51:28.397Z</time></trkpt><trkpt lat="46.643535" lon="12.2323783"><ele>1400.0</ele><time>2026-05-02T13:51:29.398Z</time></trkpt><trkpt lat="46.6436883" lon="12.2323983"><ele>1399.75</ele><time>2026-05-02T13:51:30.398Z</time></trkpt><trkpt lat="46.6438367" lon="12.232415"><ele>1399.5</ele><time>2026-05-02T13:51:31.398Z</time></trkpt><trkpt lat="46.643985" lon="12.2324333"><ele>1399.25</ele><time>2026-05-02T13:51:32.398Z</time></trkpt><trkpt lat="46.64413" lon="12.232445"><ele>1399.0</ele><time>2026-05-02T13:51:33.398Z</time></trkpt><trkpt lat="46.6442817" lon="12.2324617"><ele>1399.0</ele><time>2026-05-02T13:51:34.397Z</time></trkpt><trkpt lat="46.64443" lon="12.23248"><ele>1399.0</ele><time>2026-05-02T13:51:35.398Z</time></trkpt><trkpt lat="46.6445783" lon="12.232495"><ele>1399.0</ele><time>2026-05-02T13:51:36.398Z</time></trkpt><trkpt lat="46.6447283" lon="12.2325183"><ele>1399.0</ele><time>2026-05-02T13:51:37.397Z</time></trkpt><trkpt lat="46.6448817" lon="12.2325267"><ele>1397.5</ele><time>2026-05-02T13:51:38.398Z</time></trkpt><trkpt lat="46.645035" lon="12.2325467"><ele>1396.0</ele><time>2026-05-02T13:51:39.398Z</time></trkpt><trkpt lat="46.6451733" lon="12.2325583"><ele>1394.5</ele><time>2026-05-02T13:51:40.398Z</time></trkpt><trkpt lat="46.64531" lon="12.232575"><ele>1393.0</ele><time>2026-05-02T13:51:41.398Z</time></trkpt><trkpt lat="46.645455" lon="12.2325783"><ele>1393.0</ele><time>2026-05-02T13:51:42.398Z</time></trkpt><trkpt lat="46.6455917" lon="12.2325783"><ele>1393.0</ele><time>2026-05-02T13:51:43.398Z</time></trkpt><trkpt lat="46.645735" lon="12.232565"><ele>1393.0</ele><time>2026-05-02T13:51:44.398Z</time></trkpt><trkpt lat="46.6458767" lon="12.2325183"><ele>1393.0</ele><time>2026-05-02T13:51:45.397Z</time></trkpt><trkpt lat="46.6460317" lon="12.2324467"><ele>1393.3333333333333</ele><time>2026-05-02T13:51:46.398Z</time></trkpt><trkpt lat="46.64619" lon="12.23233"><ele>1393.6666666666667</ele><time>2026-05-02T13:51:47.397Z</time></trkpt><trkpt lat="46.6463767" lon="12.23219"><ele>1394.0</ele><time>2026-05-02T13:51:48.398Z</time></trkpt><trkpt lat="46.64657" lon="12.232035"><ele>1394.0</ele><time>2026-05-02T13:51:49.398Z</time></trkpt><trkpt lat="46.6467767" lon="12.2318933"><ele>1394.0</ele><time>2026-05-02T13:51:50.398Z</time></trkpt><trkpt lat="46.6469767" lon="12.2317667"><ele>1394.0</ele><time>2026-05-02T13:51:51.398Z</time></trkpt><trkpt lat="46.6471717" lon="12.23164"><ele>1393.3333333333335</ele><time>2026-05-02T13:51:52.397Z</time></trkpt><trkpt lat="46.64736" lon="12.2315083"><ele>1392.6666666666667</ele><time>2026-05-02T13:51:53.398Z</time></trkpt><trkpt lat="46.64755" lon="12.231365"><ele>1392.0</ele><time>2026-05-02T13:51:54.398Z</time></trkpt><trkpt lat="46.6477417" lon="12.2312233"><ele>1391.6666666666667</ele><time>2026-05-02T13:51:55.398Z</time></trkpt><trkpt lat="46.6479467" lon="12.23108"><ele>1391.3333333333335</ele><time>2026-05-02T13:51:56.397Z</time></trkpt><trkpt lat="46.6481367" lon="12.230935"><ele>1391.0</ele><time>2026-05-02T13:51:57.398Z</time></trkpt><trkpt lat="46.648335" lon="12.2307883"><ele>1391.0</ele><time>2026-05-02T13:51:58.397Z</time></trkpt><trkpt lat="46.6485167" lon="12.2306633"><ele>1391.0</ele><time>2026-05-02T13:51:59.398Z</time></trkpt><trkpt lat="46.6487067" lon="12.230535"><ele>1391.0</ele><time>2026-05-02T13:52:00.398Z</time></trkpt><trkpt lat="46.64889" lon="12.2303833"><ele>1390.6666666666667</ele><time>2026-05-02T13:52:01.398Z</time></trkpt><trkpt lat="46.6490567" lon="12.2302283"><ele>1390.3333333333333</ele><time>2026-05-02T13:52:02.398Z</time></trkpt><trkpt lat="46.649215" lon="12.2300617"><ele>1390.0</ele><time>2026-05-02T13:52:03.397Z</time></trkpt><trkpt lat="46.64937" lon="12.229885"><ele>1390.6666666666665</ele><time>2026-05-02T13:52:04.398Z</time></trkpt><trkpt lat="46.649515" lon="12.2297117"><ele>1391.3333333333333</ele><time>2026-05-02T13:52:05.398Z</time></trkpt><trkpt lat="46.6496667" lon="12.2295367"><ele>1392.0</ele><time>2026-05-02T13:52:06.398Z</time></trkpt><trkpt lat="46.6498133" lon="12.2293633"><ele>1392.0</ele><time>2026-05-02T13:52:07.398Z</time></trkpt><trkpt lat="46.6499583" lon="12.2291917"><ele>1392.0</ele><time>2026-05-02T13:52:08.398Z</time></trkpt><trkpt lat="46.6501" lon="12.229025"><ele>1392.0</ele><time>2026-05-02T13:52:09.398Z</time></trkpt><trkpt lat="46.650235" lon="12.228915"><ele>1390.6666666666667</ele><time>2026-05-02T13:52:10.398Z</time></trkpt><trkpt lat="46.650375" lon="12.228835"><ele>1389.3333333333335</ele><time>2026-05-02T13:52:11.398Z</time></trkpt><trkpt lat="46.6505367" lon="12.22879"><ele>1388.0</ele><time>2026-05-02T13:52:12.397Z</time></trkpt><trkpt lat="46.65071" lon="12.228785"><ele>1388.0</ele><time>2026-05-02T13:52:13.398Z</time></trkpt><trkpt lat="46.6509033" lon="12.2288017"><ele>1388.0</ele><time>2026-05-02T13:52:14.398Z</time></trkpt><trkpt lat="46.651085" lon="12.22883"><ele>1388.0</ele><time>2026-05-02T13:52:15.397Z</time></trkpt><trkpt lat="46.651275" lon="12.2288167"><ele>1385.6666666666667</ele><time>2026-05-02T13:52:16.398Z</time></trkpt><trkpt lat="46.6514617" lon="12.2287667"><ele>1383.3333333333333</ele><time>2026-05-02T13:52:17.398Z</time></trkpt><trkpt lat="46.6516517" lon="12.2286817"><ele>1381.0</ele><time>2026-05-02T13:52:18.398Z</time></trkpt><trkpt lat="46.6518417" lon="12.2285933"><ele>1381.3333333333333</ele><time>2026-05-02T13:52:19.398Z</time></trkpt><trkpt lat="46.652025" lon="12.2284983"><ele>1381.6666666666667</ele><time>2026-05-02T13:52:20.398Z</time></trkpt><trkpt lat="46.6522133" lon="12.2284133"><ele>1382.0</ele><time>2026-05-02T13:52:21.398Z</time></trkpt><trkpt lat="46.6524083" lon="12.22833"><ele>1382.0</ele><time>2026-05-02T13:52:22.398Z</time></trkpt><trkpt lat="46.652605" lon="12.2282667"><ele>1382.0</ele><time>2026-05-02T13:52:23.398Z</time></trkpt><trkpt lat="46.6528067" lon="12.2282267"><ele>1382.0</ele><time>2026-05-02T13:52:24.398Z</time></trkpt><trkpt lat="46.6530133" lon="12.2282033"><ele>1382.3333333333335</ele><time>2026-05-02T13:52:25.398Z</time></trkpt><trkpt lat="46.6532133" lon="12.2282117"><ele>1382.6666666666667</ele><time>2026-05-02T13:52:26.398Z</time></trkpt><trkpt lat="46.65342" lon="12.22824"><ele>1383.0</ele><time>2026-05-02T13:52:27.398Z</time></trkpt><trkpt lat="46.653625" lon="12.2282833"><ele>1380.6666666666667</ele><time>2026-05-02T13:52:28.398Z</time></trkpt><trkpt lat="46.6538267" lon="12.2283383"><ele>1378.3333333333335</ele><time>2026-05-02T13:52:29.398Z</time></trkpt><trkpt lat="46.654015" lon="12.228385"><ele>1376.0</ele><time>2026-05-02T13:52:30.398Z</time></trkpt><trkpt lat="46.6541983" lon="12.22842"><ele>1376.0</ele><time>2026-05-02T13:52:31.398Z</time></trkpt><trkpt lat="46.6543733" lon="12.2284517"><ele>1376.0</ele><time>2026-05-02T13:52:32.398Z</time></trkpt><trkpt lat="46.6545367" lon="12.2284533"><ele>1376.0</ele><time>2026-05-02T13:52:33.398Z</time></trkpt><trkpt lat="46.6546967" lon="12.2283983"><ele>1374.3333333333335</ele><time>2026-05-02T13:52:34.398Z</time></trkpt><trkpt lat="46.65486" lon="12.2283083"><ele>1372.6666666666667</ele><time>2026-05-02T13:52:35.398Z</time></trkpt><trkpt lat="46.6550183" lon="12.22819"><ele>1371.0</ele><time>2026-05-02T13:52:36.398Z</time></trkpt><trkpt lat="46.65517" lon="12.22806"><ele>1369.6666666666667</ele><time>2026-05-02T13:52:37.398Z</time></trkpt><trkpt lat="46.6553333" lon="12.2279117"><ele>1368.3333333333335</ele><time>2026-05-02T13:52:38.398Z</time></trkpt><trkpt lat="46.65548" lon="12.227775"><ele>1367.0</ele><time>2026-05-02T13:52:39.398Z</time></trkpt><trkpt lat="46.65561" lon="12.227605"><ele>1367.0</ele><time>2026-05-02T13:52:40.397Z</time></trkpt><trkpt lat="46.655725" lon="12.2274067"><ele>1367.0</ele><time>2026-05-02T13:52:41.398Z</time></trkpt><trkpt lat="46.6558283" lon="12.2271983"><ele>1367.0</ele><time>2026-05-02T13:52:42.397Z</time></trkpt><trkpt lat="46.6559333" lon="12.2269833"><ele>1366.6666666666667</ele><time>2026-05-02T13:52:43.398Z</time></trkpt><trkpt lat="46.6560133" lon="12.22674"><ele>1366.3333333333333</ele><time>2026-05-02T13:52:44.398Z</time></trkpt><trkpt lat="46.6561133" lon="12.2265033"><ele>1366.0</ele><time>2026-05-02T13:52:45.398Z</time></trkpt><trkpt lat="46.6561983" lon="12.226275"><ele>1365.5</ele><time>2026-05-02T13:52:46.398Z</time></trkpt><trkpt lat="46.6562833" lon="12.226065"><ele>1365.0</ele><time>2026-05-02T13:52:47.398Z</time></trkpt><trkpt lat="46.6563583" lon="12.2258817"><ele>1364.5</ele><time>2026-05-02T13:52:48.397Z</time></trkpt><trkpt lat="46.65644" lon="12.2257383"><ele>1364.0</ele><time>2026-05-02T13:52:49.398Z</time></trkpt><trkpt lat="46.6565383" lon="12.2256317"><ele>1364.5</ele><time>2026-05-02T13:52:50.398Z</time></trkpt><trkpt lat="46.6566583" lon="12.2255717"><ele>1365.0</ele><time>2026-05-02T13:52:51.398Z</time></trkpt><trkpt lat="46.6568017" lon="12.225565"><ele>1365.5</ele><time>2026-05-02T13:52:52.397Z</time></trkpt><trkpt lat="46.6569767" lon="12.225605"><ele>1366.0</ele><time>2026-05-02T13:52:53.398Z</time></trkpt><trkpt lat="46.6571667" lon="12.225665"><ele>1366.0</ele><time>2026-05-02T13:52:54.398Z</time></trkpt><trkpt lat="46.65736" lon="12.2257267"><ele>1366.0</ele><time>2026-05-02T13:52:55.398Z</time></trkpt><trkpt lat="46.6575583" lon="12.22579"><ele>1366.0</ele><time>2026-05-02T13:52:56.398Z</time></trkpt><trkpt lat="46.6577633" lon="12.22585"><ele>1366.3333333333333</ele><time>2026-05-02T13:52:57.398Z</time></trkpt><trkpt lat="46.6579517" lon="12.2259017"><ele>1366.6666666666667</ele><time>2026-05-02T13:52:58.398Z</time></trkpt><trkpt lat="46.6581383" lon="12.22594"><ele>1367.0</ele><time>2026-05-02T13:52:59.398Z</time></trkpt><trkpt lat="46.6583283" lon="12.225975"><ele>1367.0</ele><time>2026-05-02T13:53:00.398Z</time></trkpt><trkpt lat="46.65852" lon="12.2259733"><ele>1367.0</ele><time>2026-05-02T13:53:01.397Z</time></trkpt><trkpt lat="46.65872" lon="12.225935"><ele>1367.0</ele><time>2026-05-02T13:53:02.398Z</time></trkpt><trkpt lat="46.6589083" lon="12.2258517"><ele>1366.3333333333335</ele><time>2026-05-02T13:53:03.398Z</time></trkpt><trkpt lat="46.6590833" lon="12.2257317"><ele>1365.6666666666667</ele><time>2026-05-02T13:53:04.398Z</time></trkpt><trkpt lat="46.6592467" lon="12.2255883"><ele>1365.0</ele><time>2026-05-02T13:53:05.398Z</time></trkpt><trkpt lat="46.6594183" lon="12.2254167"><ele>1363.3333333333333</ele><time>2026-05-02T13:53:06.398Z</time></trkpt><trkpt lat="46.659585" lon="12.2252467"><ele>1361.6666666666665</ele><time>2026-05-02T13:53:07.398Z</time></trkpt><trkpt lat="46.6597483" lon="12.225055"><ele>1360.0</ele><time>2026-05-02T13:53:08.397Z</time></trkpt><trkpt lat="46.6599133" lon="12.224875"><ele>1359.6666666666665</ele><time>2026-05-02T13:53:09.398Z</time></trkpt><trkpt lat="46.6600833" lon="12.22469"><ele>1359.3333333333333</ele><time>2026-05-02T13:53:10.398Z</time></trkpt><trkpt lat="46.6602533" lon="12.224515"><ele>1359.0</ele><time>2026-05-02T13:53:11.398Z</time></trkpt><trkpt lat="46.66042" lon="12.2243483"><ele>1359.0</ele><time>2026-05-02T13:53:12.397Z</time></trkpt><trkpt lat="46.6605833" lon="12.224185"><ele>1359.0</ele><time>2026-05-02T13:53:13.398Z</time></trkpt><trkpt lat="46.660745" lon="12.22402"><ele>1359.0</ele><time>2026-05-02T13:53:14.398Z</time></trkpt><trkpt lat="46.6609067" lon="12.2238733"><ele>1357.6666666666667</ele><time>2026-05-02T13:53:15.398Z</time></trkpt><trkpt lat="46.6610883" lon="12.22375"><ele>1356.3333333333335</ele><time>2026-05-02T13:53:16.398Z</time></trkpt><trkpt lat="46.66129" lon="12.2236567"><ele>1355.0</ele><time>2026-05-02T13:53:17.398Z</time></trkpt><trkpt lat="46.6615033" lon="12.2235883"><ele>1355.0</ele><time>2026-05-02T13:53:18.398Z</time></trkpt><trkpt lat="46.6617217" lon="12.223545"><ele>1355.0</ele><time>2026-05-02T13:53:19.398Z</time></trkpt><trkpt lat="46.6619333" lon="12.22351"><ele>1355.0</ele><time>2026-05-02T13:53:20.398Z</time></trkpt><trkpt lat="46.6621433" lon="12.2234767"><ele>1352.6666666666667</ele><time>2026-05-02T13:53:21.398Z</time></trkpt><trkpt lat="46.6623533" lon="12.2234383"><ele>1350.3333333333333</ele><time>2026-05-02T13:53:22.398Z</time></trkpt><trkpt lat="46.6625733" lon="12.2233983"><ele>1348.0</ele><time>2026-05-02T13:53:23.398Z</time></trkpt><trkpt lat="46.6627917" lon="12.2233533"><ele>1347.3333333333333</ele><time>2026-05-02T13:53:24.398Z</time></trkpt><trkpt lat="46.6630083" lon="12.2233117"><ele>1346.6666666666667</ele><time>2026-05-02T13:53:25.398Z</time></trkpt><trkpt lat="46.66322" lon="12.2232867"><ele>1346.0</ele><time>2026-05-02T13:53:26.398Z</time></trkpt><trkpt lat="46.6634317" lon="12.2232467"><ele>1345.3333333333335</ele><time>2026-05-02T13:53:27.398Z</time></trkpt><trkpt lat="46.663645" lon="12.2232033"><ele>1344.6666666666667</ele><time>2026-05-02T13:53:28.398Z</time></trkpt><trkpt lat="46.6638583" lon="12.2231517"><ele>1344.0</ele><time>2026-05-02T13:53:29.398Z</time></trkpt><trkpt lat="46.664065" lon="12.2230983"><ele>1346.6666666666667</ele><time>2026-05-02T13:53:30.398Z</time></trkpt><trkpt lat="46.66428" lon="12.2230533"><ele>1349.3333333333335</ele><time>2026-05-02T13:53:31.398Z</time></trkpt><trkpt lat="46.6644983" lon="12.2229967"><ele>1352.0</ele><time>2026-05-02T13:53:32.398Z</time></trkpt><trkpt lat="46.6647067" lon="12.2229367"><ele>1352.0</ele><time>2026-05-02T13:53:33.397Z</time></trkpt><trkpt lat="46.6649083" lon="12.22287"><ele>1352.0</ele><time>2026-05-02T13:53:34.397Z</time></trkpt><trkpt lat="46.6651133" lon="12.2228083"><ele>1352.0</ele><time>2026-05-02T13:53:35.398Z</time></trkpt><trkpt lat="46.66533" lon="12.22274"><ele>1348.5</ele><time>2026-05-02T13:53:36.397Z</time></trkpt><trkpt lat="46.66555" lon="12.2226667"><ele>1345.0</ele><time>2026-05-02T13:53:37.397Z</time></trkpt><trkpt lat="46.6657683" lon="12.22259"><ele>1345.0</ele><time>2026-05-02T13:53:38.397Z</time></trkpt><trkpt lat="46.6659867" lon="12.2225233"><ele>1345.0</ele><time>2026-05-02T13:53:39.398Z</time></trkpt><trkpt lat="46.666205" lon="12.2224583"><ele>1345.0</ele><time>2026-05-02T13:53:40.398Z</time></trkpt><trkpt lat="46.66642" lon="12.2223883"><ele>1345.3333333333333</ele><time>2026-05-02T13:53:41.398Z</time></trkpt><trkpt lat="46.6666383" lon="12.2223283"><ele>1345.6666666666667</ele><time>2026-05-02T13:53:42.398Z</time></trkpt><trkpt lat="46.6668583" lon="12.2222683"><ele>1346.0</ele><time>2026-05-02T13:53:43.398Z</time></trkpt><trkpt lat="46.6670783" lon="12.2222117"><ele>1345.0</ele><time>2026-05-02T13:53:44.398Z</time></trkpt><trkpt lat="46.6673033" lon="12.222145"><ele>1344.0</ele><time>2026-05-02T13:53:45.398Z</time></trkpt><trkpt lat="46.667525" lon="12.222085"><ele>1344.0</ele><time>2026-05-02T13:53:46.397Z</time></trkpt><trkpt lat="46.6677417" lon="12.2220167"><ele>1344.0</ele><time>2026-05-02T13:53:47.398Z</time></trkpt><trkpt lat="46.6679717" lon="12.221955"><ele>1341.0</ele><time>2026-05-02T13:53:48.397Z</time></trkpt><trkpt lat="46.6682083" lon="12.2218733"><ele>1338.0</ele><time>2026-05-02T13:53:49.398Z</time></trkpt><trkpt lat="46.66844" lon="12.22181"><ele>1337.6666666666667</ele><time>2026-05-02T13:53:50.398Z</time></trkpt><trkpt lat="46.66865" lon="12.2217533"><ele>1337.3333333333335</ele><time>2026-05-02T13:53:51.398Z</time></trkpt><trkpt lat="46.668865" lon="12.22168"><ele>1337.0</ele><time>2026-05-02T13:53:52.398Z</time></trkpt><trkpt lat="46.669085" lon="12.221595"><ele>1337.0</ele><time>2026-05-02T13:53:53.398Z</time></trkpt><trkpt lat="46.6693" lon="12.2214867"><ele>1337.0</ele><time>2026-05-02T13:53:54.397Z</time></trkpt><trkpt lat="46.6695083" lon="12.221385"><ele>1337.0</ele><time>2026-05-02T13:53:55.398Z</time></trkpt><trkpt lat="46.6697317" lon="12.221315"><ele>1337.0</ele><time>2026-05-02T13:53:56.398Z</time></trkpt><trkpt lat="46.66995" lon="12.2212417"><ele>1337.0</ele><time>2026-05-02T13:53:57.398Z</time></trkpt><trkpt lat="46.6701633" lon="12.2211567"><ele>1337.0</ele><time>2026-05-02T13:53:58.398Z</time></trkpt><trkpt lat="46.67037" lon="12.2210767"><ele>1335.3333333333335</ele><time>2026-05-02T13:53:59.398Z</time></trkpt><trkpt lat="46.6705783" lon="12.221035"><ele>1333.6666666666667</ele><time>2026-05-02T13:54:00.398Z</time></trkpt><trkpt lat="46.6707683" lon="12.221035"><ele>1332.0</ele><time>2026-05-02T13:54:01.397Z</time></trkpt><trkpt lat="46.670945" lon="12.2210667"><ele>1333.0</ele><time>2026-05-02T13:54:02.398Z</time></trkpt><trkpt lat="46.671115" lon="12.2211567"><ele>1334.0</ele><time>2026-05-02T13:54:03.398Z</time></trkpt><trkpt lat="46.67127" lon="12.2212767"><ele>1335.0</ele><time>2026-05-02T13:54:04.397Z</time></trkpt><trkpt lat="46.6714183" lon="12.2213933"><ele>1334.0</ele><time>2026-05-02T13:54:05.398Z</time></trkpt><trkpt lat="46.67156" lon="12.2214833"><ele>1333.0</ele><time>2026-05-02T13:54:06.397Z</time></trkpt><trkpt lat="46.6717217" lon="12.2215483"><ele>1332.0</ele><time>2026-05-02T13:54:07.398Z</time></trkpt><trkpt lat="46.6718733" lon="12.2215317"><ele>1331.6666666666667</ele><time>2026-05-02T13:54:08.398Z</time></trkpt><trkpt lat="46.6720733" lon="12.221525"><ele>1331.3333333333335</ele><time>2026-05-02T13:54:09.398Z</time></trkpt><trkpt lat="46.6722767" lon="12.2215033"><ele>1331.0</ele><time>2026-05-02T13:54:10.398Z</time></trkpt><trkpt lat="46.6724833" lon="12.2214817"><ele>1331.3333333333335</ele><time>2026-05-02T13:54:11.397Z</time></trkpt><trkpt lat="46.67269" lon="12.22147"><ele>1331.6666666666667</ele><time>2026-05-02T13:54:12.398Z</time></trkpt><trkpt lat="46.6728867" lon="12.221475"><ele>1332.0</ele><time>2026-05-02T13:54:13.398Z</time></trkpt><trkpt lat="46.67308" lon="12.2215233"><ele>1332.0</ele><time>2026-05-02T13:54:14.398Z</time></trkpt><trkpt lat="46.6732667" lon="12.2215783"><ele>1332.0</ele><time>2026-05-02T13:54:15.398Z</time></trkpt><trkpt lat="46.67344" lon="12.22164"><ele>1332.0</ele><time>2026-05-02T13:54:16.398Z</time></trkpt><trkpt lat="46.673625" lon="12.2216783"><ele>1330.3333333333333</ele><time>2026-05-02T13:54:17.397Z</time></trkpt><trkpt lat="46.6738133" lon="12.2217067"><ele>1328.6666666666665</ele><time>2026-05-02T13:54:18.398Z</time></trkpt><trkpt lat="46.67399" lon="12.221735"><ele>1327.0</ele><time>2026-05-02T13:54:19.398Z</time></trkpt><trkpt lat="46.6741417" lon="12.221745"><ele>1327.0</ele><time>2026-05-02T13:54:20.397Z</time></trkpt><trkpt lat="46.67432" lon="12.221755"><ele>1327.0</ele><time>2026-05-02T13:54:21.398Z</time></trkpt><trkpt lat="46.6745033" lon="12.2217733"><ele>1327.0</ele><time>2026-05-02T13:54:22.398Z</time></trkpt><trkpt lat="46.674695" lon="12.22181"><ele>1324.3333333333333</ele><time>2026-05-02T13:54:23.398Z</time></trkpt><trkpt lat="46.6749033" lon="12.2218567"><ele>1321.6666666666667</ele><time>2026-05-02T13:54:24.398Z</time></trkpt><trkpt lat="46.6751067" lon="12.22195"><ele>1319.0</ele><time>2026-05-02T13:54:25.398Z</time></trkpt><trkpt lat="46.6753083" lon="12.2220317"><ele>1319.0</ele><time>2026-05-02T13:54:26.398Z</time></trkpt><trkpt lat="46.6755083" lon="12.2220933"><ele>1319.0</ele><time>2026-05-02T13:54:27.398Z</time></trkpt><trkpt lat="46.6757133" lon="12.22217"><ele>1319.0</ele><time>2026-05-02T13:54:28.397Z</time></trkpt><trkpt lat="46.6759267" lon="12.2222433"><ele>1319.0</ele><time>2026-05-02T13:54:29.398Z</time></trkpt><trkpt lat="46.67614" lon="12.2223033"><ele>1319.0</ele><time>2026-05-02T13:54:30.398Z</time></trkpt><trkpt lat="46.67635" lon="12.2223667"><ele>1319.0</ele><time>2026-05-02T13:54:31.398Z</time></trkpt><trkpt lat="46.6765633" lon="12.2224433"><ele>1319.0</ele><time>2026-05-02T13:54:32.397Z</time></trkpt><trkpt lat="46.6767733" lon="12.222505"><ele>1319.0</ele><time>2026-05-02T13:54:33.398Z</time></trkpt><trkpt lat="46.6769933" lon="12.2225833"><ele>1319.0</ele><time>2026-05-02T13:54:34.398Z</time></trkpt><trkpt lat="46.6772133" lon="12.2226583"><ele>1316.3333333333335</ele><time>2026-05-02T13:54:35.398Z</time></trkpt><trkpt lat="46.6774333" lon="12.22273"><ele>1313.6666666666667</ele><time>2026-05-02T13:54:36.398Z</time></trkpt><trkpt lat="46.6776467" lon="12.2227983"><ele>1311.0</ele><time>2026-05-02T13:54:37.398Z</time></trkpt><trkpt lat="46.67785" lon="12.22286"><ele>1310.0</ele><time>2026-05-02T13:54:38.397Z</time></trkpt><trkpt lat="46.6780533" lon="12.2229333"><ele>1309.0</ele><time>2026-05-02T13:54:39.398Z</time></trkpt><trkpt lat="46.6782567" lon="12.2230067"><ele>1308.0</ele><time>2026-05-02T13:54:40.398Z</time></trkpt><trkpt lat="46.6784617" lon="12.2230767"><ele>1310.3333333333333</ele><time>2026-05-02T13:54:41.398Z</time></trkpt><trkpt lat="46.678665" lon="12.2231517"><ele>1312.6666666666665</ele><time>2026-05-02T13:54:42.398Z</time></trkpt><trkpt lat="46.6788767" lon="12.2232133"><ele>1315.0</ele><time>2026-05-02T13:54:43.398Z</time></trkpt><trkpt lat="46.6790883" lon="12.2232933"><ele>1315.0</ele><time>2026-05-02T13:54:44.398Z</time></trkpt><trkpt lat="46.6793033" lon="12.22336"><ele>1315.0</ele><time>2026-05-02T13:54:45.397Z</time></trkpt><trkpt lat="46.6795233" lon="12.2234183"><ele>1315.0</ele><time>2026-05-02T13:54:46.398Z</time></trkpt><trkpt lat="46.67974" lon="12.2234883"><ele>1314.0</ele><time>2026-05-02T13:54:47.398Z</time></trkpt><trkpt lat="46.67995" lon="12.2235533"><ele>1313.0</ele><time>2026-05-02T13:54:48.398Z</time></trkpt><trkpt lat="46.6801583" lon="12.22362"><ele>1312.0</ele><time>2026-05-02T13:54:49.397Z</time></trkpt><trkpt lat="46.6803683" lon="12.2236983"><ele>1311.6666666666665</ele><time>2026-05-02T13:54:50.398Z</time></trkpt><trkpt lat="46.6805833" lon="12.223775"><ele>1311.3333333333333</ele><time>2026-05-02T13:54:51.398Z</time></trkpt><trkpt lat="46.680795" lon="12.2238417"><ele>1311.0</ele><time>2026-05-02T13:54:52.398Z</time></trkpt><trkpt lat="46.6810117" lon="12.2239217"><ele>1310.3333333333333</ele><time>2026-05-02T13:54:53.398Z</time></trkpt><trkpt lat="46.68123" lon="12.224"><ele>1309.6666666666665</ele><time>2026-05-02T13:54:54.398Z</time></trkpt><trkpt lat="46.6814483" lon="12.2240683"><ele>1309.0</ele><time>2026-05-02T13:54:55.397Z</time></trkpt><trkpt lat="46.681665" lon="12.2241367"><ele>1309.0</ele><time>2026-05-02T13:54:56.397Z</time></trkpt><trkpt lat="46.6818817" lon="12.2242133"><ele>1309.0</ele><time>2026-05-02T13:54:57.398Z</time></trkpt><trkpt lat="46.6820967" lon="12.224285"><ele>1309.0</ele><time>2026-05-02T13:54:58.398Z</time></trkpt><trkpt lat="46.6823067" lon="12.2243517"><ele>1308.6666666666665</ele><time>2026-05-02T13:54:59.398Z</time></trkpt><trkpt lat="46.68252" lon="12.224415"><ele>1308.3333333333333</ele><time>2026-05-02T13:55:00.398Z</time></trkpt><trkpt lat="46.6827333" lon="12.2244583"><ele>1308.0</ele><time>2026-05-02T13:55:01.398Z</time></trkpt><trkpt lat="46.6829383" lon="12.2244683"><ele>1307.3333333333333</ele><time>2026-05-02T13:55:02.398Z</time></trkpt><trkpt lat="46.683135" lon="12.2244533"><ele>1306.6666666666665</ele><time>2026-05-02T13:55:03.397Z</time></trkpt><trkpt lat="46.68334" lon="12.2244433"><ele>1306.0</ele><time>2026-05-02T13:55:04.398Z</time></trkpt><trkpt lat="46.6835467" lon="12.2244433"><ele>1307.0</ele><time>2026-05-02T13:55:05.398Z</time></trkpt><trkpt lat="46.6837433" lon="12.22445"><ele>1308.0</ele><time>2026-05-02T13:55:06.397Z</time></trkpt><trkpt lat="46.68394" lon="12.224465"><ele>1309.0</ele><time>2026-05-02T13:55:07.398Z</time></trkpt><trkpt lat="46.68414" lon="12.224485"><ele>1309.0</ele><time>2026-05-02T13:55:08.397Z</time></trkpt><trkpt lat="46.6843317" lon="12.2245117"><ele>1309.0</ele><time>2026-05-02T13:55:09.398Z</time></trkpt><trkpt lat="46.6845217" lon="12.2245183"><ele>1309.0</ele><time>2026-05-02T13:55:10.398Z</time></trkpt><trkpt lat="46.6847217" lon="12.224535"><ele>1308.6666666666665</ele><time>2026-05-02T13:55:11.397Z</time></trkpt><trkpt lat="46.6849267" lon="12.22454"><ele>1308.3333333333333</ele><time>2026-05-02T13:55:12.398Z</time></trkpt><trkpt lat="46.6851267" lon="12.2245367"><ele>1308.0</ele><time>2026-05-02T13:55:13.398Z</time></trkpt><trkpt lat="46.6853333" lon="12.2245217"><ele>1307.0</ele><time>2026-05-02T13:55:14.398Z</time></trkpt><trkpt lat="46.6855483" lon="12.2244917"><ele>1306.0</ele><time>2026-05-02T13:55:15.398Z</time></trkpt><trkpt lat="46.6857633" lon="12.2244333"><ele>1305.0</ele><time>2026-05-02T13:55:16.398Z</time></trkpt><trkpt lat="46.685975" lon="12.2243567"><ele>1305.0</ele><time>2026-05-02T13:55:17.398Z</time></trkpt><trkpt lat="46.68619" lon="12.22427"><ele>1305.0</ele><time>2026-05-02T13:55:18.398Z</time></trkpt><trkpt lat="46.68641" lon="12.2241633"><ele>1305.0</ele><time>2026-05-02T13:55:19.398Z</time></trkpt><trkpt lat="46.6866217" lon="12.2240767"><ele>1305.0</ele><time>2026-05-02T13:55:20.398Z</time></trkpt><trkpt lat="46.686835" lon="12.2239983"><ele>1305.0</ele><time>2026-05-02T13:55:21.397Z</time></trkpt><trkpt lat="46.6870517" lon="12.2239517"><ele>1302.0</ele><time>2026-05-02T13:55:22.398Z</time></trkpt><trkpt lat="46.68726" lon="12.2239067"><ele>1299.0</ele><time>2026-05-02T13:55:23.398Z</time></trkpt><trkpt lat="46.6874583" lon="12.223865"><ele>1296.0</ele><time>2026-05-02T13:55:24.398Z</time></trkpt><trkpt lat="46.6876483" lon="12.2238433"><ele>1296.3333333333333</ele><time>2026-05-02T13:55:25.398Z</time></trkpt><trkpt lat="46.6878467" lon="12.2238317"><ele>1296.6666666666665</ele><time>2026-05-02T13:55:26.398Z</time></trkpt><trkpt lat="46.6880483" lon="12.2238217"><ele>1297.0</ele><time>2026-05-02T13:55:27.398Z</time></trkpt><trkpt lat="46.6882433" lon="12.223785"><ele>1297.0</ele><time>2026-05-02T13:55:28.398Z</time></trkpt><trkpt lat="46.6884333" lon="12.2237117"><ele>1297.0</ele><time>2026-05-02T13:55:29.398Z</time></trkpt><trkpt lat="46.688605" lon="12.2236417"><ele>1297.0</ele><time>2026-05-02T13:55:30.398Z</time></trkpt><trkpt lat="46.6887783" lon="12.2235767"><ele>1297.3333333333333</ele><time>2026-05-02T13:55:31.398Z</time></trkpt><trkpt lat="46.6889667" lon="12.2235633"><ele>1297.6666666666667</ele><time>2026-05-02T13:55:32.398Z</time></trkpt><trkpt lat="46.6891567" lon="12.22358"><ele>1298.0</ele><time>2026-05-02T13:55:33.398Z</time></trkpt><trkpt lat="46.6893633" lon="12.223635"><ele>1296.3333333333335</ele><time>2026-05-02T13:55:34.398Z</time></trkpt><trkpt lat="46.6895617" lon="12.2236867"><ele>1294.6666666666667</ele><time>2026-05-02T13:55:35.398Z</time></trkpt><trkpt lat="46.6897433" lon="12.223725"><ele>1293.0</ele><time>2026-05-02T13:55:36.398Z</time></trkpt><trkpt lat="46.68992" lon="12.22376"><ele>1293.0</ele><time>2026-05-02T13:55:37.398Z</time></trkpt><trkpt lat="46.69009" lon="12.2237683"><ele>1293.0</ele><time>2026-05-02T13:55:38.397Z</time></trkpt><trkpt lat="46.6902583" lon="12.2237567"><ele>1293.0</ele><time>2026-05-02T13:55:39.398Z</time></trkpt><trkpt lat="46.6904267" lon="12.22374"><ele>1290.0</ele><time>2026-05-02T13:55:40.398Z</time></trkpt><trkpt lat="46.690605" lon="12.2237467"><ele>1287.0</ele><time>2026-05-02T13:55:41.398Z</time></trkpt><trkpt lat="46.6907967" lon="12.223765"><ele>1284.0</ele><time>2026-05-02T13:55:42.398Z</time></trkpt><trkpt lat="46.690995" lon="12.223785"><ele>1283.3333333333333</ele><time>2026-05-02T13:55:43.397Z</time></trkpt><trkpt lat="46.6911883" lon="12.2238183"><ele>1282.6666666666665</ele><time>2026-05-02T13:55:44.398Z</time></trkpt><trkpt lat="46.6913733" lon="12.2238783"><ele>1282.0</ele><time>2026-05-02T13:55:45.398Z</time></trkpt><trkpt lat="46.691555" lon="12.2239767"><ele>1283.0</ele><time>2026-05-02T13:55:46.397Z</time></trkpt><trkpt lat="46.6917133" lon="12.2240717"><ele>1284.0</ele><time>2026-05-02T13:55:47.398Z</time></trkpt><trkpt lat="46.6918717" lon="12.2241383"><ele>1285.0</ele><time>2026-05-02T13:55:48.397Z</time></trkpt><trkpt lat="46.69204" lon="12.22417"><ele>1283.6666666666665</ele><time>2026-05-02T13:55:49.397Z</time></trkpt><trkpt lat="46.6922033" lon="12.224145"><ele>1282.3333333333333</ele><time>2026-05-02T13:55:50.398Z</time></trkpt><trkpt lat="46.6923667" lon="12.22408"><ele>1281.0</ele><time>2026-05-02T13:55:51.398Z</time></trkpt><trkpt lat="46.6925267" lon="12.2239717"><ele>1281.0</ele><time>2026-05-02T13:55:52.398Z</time></trkpt><trkpt lat="46.69267" lon="12.2238117"><ele>1281.0</ele><time>2026-05-02T13:55:53.397Z</time></trkpt><trkpt lat="46.6928067" lon="12.2236283"><ele>1281.0</ele><time>2026-05-02T13:55:54.397Z</time></trkpt><trkpt lat="46.692955" lon="12.2234633"><ele>1278.3333333333333</ele><time>2026-05-02T13:55:55.398Z</time></trkpt><trkpt lat="46.69311" lon="12.2233067"><ele>1275.6666666666665</ele><time>2026-05-02T13:55:56.398Z</time></trkpt><trkpt lat="46.6932733" lon="12.2231783"><ele>1273.0</ele><time>2026-05-02T13:55:57.398Z</time></trkpt><trkpt lat="46.6934433" lon="12.2230767"><ele>1275.0</ele><time>2026-05-02T13:55:58.398Z</time></trkpt><trkpt lat="46.6936233" lon="12.222995"><ele>1277.0</ele><time>2026-05-02T13:55:59.398Z</time></trkpt><trkpt lat="46.6938067" lon="12.2229217"><ele>1279.0</ele><time>2026-05-02T13:56:00.397Z</time></trkpt><trkpt lat="46.6939883" lon="12.2228583"><ele>1279.0</ele><time>2026-05-02T13:56:01.398Z</time></trkpt><trkpt lat="46.6941767" lon="12.2227983"><ele>1279.0</ele><time>2026-05-02T13:56:02.397Z</time></trkpt><trkpt lat="46.69436" lon="12.2227733"><ele>1279.0</ele><time>2026-05-02T13:56:03.397Z</time></trkpt><trkpt lat="46.694545" lon="12.2227633"><ele>1280.6666666666665</ele><time>2026-05-02T13:56:04.398Z</time></trkpt><trkpt lat="46.6947333" lon="12.2227667"><ele>1282.3333333333333</ele><time>2026-05-02T13:56:05.398Z</time></trkpt><trkpt lat="46.6949317" lon="12.2227683"><ele>1284.0</ele><time>2026-05-02T13:56:06.398Z</time></trkpt><trkpt lat="46.6951317" lon="12.2227433"><ele>1284.6666666666667</ele><time>2026-05-02T13:56:07.398Z</time></trkpt><trkpt lat="46.6953317" lon="12.2226933"><ele>1285.3333333333335</ele><time>2026-05-02T13:56:08.398Z</time></trkpt><trkpt lat="46.6955283" lon="12.2226333"><ele>1286.0</ele><time>2026-05-02T13:56:09.398Z</time></trkpt><trkpt lat="46.6957233" lon="12.2225683"><ele>1286.0</ele><time>2026-05-02T13:56:10.398Z</time></trkpt><trkpt lat="46.69592" lon="12.2224933"><ele>1286.0</ele><time>2026-05-02T13:56:11.398Z</time></trkpt><trkpt lat="46.6961183" lon="12.222425"><ele>1286.0</ele><time>2026-05-02T13:56:12.398Z</time></trkpt><trkpt lat="46.6963133" lon="12.2223817"><ele>1288.3333333333335</ele><time>2026-05-02T13:56:13.398Z</time></trkpt><trkpt lat="46.6964983" lon="12.2223217"><ele>1290.6666666666667</ele><time>2026-05-02T13:56:14.397Z</time></trkpt><trkpt lat="46.6966917" lon="12.2222483"><ele>1293.0</ele><time>2026-05-02T13:56:15.398Z</time></trkpt><trkpt lat="46.696865" lon="12.2221517"><ele>1287.6666666666667</ele><time>2026-05-02T13:56:16.397Z</time></trkpt><trkpt lat="46.6970383" lon="12.2220367"><ele>1282.3333333333335</ele><time>2026-05-02T13:56:17.398Z</time></trkpt><trkpt lat="46.697215" lon="12.2219667"><ele>1277.0</ele><time>2026-05-02T13:56:18.398Z</time></trkpt><trkpt lat="46.697395" lon="12.2219233"><ele>1277.0</ele><time>2026-05-02T13:56:19.397Z</time></trkpt><trkpt lat="46.6975733" lon="12.2219217"><ele>1277.0</ele><time>2026-05-02T13:56:20.398Z</time></trkpt><trkpt lat="46.6977483" lon="12.2219717"><ele>1277.0</ele><time>2026-05-02T13:56:21.398Z</time></trkpt><trkpt lat="46.6979133" lon="12.2220783"><ele>1274.3333333333335</ele><time>2026-05-02T13:56:22.397Z</time></trkpt><trkpt lat="46.69807" lon="12.2222017"><ele>1271.6666666666667</ele><time>2026-05-02T13:56:23.397Z</time></trkpt><trkpt lat="46.6982367" lon="12.2223083"><ele>1269.0</ele><time>2026-05-02T13:56:24.398Z</time></trkpt><trkpt lat="46.698425" lon="12.2223983"><ele>1274.3333333333333</ele><time>2026-05-02T13:56:25.398Z</time></trkpt><trkpt lat="46.698615" lon="12.2224383"><ele>1279.6666666666665</ele><time>2026-05-02T13:56:26.398Z</time></trkpt><trkpt lat="46.698795" lon="12.2224417"><ele>1285.0</ele><time>2026-05-02T13:56:27.398Z</time></trkpt><trkpt lat="46.69898" lon="12.2224533"><ele>1285.0</ele><time>2026-05-02T13:56:28.398Z</time></trkpt><trkpt lat="46.69916" lon="12.2224867"><ele>1285.0</ele><time>2026-05-02T13:56:29.398Z</time></trkpt><trkpt lat="46.69935" lon="12.2225467"><ele>1285.0</ele><time>2026-05-02T13:56:30.398Z</time></trkpt><trkpt lat="46.6995367" lon="12.2226067"><ele>1282.3333333333333</ele><time>2026-05-02T13:56:31.397Z</time></trkpt><trkpt lat="46.699725" lon="12.2226533"><ele>1279.6666666666667</ele><time>2026-05-02T13:56:32.398Z</time></trkpt><trkpt lat="46.699905" lon="12.2226883"><ele>1277.0</ele><time>2026-05-02T13:56:33.398Z</time></trkpt><trkpt lat="46.70009" lon="12.2227267"><ele>1275.3333333333335</ele><time>2026-05-02T13:56:34.398Z</time></trkpt><trkpt lat="46.7002717" lon="12.2227483"><ele>1273.6666666666667</ele><time>2026-05-02T13:56:35.397Z</time></trkpt><trkpt lat="46.700455" lon="12.2227717"><ele>1272.0</ele><time>2026-05-02T13:56:36.397Z</time></trkpt><trkpt lat="46.70064" lon="12.222785"><ele>1272.0</ele><time>2026-05-02T13:56:37.397Z</time></trkpt><trkpt lat="46.700825" lon="12.2227917"><ele>1272.0</ele><time>2026-05-02T13:56:38.397Z</time></trkpt><trkpt lat="46.701005" lon="12.222785"><ele>1272.0</ele><time>2026-05-02T13:56:39.398Z</time></trkpt><trkpt lat="46.701185" lon="12.22274"><ele>1273.3333333333333</ele><time>2026-05-02T13:56:40.398Z</time></trkpt><trkpt lat="46.7013533" lon="12.22265"><ele>1274.6666666666665</ele><time>2026-05-02T13:56:41.398Z</time></trkpt><trkpt lat="46.7015117" lon="12.2225367"><ele>1276.0</ele><time>2026-05-02T13:56:42.398Z</time></trkpt><trkpt lat="46.70167" lon="12.2224"><ele>1271.3333333333333</ele><time>2026-05-02T13:56:43.398Z</time></trkpt><trkpt lat="46.70182" lon="12.2223117"><ele>1266.6666666666667</ele><time>2026-05-02T13:56:44.397Z</time></trkpt><trkpt lat="46.7019817" lon="12.222265"><ele>1262.0</ele><time>2026-05-02T13:56:45.398Z</time></trkpt><trkpt lat="46.7021517" lon="12.22226"><ele>1262.0</ele><time>2026-05-02T13:56:46.398Z</time></trkpt><trkpt lat="46.7023183" lon="12.2222683"><ele>1262.0</ele><time>2026-05-02T13:56:47.398Z</time></trkpt><trkpt lat="46.70249" lon="12.2222667"><ele>1262.0</ele><time>2026-05-02T13:56:48.398Z</time></trkpt><trkpt lat="46.7026683" lon="12.2222667"><ele>1265.3333333333335</ele><time>2026-05-02T13:56:49.398Z</time></trkpt><trkpt lat="46.7028467" lon="12.2222533"><ele>1268.6666666666667</ele><time>2026-05-02T13:56:50.398Z</time></trkpt><trkpt lat="46.7030183" lon="12.2222217"><ele>1272.0</ele><time>2026-05-02T13:56:51.398Z</time></trkpt><trkpt lat="46.7031817" lon="12.2221833"><ele>1272.0</ele><time>2026-05-02T13:56:52.398Z</time></trkpt><trkpt lat="46.7033417" lon="12.222125"><ele>1272.0</ele><time>2026-05-02T13:56:53.397Z</time></trkpt><trkpt lat="46.7034983" lon="12.222045"><ele>1272.0</ele><time>2026-05-02T13:56:54.397Z</time></trkpt><trkpt lat="46.7036517" lon="12.2219417"><ele>1275.0</ele><time>2026-05-02T13:56:55.398Z</time></trkpt><trkpt lat="46.7037967" lon="12.2218117"><ele>1278.0</ele><time>2026-05-02T13:56:56.398Z</time></trkpt><trkpt lat="46.7039383" lon="12.2216617"><ele>1281.0</ele><time>2026-05-02T13:56:57.397Z</time></trkpt><trkpt lat="46.7040783" lon="12.2214983"><ele>1280.3333333333333</ele><time>2026-05-02T13:56:58.398Z</time></trkpt><trkpt lat="46.7042167" lon="12.2213183"><ele>1279.6666666666665</ele><time>2026-05-02T13:56:59.397Z</time></trkpt><trkpt lat="46.7043517" lon="12.221155"><ele>1279.0</ele><time>2026-05-02T13:57:00.398Z</time></trkpt><trkpt lat="46.70449" lon="12.220995"><ele>1279.0</ele><time>2026-05-02T13:57:01.397Z</time></trkpt><trkpt lat="46.704635" lon="12.2208617"><ele>1279.0</ele><time>2026-05-02T13:57:02.397Z</time></trkpt><trkpt lat="46.7047883" lon="12.220755"><ele>1279.0</ele><time>2026-05-02T13:57:03.397Z</time></trkpt><trkpt lat="46.7049517" lon="12.2206817"><ele>1274.6666666666665</ele><time>2026-05-02T13:57:04.398Z</time></trkpt><trkpt lat="46.70512" lon="12.2206317"><ele>1270.3333333333333</ele><time>2026-05-02T13:57:05.398Z</time></trkpt><trkpt lat="46.70529" lon="12.2206083"><ele>1266.0</ele><time>2026-05-02T13:57:06.397Z</time></trkpt><trkpt lat="46.7054567" lon="12.220595"><ele>1266.0</ele><time>2026-05-02T13:57:07.398Z</time></trkpt><trkpt lat="46.70561" lon="12.2205833"><ele>1266.0</ele><time>2026-05-02T13:57:08.398Z</time></trkpt><trkpt lat="46.7057633" lon="12.22058"><ele>1266.0</ele><time>2026-05-02T13:57:09.397Z</time></trkpt><trkpt lat="46.7059267" lon="12.22057"><ele>1265.3333333333333</ele><time>2026-05-02T13:57:10.398Z</time></trkpt><trkpt lat="46.706085" lon="12.2205667"><ele>1264.6666666666665</ele><time>2026-05-02T13:57:11.398Z</time></trkpt><trkpt lat="46.706245" lon="12.2205767"><ele>1264.0</ele><time>2026-05-02T13:57:12.398Z</time></trkpt><trkpt lat="46.7064033" lon="12.2205783"><ele>1264.0</ele><time>2026-05-02T13:57:13.397Z</time></trkpt><trkpt lat="46.7065617" lon="12.2205733"><ele>1264.0</ele><time>2026-05-02T13:57:14.398Z</time></trkpt><trkpt lat="46.7067267" lon="12.2205583"><ele>1264.0</ele><time>2026-05-02T13:57:15.397Z</time></trkpt><trkpt lat="46.7068883" lon="12.2205533"><ele>1262.6666666666665</ele><time>2026-05-02T13:57:16.398Z</time></trkpt><trkpt lat="46.7070583" lon="12.220565"><ele>1261.3333333333333</ele><time>2026-05-02T13:57:17.398Z</time></trkpt><trkpt lat="46.7072317" lon="12.220595"><ele>1260.0</ele><time>2026-05-02T13:57:18.398Z</time></trkpt><trkpt lat="46.7073933" lon="12.220645"><ele>1259.3333333333333</ele><time>2026-05-02T13:57:19.398Z</time></trkpt><trkpt lat="46.7075517" lon="12.2207217"><ele>1258.6666666666665</ele><time>2026-05-02T13:57:20.398Z</time></trkpt><trkpt lat="46.7077" lon="12.2208467"><ele>1258.0</ele><time>2026-05-02T13:57:21.397Z</time></trkpt><trkpt lat="46.7078517" lon="12.221005"><ele>1258.0</ele><time>2026-05-02T13:57:22.398Z</time></trkpt><trkpt lat="46.70799" lon="12.2211867"><ele>1258.0</ele><time>2026-05-02T13:57:23.398Z</time></trkpt><trkpt lat="46.708115" lon="12.2213767"><ele>1258.0</ele><time>2026-05-02T13:57:24.398Z</time></trkpt><trkpt lat="46.70823" lon="12.2215733"><ele>1260.3333333333333</ele><time>2026-05-02T13:57:25.398Z</time></trkpt><trkpt lat="46.7083417" lon="12.2217617"><ele>1262.6666666666667</ele><time>2026-05-02T13:57:26.398Z</time></trkpt><trkpt lat="46.708445" lon="12.221965"><ele>1265.0</ele><time>2026-05-02T13:57:27.398Z</time></trkpt><trkpt lat="46.7085433" lon="12.2221717"><ele>1262.0</ele><time>2026-05-02T13:57:28.398Z</time></trkpt><trkpt lat="46.7086367" lon="12.22238"><ele>1259.0</ele><time>2026-05-02T13:57:29.398Z</time></trkpt><trkpt lat="46.7087183" lon="12.22259"><ele>1256.0</ele><time>2026-05-02T13:57:30.398Z</time></trkpt><trkpt lat="46.7087917" lon="12.2227967"><ele>1256.0</ele><time>2026-05-02T13:57:31.398Z</time></trkpt><trkpt lat="46.7088717" lon="12.2230033"><ele>1256.0</ele><time>2026-05-02T13:57:32.398Z</time></trkpt><trkpt lat="46.7089717" lon="12.2232"><ele>1256.0</ele><time>2026-05-02T13:57:33.398Z</time></trkpt><trkpt lat="46.70909" lon="12.2233667"><ele>1257.6666666666667</ele><time>2026-05-02T13:57:34.398Z</time></trkpt><trkpt lat="46.7092183" lon="12.22348"><ele>1259.3333333333333</ele><time>2026-05-02T13:57:35.398Z</time></trkpt><trkpt lat="46.7093667" lon="12.22356"><ele>1261.0</ele><time>2026-05-02T13:57:36.398Z</time></trkpt><trkpt lat="46.7095367" lon="12.223605"><ele>1261.0</ele><time>2026-05-02T13:57:37.397Z</time></trkpt><trkpt lat="46.7097083" lon="12.2236533"><ele>1261.0</ele><time>2026-05-02T13:57:38.397Z</time></trkpt><trkpt lat="46.709875" lon="12.223705"><ele>1261.0</ele><time>2026-05-02T13:57:39.398Z</time></trkpt><trkpt lat="46.71005" lon="12.2237667"><ele>1261.0</ele><time>2026-05-02T13:57:40.397Z</time></trkpt><trkpt lat="46.710215" lon="12.2238167"><ele>1261.0</ele><time>2026-05-02T13:57:41.397Z</time></trkpt><trkpt lat="46.7103833" lon="12.2238617"><ele>1261.0</ele><time>2026-05-02T13:57:42.398Z</time></trkpt><trkpt lat="46.71055" lon="12.2238783"><ele>1259.6666666666665</ele><time>2026-05-02T13:57:43.398Z</time></trkpt><trkpt lat="46.7107183" lon="12.2238667"><ele>1258.3333333333333</ele><time>2026-05-02T13:57:44.398Z</time></trkpt><trkpt lat="46.7108883" lon="12.22384"><ele>1257.0</ele><time>2026-05-02T13:57:45.398Z</time></trkpt><trkpt lat="46.7110567" lon="12.223815"><ele>1255.0</ele><time>2026-05-02T13:57:46.398Z</time></trkpt><trkpt lat="46.7112233" lon="12.22382"><ele>1253.0</ele><time>2026-05-02T13:57:47.398Z</time></trkpt><trkpt lat="46.7113933" lon="12.2238217"><ele>1251.0</ele><time>2026-05-02T13:57:48.397Z</time></trkpt><trkpt lat="46.71156" lon="12.2238017"><ele>1251.0</ele><time>2026-05-02T13:57:49.398Z</time></trkpt><trkpt lat="46.71172" lon="12.2237683"><ele>1251.0</ele><time>2026-05-02T13:57:50.398Z</time></trkpt><trkpt lat="46.7118733" lon="12.2237167"><ele>1251.0</ele><time>2026-05-02T13:57:51.398Z</time></trkpt><trkpt lat="46.71203" lon="12.2236817"><ele>1250.6666666666667</ele><time>2026-05-02T13:57:52.398Z</time></trkpt><trkpt lat="46.7121867" lon="12.2236767"><ele>1250.3333333333335</ele><time>2026-05-02T13:57:53.398Z</time></trkpt><trkpt lat="46.7123467" lon="12.2236967"><ele>1250.0</ele><time>2026-05-02T13:57:54.398Z</time></trkpt><trkpt lat="46.7125067" lon="12.2237283"><ele>1250.0</ele><time>2026-05-02T13:57:55.397Z</time></trkpt><trkpt lat="46.7126633" lon="12.2237633"><ele>1250.0</ele><time>2026-05-02T13:57:56.398Z</time></trkpt><trkpt lat="46.71282" lon="12.2237933"><ele>1250.0</ele><time>2026-05-02T13:57:57.398Z</time></trkpt><trkpt lat="46.71298" lon="12.2238267"><ele>1250.0</ele><time>2026-05-02T13:57:58.398Z</time></trkpt><trkpt lat="46.7131417" lon="12.223825"><ele>1250.0</ele><time>2026-05-02T13:57:59.398Z</time></trkpt><trkpt lat="46.7132983" lon="12.2237833"><ele>1250.0</ele><time>2026-05-02T13:58:00.398Z</time></trkpt><trkpt lat="46.7134617" lon="12.2237367"><ele>1249.3333333333335</ele><time>2026-05-02T13:58:01.398Z</time></trkpt><trkpt lat="46.7136167" lon="12.2236833"><ele>1248.6666666666667</ele><time>2026-05-02T13:58:02.398Z</time></trkpt><trkpt lat="46.71377" lon="12.223635"><ele>1248.0</ele><time>2026-05-02T13:58:03.398Z</time></trkpt><trkpt lat="46.7139217" lon="12.2236083"><ele>1248.0</ele><time>2026-05-02T13:58:04.397Z</time></trkpt><trkpt lat="46.7140683" lon="12.2236"><ele>1248.0</ele><time>2026-05-02T13:58:05.398Z</time></trkpt><trkpt lat="46.7142317" lon="12.22361"><ele>1248.0</ele><time>2026-05-02T13:58:06.398Z</time></trkpt><trkpt lat="46.714385" lon="12.2236233"><ele>1246.6666666666667</ele><time>2026-05-02T13:58:07.398Z</time></trkpt><trkpt lat="46.71455" lon="12.22364"><ele>1245.3333333333335</ele><time>2026-05-02T13:58:08.398Z</time></trkpt><trkpt lat="46.71472" lon="12.22364"><ele>1244.0</ele><time>2026-05-02T13:58:09.398Z</time></trkpt><trkpt lat="46.71489" lon="12.2236283"><ele>1244.0</ele><time>2026-05-02T13:58:10.397Z</time></trkpt><trkpt lat="46.7150467" lon="12.2235967"><ele>1244.0</ele><time>2026-05-02T13:58:11.398Z</time></trkpt><trkpt lat="46.7151917" lon="12.2235433"><ele>1244.0</ele><time>2026-05-02T13:58:12.398Z</time></trkpt><trkpt lat="46.7153333" lon="12.22348"><ele>1242.5</ele><time>2026-05-02T13:58:13.398Z</time></trkpt><trkpt lat="46.7154717" lon="12.223455"><ele>1241.0</ele><time>2026-05-02T13:58:14.398Z</time></trkpt><trkpt lat="46.7156133" lon="12.223465"><ele>1239.5</ele><time>2026-05-02T13:58:15.397Z</time></trkpt><trkpt lat="46.715765" lon="12.2235183"><ele>1238.0</ele><time>2026-05-02T13:58:16.398Z</time></trkpt><trkpt lat="46.715915" lon="12.2236083"><ele>1238.0</ele><time>2026-05-02T13:58:17.398Z</time></trkpt><trkpt lat="46.7160567" lon="12.2237033"><ele>1238.0</ele><time>2026-05-02T13:58:18.398Z</time></trkpt><trkpt lat="46.7161933" lon="12.2237933"><ele>1238.0</ele><time>2026-05-02T13:58:19.398Z</time></trkpt><trkpt lat="46.7163183" lon="12.2238967"><ele>1239.75</ele><time>2026-05-02T13:58:20.397Z</time></trkpt><trkpt lat="46.7164383" lon="12.2239967"><ele>1241.5</ele><time>2026-05-02T13:58:21.398Z</time></trkpt><trkpt lat="46.7165633" lon="12.2240933"><ele>1243.25</ele><time>2026-05-02T13:58:22.398Z</time></trkpt><trkpt lat="46.7166917" lon="12.2242"><ele>1245.0</ele><time>2026-05-02T13:58:23.398Z</time></trkpt><trkpt lat="46.7168217" lon="12.2243067"><ele>1241.0</ele><time>2026-05-02T13:58:24.398Z</time></trkpt><trkpt lat="46.7169583" lon="12.22441"><ele>1237.0</ele><time>2026-05-02T13:58:25.398Z</time></trkpt><trkpt lat="46.7170933" lon="12.2245133"><ele>1233.0</ele><time>2026-05-02T13:58:26.398Z</time></trkpt><trkpt lat="46.71723" lon="12.224615"><ele>1233.0</ele><time>2026-05-02T13:58:27.398Z</time></trkpt><trkpt lat="46.7173817" lon="12.2247"><ele>1233.0</ele><time>2026-05-02T13:58:28.398Z</time></trkpt><trkpt lat="46.7175283" lon="12.224775"><ele>1233.0</ele><time>2026-05-02T13:58:29.397Z</time></trkpt><trkpt lat="46.7176783" lon="12.224835"><ele>1235.3333333333333</ele><time>2026-05-02T13:58:30.398Z</time></trkpt><trkpt lat="46.7178367" lon="12.2248883"><ele>1237.6666666666665</ele><time>2026-05-02T13:58:31.398Z</time></trkpt><trkpt lat="46.7179917" lon="12.2249383"><ele>1240.0</ele><time>2026-05-02T13:58:32.398Z</time></trkpt><trkpt lat="46.7181417" lon="12.2249917"><ele>1240.0</ele><time>2026-05-02T13:58:33.398Z</time></trkpt><trkpt lat="46.7182867" lon="12.2250467"><ele>1240.0</ele><time>2026-05-02T13:58:34.398Z</time></trkpt><trkpt lat="46.71843" lon="12.2251083"><ele>1240.0</ele><time>2026-05-02T13:58:35.398Z</time></trkpt><trkpt lat="46.718575" lon="12.2251717"><ele>1237.0</ele><time>2026-05-02T13:58:36.398Z</time></trkpt><trkpt lat="46.718715" lon="12.2252267"><ele>1234.0</ele><time>2026-05-02T13:58:37.398Z</time></trkpt><trkpt lat="46.7188583" lon="12.2252933"><ele>1231.0</ele><time>2026-05-02T13:58:38.397Z</time></trkpt><trkpt lat="46.7190017" lon="12.2253567"><ele>1228.0</ele><time>2026-05-02T13:58:39.398Z</time></trkpt><trkpt lat="46.719145" lon="12.22541"><ele>1228.0</ele><time>2026-05-02T13:58:40.398Z</time></trkpt><trkpt lat="46.7192917" lon="12.225455"><ele>1228.0</ele><time>2026-05-02T13:58:41.398Z</time></trkpt><trkpt lat="46.7194383" lon="12.2255033"><ele>1228.0</ele><time>2026-05-02T13:58:42.398Z</time></trkpt><trkpt lat="46.7195833" lon="12.2255583"><ele>1226.75</ele><time>2026-05-02T13:58:43.398Z</time></trkpt><trkpt lat="46.7197333" lon="12.2256"><ele>1225.5</ele><time>2026-05-02T13:58:44.398Z</time></trkpt><trkpt lat="46.7198667" lon="12.2256533"><ele>1224.25</ele><time>2026-05-02T13:58:45.398Z</time></trkpt><trkpt lat="46.72" lon="12.225695"><ele>1223.0</ele><time>2026-05-02T13:58:46.398Z</time></trkpt><trkpt lat="46.720115" lon="12.2257283"><ele>1222.75</ele><time>2026-05-02T13:58:47.397Z</time></trkpt><trkpt lat="46.72024" lon="12.2257567"><ele>1222.5</ele><time>2026-05-02T13:58:48.398Z</time></trkpt><trkpt lat="46.7203683" lon="12.2257433"><ele>1222.25</ele><time>2026-05-02T13:58:49.398Z</time></trkpt><trkpt lat="46.720485" lon="12.225705"><ele>1222.0</ele><time>2026-05-02T13:58:50.398Z</time></trkpt><trkpt lat="46.7205967" lon="12.2256367"><ele>1222.0</ele><time>2026-05-02T13:58:51.398Z</time></trkpt><trkpt lat="46.7207017" lon="12.2255617"><ele>1222.0</ele><time>2026-05-02T13:58:52.398Z</time></trkpt><trkpt lat="46.720785" lon="12.22548"><ele>1222.0</ele><time>2026-05-02T13:58:53.397Z</time></trkpt><trkpt lat="46.7208717" lon="12.225395"><ele>1222.0</ele><time>2026-05-02T13:58:54.398Z</time></trkpt><trkpt lat="46.720955" lon="12.2253"><ele>1222.0</ele><time>2026-05-02T13:58:55.398Z</time></trkpt><trkpt lat="46.7210333" lon="12.22521"><ele>1222.6</ele><time>2026-05-02T13:58:56.398Z</time></trkpt><trkpt lat="46.721105" lon="12.225115"><ele>1223.2</ele><time>2026-05-02T13:58:57.398Z</time></trkpt><trkpt lat="46.721175" lon="12.2250283"><ele>1223.8</ele><time>2026-05-02T13:58:58.398Z</time></trkpt><trkpt lat="46.7212383" lon="12.224945"><ele>1224.4</ele><time>2026-05-02T13:58:59.398Z</time></trkpt><trkpt lat="46.7212983" lon="12.2248783"><ele>1225.0</ele><time>2026-05-02T13:59:00.398Z</time></trkpt><trkpt lat="46.7213983" lon="12.2248133"><ele>1223.8333333333333</ele><time>2026-05-02T13:59:02.398Z</time></trkpt><trkpt lat="46.72148" lon="12.2247933"><ele>1222.6666666666665</ele><time>2026-05-02T13:59:05.398Z</time></trkpt><trkpt lat="46.7215433" lon="12.2247133"><ele>1221.5</ele><time>2026-05-02T13:59:10.398Z</time></trkpt><trkpt lat="46.721595" lon="12.2246467"><ele>1220.3333333333333</ele><time>2026-05-02T13:59:12.398Z</time></trkpt><trkpt lat="46.721675" lon="12.224615"><ele>1219.1666666666667</ele><time>2026-05-02T14:00:15.397Z</time></trkpt><trkpt lat="46.7217117" lon="12.2244883"><ele>1218.0</ele><time>2026-05-02T14:00:17.397Z</time></trkpt><trkpt lat="46.7217417" lon="12.2243817"><ele>1218.0</ele><time>2026-05-02T14:00:18.397Z</time></trkpt><trkpt lat="46.7218217" lon="12.2242283"><ele>1218.0</ele><time>2026-05-02T14:00:19.398Z</time></trkpt><trkpt lat="46.7219167" lon="12.2240967"><ele>1218.0</ele><time>2026-05-02T14:00:20.398Z</time></trkpt><trkpt lat="46.7220383" lon="12.2239483"><ele>1218.0</ele><time>2026-05-02T14:00:21.398Z</time></trkpt><trkpt lat="46.7221867" lon="12.2237583"><ele>1216.5</ele><time>2026-05-02T14:00:22.397Z</time></trkpt><trkpt lat="46.7223517" lon="12.22355"><ele>1215.0</ele><time>2026-05-02T14:00:23.398Z</time></trkpt><trkpt lat="46.7225217" lon="12.2233167"><ele>1214.3333333333333</ele><time>2026-05-02T14:00:24.398Z</time></trkpt><trkpt lat="46.7226833" lon="12.2231033"><ele>1213.6666666666665</ele><time>2026-05-02T14:00:25.398Z</time></trkpt><trkpt lat="46.7228483" lon="12.22288"><ele>1213.0</ele><time>2026-05-02T14:00:26.397Z</time></trkpt><trkpt lat="46.7230117" lon="12.2226583"><ele>1213.0</ele><time>2026-05-02T14:00:27.398Z</time></trkpt><trkpt lat="46.7231783" lon="12.2224317"><ele>1213.0</ele><time>2026-05-02T14:00:28.398Z</time></trkpt><trkpt lat="46.72334" lon="12.222225"><ele>1213.0</ele><time>2026-05-02T14:00:29.397Z</time></trkpt><trkpt lat="46.723495" lon="12.2220217"><ele>1212.6666666666665</ele><time>2026-05-02T14:00:30.398Z</time></trkpt><trkpt lat="46.723655" lon="12.2218417"><ele>1212.3333333333333</ele><time>2026-05-02T14:00:31.398Z</time></trkpt><trkpt lat="46.723825" lon="12.22169"><ele>1212.0</ele><time>2026-05-02T14:00:32.398Z</time></trkpt><trkpt lat="46.72399" lon="12.2215983"><ele>1212.0</ele><time>2026-05-02T14:00:33.398Z</time></trkpt><trkpt lat="46.724195" lon="12.2215183"><ele>1212.0</ele><time>2026-05-02T14:00:34.398Z</time></trkpt><trkpt lat="46.7244067" lon="12.2214517"><ele>1212.0</ele><time>2026-05-02T14:00:35.398Z</time></trkpt><trkpt lat="46.7246317" lon="12.2213817"><ele>1212.0</ele><time>2026-05-02T14:00:36.398Z</time></trkpt><trkpt lat="46.7248717" lon="12.22131"><ele>1212.0</ele><time>2026-05-02T14:00:37.397Z</time></trkpt><trkpt lat="46.7251217" lon="12.22123"><ele>1211.5</ele><time>2026-05-02T14:00:38.398Z</time></trkpt><trkpt lat="46.7253817" lon="12.2211567"><ele>1211.0</ele><time>2026-05-02T14:00:39.398Z</time></trkpt><trkpt lat="46.7256433" lon="12.2210967"><ele>1211.0</ele><time>2026-05-02T14:00:40.397Z</time></trkpt><trkpt lat="46.7259083" lon="12.2210383"><ele>1211.0</ele><time>2026-05-02T14:00:41.397Z</time></trkpt><trkpt lat="46.7261583" lon="12.2209783"><ele>1210.5</ele><time>2026-05-02T14:00:42.398Z</time></trkpt><trkpt lat="46.7264083" lon="12.22091"><ele>1210.0</ele><time>2026-05-02T14:00:43.398Z</time></trkpt><trkpt lat="46.7266433" lon="12.2208433"><ele>1210.0</ele><time>2026-05-02T14:00:44.398Z</time></trkpt><trkpt lat="46.726875" lon="12.2207817"><ele>1210.0</ele><time>2026-05-02T14:00:45.398Z</time></trkpt><trkpt lat="46.727095" lon="12.2207333"><ele>1210.6666666666665</ele><time>2026-05-02T14:00:46.398Z</time></trkpt><trkpt lat="46.7273067" lon="12.2206783"><ele>1211.3333333333333</ele><time>2026-05-02T14:00:47.398Z</time></trkpt><trkpt lat="46.7275067" lon="12.220625"><ele>1212.0</ele><time>2026-05-02T14:00:48.398Z</time></trkpt><trkpt lat="46.7276933" lon="12.2205683"><ele>1212.3333333333333</ele><time>2026-05-02T14:00:49.398Z</time></trkpt><trkpt lat="46.7278733" lon="12.220525"><ele>1212.6666666666665</ele><time>2026-05-02T14:00:50.398Z</time></trkpt><trkpt lat="46.728045" lon="12.2204767"><ele>1213.0</ele><time>2026-05-02T14:00:51.397Z</time></trkpt><trkpt lat="46.7282033" lon="12.2204283"><ele>1213.0</ele><time>2026-05-02T14:00:52.398Z</time></trkpt><trkpt lat="46.7283433" lon="12.220395"><ele>1213.0</ele><time>2026-05-02T14:00:53.398Z</time></trkpt><trkpt lat="46.7284567" lon="12.2203817"><ele>1213.0</ele><time>2026-05-02T14:00:54.398Z</time></trkpt><trkpt lat="46.7285667" lon="12.220395"><ele>1213.0</ele><time>2026-05-02T14:00:55.397Z</time></trkpt><trkpt lat="46.7286633" lon="12.22044"><ele>1213.6666666666665</ele><time>2026-05-02T14:00:56.398Z</time></trkpt><trkpt lat="46.7287483" lon="12.2204633"><ele>1214.3333333333333</ele><time>2026-05-02T14:00:57.397Z</time></trkpt><trkpt lat="46.728825" lon="12.2204633"><ele>1215.0</ele><time>2026-05-02T14:00:58.398Z</time></trkpt><trkpt lat="46.72889" lon="12.2204233"><ele>1215.6666666666667</ele><time>2026-05-02T14:00:59.398Z</time></trkpt><trkpt lat="46.7289283" lon="12.220325"><ele>1216.3333333333335</ele><time>2026-05-02T14:01:00.398Z</time></trkpt><trkpt lat="46.7289483" lon="12.2201883"><ele>1217.0</ele><time>2026-05-02T14:01:01.398Z</time></trkpt><trkpt lat="46.7289617" lon="12.220015"><ele>1217.0</ele><time>2026-05-02T14:01:02.398Z</time></trkpt><trkpt lat="46.7289867" lon="12.2198417"><ele>1217.0</ele><time>2026-05-02T14:01:03.398Z</time></trkpt><trkpt lat="46.7290283" lon="12.2196767"><ele>1217.0</ele><time>2026-05-02T14:01:04.398Z</time></trkpt><trkpt lat="46.7290633" lon="12.21951"><ele>1217.0</ele><time>2026-05-02T14:01:05.397Z</time></trkpt><trkpt lat="46.7290983" lon="12.21933"><ele>1216.8</ele><time>2026-05-02T14:01:06.398Z</time></trkpt><trkpt lat="46.7291183" lon="12.21916"><ele>1216.6</ele><time>2026-05-02T14:01:07.398Z</time></trkpt><trkpt lat="46.7291317" lon="12.219005"><ele>1216.3999999999999</ele><time>2026-05-02T14:01:08.398Z</time></trkpt><trkpt lat="46.7291417" lon="12.2188533"><ele>1216.2</ele><time>2026-05-02T14:01:09.398Z</time></trkpt><trkpt lat="46.7291567" lon="12.2187233"><ele>1216.0</ele><time>2026-05-02T14:01:10.397Z</time></trkpt><trkpt lat="46.7291733" lon="12.2186183"><ele>1216.0</ele><time>2026-05-02T14:01:11.397Z</time></trkpt><trkpt lat="46.7291583" lon="12.2184633"><ele>1216.0</ele><time>2026-05-02T14:01:13.398Z</time></trkpt><trkpt lat="46.7290933" lon="12.218385"><ele>1216.0</ele><time>2026-05-02T14:01:15.397Z</time></trkpt><trkpt lat="46.7290183" lon="12.2183717"><ele>1216.0</ele><time>2026-05-02T14:01:17.398Z</time></trkpt><trkpt lat="46.7289483" lon="12.2184333"><ele>1216.0</ele><time>2026-05-02T14:01:20.398Z</time></trkpt><trkpt lat="46.7289133" lon="12.2185217"><ele>1216.0</ele><time>2026-05-02T14:01:23.397Z</time></trkpt><trkpt lat="46.7289367" lon="12.2186167"><ele>1216.0</ele><time>2026-05-02T14:07:25.398Z</time></trkpt><trkpt lat="46.7288233" lon="12.2186617"><ele>1216.0</ele><time>2026-05-02T14:08:21.398Z</time></trkpt><trkpt lat="46.7289085" lon="12.2186342"><ele>1216.0</ele><time>2026-05-02T14:11:03.446Z</time></trkpt><trkpt lat="46.7288233" lon="12.21864"><ele>1216.0</ele><time>2026-05-02T14:13:35.397Z</time></trkpt><trkpt lat="46.7287717" lon="12.2187"><ele>1216.0</ele><time>2026-05-02T14:13:41.397Z</time></trkpt><trkpt lat="46.7287817" lon="12.2188633"><ele>1216.0</ele><time>2026-05-02T14:15:21.397Z</time></trkpt><trkpt lat="46.728845" lon="12.2189967"><ele>1216.0</ele><time>2026-05-02T14:15:23.397Z</time></trkpt><trkpt lat="46.7289" lon="12.219075"><ele>1216.0</ele><time>2026-05-02T14:15:24.397Z</time></trkpt><trkpt lat="46.7289583" lon="12.2191633"><ele>1216.0</ele><time>2026-05-02T14:15:25.396Z</time></trkpt><trkpt lat="46.7289933" lon="12.2192633"><ele>1216.0</ele><time>2026-05-02T14:15:26.397Z</time></trkpt><trkpt lat="46.72901" lon="12.2193683"><ele>1216.0</ele><time>2026-05-02T14:15:27.397Z</time></trkpt><trkpt lat="46.7290033" lon="12.21949"><ele>1216.0</ele><time>2026-05-02T14:15:28.397Z</time></trkpt><trkpt lat="46.7289817" lon="12.2196183"><ele>1216.0</ele><time>2026-05-02T14:15:29.397Z</time></trkpt><trkpt lat="46.728945" lon="12.2197567"><ele>1216.0</ele><time>2026-05-02T14:15:30.397Z</time></trkpt><trkpt lat="46.7288983" lon="12.219865"><ele>1216.0</ele><time>2026-05-02T14:15:31.397Z</time></trkpt><trkpt lat="46.7288417" lon="12.2199517"><ele>1216.0</ele><time>2026-05-02T14:15:32.396Z</time></trkpt><trkpt lat="46.7287783" lon="12.2200117"><ele>1216.0</ele><time>2026-05-02T14:15:33.397Z</time></trkpt><trkpt lat="46.7287117" lon="12.2200617"><ele>1216.1666666666665</ele><time>2026-05-02T14:15:34.397Z</time></trkpt><trkpt lat="46.7286483" lon="12.2201317"><ele>1216.3333333333333</ele><time>2026-05-02T14:15:35.397Z</time></trkpt><trkpt lat="46.72861" lon="12.2202183"><ele>1216.5</ele><time>2026-05-02T14:15:36.396Z</time></trkpt><trkpt lat="46.7285917" lon="12.220315"><ele>1216.6666666666667</ele><time>2026-05-02T14:15:37.396Z</time></trkpt><trkpt lat="46.7286317" lon="12.220445"><ele>1216.8333333333335</ele><time>2026-05-02T14:15:38.397Z</time></trkpt><trkpt lat="46.7286833" lon="12.2205717"><ele>1217.0</ele><time>2026-05-02T14:15:39.397Z</time></trkpt><trkpt lat="46.7287267" lon="12.2207217"><ele>1217.5</ele><time>2026-05-02T14:15:40.397Z</time></trkpt><trkpt lat="46.7287533" lon="12.2208883"><ele>1218.0</ele><time>2026-05-02T14:15:41.397Z</time></trkpt><trkpt lat="46.7287567" lon="12.22109"><ele>1218.5</ele><time>2026-05-02T14:15:42.397Z</time></trkpt><trkpt lat="46.72874" lon="12.2212967"><ele>1219.0</ele><time>2026-05-02T14:15:43.397Z</time></trkpt><trkpt lat="46.7287333" lon="12.221505"><ele>1219.0</ele><time>2026-05-02T14:15:44.397Z</time></trkpt><trkpt lat="46.728735" lon="12.2217167"><ele>1219.0</ele><time>2026-05-02T14:15:45.397Z</time></trkpt><trkpt lat="46.72875" lon="12.2219267"><ele>1219.0</ele><time>2026-05-02T14:15:46.397Z</time></trkpt><trkpt lat="46.7287833" lon="12.2221233"><ele>1219.0</ele><time>2026-05-02T14:15:47.396Z</time></trkpt><trkpt lat="46.7288217" lon="12.2223167"><ele>1218.5</ele><time>2026-05-02T14:15:48.396Z</time></trkpt><trkpt lat="46.72888" lon="12.2225033"><ele>1218.0</ele><time>2026-05-02T14:15:49.397Z</time></trkpt><trkpt lat="46.7289533" lon="12.2226817"><ele>1217.5</ele><time>2026-05-02T14:15:50.397Z</time></trkpt><trkpt lat="46.729045" lon="12.2228433"><ele>1217.0</ele><time>2026-05-02T14:15:51.397Z</time></trkpt><trkpt lat="46.7291283" lon="12.222985"><ele>1217.0</ele><time>2026-05-02T14:15:52.396Z</time></trkpt><trkpt lat="46.7291917" lon="12.223115"><ele>1217.0</ele><time>2026-05-02T14:15:53.396Z</time></trkpt><trkpt lat="46.7292417" lon="12.2232433"><ele>1217.0</ele><time>2026-05-02T14:15:54.397Z</time></trkpt><trkpt lat="46.729265" lon="12.2233783"><ele>1217.0</ele><time>2026-05-02T14:15:55.397Z</time></trkpt><trkpt lat="46.7292867" lon="12.2235033"><ele>1217.0</ele><time>2026-05-02T14:15:56.397Z</time></trkpt><trkpt lat="46.7293283" lon="12.2236267"><ele>1217.5</ele><time>2026-05-02T14:15:57.397Z</time></trkpt><trkpt lat="46.7293967" lon="12.2237383"><ele>1218.0</ele><time>2026-05-02T14:15:58.396Z</time></trkpt><trkpt lat="46.7294883" lon="12.2238667"><ele>1218.5</ele><time>2026-05-02T14:15:59.397Z</time></trkpt><trkpt lat="46.72957" lon="12.2240283"><ele>1219.0</ele><time>2026-05-02T14:16:00.397Z</time></trkpt><trkpt lat="46.7296617" lon="12.224205"><ele>1219.3333333333333</ele><time>2026-05-02T14:16:01.397Z</time></trkpt><trkpt lat="46.729765" lon="12.2244033"><ele>1219.6666666666667</ele><time>2026-05-02T14:16:02.397Z</time></trkpt><trkpt lat="46.7298683" lon="12.224625"><ele>1220.0</ele><time>2026-05-02T14:16:03.397Z</time></trkpt><trkpt lat="46.72998" lon="12.224855"><ele>1220.0</ele><time>2026-05-02T14:16:04.396Z</time></trkpt><trkpt lat="46.7300933" lon="12.2250933"><ele>1220.0</ele><time>2026-05-02T14:16:05.397Z</time></trkpt><trkpt lat="46.730205" lon="12.225335"><ele>1220.0</ele><time>2026-05-02T14:16:06.397Z</time></trkpt><trkpt lat="46.7303167" lon="12.2255617"><ele>1221.3333333333335</ele><time>2026-05-02T14:16:07.397Z</time></trkpt><trkpt lat="46.7304267" lon="12.2257783"><ele>1222.6666666666667</ele><time>2026-05-02T14:16:08.397Z</time></trkpt><trkpt lat="46.7305183" lon="12.225995"><ele>1224.0</ele><time>2026-05-02T14:16:09.397Z</time></trkpt><trkpt lat="46.730605" lon="12.2262"><ele>1224.0</ele><time>2026-05-02T14:16:10.397Z</time></trkpt><trkpt lat="46.7306833" lon="12.2264033"><ele>1224.0</ele><time>2026-05-02T14:16:11.397Z</time></trkpt><trkpt lat="46.730755" lon="12.2266133"><ele>1224.0</ele><time>2026-05-02T14:16:12.397Z</time></trkpt><trkpt lat="46.73082" lon="12.22681"><ele>1222.75</ele><time>2026-05-02T14:16:13.397Z</time></trkpt><trkpt lat="46.7308467" lon="12.2269967"><ele>1221.5</ele><time>2026-05-02T14:16:14.397Z</time></trkpt><trkpt lat="46.7308467" lon="12.2271767"><ele>1220.25</ele><time>2026-05-02T14:16:15.397Z</time></trkpt><trkpt lat="46.7308317" lon="12.2273383"><ele>1219.0</ele><time>2026-05-02T14:16:16.397Z</time></trkpt><trkpt lat="46.73084" lon="12.2274967"><ele>1219.25</ele><time>2026-05-02T14:16:17.397Z</time></trkpt><trkpt lat="46.7308767" lon="12.2276617"><ele>1219.5</ele><time>2026-05-02T14:16:18.397Z</time></trkpt><trkpt lat="46.73091" lon="12.227845"><ele>1219.75</ele><time>2026-05-02T14:16:19.397Z</time></trkpt><trkpt lat="46.7309183" lon="12.2280683"><ele>1220.0</ele><time>2026-05-02T14:16:20.397Z</time></trkpt><trkpt lat="46.7308967" lon="12.228325"><ele>1220.0</ele><time>2026-05-02T14:16:21.397Z</time></trkpt><trkpt lat="46.7308467" lon="12.2285883"><ele>1220.0</ele><time>2026-05-02T14:16:22.397Z</time></trkpt><trkpt lat="46.730785" lon="12.22884"><ele>1220.0</ele><time>2026-05-02T14:16:23.397Z</time></trkpt><trkpt lat="46.730715" lon="12.2290917"><ele>1220.6666666666667</ele><time>2026-05-02T14:16:24.397Z</time></trkpt><trkpt lat="46.7306367" lon="12.2293417"><ele>1221.3333333333333</ele><time>2026-05-02T14:16:25.397Z</time></trkpt><trkpt lat="46.7305417" lon="12.229605"><ele>1222.0</ele><time>2026-05-02T14:16:26.397Z</time></trkpt><trkpt lat="46.7304467" lon="12.2298717"><ele>1222.0</ele><time>2026-05-02T14:16:27.397Z</time></trkpt><trkpt lat="46.7303533" lon="12.2301583"><ele>1222.0</ele><time>2026-05-02T14:16:28.397Z</time></trkpt><trkpt lat="46.7302567" lon="12.2304483"><ele>1222.0</ele><time>2026-05-02T14:16:29.396Z</time></trkpt><trkpt lat="46.7301567" lon="12.23075"><ele>1219.0</ele><time>2026-05-02T14:16:30.397Z</time></trkpt><trkpt lat="46.73006" lon="12.231045"><ele>1216.0</ele><time>2026-05-02T14:16:31.396Z</time></trkpt><trkpt lat="46.7299633" lon="12.2313367"><ele>1213.0</ele><time>2026-05-02T14:16:32.397Z</time></trkpt><trkpt lat="46.729865" lon="12.23162"><ele>1213.0</ele><time>2026-05-02T14:16:33.397Z</time></trkpt><trkpt lat="46.7297633" lon="12.2319083"><ele>1213.0</ele><time>2026-05-02T14:16:34.397Z</time></trkpt><trkpt lat="46.7296717" lon="12.23219"><ele>1213.0</ele><time>2026-05-02T14:16:35.396Z</time></trkpt><trkpt lat="46.72958" lon="12.2324717"><ele>1211.6666666666665</ele><time>2026-05-02T14:16:36.397Z</time></trkpt><trkpt lat="46.72949" lon="12.2327517"><ele>1210.3333333333333</ele><time>2026-05-02T14:16:37.397Z</time></trkpt><trkpt lat="46.7293967" lon="12.2330317"><ele>1209.0</ele><time>2026-05-02T14:16:38.397Z</time></trkpt><trkpt lat="46.729305" lon="12.23331"><ele>1208.0</ele><time>2026-05-02T14:16:39.396Z</time></trkpt><trkpt lat="46.729205" lon="12.2335917"><ele>1207.0</ele><time>2026-05-02T14:16:40.397Z</time></trkpt><trkpt lat="46.7291083" lon="12.233885"><ele>1206.0</ele><time>2026-05-02T14:16:41.396Z</time></trkpt><trkpt lat="46.7290133" lon="12.234165"><ele>1208.0</ele><time>2026-05-02T14:16:42.396Z</time></trkpt><trkpt lat="46.72892" lon="12.2344433"><ele>1210.0</ele><time>2026-05-02T14:16:43.397Z</time></trkpt><trkpt lat="46.72883" lon="12.2347267"><ele>1212.0</ele><time>2026-05-02T14:16:44.397Z</time></trkpt><trkpt lat="46.728735" lon="12.2350083"><ele>1214.0</ele><time>2026-05-02T14:16:45.397Z</time></trkpt><trkpt lat="46.728645" lon="12.2352883"><ele>1216.0</ele><time>2026-05-02T14:16:46.397Z</time></trkpt><trkpt lat="46.7285533" lon="12.2355733"><ele>1218.0</ele><time>2026-05-02T14:16:47.396Z</time></trkpt><trkpt lat="46.72847" lon="12.23585"><ele>1214.0</ele><time>2026-05-02T14:16:48.397Z</time></trkpt><trkpt lat="46.7283833" lon="12.2361167"><ele>1210.0</ele><time>2026-05-02T14:16:49.396Z</time></trkpt><trkpt lat="46.7282967" lon="12.23637"><ele>1206.0</ele><time>2026-05-02T14:16:50.396Z</time></trkpt><trkpt lat="46.7282217" lon="12.2366167"><ele>1206.0</ele><time>2026-05-02T14:16:51.397Z</time></trkpt><trkpt lat="46.72815" lon="12.2368817"><ele>1206.0</ele><time>2026-05-02T14:16:52.397Z</time></trkpt><trkpt lat="46.7280867" lon="12.2371567"><ele>1206.0</ele><time>2026-05-02T14:16:53.397Z</time></trkpt><trkpt lat="46.7280267" lon="12.2374317"><ele>1206.6666666666667</ele><time>2026-05-02T14:16:54.397Z</time></trkpt><trkpt lat="46.7279767" lon="12.2377117"><ele>1207.3333333333335</ele><time>2026-05-02T14:16:55.397Z</time></trkpt><trkpt lat="46.7279333" lon="12.2379933"><ele>1208.0</ele><time>2026-05-02T14:16:56.397Z</time></trkpt><trkpt lat="46.7278933" lon="12.2382817"><ele>1211.6666666666667</ele><time>2026-05-02T14:16:57.397Z</time></trkpt><trkpt lat="46.72785" lon="12.2385683"><ele>1215.3333333333333</ele><time>2026-05-02T14:16:58.396Z</time></trkpt><trkpt lat="46.7278033" lon="12.2388533"><ele>1219.0</ele><time>2026-05-02T14:16:59.397Z</time></trkpt><trkpt lat="46.727745" lon="12.2391333"><ele>1214.0</ele><time>2026-05-02T14:17:00.397Z</time></trkpt><trkpt lat="46.727665" lon="12.23941"><ele>1209.0</ele><time>2026-05-02T14:17:01.396Z</time></trkpt><trkpt lat="46.7275667" lon="12.2396683"><ele>1204.0</ele><time>2026-05-02T14:17:02.396Z</time></trkpt><trkpt lat="46.727455" lon="12.2399117"><ele>1204.0</ele><time>2026-05-02T14:17:03.397Z</time></trkpt><trkpt lat="46.7273283" lon="12.24015"><ele>1204.0</ele><time>2026-05-02T14:17:04.396Z</time></trkpt><trkpt lat="46.72719" lon="12.24038"><ele>1204.0</ele><time>2026-05-02T14:17:05.396Z</time></trkpt><trkpt lat="46.7270483" lon="12.2406"><ele>1203.3333333333333</ele><time>2026-05-02T14:17:06.397Z</time></trkpt><trkpt lat="46.726905" lon="12.240825"><ele>1202.6666666666667</ele><time>2026-05-02T14:17:07.396Z</time></trkpt><trkpt lat="46.72678" lon="12.24106"><ele>1202.0</ele><time>2026-05-02T14:17:08.397Z</time></trkpt><trkpt lat="46.7266783" lon="12.241315"><ele>1198.6666666666667</ele><time>2026-05-02T14:17:09.396Z</time></trkpt><trkpt lat="46.7265933" lon="12.2415883"><ele>1195.3333333333333</ele><time>2026-05-02T14:17:10.397Z</time></trkpt><trkpt lat="46.7265233" lon="12.2418733"><ele>1192.0</ele><time>2026-05-02T14:17:11.397Z</time></trkpt><trkpt lat="46.7264783" lon="12.2421717"><ele>1192.3333333333333</ele><time>2026-05-02T14:17:12.397Z</time></trkpt><trkpt lat="46.7264583" lon="12.24248"><ele>1192.6666666666667</ele><time>2026-05-02T14:17:13.397Z</time></trkpt><trkpt lat="46.726455" lon="12.242795"><ele>1193.0</ele><time>2026-05-02T14:17:14.397Z</time></trkpt><trkpt lat="46.7264683" lon="12.2431117"><ele>1193.5</ele><time>2026-05-02T14:17:15.397Z</time></trkpt><trkpt lat="46.726485" lon="12.2434367"><ele>1194.0</ele><time>2026-05-02T14:17:16.397Z</time></trkpt><trkpt lat="46.7264983" lon="12.2437717"><ele>1194.0</ele><time>2026-05-02T14:17:17.397Z</time></trkpt><trkpt lat="46.72651" lon="12.2441117"><ele>1194.0</ele><time>2026-05-02T14:17:18.396Z</time></trkpt><trkpt lat="46.7265167" lon="12.2444567"><ele>1193.0</ele><time>2026-05-02T14:17:19.397Z</time></trkpt><trkpt lat="46.726525" lon="12.2448"><ele>1192.0</ele><time>2026-05-02T14:17:20.397Z</time></trkpt><trkpt lat="46.72654" lon="12.2451333"><ele>1192.0</ele><time>2026-05-02T14:17:21.397Z</time></trkpt><trkpt lat="46.7265533" lon="12.2454667"><ele>1192.0</ele><time>2026-05-02T14:17:22.397Z</time></trkpt><trkpt lat="46.7265667" lon="12.2458067"><ele>1190.5</ele><time>2026-05-02T14:17:23.397Z</time></trkpt><trkpt lat="46.726575" lon="12.2461467"><ele>1189.0</ele><time>2026-05-02T14:17:24.397Z</time></trkpt><trkpt lat="46.7265783" lon="12.2464867"><ele>1189.0</ele><time>2026-05-02T14:17:25.397Z</time></trkpt><trkpt lat="46.726575" lon="12.24681"><ele>1189.0</ele><time>2026-05-02T14:17:26.397Z</time></trkpt><trkpt lat="46.7265733" lon="12.2471317"><ele>1189.0</ele><time>2026-05-02T14:17:27.396Z</time></trkpt><trkpt lat="46.7265617" lon="12.247435"><ele>1188.6666666666665</ele><time>2026-05-02T14:17:28.397Z</time></trkpt><trkpt lat="46.7265433" lon="12.2477267"><ele>1188.3333333333333</ele><time>2026-05-02T14:17:29.397Z</time></trkpt><trkpt lat="46.72652" lon="12.2480233"><ele>1188.0</ele><time>2026-05-02T14:17:30.397Z</time></trkpt><trkpt lat="46.7265017" lon="12.24832"><ele>1187.6666666666667</ele><time>2026-05-02T14:17:31.397Z</time></trkpt><trkpt lat="46.72648" lon="12.2486167"><ele>1187.3333333333335</ele><time>2026-05-02T14:17:32.397Z</time></trkpt><trkpt lat="46.7264667" lon="12.24891"><ele>1187.0</ele><time>2026-05-02T14:17:33.397Z</time></trkpt><trkpt lat="46.72646" lon="12.24921"><ele>1187.0</ele><time>2026-05-02T14:17:34.397Z</time></trkpt><trkpt lat="46.7264617" lon="12.249515"><ele>1187.0</ele><time>2026-05-02T14:17:35.397Z</time></trkpt><trkpt lat="46.7264733" lon="12.24982"><ele>1187.0</ele><time>2026-05-02T14:17:36.397Z</time></trkpt><trkpt lat="46.7264967" lon="12.25013"><ele>1187.0</ele><time>2026-05-02T14:17:37.397Z</time></trkpt><trkpt lat="46.7265167" lon="12.2504517"><ele>1187.0</ele><time>2026-05-02T14:17:38.397Z</time></trkpt><trkpt lat="46.7265417" lon="12.2507683"><ele>1187.0</ele><time>2026-05-02T14:17:39.397Z</time></trkpt><trkpt lat="46.726565" lon="12.251085"><ele>1187.3333333333335</ele><time>2026-05-02T14:17:40.397Z</time></trkpt><trkpt lat="46.726585" lon="12.251395"><ele>1187.6666666666667</ele><time>2026-05-02T14:17:41.397Z</time></trkpt><trkpt lat="46.72661" lon="12.2516967"><ele>1188.0</ele><time>2026-05-02T14:17:42.397Z</time></trkpt><trkpt lat="46.7266417" lon="12.2519917"><ele>1186.6666666666667</ele><time>2026-05-02T14:17:43.397Z</time></trkpt><trkpt lat="46.7266883" lon="12.2522983"><ele>1185.3333333333335</ele><time>2026-05-02T14:17:44.397Z</time></trkpt><trkpt lat="46.7267467" lon="12.2525867"><ele>1184.0</ele><time>2026-05-02T14:17:45.397Z</time></trkpt><trkpt lat="46.7268283" lon="12.25287"><ele>1185.0</ele><time>2026-05-02T14:17:46.397Z</time></trkpt><trkpt lat="46.7269217" lon="12.2531567"><ele>1186.0</ele><time>2026-05-02T14:17:47.397Z</time></trkpt><trkpt lat="46.72702" lon="12.2534433"><ele>1187.0</ele><time>2026-05-02T14:17:48.397Z</time></trkpt><trkpt lat="46.7271417" lon="12.253735"><ele>1187.0</ele><time>2026-05-02T14:17:49.396Z</time></trkpt><trkpt lat="46.72726" lon="12.2540267"><ele>1187.0</ele><time>2026-05-02T14:17:50.397Z</time></trkpt><trkpt lat="46.72737" lon="12.2543233"><ele>1187.0</ele><time>2026-05-02T14:17:51.396Z</time></trkpt><trkpt lat="46.7274867" lon="12.2546267"><ele>1187.0</ele><time>2026-05-02T14:17:52.397Z</time></trkpt><trkpt lat="46.7275933" lon="12.2549283"><ele>1185.0</ele><time>2026-05-02T14:17:53.397Z</time></trkpt><trkpt lat="46.7277" lon="12.2552383"><ele>1183.0</ele><time>2026-05-02T14:17:54.397Z</time></trkpt><trkpt lat="46.727795" lon="12.2555517"><ele>1185.3333333333333</ele><time>2026-05-02T14:17:55.397Z</time></trkpt><trkpt lat="46.7278833" lon="12.2558567"><ele>1187.6666666666667</ele><time>2026-05-02T14:17:56.397Z</time></trkpt><trkpt lat="46.7279667" lon="12.256155"><ele>1190.0</ele><time>2026-05-02T14:17:57.396Z</time></trkpt><trkpt lat="46.72804" lon="12.2564517"><ele>1188.0</ele><time>2026-05-02T14:17:58.397Z</time></trkpt><trkpt lat="46.7281217" lon="12.2567333"><ele>1186.0</ele><time>2026-05-02T14:17:59.397Z</time></trkpt><trkpt lat="46.7282067" lon="12.257"><ele>1184.0</ele><time>2026-05-02T14:18:00.396Z</time></trkpt><trkpt lat="46.7283117" lon="12.25725"><ele>1183.3333333333335</ele><time>2026-05-02T14:18:01.397Z</time></trkpt><trkpt lat="46.7284317" lon="12.2574867"><ele>1182.6666666666667</ele><time>2026-05-02T14:18:02.397Z</time></trkpt><trkpt lat="46.728575" lon="12.2577033"><ele>1182.0</ele><time>2026-05-02T14:18:03.397Z</time></trkpt><trkpt lat="46.72871" lon="12.2579283"><ele>1182.3333333333333</ele><time>2026-05-02T14:18:04.397Z</time></trkpt><trkpt lat="46.7288267" lon="12.25815"><ele>1182.6666666666665</ele><time>2026-05-02T14:18:05.397Z</time></trkpt><trkpt lat="46.728915" lon="12.2583817"><ele>1183.0</ele><time>2026-05-02T14:18:06.397Z</time></trkpt><trkpt lat="46.72897" lon="12.2586317"><ele>1183.0</ele><time>2026-05-02T14:18:07.397Z</time></trkpt><trkpt lat="46.728995" lon="12.2588833"><ele>1183.0</ele><time>2026-05-02T14:18:08.397Z</time></trkpt><trkpt lat="46.729" lon="12.259145"><ele>1183.0</ele><time>2026-05-02T14:18:09.397Z</time></trkpt><trkpt lat="46.7289783" lon="12.25942"><ele>1183.3333333333333</ele><time>2026-05-02T14:18:10.397Z</time></trkpt><trkpt lat="46.728935" lon="12.25971"><ele>1183.6666666666667</ele><time>2026-05-02T14:18:11.397Z</time></trkpt><trkpt lat="46.7288883" lon="12.2600133"><ele>1184.0</ele><time>2026-05-02T14:18:12.397Z</time></trkpt><trkpt lat="46.7288517" lon="12.2603017"><ele>1184.3333333333335</ele><time>2026-05-02T14:18:13.396Z</time></trkpt><trkpt lat="46.728825" lon="12.2605917"><ele>1184.6666666666667</ele><time>2026-05-02T14:18:14.397Z</time></trkpt><trkpt lat="46.7288167" lon="12.2608783"><ele>1185.0</ele><time>2026-05-02T14:18:15.397Z</time></trkpt><trkpt lat="46.7288233" lon="12.2611467"><ele>1185.0</ele><time>2026-05-02T14:18:16.397Z</time></trkpt><trkpt lat="46.7288533" lon="12.2614033"><ele>1185.0</ele><time>2026-05-02T14:18:17.397Z</time></trkpt><trkpt lat="46.7288983" lon="12.26164"><ele>1185.0</ele><time>2026-05-02T14:18:18.396Z</time></trkpt><trkpt lat="46.7289617" lon="12.2618817"><ele>1184.0</ele><time>2026-05-02T14:18:19.397Z</time></trkpt><trkpt lat="46.7290483" lon="12.2621067"><ele>1183.0</ele><time>2026-05-02T14:18:20.397Z</time></trkpt><trkpt lat="46.7291433" lon="12.26233"><ele>1182.0</ele><time>2026-05-02T14:18:21.396Z</time></trkpt><trkpt lat="46.729235" lon="12.2625567"><ele>1181.6666666666667</ele><time>2026-05-02T14:18:22.397Z</time></trkpt><trkpt lat="46.7293117" lon="12.26277"><ele>1181.3333333333335</ele><time>2026-05-02T14:18:23.397Z</time></trkpt><trkpt lat="46.7293867" lon="12.2629783"><ele>1181.0</ele><time>2026-05-02T14:18:24.397Z</time></trkpt><trkpt lat="46.72946" lon="12.2631833"><ele>1181.0</ele><time>2026-05-02T14:18:25.397Z</time></trkpt><trkpt lat="46.7295317" lon="12.26337"><ele>1181.0</ele><time>2026-05-02T14:18:26.396Z</time></trkpt><trkpt lat="46.7295933" lon="12.2635533"><ele>1181.0</ele><time>2026-05-02T14:18:27.396Z</time></trkpt><trkpt lat="46.7296517" lon="12.2637267"><ele>1181.0</ele><time>2026-05-02T14:18:28.397Z</time></trkpt><trkpt lat="46.7296983" lon="12.263875"><ele>1180.5</ele><time>2026-05-02T14:18:29.396Z</time></trkpt><trkpt lat="46.7297183" lon="12.2640083"><ele>1180.0</ele><time>2026-05-02T14:18:30.397Z</time></trkpt><trkpt lat="46.72972" lon="12.264125"><ele>1179.5</ele><time>2026-05-02T14:18:31.397Z</time></trkpt><trkpt lat="46.7296967" lon="12.2642283"><ele>1179.0</ele><time>2026-05-02T14:18:32.397Z</time></trkpt><trkpt lat="46.729645" lon="12.2643133"><ele>1178.5</ele><time>2026-05-02T14:18:33.397Z</time></trkpt><trkpt lat="46.7295683" lon="12.2643933"><ele>1178.0</ele><time>2026-05-02T14:18:34.397Z</time></trkpt><trkpt lat="46.7294817" lon="12.2644983"><ele>1178.0</ele><time>2026-05-02T14:18:35.396Z</time></trkpt><trkpt lat="46.7294117" lon="12.2646317"><ele>1178.0</ele><time>2026-05-02T14:18:36.396Z</time></trkpt><trkpt lat="46.729365" lon="12.2647833"><ele>1178.0</ele><time>2026-05-02T14:18:37.396Z</time></trkpt><trkpt lat="46.7293567" lon="12.2649717"><ele>1178.0</ele><time>2026-05-02T14:18:38.397Z</time></trkpt><trkpt lat="46.7293883" lon="12.2651917"><ele>1178.0</ele><time>2026-05-02T14:18:39.397Z</time></trkpt><trkpt lat="46.7294567" lon="12.2654317"><ele>1178.0</ele><time>2026-05-02T14:18:40.396Z</time></trkpt><trkpt lat="46.729525" lon="12.2656883"><ele>1178.0</ele><time>2026-05-02T14:18:41.397Z</time></trkpt><trkpt lat="46.729575" lon="12.2659483"><ele>1177.3333333333335</ele><time>2026-05-02T14:18:42.397Z</time></trkpt><trkpt lat="46.7296167" lon="12.2661967"><ele>1176.6666666666667</ele><time>2026-05-02T14:18:43.397Z</time></trkpt><trkpt lat="46.7296533" lon="12.266435"><ele>1176.0</ele><time>2026-05-02T14:18:44.396Z</time></trkpt><trkpt lat="46.7296933" lon="12.26667"><ele>1175.75</ele><time>2026-05-02T14:18:45.397Z</time></trkpt><trkpt lat="46.7297283" lon="12.2668883"><ele>1175.5</ele><time>2026-05-02T14:18:46.397Z</time></trkpt><trkpt lat="46.7297633" lon="12.2671"><ele>1175.25</ele><time>2026-05-02T14:18:47.397Z</time></trkpt><trkpt lat="46.729795" lon="12.2673017"><ele>1175.0</ele><time>2026-05-02T14:18:48.397Z</time></trkpt><trkpt lat="46.72982" lon="12.2675133"><ele>1175.0</ele><time>2026-05-02T14:18:49.397Z</time></trkpt><trkpt lat="46.7298383" lon="12.2677367"><ele>1175.0</ele><time>2026-05-02T14:18:50.397Z</time></trkpt><trkpt lat="46.7298383" lon="12.2679767"><ele>1175.0</ele><time>2026-05-02T14:18:51.397Z</time></trkpt><trkpt lat="46.729835" lon="12.268215"><ele>1175.0</ele><time>2026-05-02T14:18:52.396Z</time></trkpt><trkpt lat="46.729825" lon="12.2684417"><ele>1175.0</ele><time>2026-05-02T14:18:53.396Z</time></trkpt><trkpt lat="46.729825" lon="12.2686583"><ele>1175.0</ele><time>2026-05-02T14:18:54.396Z</time></trkpt><trkpt lat="46.7298183" lon="12.2688717"><ele>1175.25</ele><time>2026-05-02T14:18:55.397Z</time></trkpt><trkpt lat="46.729825" lon="12.2690717"><ele>1175.5</ele><time>2026-05-02T14:18:56.396Z</time></trkpt><trkpt lat="46.7298283" lon="12.269265"><ele>1175.75</ele><time>2026-05-02T14:18:57.397Z</time></trkpt><trkpt lat="46.729835" lon="12.269465"><ele>1176.0</ele><time>2026-05-02T14:18:58.397Z</time></trkpt><trkpt lat="46.72983" lon="12.2696667"><ele>1175.75</ele><time>2026-05-02T14:18:59.397Z</time></trkpt><trkpt lat="46.7298267" lon="12.26986"><ele>1175.5</ele><time>2026-05-02T14:19:00.397Z</time></trkpt><trkpt lat="46.7298317" lon="12.27004"><ele>1175.25</ele><time>2026-05-02T14:19:01.397Z</time></trkpt><trkpt lat="46.7298417" lon="12.2702133"><ele>1175.0</ele><time>2026-05-02T14:19:02.397Z</time></trkpt><trkpt lat="46.7298633" lon="12.2703683"><ele>1175.0</ele><time>2026-05-02T14:19:03.396Z</time></trkpt><trkpt lat="46.7298867" lon="12.270525"><ele>1175.0</ele><time>2026-05-02T14:19:04.397Z</time></trkpt><trkpt lat="46.729915" lon="12.270685"><ele>1175.0</ele><time>2026-05-02T14:19:05.397Z</time></trkpt><trkpt lat="46.7299517" lon="12.2708383"><ele>1175.0</ele><time>2026-05-02T14:19:06.396Z</time></trkpt><trkpt lat="46.7299883" lon="12.27098"><ele>1175.0</ele><time>2026-05-02T14:19:07.397Z</time></trkpt><trkpt lat="46.730015" lon="12.2711267"><ele>1175.2</ele><time>2026-05-02T14:19:08.397Z</time></trkpt><trkpt lat="46.7300517" lon="12.2712633"><ele>1175.4</ele><time>2026-05-02T14:19:09.397Z</time></trkpt><trkpt lat="46.730095" lon="12.2713917"><ele>1175.6</ele><time>2026-05-02T14:19:10.397Z</time></trkpt><trkpt lat="46.7301383" lon="12.2715133"><ele>1175.8</ele><time>2026-05-02T14:19:11.397Z</time></trkpt><trkpt lat="46.7301917" lon="12.2716317"><ele>1176.0</ele><time>2026-05-02T14:19:12.396Z</time></trkpt><trkpt lat="46.73024" lon="12.271745"><ele>1175.8</ele><time>2026-05-02T14:19:13.397Z</time></trkpt><trkpt lat="46.730305" lon="12.2718583"><ele>1175.6</ele><time>2026-05-02T14:19:14.396Z</time></trkpt><trkpt lat="46.7303717" lon="12.2719683"><ele>1175.4</ele><time>2026-05-02T14:19:15.397Z</time></trkpt><trkpt lat="46.730445" lon="12.27208"><ele>1175.2</ele><time>2026-05-02T14:19:16.397Z</time></trkpt><trkpt lat="46.7305183" lon="12.272185"><ele>1175.0</ele><time>2026-05-02T14:19:17.397Z</time></trkpt><trkpt lat="46.7305833" lon="12.2722833"><ele>1175.0</ele><time>2026-05-02T14:19:18.397Z</time></trkpt><trkpt lat="46.730655" lon="12.2723783"><ele>1175.0</ele><time>2026-05-02T14:19:19.396Z</time></trkpt><trkpt lat="46.730735" lon="12.2724667"><ele>1175.0</ele><time>2026-05-02T14:19:20.397Z</time></trkpt><trkpt lat="46.7308167" lon="12.2725633"><ele>1175.0</ele><time>2026-05-02T14:19:21.396Z</time></trkpt><trkpt lat="46.730895" lon="12.2726633"><ele>1175.0</ele><time>2026-05-02T14:19:22.396Z</time></trkpt><trkpt lat="46.7309717" lon="12.27277"><ele>1175.0</ele><time>2026-05-02T14:19:23.397Z</time></trkpt><trkpt lat="46.7310417" lon="12.2728817"><ele>1175.0</ele><time>2026-05-02T14:19:24.397Z</time></trkpt><trkpt lat="46.7311067" lon="12.273015"><ele>1175.0</ele><time>2026-05-02T14:19:25.397Z</time></trkpt><trkpt lat="46.7311583" lon="12.2731683"><ele>1175.0</ele><time>2026-05-02T14:19:26.397Z</time></trkpt><trkpt lat="46.7311967" lon="12.2733233"><ele>1175.0</ele><time>2026-05-02T14:19:27.396Z</time></trkpt><trkpt lat="46.7312167" lon="12.2734817"><ele>1174.8</ele><time>2026-05-02T14:19:28.397Z</time></trkpt><trkpt lat="46.7312233" lon="12.273635"><ele>1174.6</ele><time>2026-05-02T14:19:29.397Z</time></trkpt><trkpt lat="46.7312333" lon="12.27378"><ele>1174.4</ele><time>2026-05-02T14:19:30.397Z</time></trkpt><trkpt lat="46.7312417" lon="12.2739233"><ele>1174.2</ele><time>2026-05-02T14:19:31.396Z</time></trkpt><trkpt lat="46.7312583" lon="12.274065"><ele>1174.0</ele><time>2026-05-02T14:19:32.397Z</time></trkpt><trkpt lat="46.7312783" lon="12.2742033"><ele>1174.0</ele><time>2026-05-02T14:19:33.397Z</time></trkpt><trkpt lat="46.731295" lon="12.2743283"><ele>1174.0</ele><time>2026-05-02T14:19:34.397Z</time></trkpt><trkpt lat="46.7313167" lon="12.2744417"><ele>1174.0</ele><time>2026-05-02T14:19:35.397Z</time></trkpt><trkpt lat="46.7313467" lon="12.274555"><ele>1174.0</ele><time>2026-05-02T14:19:36.397Z</time></trkpt><trkpt lat="46.7313733" lon="12.27466"><ele>1174.0</ele><time>2026-05-02T14:19:37.397Z</time></trkpt><trkpt lat="46.7314017" lon="12.2747717"><ele>1174.0</ele><time>2026-05-02T14:19:38.397Z</time></trkpt><trkpt lat="46.7314233" lon="12.274885"><ele>1174.0</ele><time>2026-05-02T14:19:39.396Z</time></trkpt><trkpt lat="46.7314467" lon="12.275"><ele>1174.0</ele><time>2026-05-02T14:19:40.397Z</time></trkpt><trkpt lat="46.7314683" lon="12.2751117"><ele>1174.0</ele><time>2026-05-02T14:19:41.396Z</time></trkpt><trkpt lat="46.7314917" lon="12.2752283"><ele>1174.0</ele><time>2026-05-02T14:19:42.396Z</time></trkpt><trkpt lat="46.7315133" lon="12.275345"><ele>1174.0</ele><time>2026-05-02T14:19:43.397Z</time></trkpt><trkpt lat="46.7315367" lon="12.2754567"><ele>1174.0</ele><time>2026-05-02T14:19:44.397Z</time></trkpt><trkpt lat="46.73156" lon="12.2755783"><ele>1174.1666666666665</ele><time>2026-05-02T14:19:45.397Z</time></trkpt><trkpt lat="46.731585" lon="12.2757"><ele>1174.3333333333333</ele><time>2026-05-02T14:19:46.397Z</time></trkpt><trkpt lat="46.7316117" lon="12.2758033"><ele>1174.5</ele><time>2026-05-02T14:19:47.397Z</time></trkpt><trkpt lat="46.731635" lon="12.27591"><ele>1174.6666666666667</ele><time>2026-05-02T14:19:48.396Z</time></trkpt><trkpt lat="46.7316633" lon="12.2760067"><ele>1174.8333333333335</ele><time>2026-05-02T14:19:49.397Z</time></trkpt><trkpt lat="46.7316867" lon="12.2761083"><ele>1175.0</ele><time>2026-05-02T14:19:50.397Z</time></trkpt><trkpt lat="46.7317083" lon="12.2762033"><ele>1175.0</ele><time>2026-05-02T14:19:51.397Z</time></trkpt><trkpt lat="46.7317533" lon="12.2763617"><ele>1175.0</ele><time>2026-05-02T14:19:53.397Z</time></trkpt><trkpt lat="46.73178" lon="12.2764883"><ele>1175.0</ele><time>2026-05-02T14:19:55.397Z</time></trkpt><trkpt lat="46.7317317" lon="12.2766017"><ele>1175.0</ele><time>2026-05-02T14:19:58.397Z</time></trkpt><trkpt lat="46.7316233" lon="12.2766233"><ele>1175.0</ele><time>2026-05-02T14:20:00.396Z</time></trkpt><trkpt lat="46.731555" lon="12.276635"><ele>1175.1666666666667</ele><time>2026-05-02T14:20:01.396Z</time></trkpt><trkpt lat="46.7314783" lon="12.276645"><ele>1175.3333333333335</ele><time>2026-05-02T14:20:02.397Z</time></trkpt><trkpt lat="46.7313983" lon="12.2766517"><ele>1175.5</ele><time>2026-05-02T14:20:03.397Z</time></trkpt><trkpt lat="46.73132" lon="12.276655"><ele>1175.6666666666667</ele><time>2026-05-02T14:20:04.396Z</time></trkpt><trkpt lat="46.7312417" lon="12.2766683"><ele>1175.8333333333333</ele><time>2026-05-02T14:20:05.396Z</time></trkpt><trkpt lat="46.7311683" lon="12.2766917"><ele>1176.0</ele><time>2026-05-02T14:20:06.397Z</time></trkpt><trkpt lat="46.7310867" lon="12.276735"><ele>1175.8333333333333</ele><time>2026-05-02T14:20:07.396Z</time></trkpt><trkpt lat="46.7310117" lon="12.2768017"><ele>1175.6666666666667</ele><time>2026-05-02T14:20:08.396Z</time></trkpt><trkpt lat="46.7309417" lon="12.2768733"><ele>1175.5</ele><time>2026-05-02T14:20:09.397Z</time></trkpt><trkpt lat="46.730885" lon="12.2769617"><ele>1175.3333333333335</ele><time>2026-05-02T14:20:10.397Z</time></trkpt><trkpt lat="46.7308267" lon="12.2770467"><ele>1175.1666666666667</ele><time>2026-05-02T14:20:11.397Z</time></trkpt><trkpt lat="46.7307683" lon="12.27713"><ele>1175.0</ele><time>2026-05-02T14:20:12.396Z</time></trkpt><trkpt lat="46.730705" lon="12.2772133"><ele>1175.2</ele><time>2026-05-02T14:20:13.397Z</time></trkpt><trkpt lat="46.730645" lon="12.2772967"><ele>1175.4</ele><time>2026-05-02T14:20:14.397Z</time></trkpt><trkpt lat="46.7305967" lon="12.2773833"><ele>1175.6</ele><time>2026-05-02T14:20:15.397Z</time></trkpt><trkpt lat="46.7305533" lon="12.2774833"><ele>1175.8</ele><time>2026-05-02T14:20:16.397Z</time></trkpt><trkpt lat="46.73052" lon="12.277615"><ele>1176.0</ele><time>2026-05-02T14:20:17.397Z</time></trkpt><trkpt lat="46.730495" lon="12.2777883"><ele>1176.0</ele><time>2026-05-02T14:20:18.396Z</time></trkpt><trkpt lat="46.7304867" lon="12.2779917"><ele>1176.0</ele><time>2026-05-02T14:20:19.397Z</time></trkpt><trkpt lat="46.730485" lon="12.278205"><ele>1176.0</ele><time>2026-05-02T14:20:20.396Z</time></trkpt><trkpt lat="46.7304783" lon="12.2784083"><ele>1176.0</ele><time>2026-05-02T14:20:21.397Z</time></trkpt><trkpt lat="46.7304667" lon="12.2785933"><ele>1176.2</ele><time>2026-05-02T14:20:22.397Z</time></trkpt><trkpt lat="46.730455" lon="12.2787683"><ele>1176.3999999999999</ele><time>2026-05-02T14:20:23.396Z</time></trkpt><trkpt lat="46.7304367" lon="12.278925"><ele>1176.6</ele><time>2026-05-02T14:20:24.397Z</time></trkpt><trkpt lat="46.7304133" lon="12.2790783"><ele>1176.8</ele><time>2026-05-02T14:20:25.396Z</time></trkpt><trkpt lat="46.7303917" lon="12.279225"><ele>1177.0</ele><time>2026-05-02T14:20:26.397Z</time></trkpt><trkpt lat="46.73036" lon="12.279365"><ele>1177.0</ele><time>2026-05-02T14:20:27.397Z</time></trkpt><trkpt lat="46.73033" lon="12.2795117"><ele>1177.0</ele><time>2026-05-02T14:20:28.396Z</time></trkpt><trkpt lat="46.7303033" lon="12.2796567"><ele>1177.0</ele><time>2026-05-02T14:20:29.397Z</time></trkpt><trkpt lat="46.7302733" lon="12.27979"><ele>1177.0</ele><time>2026-05-02T14:20:30.397Z</time></trkpt><trkpt lat="46.73024" lon="12.2799067"><ele>1177.0</ele><time>2026-05-02T14:20:31.397Z</time></trkpt><trkpt lat="46.7301917" lon="12.2799933"><ele>1177.8333333333333</ele><time>2026-05-02T14:20:32.397Z</time></trkpt><trkpt lat="46.7301383" lon="12.28007"><ele>1178.6666666666665</ele><time>2026-05-02T14:20:33.397Z</time></trkpt><trkpt lat="46.7300817" lon="12.2801317"><ele>1179.5</ele><time>2026-05-02T14:20:34.397Z</time></trkpt><trkpt lat="46.73003" lon="12.2801883"><ele>1180.3333333333333</ele><time>2026-05-02T14:20:35.397Z</time></trkpt><trkpt lat="46.7299717" lon="12.2802567"><ele>1181.1666666666667</ele><time>2026-05-02T14:20:36.397Z</time></trkpt><trkpt lat="46.7299017" lon="12.2803517"><ele>1182.0</ele><time>2026-05-02T14:20:37.397Z</time></trkpt><trkpt lat="46.7298117" lon="12.2804683"><ele>1181.6666666666667</ele><time>2026-05-02T14:20:38.397Z</time></trkpt><trkpt lat="46.7296983" lon="12.2806067"><ele>1181.3333333333335</ele><time>2026-05-02T14:20:39.396Z</time></trkpt><trkpt lat="46.7295667" lon="12.2807467"><ele>1181.0</ele><time>2026-05-02T14:20:40.397Z</time></trkpt><trkpt lat="46.7294117" lon="12.2808817"><ele>1182.6666666666667</ele><time>2026-05-02T14:20:41.396Z</time></trkpt><trkpt lat="46.7292383" lon="12.280975"><ele>1184.3333333333333</ele><time>2026-05-02T14:20:42.397Z</time></trkpt><trkpt lat="46.7290517" lon="12.28105"><ele>1186.0</ele><time>2026-05-02T14:20:43.397Z</time></trkpt><trkpt lat="46.7288483" lon="12.2810867"><ele>1186.0</ele><time>2026-05-02T14:20:44.396Z</time></trkpt><trkpt lat="46.7286383" lon="12.2811133"><ele>1186.0</ele><time>2026-05-02T14:20:45.396Z</time></trkpt><trkpt lat="46.7284383" lon="12.2811333"><ele>1186.0</ele><time>2026-05-02T14:20:46.397Z</time></trkpt><trkpt lat="46.7282533" lon="12.2811783"><ele>1187.6666666666665</ele><time>2026-05-02T14:20:47.397Z</time></trkpt><trkpt lat="46.7280767" lon="12.2812433"><ele>1189.3333333333333</ele><time>2026-05-02T14:20:48.397Z</time></trkpt><trkpt lat="46.7279017" lon="12.2813167"><ele>1191.0</ele><time>2026-05-02T14:20:49.397Z</time></trkpt><trkpt lat="46.7277383" lon="12.2814233"><ele>1192.0</ele><time>2026-05-02T14:20:50.396Z</time></trkpt><trkpt lat="46.72759" lon="12.2815617"><ele>1193.0</ele><time>2026-05-02T14:20:51.397Z</time></trkpt><trkpt lat="46.7274583" lon="12.28171"><ele>1194.0</ele><time>2026-05-02T14:20:52.397Z</time></trkpt><trkpt lat="46.727345" lon="12.2819017"><ele>1194.0</ele><time>2026-05-02T14:20:53.397Z</time></trkpt><trkpt lat="46.7272517" lon="12.2821267"><ele>1194.0</ele><time>2026-05-02T14:20:54.396Z</time></trkpt><trkpt lat="46.7271783" lon="12.28238"><ele>1194.0</ele><time>2026-05-02T14:20:55.397Z</time></trkpt><trkpt lat="46.727125" lon="12.2826633"><ele>1194.3333333333333</ele><time>2026-05-02T14:20:56.397Z</time></trkpt><trkpt lat="46.727085" lon="12.2829483"><ele>1194.6666666666665</ele><time>2026-05-02T14:20:57.397Z</time></trkpt><trkpt lat="46.727045" lon="12.2832233"><ele>1195.0</ele><time>2026-05-02T14:20:58.397Z</time></trkpt><trkpt lat="46.7270033" lon="12.283495"><ele>1196.0</ele><time>2026-05-02T14:20:59.396Z</time></trkpt><trkpt lat="46.726965" lon="12.2837617"><ele>1197.0</ele><time>2026-05-02T14:21:00.397Z</time></trkpt><trkpt lat="46.7269183" lon="12.2840367"><ele>1198.0</ele><time>2026-05-02T14:21:01.397Z</time></trkpt><trkpt lat="46.7268633" lon="12.2843117"><ele>1199.3333333333333</ele><time>2026-05-02T14:21:02.396Z</time></trkpt><trkpt lat="46.7267917" lon="12.2845867"><ele>1200.6666666666667</ele><time>2026-05-02T14:21:03.396Z</time></trkpt><trkpt lat="46.7267183" lon="12.2848717"><ele>1202.0</ele><time>2026-05-02T14:21:04.397Z</time></trkpt><trkpt lat="46.7266383" lon="12.2851617"><ele>1202.0</ele><time>2026-05-02T14:21:05.397Z</time></trkpt><trkpt lat="46.726555" lon="12.285455"><ele>1202.0</ele><time>2026-05-02T14:21:06.396Z</time></trkpt><trkpt lat="46.7264883" lon="12.2857333"><ele>1202.0</ele><time>2026-05-02T14:21:07.397Z</time></trkpt><trkpt lat="46.72642" lon="12.2860033"><ele>1202.0</ele><time>2026-05-02T14:21:08.397Z</time></trkpt><trkpt lat="46.7263617" lon="12.286265"><ele>1202.0</ele><time>2026-05-02T14:21:09.397Z</time></trkpt><trkpt lat="46.7263067" lon="12.286515"><ele>1202.0</ele><time>2026-05-02T14:21:10.397Z</time></trkpt><trkpt lat="46.7262617" lon="12.2867617"><ele>1204.3333333333335</ele><time>2026-05-02T14:21:11.396Z</time></trkpt><trkpt lat="46.7262267" lon="12.2870217"><ele>1206.6666666666667</ele><time>2026-05-02T14:21:12.396Z</time></trkpt><trkpt lat="46.726175" lon="12.2872667"><ele>1209.0</ele><time>2026-05-02T14:21:13.397Z</time></trkpt><trkpt lat="46.72611" lon="12.2874983"><ele>1210.6666666666667</ele><time>2026-05-02T14:21:14.397Z</time></trkpt><trkpt lat="46.7260317" lon="12.2877283"><ele>1212.3333333333335</ele><time>2026-05-02T14:21:15.397Z</time></trkpt><trkpt lat="46.7259533" lon="12.287945"><ele>1214.0</ele><time>2026-05-02T14:21:16.397Z</time></trkpt><trkpt lat="46.7258667" lon="12.2881733"><ele>1214.0</ele><time>2026-05-02T14:21:17.397Z</time></trkpt><trkpt lat="46.7257783" lon="12.2884083"><ele>1214.0</ele><time>2026-05-02T14:21:18.397Z</time></trkpt><trkpt lat="46.7256883" lon="12.2886533"><ele>1214.0</ele><time>2026-05-02T14:21:19.397Z</time></trkpt><trkpt lat="46.7255783" lon="12.2888833"><ele>1212.0</ele><time>2026-05-02T14:21:20.396Z</time></trkpt><trkpt lat="46.7254567" lon="12.2891067"><ele>1210.0</ele><time>2026-05-02T14:21:21.397Z</time></trkpt><trkpt lat="46.7253217" lon="12.2893033"><ele>1208.0</ele><time>2026-05-02T14:21:22.397Z</time></trkpt><trkpt lat="46.7251733" lon="12.2895"><ele>1208.3333333333335</ele><time>2026-05-02T14:21:23.397Z</time></trkpt><trkpt lat="46.72501" lon="12.2896917"><ele>1208.6666666666667</ele><time>2026-05-02T14:21:24.396Z</time></trkpt><trkpt lat="46.7248483" lon="12.2899167"><ele>1209.0</ele><time>2026-05-02T14:21:25.396Z</time></trkpt><trkpt lat="46.724705" lon="12.2901617"><ele>1209.0</ele><time>2026-05-02T14:21:26.396Z</time></trkpt><trkpt lat="46.7245883" lon="12.2904367"><ele>1209.0</ele><time>2026-05-02T14:21:27.397Z</time></trkpt><trkpt lat="46.7244917" lon="12.290735"><ele>1209.0</ele><time>2026-05-02T14:21:28.397Z</time></trkpt><trkpt lat="46.72439" lon="12.2910117"><ele>1213.3333333333333</ele><time>2026-05-02T14:21:29.396Z</time></trkpt><trkpt lat="46.7242883" lon="12.29127"><ele>1217.6666666666665</ele><time>2026-05-02T14:21:30.397Z</time></trkpt><trkpt lat="46.7241867" lon="12.2915067"><ele>1222.0</ele><time>2026-05-02T14:21:31.397Z</time></trkpt><trkpt lat="46.724085" lon="12.2917083"><ele>1222.0</ele><time>2026-05-02T14:21:32.396Z</time></trkpt><trkpt lat="46.7239433" lon="12.291895"><ele>1222.0</ele><time>2026-05-02T14:21:33.397Z</time></trkpt><trkpt lat="46.72378" lon="12.2920583"><ele>1222.0</ele><time>2026-05-02T14:21:34.397Z</time></trkpt><trkpt lat="46.7236083" lon="12.2922067"><ele>1223.3333333333333</ele><time>2026-05-02T14:21:35.397Z</time></trkpt><trkpt lat="46.72344" lon="12.2923533"><ele>1224.6666666666667</ele><time>2026-05-02T14:21:36.396Z</time></trkpt><trkpt lat="46.72327" lon="12.29251"><ele>1226.0</ele><time>2026-05-02T14:21:37.397Z</time></trkpt><trkpt lat="46.7231083" lon="12.29266"><ele>1226.0</ele><time>2026-05-02T14:21:38.397Z</time></trkpt><trkpt lat="46.72296" lon="12.2928183"><ele>1226.0</ele><time>2026-05-02T14:21:39.396Z</time></trkpt><trkpt lat="46.722835" lon="12.292985"><ele>1226.0</ele><time>2026-05-02T14:21:40.397Z</time></trkpt><trkpt lat="46.72274" lon="12.2931883"><ele>1228.6666666666667</ele><time>2026-05-02T14:21:41.397Z</time></trkpt><trkpt lat="46.72266" lon="12.2934333"><ele>1231.3333333333333</ele><time>2026-05-02T14:21:42.396Z</time></trkpt><trkpt lat="46.7226033" lon="12.2936917"><ele>1234.0</ele><time>2026-05-02T14:21:43.397Z</time></trkpt><trkpt lat="46.722585" lon="12.293975"><ele>1234.3333333333333</ele><time>2026-05-02T14:21:44.397Z</time></trkpt><trkpt lat="46.7225883" lon="12.294265"><ele>1234.6666666666667</ele><time>2026-05-02T14:21:45.397Z</time></trkpt><trkpt lat="46.7226" lon="12.294535"><ele>1235.0</ele><time>2026-05-02T14:21:46.397Z</time></trkpt><trkpt lat="46.7226067" lon="12.2947983"><ele>1234.3333333333335</ele><time>2026-05-02T14:21:47.397Z</time></trkpt><trkpt lat="46.722585" lon="12.2950417"><ele>1233.6666666666667</ele><time>2026-05-02T14:21:48.397Z</time></trkpt><trkpt lat="46.7225283" lon="12.2952667"><ele>1233.0</ele><time>2026-05-02T14:21:49.396Z</time></trkpt><trkpt lat="46.722455" lon="12.2955"><ele>1236.0</ele><time>2026-05-02T14:21:50.397Z</time></trkpt><trkpt lat="46.7223633" lon="12.2957167"><ele>1239.0</ele><time>2026-05-02T14:21:51.397Z</time></trkpt><trkpt lat="46.7222517" lon="12.295935"><ele>1242.0</ele><time>2026-05-02T14:21:52.397Z</time></trkpt><trkpt lat="46.72214" lon="12.29613"><ele>1242.0</ele><time>2026-05-02T14:21:53.397Z</time></trkpt><trkpt lat="46.72203" lon="12.296325"><ele>1242.0</ele><time>2026-05-02T14:21:54.396Z</time></trkpt><trkpt lat="46.7219333" lon="12.2965383"><ele>1242.0</ele><time>2026-05-02T14:21:55.397Z</time></trkpt><trkpt lat="46.7218767" lon="12.2967733"><ele>1243.0</ele><time>2026-05-02T14:21:56.397Z</time></trkpt><trkpt lat="46.7218417" lon="12.2970433"><ele>1244.0</ele><time>2026-05-02T14:21:57.396Z</time></trkpt><trkpt lat="46.7218167" lon="12.2973383"><ele>1245.0</ele><time>2026-05-02T14:21:58.397Z</time></trkpt><trkpt lat="46.721795" lon="12.2976333"><ele>1245.0</ele><time>2026-05-02T14:21:59.397Z</time></trkpt><trkpt lat="46.7217667" lon="12.2979333"><ele>1245.0</ele><time>2026-05-02T14:22:00.397Z</time></trkpt><trkpt lat="46.721715" lon="12.2982183"><ele>1245.0</ele><time>2026-05-02T14:22:01.397Z</time></trkpt><trkpt lat="46.7216583" lon="12.2984883"><ele>1246.6666666666667</ele><time>2026-05-02T14:22:02.397Z</time></trkpt><trkpt lat="46.7216083" lon="12.298755"><ele>1248.3333333333335</ele><time>2026-05-02T14:22:03.396Z</time></trkpt><trkpt lat="46.7215717" lon="12.2989867"><ele>1250.0</ele><time>2026-05-02T14:22:04.397Z</time></trkpt><trkpt lat="46.7215267" lon="12.2992033"><ele>1250.25</ele><time>2026-05-02T14:22:05.397Z</time></trkpt><trkpt lat="46.721465" lon="12.2993833"><ele>1250.5</ele><time>2026-05-02T14:22:06.396Z</time></trkpt><trkpt lat="46.7213683" lon="12.29953"><ele>1250.75</ele><time>2026-05-02T14:22:07.397Z</time></trkpt><trkpt lat="46.7212383" lon="12.29964"><ele>1251.0</ele><time>2026-05-02T14:22:08.397Z</time></trkpt><trkpt lat="46.721065" lon="12.2997317"><ele>1247.0</ele><time>2026-05-02T14:22:09.397Z</time></trkpt><trkpt lat="46.7208883" lon="12.2998133"><ele>1243.0</ele><time>2026-05-02T14:22:10.396Z</time></trkpt><trkpt lat="46.7207067" lon="12.299895"><ele>1239.0</ele><time>2026-05-02T14:22:11.396Z</time></trkpt><trkpt lat="46.7205333" lon="12.2999817"><ele>1239.0</ele><time>2026-05-02T14:22:12.396Z</time></trkpt><trkpt lat="46.7203767" lon="12.300065"><ele>1239.0</ele><time>2026-05-02T14:22:13.397Z</time></trkpt><trkpt lat="46.720225" lon="12.3001417"><ele>1239.0</ele><time>2026-05-02T14:22:14.397Z</time></trkpt><trkpt lat="46.72008" lon="12.300245"><ele>1239.6666666666667</ele><time>2026-05-02T14:22:15.397Z</time></trkpt><trkpt lat="46.7199533" lon="12.3003667"><ele>1240.3333333333335</ele><time>2026-05-02T14:22:16.397Z</time></trkpt><trkpt lat="46.71985" lon="12.300525"><ele>1241.0</ele><time>2026-05-02T14:22:17.397Z</time></trkpt><trkpt lat="46.7197767" lon="12.3007217"><ele>1241.0</ele><time>2026-05-02T14:22:18.396Z</time></trkpt><trkpt lat="46.71972" lon="12.3009417"><ele>1241.0</ele><time>2026-05-02T14:22:19.397Z</time></trkpt><trkpt lat="46.719685" lon="12.3011783"><ele>1241.0</ele><time>2026-05-02T14:22:20.396Z</time></trkpt><trkpt lat="46.7196717" lon="12.3014167"><ele>1240.6666666666667</ele><time>2026-05-02T14:22:21.397Z</time></trkpt><trkpt lat="46.719675" lon="12.30168"><ele>1240.3333333333333</ele><time>2026-05-02T14:22:22.397Z</time></trkpt><trkpt lat="46.7196633" lon="12.301915"><ele>1240.0</ele><time>2026-05-02T14:22:23.396Z</time></trkpt><trkpt lat="46.719615" lon="12.3021483"><ele>1240.3333333333333</ele><time>2026-05-02T14:22:24.397Z</time></trkpt><trkpt lat="46.7195333" lon="12.30235"><ele>1240.6666666666667</ele><time>2026-05-02T14:22:25.396Z</time></trkpt><trkpt lat="46.719425" lon="12.3025283"><ele>1241.0</ele><time>2026-05-02T14:22:26.397Z</time></trkpt><trkpt lat="46.7192833" lon="12.3026867"><ele>1240.6666666666667</ele><time>2026-05-02T14:22:27.397Z</time></trkpt><trkpt lat="46.7191283" lon="12.3028433"><ele>1240.3333333333333</ele><time>2026-05-02T14:22:28.397Z</time></trkpt><trkpt lat="46.71897" lon="12.3030217"><ele>1240.0</ele><time>2026-05-02T14:22:29.397Z</time></trkpt><trkpt lat="46.7188117" lon="12.3032233"><ele>1240.0</ele><time>2026-05-02T14:22:30.397Z</time></trkpt><trkpt lat="46.71866" lon="12.3034333"><ele>1240.0</ele><time>2026-05-02T14:22:31.396Z</time></trkpt><trkpt lat="46.7185317" lon="12.3036683"><ele>1240.0</ele><time>2026-05-02T14:22:32.397Z</time></trkpt><trkpt lat="46.7184267" lon="12.3039133"><ele>1242.3333333333333</ele><time>2026-05-02T14:22:33.397Z</time></trkpt><trkpt lat="46.71833" lon="12.3041767"><ele>1244.6666666666667</ele><time>2026-05-02T14:22:34.397Z</time></trkpt><trkpt lat="46.7182617" lon="12.3044483"><ele>1247.0</ele><time>2026-05-02T14:22:35.396Z</time></trkpt><trkpt lat="46.718215" lon="12.3047233"><ele>1246.0</ele><time>2026-05-02T14:22:36.396Z</time></trkpt><trkpt lat="46.7181717" lon="12.3050117"><ele>1245.0</ele><time>2026-05-02T14:22:37.396Z</time></trkpt><trkpt lat="46.7181133" lon="12.305295"><ele>1244.0</ele><time>2026-05-02T14:22:38.397Z</time></trkpt><trkpt lat="46.718055" lon="12.3055667"><ele>1243.6666666666667</ele><time>2026-05-02T14:22:39.397Z</time></trkpt><trkpt lat="46.7179933" lon="12.3058317"><ele>1243.3333333333333</ele><time>2026-05-02T14:22:40.397Z</time></trkpt><trkpt lat="46.7179183" lon="12.30609"><ele>1243.0</ele><time>2026-05-02T14:22:41.396Z</time></trkpt><trkpt lat="46.7178267" lon="12.30634"><ele>1244.3333333333333</ele><time>2026-05-02T14:22:42.397Z</time></trkpt><trkpt lat="46.7177117" lon="12.30658"><ele>1245.6666666666667</ele><time>2026-05-02T14:22:43.397Z</time></trkpt><trkpt lat="46.7175733" lon="12.30681"><ele>1247.0</ele><time>2026-05-02T14:22:44.397Z</time></trkpt><trkpt lat="46.7174333" lon="12.3070483"><ele>1245.3333333333335</ele><time>2026-05-02T14:22:45.397Z</time></trkpt><trkpt lat="46.7172917" lon="12.3072917"><ele>1243.6666666666667</ele><time>2026-05-02T14:22:46.396Z</time></trkpt><trkpt lat="46.71715" lon="12.307545"><ele>1242.0</ele><time>2026-05-02T14:22:47.397Z</time></trkpt><trkpt lat="46.717005" lon="12.30782"><ele>1246.5</ele><time>2026-05-02T14:22:48.397Z</time></trkpt><trkpt lat="46.7168583" lon="12.3081"><ele>1251.0</ele><time>2026-05-02T14:22:49.397Z</time></trkpt><trkpt lat="46.7167217" lon="12.30839"><ele>1251.0</ele><time>2026-05-02T14:22:50.397Z</time></trkpt><trkpt lat="46.7165683" lon="12.3086767"><ele>1251.0</ele><time>2026-05-02T14:22:51.397Z</time></trkpt><trkpt lat="46.7164133" lon="12.3089467"><ele>1247.5</ele><time>2026-05-02T14:22:52.397Z</time></trkpt><trkpt lat="46.716255" lon="12.309205"><ele>1244.0</ele><time>2026-05-02T14:22:53.397Z</time></trkpt><trkpt lat="46.7161017" lon="12.3094633"><ele>1248.0</ele><time>2026-05-02T14:22:54.396Z</time></trkpt><trkpt lat="46.7159567" lon="12.30969"><ele>1252.0</ele><time>2026-05-02T14:22:55.397Z</time></trkpt><trkpt lat="46.7158133" lon="12.3099183"><ele>1256.0</ele><time>2026-05-02T14:22:56.397Z</time></trkpt><trkpt lat="46.7156633" lon="12.310135"><ele>1256.0</ele><time>2026-05-02T14:22:57.397Z</time></trkpt><trkpt lat="46.7155" lon="12.3103317"><ele>1256.0</ele><time>2026-05-02T14:22:58.396Z</time></trkpt><trkpt lat="46.71533" lon="12.3105117"><ele>1256.0</ele><time>2026-05-02T14:22:59.397Z</time></trkpt><trkpt lat="46.715165" lon="12.3106733"><ele>1259.6666666666667</ele><time>2026-05-02T14:23:00.397Z</time></trkpt><trkpt lat="46.7150217" lon="12.310845"><ele>1263.3333333333333</ele><time>2026-05-02T14:23:01.397Z</time></trkpt><trkpt lat="46.714895" lon="12.3110233"><ele>1267.0</ele><time>2026-05-02T14:23:02.397Z</time></trkpt><trkpt lat="46.7147867" lon="12.3112217"><ele>1264.6666666666665</ele><time>2026-05-02T14:23:03.397Z</time></trkpt><trkpt lat="46.7146817" lon="12.311445"><ele>1262.3333333333333</ele><time>2026-05-02T14:23:04.397Z</time></trkpt><trkpt lat="46.71459" lon="12.31167"><ele>1260.0</ele><time>2026-05-02T14:23:05.397Z</time></trkpt><trkpt lat="46.7145233" lon="12.3119133"><ele>1260.0</ele><time>2026-05-02T14:23:06.396Z</time></trkpt><trkpt lat="46.71448" lon="12.3121717"><ele>1260.0</ele><time>2026-05-02T14:23:07.396Z</time></trkpt><trkpt lat="46.7144383" lon="12.3124267"><ele>1260.0</ele><time>2026-05-02T14:23:08.397Z</time></trkpt><trkpt lat="46.7143817" lon="12.312685"><ele>1262.3333333333333</ele><time>2026-05-02T14:23:09.396Z</time></trkpt><trkpt lat="46.7143083" lon="12.31294"><ele>1264.6666666666665</ele><time>2026-05-02T14:23:10.396Z</time></trkpt><trkpt lat="46.7142133" lon="12.313195"><ele>1267.0</ele><time>2026-05-02T14:23:11.397Z</time></trkpt><trkpt lat="46.714105" lon="12.3134417"><ele>1267.0</ele><time>2026-05-02T14:23:12.397Z</time></trkpt><trkpt lat="46.713995" lon="12.3136833"><ele>1267.0</ele><time>2026-05-02T14:23:13.397Z</time></trkpt><trkpt lat="46.7139" lon="12.3139317"><ele>1267.0</ele><time>2026-05-02T14:23:14.397Z</time></trkpt><trkpt lat="46.7138017" lon="12.3141967"><ele>1266.6666666666665</ele><time>2026-05-02T14:23:15.397Z</time></trkpt><trkpt lat="46.71371" lon="12.3144767"><ele>1266.3333333333333</ele><time>2026-05-02T14:23:16.397Z</time></trkpt><trkpt lat="46.7136233" lon="12.3147583"><ele>1266.0</ele><time>2026-05-02T14:23:17.396Z</time></trkpt><trkpt lat="46.7135217" lon="12.3150433"><ele>1266.0</ele><time>2026-05-02T14:23:18.397Z</time></trkpt><trkpt lat="46.71341" lon="12.3153133"><ele>1266.0</ele><time>2026-05-02T14:23:19.397Z</time></trkpt><trkpt lat="46.7133017" lon="12.31557"><ele>1266.0</ele><time>2026-05-02T14:23:20.396Z</time></trkpt><trkpt lat="46.7131933" lon="12.31581"><ele>1265.0</ele><time>2026-05-02T14:23:21.397Z</time></trkpt><trkpt lat="46.7130833" lon="12.3160467"><ele>1264.0</ele><time>2026-05-02T14:23:22.397Z</time></trkpt><trkpt lat="46.712985" lon="12.3162667"><ele>1263.0</ele><time>2026-05-02T14:23:23.397Z</time></trkpt><trkpt lat="46.7129033" lon="12.3164933"><ele>1262.0</ele><time>2026-05-02T14:23:24.397Z</time></trkpt><trkpt lat="46.7128467" lon="12.3167267"><ele>1261.0</ele><time>2026-05-02T14:23:25.397Z</time></trkpt><trkpt lat="46.7127933" lon="12.3169733"><ele>1260.0</ele><time>2026-05-02T14:23:26.396Z</time></trkpt><trkpt lat="46.71276" lon="12.3172317"><ele>1261.0</ele><time>2026-05-02T14:23:27.396Z</time></trkpt><trkpt lat="46.7127417" lon="12.317505"><ele>1262.0</ele><time>2026-05-02T14:23:28.397Z</time></trkpt><trkpt lat="46.71275" lon="12.3177933"><ele>1263.0</ele><time>2026-05-02T14:23:29.397Z</time></trkpt><trkpt lat="46.7127817" lon="12.318095"><ele>1263.6666666666667</ele><time>2026-05-02T14:23:30.396Z</time></trkpt><trkpt lat="46.7128183" lon="12.31839"><ele>1264.3333333333335</ele><time>2026-05-02T14:23:31.397Z</time></trkpt><trkpt lat="46.7128417" lon="12.3186783"><ele>1265.0</ele><time>2026-05-02T14:23:32.397Z</time></trkpt><trkpt lat="46.712855" lon="12.3189633"><ele>1265.0</ele><time>2026-05-02T14:23:33.396Z</time></trkpt><trkpt lat="46.712845" lon="12.3192433"><ele>1265.0</ele><time>2026-05-02T14:23:34.396Z</time></trkpt><trkpt lat="46.7128167" lon="12.3195217"><ele>1265.0</ele><time>2026-05-02T14:23:35.397Z</time></trkpt><trkpt lat="46.7127783" lon="12.3198083"><ele>1266.3333333333335</ele><time>2026-05-02T14:23:36.397Z</time></trkpt><trkpt lat="46.712725" lon="12.320085"><ele>1267.6666666666667</ele><time>2026-05-02T14:23:37.396Z</time></trkpt><trkpt lat="46.7126633" lon="12.32036"><ele>1269.0</ele><time>2026-05-02T14:23:38.397Z</time></trkpt><trkpt lat="46.7125883" lon="12.32063"><ele>1269.0</ele><time>2026-05-02T14:23:39.397Z</time></trkpt><trkpt lat="46.71251" lon="12.320915"><ele>1269.0</ele><time>2026-05-02T14:23:40.397Z</time></trkpt><trkpt lat="46.7124283" lon="12.321205"><ele>1269.0</ele><time>2026-05-02T14:23:41.396Z</time></trkpt><trkpt lat="46.7123467" lon="12.3214867"><ele>1267.0</ele><time>2026-05-02T14:23:42.397Z</time></trkpt><trkpt lat="46.7122767" lon="12.3217817"><ele>1265.0</ele><time>2026-05-02T14:23:43.396Z</time></trkpt><trkpt lat="46.7122283" lon="12.3220767"><ele>1263.0</ele><time>2026-05-02T14:23:44.396Z</time></trkpt><trkpt lat="46.7121917" lon="12.3223667"><ele>1262.0</ele><time>2026-05-02T14:23:45.397Z</time></trkpt><trkpt lat="46.7121617" lon="12.3226617"><ele>1261.0</ele><time>2026-05-02T14:23:46.396Z</time></trkpt><trkpt lat="46.7121333" lon="12.32294"><ele>1260.0</ele><time>2026-05-02T14:23:47.396Z</time></trkpt><trkpt lat="46.71211" lon="12.3232217"><ele>1260.0</ele><time>2026-05-02T14:23:48.397Z</time></trkpt><trkpt lat="46.7120883" lon="12.3234883"><ele>1260.0</ele><time>2026-05-02T14:23:49.397Z</time></trkpt><trkpt lat="46.7120683" lon="12.32373"><ele>1260.0</ele><time>2026-05-02T14:23:50.396Z</time></trkpt><trkpt lat="46.7120383" lon="12.32396"><ele>1259.6666666666667</ele><time>2026-05-02T14:23:51.397Z</time></trkpt><trkpt lat="46.7119967" lon="12.324175"><ele>1259.3333333333335</ele><time>2026-05-02T14:23:52.397Z</time></trkpt><trkpt lat="46.7119433" lon="12.3243883"><ele>1259.0</ele><time>2026-05-02T14:23:53.397Z</time></trkpt><trkpt lat="46.71187" lon="12.32461"><ele>1262.0</ele><time>2026-05-02T14:23:54.397Z</time></trkpt><trkpt lat="46.7117933" lon="12.3248433"><ele>1265.0</ele><time>2026-05-02T14:23:55.397Z</time></trkpt><trkpt lat="46.7117117" lon="12.3250733"><ele>1268.0</ele><time>2026-05-02T14:23:56.397Z</time></trkpt><trkpt lat="46.7116317" lon="12.3253033"><ele>1268.0</ele><time>2026-05-02T14:23:57.397Z</time></trkpt><trkpt lat="46.71155" lon="12.3255317"><ele>1268.0</ele><time>2026-05-02T14:23:58.396Z</time></trkpt><trkpt lat="46.7114733" lon="12.3257617"><ele>1268.0</ele><time>2026-05-02T14:23:59.397Z</time></trkpt><trkpt lat="46.7114033" lon="12.3259967"><ele>1267.3333333333335</ele><time>2026-05-02T14:24:00.397Z</time></trkpt><trkpt lat="46.7113317" lon="12.3262417"><ele>1266.6666666666667</ele><time>2026-05-02T14:24:01.397Z</time></trkpt><trkpt lat="46.71126" lon="12.3264867"><ele>1266.0</ele><time>2026-05-02T14:24:02.397Z</time></trkpt><trkpt lat="46.71119" lon="12.3267317"><ele>1266.0</ele><time>2026-05-02T14:24:03.397Z</time></trkpt><trkpt lat="46.7111167" lon="12.3269767"><ele>1266.0</ele><time>2026-05-02T14:24:04.397Z</time></trkpt><trkpt lat="46.71105" lon="12.3272183"><ele>1266.0</ele><time>2026-05-02T14:24:05.397Z</time></trkpt><trkpt lat="46.7109817" lon="12.3274617"><ele>1265.6666666666667</ele><time>2026-05-02T14:24:06.397Z</time></trkpt><trkpt lat="46.71091" lon="12.327715"><ele>1265.3333333333335</ele><time>2026-05-02T14:24:07.397Z</time></trkpt><trkpt lat="46.71083" lon="12.3279733"><ele>1265.0</ele><time>2026-05-02T14:24:08.397Z</time></trkpt><trkpt lat="46.7107483" lon="12.3282317"><ele>1265.0</ele><time>2026-05-02T14:24:09.397Z</time></trkpt><trkpt lat="46.7106717" lon="12.3285"><ele>1265.0</ele><time>2026-05-02T14:24:10.397Z</time></trkpt><trkpt lat="46.71061" lon="12.3287633"><ele>1265.0</ele><time>2026-05-02T14:24:11.397Z</time></trkpt><trkpt lat="46.710555" lon="12.3290317"><ele>1265.0</ele><time>2026-05-02T14:24:12.397Z</time></trkpt><trkpt lat="46.710505" lon="12.3293033"><ele>1265.0</ele><time>2026-05-02T14:24:13.397Z</time></trkpt><trkpt lat="46.71047" lon="12.3295867"><ele>1265.0</ele><time>2026-05-02T14:24:14.397Z</time></trkpt><trkpt lat="46.71045" lon="12.3298683"><ele>1267.0</ele><time>2026-05-02T14:24:15.397Z</time></trkpt><trkpt lat="46.71044" lon="12.3301533"><ele>1269.0</ele><time>2026-05-02T14:24:16.397Z</time></trkpt><trkpt lat="46.71043" lon="12.33043"><ele>1271.0</ele><time>2026-05-02T14:24:17.397Z</time></trkpt><trkpt lat="46.7104333" lon="12.3307017"><ele>1272.0</ele><time>2026-05-02T14:24:18.397Z</time></trkpt><trkpt lat="46.7104167" lon="12.33099"><ele>1273.0</ele><time>2026-05-02T14:24:19.397Z</time></trkpt><trkpt lat="46.7103883" lon="12.331285"><ele>1274.0</ele><time>2026-05-02T14:24:20.397Z</time></trkpt><trkpt lat="46.7103383" lon="12.331565"><ele>1273.0</ele><time>2026-05-02T14:24:21.397Z</time></trkpt><trkpt lat="46.71027" lon="12.3318267"><ele>1272.0</ele><time>2026-05-02T14:24:22.397Z</time></trkpt><trkpt lat="46.7101883" lon="12.3320667"><ele>1271.0</ele><time>2026-05-02T14:24:23.396Z</time></trkpt><trkpt lat="46.71009" lon="12.3322867"><ele>1271.0</ele><time>2026-05-02T14:24:24.396Z</time></trkpt><trkpt lat="46.70998" lon="12.3324917"><ele>1271.0</ele><time>2026-05-02T14:24:25.396Z</time></trkpt><trkpt lat="46.7098717" lon="12.3326717"><ele>1271.0</ele><time>2026-05-02T14:24:26.397Z</time></trkpt><trkpt lat="46.7097583" lon="12.3328483"><ele>1271.0</ele><time>2026-05-02T14:24:27.397Z</time></trkpt><trkpt lat="46.70965" lon="12.333025"><ele>1271.0</ele><time>2026-05-02T14:24:28.397Z</time></trkpt><trkpt lat="46.709545" lon="12.3332067"><ele>1271.0</ele><time>2026-05-02T14:24:29.397Z</time></trkpt><trkpt lat="46.70946" lon="12.3334"><ele>1271.0</ele><time>2026-05-02T14:24:30.397Z</time></trkpt><trkpt lat="46.7093883" lon="12.3336"><ele>1271.0</ele><time>2026-05-02T14:24:31.397Z</time></trkpt><trkpt lat="46.7093183" lon="12.3338017"><ele>1271.0</ele><time>2026-05-02T14:24:32.396Z</time></trkpt><trkpt lat="46.7092533" lon="12.3340067"><ele>1271.0</ele><time>2026-05-02T14:24:33.397Z</time></trkpt><trkpt lat="46.7091883" lon="12.3342067"><ele>1271.0</ele><time>2026-05-02T14:24:34.396Z</time></trkpt><trkpt lat="46.709125" lon="12.3344"><ele>1271.0</ele><time>2026-05-02T14:24:35.397Z</time></trkpt><trkpt lat="46.709065" lon="12.3345767"><ele>1271.0</ele><time>2026-05-02T14:24:36.397Z</time></trkpt><trkpt lat="46.7089883" lon="12.3347467"><ele>1272.25</ele><time>2026-05-02T14:24:37.397Z</time></trkpt><trkpt lat="46.7089" lon="12.3349017"><ele>1273.5</ele><time>2026-05-02T14:24:38.397Z</time></trkpt><trkpt lat="46.70881" lon="12.3350383"><ele>1274.75</ele><time>2026-05-02T14:24:39.396Z</time></trkpt><trkpt lat="46.708725" lon="12.335165"><ele>1276.0</ele><time>2026-05-02T14:24:40.397Z</time></trkpt><trkpt lat="46.7086467" lon="12.3352867"><ele>1275.2</ele><time>2026-05-02T14:24:41.397Z</time></trkpt><trkpt lat="46.70857" lon="12.335405"><ele>1274.3999999999999</ele><time>2026-05-02T14:24:42.396Z</time></trkpt><trkpt lat="46.708495" lon="12.3355183"><ele>1273.6</ele><time>2026-05-02T14:24:43.397Z</time></trkpt><trkpt lat="46.7084233" lon="12.3356433"><ele>1272.8</ele><time>2026-05-02T14:24:44.397Z</time></trkpt><trkpt lat="46.7083517" lon="12.3357617"><ele>1272.0</ele><time>2026-05-02T14:24:45.396Z</time></trkpt><trkpt lat="46.7082833" lon="12.3358867"><ele>1272.0</ele><time>2026-05-02T14:24:46.397Z</time></trkpt><trkpt lat="46.7082233" lon="12.33603"><ele>1272.0</ele><time>2026-05-02T14:24:47.397Z</time></trkpt><trkpt lat="46.70816" lon="12.33618"><ele>1272.0</ele><time>2026-05-02T14:24:48.397Z</time></trkpt><trkpt lat="46.7081" lon="12.3363217"><ele>1272.0</ele><time>2026-05-02T14:24:49.397Z</time></trkpt><trkpt lat="46.708045" lon="12.3364617"><ele>1274.0</ele><time>2026-05-02T14:24:50.397Z</time></trkpt><trkpt lat="46.70799" lon="12.3366067"><ele>1276.0</ele><time>2026-05-02T14:24:51.397Z</time></trkpt><trkpt lat="46.70793" lon="12.3367533"><ele>1278.0</ele><time>2026-05-02T14:24:52.397Z</time></trkpt><trkpt lat="46.7078683" lon="12.3369017"><ele>1280.0</ele><time>2026-05-02T14:24:53.397Z</time></trkpt><trkpt lat="46.7078" lon="12.3370417"><ele>1279.75</ele><time>2026-05-02T14:24:54.397Z</time></trkpt><trkpt lat="46.70772" lon="12.3371867"><ele>1279.5</ele><time>2026-05-02T14:24:55.396Z</time></trkpt><trkpt lat="46.7076333" lon="12.33734"><ele>1279.25</ele><time>2026-05-02T14:24:56.397Z</time></trkpt><trkpt lat="46.7075383" lon="12.3375"><ele>1279.0</ele><time>2026-05-02T14:24:57.396Z</time></trkpt><trkpt lat="46.7074467" lon="12.3376617"><ele>1279.0</ele><time>2026-05-02T14:24:58.397Z</time></trkpt><trkpt lat="46.7073617" lon="12.337835"><ele>1279.0</ele><time>2026-05-02T14:24:59.397Z</time></trkpt><trkpt lat="46.7072833" lon="12.338"><ele>1279.0</ele><time>2026-05-02T14:25:00.397Z</time></trkpt><trkpt lat="46.7072117" lon="12.33817"><ele>1279.0</ele><time>2026-05-02T14:25:01.397Z</time></trkpt><trkpt lat="46.7071383" lon="12.3383317"><ele>1279.5</ele><time>2026-05-02T14:25:02.397Z</time></trkpt><trkpt lat="46.7070733" lon="12.3384883"><ele>1280.0</ele><time>2026-05-02T14:25:03.396Z</time></trkpt><trkpt lat="46.7070183" lon="12.338635"><ele>1280.5</ele><time>2026-05-02T14:25:04.397Z</time></trkpt><trkpt lat="46.706955" lon="12.3387867"><ele>1281.0</ele><time>2026-05-02T14:25:05.397Z</time></trkpt><trkpt lat="46.706895" lon="12.3389333"><ele>1281.0</ele><time>2026-05-02T14:25:06.397Z</time></trkpt><trkpt lat="46.7068383" lon="12.3390733"><ele>1281.0</ele><time>2026-05-02T14:25:07.396Z</time></trkpt><trkpt lat="46.7067867" lon="12.3392017"><ele>1281.0</ele><time>2026-05-02T14:25:08.396Z</time></trkpt><trkpt lat="46.7067317" lon="12.339345"><ele>1281.0</ele><time>2026-05-02T14:25:09.396Z</time></trkpt><trkpt lat="46.7066717" lon="12.3395"><ele>1281.0</ele><time>2026-05-02T14:25:10.397Z</time></trkpt><trkpt lat="46.7066033" lon="12.339675"><ele>1283.3333333333333</ele><time>2026-05-02T14:25:11.397Z</time></trkpt><trkpt lat="46.7065367" lon="12.339875"><ele>1285.6666666666665</ele><time>2026-05-02T14:25:12.397Z</time></trkpt><trkpt lat="46.706475" lon="12.34007"><ele>1288.0</ele><time>2026-05-02T14:25:13.397Z</time></trkpt><trkpt lat="46.7064167" lon="12.3402817"><ele>1288.0</ele><time>2026-05-02T14:25:14.397Z</time></trkpt><trkpt lat="46.70635" lon="12.3404933"><ele>1288.0</ele><time>2026-05-02T14:25:15.397Z</time></trkpt><trkpt lat="46.706275" lon="12.340685"><ele>1288.0</ele><time>2026-05-02T14:25:16.397Z</time></trkpt><trkpt lat="46.70621" lon="12.3408533"><ele>1288.0</ele><time>2026-05-02T14:25:17.397Z</time></trkpt><trkpt lat="46.7061433" lon="12.341005"><ele>1287.25</ele><time>2026-05-02T14:25:18.397Z</time></trkpt><trkpt lat="46.70608" lon="12.34116"><ele>1286.5</ele><time>2026-05-02T14:25:19.397Z</time></trkpt><trkpt lat="46.7060167" lon="12.341305"><ele>1285.75</ele><time>2026-05-02T14:25:20.397Z</time></trkpt><trkpt lat="46.705945" lon="12.3414417"><ele>1285.0</ele><time>2026-05-02T14:25:21.397Z</time></trkpt><trkpt lat="46.7058583" lon="12.3415733"><ele>1286.4</ele><time>2026-05-02T14:25:22.397Z</time></trkpt><trkpt lat="46.7057633" lon="12.341675"><ele>1287.8</ele><time>2026-05-02T14:25:23.397Z</time></trkpt><trkpt lat="46.70567" lon="12.34176"><ele>1289.1999999999998</ele><time>2026-05-02T14:25:24.397Z</time></trkpt><trkpt lat="46.7055833" lon="12.34183"><ele>1290.6</ele><time>2026-05-02T14:25:25.397Z</time></trkpt><trkpt lat="46.7055067" lon="12.341915"><ele>1292.0</ele><time>2026-05-02T14:25:26.397Z</time></trkpt><trkpt lat="46.70544" lon="12.3420183"><ele>1292.0</ele><time>2026-05-02T14:25:27.397Z</time></trkpt><trkpt lat="46.705385" lon="12.3421433"><ele>1292.0</ele><time>2026-05-02T14:25:28.397Z</time></trkpt><trkpt lat="46.705335" lon="12.3422933"><ele>1292.0</ele><time>2026-05-02T14:25:29.397Z</time></trkpt><trkpt lat="46.7053" lon="12.3424417"><ele>1292.0</ele><time>2026-05-02T14:25:30.397Z</time></trkpt><trkpt lat="46.705265" lon="12.342585"><ele>1292.0</ele><time>2026-05-02T14:25:31.397Z</time></trkpt><trkpt lat="46.7052417" lon="12.3427333"><ele>1292.1999999999998</ele><time>2026-05-02T14:25:32.396Z</time></trkpt><trkpt lat="46.7052283" lon="12.34288"><ele>1292.4</ele><time>2026-05-02T14:25:33.397Z</time></trkpt><trkpt lat="46.7052233" lon="12.3430367"><ele>1292.6</ele><time>2026-05-02T14:25:34.397Z</time></trkpt><trkpt lat="46.7052067" lon="12.3431883"><ele>1292.8000000000002</ele><time>2026-05-02T14:25:35.397Z</time></trkpt><trkpt lat="46.705185" lon="12.3433417"><ele>1293.0</ele><time>2026-05-02T14:25:36.397Z</time></trkpt><trkpt lat="46.7051583" lon="12.343485"><ele>1293.0</ele><time>2026-05-02T14:25:37.397Z</time></trkpt><trkpt lat="46.7051283" lon="12.343615"><ele>1293.0</ele><time>2026-05-02T14:25:38.396Z</time></trkpt><trkpt lat="46.7050883" lon="12.34373"><ele>1293.0</ele><time>2026-05-02T14:25:39.397Z</time></trkpt><trkpt lat="46.705045" lon="12.3438333"><ele>1293.0</ele><time>2026-05-02T14:25:40.397Z</time></trkpt><trkpt lat="46.7049967" lon="12.3439283"><ele>1293.0</ele><time>2026-05-02T14:25:41.396Z</time></trkpt><trkpt lat="46.7049433" lon="12.34403"><ele>1293.0</ele><time>2026-05-02T14:25:42.397Z</time></trkpt><trkpt lat="46.7048833" lon="12.34414"><ele>1293.6000000000001</ele><time>2026-05-02T14:25:43.397Z</time></trkpt><trkpt lat="46.7048217" lon="12.3442417"><ele>1294.2</ele><time>2026-05-02T14:25:44.397Z</time></trkpt><trkpt lat="46.70476" lon="12.3443483"><ele>1294.8</ele><time>2026-05-02T14:25:45.397Z</time></trkpt><trkpt lat="46.7046983" lon="12.3444533"><ele>1295.4</ele><time>2026-05-02T14:25:46.396Z</time></trkpt><trkpt lat="46.7046433" lon="12.344565"><ele>1296.0</ele><time>2026-05-02T14:25:47.397Z</time></trkpt><trkpt lat="46.7046033" lon="12.3446817"><ele>1295.5</ele><time>2026-05-02T14:25:48.397Z</time></trkpt><trkpt lat="46.7045683" lon="12.3448083"><ele>1295.0</ele><time>2026-05-02T14:25:49.397Z</time></trkpt><trkpt lat="46.7045333" lon="12.3449183"><ele>1294.5</ele><time>2026-05-02T14:25:50.397Z</time></trkpt><trkpt lat="46.7045017" lon="12.3450233"><ele>1294.0</ele><time>2026-05-02T14:25:51.397Z</time></trkpt><trkpt lat="46.7044683" lon="12.345145"><ele>1293.5</ele><time>2026-05-02T14:25:52.397Z</time></trkpt><trkpt lat="46.7044283" lon="12.345275"><ele>1293.0</ele><time>2026-05-02T14:25:53.396Z</time></trkpt><trkpt lat="46.7043883" lon="12.3454067"><ele>1293.0</ele><time>2026-05-02T14:25:54.397Z</time></trkpt><trkpt lat="46.7043483" lon="12.3455383"><ele>1293.0</ele><time>2026-05-02T14:25:55.396Z</time></trkpt><trkpt lat="46.7043083" lon="12.3456767"><ele>1293.0</ele><time>2026-05-02T14:25:56.397Z</time></trkpt><trkpt lat="46.7042667" lon="12.3458083"><ele>1293.0</ele><time>2026-05-02T14:25:57.397Z</time></trkpt><trkpt lat="46.7042133" lon="12.3459383"><ele>1293.0</ele><time>2026-05-02T14:25:58.396Z</time></trkpt><trkpt lat="46.704165" lon="12.346065"><ele>1293.4</ele><time>2026-05-02T14:25:59.397Z</time></trkpt><trkpt lat="46.70411" lon="12.3461917"><ele>1293.8000000000002</ele><time>2026-05-02T14:26:00.397Z</time></trkpt><trkpt lat="46.704055" lon="12.3463283"><ele>1294.2</ele><time>2026-05-02T14:26:01.396Z</time></trkpt><trkpt lat="46.70401" lon="12.3464617"><ele>1294.6</ele><time>2026-05-02T14:26:02.397Z</time></trkpt><trkpt lat="46.7039633" lon="12.3466083"><ele>1295.0</ele><time>2026-05-02T14:26:03.396Z</time></trkpt><trkpt lat="46.7039133" lon="12.3467517"><ele>1296.75</ele><time>2026-05-02T14:26:04.397Z</time></trkpt><trkpt lat="46.7038667" lon="12.3468967"><ele>1298.5</ele><time>2026-05-02T14:26:05.397Z</time></trkpt><trkpt lat="46.7038133" lon="12.3470433"><ele>1300.25</ele><time>2026-05-02T14:26:06.396Z</time></trkpt><trkpt lat="46.7037617" lon="12.3471933"><ele>1302.0</ele><time>2026-05-02T14:26:07.397Z</time></trkpt><trkpt lat="46.70371" lon="12.3473433"><ele>1301.0</ele><time>2026-05-02T14:26:08.397Z</time></trkpt><trkpt lat="46.7036567" lon="12.3474817"><ele>1300.0</ele><time>2026-05-02T14:26:09.397Z</time></trkpt><trkpt lat="46.7036017" lon="12.347605"><ele>1299.0</ele><time>2026-05-02T14:26:10.397Z</time></trkpt><trkpt lat="46.7035383" lon="12.3477067"><ele>1298.0</ele><time>2026-05-02T14:26:11.397Z</time></trkpt><trkpt lat="46.703465" lon="12.3478083"><ele>1297.0</ele><time>2026-05-02T14:26:12.397Z</time></trkpt><trkpt lat="46.7033967" lon="12.3479083"><ele>1297.0</ele><time>2026-05-02T14:26:13.397Z</time></trkpt><trkpt lat="46.7033283" lon="12.3480233"><ele>1297.0</ele><time>2026-05-02T14:26:14.396Z</time></trkpt><trkpt lat="46.70326" lon="12.3481333"><ele>1297.0</ele><time>2026-05-02T14:26:15.397Z</time></trkpt><trkpt lat="46.703195" lon="12.3482383"><ele>1297.0</ele><time>2026-05-02T14:26:16.396Z</time></trkpt><trkpt lat="46.70313" lon="12.348345"><ele>1297.0</ele><time>2026-05-02T14:26:17.397Z</time></trkpt><trkpt lat="46.70307" lon="12.3484517"><ele>1298.3999999999999</ele><time>2026-05-02T14:26:18.396Z</time></trkpt><trkpt lat="46.703015" lon="12.348555"><ele>1299.8</ele><time>2026-05-02T14:26:19.397Z</time></trkpt><trkpt lat="46.702955" lon="12.348665"><ele>1301.2</ele><time>2026-05-02T14:26:20.397Z</time></trkpt><trkpt lat="46.7028983" lon="12.3487717"><ele>1302.6</ele><time>2026-05-02T14:26:21.397Z</time></trkpt><trkpt lat="46.7028317" lon="12.3488833"><ele>1304.0</ele><time>2026-05-02T14:26:22.397Z</time></trkpt><trkpt lat="46.702775" lon="12.3489917"><ele>1303.4</ele><time>2026-05-02T14:26:23.397Z</time></trkpt><trkpt lat="46.7027133" lon="12.3490983"><ele>1302.8000000000002</ele><time>2026-05-02T14:26:24.397Z</time></trkpt><trkpt lat="46.7026517" lon="12.3491933"><ele>1302.1999999999998</ele><time>2026-05-02T14:26:25.397Z</time></trkpt><trkpt lat="46.7025917" lon="12.3492833"><ele>1301.6</ele><time>2026-05-02T14:26:26.397Z</time></trkpt><trkpt lat="46.70253" lon="12.3493717"><ele>1301.0</ele><time>2026-05-02T14:26:27.396Z</time></trkpt><trkpt lat="46.7024617" lon="12.3494683"><ele>1301.0</ele><time>2026-05-02T14:26:28.396Z</time></trkpt><trkpt lat="46.7023967" lon="12.3495617"><ele>1301.0</ele><time>2026-05-02T14:26:29.397Z</time></trkpt><trkpt lat="46.7023267" lon="12.3496517"><ele>1301.0</ele><time>2026-05-02T14:26:30.397Z</time></trkpt><trkpt lat="46.7022567" lon="12.3497383"><ele>1301.0</ele><time>2026-05-02T14:26:31.396Z</time></trkpt><trkpt lat="46.70219" lon="12.34983"><ele>1301.0</ele><time>2026-05-02T14:26:32.396Z</time></trkpt><trkpt lat="46.7021333" lon="12.3499267"><ele>1301.8</ele><time>2026-05-02T14:26:33.397Z</time></trkpt><trkpt lat="46.7020933" lon="12.3500133"><ele>1302.6</ele><time>2026-05-02T14:26:34.396Z</time></trkpt><trkpt lat="46.7020333" lon="12.35012"><ele>1303.4</ele><time>2026-05-02T14:26:36.397Z</time></trkpt><trkpt lat="46.7019817" lon="12.350195"><ele>1304.2</ele><time>2026-05-02T14:26:38.397Z</time></trkpt><trkpt lat="46.7018983" lon="12.350285"><ele>1305.0</ele><time>2026-05-02T14:26:40.397Z</time></trkpt><trkpt lat="46.70178" lon="12.350395"><ele>1305.0</ele><time>2026-05-02T14:26:42.396Z</time></trkpt><trkpt lat="46.7016983" lon="12.3504467"><ele>1305.0</ele><time>2026-05-02T14:26:43.396Z</time></trkpt><trkpt lat="46.70162" lon="12.3505017"><ele>1305.0</ele><time>2026-05-02T14:26:44.397Z</time></trkpt><trkpt lat="46.7015333" lon="12.3505633"><ele>1305.0</ele><time>2026-05-02T14:26:45.396Z</time></trkpt><trkpt lat="46.7014433" lon="12.3506183"><ele>1305.0</ele><time>2026-05-02T14:26:46.397Z</time></trkpt><trkpt lat="46.70135" lon="12.3506867"><ele>1305.0</ele><time>2026-05-02T14:26:47.397Z</time></trkpt><trkpt lat="46.7012617" lon="12.3507467"><ele>1305.0</ele><time>2026-05-02T14:26:48.397Z</time></trkpt><trkpt lat="46.7011683" lon="12.350825"><ele>1305.0</ele><time>2026-05-02T14:26:49.397Z</time></trkpt><trkpt lat="46.7010783" lon="12.3509033"><ele>1305.0</ele><time>2026-05-02T14:26:50.397Z</time></trkpt><trkpt lat="46.7009883" lon="12.3509683"><ele>1305.0</ele><time>2026-05-02T14:26:51.397Z</time></trkpt><trkpt lat="46.70091" lon="12.3510267"><ele>1305.0</ele><time>2026-05-02T14:26:52.397Z</time></trkpt><trkpt lat="46.7008233" lon="12.351105"><ele>1305.0</ele><time>2026-05-02T14:26:53.397Z</time></trkpt><trkpt lat="46.7007283" lon="12.3511967"><ele>1305.0</ele><time>2026-05-02T14:26:54.397Z</time></trkpt><trkpt lat="46.7006133" lon="12.3512817"><ele>1305.0</ele><time>2026-05-02T14:26:55.397Z</time></trkpt><trkpt lat="46.700495" lon="12.35137"><ele>1306.25</ele><time>2026-05-02T14:26:56.397Z</time></trkpt><trkpt lat="46.7003583" lon="12.3514333"><ele>1307.5</ele><time>2026-05-02T14:26:57.397Z</time></trkpt><trkpt lat="46.7002217" lon="12.351505"><ele>1308.75</ele><time>2026-05-02T14:26:58.397Z</time></trkpt><trkpt lat="46.700085" lon="12.3515817"><ele>1310.0</ele><time>2026-05-02T14:26:59.396Z</time></trkpt><trkpt lat="46.6999517" lon="12.351655"><ele>1310.0</ele><time>2026-05-02T14:27:00.396Z</time></trkpt><trkpt lat="46.6998283" lon="12.3517333"><ele>1310.0</ele><time>2026-05-02T14:27:01.396Z</time></trkpt><trkpt lat="46.69972" lon="12.35182"><ele>1310.0</ele><time>2026-05-02T14:27:02.396Z</time></trkpt><trkpt lat="46.6996267" lon="12.3519017"><ele>1310.0</ele><time>2026-05-02T14:27:03.397Z</time></trkpt><trkpt lat="46.6995383" lon="12.3519933"><ele>1310.0</ele><time>2026-05-02T14:27:04.397Z</time></trkpt><trkpt lat="46.6994633" lon="12.352105"><ele>1310.0</ele><time>2026-05-02T14:27:05.397Z</time></trkpt><trkpt lat="46.6993933" lon="12.352245"><ele>1310.0</ele><time>2026-05-02T14:27:06.396Z</time></trkpt><trkpt lat="46.6993267" lon="12.352385"><ele>1310.0</ele><time>2026-05-02T14:27:07.396Z</time></trkpt><trkpt lat="46.6992667" lon="12.35253"><ele>1311.0</ele><time>2026-05-02T14:27:08.397Z</time></trkpt><trkpt lat="46.6992117" lon="12.3526833"><ele>1312.0</ele><time>2026-05-02T14:27:09.397Z</time></trkpt><trkpt lat="46.6991633" lon="12.35283"><ele>1313.0</ele><time>2026-05-02T14:27:10.397Z</time></trkpt><trkpt lat="46.6991133" lon="12.3529783"><ele>1314.0</ele><time>2026-05-02T14:27:11.397Z</time></trkpt><trkpt lat="46.6990633" lon="12.353125"><ele>1314.4</ele><time>2026-05-02T14:27:12.397Z</time></trkpt><trkpt lat="46.69901" lon="12.3532717"><ele>1314.8000000000002</ele><time>2026-05-02T14:27:13.397Z</time></trkpt><trkpt lat="46.6989567" lon="12.353415"><ele>1315.1999999999998</ele><time>2026-05-02T14:27:14.396Z</time></trkpt><trkpt lat="46.6989" lon="12.35356"><ele>1315.6</ele><time>2026-05-02T14:27:15.397Z</time></trkpt><trkpt lat="46.6988433" lon="12.35369"><ele>1316.0</ele><time>2026-05-02T14:27:16.397Z</time></trkpt><trkpt lat="46.6987867" lon="12.353825"><ele>1315.5</ele><time>2026-05-02T14:27:17.397Z</time></trkpt><trkpt lat="46.6987183" lon="12.3539633"><ele>1315.0</ele><time>2026-05-02T14:27:18.397Z</time></trkpt><trkpt lat="46.6986483" lon="12.35411"><ele>1314.5</ele><time>2026-05-02T14:27:19.397Z</time></trkpt><trkpt lat="46.698585" lon="12.35427"><ele>1314.0</ele><time>2026-05-02T14:27:20.397Z</time></trkpt><trkpt lat="46.6985133" lon="12.35441"><ele>1314.0</ele><time>2026-05-02T14:27:21.397Z</time></trkpt><trkpt lat="46.6984333" lon="12.3545083"><ele>1314.0</ele><time>2026-05-02T14:27:22.397Z</time></trkpt><trkpt lat="46.6983233" lon="12.3545983"><ele>1314.0</ele><time>2026-05-02T14:27:23.397Z</time></trkpt><trkpt lat="46.698205" lon="12.354665"><ele>1314.0</ele><time>2026-05-02T14:27:24.397Z</time></trkpt><trkpt lat="46.69809" lon="12.35473"><ele>1314.5</ele><time>2026-05-02T14:27:25.397Z</time></trkpt><trkpt lat="46.6979767" lon="12.3547983"><ele>1315.0</ele><time>2026-05-02T14:27:26.396Z</time></trkpt><trkpt lat="46.6978667" lon="12.3548883"><ele>1315.5</ele><time>2026-05-02T14:27:27.397Z</time></trkpt><trkpt lat="46.6977617" lon="12.355"><ele>1316.0</ele><time>2026-05-02T14:27:28.397Z</time></trkpt><trkpt lat="46.6976617" lon="12.3551083"><ele>1315.0</ele><time>2026-05-02T14:27:29.397Z</time></trkpt><trkpt lat="46.6975633" lon="12.3552167"><ele>1314.0</ele><time>2026-05-02T14:27:30.397Z</time></trkpt><trkpt lat="46.6974683" lon="12.3553183"><ele>1313.0</ele><time>2026-05-02T14:27:31.397Z</time></trkpt><trkpt lat="46.69737" lon="12.3554267"><ele>1312.0</ele><time>2026-05-02T14:27:32.397Z</time></trkpt><trkpt lat="46.6972717" lon="12.355535"><ele>1312.25</ele><time>2026-05-02T14:27:33.397Z</time></trkpt><trkpt lat="46.6971733" lon="12.3556433"><ele>1312.5</ele><time>2026-05-02T14:27:34.397Z</time></trkpt><trkpt lat="46.6970683" lon="12.3557583"><ele>1312.75</ele><time>2026-05-02T14:27:35.397Z</time></trkpt><trkpt lat="46.6969617" lon="12.3558767"><ele>1313.0</ele><time>2026-05-02T14:27:36.396Z</time></trkpt><trkpt lat="46.6968567" lon="12.35601"><ele>1313.0</ele><time>2026-05-02T14:27:37.397Z</time></trkpt><trkpt lat="46.696755" lon="12.35615"><ele>1313.0</ele><time>2026-05-02T14:27:38.396Z</time></trkpt><trkpt lat="46.6966667" lon="12.3563067"><ele>1313.0</ele><time>2026-05-02T14:27:39.397Z</time></trkpt><trkpt lat="46.69659" lon="12.3564767"><ele>1313.0</ele><time>2026-05-02T14:27:40.397Z</time></trkpt><trkpt lat="46.6965183" lon="12.35664"><ele>1313.5</ele><time>2026-05-02T14:27:41.397Z</time></trkpt><trkpt lat="46.6964417" lon="12.35681"><ele>1314.0</ele><time>2026-05-02T14:27:42.397Z</time></trkpt><trkpt lat="46.6963683" lon="12.3569767"><ele>1314.5</ele><time>2026-05-02T14:27:43.397Z</time></trkpt><trkpt lat="46.6962933" lon="12.357135"><ele>1315.0</ele><time>2026-05-02T14:27:44.396Z</time></trkpt><trkpt lat="46.69623" lon="12.3572967"><ele>1315.25</ele><time>2026-05-02T14:27:45.397Z</time></trkpt><trkpt lat="46.69617" lon="12.3574483"><ele>1315.5</ele><time>2026-05-02T14:27:46.396Z</time></trkpt><trkpt lat="46.6961083" lon="12.3576"><ele>1315.75</ele><time>2026-05-02T14:27:47.397Z</time></trkpt><trkpt lat="46.6960567" lon="12.3577583"><ele>1316.0</ele><time>2026-05-02T14:27:48.397Z</time></trkpt><trkpt lat="46.6960117" lon="12.3579233"><ele>1316.25</ele><time>2026-05-02T14:27:49.397Z</time></trkpt><trkpt lat="46.6959683" lon="12.3581067"><ele>1316.5</ele><time>2026-05-02T14:27:50.396Z</time></trkpt><trkpt lat="46.695925" lon="12.3582917"><ele>1316.75</ele><time>2026-05-02T14:27:51.397Z</time></trkpt><trkpt lat="46.6958617" lon="12.35848"><ele>1317.0</ele><time>2026-05-02T14:27:52.396Z</time></trkpt><trkpt lat="46.6957933" lon="12.3586633"><ele>1317.0</ele><time>2026-05-02T14:27:53.397Z</time></trkpt><trkpt lat="46.6957117" lon="12.3588317"><ele>1317.0</ele><time>2026-05-02T14:27:54.397Z</time></trkpt><trkpt lat="46.6956133" lon="12.3589933"><ele>1317.0</ele><time>2026-05-02T14:27:55.396Z</time></trkpt><trkpt lat="46.6955067" lon="12.35913"><ele>1317.0</ele><time>2026-05-02T14:27:56.397Z</time></trkpt><trkpt lat="46.695395" lon="12.3592533"><ele>1317.0</ele><time>2026-05-02T14:27:57.397Z</time></trkpt><trkpt lat="46.69528" lon="12.3593667"><ele>1317.0</ele><time>2026-05-02T14:27:58.397Z</time></trkpt><trkpt lat="46.6951667" lon="12.3594717"><ele>1317.0</ele><time>2026-05-02T14:27:59.397Z</time></trkpt><trkpt lat="46.695055" lon="12.359595"><ele>1317.0</ele><time>2026-05-02T14:28:00.395Z</time></trkpt><trkpt lat="46.6949767" lon="12.359735"><ele>1317.75</ele><time>2026-05-02T14:28:01.396Z</time></trkpt><trkpt lat="46.6949017" lon="12.359895"><ele>1318.5</ele><time>2026-05-02T14:28:02.396Z</time></trkpt><trkpt lat="46.6948283" lon="12.3600533"><ele>1319.25</ele><time>2026-05-02T14:28:03.396Z</time></trkpt><trkpt lat="46.6947617" lon="12.3602117"><ele>1320.0</ele><time>2026-05-02T14:28:04.395Z</time></trkpt><trkpt lat="46.6946933" lon="12.360375"><ele>1320.5</ele><time>2026-05-02T14:28:05.396Z</time></trkpt><trkpt lat="46.694625" lon="12.360545"><ele>1321.0</ele><time>2026-05-02T14:28:06.396Z</time></trkpt><trkpt lat="46.6945583" lon="12.3607133"><ele>1321.5</ele><time>2026-05-02T14:28:07.396Z</time></trkpt><trkpt lat="46.694485" lon="12.3608783"><ele>1322.0</ele><time>2026-05-02T14:28:08.395Z</time></trkpt><trkpt lat="46.6943933" lon="12.36104"><ele>1324.0</ele><time>2026-05-02T14:28:09.396Z</time></trkpt><trkpt lat="46.69428" lon="12.3611983"><ele>1326.0</ele><time>2026-05-02T14:28:10.396Z</time></trkpt><trkpt lat="46.6941533" lon="12.3613417"><ele>1328.0</ele><time>2026-05-02T14:28:11.396Z</time></trkpt><trkpt lat="46.6940167" lon="12.3614717"><ele>1329.3333333333335</ele><time>2026-05-02T14:28:12.396Z</time></trkpt><trkpt lat="46.6938783" lon="12.361595"><ele>1330.6666666666667</ele><time>2026-05-02T14:28:13.396Z</time></trkpt><trkpt lat="46.693745" lon="12.36173"><ele>1332.0</ele><time>2026-05-02T14:28:14.396Z</time></trkpt><trkpt lat="46.6936117" lon="12.3618683"><ele>1331.5</ele><time>2026-05-02T14:28:15.395Z</time></trkpt><trkpt lat="46.6934883" lon="12.36201"><ele>1331.0</ele><time>2026-05-02T14:28:16.395Z</time></trkpt><trkpt lat="46.69337" lon="12.3621633"><ele>1330.5</ele><time>2026-05-02T14:28:17.396Z</time></trkpt><trkpt lat="46.693275" lon="12.3622983"><ele>1330.0</ele><time>2026-05-02T14:28:18.396Z</time></trkpt><trkpt lat="46.69319" lon="12.36245"><ele>1330.0</ele><time>2026-05-02T14:28:19.396Z</time></trkpt><trkpt lat="46.6931133" lon="12.36262"><ele>1330.0</ele><time>2026-05-02T14:28:20.395Z</time></trkpt><trkpt lat="46.6930533" lon="12.3628167"><ele>1330.0</ele><time>2026-05-02T14:28:21.396Z</time></trkpt><trkpt lat="46.692995" lon="12.3630067"><ele>1330.0</ele><time>2026-05-02T14:28:22.396Z</time></trkpt><trkpt lat="46.6929517" lon="12.3631833"><ele>1331.75</ele><time>2026-05-02T14:28:23.396Z</time></trkpt><trkpt lat="46.6929167" lon="12.36335"><ele>1333.5</ele><time>2026-05-02T14:28:24.396Z</time></trkpt><trkpt lat="46.692885" lon="12.3635117"><ele>1335.25</ele><time>2026-05-02T14:28:25.396Z</time></trkpt><trkpt lat="46.692855" lon="12.36367"><ele>1337.0</ele><time>2026-05-02T14:28:26.396Z</time></trkpt><trkpt lat="46.6928183" lon="12.363825"><ele>1337.3999999999999</ele><time>2026-05-02T14:28:27.396Z</time></trkpt><trkpt lat="46.6927767" lon="12.3639767"><ele>1337.8</ele><time>2026-05-02T14:28:28.396Z</time></trkpt><trkpt lat="46.69272" lon="12.3641233"><ele>1338.2</ele><time>2026-05-02T14:28:29.396Z</time></trkpt><trkpt lat="46.6926517" lon="12.3642417"><ele>1338.6</ele><time>2026-05-02T14:28:30.396Z</time></trkpt><trkpt lat="46.6925783" lon="12.364335"><ele>1339.0</ele><time>2026-05-02T14:28:31.396Z</time></trkpt><trkpt lat="46.6925033" lon="12.3644033"><ele>1339.0</ele><time>2026-05-02T14:28:32.396Z</time></trkpt><trkpt lat="46.6924217" lon="12.364455"><ele>1339.0</ele><time>2026-05-02T14:28:33.396Z</time></trkpt><trkpt lat="46.6923417" lon="12.364505"><ele>1339.0</ele><time>2026-05-02T14:28:34.395Z</time></trkpt><trkpt lat="46.6922467" lon="12.36455"><ele>1339.0</ele><time>2026-05-02T14:28:35.396Z</time></trkpt><trkpt lat="46.6921567" lon="12.3646033"><ele>1339.0</ele><time>2026-05-02T14:28:36.396Z</time></trkpt><trkpt lat="46.69206" lon="12.3646583"><ele>1340.0</ele><time>2026-05-02T14:28:37.396Z</time></trkpt><trkpt lat="46.6919567" lon="12.3647133"><ele>1341.0</ele><time>2026-05-02T14:28:38.395Z</time></trkpt><trkpt lat="46.6918517" lon="12.3647667"><ele>1342.0</ele><time>2026-05-02T14:28:39.396Z</time></trkpt><trkpt lat="46.691755" lon="12.3648233"><ele>1343.0</ele><time>2026-05-02T14:28:40.396Z</time></trkpt><trkpt lat="46.69166" lon="12.3648917"><ele>1344.0</ele><time>2026-05-02T14:28:41.396Z</time></trkpt><trkpt lat="46.6915767" lon="12.364965"><ele>1344.0</ele><time>2026-05-02T14:28:42.395Z</time></trkpt><trkpt lat="46.6915117" lon="12.365065"><ele>1344.0</ele><time>2026-05-02T14:28:43.396Z</time></trkpt><trkpt lat="46.6914483" lon="12.3651517"><ele>1344.0</ele><time>2026-05-02T14:28:44.396Z</time></trkpt><trkpt lat="46.6913833" lon="12.3652333"><ele>1344.0</ele><time>2026-05-02T14:28:45.395Z</time></trkpt><trkpt lat="46.6913133" lon="12.3653017"><ele>1344.0</ele><time>2026-05-02T14:28:46.396Z</time></trkpt><trkpt lat="46.69124" lon="12.3653733"><ele>1344.0</ele><time>2026-05-02T14:28:47.396Z</time></trkpt><trkpt lat="46.6911633" lon="12.365455"><ele>1344.0</ele><time>2026-05-02T14:28:48.395Z</time></trkpt><trkpt lat="46.69109" lon="12.36553"><ele>1344.0</ele><time>2026-05-02T14:28:49.396Z</time></trkpt><trkpt lat="46.6910183" lon="12.3656017"><ele>1344.0</ele><time>2026-05-02T14:28:50.395Z</time></trkpt><trkpt lat="46.6909533" lon="12.365665"><ele>1344.0</ele><time>2026-05-02T14:28:51.396Z</time></trkpt><trkpt lat="46.69089" lon="12.3657183"><ele>1344.0</ele><time>2026-05-02T14:28:52.395Z</time></trkpt><trkpt lat="46.6908317" lon="12.3657817"><ele>1344.0</ele><time>2026-05-02T14:28:53.396Z</time></trkpt><trkpt lat="46.6907567" lon="12.3658317"><ele>1344.0</ele><time>2026-05-02T14:28:54.396Z</time></trkpt><trkpt lat="46.69068" lon="12.3658933"><ele>1344.0</ele><time>2026-05-02T14:28:55.395Z</time></trkpt><trkpt lat="46.690595" lon="12.36595"><ele>1344.0</ele><time>2026-05-02T14:28:56.396Z</time></trkpt><trkpt lat="46.6905067" lon="12.3660083"><ele>1344.0</ele><time>2026-05-02T14:28:57.395Z</time></trkpt><trkpt lat="46.69042" lon="12.3660817"><ele>1344.0</ele><time>2026-05-02T14:28:58.395Z</time></trkpt><trkpt lat="46.6903367" lon="12.366145"><ele>1343.8000000000002</ele><time>2026-05-02T14:28:59.396Z</time></trkpt><trkpt lat="46.6902567" lon="12.36621"><ele>1343.6000000000001</ele><time>2026-05-02T14:29:00.396Z</time></trkpt><trkpt lat="46.6901783" lon="12.366265"><ele>1343.4</ele><time>2026-05-02T14:29:01.395Z</time></trkpt><trkpt lat="46.690095" lon="12.3663317"><ele>1343.2</ele><time>2026-05-02T14:29:02.396Z</time></trkpt><trkpt lat="46.690015" lon="12.3664117"><ele>1343.0</ele><time>2026-05-02T14:29:03.396Z</time></trkpt><trkpt lat="46.689935" lon="12.36648"><ele>1343.0</ele><time>2026-05-02T14:29:04.396Z</time></trkpt><trkpt lat="46.6898617" lon="12.3665517"><ele>1343.0</ele><time>2026-05-02T14:29:05.396Z</time></trkpt><trkpt lat="46.6897867" lon="12.3666183"><ele>1343.0</ele><time>2026-05-02T14:29:06.396Z</time></trkpt><trkpt lat="46.6897083" lon="12.36669"><ele>1343.0</ele><time>2026-05-02T14:29:07.396Z</time></trkpt><trkpt lat="46.689625" lon="12.3667517"><ele>1343.0</ele><time>2026-05-02T14:29:08.395Z</time></trkpt><trkpt lat="46.6895383" lon="12.3668067"><ele>1343.0</ele><time>2026-05-02T14:29:09.395Z</time></trkpt><trkpt lat="46.6894533" lon="12.3668583"><ele>1343.0</ele><time>2026-05-02T14:29:10.396Z</time></trkpt><trkpt lat="46.6893633" lon="12.366925"><ele>1343.0</ele><time>2026-05-02T14:29:11.395Z</time></trkpt><trkpt lat="46.6892733" lon="12.366985"><ele>1343.0</ele><time>2026-05-02T14:29:12.396Z</time></trkpt><trkpt lat="46.6891817" lon="12.36704"><ele>1343.0</ele><time>2026-05-02T14:29:13.396Z</time></trkpt><trkpt lat="46.6890883" lon="12.3670917"><ele>1342.8333333333335</ele><time>2026-05-02T14:29:14.396Z</time></trkpt><trkpt lat="46.6890067" lon="12.3671267"><ele>1342.6666666666667</ele><time>2026-05-02T14:29:15.396Z</time></trkpt><trkpt lat="46.688925" lon="12.367155"><ele>1342.5</ele><time>2026-05-02T14:29:16.396Z</time></trkpt><trkpt lat="46.68884" lon="12.3671667"><ele>1342.3333333333333</ele><time>2026-05-02T14:29:17.396Z</time></trkpt><trkpt lat="46.688755" lon="12.367175"><ele>1342.1666666666665</ele><time>2026-05-02T14:29:18.395Z</time></trkpt><trkpt lat="46.6886717" lon="12.36716"><ele>1342.0</ele><time>2026-05-02T14:29:19.396Z</time></trkpt><trkpt lat="46.68859" lon="12.3671417"><ele>1342.1999999999998</ele><time>2026-05-02T14:29:20.396Z</time></trkpt><trkpt lat="46.68851" lon="12.3671417"><ele>1342.4</ele><time>2026-05-02T14:29:21.396Z</time></trkpt><trkpt lat="46.6884283" lon="12.367175"><ele>1342.6</ele><time>2026-05-02T14:29:22.396Z</time></trkpt><trkpt lat="46.6883433" lon="12.3672383"><ele>1342.8000000000002</ele><time>2026-05-02T14:29:23.396Z</time></trkpt><trkpt lat="46.6882467" lon="12.3673067"><ele>1343.0</ele><time>2026-05-02T14:29:24.395Z</time></trkpt><trkpt lat="46.6881567" lon="12.367395"><ele>1343.0</ele><time>2026-05-02T14:29:25.396Z</time></trkpt><trkpt lat="46.688065" lon="12.3674717"><ele>1343.0</ele><time>2026-05-02T14:29:26.396Z</time></trkpt><trkpt lat="46.6879733" lon="12.3675417"><ele>1343.0</ele><time>2026-05-02T14:29:27.396Z</time></trkpt><trkpt lat="46.6878817" lon="12.3676067"><ele>1343.0</ele><time>2026-05-02T14:29:28.396Z</time></trkpt><trkpt lat="46.6878017" lon="12.3676683"><ele>1343.0</ele><time>2026-05-02T14:29:29.395Z</time></trkpt><trkpt lat="46.6877267" lon="12.3677383"><ele>1343.6000000000001</ele><time>2026-05-02T14:29:30.395Z</time></trkpt><trkpt lat="46.6876433" lon="12.3678067"><ele>1344.2</ele><time>2026-05-02T14:29:31.395Z</time></trkpt><trkpt lat="46.6875517" lon="12.3678767"><ele>1344.8</ele><time>2026-05-02T14:29:32.396Z</time></trkpt><trkpt lat="46.68746" lon="12.3679633"><ele>1345.4</ele><time>2026-05-02T14:29:33.396Z</time></trkpt><trkpt lat="46.6873667" lon="12.3680517"><ele>1346.0</ele><time>2026-05-02T14:29:34.396Z</time></trkpt><trkpt lat="46.6872683" lon="12.3681483"><ele>1347.0</ele><time>2026-05-02T14:29:35.396Z</time></trkpt><trkpt lat="46.6871833" lon="12.368265"><ele>1348.0</ele><time>2026-05-02T14:29:36.396Z</time></trkpt><trkpt lat="46.6871083" lon="12.36838"><ele>1349.0</ele><time>2026-05-02T14:29:37.396Z</time></trkpt><trkpt lat="46.6870333" lon="12.3684817"><ele>1350.0</ele><time>2026-05-02T14:29:38.395Z</time></trkpt><trkpt lat="46.6869617" lon="12.3685717"><ele>1351.0</ele><time>2026-05-02T14:29:39.396Z</time></trkpt><trkpt lat="46.6868883" lon="12.3686333"><ele>1351.0</ele><time>2026-05-02T14:29:40.396Z</time></trkpt><trkpt lat="46.6868083" lon="12.3686867"><ele>1351.0</ele><time>2026-05-02T14:29:41.396Z</time></trkpt><trkpt lat="46.6867283" lon="12.3687467"><ele>1351.0</ele><time>2026-05-02T14:29:42.396Z</time></trkpt><trkpt lat="46.6866417" lon="12.3688133"><ele>1351.0</ele><time>2026-05-02T14:29:43.395Z</time></trkpt><trkpt lat="46.6865333" lon="12.368895"><ele>1351.0</ele><time>2026-05-02T14:29:44.396Z</time></trkpt><trkpt lat="46.6864233" lon="12.368965"><ele>1354.0</ele><time>2026-05-02T14:29:45.395Z</time></trkpt><trkpt lat="46.6863133" lon="12.369055"><ele>1357.0</ele><time>2026-05-02T14:29:46.396Z</time></trkpt><trkpt lat="46.686215" lon="12.369125"><ele>1360.0</ele><time>2026-05-02T14:29:47.395Z</time></trkpt><trkpt lat="46.6861383" lon="12.3692083"><ele>1363.0</ele><time>2026-05-02T14:29:48.395Z</time></trkpt><trkpt lat="46.686055" lon="12.3693067"><ele>1366.0</ele><time>2026-05-02T14:29:49.396Z</time></trkpt><trkpt lat="46.6859633" lon="12.36943"><ele>1366.0</ele><time>2026-05-02T14:29:50.396Z</time></trkpt><trkpt lat="46.6858633" lon="12.369585"><ele>1366.0</ele><time>2026-05-02T14:29:51.395Z</time></trkpt><trkpt lat="46.6857433" lon="12.36973"><ele>1366.0</ele><time>2026-05-02T14:29:52.396Z</time></trkpt><trkpt lat="46.68563" lon="12.3698783"><ele>1368.0</ele><time>2026-05-02T14:29:53.396Z</time></trkpt><trkpt lat="46.685525" lon="12.370025"><ele>1370.0</ele><time>2026-05-02T14:29:54.396Z</time></trkpt><trkpt lat="46.6854267" lon="12.3701783"><ele>1372.0</ele><time>2026-05-02T14:29:55.396Z</time></trkpt><trkpt lat="46.6853167" lon="12.37033"><ele>1374.0</ele><time>2026-05-02T14:29:56.396Z</time></trkpt><trkpt lat="46.6852017" lon="12.3704817"><ele>1379.6666666666667</ele><time>2026-05-02T14:29:57.396Z</time></trkpt><trkpt lat="46.6850833" lon="12.3706367"><ele>1385.3333333333335</ele><time>2026-05-02T14:29:58.396Z</time></trkpt><trkpt lat="46.6849667" lon="12.3708183"><ele>1391.0</ele><time>2026-05-02T14:29:59.396Z</time></trkpt><trkpt lat="46.684845" lon="12.37103"><ele>1391.0</ele><time>2026-05-02T14:30:00.396Z</time></trkpt><trkpt lat="46.684725" lon="12.371245"><ele>1391.0</ele><time>2026-05-02T14:30:01.396Z</time></trkpt><trkpt lat="46.6846083" lon="12.3715117"><ele>1391.0</ele><time>2026-05-02T14:30:02.396Z</time></trkpt><trkpt lat="46.6844817" lon="12.371775"><ele>1392.0</ele><time>2026-05-02T14:30:03.396Z</time></trkpt><trkpt lat="46.6843433" lon="12.37206"><ele>1393.0</ele><time>2026-05-02T14:30:04.396Z</time></trkpt><trkpt lat="46.6841983" lon="12.3723317"><ele>1396.6666666666665</ele><time>2026-05-02T14:30:05.396Z</time></trkpt><trkpt lat="46.684065" lon="12.372565"><ele>1400.3333333333333</ele><time>2026-05-02T14:30:06.396Z</time></trkpt><trkpt lat="46.6839367" lon="12.3727883"><ele>1404.0</ele><time>2026-05-02T14:30:07.396Z</time></trkpt><trkpt lat="46.683825" lon="12.3729933"><ele>1405.3333333333333</ele><time>2026-05-02T14:30:08.395Z</time></trkpt><trkpt lat="46.683715" lon="12.3732067"><ele>1406.6666666666665</ele><time>2026-05-02T14:30:09.396Z</time></trkpt><trkpt lat="46.6836033" lon="12.373445"><ele>1408.0</ele><time>2026-05-02T14:30:10.396Z</time></trkpt><trkpt lat="46.6835167" lon="12.373725"><ele>1414.5</ele><time>2026-05-02T14:30:11.396Z</time></trkpt><trkpt lat="46.6834183" lon="12.374015"><ele>1421.0</ele><time>2026-05-02T14:30:12.396Z</time></trkpt><trkpt lat="46.6833233" lon="12.3743417"><ele>1421.0</ele><time>2026-05-02T14:30:13.396Z</time></trkpt><trkpt lat="46.683225" lon="12.3746667"><ele>1421.0</ele><time>2026-05-02T14:30:14.396Z</time></trkpt><trkpt lat="46.68312" lon="12.3749767"><ele>1425.0</ele><time>2026-05-02T14:30:15.395Z</time></trkpt><trkpt lat="46.68301" lon="12.3752617"><ele>1429.0</ele><time>2026-05-02T14:30:16.395Z</time></trkpt><trkpt lat="46.682915" lon="12.3755383"><ele>1433.0</ele><time>2026-05-02T14:30:17.396Z</time></trkpt><trkpt lat="46.6828233" lon="12.37579"><ele>1432.3333333333335</ele><time>2026-05-02T14:30:18.396Z</time></trkpt><trkpt lat="46.6827283" lon="12.376035"><ele>1431.6666666666667</ele><time>2026-05-02T14:30:19.395Z</time></trkpt><trkpt lat="46.682625" lon="12.37626"><ele>1431.0</ele><time>2026-05-02T14:30:20.396Z</time></trkpt><trkpt lat="46.68249" lon="12.3764483"><ele>1435.3333333333333</ele><time>2026-05-02T14:30:21.396Z</time></trkpt><trkpt lat="46.68235" lon="12.3766117"><ele>1439.6666666666665</ele><time>2026-05-02T14:30:22.396Z</time></trkpt><trkpt lat="46.6822033" lon="12.376735"><ele>1444.0</ele><time>2026-05-02T14:30:23.396Z</time></trkpt><trkpt lat="46.68207" lon="12.376805"><ele>1444.0</ele><time>2026-05-02T14:30:24.396Z</time></trkpt><trkpt lat="46.681935" lon="12.37681"><ele>1444.0</ele><time>2026-05-02T14:30:25.396Z</time></trkpt><trkpt lat="46.681805" lon="12.3767667"><ele>1444.0</ele><time>2026-05-02T14:30:26.396Z</time></trkpt><trkpt lat="46.681675" lon="12.37668"><ele>1444.0</ele><time>2026-05-02T14:30:27.396Z</time></trkpt><trkpt lat="46.68157" lon="12.37657"><ele>1443.5</ele><time>2026-05-02T14:30:28.395Z</time></trkpt><trkpt lat="46.6814833" lon="12.3764167"><ele>1443.0</ele><time>2026-05-02T14:30:29.395Z</time></trkpt><trkpt lat="46.6814267" lon="12.37622"><ele>1442.5</ele><time>2026-05-02T14:30:30.396Z</time></trkpt><trkpt lat="46.6813717" lon="12.3760117"><ele>1442.0</ele><time>2026-05-02T14:30:31.396Z</time></trkpt><trkpt lat="46.6813533" lon="12.3758333"><ele>1442.0</ele><time>2026-05-02T14:30:32.396Z</time></trkpt><trkpt lat="46.681305" lon="12.3757083"><ele>1442.0</ele><time>2026-05-02T14:30:33.396Z</time></trkpt><trkpt lat="46.681255" lon="12.37562"><ele>1442.0</ele><time>2026-05-02T14:30:34.396Z</time></trkpt><trkpt lat="46.6812" lon="12.3755667"><ele>1442.0</ele><time>2026-05-02T14:30:35.396Z</time></trkpt><trkpt lat="46.6811333" lon="12.375585"><ele>1442.0</ele><time>2026-05-02T14:30:36.396Z</time></trkpt><trkpt lat="46.6810683" lon="12.37563"><ele>1442.0</ele><time>2026-05-02T14:30:37.395Z</time></trkpt><trkpt lat="46.6810417" lon="12.37575"><ele>1442.0</ele><time>2026-05-02T14:30:38.395Z</time></trkpt><trkpt lat="46.681045" lon="12.375895"><ele>1442.0</ele><time>2026-05-02T14:30:39.396Z</time></trkpt><trkpt lat="46.6810817" lon="12.3760383"><ele>1442.0</ele><time>2026-05-02T14:30:40.395Z</time></trkpt><trkpt lat="46.6811317" lon="12.3762267"><ele>1442.0</ele><time>2026-05-02T14:30:41.396Z</time></trkpt><trkpt lat="46.6811617" lon="12.3764283"><ele>1444.6666666666667</ele><time>2026-05-02T14:30:42.396Z</time></trkpt><trkpt lat="46.6811467" lon="12.3766283"><ele>1447.3333333333333</ele><time>2026-05-02T14:30:43.395Z</time></trkpt><trkpt lat="46.6810917" lon="12.37683"><ele>1450.0</ele><time>2026-05-02T14:30:44.396Z</time></trkpt><trkpt lat="46.6809633" lon="12.3770233"><ele>1455.0</ele><time>2026-05-02T14:30:45.396Z</time></trkpt><trkpt lat="46.680815" lon="12.3772317"><ele>1460.0</ele><time>2026-05-02T14:30:46.395Z</time></trkpt><trkpt lat="46.6806533" lon="12.3774567"><ele>1465.0</ele><time>2026-05-02T14:30:47.395Z</time></trkpt><trkpt lat="46.6804917" lon="12.3776867"><ele>1465.0</ele><time>2026-05-02T14:30:48.396Z</time></trkpt><trkpt lat="46.68032" lon="12.3778917"><ele>1465.0</ele><time>2026-05-02T14:30:49.396Z</time></trkpt><trkpt lat="46.6801533" lon="12.378075"><ele>1465.0</ele><time>2026-05-02T14:30:50.396Z</time></trkpt><trkpt lat="46.6799883" lon="12.3782483"><ele>1466.0</ele><time>2026-05-02T14:30:51.396Z</time></trkpt><trkpt lat="46.6798433" lon="12.37846"><ele>1467.0</ele><time>2026-05-02T14:30:52.396Z</time></trkpt><trkpt lat="46.679695" lon="12.3786933"><ele>1468.0</ele><time>2026-05-02T14:30:53.396Z</time></trkpt><trkpt lat="46.6795517" lon="12.3789367"><ele>1469.3333333333333</ele><time>2026-05-02T14:30:54.396Z</time></trkpt><trkpt lat="46.6794167" lon="12.3791883"><ele>1470.6666666666667</ele><time>2026-05-02T14:30:55.395Z</time></trkpt><trkpt lat="46.6792817" lon="12.3794467"><ele>1472.0</ele><time>2026-05-02T14:30:56.395Z</time></trkpt><trkpt lat="46.679155" lon="12.379695"><ele>1472.0</ele><time>2026-05-02T14:30:57.396Z</time></trkpt><trkpt lat="46.679035" lon="12.3799367"><ele>1472.0</ele><time>2026-05-02T14:30:58.396Z</time></trkpt><trkpt lat="46.6789" lon="12.380175"><ele>1472.0</ele><time>2026-05-02T14:30:59.396Z</time></trkpt><trkpt lat="46.6787717" lon="12.3804083"><ele>1470.6666666666667</ele><time>2026-05-02T14:31:00.396Z</time></trkpt><trkpt lat="46.6786583" lon="12.38064"><ele>1469.3333333333333</ele><time>2026-05-02T14:31:01.396Z</time></trkpt><trkpt lat="46.678525" lon="12.380895"><ele>1468.0</ele><time>2026-05-02T14:31:02.395Z</time></trkpt><trkpt lat="46.67838" lon="12.381155"><ele>1472.0</ele><time>2026-05-02T14:31:03.396Z</time></trkpt><trkpt lat="46.6782367" lon="12.381405"><ele>1476.0</ele><time>2026-05-02T14:31:04.396Z</time></trkpt><trkpt lat="46.6780983" lon="12.3816433"><ele>1480.0</ele><time>2026-05-02T14:31:05.395Z</time></trkpt><trkpt lat="46.677965" lon="12.3818533"><ele>1480.0</ele><time>2026-05-02T14:31:06.396Z</time></trkpt><trkpt lat="46.67782" lon="12.3820467"><ele>1480.0</ele><time>2026-05-02T14:31:07.396Z</time></trkpt><trkpt lat="46.6776733" lon="12.3822233"><ele>1480.0</ele><time>2026-05-02T14:31:08.396Z</time></trkpt><trkpt lat="46.6775" lon="12.3823967"><ele>1482.6666666666665</ele><time>2026-05-02T14:31:09.395Z</time></trkpt><trkpt lat="46.6773233" lon="12.382565"><ele>1485.3333333333333</ele><time>2026-05-02T14:31:10.396Z</time></trkpt><trkpt lat="46.6771333" lon="12.3827167"><ele>1488.0</ele><time>2026-05-02T14:31:11.395Z</time></trkpt><trkpt lat="46.676935" lon="12.382865"><ele>1490.0</ele><time>2026-05-02T14:31:12.396Z</time></trkpt><trkpt lat="46.6767317" lon="12.38301"><ele>1492.0</ele><time>2026-05-02T14:31:13.395Z</time></trkpt><trkpt lat="46.6765233" lon="12.3831767"><ele>1492.0</ele><time>2026-05-02T14:31:14.396Z</time></trkpt><trkpt lat="46.6763267" lon="12.38336"><ele>1492.0</ele><time>2026-05-02T14:31:15.396Z</time></trkpt><trkpt lat="46.6761467" lon="12.3835683"><ele>1496.0</ele><time>2026-05-02T14:31:16.396Z</time></trkpt><trkpt lat="46.67599" lon="12.3838017"><ele>1500.0</ele><time>2026-05-02T14:31:17.396Z</time></trkpt><trkpt lat="46.6758367" lon="12.3840533"><ele>1500.0</ele><time>2026-05-02T14:31:18.396Z</time></trkpt><trkpt lat="46.6756833" lon="12.384315"><ele>1500.0</ele><time>2026-05-02T14:31:19.396Z</time></trkpt><trkpt lat="46.675535" lon="12.3845833"><ele>1498.5</ele><time>2026-05-02T14:31:20.396Z</time></trkpt><trkpt lat="46.6754083" lon="12.384865"><ele>1497.0</ele><time>2026-05-02T14:31:21.395Z</time></trkpt><trkpt lat="46.6752967" lon="12.3851433"><ele>1499.6666666666667</ele><time>2026-05-02T14:31:22.395Z</time></trkpt><trkpt lat="46.6751967" lon="12.3854183"><ele>1502.3333333333335</ele><time>2026-05-02T14:31:23.396Z</time></trkpt><trkpt lat="46.6750933" lon="12.3856933"><ele>1505.0</ele><time>2026-05-02T14:31:24.395Z</time></trkpt><trkpt lat="46.6749883" lon="12.3859383"><ele>1505.0</ele><time>2026-05-02T14:31:25.396Z</time></trkpt><trkpt lat="46.67488" lon="12.3861733"><ele>1505.0</ele><time>2026-05-02T14:31:26.396Z</time></trkpt><trkpt lat="46.6747417" lon="12.3863717"><ele>1505.0</ele><time>2026-05-02T14:31:27.396Z</time></trkpt><trkpt lat="46.6745733" lon="12.3865333"><ele>1505.3333333333335</ele><time>2026-05-02T14:31:28.396Z</time></trkpt><trkpt lat="46.6743933" lon="12.386685"><ele>1505.6666666666667</ele><time>2026-05-02T14:31:29.396Z</time></trkpt><trkpt lat="46.6742067" lon="12.38682"><ele>1506.0</ele><time>2026-05-02T14:31:30.395Z</time></trkpt><trkpt lat="46.6740267" lon="12.3869767"><ele>1506.0</ele><time>2026-05-02T14:31:31.395Z</time></trkpt><trkpt lat="46.67383" lon="12.387135"><ele>1506.0</ele><time>2026-05-02T14:31:32.396Z</time></trkpt><trkpt lat="46.67364" lon="12.3872683"><ele>1506.0</ele><time>2026-05-02T14:31:33.396Z</time></trkpt><trkpt lat="46.6734533" lon="12.3873617"><ele>1504.3333333333333</ele><time>2026-05-02T14:31:34.396Z</time></trkpt><trkpt lat="46.6732717" lon="12.3874467"><ele>1502.6666666666665</ele><time>2026-05-02T14:31:35.396Z</time></trkpt><trkpt lat="46.6731083" lon="12.3875467"><ele>1501.0</ele><time>2026-05-02T14:31:36.396Z</time></trkpt><trkpt lat="46.6729667" lon="12.3877017"><ele>1501.0</ele><time>2026-05-02T14:31:37.395Z</time></trkpt><trkpt lat="46.6728383" lon="12.3878917"><ele>1501.0</ele><time>2026-05-02T14:31:38.395Z</time></trkpt><trkpt lat="46.672705" lon="12.388115"><ele>1501.0</ele><time>2026-05-02T14:31:39.396Z</time></trkpt><trkpt lat="46.672585" lon="12.3883417"><ele>1500.3333333333333</ele><time>2026-05-02T14:31:40.396Z</time></trkpt><trkpt lat="46.672455" lon="12.3885783"><ele>1499.6666666666667</ele><time>2026-05-02T14:31:41.396Z</time></trkpt><trkpt lat="46.6723233" lon="12.3888183"><ele>1499.0</ele><time>2026-05-02T14:31:42.396Z</time></trkpt><trkpt lat="46.67218" lon="12.3890833"><ele>1499.0</ele><time>2026-05-02T14:31:43.396Z</time></trkpt><trkpt lat="46.6720383" lon="12.38937"><ele>1499.0</ele><time>2026-05-02T14:31:44.395Z</time></trkpt><trkpt lat="46.671895" lon="12.3896683"><ele>1503.5</ele><time>2026-05-02T14:31:45.396Z</time></trkpt><trkpt lat="46.6717633" lon="12.389985"><ele>1508.0</ele><time>2026-05-02T14:31:46.396Z</time></trkpt><trkpt lat="46.671635" lon="12.3903017"><ele>1506.0</ele><time>2026-05-02T14:31:47.396Z</time></trkpt><trkpt lat="46.6715083" lon="12.3906183"><ele>1504.0</ele><time>2026-05-02T14:31:48.395Z</time></trkpt><trkpt lat="46.6713933" lon="12.3909183"><ele>1504.0</ele><time>2026-05-02T14:31:49.396Z</time></trkpt><trkpt lat="46.6712833" lon="12.3912017"><ele>1504.0</ele><time>2026-05-02T14:31:50.396Z</time></trkpt><trkpt lat="46.671175" lon="12.3914783"><ele>1504.0</ele><time>2026-05-02T14:31:51.396Z</time></trkpt><trkpt lat="46.6710833" lon="12.3917517"><ele>1507.3333333333333</ele><time>2026-05-02T14:31:52.395Z</time></trkpt><trkpt lat="46.6710133" lon="12.3920433"><ele>1510.6666666666667</ele><time>2026-05-02T14:31:53.396Z</time></trkpt><trkpt lat="46.670965" lon="12.39235"><ele>1514.0</ele><time>2026-05-02T14:31:54.396Z</time></trkpt><trkpt lat="46.6709367" lon="12.3926383"><ele>1514.0</ele><time>2026-05-02T14:31:55.395Z</time></trkpt><trkpt lat="46.67091" lon="12.3928983"><ele>1514.0</ele><time>2026-05-02T14:31:56.396Z</time></trkpt><trkpt lat="46.670875" lon="12.3931467"><ele>1514.0</ele><time>2026-05-02T14:31:57.396Z</time></trkpt><trkpt lat="46.6708167" lon="12.3933767"><ele>1513.6666666666667</ele><time>2026-05-02T14:31:58.396Z</time></trkpt><trkpt lat="46.67073" lon="12.3935867"><ele>1513.3333333333333</ele><time>2026-05-02T14:31:59.396Z</time></trkpt><trkpt lat="46.670625" lon="12.393795"><ele>1513.0</ele><time>2026-05-02T14:32:00.395Z</time></trkpt><trkpt lat="46.6705367" lon="12.3940167"><ele>1514.6666666666665</ele><time>2026-05-02T14:32:01.396Z</time></trkpt><trkpt lat="46.67046" lon="12.3942367"><ele>1516.3333333333333</ele><time>2026-05-02T14:32:02.396Z</time></trkpt><trkpt lat="46.670355" lon="12.394445"><ele>1518.0</ele><time>2026-05-02T14:32:03.396Z</time></trkpt><trkpt lat="46.6702233" lon="12.3946267"><ele>1519.3333333333333</ele><time>2026-05-02T14:32:04.396Z</time></trkpt><trkpt lat="46.6700617" lon="12.394785"><ele>1520.6666666666665</ele><time>2026-05-02T14:32:05.396Z</time></trkpt><trkpt lat="46.669885" lon="12.3949567"><ele>1522.0</ele><time>2026-05-02T14:32:06.396Z</time></trkpt><trkpt lat="46.6697283" lon="12.3951733"><ele>1522.0</ele><time>2026-05-02T14:32:07.396Z</time></trkpt><trkpt lat="46.6695867" lon="12.3954233"><ele>1522.0</ele><time>2026-05-02T14:32:08.395Z</time></trkpt><trkpt lat="46.6694467" lon="12.3956767"><ele>1522.0</ele><time>2026-05-02T14:32:09.395Z</time></trkpt><trkpt lat="46.6693167" lon="12.3959417"><ele>1521.6666666666665</ele><time>2026-05-02T14:32:10.395Z</time></trkpt><trkpt lat="46.6692033" lon="12.3961883"><ele>1521.3333333333333</ele><time>2026-05-02T14:32:11.396Z</time></trkpt><trkpt lat="46.6691167" lon="12.3964283"><ele>1521.0</ele><time>2026-05-02T14:32:12.396Z</time></trkpt><trkpt lat="46.669065" lon="12.3966917"><ele>1521.0</ele><time>2026-05-02T14:32:13.396Z</time></trkpt><trkpt lat="46.669015" lon="12.3969633"><ele>1521.0</ele><time>2026-05-02T14:32:14.396Z</time></trkpt><trkpt lat="46.668935" lon="12.3972333"><ele>1521.0</ele><time>2026-05-02T14:32:15.396Z</time></trkpt><trkpt lat="46.66883" lon="12.39751"><ele>1521.0</ele><time>2026-05-02T14:32:16.396Z</time></trkpt><trkpt lat="46.668695" lon="12.3977617"><ele>1521.0</ele><time>2026-05-02T14:32:17.396Z</time></trkpt><trkpt lat="46.6685567" lon="12.397995"><ele>1521.0</ele><time>2026-05-02T14:32:18.396Z</time></trkpt><trkpt lat="46.66842" lon="12.3982133"><ele>1523.6666666666667</ele><time>2026-05-02T14:32:19.396Z</time></trkpt><trkpt lat="46.6682733" lon="12.3984083"><ele>1526.3333333333335</ele><time>2026-05-02T14:32:20.395Z</time></trkpt><trkpt lat="46.66812" lon="12.3985833"><ele>1529.0</ele><time>2026-05-02T14:32:21.396Z</time></trkpt><trkpt lat="46.6679567" lon="12.398745"><ele>1528.0</ele><time>2026-05-02T14:32:22.396Z</time></trkpt><trkpt lat="46.6677983" lon="12.39889"><ele>1527.0</ele><time>2026-05-02T14:32:23.395Z</time></trkpt><trkpt lat="46.6676367" lon="12.3990383"><ele>1526.0</ele><time>2026-05-02T14:32:24.395Z</time></trkpt><trkpt lat="46.6674617" lon="12.3991883"><ele>1529.0</ele><time>2026-05-02T14:32:25.396Z</time></trkpt><trkpt lat="46.66728" lon="12.3993233"><ele>1532.0</ele><time>2026-05-02T14:32:26.395Z</time></trkpt><trkpt lat="46.6670817" lon="12.3994617"><ele>1535.0</ele><time>2026-05-02T14:32:27.396Z</time></trkpt><trkpt lat="46.6668717" lon="12.3996"><ele>1538.0</ele><time>2026-05-02T14:32:28.396Z</time></trkpt><trkpt lat="46.6666533" lon="12.39975"><ele>1541.0</ele><time>2026-05-02T14:32:29.396Z</time></trkpt><trkpt lat="46.6664367" lon="12.39989"><ele>1541.0</ele><time>2026-05-02T14:32:30.396Z</time></trkpt><trkpt lat="46.666215" lon="12.4000217"><ele>1541.0</ele><time>2026-05-02T14:32:31.395Z</time></trkpt><trkpt lat="46.6659833" lon="12.4001667"><ele>1547.5</ele><time>2026-05-02T14:32:32.395Z</time></trkpt><trkpt lat="46.6657733" lon="12.4003283"><ele>1554.0</ele><time>2026-05-02T14:32:33.395Z</time></trkpt><trkpt lat="46.66557" lon="12.40046"><ele>1554.0</ele><time>2026-05-02T14:32:34.396Z</time></trkpt><trkpt lat="46.6653817" lon="12.4005483"><ele>1554.0</ele><time>2026-05-02T14:32:35.396Z</time></trkpt><trkpt lat="46.6651983" lon="12.4005783"><ele>1554.0</ele><time>2026-05-02T14:32:36.395Z</time></trkpt><trkpt lat="46.66502" lon="12.4005717"><ele>1554.0</ele><time>2026-05-02T14:32:37.395Z</time></trkpt><trkpt lat="46.6648433" lon="12.4005217"><ele>1554.0</ele><time>2026-05-02T14:32:38.396Z</time></trkpt><trkpt lat="46.6646833" lon="12.4004633"><ele>1554.0</ele><time>2026-05-02T14:32:39.396Z</time></trkpt><trkpt lat="46.66454" lon="12.4004283"><ele>1557.0</ele><time>2026-05-02T14:32:40.396Z</time></trkpt><trkpt lat="46.6643833" lon="12.4004817"><ele>1560.0</ele><time>2026-05-02T14:32:41.396Z</time></trkpt><trkpt lat="46.6642167" lon="12.4005967"><ele>1563.0</ele><time>2026-05-02T14:32:42.396Z</time></trkpt><trkpt lat="46.66404" lon="12.4007617"><ele>1563.0</ele><time>2026-05-02T14:32:43.396Z</time></trkpt><trkpt lat="46.6638717" lon="12.40097"><ele>1563.0</ele><time>2026-05-02T14:32:44.396Z</time></trkpt><trkpt lat="46.6637133" lon="12.4011983"><ele>1563.0</ele><time>2026-05-02T14:32:45.395Z</time></trkpt><trkpt lat="46.6635467" lon="12.4013933"><ele>1565.0</ele><time>2026-05-02T14:32:46.396Z</time></trkpt><trkpt lat="46.6633817" lon="12.4015733"><ele>1567.0</ele><time>2026-05-02T14:32:47.396Z</time></trkpt><trkpt lat="46.6632083" lon="12.4017367"><ele>1569.0</ele><time>2026-05-02T14:32:48.396Z</time></trkpt><trkpt lat="46.6630633" lon="12.4019117"><ele>1569.0</ele><time>2026-05-02T14:32:49.395Z</time></trkpt><trkpt lat="46.6629533" lon="12.4020967"><ele>1569.0</ele><time>2026-05-02T14:32:50.395Z</time></trkpt><trkpt lat="46.6628633" lon="12.4022717"><ele>1569.0</ele><time>2026-05-02T14:32:51.396Z</time></trkpt><trkpt lat="46.662755" lon="12.4024267"><ele>1571.0</ele><time>2026-05-02T14:32:52.396Z</time></trkpt><trkpt lat="46.6626217" lon="12.4025233"><ele>1573.0</ele><time>2026-05-02T14:32:53.395Z</time></trkpt><trkpt lat="46.6624733" lon="12.40263"><ele>1575.0</ele><time>2026-05-02T14:32:54.395Z</time></trkpt><trkpt lat="46.6623217" lon="12.4027783"><ele>1575.0</ele><time>2026-05-02T14:32:55.396Z</time></trkpt><trkpt lat="46.662185" lon="12.4029633"><ele>1575.0</ele><time>2026-05-02T14:32:56.396Z</time></trkpt><trkpt lat="46.6620433" lon="12.403145"><ele>1575.0</ele><time>2026-05-02T14:32:57.396Z</time></trkpt><trkpt lat="46.661885" lon="12.4033233"><ele>1578.0</ele><time>2026-05-02T14:32:58.396Z</time></trkpt><trkpt lat="46.6617083" lon="12.4034717"><ele>1581.0</ele><time>2026-05-02T14:32:59.396Z</time></trkpt><trkpt lat="46.6615067" lon="12.4035833"><ele>1584.0</ele><time>2026-05-02T14:33:00.396Z</time></trkpt><trkpt lat="46.6613" lon="12.403695"><ele>1584.6666666666665</ele><time>2026-05-02T14:33:01.396Z</time></trkpt><trkpt lat="46.661095" lon="12.403835"><ele>1585.3333333333333</ele><time>2026-05-02T14:33:02.395Z</time></trkpt><trkpt lat="46.660905" lon="12.4039983"><ele>1586.0</ele><time>2026-05-02T14:33:03.396Z</time></trkpt><trkpt lat="46.6607367" lon="12.4041767"><ele>1586.0</ele><time>2026-05-02T14:33:04.396Z</time></trkpt><trkpt lat="46.66058" lon="12.4043383"><ele>1586.0</ele><time>2026-05-02T14:33:05.396Z</time></trkpt><trkpt lat="46.6604467" lon="12.4045217"><ele>1586.0</ele><time>2026-05-02T14:33:06.395Z</time></trkpt><trkpt lat="46.6603367" lon="12.404735"><ele>1589.3333333333333</ele><time>2026-05-02T14:33:07.396Z</time></trkpt><trkpt lat="46.660255" lon="12.405"><ele>1592.6666666666665</ele><time>2026-05-02T14:33:08.396Z</time></trkpt><trkpt lat="46.660165" lon="12.4052983"><ele>1596.0</ele><time>2026-05-02T14:33:09.396Z</time></trkpt><trkpt lat="46.66007" lon="12.40561"><ele>1596.0</ele><time>2026-05-02T14:33:10.396Z</time></trkpt><trkpt lat="46.65997" lon="12.4059083"><ele>1596.0</ele><time>2026-05-02T14:33:11.396Z</time></trkpt><trkpt lat="46.6598717" lon="12.4062017"><ele>1596.3333333333335</ele><time>2026-05-02T14:33:12.396Z</time></trkpt><trkpt lat="46.6597633" lon="12.406475"><ele>1596.6666666666667</ele><time>2026-05-02T14:33:13.396Z</time></trkpt><trkpt lat="46.65967" lon="12.4067483"><ele>1597.0</ele><time>2026-05-02T14:33:14.396Z</time></trkpt><trkpt lat="46.6595967" lon="12.4070317"><ele>1597.3333333333335</ele><time>2026-05-02T14:33:15.396Z</time></trkpt><trkpt lat="46.6595617" lon="12.407335"><ele>1597.6666666666665</ele><time>2026-05-02T14:33:16.395Z</time></trkpt><trkpt lat="46.6595417" lon="12.407665"><ele>1598.0</ele><time>2026-05-02T14:33:17.396Z</time></trkpt><trkpt lat="46.6595067" lon="12.408015"><ele>1598.0</ele><time>2026-05-02T14:33:18.396Z</time></trkpt><trkpt lat="46.6594833" lon="12.4083733"><ele>1598.0</ele><time>2026-05-02T14:33:19.396Z</time></trkpt><trkpt lat="46.659455" lon="12.4087333"><ele>1604.5</ele><time>2026-05-02T14:33:20.396Z</time></trkpt><trkpt lat="46.6594283" lon="12.409095"><ele>1611.0</ele><time>2026-05-02T14:33:21.396Z</time></trkpt><trkpt lat="46.6594033" lon="12.409425"><ele>1611.6666666666665</ele><time>2026-05-02T14:33:22.395Z</time></trkpt><trkpt lat="46.6593683" lon="12.40974"><ele>1612.3333333333333</ele><time>2026-05-02T14:33:23.396Z</time></trkpt><trkpt lat="46.659315" lon="12.410035"><ele>1613.0</ele><time>2026-05-02T14:33:24.396Z</time></trkpt><trkpt lat="46.6592367" lon="12.4103233"><ele>1612.6666666666665</ele><time>2026-05-02T14:33:25.395Z</time></trkpt><trkpt lat="46.65916" lon="12.4105967"><ele>1612.3333333333335</ele><time>2026-05-02T14:33:26.396Z</time></trkpt><trkpt lat="46.6591083" lon="12.4108883"><ele>1612.0</ele><time>2026-05-02T14:33:27.396Z</time></trkpt><trkpt lat="46.6590483" lon="12.41115"><ele>1611.0</ele><time>2026-05-02T14:33:28.396Z</time></trkpt><trkpt lat="46.6589533" lon="12.4113733"><ele>1610.0</ele><time>2026-05-02T14:33:29.395Z</time></trkpt><trkpt lat="46.658845" lon="12.4115733"><ele>1609.0</ele><time>2026-05-02T14:33:30.396Z</time></trkpt><trkpt lat="46.6587617" lon="12.41179"><ele>1609.0</ele><time>2026-05-02T14:33:31.396Z</time></trkpt><trkpt lat="46.6587133" lon="12.4120567"><ele>1609.0</ele><time>2026-05-02T14:33:32.395Z</time></trkpt><trkpt lat="46.6586783" lon="12.4123583"><ele>1609.0</ele><time>2026-05-02T14:33:33.396Z</time></trkpt><trkpt lat="46.658615" lon="12.41267"><ele>1613.5</ele><time>2026-05-02T14:33:34.396Z</time></trkpt><trkpt lat="46.6585283" lon="12.4129833"><ele>1618.0</ele><time>2026-05-02T14:33:35.396Z</time></trkpt><trkpt lat="46.65843" lon="12.413295"><ele>1618.0</ele><time>2026-05-02T14:33:36.396Z</time></trkpt><trkpt lat="46.6583283" lon="12.4136017"><ele>1618.0</ele><time>2026-05-02T14:33:37.395Z</time></trkpt><trkpt lat="46.658225" lon="12.4139"><ele>1618.0</ele><time>2026-05-02T14:33:38.396Z</time></trkpt><trkpt lat="46.6581367" lon="12.4141883"><ele>1618.0</ele><time>2026-05-02T14:33:39.396Z</time></trkpt><trkpt lat="46.6580467" lon="12.414475"><ele>1618.0</ele><time>2026-05-02T14:33:40.395Z</time></trkpt><trkpt lat="46.6579633" lon="12.41478"><ele>1618.0</ele><time>2026-05-02T14:33:41.395Z</time></trkpt><trkpt lat="46.6578933" lon="12.41509"><ele>1618.0</ele><time>2026-05-02T14:33:42.396Z</time></trkpt><trkpt lat="46.6578417" lon="12.41544"><ele>1620.5</ele><time>2026-05-02T14:33:43.396Z</time></trkpt><trkpt lat="46.6577883" lon="12.4158033"><ele>1623.0</ele><time>2026-05-02T14:33:44.396Z</time></trkpt><trkpt lat="46.65771" lon="12.4161633"><ele>1628.5</ele><time>2026-05-02T14:33:45.396Z</time></trkpt><trkpt lat="46.657625" lon="12.4165167"><ele>1634.0</ele><time>2026-05-02T14:33:46.395Z</time></trkpt><trkpt lat="46.6575333" lon="12.4168383"><ele>1634.0</ele><time>2026-05-02T14:33:47.396Z</time></trkpt><trkpt lat="46.6574433" lon="12.4171267"><ele>1634.0</ele><time>2026-05-02T14:33:48.396Z</time></trkpt><trkpt lat="46.6573467" lon="12.4173917"><ele>1634.0</ele><time>2026-05-02T14:33:49.396Z</time></trkpt><trkpt lat="46.6572667" lon="12.4176233"><ele>1634.25</ele><time>2026-05-02T14:33:50.396Z</time></trkpt><trkpt lat="46.6571783" lon="12.417825"><ele>1634.5</ele><time>2026-05-02T14:33:51.395Z</time></trkpt><trkpt lat="46.6570883" lon="12.417995"><ele>1634.75</ele><time>2026-05-02T14:33:52.396Z</time></trkpt><trkpt lat="46.657" lon="12.4181433"><ele>1635.0</ele><time>2026-05-02T14:33:53.396Z</time></trkpt><trkpt lat="46.6569017" lon="12.4182817"><ele>1635.0</ele><time>2026-05-02T14:33:54.396Z</time></trkpt><trkpt lat="46.65681" lon="12.418435"><ele>1635.0</ele><time>2026-05-02T14:33:55.396Z</time></trkpt><trkpt lat="46.6567283" lon="12.418585"><ele>1635.0</ele><time>2026-05-02T14:33:56.396Z</time></trkpt><trkpt lat="46.6566517" lon="12.4187333"><ele>1635.0</ele><time>2026-05-02T14:33:57.396Z</time></trkpt><trkpt lat="46.6565817" lon="12.41888"><ele>1636.2</ele><time>2026-05-02T14:33:58.396Z</time></trkpt><trkpt lat="46.6565133" lon="12.41901"><ele>1637.4</ele><time>2026-05-02T14:33:59.396Z</time></trkpt><trkpt lat="46.6564567" lon="12.4191283"><ele>1638.6</ele><time>2026-05-02T14:34:00.396Z</time></trkpt><trkpt lat="46.6563983" lon="12.41923"><ele>1639.8</ele><time>2026-05-02T14:34:01.396Z</time></trkpt><trkpt lat="46.6563483" lon="12.4193183"><ele>1641.0</ele><time>2026-05-02T14:34:02.395Z</time></trkpt><trkpt lat="46.65628" lon="12.4194133"><ele>1641.0</ele><time>2026-05-02T14:34:04.396Z</time></trkpt><trkpt lat="46.6562167" lon="12.41941"><ele>1641.0</ele><time>2026-05-02T14:34:07.395Z</time></trkpt><trkpt lat="46.6561483" lon="12.4193533"><ele>1641.0</ele><time>2026-05-02T14:34:10.396Z</time></trkpt><trkpt lat="46.6560717" lon="12.41938"><ele>1641.0</ele><time>2026-05-02T14:34:13.396Z</time></trkpt><trkpt lat="46.6559633" lon="12.4193533"><ele>1641.0</ele><time>2026-05-02T14:36:03.396Z</time></trkpt><trkpt lat="46.6559135" lon="12.4192949"><ele>1641.0</ele><time>2026-05-02T14:36:17.463Z</time></trkpt><trkpt lat="46.6558453" lon="12.4193046"><ele>1639.9999999999998</ele><time>2026-05-02T14:36:34.4Z</time></trkpt><trkpt lat="46.6557867" lon="12.419356"><ele>1639.0</ele><time>2026-05-02T14:36:41.456Z</time></trkpt><trkpt lat="46.6557795" lon="12.4192171"><ele>1638.0</ele><time>2026-05-02T14:37:04.396Z</time></trkpt><trkpt lat="46.655835" lon="12.4192608"><ele>1637.0</ele><time>2026-05-02T14:37:30.955Z</time></trkpt><trkpt lat="46.6558975" lon="12.4192733"><ele>1636.0</ele><time>2026-05-02T14:37:37.43Z</time></trkpt><trkpt lat="46.6559626" lon="12.4192651"><ele>1634.9999999999998</ele><time>2026-05-02T14:37:45.447Z</time></trkpt><trkpt lat="46.656029" lon="12.4192963"><ele>1634.0</ele><time>2026-05-02T14:37:55.374Z</time></trkpt><trkpt lat="46.6560811" lon="12.4193576"><ele>1634.9999999999998</ele><time>2026-05-02T14:38:07.412Z</time></trkpt><trkpt lat="46.6561513" lon="12.4193875"><ele>1636.0</ele><time>2026-05-02T14:38:29.434Z</time></trkpt><trkpt lat="46.6562162" lon="12.4193758"><ele>1637.0</ele><time>2026-05-02T14:38:34.344Z</time></trkpt><trkpt lat="46.6562741" lon="12.4194187"><ele>1638.0</ele><time>2026-05-02T14:38:39.454Z</time></trkpt><trkpt lat="46.656333" lon="12.4194542"><ele>1639.0</ele><time>2026-05-02T14:38:44.436Z</time></trkpt><trkpt lat="46.6563986" lon="12.4194718"><ele>1639.9999999999998</ele><time>2026-05-02T14:38:50.476Z</time></trkpt><trkpt lat="46.6564192" lon="12.4195663"><ele>1641.0</ele><time>2026-05-02T14:38:58.491Z</time></trkpt><trkpt lat="46.6564404" lon="12.4196544"><ele>1640.9999999999998</ele><time>2026-05-02T14:39:04.454Z</time></trkpt><trkpt lat="46.6564936" lon="12.4197118"><ele>1641.0</ele><time>2026-05-02T14:39:10.457Z</time></trkpt><trkpt lat="46.6565432" lon="12.4196511"><ele>1641.0</ele><time>2026-05-02T14:39:18.43Z</time></trkpt><trkpt lat="46.6565947" lon="12.4195874"><ele>1641.0</ele><time>2026-05-02T14:39:29.452Z</time></trkpt><trkpt lat="46.6566511" lon="12.4195273"><ele>1641.0</ele><time>2026-05-02T14:39:35.415Z</time></trkpt><trkpt lat="46.6565788" lon="12.4195675"><ele>1640.9999999999998</ele><time>2026-05-02T14:41:15.458Z</time></trkpt><trkpt lat="46.6565253" lon="12.4195157"><ele>1641.0</ele><time>2026-05-02T14:41:19.395Z</time></trkpt><trkpt lat="46.6564685" lon="12.419464"><ele>1640.9999999999998</ele><time>2026-05-02T14:41:24.476Z</time></trkpt><trkpt lat="46.6564089" lon="12.419433"><ele>1641.0</ele><time>2026-05-02T14:41:29.487Z</time></trkpt><trkpt lat="46.6563406" lon="12.4194244"><ele>1641.0</ele><time>2026-05-02T14:41:35.476Z</time></trkpt><trkpt lat="46.6562775" lon="12.4194592"><ele>1641.0</ele><time>2026-05-02T14:41:46.419Z</time></trkpt><trkpt lat="46.6562048" lon="12.4194443"><ele>1641.0</ele><time>2026-05-02T14:41:52.393Z</time></trkpt><trkpt lat="46.6561376" lon="12.4194083"><ele>1640.9999999999998</ele><time>2026-05-02T14:41:58.443Z</time></trkpt><trkpt lat="46.6560683" lon="12.419396"><ele>1641.0</ele><time>2026-05-02T14:42:05.457Z</time></trkpt><trkpt lat="46.6560163" lon="12.4194482"><ele>1641.0</ele><time>2026-05-02T14:42:15.476Z</time></trkpt><trkpt lat="46.6560766" lon="12.4194058"><ele>1641.0</ele><time>2026-05-02T14:45:27.447Z</time></trkpt><trkpt lat="46.6561396" lon="12.4193389"><ele>1641.0</ele><time>2026-05-02T14:45:37.466Z</time></trkpt><trkpt lat="46.6562098" lon="12.419379"><ele>1641.0</ele><time>2026-05-02T14:45:41.474Z</time></trkpt><trkpt lat="46.6562067" lon="12.4194833"><ele>1641.0</ele><time>2026-05-02T14:46:01.395Z</time></trkpt><trkpt lat="46.6562117" lon="12.4195983"><ele>1641.0</ele><time>2026-05-02T14:46:04.396Z</time></trkpt><trkpt lat="46.656135" lon="12.4196967"><ele>1640.0</ele><time>2026-05-02T14:46:06.396Z</time></trkpt><trkpt lat="46.6560567" lon="12.41986"><ele>1639.0</ele><time>2026-05-02T14:46:08.395Z</time></trkpt><trkpt lat="46.6560083" lon="12.419955"><ele>1638.0</ele><time>2026-05-02T14:46:09.396Z</time></trkpt><trkpt lat="46.655955" lon="12.4200383"><ele>1637.0</ele><time>2026-05-02T14:46:10.396Z</time></trkpt><trkpt lat="46.6559117" lon="12.4201217"><ele>1636.0</ele><time>2026-05-02T14:46:11.396Z</time></trkpt><trkpt lat="46.6558683" lon="12.4202033"><ele>1635.0</ele><time>2026-05-02T14:46:12.396Z</time></trkpt><trkpt lat="46.6558233" lon="12.4203"><ele>1635.0</ele><time>2026-05-02T14:46:13.396Z</time></trkpt><trkpt lat="46.65577" lon="12.4204067"><ele>1635.0</ele><time>2026-05-02T14:46:14.396Z</time></trkpt><trkpt lat="46.655705" lon="12.420525"><ele>1635.0</ele><time>2026-05-02T14:46:15.396Z</time></trkpt><trkpt lat="46.6556283" lon="12.4206433"><ele>1635.0</ele><time>2026-05-02T14:46:16.395Z</time></trkpt><trkpt lat="46.65555" lon="12.4207567"><ele>1635.0</ele><time>2026-05-02T14:46:17.396Z</time></trkpt><trkpt lat="46.65546" lon="12.4208867"><ele>1635.3333333333335</ele><time>2026-05-02T14:46:18.395Z</time></trkpt><trkpt lat="46.655365" lon="12.4210383"><ele>1635.6666666666667</ele><time>2026-05-02T14:46:19.396Z</time></trkpt><trkpt lat="46.655225" lon="12.4211867"><ele>1636.0</ele><time>2026-05-02T14:46:20.396Z</time></trkpt><trkpt lat="46.6550767" lon="12.4213567"><ele>1636.3333333333335</ele><time>2026-05-02T14:46:21.395Z</time></trkpt><trkpt lat="46.6549167" lon="12.4215217"><ele>1636.6666666666665</ele><time>2026-05-02T14:46:22.396Z</time></trkpt><trkpt lat="46.654755" lon="12.4217333"><ele>1637.0</ele><time>2026-05-02T14:46:23.396Z</time></trkpt><trkpt lat="46.6545883" lon="12.4219267"><ele>1636.0</ele><time>2026-05-02T14:46:24.396Z</time></trkpt><trkpt lat="46.6544167" lon="12.422115"><ele>1635.0</ele><time>2026-05-02T14:46:25.396Z</time></trkpt><trkpt lat="46.654255" lon="12.42231"><ele>1634.0</ele><time>2026-05-02T14:46:26.396Z</time></trkpt><trkpt lat="46.6540867" lon="12.42251"><ele>1631.0</ele><time>2026-05-02T14:46:27.395Z</time></trkpt><trkpt lat="46.6539117" lon="12.4227333"><ele>1628.0</ele><time>2026-05-02T14:46:28.396Z</time></trkpt><trkpt lat="46.6537483" lon="12.4229767"><ele>1627.0</ele><time>2026-05-02T14:46:29.395Z</time></trkpt><trkpt lat="46.6535683" lon="12.423215"><ele>1626.0</ele><time>2026-05-02T14:46:30.396Z</time></trkpt><trkpt lat="46.6533767" lon="12.4234383"><ele>1626.0</ele><time>2026-05-02T14:46:31.396Z</time></trkpt><trkpt lat="46.65318" lon="12.423635"><ele>1626.0</ele><time>2026-05-02T14:46:32.396Z</time></trkpt><trkpt lat="46.6529633" lon="12.4238233"><ele>1623.3333333333335</ele><time>2026-05-02T14:46:33.395Z</time></trkpt><trkpt lat="46.652765" lon="12.4239883"><ele>1620.6666666666667</ele><time>2026-05-02T14:46:34.395Z</time></trkpt><trkpt lat="46.6525717" lon="12.4241417"><ele>1618.0</ele><time>2026-05-02T14:46:35.396Z</time></trkpt><trkpt lat="46.652395" lon="12.4242883"><ele>1618.0</ele><time>2026-05-02T14:46:36.396Z</time></trkpt><trkpt lat="46.65223" lon="12.4244483"><ele>1618.0</ele><time>2026-05-02T14:46:37.396Z</time></trkpt><trkpt lat="46.6520867" lon="12.424635"><ele>1618.0</ele><time>2026-05-02T14:46:38.395Z</time></trkpt><trkpt lat="46.651955" lon="12.42484"><ele>1617.3333333333335</ele><time>2026-05-02T14:46:39.396Z</time></trkpt><trkpt lat="46.6518467" lon="12.42504"><ele>1616.6666666666665</ele><time>2026-05-02T14:46:40.396Z</time></trkpt><trkpt lat="46.651745" lon="12.42526"><ele>1616.0</ele><time>2026-05-02T14:46:41.396Z</time></trkpt><trkpt lat="46.6516767" lon="12.425495"><ele>1615.0</ele><time>2026-05-02T14:46:42.396Z</time></trkpt><trkpt lat="46.6516283" lon="12.4257433"><ele>1614.0</ele><time>2026-05-02T14:46:43.396Z</time></trkpt><trkpt lat="46.6515667" lon="12.4259767"><ele>1613.0</ele><time>2026-05-02T14:46:44.396Z</time></trkpt><trkpt lat="46.6514783" lon="12.4261817"><ele>1615.0</ele><time>2026-05-02T14:46:45.395Z</time></trkpt><trkpt lat="46.6513617" lon="12.4263583"><ele>1617.0</ele><time>2026-05-02T14:46:46.396Z</time></trkpt><trkpt lat="46.65124" lon="12.426515"><ele>1619.0</ele><time>2026-05-02T14:46:47.396Z</time></trkpt><trkpt lat="46.6511083" lon="12.42666"><ele>1615.0</ele><time>2026-05-02T14:46:48.396Z</time></trkpt><trkpt lat="46.6509767" lon="12.4268"><ele>1611.0</ele><time>2026-05-02T14:46:49.396Z</time></trkpt><trkpt lat="46.6508483" lon="12.426935"><ele>1607.0</ele><time>2026-05-02T14:46:50.395Z</time></trkpt><trkpt lat="46.6507183" lon="12.4270717"><ele>1608.3333333333333</ele><time>2026-05-02T14:46:51.396Z</time></trkpt><trkpt lat="46.6505917" lon="12.427215"><ele>1609.6666666666665</ele><time>2026-05-02T14:46:52.396Z</time></trkpt><trkpt lat="46.65047" lon="12.4273633"><ele>1611.0</ele><time>2026-05-02T14:46:53.396Z</time></trkpt><trkpt lat="46.6503383" lon="12.4275083"><ele>1608.3333333333335</ele><time>2026-05-02T14:46:54.395Z</time></trkpt><trkpt lat="46.6502167" lon="12.427645"><ele>1605.6666666666667</ele><time>2026-05-02T14:46:55.396Z</time></trkpt><trkpt lat="46.6500917" lon="12.4277783"><ele>1603.0</ele><time>2026-05-02T14:46:56.396Z</time></trkpt><trkpt lat="46.6499733" lon="12.42791"><ele>1603.5</ele><time>2026-05-02T14:46:57.395Z</time></trkpt><trkpt lat="46.6498583" lon="12.428045"><ele>1604.0</ele><time>2026-05-02T14:46:58.396Z</time></trkpt><trkpt lat="46.64977" lon="12.428185"><ele>1604.5</ele><time>2026-05-02T14:46:59.396Z</time></trkpt><trkpt lat="46.6497033" lon="12.42836"><ele>1605.0</ele><time>2026-05-02T14:47:00.396Z</time></trkpt><trkpt lat="46.64966" lon="12.42855"><ele>1605.0</ele><time>2026-05-02T14:47:01.395Z</time></trkpt><trkpt lat="46.6496367" lon="12.4287633"><ele>1605.0</ele><time>2026-05-02T14:47:02.396Z</time></trkpt><trkpt lat="46.64963" lon="12.4289733"><ele>1605.0</ele><time>2026-05-02T14:47:03.396Z</time></trkpt><trkpt lat="46.6496267" lon="12.4291733"><ele>1605.0</ele><time>2026-05-02T14:47:04.396Z</time></trkpt><trkpt lat="46.6496267" lon="12.429365"><ele>1605.0</ele><time>2026-05-02T14:47:05.395Z</time></trkpt><trkpt lat="46.6496517" lon="12.4295483"><ele>1605.0</ele><time>2026-05-02T14:47:06.396Z</time></trkpt><trkpt lat="46.6496917" lon="12.4297183"><ele>1605.0</ele><time>2026-05-02T14:47:07.396Z</time></trkpt><trkpt lat="46.6497617" lon="12.429865"><ele>1605.0</ele><time>2026-05-02T14:47:08.396Z</time></trkpt><trkpt lat="46.649845" lon="12.4299917"><ele>1604.75</ele><time>2026-05-02T14:47:09.396Z</time></trkpt><trkpt lat="46.6499433" lon="12.4300933"><ele>1604.5</ele><time>2026-05-02T14:47:10.396Z</time></trkpt><trkpt lat="46.650065" lon="12.4301583"><ele>1604.25</ele><time>2026-05-02T14:47:11.396Z</time></trkpt><trkpt lat="46.6501783" lon="12.4301733"><ele>1604.0</ele><time>2026-05-02T14:47:12.396Z</time></trkpt><trkpt lat="46.6503033" lon="12.4301467"><ele>1604.0</ele><time>2026-05-02T14:47:13.395Z</time></trkpt><trkpt lat="46.6504317" lon="12.4301117"><ele>1604.0</ele><time>2026-05-02T14:47:14.395Z</time></trkpt><trkpt lat="46.650555" lon="12.4300883"><ele>1604.0</ele><time>2026-05-02T14:47:15.396Z</time></trkpt><trkpt lat="46.6506767" lon="12.4301017"><ele>1604.0</ele><time>2026-05-02T14:47:16.396Z</time></trkpt><trkpt lat="46.6507883" lon="12.43016"><ele>1604.0</ele><time>2026-05-02T14:47:17.396Z</time></trkpt><trkpt lat="46.6509" lon="12.43025"><ele>1604.0</ele><time>2026-05-02T14:47:18.396Z</time></trkpt><trkpt lat="46.651005" lon="12.4303583"><ele>1604.0</ele><time>2026-05-02T14:47:19.396Z</time></trkpt><trkpt lat="46.6511017" lon="12.43048"><ele>1604.0</ele><time>2026-05-02T14:47:20.396Z</time></trkpt><trkpt lat="46.651195" lon="12.4306083"><ele>1603.75</ele><time>2026-05-02T14:47:21.395Z</time></trkpt><trkpt lat="46.6512783" lon="12.43073"><ele>1603.5</ele><time>2026-05-02T14:47:22.396Z</time></trkpt><trkpt lat="46.6513583" lon="12.4308667"><ele>1603.25</ele><time>2026-05-02T14:47:23.396Z</time></trkpt><trkpt lat="46.6514233" lon="12.431"><ele>1603.0</ele><time>2026-05-02T14:47:24.396Z</time></trkpt><trkpt lat="46.6514633" lon="12.4311467"><ele>1603.0</ele><time>2026-05-02T14:47:25.396Z</time></trkpt><trkpt lat="46.65147" lon="12.4312983"><ele>1603.0</ele><time>2026-05-02T14:47:26.396Z</time></trkpt><trkpt lat="46.651455" lon="12.4314683"><ele>1603.0</ele><time>2026-05-02T14:47:27.395Z</time></trkpt><trkpt lat="46.651445" lon="12.4316467"><ele>1603.0</ele><time>2026-05-02T14:47:28.396Z</time></trkpt><trkpt lat="46.6514367" lon="12.43183"><ele>1601.5</ele><time>2026-05-02T14:47:29.396Z</time></trkpt><trkpt lat="46.6514517" lon="12.4320183"><ele>1600.0</ele><time>2026-05-02T14:47:30.396Z</time></trkpt><trkpt lat="46.6514533" lon="12.4321983"><ele>1598.5</ele><time>2026-05-02T14:47:31.396Z</time></trkpt><trkpt lat="46.65144" lon="12.4323767"><ele>1597.0</ele><time>2026-05-02T14:47:32.396Z</time></trkpt><trkpt lat="46.6514267" lon="12.4325517"><ele>1597.0</ele><time>2026-05-02T14:47:33.395Z</time></trkpt><trkpt lat="46.6514217" lon="12.43272"><ele>1597.0</ele><time>2026-05-02T14:47:34.396Z</time></trkpt><trkpt lat="46.6514367" lon="12.43289"><ele>1597.0</ele><time>2026-05-02T14:47:35.396Z</time></trkpt><trkpt lat="46.6514683" lon="12.4330633"><ele>1597.0</ele><time>2026-05-02T14:47:36.396Z</time></trkpt><trkpt lat="46.6515033" lon="12.4332367"><ele>1596.8</ele><time>2026-05-02T14:47:37.396Z</time></trkpt><trkpt lat="46.6515117" lon="12.4334017"><ele>1596.6</ele><time>2026-05-02T14:47:38.396Z</time></trkpt><trkpt lat="46.6515" lon="12.4335617"><ele>1596.3999999999999</ele><time>2026-05-02T14:47:39.396Z</time></trkpt><trkpt lat="46.6514917" lon="12.4337017"><ele>1596.1999999999998</ele><time>2026-05-02T14:47:40.396Z</time></trkpt><trkpt lat="46.651505" lon="12.4338633"><ele>1596.0</ele><time>2026-05-02T14:47:41.395Z</time></trkpt><trkpt lat="46.6515533" lon="12.43402"><ele>1593.75</ele><time>2026-05-02T14:47:42.396Z</time></trkpt><trkpt lat="46.6516183" lon="12.4341517"><ele>1591.5</ele><time>2026-05-02T14:47:43.396Z</time></trkpt><trkpt lat="46.6517" lon="12.4342583"><ele>1589.25</ele><time>2026-05-02T14:47:44.396Z</time></trkpt><trkpt lat="46.65179" lon="12.434345"><ele>1587.0</ele><time>2026-05-02T14:47:45.396Z</time></trkpt><trkpt lat="46.6519" lon="12.4344267"><ele>1593.5</ele><time>2026-05-02T14:47:46.395Z</time></trkpt><trkpt lat="46.652005" lon="12.43455"><ele>1600.0</ele><time>2026-05-02T14:47:47.394Z</time></trkpt><trkpt lat="46.6520633" lon="12.4346883"><ele>1606.5</ele><time>2026-05-02T14:47:48.394Z</time></trkpt><trkpt lat="46.652095" lon="12.434865"><ele>1613.0</ele><time>2026-05-02T14:47:49.394Z</time></trkpt><trkpt lat="46.652115" lon="12.43509"><ele>1613.0</ele><time>2026-05-02T14:47:50.395Z</time></trkpt><trkpt lat="46.6521267" lon="12.43537"><ele>1613.0</ele><time>2026-05-02T14:47:51.395Z</time></trkpt><trkpt lat="46.652125" lon="12.4356783"><ele>1613.0</ele><time>2026-05-02T14:47:52.394Z</time></trkpt><trkpt lat="46.6521083" lon="12.4359983"><ele>1615.0</ele><time>2026-05-02T14:47:53.394Z</time></trkpt><trkpt lat="46.6521083" lon="12.4363067"><ele>1617.0</ele><time>2026-05-02T14:47:54.394Z</time></trkpt><trkpt lat="46.65212" lon="12.4365867"><ele>1619.0</ele><time>2026-05-02T14:47:55.395Z</time></trkpt><trkpt lat="46.65211" lon="12.4368617"><ele>1619.0</ele><time>2026-05-02T14:47:56.395Z</time></trkpt><trkpt lat="46.652065" lon="12.437115"><ele>1619.0</ele><time>2026-05-02T14:47:57.394Z</time></trkpt><trkpt lat="46.6520033" lon="12.43734"><ele>1619.0</ele><time>2026-05-02T14:47:58.395Z</time></trkpt><trkpt lat="46.6519367" lon="12.4375583"><ele>1607.25</ele><time>2026-05-02T14:47:59.394Z</time></trkpt><trkpt lat="46.651855" lon="12.43775"><ele>1595.5</ele><time>2026-05-02T14:48:00.395Z</time></trkpt><trkpt lat="46.6517917" lon="12.4379083"><ele>1583.75</ele><time>2026-05-02T14:48:01.395Z</time></trkpt><trkpt lat="46.651745" lon="12.438035"><ele>1572.0</ele><time>2026-05-02T14:48:02.395Z</time></trkpt><trkpt lat="46.65174" lon="12.43817"><ele>1572.0</ele><time>2026-05-02T14:48:03.395Z</time></trkpt><trkpt lat="46.6517567" lon="12.4382933"><ele>1572.0</ele><time>2026-05-02T14:48:04.394Z</time></trkpt><trkpt lat="46.651775" lon="12.43841"><ele>1572.0</ele><time>2026-05-02T14:48:05.395Z</time></trkpt><trkpt lat="46.6518433" lon="12.4385133"><ele>1572.0</ele><time>2026-05-02T14:48:06.395Z</time></trkpt><trkpt lat="46.6519317" lon="12.4386117"><ele>1572.0</ele><time>2026-05-02T14:48:07.394Z</time></trkpt><trkpt lat="46.6520283" lon="12.4387083"><ele>1573.6</ele><time>2026-05-02T14:48:08.395Z</time></trkpt><trkpt lat="46.652125" lon="12.4388083"><ele>1575.1999999999998</ele><time>2026-05-02T14:48:09.394Z</time></trkpt><trkpt lat="46.6522167" lon="12.4389033"><ele>1576.8</ele><time>2026-05-02T14:48:10.395Z</time></trkpt><trkpt lat="46.652295" lon="12.4390083"><ele>1578.4</ele><time>2026-05-02T14:48:11.395Z</time></trkpt><trkpt lat="46.65236" lon="12.4391317"><ele>1580.0</ele><time>2026-05-02T14:48:12.395Z</time></trkpt><trkpt lat="46.65241" lon="12.4392667"><ele>1580.0</ele><time>2026-05-02T14:48:13.395Z</time></trkpt><trkpt lat="46.6524433" lon="12.4394167"><ele>1580.0</ele><time>2026-05-02T14:48:14.395Z</time></trkpt><trkpt lat="46.6524767" lon="12.439575"><ele>1580.0</ele><time>2026-05-02T14:48:15.395Z</time></trkpt><trkpt lat="46.6525217" lon="12.43973"><ele>1580.0</ele><time>2026-05-02T14:48:16.395Z</time></trkpt><trkpt lat="46.652575" lon="12.4398767"><ele>1580.2</ele><time>2026-05-02T14:48:17.394Z</time></trkpt><trkpt lat="46.652645" lon="12.44"><ele>1580.4</ele><time>2026-05-02T14:48:18.394Z</time></trkpt><trkpt lat="46.6527267" lon="12.4401"><ele>1580.6</ele><time>2026-05-02T14:48:19.395Z</time></trkpt><trkpt lat="46.6528167" lon="12.4401733"><ele>1580.8</ele><time>2026-05-02T14:48:20.395Z</time></trkpt><trkpt lat="46.6529383" lon="12.4402283"><ele>1581.0</ele><time>2026-05-02T14:48:21.394Z</time></trkpt><trkpt lat="46.6530617" lon="12.4402733"><ele>1581.0</ele><time>2026-05-02T14:48:22.395Z</time></trkpt><trkpt lat="46.6531933" lon="12.4403033"><ele>1581.0</ele><time>2026-05-02T14:48:23.395Z</time></trkpt><trkpt lat="46.653315" lon="12.4403433"><ele>1581.0</ele><time>2026-05-02T14:48:24.394Z</time></trkpt><trkpt lat="46.65344" lon="12.4403817"><ele>1581.0</ele><time>2026-05-02T14:48:25.395Z</time></trkpt><trkpt lat="46.653555" lon="12.440415"><ele>1582.6</ele><time>2026-05-02T14:48:26.395Z</time></trkpt><trkpt lat="46.6536583" lon="12.44047"><ele>1584.1999999999998</ele><time>2026-05-02T14:48:27.395Z</time></trkpt><trkpt lat="46.6537467" lon="12.440545"><ele>1585.8000000000002</ele><time>2026-05-02T14:48:28.395Z</time></trkpt><trkpt lat="46.653805" lon="12.4406333"><ele>1587.4</ele><time>2026-05-02T14:48:29.394Z</time></trkpt><trkpt lat="46.6538467" lon="12.4407467"><ele>1589.0</ele><time>2026-05-02T14:48:30.395Z</time></trkpt><trkpt lat="46.6538567" lon="12.44089"><ele>1589.0</ele><time>2026-05-02T14:48:31.395Z</time></trkpt><trkpt lat="46.653845" lon="12.4410333"><ele>1589.0</ele><time>2026-05-02T14:48:32.395Z</time></trkpt><trkpt lat="46.6538167" lon="12.4411633"><ele>1589.0</ele><time>2026-05-02T14:48:33.395Z</time></trkpt><trkpt lat="46.6537683" lon="12.4412867"><ele>1589.0</ele><time>2026-05-02T14:48:34.395Z</time></trkpt><trkpt lat="46.6536983" lon="12.4414033"><ele>1589.0</ele><time>2026-05-02T14:48:35.394Z</time></trkpt><trkpt lat="46.6536183" lon="12.4415133"><ele>1581.2</ele><time>2026-05-02T14:48:36.394Z</time></trkpt><trkpt lat="46.6535367" lon="12.4416217"><ele>1573.4</ele><time>2026-05-02T14:48:37.395Z</time></trkpt><trkpt lat="46.6534583" lon="12.4417283"><ele>1565.6</ele><time>2026-05-02T14:48:38.395Z</time></trkpt><trkpt lat="46.653385" lon="12.4418217"><ele>1557.8</ele><time>2026-05-02T14:48:39.394Z</time></trkpt><trkpt lat="46.65332" lon="12.44193"><ele>1550.0</ele><time>2026-05-02T14:48:40.395Z</time></trkpt><trkpt lat="46.65327" lon="12.4420333"><ele>1552.0</ele><time>2026-05-02T14:48:41.395Z</time></trkpt><trkpt lat="46.6532383" lon="12.4421483"><ele>1554.0</ele><time>2026-05-02T14:48:42.395Z</time></trkpt><trkpt lat="46.6532367" lon="12.4422983"><ele>1556.0</ele><time>2026-05-02T14:48:43.395Z</time></trkpt><trkpt lat="46.653245" lon="12.4424617"><ele>1558.0</ele><time>2026-05-02T14:48:44.395Z</time></trkpt><trkpt lat="46.65325" lon="12.4426183"><ele>1560.0</ele><time>2026-05-02T14:48:45.394Z</time></trkpt><trkpt lat="46.6532583" lon="12.4427817"><ele>1560.0</ele><time>2026-05-02T14:48:46.395Z</time></trkpt><trkpt lat="46.6532783" lon="12.44294"><ele>1560.0</ele><time>2026-05-02T14:48:47.395Z</time></trkpt><trkpt lat="46.6533167" lon="12.4431"><ele>1560.0</ele><time>2026-05-02T14:48:48.395Z</time></trkpt><trkpt lat="46.6533667" lon="12.44326"><ele>1560.0</ele><time>2026-05-02T14:48:49.395Z</time></trkpt><trkpt lat="46.65341" lon="12.4434233"><ele>1558.5</ele><time>2026-05-02T14:48:50.395Z</time></trkpt><trkpt lat="46.653445" lon="12.4436"><ele>1557.0</ele><time>2026-05-02T14:48:51.394Z</time></trkpt><trkpt lat="46.653465" lon="12.4437717"><ele>1555.5</ele><time>2026-05-02T14:48:52.395Z</time></trkpt><trkpt lat="46.6534967" lon="12.44394"><ele>1554.0</ele><time>2026-05-02T14:48:53.394Z</time></trkpt><trkpt lat="46.65352" lon="12.4440933"><ele>1553.4</ele><time>2026-05-02T14:48:54.395Z</time></trkpt><trkpt lat="46.653535" lon="12.4442433"><ele>1552.8000000000002</ele><time>2026-05-02T14:48:55.394Z</time></trkpt><trkpt lat="46.6535317" lon="12.4444083"><ele>1552.1999999999998</ele><time>2026-05-02T14:48:56.395Z</time></trkpt><trkpt lat="46.653495" lon="12.4445683"><ele>1551.6</ele><time>2026-05-02T14:48:57.395Z</time></trkpt><trkpt lat="46.65344" lon="12.4447117"><ele>1551.0</ele><time>2026-05-02T14:48:58.395Z</time></trkpt><trkpt lat="46.6533817" lon="12.4448517"><ele>1551.0</ele><time>2026-05-02T14:48:59.395Z</time></trkpt><trkpt lat="46.653335" lon="12.4450033"><ele>1551.0</ele><time>2026-05-02T14:49:00.394Z</time></trkpt><trkpt lat="46.653305" lon="12.4451483"><ele>1551.0</ele><time>2026-05-02T14:49:01.395Z</time></trkpt><trkpt lat="46.6532767" lon="12.445285"><ele>1551.0</ele><time>2026-05-02T14:49:02.395Z</time></trkpt><trkpt lat="46.6532383" lon="12.445445"><ele>1551.0</ele><time>2026-05-02T14:49:03.395Z</time></trkpt><trkpt lat="46.6531783" lon="12.445615"><ele>1555.6666666666665</ele><time>2026-05-02T14:49:04.394Z</time></trkpt><trkpt lat="46.6531033" lon="12.4458017"><ele>1560.3333333333333</ele><time>2026-05-02T14:49:05.395Z</time></trkpt><trkpt lat="46.6529867" lon="12.44601"><ele>1565.0</ele><time>2026-05-02T14:49:06.395Z</time></trkpt><trkpt lat="46.65285" lon="12.4462233"><ele>1556.6666666666665</ele><time>2026-05-02T14:49:07.395Z</time></trkpt><trkpt lat="46.6527233" lon="12.4464633"><ele>1548.3333333333335</ele><time>2026-05-02T14:49:08.395Z</time></trkpt><trkpt lat="46.652575" lon="12.446685"><ele>1540.0</ele><time>2026-05-02T14:49:09.395Z</time></trkpt><trkpt lat="46.6524217" lon="12.4468967"><ele>1540.0</ele><time>2026-05-02T14:49:10.395Z</time></trkpt><trkpt lat="46.6522433" lon="12.4470733"><ele>1540.0</ele><time>2026-05-02T14:49:11.395Z</time></trkpt><trkpt lat="46.6520533" lon="12.44724"><ele>1540.0</ele><time>2026-05-02T14:49:12.395Z</time></trkpt><trkpt lat="46.6518567" lon="12.4473867"><ele>1536.0</ele><time>2026-05-02T14:49:13.394Z</time></trkpt><trkpt lat="46.6516533" lon="12.4474833"><ele>1532.0</ele><time>2026-05-02T14:49:14.395Z</time></trkpt><trkpt lat="46.65146" lon="12.4475567"><ele>1528.0</ele><time>2026-05-02T14:49:15.395Z</time></trkpt><trkpt lat="46.651295" lon="12.4476083"><ele>1528.0</ele><time>2026-05-02T14:49:16.395Z</time></trkpt><trkpt lat="46.6511617" lon="12.4476267"><ele>1528.0</ele><time>2026-05-02T14:49:17.395Z</time></trkpt><trkpt lat="46.6510433" lon="12.44759"><ele>1528.0</ele><time>2026-05-02T14:49:18.395Z</time></trkpt><trkpt lat="46.650945" lon="12.4474983"><ele>1528.0</ele><time>2026-05-02T14:49:19.395Z</time></trkpt><trkpt lat="46.650865" lon="12.4473533"><ele>1526.75</ele><time>2026-05-02T14:49:20.394Z</time></trkpt><trkpt lat="46.65083" lon="12.44718"><ele>1525.5</ele><time>2026-05-02T14:49:21.394Z</time></trkpt><trkpt lat="46.6508383" lon="12.4469617"><ele>1524.25</ele><time>2026-05-02T14:49:22.395Z</time></trkpt><trkpt lat="46.65087" lon="12.4467483"><ele>1523.0</ele><time>2026-05-02T14:49:23.395Z</time></trkpt><trkpt lat="46.650875" lon="12.44657"><ele>1522.4</ele><time>2026-05-02T14:49:24.395Z</time></trkpt><trkpt lat="46.6508517" lon="12.446435"><ele>1521.8000000000002</ele><time>2026-05-02T14:49:25.395Z</time></trkpt><trkpt lat="46.6507883" lon="12.446345"><ele>1521.2</ele><time>2026-05-02T14:49:26.394Z</time></trkpt><trkpt lat="46.6507067" lon="12.446305"><ele>1520.6</ele><time>2026-05-02T14:49:27.394Z</time></trkpt><trkpt lat="46.6506" lon="12.4463133"><ele>1520.0</ele><time>2026-05-02T14:49:28.395Z</time></trkpt><trkpt lat="46.6504817" lon="12.4463533"><ele>1520.0</ele><time>2026-05-02T14:49:29.394Z</time></trkpt><trkpt lat="46.6503267" lon="12.4464667"><ele>1520.0</ele><time>2026-05-02T14:49:30.395Z</time></trkpt><trkpt lat="46.65018" lon="12.4465883"><ele>1520.0</ele><time>2026-05-02T14:49:31.395Z</time></trkpt><trkpt lat="46.65005" lon="12.446755"><ele>1520.3333333333335</ele><time>2026-05-02T14:49:32.395Z</time></trkpt><trkpt lat="46.6499383" lon="12.44696"><ele>1520.6666666666667</ele><time>2026-05-02T14:49:33.395Z</time></trkpt><trkpt lat="46.64985" lon="12.447225"><ele>1521.0</ele><time>2026-05-02T14:49:34.395Z</time></trkpt><trkpt lat="46.649765" lon="12.4475167"><ele>1521.0</ele><time>2026-05-02T14:49:35.394Z</time></trkpt><trkpt lat="46.6496767" lon="12.4477917"><ele>1521.0</ele><time>2026-05-02T14:49:36.395Z</time></trkpt><trkpt lat="46.6495817" lon="12.44804"><ele>1521.0</ele><time>2026-05-02T14:49:37.395Z</time></trkpt><trkpt lat="46.64947" lon="12.4482467"><ele>1514.3333333333333</ele><time>2026-05-02T14:49:38.395Z</time></trkpt><trkpt lat="46.6493417" lon="12.44843"><ele>1507.6666666666665</ele><time>2026-05-02T14:49:39.395Z</time></trkpt><trkpt lat="46.6491867" lon="12.4486"><ele>1501.0</ele><time>2026-05-02T14:49:40.395Z</time></trkpt><trkpt lat="46.6490117" lon="12.4487117"><ele>1501.0</ele><time>2026-05-02T14:49:41.395Z</time></trkpt><trkpt lat="46.648835" lon="12.44878"><ele>1501.0</ele><time>2026-05-02T14:49:42.394Z</time></trkpt><trkpt lat="46.6486617" lon="12.4488733"><ele>1501.0</ele><time>2026-05-02T14:49:43.394Z</time></trkpt><trkpt lat="46.648495" lon="12.4490567"><ele>1497.5</ele><time>2026-05-02T14:49:44.395Z</time></trkpt><trkpt lat="46.6483217" lon="12.4492817"><ele>1494.0</ele><time>2026-05-02T14:49:45.394Z</time></trkpt><trkpt lat="46.6481583" lon="12.44953"><ele>1490.0</ele><time>2026-05-02T14:49:46.395Z</time></trkpt><trkpt lat="46.6480133" lon="12.4497767"><ele>1486.0</ele><time>2026-05-02T14:49:47.395Z</time></trkpt><trkpt lat="46.6479033" lon="12.4499917"><ele>1482.0</ele><time>2026-05-02T14:49:48.395Z</time></trkpt><trkpt lat="46.6477533" lon="12.4501417"><ele>1482.0</ele><time>2026-05-02T14:49:49.395Z</time></trkpt><trkpt lat="46.6475867" lon="12.4502767"><ele>1482.0</ele><time>2026-05-02T14:49:50.395Z</time></trkpt><trkpt lat="46.6474167" lon="12.4504183"><ele>1482.0</ele><time>2026-05-02T14:49:51.394Z</time></trkpt><trkpt lat="46.6472483" lon="12.45055"><ele>1480.6666666666667</ele><time>2026-05-02T14:49:52.395Z</time></trkpt><trkpt lat="46.6470833" lon="12.4506617"><ele>1479.3333333333335</ele><time>2026-05-02T14:49:53.395Z</time></trkpt><trkpt lat="46.64693" lon="12.45078"><ele>1478.0</ele><time>2026-05-02T14:49:54.395Z</time></trkpt><trkpt lat="46.6467783" lon="12.450885"><ele>1478.0</ele><time>2026-05-02T14:49:55.395Z</time></trkpt><trkpt lat="46.6466283" lon="12.450965"><ele>1478.0</ele><time>2026-05-02T14:49:56.395Z</time></trkpt><trkpt lat="46.6464833" lon="12.4510633"><ele>1478.0</ele><time>2026-05-02T14:49:57.395Z</time></trkpt><trkpt lat="46.6463483" lon="12.4511533"><ele>1478.0</ele><time>2026-05-02T14:49:58.395Z</time></trkpt><trkpt lat="46.646225" lon="12.4512833"><ele>1478.0</ele><time>2026-05-02T14:49:59.395Z</time></trkpt><trkpt lat="46.6461383" lon="12.4514083"><ele>1478.0</ele><time>2026-05-02T14:50:00.395Z</time></trkpt><trkpt lat="46.646075" lon="12.451535"><ele>1478.0</ele><time>2026-05-02T14:50:01.395Z</time></trkpt><trkpt lat="46.64604" lon="12.45167"><ele>1476.2</ele><time>2026-05-02T14:50:02.395Z</time></trkpt><trkpt lat="46.6460283" lon="12.4518267"><ele>1474.4</ele><time>2026-05-02T14:50:03.394Z</time></trkpt><trkpt lat="46.64601" lon="12.4519417"><ele>1472.6000000000001</ele><time>2026-05-02T14:50:04.394Z</time></trkpt><trkpt lat="46.6459367" lon="12.4520567"><ele>1470.8000000000002</ele><time>2026-05-02T14:50:06.395Z</time></trkpt><trkpt lat="46.6458433" lon="12.4519567"><ele>1469.0</ele><time>2026-05-02T14:50:08.395Z</time></trkpt><trkpt lat="46.6458383" lon="12.4518533"><ele>1469.0</ele><time>2026-05-02T14:50:09.395Z</time></trkpt><trkpt lat="46.645865" lon="12.4517283"><ele>1469.0</ele><time>2026-05-02T14:50:10.394Z</time></trkpt><trkpt lat="46.64592" lon="12.4516033"><ele>1469.0</ele><time>2026-05-02T14:50:11.395Z</time></trkpt><trkpt lat="46.64602" lon="12.4514633"><ele>1469.0</ele><time>2026-05-02T14:50:12.395Z</time></trkpt><trkpt lat="46.6461317" lon="12.4513283"><ele>1471.25</ele><time>2026-05-02T14:50:13.395Z</time></trkpt><trkpt lat="46.6462417" lon="12.4512017"><ele>1473.5</ele><time>2026-05-02T14:50:14.395Z</time></trkpt><trkpt lat="46.6463533" lon="12.4510983"><ele>1475.75</ele><time>2026-05-02T14:50:15.394Z</time></trkpt><trkpt lat="46.6464767" lon="12.451005"><ele>1478.0</ele><time>2026-05-02T14:50:16.395Z</time></trkpt><trkpt lat="46.6465833" lon="12.4509033"><ele>1478.0</ele><time>2026-05-02T14:50:17.395Z</time></trkpt><trkpt lat="46.6466733" lon="12.4507833"><ele>1478.0</ele><time>2026-05-02T14:50:18.395Z</time></trkpt><trkpt lat="46.64677" lon="12.4506633"><ele>1478.0</ele><time>2026-05-02T14:50:19.395Z</time></trkpt><trkpt lat="46.6468867" lon="12.450535"><ele>1478.0</ele><time>2026-05-02T14:50:20.395Z</time></trkpt><trkpt lat="46.6470233" lon="12.4504217"><ele>1479.3333333333335</ele><time>2026-05-02T14:50:21.395Z</time></trkpt><trkpt lat="46.6471583" lon="12.4502783"><ele>1480.6666666666667</ele><time>2026-05-02T14:50:22.394Z</time></trkpt><trkpt lat="46.6472867" lon="12.4501217"><ele>1482.0</ele><time>2026-05-02T14:50:23.394Z</time></trkpt><trkpt lat="46.64741" lon="12.4499583"><ele>1482.0</ele><time>2026-05-02T14:50:24.395Z</time></trkpt><trkpt lat="46.64753" lon="12.4497967"><ele>1482.0</ele><time>2026-05-02T14:50:25.395Z</time></trkpt><trkpt lat="46.6476433" lon="12.4496183"><ele>1482.0</ele><time>2026-05-02T14:50:26.395Z</time></trkpt><trkpt lat="46.647745" lon="12.4494317"><ele>1486.0</ele><time>2026-05-02T14:50:27.395Z</time></trkpt><trkpt lat="46.64783" lon="12.4492367"><ele>1490.0</ele><time>2026-05-02T14:50:28.395Z</time></trkpt><trkpt lat="46.6478983" lon="12.4490317"><ele>1494.0</ele><time>2026-05-02T14:50:29.395Z</time></trkpt><trkpt lat="46.6479583" lon="12.44883"><ele>1487.5</ele><time>2026-05-02T14:50:30.395Z</time></trkpt><trkpt lat="46.6480267" lon="12.4486533"><ele>1481.0</ele><time>2026-05-02T14:50:31.394Z</time></trkpt><trkpt lat="46.6481" lon="12.4484933"><ele>1474.5</ele><time>2026-05-02T14:50:32.395Z</time></trkpt><trkpt lat="46.6481683" lon="12.448355"><ele>1468.0</ele><time>2026-05-02T14:50:33.395Z</time></trkpt><trkpt lat="46.64822" lon="12.448235"><ele>1468.0</ele><time>2026-05-02T14:50:34.395Z</time></trkpt><trkpt lat="46.6482583" lon="12.4481333"><ele>1468.0</ele><time>2026-05-02T14:50:35.395Z</time></trkpt><trkpt lat="46.648275" lon="12.44804"><ele>1468.0</ele><time>2026-05-02T14:50:36.395Z</time></trkpt><trkpt lat="46.6482383" lon="12.44789"><ele>1468.0</ele><time>2026-05-02T14:50:38.395Z</time></trkpt><trkpt lat="46.6481717" lon="12.4478617"><ele>1468.0</ele><time>2026-05-02T14:50:39.395Z</time></trkpt><trkpt lat="46.648095" lon="12.447865"><ele>1468.0</ele><time>2026-05-02T14:50:40.395Z</time></trkpt><trkpt lat="46.6480217" lon="12.4479233"><ele>1468.0</ele><time>2026-05-02T14:50:41.394Z</time></trkpt><trkpt lat="46.6479533" lon="12.448045"><ele>1468.0</ele><time>2026-05-02T14:50:42.395Z</time></trkpt><trkpt lat="46.6478967" lon="12.4482083"><ele>1468.0</ele><time>2026-05-02T14:50:43.394Z</time></trkpt><trkpt lat="46.6478483" lon="12.4483817"><ele>1468.0</ele><time>2026-05-02T14:50:44.395Z</time></trkpt><trkpt lat="46.6477933" lon="12.44856"><ele>1467.75</ele><time>2026-05-02T14:50:45.395Z</time></trkpt><trkpt lat="46.64774" lon="12.44875"><ele>1467.5</ele><time>2026-05-02T14:50:46.395Z</time></trkpt><trkpt lat="46.6476683" lon="12.4489217"><ele>1467.25</ele><time>2026-05-02T14:50:47.395Z</time></trkpt><trkpt lat="46.6475783" lon="12.4490883"><ele>1467.0</ele><time>2026-05-02T14:50:48.394Z</time></trkpt><trkpt lat="46.64746" lon="12.4492483"><ele>1467.0</ele><time>2026-05-02T14:50:49.395Z</time></trkpt><trkpt lat="46.64732" lon="12.4494"><ele>1467.0</ele><time>2026-05-02T14:50:50.395Z</time></trkpt><trkpt lat="46.6471767" lon="12.4495683"><ele>1467.0</ele><time>2026-05-02T14:50:51.395Z</time></trkpt><trkpt lat="46.6470283" lon="12.4497417"><ele>1463.0</ele><time>2026-05-02T14:50:52.395Z</time></trkpt><trkpt lat="46.646885" lon="12.4499267"><ele>1459.0</ele><time>2026-05-02T14:50:53.395Z</time></trkpt><trkpt lat="46.6467233" lon="12.4500583"><ele>1455.0</ele><time>2026-05-02T14:50:54.395Z</time></trkpt><trkpt lat="46.6465817" lon="12.4501967"><ele>1455.0</ele><time>2026-05-02T14:50:55.394Z</time></trkpt><trkpt lat="46.6464517" lon="12.4503267"><ele>1455.0</ele><time>2026-05-02T14:50:56.395Z</time></trkpt><trkpt lat="46.646335" lon="12.4504533"><ele>1455.0</ele><time>2026-05-02T14:50:57.395Z</time></trkpt><trkpt lat="46.6462283" lon="12.4505833"><ele>1455.0</ele><time>2026-05-02T14:50:58.395Z</time></trkpt><trkpt lat="46.646105" lon="12.450655"><ele>1453.6</ele><time>2026-05-02T14:50:59.395Z</time></trkpt><trkpt lat="46.64601" lon="12.4507267"><ele>1452.2</ele><time>2026-05-02T14:51:00.395Z</time></trkpt><trkpt lat="46.6459217" lon="12.450785"><ele>1450.8000000000002</ele><time>2026-05-02T14:51:01.395Z</time></trkpt><trkpt lat="46.6458367" lon="12.4508433"><ele>1449.4</ele><time>2026-05-02T14:51:02.395Z</time></trkpt><trkpt lat="46.6457517" lon="12.4508933"><ele>1448.0</ele><time>2026-05-02T14:51:03.395Z</time></trkpt><trkpt lat="46.6456667" lon="12.4509367"><ele>1448.0</ele><time>2026-05-02T14:51:04.395Z</time></trkpt><trkpt lat="46.6455867" lon="12.45101"><ele>1448.0</ele><time>2026-05-02T14:51:05.395Z</time></trkpt><trkpt lat="46.6454933" lon="12.451105"><ele>1448.0</ele><time>2026-05-02T14:51:06.395Z</time></trkpt><trkpt lat="46.6453967" lon="12.4512317"><ele>1448.0</ele><time>2026-05-02T14:51:07.395Z</time></trkpt><trkpt lat="46.6453017" lon="12.4513633"><ele>1447.5</ele><time>2026-05-02T14:51:08.394Z</time></trkpt><trkpt lat="46.6452133" lon="12.45148"><ele>1447.0</ele><time>2026-05-02T14:51:09.395Z</time></trkpt><trkpt lat="46.6451367" lon="12.4515767"><ele>1446.5</ele><time>2026-05-02T14:51:10.394Z</time></trkpt><trkpt lat="46.645075" lon="12.4516483"><ele>1446.0</ele><time>2026-05-02T14:51:11.395Z</time></trkpt><trkpt lat="46.6450317" lon="12.451715"><ele>1445.5</ele><time>2026-05-02T14:51:12.394Z</time></trkpt><trkpt lat="46.6449683" lon="12.4517917"><ele>1445.0</ele><time>2026-05-02T14:51:14.395Z</time></trkpt><trkpt lat="46.6449083" lon="12.4518483"><ele>1445.0</ele><time>2026-05-02T14:51:17.395Z</time></trkpt><trkpt lat="46.64484" lon="12.4519133"><ele>1445.0</ele><time>2026-05-02T14:51:20.395Z</time></trkpt><trkpt lat="46.6447767" lon="12.4519583"><ele>1445.0</ele><time>2026-05-02T14:51:23.395Z</time></trkpt><trkpt lat="46.6447117" lon="12.4520633"><ele>1445.0</ele><time>2026-05-02T14:52:13.395Z</time></trkpt><trkpt lat="46.6446417" lon="12.4521383"><ele>1445.0</ele><time>2026-05-02T14:52:15.394Z</time></trkpt><trkpt lat="46.6446033" lon="12.4522283"><ele>1445.0</ele><time>2026-05-02T14:52:16.395Z</time></trkpt><trkpt lat="46.64456" lon="12.4523333"><ele>1444.2</ele><time>2026-05-02T14:52:17.395Z</time></trkpt><trkpt lat="46.6445067" lon="12.452455"><ele>1443.4</ele><time>2026-05-02T14:52:18.395Z</time></trkpt><trkpt lat="46.6444483" lon="12.4525933"><ele>1442.6</ele><time>2026-05-02T14:52:19.395Z</time></trkpt><trkpt lat="46.6444" lon="12.45275"><ele>1441.8</ele><time>2026-05-02T14:52:20.395Z</time></trkpt><trkpt lat="46.6443483" lon="12.4528983"><ele>1441.0</ele><time>2026-05-02T14:52:21.395Z</time></trkpt><trkpt lat="46.6442867" lon="12.4530433"><ele>1441.0</ele><time>2026-05-02T14:52:22.395Z</time></trkpt><trkpt lat="46.6442367" lon="12.453185"><ele>1441.0</ele><time>2026-05-02T14:52:23.394Z</time></trkpt><trkpt lat="46.6441683" lon="12.4533233"><ele>1441.0</ele><time>2026-05-02T14:52:24.395Z</time></trkpt><trkpt lat="46.6440933" lon="12.4534333"><ele>1441.0</ele><time>2026-05-02T14:52:25.395Z</time></trkpt><trkpt lat="46.644005" lon="12.4535317"><ele>1441.0</ele><time>2026-05-02T14:52:26.394Z</time></trkpt><trkpt lat="46.6438883" lon="12.45359"><ele>1441.0</ele><time>2026-05-02T14:52:27.395Z</time></trkpt><trkpt lat="46.6438217" lon="12.4537167"><ele>1441.0</ele><time>2026-05-02T14:52:28.395Z</time></trkpt><trkpt lat="46.643755" lon="12.4538417"><ele>1441.0</ele><time>2026-05-02T14:52:29.395Z</time></trkpt><trkpt lat="46.6436783" lon="12.4539633"><ele>1441.0</ele><time>2026-05-02T14:52:30.394Z</time></trkpt><trkpt lat="46.6435783" lon="12.4540833"><ele>1436.3333333333333</ele><time>2026-05-02T14:52:31.395Z</time></trkpt><trkpt lat="46.64348" lon="12.4542217"><ele>1431.6666666666667</ele><time>2026-05-02T14:52:32.394Z</time></trkpt><trkpt lat="46.643355" lon="12.4543517"><ele>1427.0</ele><time>2026-05-02T14:52:33.395Z</time></trkpt><trkpt lat="46.6432167" lon="12.4544667"><ele>1427.0</ele><time>2026-05-02T14:52:34.395Z</time></trkpt><trkpt lat="46.6430767" lon="12.454565"><ele>1427.0</ele><time>2026-05-02T14:52:35.395Z</time></trkpt><trkpt lat="46.64295" lon="12.454695"><ele>1427.0</ele><time>2026-05-02T14:52:36.395Z</time></trkpt><trkpt lat="46.6428217" lon="12.454845"><ele>1424.0</ele><time>2026-05-02T14:52:37.395Z</time></trkpt><trkpt lat="46.6426883" lon="12.4549933"><ele>1421.0</ele><time>2026-05-02T14:52:38.394Z</time></trkpt><trkpt lat="46.6425517" lon="12.45513"><ele>1418.0</ele><time>2026-05-02T14:52:39.395Z</time></trkpt><trkpt lat="46.64243" lon="12.455265"><ele>1418.0</ele><time>2026-05-02T14:52:40.395Z</time></trkpt><trkpt lat="46.642325" lon="12.455405"><ele>1418.0</ele><time>2026-05-02T14:52:41.395Z</time></trkpt><trkpt lat="46.642215" lon="12.4555517"><ele>1418.0</ele><time>2026-05-02T14:52:42.395Z</time></trkpt><trkpt lat="46.6421033" lon="12.4557"><ele>1418.0</ele><time>2026-05-02T14:52:43.395Z</time></trkpt><trkpt lat="46.64197" lon="12.4558167"><ele>1414.0</ele><time>2026-05-02T14:52:44.395Z</time></trkpt><trkpt lat="46.6418283" lon="12.45595"><ele>1410.0</ele><time>2026-05-02T14:52:45.395Z</time></trkpt><trkpt lat="46.6416833" lon="12.456075"><ele>1406.0</ele><time>2026-05-02T14:52:46.395Z</time></trkpt><trkpt lat="46.6415483" lon="12.4562183"><ele>1404.3333333333335</ele><time>2026-05-02T14:52:47.395Z</time></trkpt><trkpt lat="46.641415" lon="12.4563767"><ele>1402.6666666666667</ele><time>2026-05-02T14:52:48.395Z</time></trkpt><trkpt lat="46.64126" lon="12.45651"><ele>1401.0</ele><time>2026-05-02T14:52:49.395Z</time></trkpt><trkpt lat="46.6410983" lon="12.4566133"><ele>1401.0</ele><time>2026-05-02T14:52:50.395Z</time></trkpt><trkpt lat="46.6409333" lon="12.456715"><ele>1401.0</ele><time>2026-05-02T14:52:51.395Z</time></trkpt><trkpt lat="46.6407683" lon="12.4568183"><ele>1401.0</ele><time>2026-05-02T14:52:52.395Z</time></trkpt><trkpt lat="46.640605" lon="12.4569233"><ele>1401.0</ele><time>2026-05-02T14:52:53.395Z</time></trkpt><trkpt lat="46.6404333" lon="12.4570217"><ele>1401.0</ele><time>2026-05-02T14:52:54.395Z</time></trkpt><trkpt lat="46.6402683" lon="12.457125"><ele>1401.0</ele><time>2026-05-02T14:52:55.395Z</time></trkpt><trkpt lat="46.6401033" lon="12.45723"><ele>1403.3333333333333</ele><time>2026-05-02T14:52:56.394Z</time></trkpt><trkpt lat="46.6399317" lon="12.457345"><ele>1405.6666666666665</ele><time>2026-05-02T14:52:57.395Z</time></trkpt><trkpt lat="46.63978" lon="12.4574733"><ele>1408.0</ele><time>2026-05-02T14:52:58.395Z</time></trkpt><trkpt lat="46.6396283" lon="12.4576083"><ele>1408.0</ele><time>2026-05-02T14:52:59.395Z</time></trkpt><trkpt lat="46.6394783" lon="12.4577467"><ele>1408.0</ele><time>2026-05-02T14:53:00.394Z</time></trkpt><trkpt lat="46.6393267" lon="12.4578867"><ele>1408.0</ele><time>2026-05-02T14:53:01.395Z</time></trkpt><trkpt lat="46.6391783" lon="12.45804"><ele>1405.0</ele><time>2026-05-02T14:53:02.394Z</time></trkpt><trkpt lat="46.6390333" lon="12.458195"><ele>1402.0</ele><time>2026-05-02T14:53:03.395Z</time></trkpt><trkpt lat="46.638875" lon="12.458325"><ele>1399.0</ele><time>2026-05-02T14:53:04.394Z</time></trkpt><trkpt lat="46.6387283" lon="12.4584667"><ele>1396.0</ele><time>2026-05-02T14:53:05.395Z</time></trkpt><trkpt lat="46.6385817" lon="12.4586217"><ele>1393.0</ele><time>2026-05-02T14:53:06.395Z</time></trkpt><trkpt lat="46.6384317" lon="12.4588"><ele>1390.0</ele><time>2026-05-02T14:53:07.395Z</time></trkpt><trkpt lat="46.6382733" lon="12.4589833"><ele>1390.0</ele><time>2026-05-02T14:53:08.395Z</time></trkpt><trkpt lat="46.6381033" lon="12.459155"><ele>1390.0</ele><time>2026-05-02T14:53:09.395Z</time></trkpt><trkpt lat="46.637915" lon="12.4592983"><ele>1390.0</ele><time>2026-05-02T14:53:10.395Z</time></trkpt><trkpt lat="46.6377367" lon="12.4594517"><ele>1389.0</ele><time>2026-05-02T14:53:11.395Z</time></trkpt><trkpt lat="46.637565" lon="12.4596"><ele>1388.0</ele><time>2026-05-02T14:53:12.395Z</time></trkpt><trkpt lat="46.6374067" lon="12.45976"><ele>1387.0</ele><time>2026-05-02T14:53:13.395Z</time></trkpt><trkpt lat="46.63723" lon="12.4598883"><ele>1387.0</ele><time>2026-05-02T14:53:14.395Z</time></trkpt><trkpt lat="46.637065" lon="12.4600117"><ele>1387.0</ele><time>2026-05-02T14:53:15.395Z</time></trkpt><trkpt lat="46.636895" lon="12.46012"><ele>1387.0</ele><time>2026-05-02T14:53:16.395Z</time></trkpt><trkpt lat="46.6367217" lon="12.4602067"><ele>1390.3333333333333</ele><time>2026-05-02T14:53:17.395Z</time></trkpt><trkpt lat="46.6365367" lon="12.4602867"><ele>1393.6666666666667</ele><time>2026-05-02T14:53:18.395Z</time></trkpt><trkpt lat="46.6363667" lon="12.4603867"><ele>1397.0</ele><time>2026-05-02T14:53:19.394Z</time></trkpt><trkpt lat="46.6362167" lon="12.4605717"><ele>1387.6666666666667</ele><time>2026-05-02T14:53:20.395Z</time></trkpt><trkpt lat="46.63606" lon="12.4607567"><ele>1378.3333333333333</ele><time>2026-05-02T14:53:21.395Z</time></trkpt><trkpt lat="46.6359217" lon="12.46099"><ele>1369.0</ele><time>2026-05-02T14:53:22.395Z</time></trkpt><trkpt lat="46.6357833" lon="12.461195"><ele>1375.3333333333333</ele><time>2026-05-02T14:53:23.395Z</time></trkpt><trkpt lat="46.6356417" lon="12.4613883"><ele>1381.6666666666667</ele><time>2026-05-02T14:53:24.395Z</time></trkpt><trkpt lat="46.6355033" lon="12.46158"><ele>1388.0</ele><time>2026-05-02T14:53:25.395Z</time></trkpt><trkpt lat="46.635345" lon="12.4617617"><ele>1385.3333333333335</ele><time>2026-05-02T14:53:26.394Z</time></trkpt><trkpt lat="46.635175" lon="12.4619333"><ele>1382.6666666666667</ele><time>2026-05-02T14:53:27.395Z</time></trkpt><trkpt lat="46.6350033" lon="12.46211"><ele>1380.0</ele><time>2026-05-02T14:53:28.394Z</time></trkpt><trkpt lat="46.63484" lon="12.4622983"><ele>1380.0</ele><time>2026-05-02T14:53:29.394Z</time></trkpt><trkpt lat="46.6346767" lon="12.46249"><ele>1380.0</ele><time>2026-05-02T14:53:30.395Z</time></trkpt><trkpt lat="46.6345133" lon="12.462685"><ele>1380.0</ele><time>2026-05-02T14:53:31.395Z</time></trkpt><trkpt lat="46.6343633" lon="12.4628717"><ele>1378.3333333333333</ele><time>2026-05-02T14:53:32.395Z</time></trkpt><trkpt lat="46.6341983" lon="12.4630383"><ele>1376.6666666666665</ele><time>2026-05-02T14:53:33.395Z</time></trkpt><trkpt lat="46.6340183" lon="12.4631833"><ele>1375.0</ele><time>2026-05-02T14:53:34.395Z</time></trkpt><trkpt lat="46.6338283" lon="12.4633117"><ele>1375.0</ele><time>2026-05-02T14:53:35.395Z</time></trkpt><trkpt lat="46.63366" lon="12.46348"><ele>1375.0</ele><time>2026-05-02T14:53:36.395Z</time></trkpt><trkpt lat="46.6334767" lon="12.4636067"><ele>1375.0</ele><time>2026-05-02T14:53:37.394Z</time></trkpt><trkpt lat="46.6333117" lon="12.463745"><ele>1374.0</ele><time>2026-05-02T14:53:38.395Z</time></trkpt><trkpt lat="46.6331633" lon="12.46391"><ele>1373.0</ele><time>2026-05-02T14:53:39.395Z</time></trkpt><trkpt lat="46.6330183" lon="12.4640767"><ele>1372.0</ele><time>2026-05-02T14:53:40.394Z</time></trkpt><trkpt lat="46.6328717" lon="12.464235"><ele>1365.75</ele><time>2026-05-02T14:53:41.395Z</time></trkpt><trkpt lat="46.63274" lon="12.4643633"><ele>1359.5</ele><time>2026-05-02T14:53:42.395Z</time></trkpt><trkpt lat="46.63261" lon="12.4644333"><ele>1353.25</ele><time>2026-05-02T14:53:43.394Z</time></trkpt><trkpt lat="46.6325" lon="12.4644617"><ele>1347.0</ele><time>2026-05-02T14:53:44.395Z</time></trkpt><trkpt lat="46.6324033" lon="12.4645017"><ele>1347.0</ele><time>2026-05-02T14:53:45.395Z</time></trkpt><trkpt lat="46.63232" lon="12.46448"><ele>1347.0</ele><time>2026-05-02T14:53:46.395Z</time></trkpt><trkpt lat="46.632245" lon="12.4644183"><ele>1347.0</ele><time>2026-05-02T14:53:47.395Z</time></trkpt><trkpt lat="46.632195" lon="12.4643233"><ele>1347.0</ele><time>2026-05-02T14:53:48.395Z</time></trkpt><trkpt lat="46.632165" lon="12.4641917"><ele>1347.0</ele><time>2026-05-02T14:53:49.394Z</time></trkpt><trkpt lat="46.632165" lon="12.46405"><ele>1347.0</ele><time>2026-05-02T14:53:50.395Z</time></trkpt><trkpt lat="46.63231" lon="12.4638217"><ele>1344.75</ele><time>2026-05-02T14:53:51.395Z</time></trkpt><trkpt lat="46.63243" lon="12.463635"><ele>1342.5</ele><time>2026-05-02T14:53:52.395Z</time></trkpt><trkpt lat="46.6325283" lon="12.4634983"><ele>1340.25</ele><time>2026-05-02T14:53:53.395Z</time></trkpt><trkpt lat="46.632585" lon="12.4633933"><ele>1338.0</ele><time>2026-05-02T14:53:54.395Z</time></trkpt><trkpt lat="46.63264" lon="12.4632567"><ele>1338.0</ele><time>2026-05-02T14:53:56.395Z</time></trkpt><trkpt lat="46.632565" lon="12.4632183"><ele>1338.0</ele><time>2026-05-02T14:53:57.394Z</time></trkpt><trkpt lat="46.6325017" lon="12.4632217"><ele>1338.0</ele><time>2026-05-02T14:53:58.394Z</time></trkpt><trkpt lat="46.6324017" lon="12.463315"><ele>1338.0</ele><time>2026-05-02T14:53:59.395Z</time></trkpt><trkpt lat="46.632305" lon="12.4634317"><ele>1338.0</ele><time>2026-05-02T14:54:00.395Z</time></trkpt><trkpt lat="46.632195" lon="12.4635267"><ele>1338.0</ele><time>2026-05-02T14:54:01.395Z</time></trkpt><trkpt lat="46.6320817" lon="12.4636183"><ele>1338.0</ele><time>2026-05-02T14:54:02.395Z</time></trkpt><trkpt lat="46.6319683" lon="12.4636633"><ele>1338.0</ele><time>2026-05-02T14:54:03.395Z</time></trkpt><trkpt lat="46.6318567" lon="12.4636567"><ele>1338.0</ele><time>2026-05-02T14:54:04.395Z</time></trkpt><trkpt lat="46.6317517" lon="12.4635883"><ele>1335.0</ele><time>2026-05-02T14:54:05.395Z</time></trkpt><trkpt lat="46.6316583" lon="12.4635"><ele>1332.0</ele><time>2026-05-02T14:54:06.395Z</time></trkpt><trkpt lat="46.6315667" lon="12.4634317"><ele>1329.0</ele><time>2026-05-02T14:54:07.395Z</time></trkpt><trkpt lat="46.631475" lon="12.4633967"><ele>1326.0</ele><time>2026-05-02T14:54:08.395Z</time></trkpt><trkpt lat="46.631375" lon="12.4634883"><ele>1323.0</ele><time>2026-05-02T14:54:09.395Z</time></trkpt><trkpt lat="46.6312867" lon="12.4636117"><ele>1322.3333333333333</ele><time>2026-05-02T14:54:10.395Z</time></trkpt><trkpt lat="46.631205" lon="12.46383"><ele>1321.6666666666665</ele><time>2026-05-02T14:54:11.394Z</time></trkpt><trkpt lat="46.6311117" lon="12.4640633"><ele>1321.0</ele><time>2026-05-02T14:54:12.395Z</time></trkpt><trkpt lat="46.631015" lon="12.4642833"><ele>1321.0</ele><time>2026-05-02T14:54:13.395Z</time></trkpt><trkpt lat="46.6309233" lon="12.46448"><ele>1321.0</ele><time>2026-05-02T14:54:14.395Z</time></trkpt><trkpt lat="46.6308167" lon="12.4646483"><ele>1321.0</ele><time>2026-05-02T14:54:15.395Z</time></trkpt><trkpt lat="46.6306933" lon="12.4647833"><ele>1321.1999999999998</ele><time>2026-05-02T14:54:16.395Z</time></trkpt><trkpt lat="46.6305867" lon="12.46487"><ele>1321.3999999999999</ele><time>2026-05-02T14:54:17.394Z</time></trkpt><trkpt lat="46.6304833" lon="12.4648967"><ele>1321.6</ele><time>2026-05-02T14:54:18.395Z</time></trkpt><trkpt lat="46.6303833" lon="12.4648867"><ele>1321.8</ele><time>2026-05-02T14:54:19.395Z</time></trkpt><trkpt lat="46.6302917" lon="12.4648283"><ele>1322.0</ele><time>2026-05-02T14:54:20.395Z</time></trkpt><trkpt lat="46.630185" lon="12.4646983"><ele>1318.6</ele><time>2026-05-02T14:54:21.394Z</time></trkpt><trkpt lat="46.6301" lon="12.46457"><ele>1315.1999999999998</ele><time>2026-05-02T14:54:22.395Z</time></trkpt><trkpt lat="46.6300183" lon="12.46448"><ele>1311.8</ele><time>2026-05-02T14:54:23.395Z</time></trkpt><trkpt lat="46.629925" lon="12.4644317"><ele>1308.4</ele><time>2026-05-02T14:54:24.395Z</time></trkpt><trkpt lat="46.6298333" lon="12.4644533"><ele>1305.0</ele><time>2026-05-02T14:54:25.395Z</time></trkpt><trkpt lat="46.6297333" lon="12.46455"><ele>1306.6</ele><time>2026-05-02T14:54:26.395Z</time></trkpt><trkpt lat="46.629645" lon="12.46467"><ele>1308.2</ele><time>2026-05-02T14:54:27.394Z</time></trkpt><trkpt lat="46.6295717" lon="12.4648"><ele>1309.8000000000002</ele><time>2026-05-02T14:54:28.395Z</time></trkpt><trkpt lat="46.6295" lon="12.464915"><ele>1311.4</ele><time>2026-05-02T14:54:29.395Z</time></trkpt><trkpt lat="46.6294283" lon="12.46502"><ele>1313.0</ele><time>2026-05-02T14:54:30.394Z</time></trkpt><trkpt lat="46.62936" lon="12.4651317"><ele>1311.8333333333335</ele><time>2026-05-02T14:54:31.395Z</time></trkpt><trkpt lat="46.629305" lon="12.4652433"><ele>1310.6666666666667</ele><time>2026-05-02T14:54:32.395Z</time></trkpt><trkpt lat="46.6292767" lon="12.465355"><ele>1309.5</ele><time>2026-05-02T14:54:33.395Z</time></trkpt><trkpt lat="46.6292567" lon="12.4654667"><ele>1308.3333333333333</ele><time>2026-05-02T14:54:34.395Z</time></trkpt><trkpt lat="46.6292517" lon="12.4655867"><ele>1307.1666666666665</ele><time>2026-05-02T14:54:35.395Z</time></trkpt><trkpt lat="46.6292483" lon="12.4657167"><ele>1306.0</ele><time>2026-05-02T14:54:36.395Z</time></trkpt><trkpt lat="46.6292433" lon="12.46585"><ele>1306.0</ele><time>2026-05-02T14:54:37.395Z</time></trkpt><trkpt lat="46.6292267" lon="12.465995"><ele>1306.0</ele><time>2026-05-02T14:54:38.395Z</time></trkpt><trkpt lat="46.6291983" lon="12.4661467"><ele>1306.0</ele><time>2026-05-02T14:54:39.395Z</time></trkpt><trkpt lat="46.6291567" lon="12.4662967"><ele>1306.0</ele><time>2026-05-02T14:54:40.395Z</time></trkpt><trkpt lat="46.6291267" lon="12.4664367"><ele>1306.0</ele><time>2026-05-02T14:54:41.394Z</time></trkpt><trkpt lat="46.629105" lon="12.4665883"><ele>1306.0</ele><time>2026-05-02T14:54:42.395Z</time></trkpt><trkpt lat="46.62908" lon="12.46673"><ele>1306.0</ele><time>2026-05-02T14:54:43.395Z</time></trkpt><trkpt lat="46.6290533" lon="12.4668683"><ele>1306.0</ele><time>2026-05-02T14:54:44.395Z</time></trkpt><trkpt lat="46.629025" lon="12.4670083"><ele>1306.0</ele><time>2026-05-02T14:54:45.395Z</time></trkpt><trkpt lat="46.6289833" lon="12.467145"><ele>1306.0</ele><time>2026-05-02T14:54:46.395Z</time></trkpt><trkpt lat="46.6289167" lon="12.4672617"><ele>1307.0</ele><time>2026-05-02T14:54:47.395Z</time></trkpt><trkpt lat="46.6288267" lon="12.46734"><ele>1308.0</ele><time>2026-05-02T14:54:48.394Z</time></trkpt><trkpt lat="46.6287117" lon="12.4673983"><ele>1309.0</ele><time>2026-05-02T14:54:49.394Z</time></trkpt><trkpt lat="46.6285933" lon="12.467455"><ele>1310.0</ele><time>2026-05-02T14:54:50.395Z</time></trkpt><trkpt lat="46.6284817" lon="12.4675383"><ele>1308.25</ele><time>2026-05-02T14:54:51.395Z</time></trkpt><trkpt lat="46.6283883" lon="12.46764"><ele>1306.5</ele><time>2026-05-02T14:54:52.395Z</time></trkpt><trkpt lat="46.6282983" lon="12.4677483"><ele>1304.75</ele><time>2026-05-02T14:54:53.394Z</time></trkpt><trkpt lat="46.628215" lon="12.467855"><ele>1303.0</ele><time>2026-05-02T14:54:54.395Z</time></trkpt><trkpt lat="46.62813" lon="12.4679533"><ele>1303.0</ele><time>2026-05-02T14:54:55.395Z</time></trkpt><trkpt lat="46.6280417" lon="12.4680283"><ele>1303.0</ele><time>2026-05-02T14:54:56.395Z</time></trkpt><trkpt lat="46.627965" lon="12.4680967"><ele>1303.0</ele><time>2026-05-02T14:54:57.395Z</time></trkpt><trkpt lat="46.6278733" lon="12.468135"><ele>1303.0</ele><time>2026-05-02T14:54:58.395Z</time></trkpt><trkpt lat="46.6277833" lon="12.4681467"><ele>1303.0</ele><time>2026-05-02T14:54:59.395Z</time></trkpt><trkpt lat="46.627705" lon="12.4681433"><ele>1301.0</ele><time>2026-05-02T14:55:00.394Z</time></trkpt><trkpt lat="46.6276183" lon="12.468095"><ele>1299.0</ele><time>2026-05-02T14:55:01.394Z</time></trkpt><trkpt lat="46.62753" lon="12.4680167"><ele>1297.0</ele><time>2026-05-02T14:55:02.394Z</time></trkpt><trkpt lat="46.6274367" lon="12.4679517"><ele>1295.0</ele><time>2026-05-02T14:55:03.395Z</time></trkpt><trkpt lat="46.6273317" lon="12.4679117"><ele>1293.0</ele><time>2026-05-02T14:55:04.395Z</time></trkpt><trkpt lat="46.6272133" lon="12.467895"><ele>1291.0</ele><time>2026-05-02T14:55:05.395Z</time></trkpt><trkpt lat="46.6270867" lon="12.46789"><ele>1289.0</ele><time>2026-05-02T14:55:06.395Z</time></trkpt><trkpt lat="46.62695" lon="12.46792"><ele>1287.0</ele><time>2026-05-02T14:55:07.395Z</time></trkpt><trkpt lat="46.6268117" lon="12.4679633"><ele>1285.0</ele><time>2026-05-02T14:55:08.395Z</time></trkpt><trkpt lat="46.6266733" lon="12.4680217"><ele>1285.0</ele><time>2026-05-02T14:55:09.395Z</time></trkpt><trkpt lat="46.6265133" lon="12.4681183"><ele>1285.0</ele><time>2026-05-02T14:55:10.394Z</time></trkpt><trkpt lat="46.626345" lon="12.4682233"><ele>1285.0</ele><time>2026-05-02T14:55:11.394Z</time></trkpt><trkpt lat="46.6261767" lon="12.468345"><ele>1279.0</ele><time>2026-05-02T14:55:12.395Z</time></trkpt><trkpt lat="46.6260033" lon="12.4684533"><ele>1273.0</ele><time>2026-05-02T14:55:13.395Z</time></trkpt><trkpt lat="46.6258283" lon="12.46854"><ele>1267.0</ele><time>2026-05-02T14:55:14.395Z</time></trkpt><trkpt lat="46.6256567" lon="12.4686067"><ele>1267.0</ele><time>2026-05-02T14:55:15.395Z</time></trkpt><trkpt lat="46.625495" lon="12.4686767"><ele>1267.0</ele><time>2026-05-02T14:55:16.395Z</time></trkpt><trkpt lat="46.6253467" lon="12.4687767"><ele>1267.0</ele><time>2026-05-02T14:55:17.395Z</time></trkpt><trkpt lat="46.6251867" lon="12.46889"><ele>1266.0</ele><time>2026-05-02T14:55:18.395Z</time></trkpt><trkpt lat="46.6250483" lon="12.46905"><ele>1265.0</ele><time>2026-05-02T14:55:19.395Z</time></trkpt><trkpt lat="46.6249033" lon="12.4692383"><ele>1264.0</ele><time>2026-05-02T14:55:20.395Z</time></trkpt><trkpt lat="46.62476" lon="12.469415"><ele>1264.0</ele><time>2026-05-02T14:55:21.395Z</time></trkpt><trkpt lat="46.6246133" lon="12.469585"><ele>1264.0</ele><time>2026-05-02T14:55:22.395Z</time></trkpt><trkpt lat="46.6244717" lon="12.4697433"><ele>1264.0</ele><time>2026-05-02T14:55:23.395Z</time></trkpt><trkpt lat="46.62433" lon="12.4699083"><ele>1263.0</ele><time>2026-05-02T14:55:24.394Z</time></trkpt><trkpt lat="46.6241917" lon="12.4700583"><ele>1262.0</ele><time>2026-05-02T14:55:25.395Z</time></trkpt><trkpt lat="46.6240533" lon="12.4702"><ele>1261.0</ele><time>2026-05-02T14:55:26.395Z</time></trkpt><trkpt lat="46.62392" lon="12.4703083"><ele>1261.0</ele><time>2026-05-02T14:55:27.395Z</time></trkpt><trkpt lat="46.6237817" lon="12.4704017"><ele>1261.0</ele><time>2026-05-02T14:55:28.395Z</time></trkpt><trkpt lat="46.62366" lon="12.4704567"><ele>1261.0</ele><time>2026-05-02T14:55:29.395Z</time></trkpt><trkpt lat="46.6235683" lon="12.4705183"><ele>1261.0</ele><time>2026-05-02T14:55:30.395Z</time></trkpt><trkpt lat="46.6234867" lon="12.4705617"><ele>1261.6</ele><time>2026-05-02T14:55:31.395Z</time></trkpt><trkpt lat="46.6234" lon="12.4705967"><ele>1262.1999999999998</ele><time>2026-05-02T14:55:32.394Z</time></trkpt><trkpt lat="46.62332" lon="12.4706217"><ele>1262.8000000000002</ele><time>2026-05-02T14:55:33.395Z</time></trkpt><trkpt lat="46.6232133" lon="12.4706217"><ele>1263.4</ele><time>2026-05-02T14:55:34.394Z</time></trkpt><trkpt lat="46.6230917" lon="12.4706167"><ele>1264.0</ele><time>2026-05-02T14:55:35.394Z</time></trkpt><trkpt lat="46.622955" lon="12.47061"><ele>1264.0</ele><time>2026-05-02T14:55:36.394Z</time></trkpt><trkpt lat="46.6228283" lon="12.4706067"><ele>1264.0</ele><time>2026-05-02T14:55:37.395Z</time></trkpt><trkpt lat="46.622715" lon="12.47063"><ele>1264.0</ele><time>2026-05-02T14:55:38.394Z</time></trkpt><trkpt lat="46.6226033" lon="12.4706867"><ele>1264.0</ele><time>2026-05-02T14:55:39.395Z</time></trkpt><trkpt lat="46.62251" lon="12.4707933"><ele>1262.25</ele><time>2026-05-02T14:55:40.395Z</time></trkpt><trkpt lat="46.6224133" lon="12.470945"><ele>1260.5</ele><time>2026-05-02T14:55:41.394Z</time></trkpt><trkpt lat="46.62233" lon="12.4711317"><ele>1258.75</ele><time>2026-05-02T14:55:42.394Z</time></trkpt><trkpt lat="46.6222433" lon="12.4713133"><ele>1257.0</ele><time>2026-05-02T14:55:43.395Z</time></trkpt><trkpt lat="46.6221733" lon="12.471495"><ele>1260.75</ele><time>2026-05-02T14:55:44.394Z</time></trkpt><trkpt lat="46.622115" lon="12.4716867"><ele>1264.5</ele><time>2026-05-02T14:55:45.395Z</time></trkpt><trkpt lat="46.622075" lon="12.4719017"><ele>1268.25</ele><time>2026-05-02T14:55:46.395Z</time></trkpt><trkpt lat="46.6220367" lon="12.4721033"><ele>1272.0</ele><time>2026-05-02T14:55:47.394Z</time></trkpt><trkpt lat="46.6219933" lon="12.4723033"><ele>1269.25</ele><time>2026-05-02T14:55:48.394Z</time></trkpt><trkpt lat="46.6219233" lon="12.4724967"><ele>1266.5</ele><time>2026-05-02T14:55:49.395Z</time></trkpt><trkpt lat="46.621825" lon="12.472665"><ele>1263.75</ele><time>2026-05-02T14:55:50.395Z</time></trkpt><trkpt lat="46.6217083" lon="12.4727933"><ele>1261.0</ele><time>2026-05-02T14:55:51.395Z</time></trkpt><trkpt lat="46.6215583" lon="12.4729"><ele>1261.0</ele><time>2026-05-02T14:55:52.395Z</time></trkpt><trkpt lat="46.6213867" lon="12.472985"><ele>1261.0</ele><time>2026-05-02T14:55:53.394Z</time></trkpt><trkpt lat="46.621215" lon="12.4730817"><ele>1261.0</ele><time>2026-05-02T14:55:54.395Z</time></trkpt><trkpt lat="46.621045" lon="12.4732067"><ele>1261.0</ele><time>2026-05-02T14:55:55.395Z</time></trkpt><trkpt lat="46.62087" lon="12.4733667"><ele>1261.0</ele><time>2026-05-02T14:55:56.395Z</time></trkpt><trkpt lat="46.6206933" lon="12.4735067"><ele>1261.0</ele><time>2026-05-02T14:55:57.395Z</time></trkpt><trkpt lat="46.6205167" lon="12.4736283"><ele>1261.0</ele><time>2026-05-02T14:55:58.395Z</time></trkpt><trkpt lat="46.6203517" lon="12.4737283"><ele>1261.0</ele><time>2026-05-02T14:55:59.395Z</time></trkpt><trkpt lat="46.62017" lon="12.473795"><ele>1261.0</ele><time>2026-05-02T14:56:00.395Z</time></trkpt><trkpt lat="46.619995" lon="12.4738617"><ele>1262.3333333333333</ele><time>2026-05-02T14:56:01.395Z</time></trkpt><trkpt lat="46.619825" lon="12.4739217"><ele>1263.6666666666667</ele><time>2026-05-02T14:56:02.395Z</time></trkpt><trkpt lat="46.6196533" lon="12.4739883"><ele>1265.0</ele><time>2026-05-02T14:56:03.395Z</time></trkpt><trkpt lat="46.619465" lon="12.474065"><ele>1257.3333333333335</ele><time>2026-05-02T14:56:04.394Z</time></trkpt><trkpt lat="46.619275" lon="12.47413"><ele>1249.6666666666667</ele><time>2026-05-02T14:56:05.395Z</time></trkpt><trkpt lat="46.6190867" lon="12.4741833"><ele>1242.0</ele><time>2026-05-02T14:56:06.395Z</time></trkpt><trkpt lat="46.61889" lon="12.4742367"><ele>1242.0</ele><time>2026-05-02T14:56:07.395Z</time></trkpt><trkpt lat="46.6186817" lon="12.4743167"><ele>1242.0</ele><time>2026-05-02T14:56:08.395Z</time></trkpt><trkpt lat="46.6184817" lon="12.47444"><ele>1242.0</ele><time>2026-05-02T14:56:09.395Z</time></trkpt><trkpt lat="46.6182833" lon="12.4745883"><ele>1245.0</ele><time>2026-05-02T14:56:10.394Z</time></trkpt><trkpt lat="46.6180917" lon="12.4747233"><ele>1248.0</ele><time>2026-05-02T14:56:11.395Z</time></trkpt><trkpt lat="46.6179067" lon="12.4748517"><ele>1251.0</ele><time>2026-05-02T14:56:12.395Z</time></trkpt><trkpt lat="46.61771" lon="12.4749417"><ele>1244.0</ele><time>2026-05-02T14:56:13.395Z</time></trkpt><trkpt lat="46.6175283" lon="12.47506"><ele>1237.0</ele><time>2026-05-02T14:56:14.395Z</time></trkpt><trkpt lat="46.6173517" lon="12.475175"><ele>1230.0</ele><time>2026-05-02T14:56:15.394Z</time></trkpt><trkpt lat="46.6171767" lon="12.4752983"><ele>1230.0</ele><time>2026-05-02T14:56:16.394Z</time></trkpt><trkpt lat="46.617" lon="12.4754333"><ele>1230.0</ele><time>2026-05-02T14:56:17.395Z</time></trkpt><trkpt lat="46.61681" lon="12.475515"><ele>1230.0</ele><time>2026-05-02T14:56:18.395Z</time></trkpt><trkpt lat="46.61663" lon="12.4755817"><ele>1229.0</ele><time>2026-05-02T14:56:19.395Z</time></trkpt><trkpt lat="46.61644" lon="12.4756067"><ele>1228.0</ele><time>2026-05-02T14:56:20.395Z</time></trkpt><trkpt lat="46.616245" lon="12.47559"><ele>1227.0</ele><time>2026-05-02T14:56:21.395Z</time></trkpt><trkpt lat="46.6160667" lon="12.475575"><ele>1226.3333333333333</ele><time>2026-05-02T14:56:22.395Z</time></trkpt><trkpt lat="46.615895" lon="12.47556"><ele>1225.6666666666665</ele><time>2026-05-02T14:56:23.395Z</time></trkpt><trkpt lat="46.6157333" lon="12.475545"><ele>1225.0</ele><time>2026-05-02T14:56:24.395Z</time></trkpt><trkpt lat="46.6156" lon="12.475545"><ele>1225.0</ele><time>2026-05-02T14:56:25.395Z</time></trkpt><trkpt lat="46.615475" lon="12.475575"><ele>1225.0</ele><time>2026-05-02T14:56:26.394Z</time></trkpt><trkpt lat="46.61536" lon="12.4756483"><ele>1225.0</ele><time>2026-05-02T14:56:27.395Z</time></trkpt><trkpt lat="46.61526" lon="12.475785"><ele>1225.0</ele><time>2026-05-02T14:56:28.395Z</time></trkpt><trkpt lat="46.6151867" lon="12.47596"><ele>1225.25</ele><time>2026-05-02T14:56:29.394Z</time></trkpt><trkpt lat="46.6151117" lon="12.4761417"><ele>1225.5</ele><time>2026-05-02T14:56:30.395Z</time></trkpt><trkpt lat="46.615035" lon="12.4763183"><ele>1225.75</ele><time>2026-05-02T14:56:31.395Z</time></trkpt><trkpt lat="46.6149567" lon="12.476505"><ele>1226.0</ele><time>2026-05-02T14:56:32.394Z</time></trkpt><trkpt lat="46.61487" lon="12.476705"><ele>1226.0</ele><time>2026-05-02T14:56:33.395Z</time></trkpt><trkpt lat="46.6147817" lon="12.476905"><ele>1226.0</ele><time>2026-05-02T14:56:34.395Z</time></trkpt><trkpt lat="46.614695" lon="12.477105"><ele>1226.0</ele><time>2026-05-02T14:56:35.395Z</time></trkpt><trkpt lat="46.61461" lon="12.4773"><ele>1225.75</ele><time>2026-05-02T14:56:36.395Z</time></trkpt><trkpt lat="46.61453" lon="12.4774933"><ele>1225.5</ele><time>2026-05-02T14:56:37.395Z</time></trkpt><trkpt lat="46.6144533" lon="12.4776767"><ele>1225.25</ele><time>2026-05-02T14:56:38.395Z</time></trkpt><trkpt lat="46.61437" lon="12.47785"><ele>1225.0</ele><time>2026-05-02T14:56:39.394Z</time></trkpt><trkpt lat="46.6142883" lon="12.4780367"><ele>1226.3333333333333</ele><time>2026-05-02T14:56:40.394Z</time></trkpt><trkpt lat="46.6141867" lon="12.4782083"><ele>1227.6666666666667</ele><time>2026-05-02T14:56:41.395Z</time></trkpt><trkpt lat="46.6140567" lon="12.4783433"><ele>1229.0</ele><time>2026-05-02T14:56:42.395Z</time></trkpt><trkpt lat="46.6139117" lon="12.4784683"><ele>1229.0</ele><time>2026-05-02T14:56:43.395Z</time></trkpt><trkpt lat="46.6137517" lon="12.47856"><ele>1229.0</ele><time>2026-05-02T14:56:44.395Z</time></trkpt><trkpt lat="46.6135817" lon="12.4786317"><ele>1229.0</ele><time>2026-05-02T14:56:45.395Z</time></trkpt><trkpt lat="46.6134233" lon="12.47872"><ele>1232.3333333333335</ele><time>2026-05-02T14:56:46.394Z</time></trkpt><trkpt lat="46.613265" lon="12.4788083"><ele>1235.6666666666667</ele><time>2026-05-02T14:56:47.394Z</time></trkpt><trkpt lat="46.6130983" lon="12.4788967"><ele>1239.0</ele><time>2026-05-02T14:56:48.395Z</time></trkpt><trkpt lat="46.6129333" lon="12.478985"><ele>1232.0</ele><time>2026-05-02T14:56:49.395Z</time></trkpt><trkpt lat="46.6127667" lon="12.4790667"><ele>1225.0</ele><time>2026-05-02T14:56:50.395Z</time></trkpt><trkpt lat="46.6126" lon="12.479165"><ele>1218.0</ele><time>2026-05-02T14:56:51.394Z</time></trkpt><trkpt lat="46.61244" lon="12.4792867"><ele>1218.0</ele><time>2026-05-02T14:56:52.395Z</time></trkpt><trkpt lat="46.6122783" lon="12.479405"><ele>1218.0</ele><time>2026-05-02T14:56:53.395Z</time></trkpt><trkpt lat="46.6121333" lon="12.4795717"><ele>1218.0</ele><time>2026-05-02T14:56:54.395Z</time></trkpt><trkpt lat="46.6119767" lon="12.4797117"><ele>1221.0</ele><time>2026-05-02T14:56:55.394Z</time></trkpt><trkpt lat="46.6118117" lon="12.4798217"><ele>1224.0</ele><time>2026-05-02T14:56:56.395Z</time></trkpt><trkpt lat="46.611655" lon="12.4799383"><ele>1227.0</ele><time>2026-05-02T14:56:57.395Z</time></trkpt><trkpt lat="46.611505" lon="12.48004"><ele>1227.0</ele><time>2026-05-02T14:56:58.395Z</time></trkpt><trkpt lat="46.6113567" lon="12.480125"><ele>1227.0</ele><time>2026-05-02T14:56:59.395Z</time></trkpt><trkpt lat="46.611215" lon="12.480205"><ele>1227.0</ele><time>2026-05-02T14:57:00.395Z</time></trkpt><trkpt lat="46.611075" lon="12.4802833"><ele>1221.6666666666667</ele><time>2026-05-02T14:57:01.394Z</time></trkpt><trkpt lat="46.6109333" lon="12.48035"><ele>1216.3333333333335</ele><time>2026-05-02T14:57:02.394Z</time></trkpt><trkpt lat="46.6107767" lon="12.4803917"><ele>1211.0</ele><time>2026-05-02T14:57:03.394Z</time></trkpt><trkpt lat="46.61062" lon="12.4804283"><ele>1213.25</ele><time>2026-05-02T14:57:04.394Z</time></trkpt><trkpt lat="46.610475" lon="12.4804583"><ele>1215.5</ele><time>2026-05-02T14:57:05.395Z</time></trkpt><trkpt lat="46.61035" lon="12.4804983"><ele>1217.75</ele><time>2026-05-02T14:57:06.395Z</time></trkpt><trkpt lat="46.6102217" lon="12.4805417"><ele>1220.0</ele><time>2026-05-02T14:57:07.395Z</time></trkpt><trkpt lat="46.610095" lon="12.4805833"><ele>1220.0</ele><time>2026-05-02T14:57:08.395Z</time></trkpt><trkpt lat="46.6099683" lon="12.4806167"><ele>1220.0</ele><time>2026-05-02T14:57:09.394Z</time></trkpt><trkpt lat="46.60984" lon="12.4806583"><ele>1220.0</ele><time>2026-05-02T14:57:10.395Z</time></trkpt><trkpt lat="46.6097067" lon="12.4806917"><ele>1220.0</ele><time>2026-05-02T14:57:11.395Z</time></trkpt><trkpt lat="46.6095717" lon="12.4807383"><ele>1218.5</ele><time>2026-05-02T14:57:12.395Z</time></trkpt><trkpt lat="46.6094467" lon="12.48078"><ele>1217.0</ele><time>2026-05-02T14:57:13.395Z</time></trkpt><trkpt lat="46.6093033" lon="12.4808283"><ele>1215.5</ele><time>2026-05-02T14:57:14.395Z</time></trkpt><trkpt lat="46.6091633" lon="12.4808683"><ele>1214.0</ele><time>2026-05-02T14:57:15.395Z</time></trkpt><trkpt lat="46.6090067" lon="12.4809167"><ele>1214.0</ele><time>2026-05-02T14:57:16.395Z</time></trkpt><trkpt lat="46.6088733" lon="12.4809817"><ele>1214.0</ele><time>2026-05-02T14:57:17.395Z</time></trkpt><trkpt lat="46.608745" lon="12.4810883"><ele>1214.0</ele><time>2026-05-02T14:57:18.394Z</time></trkpt><trkpt lat="46.6086333" lon="12.481215"><ele>1214.0</ele><time>2026-05-02T14:57:19.394Z</time></trkpt><trkpt lat="46.6085233" lon="12.4813417"><ele>1215.25</ele><time>2026-05-02T14:57:20.395Z</time></trkpt><trkpt lat="46.6084167" lon="12.4814633"><ele>1216.5</ele><time>2026-05-02T14:57:21.395Z</time></trkpt><trkpt lat="46.60829" lon="12.48156"><ele>1217.75</ele><time>2026-05-02T14:57:22.394Z</time></trkpt><trkpt lat="46.6081567" lon="12.4816217"><ele>1219.0</ele><time>2026-05-02T14:57:23.394Z</time></trkpt><trkpt lat="46.6080167" lon="12.481655"><ele>1219.0</ele><time>2026-05-02T14:57:24.394Z</time></trkpt><trkpt lat="46.6078733" lon="12.4816717"><ele>1219.0</ele><time>2026-05-02T14:57:25.395Z</time></trkpt><trkpt lat="46.607735" lon="12.4816783"><ele>1219.0</ele><time>2026-05-02T14:57:26.395Z</time></trkpt><trkpt lat="46.607605" lon="12.481705"><ele>1219.0</ele><time>2026-05-02T14:57:27.395Z</time></trkpt><trkpt lat="46.607455" lon="12.481715"><ele>1219.3333333333333</ele><time>2026-05-02T14:57:28.394Z</time></trkpt><trkpt lat="46.607305" lon="12.4817283"><ele>1219.6666666666667</ele><time>2026-05-02T14:57:29.395Z</time></trkpt><trkpt lat="46.6071533" lon="12.481745"><ele>1220.0</ele><time>2026-05-02T14:57:30.395Z</time></trkpt><trkpt lat="46.6070017" lon="12.48177"><ele>1216.6666666666667</ele><time>2026-05-02T14:57:31.395Z</time></trkpt><trkpt lat="46.6068517" lon="12.4818133"><ele>1213.3333333333333</ele><time>2026-05-02T14:57:32.395Z</time></trkpt><trkpt lat="46.60671" lon="12.48188"><ele>1210.0</ele><time>2026-05-02T14:57:33.395Z</time></trkpt><trkpt lat="46.6065767" lon="12.4819767"><ele>1210.0</ele><time>2026-05-02T14:57:34.395Z</time></trkpt><trkpt lat="46.6064433" lon="12.4820717"><ele>1210.0</ele><time>2026-05-02T14:57:35.395Z</time></trkpt><trkpt lat="46.6063067" lon="12.4821683"><ele>1210.0</ele><time>2026-05-02T14:57:36.395Z</time></trkpt><trkpt lat="46.6061733" lon="12.48226"><ele>1210.0</ele><time>2026-05-02T14:57:37.394Z</time></trkpt><trkpt lat="46.60605" lon="12.4823567"><ele>1212.0</ele><time>2026-05-02T14:57:38.394Z</time></trkpt><trkpt lat="46.6059317" lon="12.4824633"><ele>1214.0</ele><time>2026-05-02T14:57:39.395Z</time></trkpt><trkpt lat="46.6058067" lon="12.4825717"><ele>1216.0</ele><time>2026-05-02T14:57:40.395Z</time></trkpt><trkpt lat="46.60569" lon="12.4826667"><ele>1218.0</ele><time>2026-05-02T14:57:41.395Z</time></trkpt><trkpt lat="46.6055867" lon="12.48277"><ele>1218.0</ele><time>2026-05-02T14:57:42.395Z</time></trkpt><trkpt lat="46.6054883" lon="12.48288"><ele>1218.0</ele><time>2026-05-02T14:57:43.395Z</time></trkpt><trkpt lat="46.605405" lon="12.4830067"><ele>1218.0</ele><time>2026-05-02T14:57:44.395Z</time></trkpt><trkpt lat="46.6053067" lon="12.4831283"><ele>1218.0</ele><time>2026-05-02T14:57:45.394Z</time></trkpt><trkpt lat="46.6052033" lon="12.48326"><ele>1218.75</ele><time>2026-05-02T14:57:46.394Z</time></trkpt><trkpt lat="46.6050983" lon="12.4833883"><ele>1219.5</ele><time>2026-05-02T14:57:47.395Z</time></trkpt><trkpt lat="46.6049833" lon="12.4835133"><ele>1220.25</ele><time>2026-05-02T14:57:48.395Z</time></trkpt><trkpt lat="46.6048717" lon="12.483635"><ele>1221.0</ele><time>2026-05-02T14:57:49.395Z</time></trkpt><trkpt lat="46.6047633" lon="12.4837467"><ele>1221.8</ele><time>2026-05-02T14:57:50.394Z</time></trkpt><trkpt lat="46.60466" lon="12.48384"><ele>1222.6</ele><time>2026-05-02T14:57:51.395Z</time></trkpt><trkpt lat="46.6045667" lon="12.4839233"><ele>1223.4</ele><time>2026-05-02T14:57:52.395Z</time></trkpt><trkpt lat="46.60448" lon="12.4839933"><ele>1224.2</ele><time>2026-05-02T14:57:53.395Z</time></trkpt><trkpt lat="46.6044017" lon="12.4840533"><ele>1225.0</ele><time>2026-05-02T14:57:54.395Z</time></trkpt><trkpt lat="46.6043467" lon="12.4841117"><ele>1225.0</ele><time>2026-05-02T14:57:55.395Z</time></trkpt><trkpt lat="46.60425" lon="12.4841883"><ele>1225.0</ele><time>2026-05-02T14:57:57.395Z</time></trkpt><trkpt lat="46.6041717" lon="12.4842633"><ele>1225.0</ele><time>2026-05-02T14:57:59.395Z</time></trkpt><trkpt lat="46.6041083" lon="12.4843317"><ele>1225.0</ele><time>2026-05-02T14:58:01.395Z</time></trkpt><trkpt lat="46.604045" lon="12.484385"><ele>1225.0</ele><time>2026-05-02T14:58:04.394Z</time></trkpt><trkpt lat="46.6040417" lon="12.4842683"><ele>1225.0</ele><time>2026-05-02T14:58:07.395Z</time></trkpt><trkpt lat="46.60411" lon="12.4841983"><ele>1225.0</ele><time>2026-05-02T14:58:08.395Z</time></trkpt><trkpt lat="46.6042083" lon="12.4841117"><ele>1225.0</ele><time>2026-05-02T14:58:09.395Z</time></trkpt><trkpt lat="46.6043283" lon="12.48402"><ele>1225.0</ele><time>2026-05-02T14:58:10.395Z</time></trkpt><trkpt lat="46.6044517" lon="12.48391"><ele>1225.0</ele><time>2026-05-02T14:58:11.394Z</time></trkpt><trkpt lat="46.6045833" lon="12.483795"><ele>1223.6666666666665</ele><time>2026-05-02T14:58:12.395Z</time></trkpt><trkpt lat="46.6047067" lon="12.48367"><ele>1222.3333333333333</ele><time>2026-05-02T14:58:13.394Z</time></trkpt><trkpt lat="46.6048167" lon="12.48352"><ele>1221.0</ele><time>2026-05-02T14:58:14.395Z</time></trkpt><trkpt lat="46.6049233" lon="12.48335"><ele>1221.0</ele><time>2026-05-02T14:58:15.394Z</time></trkpt><trkpt lat="46.6050183" lon="12.4831717"><ele>1221.0</ele><time>2026-05-02T14:58:16.395Z</time></trkpt><trkpt lat="46.6051117" lon="12.4830017"><ele>1221.0</ele><time>2026-05-02T14:58:17.395Z</time></trkpt><trkpt lat="46.6052117" lon="12.4828367"><ele>1220.25</ele><time>2026-05-02T14:58:18.395Z</time></trkpt><trkpt lat="46.6053083" lon="12.4826667"><ele>1219.5</ele><time>2026-05-02T14:58:19.395Z</time></trkpt><trkpt lat="46.6054017" lon="12.4824983"><ele>1218.75</ele><time>2026-05-02T14:58:20.395Z</time></trkpt><trkpt lat="46.6054917" lon="12.4823267"><ele>1218.0</ele><time>2026-05-02T14:58:21.395Z</time></trkpt><trkpt lat="46.6055967" lon="12.4821733"><ele>1214.0</ele><time>2026-05-02T14:58:22.395Z</time></trkpt><trkpt lat="46.6057117" lon="12.4820317"><ele>1210.0</ele><time>2026-05-02T14:58:23.395Z</time></trkpt><trkpt lat="46.6058417" lon="12.4819067"><ele>1206.0</ele><time>2026-05-02T14:58:24.395Z</time></trkpt><trkpt lat="46.605975" lon="12.481795"><ele>1206.0</ele><time>2026-05-02T14:58:25.395Z</time></trkpt><trkpt lat="46.606105" lon="12.4816833"><ele>1206.0</ele><time>2026-05-02T14:58:26.395Z</time></trkpt><trkpt lat="46.6062367" lon="12.4815767"><ele>1206.0</ele><time>2026-05-02T14:58:27.395Z</time></trkpt><trkpt lat="46.606365" lon="12.4814783"><ele>1206.0</ele><time>2026-05-02T14:58:28.395Z</time></trkpt><trkpt lat="46.606485" lon="12.48138"><ele>1206.8</ele><time>2026-05-02T14:58:29.395Z</time></trkpt><trkpt lat="46.6065733" lon="12.48127"><ele>1207.6</ele><time>2026-05-02T14:58:30.395Z</time></trkpt><trkpt lat="46.6066383" lon="12.4811583"><ele>1208.4</ele><time>2026-05-02T14:58:31.395Z</time></trkpt><trkpt lat="46.606675" lon="12.481035"><ele>1209.2</ele><time>2026-05-02T14:58:32.395Z</time></trkpt><trkpt lat="46.6066833" lon="12.4809067"><ele>1210.0</ele><time>2026-05-02T14:58:33.395Z</time></trkpt><trkpt lat="46.6066567" lon="12.4807733"><ele>1207.5</ele><time>2026-05-02T14:58:34.395Z</time></trkpt><trkpt lat="46.6066017" lon="12.4806383"><ele>1205.0</ele><time>2026-05-02T14:58:35.394Z</time></trkpt><trkpt lat="46.6065233" lon="12.4804967"><ele>1202.5</ele><time>2026-05-02T14:58:36.395Z</time></trkpt><trkpt lat="46.6064417" lon="12.4803467"><ele>1200.0</ele><time>2026-05-02T14:58:37.394Z</time></trkpt><trkpt lat="46.6063633" lon="12.4801933"><ele>1200.5</ele><time>2026-05-02T14:58:38.395Z</time></trkpt><trkpt lat="46.6062867" lon="12.4800433"><ele>1201.0</ele><time>2026-05-02T14:58:39.395Z</time></trkpt><trkpt lat="46.6062083" lon="12.4799133"><ele>1201.5</ele><time>2026-05-02T14:58:40.395Z</time></trkpt><trkpt lat="46.606115" lon="12.4798217"><ele>1202.0</ele><time>2026-05-02T14:58:41.395Z</time></trkpt><trkpt lat="46.6060117" lon="12.4797617"><ele>1202.0</ele><time>2026-05-02T14:58:42.395Z</time></trkpt><trkpt lat="46.6058933" lon="12.4797383"><ele>1202.0</ele><time>2026-05-02T14:58:43.395Z</time></trkpt><trkpt lat="46.6057667" lon="12.47975"><ele>1202.0</ele><time>2026-05-02T14:58:44.395Z</time></trkpt><trkpt lat="46.6056417" lon="12.479795"><ele>1202.0</ele><time>2026-05-02T14:58:45.394Z</time></trkpt><trkpt lat="46.60552" lon="12.47984"><ele>1202.0</ele><time>2026-05-02T14:58:46.394Z</time></trkpt><trkpt lat="46.6053983" lon="12.47988"><ele>1202.0</ele><time>2026-05-02T14:58:47.394Z</time></trkpt><trkpt lat="46.605285" lon="12.47991"><ele>1202.0</ele><time>2026-05-02T14:58:48.395Z</time></trkpt><trkpt lat="46.6051717" lon="12.479935"><ele>1202.0</ele><time>2026-05-02T14:58:49.394Z</time></trkpt><trkpt lat="46.6050667" lon="12.4799733"><ele>1202.2</ele><time>2026-05-02T14:58:50.394Z</time></trkpt><trkpt lat="46.6049733" lon="12.4800083"><ele>1202.4</ele><time>2026-05-02T14:58:51.394Z</time></trkpt><trkpt lat="46.604875" lon="12.480045"><ele>1202.6</ele><time>2026-05-02T14:58:52.395Z</time></trkpt><trkpt lat="46.6047783" lon="12.4800633"><ele>1202.8</ele><time>2026-05-02T14:58:53.395Z</time></trkpt><trkpt lat="46.6046667" lon="12.4801"><ele>1203.0</ele><time>2026-05-02T14:58:54.394Z</time></trkpt><trkpt lat="46.6045533" lon="12.48014"><ele>1203.5</ele><time>2026-05-02T14:58:55.395Z</time></trkpt><trkpt lat="46.6044333" lon="12.480165"><ele>1204.0</ele><time>2026-05-02T14:58:56.394Z</time></trkpt><trkpt lat="46.6043133" lon="12.4802"><ele>1204.5</ele><time>2026-05-02T14:58:57.395Z</time></trkpt><trkpt lat="46.6042033" lon="12.4802233"><ele>1205.0</ele><time>2026-05-02T14:58:58.395Z</time></trkpt><trkpt lat="46.6040867" lon="12.4802567"><ele>1205.0</ele><time>2026-05-02T14:58:59.395Z</time></trkpt><trkpt lat="46.6039683" lon="12.4802767"><ele>1205.0</ele><time>2026-05-02T14:59:00.395Z</time></trkpt><trkpt lat="46.603845" lon="12.4802817"><ele>1205.0</ele><time>2026-05-02T14:59:01.395Z</time></trkpt><trkpt lat="46.6037233" lon="12.4802717"><ele>1205.0</ele><time>2026-05-02T14:59:02.395Z</time></trkpt><trkpt lat="46.603595" lon="12.4802367"><ele>1205.0</ele><time>2026-05-02T14:59:03.395Z</time></trkpt><trkpt lat="46.6034833" lon="12.4802"><ele>1205.0</ele><time>2026-05-02T14:59:04.395Z</time></trkpt><trkpt lat="46.603385" lon="12.480155"><ele>1205.0</ele><time>2026-05-02T14:59:05.395Z</time></trkpt><trkpt lat="46.60329" lon="12.4800983"><ele>1205.0</ele><time>2026-05-02T14:59:06.395Z</time></trkpt><trkpt lat="46.6032" lon="12.480045"><ele>1205.0</ele><time>2026-05-02T14:59:07.395Z</time></trkpt><trkpt lat="46.6031133" lon="12.4799767"><ele>1205.0</ele><time>2026-05-02T14:59:08.395Z</time></trkpt><trkpt lat="46.6030183" lon="12.4799083"><ele>1205.0</ele><time>2026-05-02T14:59:09.395Z</time></trkpt><trkpt lat="46.60292" lon="12.4798467"><ele>1205.0</ele><time>2026-05-02T14:59:10.395Z</time></trkpt><trkpt lat="46.6028183" lon="12.4797767"><ele>1205.0</ele><time>2026-05-02T14:59:11.395Z</time></trkpt><trkpt lat="46.6027083" lon="12.47972"><ele>1205.0</ele><time>2026-05-02T14:59:12.395Z</time></trkpt><trkpt lat="46.6026017" lon="12.47965"><ele>1207.25</ele><time>2026-05-02T14:59:13.395Z</time></trkpt><trkpt lat="46.6024867" lon="12.47959"><ele>1209.5</ele><time>2026-05-02T14:59:14.394Z</time></trkpt><trkpt lat="46.6023717" lon="12.479515"><ele>1211.75</ele><time>2026-05-02T14:59:15.395Z</time></trkpt><trkpt lat="46.6022617" lon="12.4794433"><ele>1214.0</ele><time>2026-05-02T14:59:16.395Z</time></trkpt><trkpt lat="46.6021633" lon="12.4793833"><ele>1214.0</ele><time>2026-05-02T14:59:17.395Z</time></trkpt><trkpt lat="46.602065" lon="12.47934"><ele>1214.0</ele><time>2026-05-02T14:59:18.395Z</time></trkpt><trkpt lat="46.6019967" lon="12.4793117"><ele>1214.0</ele><time>2026-05-02T14:59:19.395Z</time></trkpt><trkpt lat="46.6019233" lon="12.47929"><ele>1214.0</ele><time>2026-05-02T14:59:20.395Z</time></trkpt><trkpt lat="46.6018533" lon="12.4792533"><ele>1214.0</ele><time>2026-05-02T14:59:21.395Z</time></trkpt><trkpt lat="46.6017633" lon="12.4792033"><ele>1214.0</ele><time>2026-05-02T14:59:22.395Z</time></trkpt><trkpt lat="46.6016683" lon="12.47915"><ele>1215.0</ele><time>2026-05-02T14:59:23.395Z</time></trkpt><trkpt lat="46.601575" lon="12.4790883"><ele>1216.0</ele><time>2026-05-02T14:59:24.395Z</time></trkpt><trkpt lat="46.6014833" lon="12.4790133"><ele>1217.0</ele><time>2026-05-02T14:59:25.395Z</time></trkpt><trkpt lat="46.6013817" lon="12.4789483"><ele>1218.0</ele><time>2026-05-02T14:59:26.395Z</time></trkpt><trkpt lat="46.6012767" lon="12.4788617"><ele>1219.0</ele><time>2026-05-02T14:59:27.394Z</time></trkpt><trkpt lat="46.601165" lon="12.4787933"><ele>1221.0</ele><time>2026-05-02T14:59:28.395Z</time></trkpt><trkpt lat="46.6010467" lon="12.4787133"><ele>1223.0</ele><time>2026-05-02T14:59:29.394Z</time></trkpt><trkpt lat="46.6009233" lon="12.478625"><ele>1225.0</ele><time>2026-05-02T14:59:30.395Z</time></trkpt><trkpt lat="46.600805" lon="12.4785467"><ele>1227.0</ele><time>2026-05-02T14:59:31.395Z</time></trkpt><trkpt lat="46.6006833" lon="12.4784633"><ele>1227.0</ele><time>2026-05-02T14:59:32.394Z</time></trkpt><trkpt lat="46.6005683" lon="12.4783883"><ele>1227.0</ele><time>2026-05-02T14:59:33.394Z</time></trkpt><trkpt lat="46.6004483" lon="12.4783133"><ele>1227.0</ele><time>2026-05-02T14:59:34.395Z</time></trkpt><trkpt lat="46.6003333" lon="12.478245"><ele>1227.0</ele><time>2026-05-02T14:59:35.395Z</time></trkpt><trkpt lat="46.6002133" lon="12.4781733"><ele>1228.25</ele><time>2026-05-02T14:59:36.394Z</time></trkpt><trkpt lat="46.6000967" lon="12.478105"><ele>1229.5</ele><time>2026-05-02T14:59:37.395Z</time></trkpt><trkpt lat="46.59998" lon="12.4780267"><ele>1230.75</ele><time>2026-05-02T14:59:38.395Z</time></trkpt><trkpt lat="46.599875" lon="12.4779583"><ele>1232.0</ele><time>2026-05-02T14:59:39.395Z</time></trkpt><trkpt lat="46.5997567" lon="12.477885"><ele>1233.0</ele><time>2026-05-02T14:59:40.395Z</time></trkpt><trkpt lat="46.59965" lon="12.477825"><ele>1234.0</ele><time>2026-05-02T14:59:41.395Z</time></trkpt><trkpt lat="46.599525" lon="12.47777"><ele>1235.0</ele><time>2026-05-02T14:59:42.395Z</time></trkpt><trkpt lat="46.5994017" lon="12.4777483"><ele>1236.0</ele><time>2026-05-02T14:59:43.394Z</time></trkpt><trkpt lat="46.5992767" lon="12.47772"><ele>1236.25</ele><time>2026-05-02T14:59:44.395Z</time></trkpt><trkpt lat="46.5991533" lon="12.477675"><ele>1236.5</ele><time>2026-05-02T14:59:45.395Z</time></trkpt><trkpt lat="46.5990267" lon="12.477635"><ele>1236.75</ele><time>2026-05-02T14:59:46.395Z</time></trkpt><trkpt lat="46.5989033" lon="12.4775717"><ele>1237.0</ele><time>2026-05-02T14:59:47.394Z</time></trkpt><trkpt lat="46.5987767" lon="12.4775317"><ele>1237.5</ele><time>2026-05-02T14:59:48.395Z</time></trkpt><trkpt lat="46.5986617" lon="12.4775133"><ele>1238.0</ele><time>2026-05-02T14:59:49.394Z</time></trkpt><trkpt lat="46.5985467" lon="12.4774933"><ele>1238.5</ele><time>2026-05-02T14:59:50.394Z</time></trkpt><trkpt lat="46.5984383" lon="12.4774983"><ele>1239.0</ele><time>2026-05-02T14:59:51.395Z</time></trkpt><trkpt lat="46.59833" lon="12.47755"><ele>1239.0</ele><time>2026-05-02T14:59:52.395Z</time></trkpt><trkpt lat="46.5982283" lon="12.477605"><ele>1239.0</ele><time>2026-05-02T14:59:53.395Z</time></trkpt><trkpt lat="46.59813" lon="12.4777467"><ele>1239.0</ele><time>2026-05-02T14:59:54.394Z</time></trkpt><trkpt lat="46.598015" lon="12.47792"><ele>1239.0</ele><time>2026-05-02T14:59:55.395Z</time></trkpt><trkpt lat="46.5979117" lon="12.47813"><ele>1244.6666666666667</ele><time>2026-05-02T14:59:56.394Z</time></trkpt><trkpt lat="46.5978217" lon="12.47836"><ele>1250.3333333333335</ele><time>2026-05-02T14:59:57.395Z</time></trkpt><trkpt lat="46.5977367" lon="12.4785567"><ele>1256.0</ele><time>2026-05-02T14:59:58.395Z</time></trkpt><trkpt lat="46.59768" lon="12.478735"><ele>1254.0</ele><time>2026-05-02T14:59:59.394Z</time></trkpt><trkpt lat="46.5976067" lon="12.4788833"><ele>1252.0</ele><time>2026-05-02T15:00:00.395Z</time></trkpt><trkpt lat="46.59749" lon="12.479005"><ele>1250.0</ele><time>2026-05-02T15:00:01.395Z</time></trkpt><trkpt lat="46.5973583" lon="12.4791067"><ele>1248.0</ele><time>2026-05-02T15:00:02.395Z</time></trkpt><trkpt lat="46.597205" lon="12.4791967"><ele>1248.0</ele><time>2026-05-02T15:00:03.394Z</time></trkpt><trkpt lat="46.597045" lon="12.4792933"><ele>1248.0</ele><time>2026-05-02T15:00:04.395Z</time></trkpt><trkpt lat="46.59688" lon="12.4793933"><ele>1248.0</ele><time>2026-05-02T15:00:05.395Z</time></trkpt><trkpt lat="46.5967233" lon="12.4795083"><ele>1251.6666666666667</ele><time>2026-05-02T15:00:06.394Z</time></trkpt><trkpt lat="46.5965717" lon="12.4796317"><ele>1255.3333333333335</ele><time>2026-05-02T15:00:07.395Z</time></trkpt><trkpt lat="46.59643" lon="12.4797417"><ele>1259.0</ele><time>2026-05-02T15:00:08.395Z</time></trkpt><trkpt lat="46.5962867" lon="12.4798783"><ele>1264.3333333333335</ele><time>2026-05-02T15:00:09.395Z</time></trkpt><trkpt lat="46.5961367" lon="12.4800117"><ele>1269.6666666666667</ele><time>2026-05-02T15:00:10.394Z</time></trkpt><trkpt lat="46.5959683" lon="12.48013"><ele>1275.0</ele><time>2026-05-02T15:00:11.395Z</time></trkpt><trkpt lat="46.5958033" lon="12.4802317"><ele>1275.0</ele><time>2026-05-02T15:00:12.395Z</time></trkpt><trkpt lat="46.59563" lon="12.48033"><ele>1275.0</ele><time>2026-05-02T15:00:13.395Z</time></trkpt><trkpt lat="46.59546" lon="12.4804217"><ele>1275.0</ele><time>2026-05-02T15:00:14.394Z</time></trkpt><trkpt lat="46.595295" lon="12.4805183"><ele>1275.6666666666667</ele><time>2026-05-02T15:00:15.394Z</time></trkpt><trkpt lat="46.59514" lon="12.48059"><ele>1276.3333333333335</ele><time>2026-05-02T15:00:16.395Z</time></trkpt><trkpt lat="46.594975" lon="12.4806633"><ele>1277.0</ele><time>2026-05-02T15:00:17.395Z</time></trkpt><trkpt lat="46.59481" lon="12.48074"><ele>1277.0</ele><time>2026-05-02T15:00:18.394Z</time></trkpt><trkpt lat="46.5946283" lon="12.4808033"><ele>1277.0</ele><time>2026-05-02T15:00:19.395Z</time></trkpt><trkpt lat="46.594445" lon="12.4808533"><ele>1277.0</ele><time>2026-05-02T15:00:20.395Z</time></trkpt><trkpt lat="46.5942517" lon="12.48088"><ele>1281.0</ele><time>2026-05-02T15:00:21.395Z</time></trkpt><trkpt lat="46.5940717" lon="12.4808933"><ele>1285.0</ele><time>2026-05-02T15:00:22.395Z</time></trkpt><trkpt lat="46.5938983" lon="12.4809033"><ele>1289.0</ele><time>2026-05-02T15:00:23.394Z</time></trkpt><trkpt lat="46.593735" lon="12.4809017"><ele>1293.0</ele><time>2026-05-02T15:00:24.395Z</time></trkpt><trkpt lat="46.5935783" lon="12.4809167"><ele>1297.0</ele><time>2026-05-02T15:00:25.395Z</time></trkpt><trkpt lat="46.5934267" lon="12.4809467"><ele>1301.0</ele><time>2026-05-02T15:00:26.395Z</time></trkpt><trkpt lat="46.593275" lon="12.481025"><ele>1301.0</ele><time>2026-05-02T15:00:27.395Z</time></trkpt><trkpt lat="46.59313" lon="12.4811567"><ele>1301.0</ele><time>2026-05-02T15:00:28.395Z</time></trkpt><trkpt lat="46.5929933" lon="12.4813033"><ele>1301.0</ele><time>2026-05-02T15:00:29.394Z</time></trkpt><trkpt lat="46.59287" lon="12.4814533"><ele>1302.75</ele><time>2026-05-02T15:00:30.394Z</time></trkpt><trkpt lat="46.5927633" lon="12.48161"><ele>1304.5</ele><time>2026-05-02T15:00:31.395Z</time></trkpt><trkpt lat="46.5926633" lon="12.4817617"><ele>1306.25</ele><time>2026-05-02T15:00:32.395Z</time></trkpt><trkpt lat="46.5925517" lon="12.4818917"><ele>1308.0</ele><time>2026-05-02T15:00:33.394Z</time></trkpt><trkpt lat="46.592435" lon="12.4820133"><ele>1308.0</ele><time>2026-05-02T15:00:34.395Z</time></trkpt><trkpt lat="46.5923033" lon="12.4821"><ele>1308.0</ele><time>2026-05-02T15:00:35.395Z</time></trkpt><trkpt lat="46.5921683" lon="12.482155"><ele>1308.0</ele><time>2026-05-02T15:00:36.395Z</time></trkpt><trkpt lat="46.5920317" lon="12.48219"><ele>1308.0</ele><time>2026-05-02T15:00:37.395Z</time></trkpt><trkpt lat="46.5918833" lon="12.4821817"><ele>1308.0</ele><time>2026-05-02T15:00:38.394Z</time></trkpt><trkpt lat="46.5917383" lon="12.482145"><ele>1308.0</ele><time>2026-05-02T15:00:39.395Z</time></trkpt><trkpt lat="46.5915967" lon="12.4820917"><ele>1308.0</ele><time>2026-05-02T15:00:40.395Z</time></trkpt><trkpt lat="46.5914383" lon="12.4820683"><ele>1308.0</ele><time>2026-05-02T15:00:41.395Z</time></trkpt><trkpt lat="46.5912717" lon="12.4821"><ele>1308.0</ele><time>2026-05-02T15:00:42.395Z</time></trkpt><trkpt lat="46.5911083" lon="12.4821617"><ele>1308.0</ele><time>2026-05-02T15:00:43.395Z</time></trkpt><trkpt lat="46.5909483" lon="12.482255"><ele>1308.75</ele><time>2026-05-02T15:00:44.395Z</time></trkpt><trkpt lat="46.5908133" lon="12.4823417"><ele>1309.5</ele><time>2026-05-02T15:00:45.395Z</time></trkpt><trkpt lat="46.5906833" lon="12.4824233"><ele>1310.25</ele><time>2026-05-02T15:00:46.394Z</time></trkpt><trkpt lat="46.5905567" lon="12.482485"><ele>1311.0</ele><time>2026-05-02T15:00:47.395Z</time></trkpt><trkpt lat="46.5904367" lon="12.48253"><ele>1311.25</ele><time>2026-05-02T15:00:48.394Z</time></trkpt><trkpt lat="46.5903333" lon="12.4825533"><ele>1311.5</ele><time>2026-05-02T15:00:49.395Z</time></trkpt><trkpt lat="46.59023" lon="12.4825467"><ele>1311.75</ele><time>2026-05-02T15:00:50.395Z</time></trkpt><trkpt lat="46.59011" lon="12.4825083"><ele>1312.0</ele><time>2026-05-02T15:00:51.394Z</time></trkpt><trkpt lat="46.5899883" lon="12.48244"><ele>1312.0</ele><time>2026-05-02T15:00:52.395Z</time></trkpt><trkpt lat="46.5898733" lon="12.4823483"><ele>1312.0</ele><time>2026-05-02T15:00:53.394Z</time></trkpt><trkpt lat="46.5897667" lon="12.482275"><ele>1312.0</ele><time>2026-05-02T15:00:54.395Z</time></trkpt><trkpt lat="46.589665" lon="12.4822333"><ele>1312.0</ele><time>2026-05-02T15:00:55.395Z</time></trkpt><trkpt lat="46.5895683" lon="12.482225"><ele>1313.0</ele><time>2026-05-02T15:00:56.395Z</time></trkpt><trkpt lat="46.58947" lon="12.4822433"><ele>1314.0</ele><time>2026-05-02T15:00:57.394Z</time></trkpt><trkpt lat="46.5893633" lon="12.4822917"><ele>1315.0</ele><time>2026-05-02T15:00:58.395Z</time></trkpt><trkpt lat="46.58924" lon="12.482335"><ele>1316.0</ele><time>2026-05-02T15:00:59.395Z</time></trkpt><trkpt lat="46.5891083" lon="12.4823817"><ele>1316.0</ele><time>2026-05-02T15:01:00.395Z</time></trkpt><trkpt lat="46.588975" lon="12.482405"><ele>1316.0</ele><time>2026-05-02T15:01:01.395Z</time></trkpt><trkpt lat="46.5888367" lon="12.4824467"><ele>1316.0</ele><time>2026-05-02T15:01:02.395Z</time></trkpt><trkpt lat="46.58868" lon="12.482485"><ele>1316.0</ele><time>2026-05-02T15:01:03.395Z</time></trkpt><trkpt lat="46.5885083" lon="12.4825467"><ele>1321.0</ele><time>2026-05-02T15:01:04.395Z</time></trkpt><trkpt lat="46.588335" lon="12.4826083"><ele>1326.0</ele><time>2026-05-02T15:01:05.395Z</time></trkpt><trkpt lat="46.588155" lon="12.4826717"><ele>1331.0</ele><time>2026-05-02T15:01:06.395Z</time></trkpt><trkpt lat="46.587975" lon="12.482745"><ele>1329.3333333333335</ele><time>2026-05-02T15:01:07.395Z</time></trkpt><trkpt lat="46.5877917" lon="12.482805"><ele>1327.6666666666667</ele><time>2026-05-02T15:01:08.395Z</time></trkpt><trkpt lat="46.587615" lon="12.4828683"><ele>1326.0</ele><time>2026-05-02T15:01:09.395Z</time></trkpt><trkpt lat="46.58745" lon="12.4829333"><ele>1326.0</ele><time>2026-05-02T15:01:10.395Z</time></trkpt><trkpt lat="46.5872867" lon="12.4829883"><ele>1326.0</ele><time>2026-05-02T15:01:11.395Z</time></trkpt><trkpt lat="46.5871283" lon="12.48305"><ele>1326.0</ele><time>2026-05-02T15:01:12.394Z</time></trkpt><trkpt lat="46.5869767" lon="12.4831183"><ele>1328.8</ele><time>2026-05-02T15:01:13.395Z</time></trkpt><trkpt lat="46.5868367" lon="12.4831933"><ele>1331.6</ele><time>2026-05-02T15:01:14.395Z</time></trkpt><trkpt lat="46.58672" lon="12.48325"><ele>1334.4</ele><time>2026-05-02T15:01:15.395Z</time></trkpt><trkpt lat="46.5866283" lon="12.4832867"><ele>1337.2</ele><time>2026-05-02T15:01:16.395Z</time></trkpt><trkpt lat="46.58656" lon="12.48329"><ele>1340.0</ele><time>2026-05-02T15:01:17.395Z</time></trkpt><trkpt lat="46.5864483" lon="12.4832317"><ele>1340.0</ele><time>2026-05-02T15:01:19.395Z</time></trkpt><trkpt lat="46.5864267" lon="12.483115"><ele>1340.0</ele><time>2026-05-02T15:01:20.395Z</time></trkpt><trkpt lat="46.5864217" lon="12.48297"><ele>1340.0</ele><time>2026-05-02T15:01:21.395Z</time></trkpt><trkpt lat="46.5864683" lon="12.482775"><ele>1340.0</ele><time>2026-05-02T15:01:22.395Z</time></trkpt><trkpt lat="46.586525" lon="12.4825633"><ele>1344.6</ele><time>2026-05-02T15:01:23.395Z</time></trkpt><trkpt lat="46.5865817" lon="12.4823883"><ele>1349.2</ele><time>2026-05-02T15:01:24.395Z</time></trkpt><trkpt lat="46.5866033" lon="12.4822283"><ele>1353.8000000000002</ele><time>2026-05-02T15:01:25.395Z</time></trkpt><trkpt lat="46.586605" lon="12.4821283"><ele>1358.4</ele><time>2026-05-02T15:01:26.394Z</time></trkpt><trkpt lat="46.58659" lon="12.4820217"><ele>1363.0</ele><time>2026-05-02T15:01:27.395Z</time></trkpt><trkpt lat="46.58646" lon="12.4819567"><ele>1365.75</ele><time>2026-05-02T15:01:29.395Z</time></trkpt><trkpt lat="46.5863283" lon="12.4819983"><ele>1368.5</ele><time>2026-05-02T15:01:30.394Z</time></trkpt><trkpt lat="46.5861917" lon="12.4820033"><ele>1371.25</ele><time>2026-05-02T15:01:31.395Z</time></trkpt><trkpt lat="46.58605" lon="12.481995"><ele>1374.0</ele><time>2026-05-02T15:01:32.395Z</time></trkpt><trkpt lat="46.5859033" lon="12.4819417"><ele>1375.0</ele><time>2026-05-02T15:01:33.395Z</time></trkpt><trkpt lat="46.5857583" lon="12.4818517"><ele>1376.0</ele><time>2026-05-02T15:01:34.395Z</time></trkpt><trkpt lat="46.5856233" lon="12.4817217"><ele>1377.0</ele><time>2026-05-02T15:01:35.394Z</time></trkpt><trkpt lat="46.5855" lon="12.4815783"><ele>1377.0</ele><time>2026-05-02T15:01:36.394Z</time></trkpt><trkpt lat="46.5853933" lon="12.4813833"><ele>1377.0</ele><time>2026-05-02T15:01:37.395Z</time></trkpt><trkpt lat="46.5853117" lon="12.4811683"><ele>1377.0</ele><time>2026-05-02T15:01:38.395Z</time></trkpt><trkpt lat="46.58523" lon="12.480955"><ele>1377.3333333333333</ele><time>2026-05-02T15:01:39.395Z</time></trkpt><trkpt lat="46.5851283" lon="12.48076"><ele>1377.6666666666665</ele><time>2026-05-02T15:01:40.395Z</time></trkpt><trkpt lat="46.58503" lon="12.4805867"><ele>1378.0</ele><time>2026-05-02T15:01:41.394Z</time></trkpt><trkpt lat="46.58493" lon="12.4804283"><ele>1379.5</ele><time>2026-05-02T15:01:42.395Z</time></trkpt><trkpt lat="46.5848367" lon="12.4802717"><ele>1381.0</ele><time>2026-05-02T15:01:43.394Z</time></trkpt><trkpt lat="46.5847433" lon="12.4801117"><ele>1382.5</ele><time>2026-05-02T15:01:44.395Z</time></trkpt><trkpt lat="46.5846383" lon="12.4799433"><ele>1384.0</ele><time>2026-05-02T15:01:45.394Z</time></trkpt><trkpt lat="46.5845317" lon="12.4797983"><ele>1384.0</ele><time>2026-05-02T15:01:46.395Z</time></trkpt><trkpt lat="46.5843867" lon="12.4796817"><ele>1384.0</ele><time>2026-05-02T15:01:47.395Z</time></trkpt><trkpt lat="46.58424" lon="12.4796033"><ele>1384.0</ele><time>2026-05-02T15:01:48.395Z</time></trkpt><trkpt lat="46.5840883" lon="12.4795583"><ele>1387.0</ele><time>2026-05-02T15:01:49.395Z</time></trkpt><trkpt lat="46.5839067" lon="12.4795383"><ele>1390.0</ele><time>2026-05-02T15:01:50.395Z</time></trkpt><trkpt lat="46.5837367" lon="12.479535"><ele>1393.0</ele><time>2026-05-02T15:01:51.395Z</time></trkpt><trkpt lat="46.5835417" lon="12.4795633"><ele>1393.3333333333333</ele><time>2026-05-02T15:01:52.395Z</time></trkpt><trkpt lat="46.58334" lon="12.4795833"><ele>1393.6666666666667</ele><time>2026-05-02T15:01:53.395Z</time></trkpt><trkpt lat="46.5831367" lon="12.4796183"><ele>1394.0</ele><time>2026-05-02T15:01:54.395Z</time></trkpt><trkpt lat="46.58292" lon="12.479665"><ele>1396.0</ele><time>2026-05-02T15:01:55.395Z</time></trkpt><trkpt lat="46.582695" lon="12.479705"><ele>1398.0</ele><time>2026-05-02T15:01:56.395Z</time></trkpt><trkpt lat="46.582475" lon="12.4797583"><ele>1398.0</ele><time>2026-05-02T15:01:57.395Z</time></trkpt><trkpt lat="46.58225" lon="12.4797883"><ele>1398.0</ele><time>2026-05-02T15:01:58.395Z</time></trkpt><trkpt lat="46.5820283" lon="12.47979"><ele>1398.0</ele><time>2026-05-02T15:01:59.395Z</time></trkpt><trkpt lat="46.5818133" lon="12.479775"><ele>1401.0</ele><time>2026-05-02T15:02:00.394Z</time></trkpt><trkpt lat="46.5816017" lon="12.4797533"><ele>1404.0</ele><time>2026-05-02T15:02:01.395Z</time></trkpt><trkpt lat="46.5813883" lon="12.4796983"><ele>1407.0</ele><time>2026-05-02T15:02:02.395Z</time></trkpt><trkpt lat="46.5811617" lon="12.479615"><ele>1422.5</ele><time>2026-05-02T15:02:03.394Z</time></trkpt><trkpt lat="46.5809367" lon="12.47957"><ele>1438.0</ele><time>2026-05-02T15:02:04.395Z</time></trkpt><trkpt lat="46.5807117" lon="12.4795683"><ele>1438.0</ele><time>2026-05-02T15:02:05.394Z</time></trkpt><trkpt lat="46.58049" lon="12.4795817"><ele>1438.0</ele><time>2026-05-02T15:02:06.395Z</time></trkpt><trkpt lat="46.58027" lon="12.4796367"><ele>1438.0</ele><time>2026-05-02T15:02:07.395Z</time></trkpt><trkpt lat="46.5800583" lon="12.4796917"><ele>1431.6666666666665</ele><time>2026-05-02T15:02:08.395Z</time></trkpt><trkpt lat="46.579855" lon="12.4797383"><ele>1425.3333333333333</ele><time>2026-05-02T15:02:09.395Z</time></trkpt><trkpt lat="46.5796517" lon="12.4797567"><ele>1419.0</ele><time>2026-05-02T15:02:10.395Z</time></trkpt><trkpt lat="46.5794517" lon="12.4797467"><ele>1418.6666666666667</ele><time>2026-05-02T15:02:11.395Z</time></trkpt><trkpt lat="46.5792533" lon="12.4797167"><ele>1418.3333333333335</ele><time>2026-05-02T15:02:12.395Z</time></trkpt><trkpt lat="46.57905" lon="12.4796767"><ele>1418.0</ele><time>2026-05-02T15:02:13.395Z</time></trkpt><trkpt lat="46.5788467" lon="12.4796617"><ele>1419.0</ele><time>2026-05-02T15:02:14.395Z</time></trkpt><trkpt lat="46.5786317" lon="12.4796817"><ele>1420.0</ele><time>2026-05-02T15:02:15.394Z</time></trkpt><trkpt lat="46.5784183" lon="12.47974"><ele>1421.0</ele><time>2026-05-02T15:02:16.395Z</time></trkpt><trkpt lat="46.5782117" lon="12.479805"><ele>1421.0</ele><time>2026-05-02T15:02:17.394Z</time></trkpt><trkpt lat="46.5780017" lon="12.4798817"><ele>1421.0</ele><time>2026-05-02T15:02:18.395Z</time></trkpt><trkpt lat="46.57779" lon="12.479965"><ele>1421.0</ele><time>2026-05-02T15:02:19.395Z</time></trkpt><trkpt lat="46.5775917" lon="12.4800217"><ele>1426.0</ele><time>2026-05-02T15:02:20.395Z</time></trkpt><trkpt lat="46.5773917" lon="12.4800483"><ele>1431.0</ele><time>2026-05-02T15:02:21.394Z</time></trkpt><trkpt lat="46.5771733" lon="12.4800483"><ele>1436.0</ele><time>2026-05-02T15:02:22.395Z</time></trkpt><trkpt lat="46.576955" lon="12.4800367"><ele>1437.0</ele><time>2026-05-02T15:02:23.395Z</time></trkpt><trkpt lat="46.576755" lon="12.4800233"><ele>1438.0</ele><time>2026-05-02T15:02:24.395Z</time></trkpt><trkpt lat="46.5765617" lon="12.480005"><ele>1439.0</ele><time>2026-05-02T15:02:25.394Z</time></trkpt><trkpt lat="46.5763917" lon="12.4799883"><ele>1439.0</ele><time>2026-05-02T15:02:26.394Z</time></trkpt><trkpt lat="46.5762383" lon="12.4799567"><ele>1439.0</ele><time>2026-05-02T15:02:27.395Z</time></trkpt><trkpt lat="46.5761033" lon="12.4799"><ele>1439.0</ele><time>2026-05-02T15:02:28.395Z</time></trkpt><trkpt lat="46.5759667" lon="12.4798317"><ele>1439.0</ele><time>2026-05-02T15:02:29.395Z</time></trkpt><trkpt lat="46.57584" lon="12.4796967"><ele>1446.0</ele><time>2026-05-02T15:02:30.395Z</time></trkpt><trkpt lat="46.575715" lon="12.4795517"><ele>1453.0</ele><time>2026-05-02T15:02:31.395Z</time></trkpt><trkpt lat="46.5755783" lon="12.479425"><ele>1460.0</ele><time>2026-05-02T15:02:32.395Z</time></trkpt><trkpt lat="46.5754333" lon="12.4793183"><ele>1459.0</ele><time>2026-05-02T15:02:33.394Z</time></trkpt><trkpt lat="46.57528" lon="12.479225"><ele>1458.0</ele><time>2026-05-02T15:02:34.395Z</time></trkpt><trkpt lat="46.57512" lon="12.4791767"><ele>1457.0</ele><time>2026-05-02T15:02:35.395Z</time></trkpt><trkpt lat="46.57496" lon="12.4791717"><ele>1457.0</ele><time>2026-05-02T15:02:36.395Z</time></trkpt><trkpt lat="46.5748067" lon="12.4791783"><ele>1457.0</ele><time>2026-05-02T15:02:37.395Z</time></trkpt><trkpt lat="46.5746633" lon="12.479225"><ele>1457.0</ele><time>2026-05-02T15:02:38.395Z</time></trkpt><trkpt lat="46.574525" lon="12.47925"><ele>1457.0</ele><time>2026-05-02T15:02:39.395Z</time></trkpt><trkpt lat="46.574415" lon="12.4793267"><ele>1460.0</ele><time>2026-05-02T15:02:40.395Z</time></trkpt><trkpt lat="46.5743233" lon="12.4794367"><ele>1463.0</ele><time>2026-05-02T15:02:41.394Z</time></trkpt><trkpt lat="46.574255" lon="12.4795867"><ele>1466.0</ele><time>2026-05-02T15:02:42.395Z</time></trkpt><trkpt lat="46.574215" lon="12.47978"><ele>1469.0</ele><time>2026-05-02T15:02:43.395Z</time></trkpt><trkpt lat="46.5741783" lon="12.47998"><ele>1469.0</ele><time>2026-05-02T15:02:44.394Z</time></trkpt><trkpt lat="46.5741433" lon="12.4801717"><ele>1469.0</ele><time>2026-05-02T15:02:45.395Z</time></trkpt><trkpt lat="46.5740983" lon="12.480325"><ele>1469.0</ele><time>2026-05-02T15:02:46.394Z</time></trkpt><trkpt lat="46.574025" lon="12.4804483"><ele>1469.0</ele><time>2026-05-02T15:02:47.394Z</time></trkpt><trkpt lat="46.5739167" lon="12.4805383"><ele>1470.3333333333335</ele><time>2026-05-02T15:02:48.395Z</time></trkpt><trkpt lat="46.5737733" lon="12.4805883"><ele>1471.6666666666667</ele><time>2026-05-02T15:02:49.395Z</time></trkpt><trkpt lat="46.5736" lon="12.48063"><ele>1473.0</ele><time>2026-05-02T15:02:50.395Z</time></trkpt><trkpt lat="46.5734067" lon="12.4806417"><ele>1473.0</ele><time>2026-05-02T15:02:51.395Z</time></trkpt><trkpt lat="46.57321" lon="12.4806733"><ele>1473.0</ele><time>2026-05-02T15:02:52.395Z</time></trkpt><trkpt lat="46.573035" lon="12.4807183"><ele>1473.0</ele><time>2026-05-02T15:02:53.394Z</time></trkpt><trkpt lat="46.5728867" lon="12.4807667"><ele>1475.5</ele><time>2026-05-02T15:02:54.395Z</time></trkpt><trkpt lat="46.57275" lon="12.48084"><ele>1478.0</ele><time>2026-05-02T15:02:55.394Z</time></trkpt><trkpt lat="46.5726317" lon="12.4809433"><ele>1480.5</ele><time>2026-05-02T15:02:56.395Z</time></trkpt><trkpt lat="46.5725433" lon="12.4811"><ele>1483.0</ele><time>2026-05-02T15:02:57.394Z</time></trkpt><trkpt lat="46.5724733" lon="12.4812583"><ele>1481.75</ele><time>2026-05-02T15:02:58.395Z</time></trkpt><trkpt lat="46.5724133" lon="12.4814133"><ele>1480.5</ele><time>2026-05-02T15:02:59.394Z</time></trkpt><trkpt lat="46.572355" lon="12.4815617"><ele>1479.25</ele><time>2026-05-02T15:03:00.395Z</time></trkpt><trkpt lat="46.5722967" lon="12.4817233"><ele>1478.0</ele><time>2026-05-02T15:03:01.395Z</time></trkpt><trkpt lat="46.5722283" lon="12.4818867"><ele>1478.0</ele><time>2026-05-02T15:03:02.395Z</time></trkpt><trkpt lat="46.5721467" lon="12.48206"><ele>1478.0</ele><time>2026-05-02T15:03:03.395Z</time></trkpt><trkpt lat="46.57207" lon="12.482245"><ele>1478.0</ele><time>2026-05-02T15:03:04.395Z</time></trkpt><trkpt lat="46.5719867" lon="12.482435"><ele>1478.0</ele><time>2026-05-02T15:03:05.395Z</time></trkpt><trkpt lat="46.5719" lon="12.48262"><ele>1479.6666666666667</ele><time>2026-05-02T15:03:06.395Z</time></trkpt><trkpt lat="46.5718267" lon="12.4827933"><ele>1481.3333333333333</ele><time>2026-05-02T15:03:07.394Z</time></trkpt><trkpt lat="46.5717283" lon="12.4829733"><ele>1483.0</ele><time>2026-05-02T15:03:08.395Z</time></trkpt><trkpt lat="46.57161" lon="12.4831283"><ele>1483.0</ele><time>2026-05-02T15:03:09.395Z</time></trkpt><trkpt lat="46.5714883" lon="12.4832667"><ele>1483.0</ele><time>2026-05-02T15:03:10.394Z</time></trkpt><trkpt lat="46.5713483" lon="12.4833867"><ele>1483.0</ele><time>2026-05-02T15:03:11.395Z</time></trkpt><trkpt lat="46.5711967" lon="12.4834867"><ele>1484.6666666666665</ele><time>2026-05-02T15:03:12.395Z</time></trkpt><trkpt lat="46.5710417" lon="12.4836"><ele>1486.3333333333333</ele><time>2026-05-02T15:03:13.395Z</time></trkpt><trkpt lat="46.570885" lon="12.4837133"><ele>1488.0</ele><time>2026-05-02T15:03:14.395Z</time></trkpt><trkpt lat="46.5707367" lon="12.48383"><ele>1487.0</ele><time>2026-05-02T15:03:15.395Z</time></trkpt><trkpt lat="46.570575" lon="12.48396"><ele>1486.0</ele><time>2026-05-02T15:03:16.394Z</time></trkpt><trkpt lat="46.570405" lon="12.4840867"><ele>1485.0</ele><time>2026-05-02T15:03:17.395Z</time></trkpt><trkpt lat="46.5702317" lon="12.4842267"><ele>1485.0</ele><time>2026-05-02T15:03:18.394Z</time></trkpt><trkpt lat="46.5700583" lon="12.4843683"><ele>1485.0</ele><time>2026-05-02T15:03:19.395Z</time></trkpt><trkpt lat="46.5698917" lon="12.4845033"><ele>1485.0</ele><time>2026-05-02T15:03:20.395Z</time></trkpt><trkpt lat="46.5697417" lon="12.48462"><ele>1483.0</ele><time>2026-05-02T15:03:21.395Z</time></trkpt><trkpt lat="46.5695917" lon="12.4847183"><ele>1481.0</ele><time>2026-05-02T15:03:22.395Z</time></trkpt><trkpt lat="46.5694417" lon="12.48479"><ele>1479.0</ele><time>2026-05-02T15:03:23.395Z</time></trkpt><trkpt lat="46.5692833" lon="12.4848183"><ele>1478.6666666666667</ele><time>2026-05-02T15:03:24.395Z</time></trkpt><trkpt lat="46.5691333" lon="12.484825"><ele>1478.3333333333335</ele><time>2026-05-02T15:03:25.395Z</time></trkpt><trkpt lat="46.56896" lon="12.484775"><ele>1478.0</ele><time>2026-05-02T15:03:26.395Z</time></trkpt><trkpt lat="46.5687967" lon="12.484715"><ele>1476.6666666666667</ele><time>2026-05-02T15:03:27.395Z</time></trkpt><trkpt lat="46.5686333" lon="12.4846317"><ele>1475.3333333333333</ele><time>2026-05-02T15:03:28.395Z</time></trkpt><trkpt lat="46.5684667" lon="12.4845433"><ele>1474.0</ele><time>2026-05-02T15:03:29.395Z</time></trkpt><trkpt lat="46.5683117" lon="12.4844117"><ele>1478.0</ele><time>2026-05-02T15:03:30.394Z</time></trkpt><trkpt lat="46.56816" lon="12.48426"><ele>1482.0</ele><time>2026-05-02T15:03:31.395Z</time></trkpt><trkpt lat="46.5680133" lon="12.4840833"><ele>1486.0</ele><time>2026-05-02T15:03:32.394Z</time></trkpt><trkpt lat="46.5678617" lon="12.4839133"><ele>1485.0</ele><time>2026-05-02T15:03:33.395Z</time></trkpt><trkpt lat="46.5677183" lon="12.483735"><ele>1484.0</ele><time>2026-05-02T15:03:34.395Z</time></trkpt><trkpt lat="46.5675817" lon="12.4835717"><ele>1483.0</ele><time>2026-05-02T15:03:35.395Z</time></trkpt><trkpt lat="46.56745" lon="12.4833983"><ele>1483.0</ele><time>2026-05-02T15:03:36.395Z</time></trkpt><trkpt lat="46.5673167" lon="12.4832467"><ele>1483.0</ele><time>2026-05-02T15:03:37.395Z</time></trkpt><trkpt lat="46.5671733" lon="12.4830883"><ele>1483.0</ele><time>2026-05-02T15:03:38.395Z</time></trkpt><trkpt lat="46.5670267" lon="12.4829267"><ele>1481.0</ele><time>2026-05-02T15:03:39.395Z</time></trkpt><trkpt lat="46.5668667" lon="12.482775"><ele>1479.0</ele><time>2026-05-02T15:03:40.395Z</time></trkpt><trkpt lat="46.5667" lon="12.482635"><ele>1477.0</ele><time>2026-05-02T15:03:41.394Z</time></trkpt><trkpt lat="46.5665183" lon="12.4825133"><ele>1477.0</ele><time>2026-05-02T15:03:42.395Z</time></trkpt><trkpt lat="46.56633" lon="12.4824117"><ele>1477.0</ele><time>2026-05-02T15:03:43.395Z</time></trkpt><trkpt lat="46.5661367" lon="12.48231"><ele>1477.0</ele><time>2026-05-02T15:03:44.394Z</time></trkpt><trkpt lat="46.565955" lon="12.4822117"><ele>1477.0</ele><time>2026-05-02T15:03:45.395Z</time></trkpt><trkpt lat="46.5657717" lon="12.4821133"><ele>1477.0</ele><time>2026-05-02T15:03:46.394Z</time></trkpt><trkpt lat="46.565595" lon="12.4820183"><ele>1477.0</ele><time>2026-05-02T15:03:47.395Z</time></trkpt><trkpt lat="46.56542" lon="12.4819333"><ele>1473.0</ele><time>2026-05-02T15:03:48.395Z</time></trkpt><trkpt lat="46.5652517" lon="12.4818483"><ele>1469.0</ele><time>2026-05-02T15:03:49.394Z</time></trkpt><trkpt lat="46.5650933" lon="12.4817867"><ele>1465.0</ele><time>2026-05-02T15:03:50.395Z</time></trkpt><trkpt lat="46.5649433" lon="12.4817733"><ele>1465.0</ele><time>2026-05-02T15:03:51.395Z</time></trkpt><trkpt lat="46.5648033" lon="12.4818067"><ele>1465.0</ele><time>2026-05-02T15:03:52.395Z</time></trkpt><trkpt lat="46.564665" lon="12.4819267"><ele>1465.0</ele><time>2026-05-02T15:03:53.395Z</time></trkpt><trkpt lat="46.5645067" lon="12.48205"><ele>1463.6666666666665</ele><time>2026-05-02T15:03:54.395Z</time></trkpt><trkpt lat="46.5643517" lon="12.4822133"><ele>1462.3333333333333</ele><time>2026-05-02T15:03:55.395Z</time></trkpt><trkpt lat="46.5642017" lon="12.482395"><ele>1461.0</ele><time>2026-05-02T15:03:56.395Z</time></trkpt><trkpt lat="46.56407" lon="12.4825633"><ele>1461.0</ele><time>2026-05-02T15:03:57.395Z</time></trkpt><trkpt lat="46.5639367" lon="12.48273"><ele>1461.0</ele><time>2026-05-02T15:03:58.395Z</time></trkpt><trkpt lat="46.5638133" lon="12.4828767"><ele>1461.0</ele><time>2026-05-02T15:03:59.395Z</time></trkpt><trkpt lat="46.563685" lon="12.48299"><ele>1461.6666666666667</ele><time>2026-05-02T15:04:00.395Z</time></trkpt><trkpt lat="46.5635433" lon="12.4830767"><ele>1462.3333333333335</ele><time>2026-05-02T15:04:01.395Z</time></trkpt><trkpt lat="46.5633833" lon="12.483135"><ele>1463.0</ele><time>2026-05-02T15:04:02.395Z</time></trkpt><trkpt lat="46.5632117" lon="12.48316"><ele>1463.0</ele><time>2026-05-02T15:04:03.395Z</time></trkpt><trkpt lat="46.5630383" lon="12.48318"><ele>1463.0</ele><time>2026-05-02T15:04:04.395Z</time></trkpt><trkpt lat="46.562875" lon="12.4832133"><ele>1463.0</ele><time>2026-05-02T15:04:05.395Z</time></trkpt><trkpt lat="46.5627133" lon="12.4832483"><ele>1463.6666666666667</ele><time>2026-05-02T15:04:06.395Z</time></trkpt><trkpt lat="46.5625567" lon="12.4832783"><ele>1464.3333333333333</ele><time>2026-05-02T15:04:07.395Z</time></trkpt><trkpt lat="46.5623883" lon="12.483295"><ele>1465.0</ele><time>2026-05-02T15:04:08.395Z</time></trkpt><trkpt lat="46.5622183" lon="12.4833233"><ele>1465.0</ele><time>2026-05-02T15:04:09.394Z</time></trkpt><trkpt lat="46.5620317" lon="12.4833483"><ele>1465.0</ele><time>2026-05-02T15:04:10.395Z</time></trkpt><trkpt lat="46.56184" lon="12.4833633"><ele>1465.0</ele><time>2026-05-02T15:04:11.395Z</time></trkpt><trkpt lat="46.5616483" lon="12.483375"><ele>1464.0</ele><time>2026-05-02T15:04:12.395Z</time></trkpt><trkpt lat="46.5614667" lon="12.483405"><ele>1463.0</ele><time>2026-05-02T15:04:13.395Z</time></trkpt><trkpt lat="46.5612867" lon="12.4834217"><ele>1462.0</ele><time>2026-05-02T15:04:14.395Z</time></trkpt><trkpt lat="46.56111" lon="12.4834483"><ele>1461.0</ele><time>2026-05-02T15:04:15.395Z</time></trkpt><trkpt lat="46.56094" lon="12.483475"><ele>1460.0</ele><time>2026-05-02T15:04:16.395Z</time></trkpt><trkpt lat="46.560765" lon="12.4834983"><ele>1459.0</ele><time>2026-05-02T15:04:17.395Z</time></trkpt><trkpt lat="46.5605933" lon="12.4835083"><ele>1459.0</ele><time>2026-05-02T15:04:18.395Z</time></trkpt><trkpt lat="46.5604283" lon="12.483515"><ele>1459.0</ele><time>2026-05-02T15:04:19.395Z</time></trkpt><trkpt lat="46.5602583" lon="12.4835133"><ele>1459.0</ele><time>2026-05-02T15:04:20.395Z</time></trkpt><trkpt lat="46.5600917" lon="12.4835167"><ele>1457.0</ele><time>2026-05-02T15:04:21.395Z</time></trkpt><trkpt lat="46.5599317" lon="12.4835117"><ele>1455.0</ele><time>2026-05-02T15:04:22.395Z</time></trkpt><trkpt lat="46.5597717" lon="12.4834883"><ele>1453.0</ele><time>2026-05-02T15:04:23.395Z</time></trkpt><trkpt lat="46.559625" lon="12.4834483"><ele>1449.0</ele><time>2026-05-02T15:04:24.394Z</time></trkpt><trkpt lat="46.5594767" lon="12.4833483"><ele>1445.0</ele><time>2026-05-02T15:04:25.395Z</time></trkpt><trkpt lat="46.5593417" lon="12.48324"><ele>1441.0</ele><time>2026-05-02T15:04:26.395Z</time></trkpt><trkpt lat="46.5592117" lon="12.4831317"><ele>1441.0</ele><time>2026-05-02T15:04:27.395Z</time></trkpt><trkpt lat="46.5590733" lon="12.4830417"><ele>1441.0</ele><time>2026-05-02T15:04:28.395Z</time></trkpt><trkpt lat="46.5589467" lon="12.4829283"><ele>1441.0</ele><time>2026-05-02T15:04:29.394Z</time></trkpt><trkpt lat="46.55884" lon="12.48283"><ele>1441.0</ele><time>2026-05-02T15:04:30.395Z</time></trkpt><trkpt lat="46.55875" lon="12.4827383"><ele>1443.0</ele><time>2026-05-02T15:04:31.395Z</time></trkpt><trkpt lat="46.558665" lon="12.4826783"><ele>1445.0</ele><time>2026-05-02T15:04:32.395Z</time></trkpt><trkpt lat="46.5585733" lon="12.4826533"><ele>1447.0</ele><time>2026-05-02T15:04:33.395Z</time></trkpt><trkpt lat="46.55849" lon="12.4826717"><ele>1449.0</ele><time>2026-05-02T15:04:34.395Z</time></trkpt><trkpt lat="46.5584033" lon="12.4827567"><ele>1451.0</ele><time>2026-05-02T15:04:35.395Z</time></trkpt><trkpt lat="46.5583167" lon="12.4828733"><ele>1445.75</ele><time>2026-05-02T15:04:36.395Z</time></trkpt><trkpt lat="46.5582217" lon="12.4829717"><ele>1440.5</ele><time>2026-05-02T15:04:37.395Z</time></trkpt><trkpt lat="46.5581017" lon="12.4830317"><ele>1435.25</ele><time>2026-05-02T15:04:38.394Z</time></trkpt><trkpt lat="46.5579533" lon="12.483055"><ele>1430.0</ele><time>2026-05-02T15:04:39.394Z</time></trkpt><trkpt lat="46.55782" lon="12.4830683"><ele>1429.5</ele><time>2026-05-02T15:04:40.394Z</time></trkpt><trkpt lat="46.5576917" lon="12.4830717"><ele>1429.0</ele><time>2026-05-02T15:04:41.394Z</time></trkpt><trkpt lat="46.55757" lon="12.4830917"><ele>1428.5</ele><time>2026-05-02T15:04:42.395Z</time></trkpt><trkpt lat="46.557455" lon="12.4831217"><ele>1428.0</ele><time>2026-05-02T15:04:43.395Z</time></trkpt><trkpt lat="46.5573483" lon="12.4831667"><ele>1428.0</ele><time>2026-05-02T15:04:44.395Z</time></trkpt><trkpt lat="46.55724" lon="12.4832083"><ele>1428.0</ele><time>2026-05-02T15:04:45.395Z</time></trkpt><trkpt lat="46.5571367" lon="12.483225"><ele>1428.0</ele><time>2026-05-02T15:04:46.394Z</time></trkpt><trkpt lat="46.5570483" lon="12.4832283"><ele>1428.0</ele><time>2026-05-02T15:04:47.394Z</time></trkpt><trkpt lat="46.5569767" lon="12.483235"><ele>1428.0</ele><time>2026-05-02T15:04:48.395Z</time></trkpt><trkpt lat="46.5569133" lon="12.4832533"><ele>1428.0</ele><time>2026-05-02T15:04:49.394Z</time></trkpt><trkpt lat="46.5568483" lon="12.483345"><ele>1428.0</ele><time>2026-05-02T15:04:51.394Z</time></trkpt><trkpt lat="46.556915" lon="12.4834733"><ele>1428.0</ele><time>2026-05-02T15:04:53.395Z</time></trkpt><trkpt lat="46.5570033" lon="12.4834983"><ele>1428.0</ele><time>2026-05-02T15:04:54.394Z</time></trkpt><trkpt lat="46.5570917" lon="12.4835133"><ele>1428.0</ele><time>2026-05-02T15:04:55.395Z</time></trkpt><trkpt lat="46.557175" lon="12.4835133"><ele>1428.0</ele><time>2026-05-02T15:04:56.395Z</time></trkpt><trkpt lat="46.5572567" lon="12.483505"><ele>1428.0</ele><time>2026-05-02T15:04:57.395Z</time></trkpt><trkpt lat="46.5573283" lon="12.4835133"><ele>1428.0</ele><time>2026-05-02T15:04:58.395Z</time></trkpt><trkpt lat="46.557405" lon="12.4836233"><ele>1428.0</ele><time>2026-05-02T15:05:00.395Z</time></trkpt><trkpt lat="46.5573433" lon="12.4837867"><ele>1428.0</ele><time>2026-05-02T15:05:02.395Z</time></trkpt><trkpt lat="46.55726" lon="12.4838417"><ele>1428.0</ele><time>2026-05-02T15:05:03.394Z</time></trkpt><trkpt lat="46.5571633" lon="12.4838767"><ele>1425.1666666666667</ele><time>2026-05-02T15:05:04.395Z</time></trkpt><trkpt lat="46.5570683" lon="12.48391"><ele>1422.3333333333333</ele><time>2026-05-02T15:05:05.395Z</time></trkpt><trkpt lat="46.5569733" lon="12.483945"><ele>1419.5</ele><time>2026-05-02T15:05:06.395Z</time></trkpt><trkpt lat="46.5568833" lon="12.4839667"><ele>1416.6666666666665</ele><time>2026-05-02T15:05:07.395Z</time></trkpt><trkpt lat="46.5568033" lon="12.4840017"><ele>1413.8333333333333</ele><time>2026-05-02T15:05:08.395Z</time></trkpt><trkpt lat="46.5567383" lon="12.48405"><ele>1411.0</ele><time>2026-05-02T15:05:09.395Z</time></trkpt><trkpt lat="46.5567" lon="12.4842067"><ele>1411.0</ele><time>2026-05-02T15:05:11.395Z</time></trkpt><trkpt lat="46.5567633" lon="12.4843567"><ele>1411.0</ele><time>2026-05-02T15:05:13.395Z</time></trkpt><trkpt lat="46.5568683" lon="12.4844233"><ele>1411.0</ele><time>2026-05-02T15:05:14.395Z</time></trkpt><trkpt lat="46.5569717" lon="12.48447"><ele>1411.0</ele><time>2026-05-02T15:05:15.395Z</time></trkpt><trkpt lat="46.5570683" lon="12.4845117"><ele>1411.0</ele><time>2026-05-02T15:05:16.394Z</time></trkpt><trkpt lat="46.557155" lon="12.4845483"><ele>1410.5</ele><time>2026-05-02T15:05:17.394Z</time></trkpt><trkpt lat="46.5572383" lon="12.4845833"><ele>1410.0</ele><time>2026-05-02T15:05:18.395Z</time></trkpt><trkpt lat="46.55733" lon="12.484615"><ele>1409.5</ele><time>2026-05-02T15:05:19.394Z</time></trkpt><trkpt lat="46.557415" lon="12.4846333"><ele>1409.0</ele><time>2026-05-02T15:05:20.395Z</time></trkpt><trkpt lat="46.5575" lon="12.484645"><ele>1408.5</ele><time>2026-05-02T15:05:21.395Z</time></trkpt><trkpt lat="46.5575683" lon="12.4846417"><ele>1408.0</ele><time>2026-05-02T15:05:22.395Z</time></trkpt><trkpt lat="46.55766" lon="12.4846867"><ele>1404.4</ele><time>2026-05-02T15:05:24.395Z</time></trkpt><trkpt lat="46.5576867" lon="12.4848067"><ele>1400.8000000000002</ele><time>2026-05-02T15:05:26.395Z</time></trkpt><trkpt lat="46.5576233" lon="12.4849433"><ele>1397.2</ele><time>2026-05-02T15:05:28.395Z</time></trkpt><trkpt lat="46.5575583" lon="12.4850233"><ele>1393.6</ele><time>2026-05-02T15:05:29.394Z</time></trkpt><trkpt lat="46.5574867" lon="12.4851167"><ele>1390.0</ele><time>2026-05-02T15:05:30.395Z</time></trkpt><trkpt lat="46.5574233" lon="12.4852267"><ele>1390.0</ele><time>2026-05-02T15:05:31.395Z</time></trkpt><trkpt lat="46.5573633" lon="12.4853383"><ele>1390.0</ele><time>2026-05-02T15:05:32.395Z</time></trkpt><trkpt lat="46.557335" lon="12.4854683"><ele>1390.0</ele><time>2026-05-02T15:05:33.395Z</time></trkpt><trkpt lat="46.5573067" lon="12.4855867"><ele>1390.0</ele><time>2026-05-02T15:05:34.394Z</time></trkpt><trkpt lat="46.5572783" lon="12.4857"><ele>1390.0</ele><time>2026-05-02T15:05:35.395Z</time></trkpt><trkpt lat="46.55725" lon="12.4858017"><ele>1390.0</ele><time>2026-05-02T15:05:36.395Z</time></trkpt><trkpt lat="46.5572167" lon="12.4859"><ele>1388.6666666666665</ele><time>2026-05-02T15:05:37.395Z</time></trkpt><trkpt lat="46.557195" lon="12.4859933"><ele>1387.3333333333333</ele><time>2026-05-02T15:05:38.395Z</time></trkpt><trkpt lat="46.557165" lon="12.4860817"><ele>1386.0</ele><time>2026-05-02T15:05:39.395Z</time></trkpt><trkpt lat="46.5571333" lon="12.4861667"><ele>1384.6666666666667</ele><time>2026-05-02T15:05:40.395Z</time></trkpt><trkpt lat="46.557095" lon="12.4862533"><ele>1383.3333333333335</ele><time>2026-05-02T15:05:41.394Z</time></trkpt><trkpt lat="46.557035" lon="12.4864133"><ele>1382.0</ele><time>2026-05-02T15:05:43.395Z</time></trkpt><trkpt lat="46.5569967" lon="12.4865067"><ele>1381.6</ele><time>2026-05-02T15:05:44.394Z</time></trkpt><trkpt lat="46.5569417" lon="12.486605"><ele>1381.1999999999998</ele><time>2026-05-02T15:05:45.395Z</time></trkpt><trkpt lat="46.55687" lon="12.4866983"><ele>1380.8</ele><time>2026-05-02T15:05:46.394Z</time></trkpt><trkpt lat="46.5567733" lon="12.486765"><ele>1380.4</ele><time>2026-05-02T15:05:47.395Z</time></trkpt><trkpt lat="46.55668" lon="12.486815"><ele>1380.0</ele><time>2026-05-02T15:05:48.394Z</time></trkpt><trkpt lat="46.556595" lon="12.4868367"><ele>1380.0</ele><time>2026-05-02T15:05:49.395Z</time></trkpt><trkpt lat="46.55651" lon="12.48682"><ele>1380.0</ele><time>2026-05-02T15:05:50.395Z</time></trkpt><trkpt lat="46.5564383" lon="12.4867617"><ele>1380.0</ele><time>2026-05-02T15:05:51.395Z</time></trkpt><trkpt lat="46.5563433" lon="12.48665"><ele>1380.0</ele><time>2026-05-02T15:05:52.394Z</time></trkpt><trkpt lat="46.55624" lon="12.4865217"><ele>1380.0</ele><time>2026-05-02T15:05:53.395Z</time></trkpt><trkpt lat="46.5561367" lon="12.4863817"><ele>1379.5</ele><time>2026-05-02T15:05:54.395Z</time></trkpt><trkpt lat="46.5560317" lon="12.4862433"><ele>1379.0</ele><time>2026-05-02T15:05:55.394Z</time></trkpt><trkpt lat="46.5559217" lon="12.4861267"><ele>1378.5</ele><time>2026-05-02T15:05:56.395Z</time></trkpt><trkpt lat="46.555805" lon="12.4860433"><ele>1378.0</ele><time>2026-05-02T15:05:57.394Z</time></trkpt><trkpt lat="46.555665" lon="12.4859717"><ele>1378.0</ele><time>2026-05-02T15:05:58.395Z</time></trkpt><trkpt lat="46.5555183" lon="12.4859167"><ele>1378.0</ele><time>2026-05-02T15:05:59.395Z</time></trkpt><trkpt lat="46.5553567" lon="12.4858767"><ele>1378.0</ele><time>2026-05-02T15:06:00.395Z</time></trkpt><trkpt lat="46.555215" lon="12.4858117"><ele>1375.75</ele><time>2026-05-02T15:06:01.394Z</time></trkpt><trkpt lat="46.5550833" lon="12.4857267"><ele>1373.5</ele><time>2026-05-02T15:06:02.395Z</time></trkpt><trkpt lat="46.5549567" lon="12.485625"><ele>1371.25</ele><time>2026-05-02T15:06:03.394Z</time></trkpt><trkpt lat="46.5548383" lon="12.4855217"><ele>1369.0</ele><time>2026-05-02T15:06:04.395Z</time></trkpt><trkpt lat="46.554735" lon="12.4854017"><ele>1369.0</ele><time>2026-05-02T15:06:05.395Z</time></trkpt><trkpt lat="46.5546467" lon="12.48526"><ele>1369.0</ele><time>2026-05-02T15:06:06.395Z</time></trkpt><trkpt lat="46.5545667" lon="12.48511"><ele>1369.0</ele><time>2026-05-02T15:06:07.394Z</time></trkpt><trkpt lat="46.5544867" lon="12.4849533"><ele>1369.0</ele><time>2026-05-02T15:06:08.395Z</time></trkpt><trkpt lat="46.5544183" lon="12.484795"><ele>1362.5</ele><time>2026-05-02T15:06:09.394Z</time></trkpt><trkpt lat="46.5543533" lon="12.4846267"><ele>1356.0</ele><time>2026-05-02T15:06:10.395Z</time></trkpt><trkpt lat="46.5542817" lon="12.484475"><ele>1349.5</ele><time>2026-05-02T15:06:11.395Z</time></trkpt><trkpt lat="46.55422" lon="12.4843067"><ele>1343.0</ele><time>2026-05-02T15:06:12.395Z</time></trkpt><trkpt lat="46.554165" lon="12.4841367"><ele>1343.0</ele><time>2026-05-02T15:06:13.395Z</time></trkpt><trkpt lat="46.5541133" lon="12.4839633"><ele>1343.0</ele><time>2026-05-02T15:06:14.395Z</time></trkpt><trkpt lat="46.5540717" lon="12.4837667"><ele>1343.0</ele><time>2026-05-02T15:06:15.395Z</time></trkpt><trkpt lat="46.5540117" lon="12.4835867"><ele>1343.0</ele><time>2026-05-02T15:06:16.395Z</time></trkpt><trkpt lat="46.5539517" lon="12.4834067"><ele>1344.5</ele><time>2026-05-02T15:06:17.395Z</time></trkpt><trkpt lat="46.5538983" lon="12.4832233"><ele>1346.0</ele><time>2026-05-02T15:06:18.395Z</time></trkpt><trkpt lat="46.5538517" lon="12.483035"><ele>1347.5</ele><time>2026-05-02T15:06:19.395Z</time></trkpt><trkpt lat="46.5538067" lon="12.4828567"><ele>1349.0</ele><time>2026-05-02T15:06:20.395Z</time></trkpt><trkpt lat="46.553755" lon="12.482695"><ele>1351.0</ele><time>2026-05-02T15:06:21.395Z</time></trkpt><trkpt lat="46.5537083" lon="12.482525"><ele>1353.0</ele><time>2026-05-02T15:06:22.394Z</time></trkpt><trkpt lat="46.5536583" lon="12.4823433"><ele>1355.0</ele><time>2026-05-02T15:06:23.394Z</time></trkpt><trkpt lat="46.5536233" lon="12.4821617"><ele>1357.0</ele><time>2026-05-02T15:06:24.395Z</time></trkpt><trkpt lat="46.5535717" lon="12.48199"><ele>1347.25</ele><time>2026-05-02T15:06:25.395Z</time></trkpt><trkpt lat="46.55352" lon="12.4818167"><ele>1337.5</ele><time>2026-05-02T15:06:26.395Z</time></trkpt><trkpt lat="46.5534683" lon="12.4816433"><ele>1327.75</ele><time>2026-05-02T15:06:27.395Z</time></trkpt><trkpt lat="46.5534117" lon="12.4814717"><ele>1318.0</ele><time>2026-05-02T15:06:28.395Z</time></trkpt><trkpt lat="46.5533517" lon="12.4813033"><ele>1322.25</ele><time>2026-05-02T15:06:29.395Z</time></trkpt><trkpt lat="46.55329" lon="12.48114"><ele>1326.5</ele><time>2026-05-02T15:06:30.394Z</time></trkpt><trkpt lat="46.553225" lon="12.4809817"><ele>1330.75</ele><time>2026-05-02T15:06:31.395Z</time></trkpt><trkpt lat="46.5531533" lon="12.4808117"><ele>1335.0</ele><time>2026-05-02T15:06:32.395Z</time></trkpt><trkpt lat="46.553075" lon="12.48062"><ele>1340.3333333333333</ele><time>2026-05-02T15:06:33.395Z</time></trkpt><trkpt lat="46.5529717" lon="12.480415"><ele>1345.6666666666665</ele><time>2026-05-02T15:06:34.395Z</time></trkpt><trkpt lat="46.5528433" lon="12.480175"><ele>1351.0</ele><time>2026-05-02T15:06:35.395Z</time></trkpt><trkpt lat="46.5527083" lon="12.4799283"><ele>1339.0</ele><time>2026-05-02T15:06:36.395Z</time></trkpt><trkpt lat="46.5525867" lon="12.4796767"><ele>1327.0</ele><time>2026-05-02T15:06:37.394Z</time></trkpt><trkpt lat="46.5524733" lon="12.4794167"><ele>1315.0</ele><time>2026-05-02T15:06:38.394Z</time></trkpt><trkpt lat="46.5523667" lon="12.479145"><ele>1315.0</ele><time>2026-05-02T15:06:39.395Z</time></trkpt><trkpt lat="46.5522667" lon="12.4788767"><ele>1315.0</ele><time>2026-05-02T15:06:40.395Z</time></trkpt><trkpt lat="46.552175" lon="12.4786183"><ele>1315.0</ele><time>2026-05-02T15:06:41.394Z</time></trkpt><trkpt lat="46.5520767" lon="12.4783733"><ele>1307.0</ele><time>2026-05-02T15:06:42.395Z</time></trkpt><trkpt lat="46.5519717" lon="12.4781367"><ele>1299.0</ele><time>2026-05-02T15:06:43.395Z</time></trkpt><trkpt lat="46.55188" lon="12.4779017"><ele>1291.0</ele><time>2026-05-02T15:06:44.395Z</time></trkpt><trkpt lat="46.55179" lon="12.4776867"><ele>1291.0</ele><time>2026-05-02T15:06:45.395Z</time></trkpt><trkpt lat="46.5517033" lon="12.4774883"><ele>1291.0</ele><time>2026-05-02T15:06:46.394Z</time></trkpt><trkpt lat="46.55162" lon="12.4772767"><ele>1291.0</ele><time>2026-05-02T15:06:47.395Z</time></trkpt><trkpt lat="46.5515367" lon="12.4770867"><ele>1292.0</ele><time>2026-05-02T15:06:48.394Z</time></trkpt><trkpt lat="46.551485" lon="12.476875"><ele>1293.0</ele><time>2026-05-02T15:06:49.395Z</time></trkpt><trkpt lat="46.5514533" lon="12.476645"><ele>1294.0</ele><time>2026-05-02T15:06:50.395Z</time></trkpt><trkpt lat="46.55143" lon="12.4764033"><ele>1294.6666666666665</ele><time>2026-05-02T15:06:51.395Z</time></trkpt><trkpt lat="46.5514467" lon="12.476185"><ele>1295.3333333333333</ele><time>2026-05-02T15:06:52.395Z</time></trkpt><trkpt lat="46.5514133" lon="12.4759517"><ele>1296.0</ele><time>2026-05-02T15:06:53.395Z</time></trkpt><trkpt lat="46.551365" lon="12.47572"><ele>1296.0</ele><time>2026-05-02T15:06:54.394Z</time></trkpt><trkpt lat="46.5513" lon="12.47552"><ele>1296.0</ele><time>2026-05-02T15:06:55.394Z</time></trkpt><trkpt lat="46.55122" lon="12.4753317"><ele>1296.0</ele><time>2026-05-02T15:06:56.395Z</time></trkpt><trkpt lat="46.55117" lon="12.47516"><ele>1296.0</ele><time>2026-05-02T15:06:57.394Z</time></trkpt><trkpt lat="46.5511283" lon="12.4750067"><ele>1288.0</ele><time>2026-05-02T15:06:58.395Z</time></trkpt><trkpt lat="46.5511033" lon="12.4748867"><ele>1280.0</ele><time>2026-05-02T15:06:59.394Z</time></trkpt><trkpt lat="46.55108" lon="12.4747983"><ele>1272.0</ele><time>2026-05-02T15:07:00.394Z</time></trkpt><trkpt lat="46.551015" lon="12.4746833"><ele>1264.0</ele><time>2026-05-02T15:07:02.395Z</time></trkpt><trkpt lat="46.55094" lon="12.4746933"><ele>1256.0</ele><time>2026-05-02T15:07:04.394Z</time></trkpt><trkpt lat="46.5509117" lon="12.4748817"><ele>1256.0</ele><time>2026-05-02T15:07:06.395Z</time></trkpt><trkpt lat="46.5509267" lon="12.4750283"><ele>1256.0</ele><time>2026-05-02T15:07:07.395Z</time></trkpt><trkpt lat="46.5509517" lon="12.47521"><ele>1256.0</ele><time>2026-05-02T15:07:08.395Z</time></trkpt><trkpt lat="46.5509917" lon="12.4753983"><ele>1256.0</ele><time>2026-05-02T15:07:09.395Z</time></trkpt><trkpt lat="46.5510267" lon="12.4755983"><ele>1254.3999999999999</ele><time>2026-05-02T15:07:10.395Z</time></trkpt><trkpt lat="46.5510467" lon="12.475775"><ele>1252.8</ele><time>2026-05-02T15:07:11.395Z</time></trkpt><trkpt lat="46.551065" lon="12.4759317"><ele>1251.1999999999998</ele><time>2026-05-02T15:07:12.394Z</time></trkpt><trkpt lat="46.5510883" lon="12.476075"><ele>1249.6</ele><time>2026-05-02T15:07:13.395Z</time></trkpt><trkpt lat="46.5511083" lon="12.4762183"><ele>1248.0</ele><time>2026-05-02T15:07:14.394Z</time></trkpt><trkpt lat="46.5511233" lon="12.4763517"><ele>1248.0</ele><time>2026-05-02T15:07:15.394Z</time></trkpt><trkpt lat="46.5511283" lon="12.4764433"><ele>1248.0</ele><time>2026-05-02T15:07:16.395Z</time></trkpt><trkpt lat="46.5510667" lon="12.4765367"><ele>1248.0</ele><time>2026-05-02T15:07:18.395Z</time></trkpt><trkpt lat="46.5509783" lon="12.4764933"><ele>1248.0</ele><time>2026-05-02T15:07:20.395Z</time></trkpt><trkpt lat="46.5509683" lon="12.4763867"><ele>1248.0</ele><time>2026-05-02T15:07:21.395Z</time></trkpt><trkpt lat="46.55096" lon="12.4762567"><ele>1248.0</ele><time>2026-05-02T15:07:22.395Z</time></trkpt><trkpt lat="46.5509383" lon="12.4761033"><ele>1248.0</ele><time>2026-05-02T15:07:23.395Z</time></trkpt><trkpt lat="46.5508867" lon="12.4759333"><ele>1248.0</ele><time>2026-05-02T15:07:24.394Z</time></trkpt><trkpt lat="46.55083" lon="12.4757783"><ele>1248.0</ele><time>2026-05-02T15:07:25.395Z</time></trkpt><trkpt lat="46.5507783" lon="12.47563"><ele>1248.0</ele><time>2026-05-02T15:07:26.395Z</time></trkpt><trkpt lat="46.55073" lon="12.4754933"><ele>1248.0</ele><time>2026-05-02T15:07:27.395Z</time></trkpt><trkpt lat="46.5507017" lon="12.4753817"><ele>1248.0</ele><time>2026-05-02T15:07:28.395Z</time></trkpt><trkpt lat="46.5506783" lon="12.4752933"><ele>1248.0</ele><time>2026-05-02T15:07:29.394Z</time></trkpt><trkpt lat="46.5506033" lon="12.4752333"><ele>1248.0</ele><time>2026-05-02T15:07:31.395Z</time></trkpt><trkpt lat="46.55056" lon="12.47535"><ele>1248.0</ele><time>2026-05-02T15:07:33.395Z</time></trkpt><trkpt lat="46.55062" lon="12.47554"><ele>1248.0</ele><time>2026-05-02T15:07:35.394Z</time></trkpt><trkpt lat="46.5506467" lon="12.4757183"><ele>1248.0</ele><time>2026-05-02T15:07:36.395Z</time></trkpt><trkpt lat="46.5506717" lon="12.4759033"><ele>1248.0</ele><time>2026-05-02T15:07:37.395Z</time></trkpt><trkpt lat="46.550675" lon="12.4761067"><ele>1248.0</ele><time>2026-05-02T15:07:38.395Z</time></trkpt><trkpt lat="46.5506783" lon="12.476305"><ele>1246.0</ele><time>2026-05-02T15:07:39.395Z</time></trkpt><trkpt lat="46.550675" lon="12.47649"><ele>1244.0</ele><time>2026-05-02T15:07:40.395Z</time></trkpt><trkpt lat="46.550665" lon="12.4766533"><ele>1242.0</ele><time>2026-05-02T15:07:41.395Z</time></trkpt><trkpt lat="46.550655" lon="12.47681"><ele>1240.0</ele><time>2026-05-02T15:07:42.395Z</time></trkpt><trkpt lat="46.5506483" lon="12.47697"><ele>1237.75</ele><time>2026-05-02T15:07:43.395Z</time></trkpt><trkpt lat="46.5506383" lon="12.4771433"><ele>1235.5</ele><time>2026-05-02T15:07:44.394Z</time></trkpt><trkpt lat="46.550635" lon="12.4773167"><ele>1233.25</ele><time>2026-05-02T15:07:45.394Z</time></trkpt><trkpt lat="46.5506417" lon="12.4775"><ele>1231.0</ele><time>2026-05-02T15:07:46.395Z</time></trkpt><trkpt lat="46.5506567" lon="12.4776833"><ele>1231.0</ele><time>2026-05-02T15:07:47.395Z</time></trkpt><trkpt lat="46.5506717" lon="12.4778717"><ele>1231.0</ele><time>2026-05-02T15:07:48.395Z</time></trkpt><trkpt lat="46.55071" lon="12.478075"><ele>1231.0</ele><time>2026-05-02T15:07:49.395Z</time></trkpt><trkpt lat="46.5507583" lon="12.4782967"><ele>1231.0</ele><time>2026-05-02T15:07:50.395Z</time></trkpt><trkpt lat="46.5508217" lon="12.4785433"><ele>1220.6666666666665</ele><time>2026-05-02T15:07:51.394Z</time></trkpt><trkpt lat="46.55089" lon="12.4787933"><ele>1210.3333333333333</ele><time>2026-05-02T15:07:52.395Z</time></trkpt><trkpt lat="46.5509467" lon="12.4790317"><ele>1200.0</ele><time>2026-05-02T15:07:53.395Z</time></trkpt><trkpt lat="46.5510233" lon="12.479275"><ele>1200.0</ele><time>2026-05-02T15:07:54.395Z</time></trkpt><trkpt lat="46.5510967" lon="12.479505"><ele>1200.0</ele><time>2026-05-02T15:07:55.395Z</time></trkpt><trkpt lat="46.55118" lon="12.4797217"><ele>1200.0</ele><time>2026-05-02T15:07:56.395Z</time></trkpt><trkpt lat="46.5512617" lon="12.479935"><ele>1204.3333333333333</ele><time>2026-05-02T15:07:57.395Z</time></trkpt><trkpt lat="46.5513383" lon="12.4801517"><ele>1208.6666666666665</ele><time>2026-05-02T15:07:58.395Z</time></trkpt><trkpt lat="46.5513933" lon="12.480365"><ele>1213.0</ele><time>2026-05-02T15:07:59.394Z</time></trkpt><trkpt lat="46.5514333" lon="12.480575"><ele>1213.0</ele><time>2026-05-02T15:08:00.395Z</time></trkpt><trkpt lat="46.5514583" lon="12.4807633"><ele>1213.0</ele><time>2026-05-02T15:08:01.394Z</time></trkpt><trkpt lat="46.5514733" lon="12.4809567"><ele>1213.0</ele><time>2026-05-02T15:08:02.395Z</time></trkpt><trkpt lat="46.5514717" lon="12.481145"><ele>1213.0</ele><time>2026-05-02T15:08:03.395Z</time></trkpt><trkpt lat="46.5514583" lon="12.481335"><ele>1211.5</ele><time>2026-05-02T15:08:04.395Z</time></trkpt><trkpt lat="46.5514133" lon="12.4815217"><ele>1210.0</ele><time>2026-05-02T15:08:05.395Z</time></trkpt><trkpt lat="46.551355" lon="12.4817233"><ele>1208.5</ele><time>2026-05-02T15:08:06.395Z</time></trkpt><trkpt lat="46.5513183" lon="12.481945"><ele>1207.0</ele><time>2026-05-02T15:08:07.395Z</time></trkpt><trkpt lat="46.551255" lon="12.4821467"><ele>1207.0</ele><time>2026-05-02T15:08:08.395Z</time></trkpt><trkpt lat="46.5512083" lon="12.482355"><ele>1207.0</ele><time>2026-05-02T15:08:09.394Z</time></trkpt><trkpt lat="46.551155" lon="12.4825317"><ele>1207.0</ele><time>2026-05-02T15:08:10.394Z</time></trkpt><trkpt lat="46.55111" lon="12.4826783"><ele>1207.0</ele><time>2026-05-02T15:08:11.395Z</time></trkpt><trkpt lat="46.551065" lon="12.482795"><ele>1200.2</ele><time>2026-05-02T15:08:12.395Z</time></trkpt><trkpt lat="46.5509917" lon="12.4828583"><ele>1193.4</ele><time>2026-05-02T15:08:13.395Z</time></trkpt><trkpt lat="46.55091" lon="12.4828767"><ele>1186.6</ele><time>2026-05-02T15:08:14.395Z</time></trkpt><trkpt lat="46.55081" lon="12.48285"><ele>1179.8</ele><time>2026-05-02T15:08:15.395Z</time></trkpt><trkpt lat="46.550715" lon="12.482775"><ele>1173.0</ele><time>2026-05-02T15:08:16.395Z</time></trkpt><trkpt lat="46.550635" lon="12.482685"><ele>1173.0</ele><time>2026-05-02T15:08:17.394Z</time></trkpt><trkpt lat="46.5505667" lon="12.4826367"><ele>1173.0</ele><time>2026-05-02T15:08:18.395Z</time></trkpt><trkpt lat="46.5504617" lon="12.4826683"><ele>1173.0</ele><time>2026-05-02T15:08:20.395Z</time></trkpt><trkpt lat="46.5504583" lon="12.4828533"><ele>1173.0</ele><time>2026-05-02T15:08:22.395Z</time></trkpt><trkpt lat="46.5504883" lon="12.4829833"><ele>1173.0</ele><time>2026-05-02T15:08:23.395Z</time></trkpt><trkpt lat="46.5504867" lon="12.4830883"><ele>1174.0</ele><time>2026-05-02T15:08:24.394Z</time></trkpt><trkpt lat="46.5504817" lon="12.483185"><ele>1175.0</ele><time>2026-05-02T15:08:25.395Z</time></trkpt><trkpt lat="46.55042" lon="12.483245"><ele>1176.0</ele><time>2026-05-02T15:08:27.394Z</time></trkpt><trkpt lat="46.55036" lon="12.4831583"><ele>1177.0</ele><time>2026-05-02T15:08:28.395Z</time></trkpt><trkpt lat="46.5502933" lon="12.4829917"><ele>1178.0</ele><time>2026-05-02T15:08:29.394Z</time></trkpt><trkpt lat="46.550215" lon="12.482775"><ele>1169.6666666666667</ele><time>2026-05-02T15:08:30.395Z</time></trkpt><trkpt lat="46.55014" lon="12.482555"><ele>1161.3333333333333</ele><time>2026-05-02T15:08:31.394Z</time></trkpt><trkpt lat="46.550065" lon="12.4823517"><ele>1153.0</ele><time>2026-05-02T15:08:32.395Z</time></trkpt><trkpt lat="46.5500017" lon="12.482155"><ele>1151.2</ele><time>2026-05-02T15:08:33.394Z</time></trkpt><trkpt lat="46.5499367" lon="12.481985"><ele>1149.4</ele><time>2026-05-02T15:08:34.395Z</time></trkpt><trkpt lat="46.5498817" lon="12.4818417"><ele>1147.6000000000001</ele><time>2026-05-02T15:08:35.394Z</time></trkpt><trkpt lat="46.5498517" lon="12.481735"><ele>1145.8</ele><time>2026-05-02T15:08:36.394Z</time></trkpt><trkpt lat="46.54984" lon="12.4816333"><ele>1144.0</ele><time>2026-05-02T15:08:37.395Z</time></trkpt><trkpt lat="46.5498433" lon="12.4815383"><ele>1144.0</ele><time>2026-05-02T15:08:38.394Z</time></trkpt><trkpt lat="46.549875" lon="12.4814567"><ele>1144.0</ele><time>2026-05-02T15:08:39.394Z</time></trkpt><trkpt lat="46.549935" lon="12.4813917"><ele>1144.0</ele><time>2026-05-02T15:08:40.395Z</time></trkpt><trkpt lat="46.5500417" lon="12.4813817"><ele>1144.0</ele><time>2026-05-02T15:08:41.395Z</time></trkpt><trkpt lat="46.5501217" lon="12.481345"><ele>1144.0</ele><time>2026-05-02T15:08:42.395Z</time></trkpt><trkpt lat="46.550195" lon="12.4812967"><ele>1144.0</ele><time>2026-05-02T15:08:43.395Z</time></trkpt><trkpt lat="46.5502567" lon="12.4812383"><ele>1141.0</ele><time>2026-05-02T15:08:44.395Z</time></trkpt><trkpt lat="46.5503267" lon="12.4811867"><ele>1138.0</ele><time>2026-05-02T15:08:45.394Z</time></trkpt><trkpt lat="46.550365" lon="12.4810833"><ele>1135.0</ele><time>2026-05-02T15:08:46.395Z</time></trkpt><trkpt lat="46.5502833" lon="12.4808483"><ele>1132.0</ele><time>2026-05-02T15:08:47.395Z</time></trkpt><trkpt lat="46.5502283" lon="12.4806383"><ele>1132.5</ele><time>2026-05-02T15:08:48.395Z</time></trkpt><trkpt lat="46.5501633" lon="12.48043"><ele>1133.0</ele><time>2026-05-02T15:08:49.394Z</time></trkpt><trkpt lat="46.5501217" lon="12.4802383"><ele>1133.5</ele><time>2026-05-02T15:08:50.394Z</time></trkpt><trkpt lat="46.550085" lon="12.4800933"><ele>1134.0</ele><time>2026-05-02T15:08:51.394Z</time></trkpt><trkpt lat="46.5500433" lon="12.4800017"><ele>1134.0</ele><time>2026-05-02T15:08:52.395Z</time></trkpt><trkpt lat="46.5499633" lon="12.479985"><ele>1134.0</ele><time>2026-05-02T15:08:55.395Z</time></trkpt><trkpt lat="46.5499383" lon="12.4800717"><ele>1134.0</ele><time>2026-05-02T15:08:56.394Z</time></trkpt><trkpt lat="46.549915" lon="12.4802"><ele>1134.0</ele><time>2026-05-02T15:08:58.395Z</time></trkpt><trkpt lat="46.5499" lon="12.4803783"><ele>1134.0</ele><time>2026-05-02T15:09:00.394Z</time></trkpt><trkpt lat="46.5498783" lon="12.4804733"><ele>1134.0</ele><time>2026-05-02T15:09:01.394Z</time></trkpt><trkpt lat="46.5498483" lon="12.480565"><ele>1133.6000000000001</ele><time>2026-05-02T15:09:02.395Z</time></trkpt><trkpt lat="46.549795" lon="12.4806317"><ele>1133.2</ele><time>2026-05-02T15:09:03.395Z</time></trkpt><trkpt lat="46.549715" lon="12.4806733"><ele>1132.8000000000002</ele><time>2026-05-02T15:09:04.395Z</time></trkpt><trkpt lat="46.5496283" lon="12.4806967"><ele>1132.4</ele><time>2026-05-02T15:09:05.394Z</time></trkpt><trkpt lat="46.549535" lon="12.480695"><ele>1132.0</ele><time>2026-05-02T15:09:06.395Z</time></trkpt><trkpt lat="46.5493917" lon="12.4806567"><ele>1128.5</ele><time>2026-05-02T15:09:07.395Z</time></trkpt><trkpt lat="46.54924" lon="12.4805667"><ele>1125.0</ele><time>2026-05-02T15:09:08.394Z</time></trkpt><trkpt lat="46.5491083" lon="12.4805033"><ele>1121.5</ele><time>2026-05-02T15:09:09.395Z</time></trkpt><trkpt lat="46.548975" lon="12.4804383"><ele>1118.0</ele><time>2026-05-02T15:09:10.394Z</time></trkpt><trkpt lat="46.5488583" lon="12.4804067"><ele>1116.4285714285716</ele><time>2026-05-02T15:09:11.395Z</time></trkpt><trkpt lat="46.5487617" lon="12.4803983"><ele>1114.857142857143</ele><time>2026-05-02T15:09:12.395Z</time></trkpt><trkpt lat="46.5487" lon="12.4804283"><ele>1113.2857142857142</ele><time>2026-05-02T15:09:13.395Z</time></trkpt><trkpt lat="46.54864" lon="12.480465"><ele>1111.7142857142858</ele><time>2026-05-02T15:09:14.395Z</time></trkpt><trkpt lat="46.5486267" lon="12.4805667"><ele>1110.142857142857</ele><time>2026-05-02T15:09:15.395Z</time></trkpt><trkpt lat="46.5486" lon="12.480655"><ele>1108.5714285714287</ele><time>2026-05-02T15:09:16.395Z</time></trkpt><trkpt lat="46.5485983" lon="12.4807717"><ele>1107.0</ele><time>2026-05-02T15:09:17.395Z</time></trkpt><trkpt lat="46.5485867" lon="12.4808867"><ele>1105.6</ele><time>2026-05-02T15:09:18.395Z</time></trkpt><trkpt lat="46.5485767" lon="12.4809933"><ele>1104.2</ele><time>2026-05-02T15:09:19.395Z</time></trkpt><trkpt lat="46.5484867" lon="12.4810417"><ele>1102.8</ele><time>2026-05-02T15:09:21.395Z</time></trkpt><trkpt lat="46.5483817" lon="12.4809383"><ele>1101.4</ele><time>2026-05-02T15:09:23.395Z</time></trkpt><trkpt lat="46.5483267" lon="12.4807317"><ele>1100.0</ele><time>2026-05-02T15:09:24.395Z</time></trkpt><trkpt lat="46.54828" lon="12.4805433"><ele>1098.0</ele><time>2026-05-02T15:09:25.395Z</time></trkpt><trkpt lat="46.5482117" lon="12.480345"><ele>1096.0</ele><time>2026-05-02T15:09:26.395Z</time></trkpt><trkpt lat="46.54816" lon="12.4801733"><ele>1094.0</ele><time>2026-05-02T15:09:27.395Z</time></trkpt><trkpt lat="46.5481383" lon="12.4800233"><ele>1092.0</ele><time>2026-05-02T15:09:28.395Z</time></trkpt><trkpt lat="46.5481367" lon="12.4798967"><ele>1092.0</ele><time>2026-05-02T15:09:29.395Z</time></trkpt><trkpt lat="46.5481667" lon="12.4797933"><ele>1092.0</ele><time>2026-05-02T15:09:30.394Z</time></trkpt><trkpt lat="46.5482267" lon="12.4797183"><ele>1092.0</ele><time>2026-05-02T15:09:31.395Z</time></trkpt><trkpt lat="46.548305" lon="12.4796683"><ele>1092.0</ele><time>2026-05-02T15:09:32.395Z</time></trkpt><trkpt lat="46.5483917" lon="12.479645"><ele>1092.0</ele><time>2026-05-02T15:09:33.394Z</time></trkpt><trkpt lat="46.54849" lon="12.4796417"><ele>1092.0</ele><time>2026-05-02T15:09:34.395Z</time></trkpt><trkpt lat="46.5485867" lon="12.479645"><ele>1092.0</ele><time>2026-05-02T15:09:35.395Z</time></trkpt><trkpt lat="46.548675" lon="12.4796483"><ele>1092.0</ele><time>2026-05-02T15:09:36.395Z</time></trkpt><trkpt lat="46.5487467" lon="12.4796283"><ele>1092.0</ele><time>2026-05-02T15:09:37.395Z</time></trkpt><trkpt lat="46.5487533" lon="12.4795233"><ele>1092.0</ele><time>2026-05-02T15:09:38.394Z</time></trkpt><trkpt lat="46.5487733" lon="12.47943"><ele>1092.0</ele><time>2026-05-02T15:09:39.395Z</time></trkpt><trkpt lat="46.5487333" lon="12.4793067"><ele>1092.0</ele><time>2026-05-02T15:09:40.395Z</time></trkpt><trkpt lat="46.5486467" lon="12.47916"><ele>1089.3333333333333</ele><time>2026-05-02T15:09:41.395Z</time></trkpt><trkpt lat="46.5485483" lon="12.479"><ele>1086.6666666666665</ele><time>2026-05-02T15:09:42.395Z</time></trkpt><trkpt lat="46.5484217" lon="12.478815"><ele>1084.0</ele><time>2026-05-02T15:09:43.395Z</time></trkpt><trkpt lat="46.5482633" lon="12.4786083"><ele>1084.0</ele><time>2026-05-02T15:09:44.395Z</time></trkpt><trkpt lat="46.5481233" lon="12.4783867"><ele>1084.0</ele><time>2026-05-02T15:09:45.395Z</time></trkpt><trkpt lat="46.5480017" lon="12.4781783"><ele>1084.0</ele><time>2026-05-02T15:09:46.395Z</time></trkpt><trkpt lat="46.54789" lon="12.4779917"><ele>1081.0</ele><time>2026-05-02T15:09:47.395Z</time></trkpt><trkpt lat="46.5477833" lon="12.4778167"><ele>1078.0</ele><time>2026-05-02T15:09:48.395Z</time></trkpt><trkpt lat="46.547685" lon="12.4776633"><ele>1075.0</ele><time>2026-05-02T15:09:49.394Z</time></trkpt><trkpt lat="46.547595" lon="12.4775333"><ele>1072.0</ele><time>2026-05-02T15:09:50.394Z</time></trkpt><trkpt lat="46.54751" lon="12.47741"><ele>1072.0</ele><time>2026-05-02T15:09:51.395Z</time></trkpt><trkpt lat="46.5474417" lon="12.4772983"><ele>1072.0</ele><time>2026-05-02T15:09:52.395Z</time></trkpt><trkpt lat="46.54739" lon="12.4772233"><ele>1072.0</ele><time>2026-05-02T15:09:53.395Z</time></trkpt><trkpt lat="46.5473083" lon="12.477165"><ele>1072.0</ele><time>2026-05-02T15:09:55.395Z</time></trkpt><trkpt lat="46.5472117" lon="12.4772533"><ele>1072.0</ele><time>2026-05-02T15:09:57.395Z</time></trkpt><trkpt lat="46.5471767" lon="12.4773367"><ele>1072.0</ele><time>2026-05-02T15:09:58.395Z</time></trkpt><trkpt lat="46.5472233" lon="12.4774817"><ele>1072.0</ele><time>2026-05-02T15:09:59.395Z</time></trkpt><trkpt lat="46.5472767" lon="12.4776533"><ele>1072.0</ele><time>2026-05-02T15:10:00.395Z</time></trkpt><trkpt lat="46.5473383" lon="12.4778233"><ele>1072.0</ele><time>2026-05-02T15:10:01.394Z</time></trkpt><trkpt lat="46.54738" lon="12.4779767"><ele>1072.0</ele><time>2026-05-02T15:10:02.395Z</time></trkpt><trkpt lat="46.5474417" lon="12.478145"><ele>1068.4</ele><time>2026-05-02T15:10:03.395Z</time></trkpt><trkpt lat="46.5475" lon="12.47829"><ele>1064.8000000000002</ele><time>2026-05-02T15:10:04.395Z</time></trkpt><trkpt lat="46.5475583" lon="12.4784067"><ele>1061.2</ele><time>2026-05-02T15:10:05.395Z</time></trkpt><trkpt lat="46.5476117" lon="12.4785067"><ele>1057.6000000000001</ele><time>2026-05-02T15:10:06.395Z</time></trkpt><trkpt lat="46.5476667" lon="12.4785783"><ele>1054.0</ele><time>2026-05-02T15:10:07.395Z</time></trkpt><trkpt lat="46.5477283" lon="12.478685"><ele>1053.2</ele><time>2026-05-02T15:10:09.395Z</time></trkpt><trkpt lat="46.5476767" lon="12.4788433"><ele>1052.4</ele><time>2026-05-02T15:10:11.395Z</time></trkpt><trkpt lat="46.5476183" lon="12.4788917"><ele>1051.6</ele><time>2026-05-02T15:10:12.395Z</time></trkpt><trkpt lat="46.54756" lon="12.4789433"><ele>1050.8</ele><time>2026-05-02T15:10:13.395Z</time></trkpt><trkpt lat="46.5474483" lon="12.4789867"><ele>1050.0</ele><time>2026-05-02T15:10:14.395Z</time></trkpt><trkpt lat="46.5473433" lon="12.47908"><ele>1050.0</ele><time>2026-05-02T15:10:15.394Z</time></trkpt><trkpt lat="46.5472217" lon="12.4792483"><ele>1050.0</ele><time>2026-05-02T15:10:16.395Z</time></trkpt><trkpt lat="46.5470833" lon="12.47945"><ele>1050.0</ele><time>2026-05-02T15:10:17.395Z</time></trkpt><trkpt lat="46.54695" lon="12.4796633"><ele>1044.5</ele><time>2026-05-02T15:10:18.394Z</time></trkpt><trkpt lat="46.5468383" lon="12.47985"><ele>1039.0</ele><time>2026-05-02T15:10:19.395Z</time></trkpt><trkpt lat="46.5467533" lon="12.4800067"><ele>1033.5</ele><time>2026-05-02T15:10:20.395Z</time></trkpt><trkpt lat="46.5467083" lon="12.4801617"><ele>1028.0</ele><time>2026-05-02T15:10:21.395Z</time></trkpt><trkpt lat="46.5466817" lon="12.480335"><ele>1028.4</ele><time>2026-05-02T15:10:22.395Z</time></trkpt><trkpt lat="46.54666" lon="12.480515"><ele>1028.8</ele><time>2026-05-02T15:10:23.395Z</time></trkpt><trkpt lat="46.5466217" lon="12.4806767"><ele>1029.2</ele><time>2026-05-02T15:10:24.395Z</time></trkpt><trkpt lat="46.5465633" lon="12.48081"><ele>1029.6</ele><time>2026-05-02T15:10:25.395Z</time></trkpt><trkpt lat="46.5464967" lon="12.4809033"><ele>1030.0</ele><time>2026-05-02T15:10:26.395Z</time></trkpt><trkpt lat="46.5464367" lon="12.48095"><ele>1030.0</ele><time>2026-05-02T15:10:27.395Z</time></trkpt><trkpt lat="46.5463617" lon="12.480945"><ele>1030.0</ele><time>2026-05-02T15:10:28.395Z</time></trkpt><trkpt lat="46.5462933" lon="12.48089"><ele>1030.0</ele><time>2026-05-02T15:10:29.394Z</time></trkpt><trkpt lat="46.5462517" lon="12.48078"><ele>1030.0</ele><time>2026-05-02T15:10:30.395Z</time></trkpt><trkpt lat="46.546235" lon="12.4806017"><ele>1030.0</ele><time>2026-05-02T15:10:31.394Z</time></trkpt><trkpt lat="46.54624" lon="12.4803767"><ele>1029.3333333333333</ele><time>2026-05-02T15:10:32.394Z</time></trkpt><trkpt lat="46.5462533" lon="12.480105"><ele>1028.6666666666667</ele><time>2026-05-02T15:10:33.395Z</time></trkpt><trkpt lat="46.5462367" lon="12.4797867"><ele>1028.0</ele><time>2026-05-02T15:10:34.395Z</time></trkpt><trkpt lat="46.54624" lon="12.47951"><ele>1026.6666666666667</ele><time>2026-05-02T15:10:35.394Z</time></trkpt><trkpt lat="46.5462183" lon="12.4792767"><ele>1025.3333333333333</ele><time>2026-05-02T15:10:36.395Z</time></trkpt><trkpt lat="46.546175" lon="12.4790717"><ele>1024.0</ele><time>2026-05-02T15:10:37.395Z</time></trkpt><trkpt lat="46.5460867" lon="12.4788767"><ele>1022.6666666666666</ele><time>2026-05-02T15:10:38.395Z</time></trkpt><trkpt lat="46.5459583" lon="12.4787017"><ele>1021.3333333333333</ele><time>2026-05-02T15:10:39.395Z</time></trkpt><trkpt lat="46.5458167" lon="12.4785233"><ele>1020.0</ele><time>2026-05-02T15:10:40.395Z</time></trkpt><trkpt lat="46.5456933" lon="12.4783333"><ele>1020.0</ele><time>2026-05-02T15:10:41.395Z</time></trkpt><trkpt lat="46.54557" lon="12.478175"><ele>1020.0</ele><time>2026-05-02T15:10:42.394Z</time></trkpt><trkpt lat="46.545445" lon="12.47805"><ele>1020.0</ele><time>2026-05-02T15:10:43.395Z</time></trkpt><trkpt lat="46.5453383" lon="12.4779717"><ele>1020.0</ele><time>2026-05-02T15:10:44.395Z</time></trkpt><trkpt lat="46.5452617" lon="12.4779333"><ele>1019.5</ele><time>2026-05-02T15:10:45.395Z</time></trkpt><trkpt lat="46.545195" lon="12.477935"><ele>1019.0</ele><time>2026-05-02T15:10:46.395Z</time></trkpt><trkpt lat="46.5451333" lon="12.4779683"><ele>1018.5</ele><time>2026-05-02T15:10:47.395Z</time></trkpt><trkpt lat="46.545145" lon="12.4781133"><ele>1018.0</ele><time>2026-05-02T15:10:49.395Z</time></trkpt><trkpt lat="46.5451767" lon="12.4782533"><ele>1017.5</ele><time>2026-05-02T15:10:50.395Z</time></trkpt><trkpt lat="46.5452083" lon="12.4784067"><ele>1017.0</ele><time>2026-05-02T15:10:51.395Z</time></trkpt><trkpt lat="46.54521" lon="12.478545"><ele>1013.0</ele><time>2026-05-02T15:10:52.394Z</time></trkpt><trkpt lat="46.5451867" lon="12.4786517"><ele>1009.0</ele><time>2026-05-02T15:10:53.395Z</time></trkpt><trkpt lat="46.5451017" lon="12.4786933"><ele>1005.0</ele><time>2026-05-02T15:10:54.395Z</time></trkpt><trkpt lat="46.5450033" lon="12.4786867"><ele>1001.0</ele><time>2026-05-02T15:10:55.395Z</time></trkpt><trkpt lat="46.5448817" lon="12.4786283"><ele>997.0</ele><time>2026-05-02T15:10:56.395Z</time></trkpt><trkpt lat="46.544745" lon="12.4785217"><ele>997.0</ele><time>2026-05-02T15:10:57.394Z</time></trkpt><trkpt lat="46.544615" lon="12.4784067"><ele>997.0</ele><time>2026-05-02T15:10:58.394Z</time></trkpt><trkpt lat="46.5445" lon="12.4782767"><ele>997.0</ele><time>2026-05-02T15:10:59.394Z</time></trkpt><trkpt lat="46.5444133" lon="12.4781333"><ele>997.0</ele><time>2026-05-02T15:11:00.395Z</time></trkpt><trkpt lat="46.5443533" lon="12.47798"><ele>994.2</ele><time>2026-05-02T15:11:01.394Z</time></trkpt><trkpt lat="46.5443167" lon="12.4778217"><ele>991.4000000000001</ele><time>2026-05-02T15:11:02.395Z</time></trkpt><trkpt lat="46.544295" lon="12.477685"><ele>988.5999999999999</ele><time>2026-05-02T15:11:03.395Z</time></trkpt><trkpt lat="46.5442683" lon="12.4775533"><ele>985.8</ele><time>2026-05-02T15:11:04.394Z</time></trkpt><trkpt lat="46.544225" lon="12.477425"><ele>983.0</ele><time>2026-05-02T15:11:05.394Z</time></trkpt><trkpt lat="46.5441683" lon="12.4772983"><ele>983.0</ele><time>2026-05-02T15:11:06.395Z</time></trkpt><trkpt lat="46.5441033" lon="12.4771867"><ele>983.0</ele><time>2026-05-02T15:11:07.394Z</time></trkpt><trkpt lat="46.5440167" lon="12.4770833"><ele>983.0</ele><time>2026-05-02T15:11:08.394Z</time></trkpt><trkpt lat="46.5439267" lon="12.4769933"><ele>983.0</ele><time>2026-05-02T15:11:09.395Z</time></trkpt><trkpt lat="46.5438267" lon="12.47691"><ele>983.0</ele><time>2026-05-02T15:11:10.395Z</time></trkpt><trkpt lat="46.5437367" lon="12.4768417"><ele>980.0000000000001</ele><time>2026-05-02T15:11:11.394Z</time></trkpt><trkpt lat="46.5436483" lon="12.47678"><ele>977.0</ele><time>2026-05-02T15:11:12.395Z</time></trkpt><trkpt lat="46.543575" lon="12.4767133"><ele>974.0</ele><time>2026-05-02T15:11:13.395Z</time></trkpt><trkpt lat="46.5435117" lon="12.4766467"><ele>971.0</ele><time>2026-05-02T15:11:14.395Z</time></trkpt><trkpt lat="46.54346" lon="12.476565"><ele>968.0000000000001</ele><time>2026-05-02T15:11:15.395Z</time></trkpt><trkpt lat="46.54342" lon="12.4764917"><ele>965.0</ele><time>2026-05-02T15:11:16.395Z</time></trkpt><trkpt lat="46.54339" lon="12.4763917"><ele>963.0</ele><time>2026-05-02T15:11:17.395Z</time></trkpt><trkpt lat="46.54338" lon="12.4762517"><ele>961.0</ele><time>2026-05-02T15:11:18.395Z</time></trkpt><trkpt lat="46.543385" lon="12.4760933"><ele>959.0</ele><time>2026-05-02T15:11:19.394Z</time></trkpt><trkpt lat="46.543405" lon="12.4759167"><ele>957.0</ele><time>2026-05-02T15:11:20.395Z</time></trkpt><trkpt lat="46.5434133" lon="12.47574"><ele>957.0</ele><time>2026-05-02T15:11:21.394Z</time></trkpt><trkpt lat="46.5434067" lon="12.4755717"><ele>957.0</ele><time>2026-05-02T15:11:22.394Z</time></trkpt><trkpt lat="46.5434017" lon="12.475395"><ele>957.0</ele><time>2026-05-02T15:11:23.395Z</time></trkpt><trkpt lat="46.5433783" lon="12.4752167"><ele>957.0</ele><time>2026-05-02T15:11:24.395Z</time></trkpt><trkpt lat="46.5433467" lon="12.4750117"><ele>955.6666666666667</ele><time>2026-05-02T15:11:25.395Z</time></trkpt><trkpt lat="46.543305" lon="12.4748067"><ele>954.3333333333334</ele><time>2026-05-02T15:11:26.395Z</time></trkpt><trkpt lat="46.54324" lon="12.4746"><ele>953.0</ele><time>2026-05-02T15:11:27.395Z</time></trkpt><trkpt lat="46.5431683" lon="12.4743917"><ele>953.0</ele><time>2026-05-02T15:11:28.395Z</time></trkpt><trkpt lat="46.54309" lon="12.4741933"><ele>953.0</ele><time>2026-05-02T15:11:29.394Z</time></trkpt><trkpt lat="46.5430267" lon="12.473985"><ele>953.0</ele><time>2026-05-02T15:11:30.394Z</time></trkpt><trkpt lat="46.5429833" lon="12.4737517"><ele>954.6666666666667</ele><time>2026-05-02T15:11:31.394Z</time></trkpt><trkpt lat="46.5429517" lon="12.4734667"><ele>956.3333333333333</ele><time>2026-05-02T15:11:32.395Z</time></trkpt><trkpt lat="46.542935" lon="12.4731533"><ele>958.0</ele><time>2026-05-02T15:11:33.394Z</time></trkpt><trkpt lat="46.54294" lon="12.4728583"><ele>958.0</ele><time>2026-05-02T15:11:34.395Z</time></trkpt><trkpt lat="46.5429333" lon="12.47256"><ele>958.0</ele><time>2026-05-02T15:11:35.395Z</time></trkpt><trkpt lat="46.54292" lon="12.4722817"><ele>958.0</ele><time>2026-05-02T15:11:36.395Z</time></trkpt><trkpt lat="46.54291" lon="12.4720167"><ele>953.3333333333333</ele><time>2026-05-02T15:11:37.395Z</time></trkpt><trkpt lat="46.54291" lon="12.4717767"><ele>948.6666666666667</ele><time>2026-05-02T15:11:38.395Z</time></trkpt><trkpt lat="46.5429283" lon="12.471525"><ele>944.0</ele><time>2026-05-02T15:11:39.395Z</time></trkpt><trkpt lat="46.5429717" lon="12.4712717"><ele>941.0</ele><time>2026-05-02T15:11:40.395Z</time></trkpt><trkpt lat="46.5430267" lon="12.4710283"><ele>938.0</ele><time>2026-05-02T15:11:41.395Z</time></trkpt><trkpt lat="46.54307" lon="12.4707933"><ele>935.0</ele><time>2026-05-02T15:11:42.395Z</time></trkpt><trkpt lat="46.5431" lon="12.470565"><ele>933.5</ele><time>2026-05-02T15:11:43.394Z</time></trkpt><trkpt lat="46.5431167" lon="12.4703767"><ele>932.0</ele><time>2026-05-02T15:11:44.395Z</time></trkpt><trkpt lat="46.5431083" lon="12.4702217"><ele>930.5</ele><time>2026-05-02T15:11:45.395Z</time></trkpt><trkpt lat="46.5430667" lon="12.47008"><ele>929.0</ele><time>2026-05-02T15:11:46.395Z</time></trkpt><trkpt lat="46.5429867" lon="12.46996"><ele>929.0</ele><time>2026-05-02T15:11:47.394Z</time></trkpt><trkpt lat="46.5429217" lon="12.46987"><ele>929.0000000000001</ele><time>2026-05-02T15:11:48.395Z</time></trkpt><trkpt lat="46.5428583" lon="12.4698133"><ele>929.0000000000001</ele><time>2026-05-02T15:11:49.395Z</time></trkpt><trkpt lat="46.5427817" lon="12.4697867"><ele>929.0</ele><time>2026-05-02T15:11:50.394Z</time></trkpt><trkpt lat="46.5427183" lon="12.4699317"><ele>929.0</ele><time>2026-05-02T15:11:52.394Z</time></trkpt><trkpt lat="46.5427233" lon="12.4700967"><ele>922.4000000000001</ele><time>2026-05-02T15:11:53.395Z</time></trkpt><trkpt lat="46.54274" lon="12.4702783"><ele>915.8000000000001</ele><time>2026-05-02T15:11:54.395Z</time></trkpt><trkpt lat="46.5427533" lon="12.470455"><ele>909.1999999999999</ele><time>2026-05-02T15:11:55.395Z</time></trkpt><trkpt lat="46.542765" lon="12.4705867"><ele>902.5999999999999</ele><time>2026-05-02T15:11:56.395Z</time></trkpt><trkpt lat="46.5427333" lon="12.4707183"><ele>896.0</ele><time>2026-05-02T15:11:58.395Z</time></trkpt><trkpt lat="46.5426467" lon="12.470675"><ele>896.0</ele><time>2026-05-02T15:12:00.395Z</time></trkpt><trkpt lat="46.5425933" lon="12.47056"><ele>896.0</ele><time>2026-05-02T15:12:01.394Z</time></trkpt><trkpt lat="46.542545" lon="12.4703617"><ele>896.0</ele><time>2026-05-02T15:12:02.395Z</time></trkpt><trkpt lat="46.5424833" lon="12.470135"><ele>896.0</ele><time>2026-05-02T15:12:03.395Z</time></trkpt><trkpt lat="46.5424083" lon="12.4699167"><ele>895.0</ele><time>2026-05-02T15:12:04.395Z</time></trkpt><trkpt lat="46.5423183" lon="12.4696717"><ele>894.0</ele><time>2026-05-02T15:12:05.395Z</time></trkpt><trkpt lat="46.5422217" lon="12.4694017"><ele>893.0</ele><time>2026-05-02T15:12:06.395Z</time></trkpt><trkpt lat="46.5421333" lon="12.4691317"><ele>896.3333333333334</ele><time>2026-05-02T15:12:07.395Z</time></trkpt><trkpt lat="46.5420667" lon="12.4688667"><ele>899.6666666666667</ele><time>2026-05-02T15:12:08.395Z</time></trkpt><trkpt lat="46.5419867" lon="12.4686167"><ele>903.0</ele><time>2026-05-02T15:12:09.395Z</time></trkpt><trkpt lat="46.5419" lon="12.4683733"><ele>896.0</ele><time>2026-05-02T15:12:10.395Z</time></trkpt><trkpt lat="46.5418467" lon="12.468095"><ele>889.0</ele><time>2026-05-02T15:12:11.395Z</time></trkpt><trkpt lat="46.5418117" lon="12.4678117"><ele>882.0</ele><time>2026-05-02T15:12:12.395Z</time></trkpt><trkpt lat="46.54178" lon="12.4675267"><ele>877.6666666666667</ele><time>2026-05-02T15:12:13.395Z</time></trkpt><trkpt lat="46.5417417" lon="12.4672433"><ele>873.3333333333334</ele><time>2026-05-02T15:12:14.395Z</time></trkpt><trkpt lat="46.5417133" lon="12.4669733"><ele>869.0</ele><time>2026-05-02T15:12:15.395Z</time></trkpt><trkpt lat="46.5416583" lon="12.466705"><ele>868.3333333333334</ele><time>2026-05-02T15:12:16.395Z</time></trkpt><trkpt lat="46.5415967" lon="12.4664367"><ele>867.6666666666667</ele><time>2026-05-02T15:12:17.395Z</time></trkpt><trkpt lat="46.5415433" lon="12.4661667"><ele>867.0</ele><time>2026-05-02T15:12:18.395Z</time></trkpt><trkpt lat="46.5415067" lon="12.4658967"><ele>866.0</ele><time>2026-05-02T15:12:19.395Z</time></trkpt><trkpt lat="46.5414917" lon="12.4656317"><ele>865.0</ele><time>2026-05-02T15:12:20.394Z</time></trkpt><trkpt lat="46.5414883" lon="12.4653667"><ele>864.0</ele><time>2026-05-02T15:12:21.395Z</time></trkpt><trkpt lat="46.5414933" lon="12.465115"><ele>864.0</ele><time>2026-05-02T15:12:22.394Z</time></trkpt><trkpt lat="46.541505" lon="12.46488"><ele>864.0</ele><time>2026-05-02T15:12:23.395Z</time></trkpt><trkpt lat="46.5415067" lon="12.464665"><ele>864.0</ele><time>2026-05-02T15:12:24.395Z</time></trkpt><trkpt lat="46.54151" lon="12.4644667"><ele>864.0</ele><time>2026-05-02T15:12:25.395Z</time></trkpt><trkpt lat="46.5415183" lon="12.4642967"><ele>862.0</ele><time>2026-05-02T15:12:26.395Z</time></trkpt><trkpt lat="46.5415383" lon="12.46417"><ele>860.0000000000001</ele><time>2026-05-02T15:12:27.395Z</time></trkpt><trkpt lat="46.5415933" lon="12.4640533"><ele>858.0000000000001</ele><time>2026-05-02T15:12:28.395Z</time></trkpt><trkpt lat="46.541675" lon="12.4639683"><ele>856.0</ele><time>2026-05-02T15:12:29.395Z</time></trkpt><trkpt lat="46.5417867" lon="12.4639033"><ele>854.0</ele><time>2026-05-02T15:12:30.395Z</time></trkpt><trkpt lat="46.5419083" lon="12.463825"><ele>854.75</ele><time>2026-05-02T15:12:31.395Z</time></trkpt><trkpt lat="46.5420267" lon="12.4637333"><ele>855.5</ele><time>2026-05-02T15:12:32.395Z</time></trkpt><trkpt lat="46.542125" lon="12.4636217"><ele>856.25</ele><time>2026-05-02T15:12:33.394Z</time></trkpt><trkpt lat="46.542205" lon="12.4634883"><ele>857.0</ele><time>2026-05-02T15:12:34.395Z</time></trkpt><trkpt lat="46.5422617" lon="12.4633333"><ele>857.0</ele><time>2026-05-02T15:12:35.395Z</time></trkpt><trkpt lat="46.54229" lon="12.4631383"><ele>857.0</ele><time>2026-05-02T15:12:36.394Z</time></trkpt><trkpt lat="46.54231" lon="12.4629433"><ele>857.0</ele><time>2026-05-02T15:12:37.395Z</time></trkpt><trkpt lat="46.542335" lon="12.4627567"><ele>857.0</ele><time>2026-05-02T15:12:38.395Z</time></trkpt><trkpt lat="46.5423517" lon="12.462575"><ele>855.5</ele><time>2026-05-02T15:12:39.395Z</time></trkpt><trkpt lat="46.542365" lon="12.4624033"><ele>854.0</ele><time>2026-05-02T15:12:40.395Z</time></trkpt><trkpt lat="46.5423833" lon="12.462235"><ele>852.5</ele><time>2026-05-02T15:12:41.395Z</time></trkpt><trkpt lat="46.5424117" lon="12.462075"><ele>851.0</ele><time>2026-05-02T15:12:42.395Z</time></trkpt><trkpt lat="46.5424567" lon="12.4619133"><ele>850.0</ele><time>2026-05-02T15:12:43.394Z</time></trkpt><trkpt lat="46.5424983" lon="12.46176"><ele>849.0</ele><time>2026-05-02T15:12:44.395Z</time></trkpt><trkpt lat="46.5425417" lon="12.461615"><ele>848.0</ele><time>2026-05-02T15:12:45.394Z</time></trkpt><trkpt lat="46.5425883" lon="12.46147"><ele>847.0</ele><time>2026-05-02T15:12:46.395Z</time></trkpt><trkpt lat="46.5426483" lon="12.4613283"><ele>846.0</ele><time>2026-05-02T15:12:47.395Z</time></trkpt><trkpt lat="46.5427183" lon="12.4611933"><ele>846.4</ele><time>2026-05-02T15:12:48.395Z</time></trkpt><trkpt lat="46.5427983" lon="12.4610783"><ele>846.8</ele><time>2026-05-02T15:12:49.395Z</time></trkpt><trkpt lat="46.5428767" lon="12.4609683"><ele>847.1999999999999</ele><time>2026-05-02T15:12:50.395Z</time></trkpt><trkpt lat="46.5429467" lon="12.460845"><ele>847.5999999999999</ele><time>2026-05-02T15:12:51.395Z</time></trkpt><trkpt lat="46.5430383" lon="12.46077"><ele>848.0</ele><time>2026-05-02T15:12:52.395Z</time></trkpt><trkpt lat="46.5431433" lon="12.4607017"><ele>848.0</ele><time>2026-05-02T15:12:53.395Z</time></trkpt><trkpt lat="46.543255" lon="12.4606733"><ele>848.0</ele><time>2026-05-02T15:12:54.394Z</time></trkpt><trkpt lat="46.5433667" lon="12.4606567"><ele>848.0</ele><time>2026-05-02T15:12:55.395Z</time></trkpt><trkpt lat="46.543455" lon="12.4606067"><ele>848.0</ele><time>2026-05-02T15:12:56.394Z</time></trkpt><trkpt lat="46.5435217" lon="12.4605133"><ele>848.0</ele><time>2026-05-02T15:12:57.394Z</time></trkpt><trkpt lat="46.5436017" lon="12.4604217"><ele>847.0</ele><time>2026-05-02T15:12:58.394Z</time></trkpt><trkpt lat="46.5436783" lon="12.4603133"><ele>846.0</ele><time>2026-05-02T15:12:59.394Z</time></trkpt><trkpt lat="46.5437433" lon="12.4602067"><ele>845.0</ele><time>2026-05-02T15:13:00.395Z</time></trkpt><trkpt lat="46.5438083" lon="12.4600983"><ele>844.0</ele><time>2026-05-02T15:13:01.395Z</time></trkpt><trkpt lat="46.5438817" lon="12.46"><ele>843.0</ele><time>2026-05-02T15:13:02.395Z</time></trkpt><trkpt lat="46.5439733" lon="12.4598967"><ele>842.8</ele><time>2026-05-02T15:13:03.395Z</time></trkpt><trkpt lat="46.5440683" lon="12.4598133"><ele>842.5999999999999</ele><time>2026-05-02T15:13:04.395Z</time></trkpt><trkpt lat="46.54416" lon="12.459725"><ele>842.4000000000001</ele><time>2026-05-02T15:13:05.394Z</time></trkpt><trkpt lat="46.5442433" lon="12.45963"><ele>842.2</ele><time>2026-05-02T15:13:06.395Z</time></trkpt><trkpt lat="46.5443183" lon="12.45953"><ele>842.0</ele><time>2026-05-02T15:13:07.394Z</time></trkpt><trkpt lat="46.5443983" lon="12.4594333"><ele>842.0</ele><time>2026-05-02T15:13:08.395Z</time></trkpt><trkpt lat="46.54447" lon="12.4593433"><ele>842.0</ele><time>2026-05-02T15:13:09.395Z</time></trkpt><trkpt lat="46.54454" lon="12.459255"><ele>842.0</ele><time>2026-05-02T15:13:10.395Z</time></trkpt><trkpt lat="46.54461" lon="12.459175"><ele>842.0</ele><time>2026-05-02T15:13:11.395Z</time></trkpt><trkpt lat="46.5446783" lon="12.4590933"><ele>842.0</ele><time>2026-05-02T15:13:12.395Z</time></trkpt><trkpt lat="46.5447517" lon="12.45901"><ele>842.6666666666667</ele><time>2026-05-02T15:13:13.394Z</time></trkpt><trkpt lat="46.5448117" lon="12.458925"><ele>843.3333333333334</ele><time>2026-05-02T15:13:14.395Z</time></trkpt><trkpt lat="46.5448633" lon="12.45883"><ele>844.0</ele><time>2026-05-02T15:13:15.395Z</time></trkpt><trkpt lat="46.5449183" lon="12.4587533"><ele>844.6666666666667</ele><time>2026-05-02T15:13:16.395Z</time></trkpt><trkpt lat="46.5449567" lon="12.4586733"><ele>845.3333333333334</ele><time>2026-05-02T15:13:17.394Z</time></trkpt><trkpt lat="46.545045" lon="12.45855"><ele>846.0</ele><time>2026-05-02T15:13:19.395Z</time></trkpt><trkpt lat="46.545115" lon="12.458445"><ele>846.0</ele><time>2026-05-02T15:13:21.394Z</time></trkpt><trkpt lat="46.54516" lon="12.4583267"><ele>846.0</ele><time>2026-05-02T15:13:23.394Z</time></trkpt><trkpt lat="46.5452117" lon="12.4582367"><ele>846.0</ele><time>2026-05-02T15:13:25.395Z</time></trkpt><trkpt lat="46.5452467" lon="12.4581433"><ele>846.0</ele><time>2026-05-02T15:13:27.395Z</time></trkpt><trkpt lat="46.545275" lon="12.4580283"><ele>846.0</ele><time>2026-05-02T15:13:30.394Z</time></trkpt><trkpt lat="46.5452883" lon="12.4579183"><ele>846.0</ele><time>2026-05-02T15:13:32.395Z</time></trkpt><trkpt lat="46.5453133" lon="12.4577617"><ele>845.0</ele><time>2026-05-02T15:13:34.394Z</time></trkpt><trkpt lat="46.5453417" lon="12.4576367"><ele>844.0</ele><time>2026-05-02T15:13:36.395Z</time></trkpt><trkpt lat="46.5453267" lon="12.457495"><ele>843.0</ele><time>2026-05-02T15:13:38.395Z</time></trkpt><trkpt lat="46.5452283" lon="12.457505"><ele>842.0</ele><time>2026-05-02T15:13:41.395Z</time></trkpt><trkpt lat="46.5452" lon="12.4576433"><ele>841.0</ele><time>2026-05-02T15:13:43.395Z</time></trkpt><trkpt lat="46.5451983" lon="12.4577583"><ele>841.0</ele><time>2026-05-02T15:13:44.394Z</time></trkpt><trkpt lat="46.545185" lon="12.4578933"><ele>841.0</ele><time>2026-05-02T15:13:45.395Z</time></trkpt><trkpt lat="46.5451483" lon="12.4580183"><ele>841.0</ele><time>2026-05-02T15:13:46.395Z</time></trkpt><trkpt lat="46.5450867" lon="12.4581383"><ele>841.0</ele><time>2026-05-02T15:13:47.395Z</time></trkpt><trkpt lat="46.544995" lon="12.458235"><ele>841.0</ele><time>2026-05-02T15:13:48.395Z</time></trkpt><trkpt lat="46.5448983" lon="12.458325"><ele>842.0</ele><time>2026-05-02T15:13:49.395Z</time></trkpt><trkpt lat="46.5448117" lon="12.4584033"><ele>843.0</ele><time>2026-05-02T15:13:50.395Z</time></trkpt><trkpt lat="46.54472" lon="12.4584917"><ele>844.0</ele><time>2026-05-02T15:13:51.395Z</time></trkpt><trkpt lat="46.5446317" lon="12.458575"><ele>845.0</ele><time>2026-05-02T15:13:52.394Z</time></trkpt><trkpt lat="46.5445483" lon="12.4586783"><ele>846.0</ele><time>2026-05-02T15:13:53.395Z</time></trkpt><trkpt lat="46.54446" lon="12.4587617"><ele>845.1999999999999</ele><time>2026-05-02T15:13:54.395Z</time></trkpt><trkpt lat="46.5443783" lon="12.4588617"><ele>844.4</ele><time>2026-05-02T15:13:55.394Z</time></trkpt><trkpt lat="46.5442933" lon="12.4589433"><ele>843.6</ele><time>2026-05-02T15:13:56.394Z</time></trkpt><trkpt lat="46.5442183" lon="12.4590567"><ele>842.8</ele><time>2026-05-02T15:13:57.395Z</time></trkpt><trkpt lat="46.5441367" lon="12.45916"><ele>842.0</ele><time>2026-05-02T15:13:58.395Z</time></trkpt><trkpt lat="46.5440367" lon="12.4592417"><ele>842.0</ele><time>2026-05-02T15:13:59.395Z</time></trkpt><trkpt lat="46.543935" lon="12.4593233"><ele>842.0</ele><time>2026-05-02T15:14:00.395Z</time></trkpt><trkpt lat="46.5438283" lon="12.4594183"><ele>842.0</ele><time>2026-05-02T15:14:01.395Z</time></trkpt><trkpt lat="46.543715" lon="12.4595133"><ele>842.0</ele><time>2026-05-02T15:14:02.395Z</time></trkpt><trkpt lat="46.5436033" lon="12.4596217"><ele>842.25</ele><time>2026-05-02T15:14:03.395Z</time></trkpt><trkpt lat="46.5434833" lon="12.4597417"><ele>842.5</ele><time>2026-05-02T15:14:04.394Z</time></trkpt><trkpt lat="46.5433617" lon="12.4598583"><ele>842.75</ele><time>2026-05-02T15:14:05.395Z</time></trkpt><trkpt lat="46.5432417" lon="12.459955"><ele>843.0</ele><time>2026-05-02T15:14:06.395Z</time></trkpt><trkpt lat="46.5431383" lon="12.4600867"><ele>843.0</ele><time>2026-05-02T15:14:07.394Z</time></trkpt><trkpt lat="46.54304" lon="12.4602133"><ele>843.0</ele><time>2026-05-02T15:14:08.395Z</time></trkpt><trkpt lat="46.54293" lon="12.4603267"><ele>843.0</ele><time>2026-05-02T15:14:09.394Z</time></trkpt><trkpt lat="46.542825" lon="12.4604433"><ele>843.0</ele><time>2026-05-02T15:14:10.395Z</time></trkpt><trkpt lat="46.54273" lon="12.4605683"><ele>842.0</ele><time>2026-05-02T15:14:11.395Z</time></trkpt><trkpt lat="46.5426433" lon="12.460705"><ele>841.0</ele><time>2026-05-02T15:14:12.395Z</time></trkpt><trkpt lat="46.542555" lon="12.4608383"><ele>840.0</ele><time>2026-05-02T15:14:13.395Z</time></trkpt><trkpt lat="46.54246" lon="12.4609567"><ele>839.0</ele><time>2026-05-02T15:14:14.395Z</time></trkpt><trkpt lat="46.5423767" lon="12.4610917"><ele>839.0</ele><time>2026-05-02T15:14:15.395Z</time></trkpt><trkpt lat="46.5422983" lon="12.4612183"><ele>839.0</ele><time>2026-05-02T15:14:16.395Z</time></trkpt><trkpt lat="46.5422183" lon="12.4613417"><ele>839.0</ele><time>2026-05-02T15:14:17.395Z</time></trkpt><trkpt lat="46.542145" lon="12.4614533"><ele>839.0</ele><time>2026-05-02T15:14:18.394Z</time></trkpt><trkpt lat="46.54208" lon="12.4615667"><ele>839.0</ele><time>2026-05-02T15:14:19.395Z</time></trkpt><trkpt lat="46.5420283" lon="12.461675"><ele>838.6</ele><time>2026-05-02T15:14:20.394Z</time></trkpt><trkpt lat="46.5419917" lon="12.4617933"><ele>838.2</ele><time>2026-05-02T15:14:21.395Z</time></trkpt><trkpt lat="46.5419467" lon="12.4619217"><ele>837.8000000000001</ele><time>2026-05-02T15:14:22.395Z</time></trkpt><trkpt lat="46.54189" lon="12.4620583"><ele>837.4000000000001</ele><time>2026-05-02T15:14:23.394Z</time></trkpt><trkpt lat="46.5418317" lon="12.4621917"><ele>837.0</ele><time>2026-05-02T15:14:24.395Z</time></trkpt><trkpt lat="46.5417667" lon="12.4623217"><ele>837.0</ele><time>2026-05-02T15:14:25.395Z</time></trkpt><trkpt lat="46.5416867" lon="12.4624467"><ele>837.0</ele><time>2026-05-02T15:14:26.395Z</time></trkpt><trkpt lat="46.54159" lon="12.4625533"><ele>837.0</ele><time>2026-05-02T15:14:27.394Z</time></trkpt><trkpt lat="46.5414983" lon="12.4626383"><ele>837.0</ele><time>2026-05-02T15:14:28.395Z</time></trkpt><trkpt lat="46.541385" lon="12.4627"><ele>837.0</ele><time>2026-05-02T15:14:29.395Z</time></trkpt><trkpt lat="46.5412633" lon="12.46275"><ele>837.0</ele><time>2026-05-02T15:14:30.395Z</time></trkpt><trkpt lat="46.5411333" lon="12.462785"><ele>837.0</ele><time>2026-05-02T15:14:31.394Z</time></trkpt><trkpt lat="46.541" lon="12.462825"><ele>837.0</ele><time>2026-05-02T15:14:32.395Z</time></trkpt><trkpt lat="46.5408717" lon="12.4628983"><ele>835.75</ele><time>2026-05-02T15:14:33.394Z</time></trkpt><trkpt lat="46.5407367" lon="12.4629417"><ele>834.5</ele><time>2026-05-02T15:14:34.395Z</time></trkpt><trkpt lat="46.540605" lon="12.4629833"><ele>833.25</ele><time>2026-05-02T15:14:35.395Z</time></trkpt><trkpt lat="46.540475" lon="12.4630367"><ele>832.0</ele><time>2026-05-02T15:14:36.395Z</time></trkpt><trkpt lat="46.540345" lon="12.4630833"><ele>831.0</ele><time>2026-05-02T15:14:37.395Z</time></trkpt><trkpt lat="46.5402167" lon="12.4631267"><ele>830.0</ele><time>2026-05-02T15:14:38.394Z</time></trkpt><trkpt lat="46.5401017" lon="12.4631783"><ele>829.0</ele><time>2026-05-02T15:14:39.395Z</time></trkpt><trkpt lat="46.5399817" lon="12.4632233"><ele>828.0</ele><time>2026-05-02T15:14:40.395Z</time></trkpt><trkpt lat="46.5398667" lon="12.4632833"><ele>828.0</ele><time>2026-05-02T15:14:41.395Z</time></trkpt><trkpt lat="46.53976" lon="12.4633433"><ele>828.0</ele><time>2026-05-02T15:14:42.395Z</time></trkpt><trkpt lat="46.539655" lon="12.4634167"><ele>828.0</ele><time>2026-05-02T15:14:43.394Z</time></trkpt><trkpt lat="46.5395517" lon="12.4634917"><ele>828.0</ele><time>2026-05-02T15:14:44.395Z</time></trkpt><trkpt lat="46.5394417" lon="12.46357"><ele>829.25</ele><time>2026-05-02T15:14:45.394Z</time></trkpt><trkpt lat="46.5393383" lon="12.463655"><ele>830.5</ele><time>2026-05-02T15:14:46.395Z</time></trkpt><trkpt lat="46.5392383" lon="12.4637317"><ele>831.75</ele><time>2026-05-02T15:14:47.395Z</time></trkpt><trkpt lat="46.5391517" lon="12.4638383"><ele>833.0</ele><time>2026-05-02T15:14:48.395Z</time></trkpt><trkpt lat="46.5390583" lon="12.4639533"><ele>833.0</ele><time>2026-05-02T15:14:49.395Z</time></trkpt><trkpt lat="46.53896" lon="12.4640917"><ele>833.0</ele><time>2026-05-02T15:14:50.395Z</time></trkpt><trkpt lat="46.5388683" lon="12.4642283"><ele>833.0</ele><time>2026-05-02T15:14:51.395Z</time></trkpt><trkpt lat="46.5387817" lon="12.4643917"><ele>833.0</ele><time>2026-05-02T15:14:52.395Z</time></trkpt><trkpt lat="46.5386833" lon="12.4645567"><ele>829.0</ele><time>2026-05-02T15:14:53.394Z</time></trkpt><trkpt lat="46.5385917" lon="12.46475"><ele>825.0</ele><time>2026-05-02T15:14:54.395Z</time></trkpt><trkpt lat="46.5384983" lon="12.4649667"><ele>821.0</ele><time>2026-05-02T15:14:55.394Z</time></trkpt><trkpt lat="46.5384067" lon="12.4651783"><ele>821.0</ele><time>2026-05-02T15:14:56.395Z</time></trkpt><trkpt lat="46.538315" lon="12.4654"><ele>821.0</ele><time>2026-05-02T15:14:57.395Z</time></trkpt><trkpt lat="46.5382217" lon="12.465625"><ele>821.0</ele><time>2026-05-02T15:14:58.394Z</time></trkpt><trkpt lat="46.538125" lon="12.465835"><ele>823.0</ele><time>2026-05-02T15:14:59.395Z</time></trkpt><trkpt lat="46.5380067" lon="12.4660217"><ele>825.0</ele><time>2026-05-02T15:15:00.395Z</time></trkpt><trkpt lat="46.5378733" lon="12.466205"><ele>827.0</ele><time>2026-05-02T15:15:01.395Z</time></trkpt><trkpt lat="46.53775" lon="12.466375"><ele>827.0</ele><time>2026-05-02T15:15:02.395Z</time></trkpt><trkpt lat="46.5376267" lon="12.46652"><ele>827.0</ele><time>2026-05-02T15:15:03.395Z</time></trkpt><trkpt lat="46.53751" lon="12.4666583"><ele>827.0</ele><time>2026-05-02T15:15:04.395Z</time></trkpt><trkpt lat="46.5374" lon="12.4668"><ele>827.0</ele><time>2026-05-02T15:15:05.395Z</time></trkpt><trkpt lat="46.53729" lon="12.4669383"><ele>827.0</ele><time>2026-05-02T15:15:06.395Z</time></trkpt><trkpt lat="46.5371733" lon="12.4670467"><ele>827.0</ele><time>2026-05-02T15:15:07.395Z</time></trkpt><trkpt lat="46.537045" lon="12.46715"><ele>827.0</ele><time>2026-05-02T15:15:08.395Z</time></trkpt><trkpt lat="46.5369" lon="12.467225"><ele>833.0</ele><time>2026-05-02T15:15:09.395Z</time></trkpt><trkpt lat="46.5367" lon="12.4672667"><ele>839.0</ele><time>2026-05-02T15:15:10.395Z</time></trkpt><trkpt lat="46.5365017" lon="12.4672717"><ele>845.0</ele><time>2026-05-02T15:15:11.395Z</time></trkpt><trkpt lat="46.5362983" lon="12.4672783"><ele>838.3333333333334</ele><time>2026-05-02T15:15:12.394Z</time></trkpt><trkpt lat="46.5360883" lon="12.4673183"><ele>831.6666666666667</ele><time>2026-05-02T15:15:13.395Z</time></trkpt><trkpt lat="46.5358983" lon="12.4673633"><ele>825.0</ele><time>2026-05-02T15:15:14.395Z</time></trkpt><trkpt lat="46.5357217" lon="12.4674133"><ele>825.0</ele><time>2026-05-02T15:15:15.395Z</time></trkpt><trkpt lat="46.535565" lon="12.467455"><ele>825.0</ele><time>2026-05-02T15:15:16.395Z</time></trkpt><trkpt lat="46.5354167" lon="12.4675167"><ele>825.0</ele><time>2026-05-02T15:15:17.395Z</time></trkpt><trkpt lat="46.535295" lon="12.4675967"><ele>825.0</ele><time>2026-05-02T15:15:18.395Z</time></trkpt><trkpt lat="46.5351567" lon="12.467655"><ele>819.0</ele><time>2026-05-02T15:15:19.394Z</time></trkpt><trkpt lat="46.5350133" lon="12.4677233"><ele>813.0</ele><time>2026-05-02T15:15:20.395Z</time></trkpt><trkpt lat="46.5348733" lon="12.4677867"><ele>807.0</ele><time>2026-05-02T15:15:21.395Z</time></trkpt><trkpt lat="46.5347267" lon="12.467845"><ele>807.0</ele><time>2026-05-02T15:15:22.395Z</time></trkpt><trkpt lat="46.5345867" lon="12.4679183"><ele>807.0</ele><time>2026-05-02T15:15:23.395Z</time></trkpt><trkpt lat="46.5344667" lon="12.4680067"><ele>807.0</ele><time>2026-05-02T15:15:24.394Z</time></trkpt><trkpt lat="46.5343267" lon="12.4680683"><ele>807.0</ele><time>2026-05-02T15:15:25.395Z</time></trkpt><trkpt lat="46.5341733" lon="12.468115"><ele>810.0</ele><time>2026-05-02T15:15:26.395Z</time></trkpt><trkpt lat="46.534035" lon="12.4681933"><ele>813.0</ele><time>2026-05-02T15:15:27.395Z</time></trkpt><trkpt lat="46.5339033" lon="12.46827"><ele>816.0</ele><time>2026-05-02T15:15:28.395Z</time></trkpt><trkpt lat="46.5337683" lon="12.468355"><ele>819.0</ele><time>2026-05-02T15:15:29.395Z</time></trkpt><trkpt lat="46.53363" lon="12.4684633"><ele>816.0</ele><time>2026-05-02T15:15:30.395Z</time></trkpt><trkpt lat="46.5334983" lon="12.4685817"><ele>813.0</ele><time>2026-05-02T15:15:31.395Z</time></trkpt><trkpt lat="46.533375" lon="12.4687033"><ele>810.0</ele><time>2026-05-02T15:15:32.395Z</time></trkpt><trkpt lat="46.5332533" lon="12.468825"><ele>810.0</ele><time>2026-05-02T15:15:33.395Z</time></trkpt><trkpt lat="46.5331517" lon="12.4689383"><ele>810.0</ele><time>2026-05-02T15:15:34.395Z</time></trkpt><trkpt lat="46.5330517" lon="12.469065"><ele>810.0</ele><time>2026-05-02T15:15:35.395Z</time></trkpt><trkpt lat="46.5329467" lon="12.4691867"><ele>810.0</ele><time>2026-05-02T15:15:36.395Z</time></trkpt><trkpt lat="46.5328317" lon="12.4692733"><ele>807.6666666666667</ele><time>2026-05-02T15:15:37.395Z</time></trkpt><trkpt lat="46.532685" lon="12.4693317"><ele>805.3333333333334</ele><time>2026-05-02T15:15:38.395Z</time></trkpt><trkpt lat="46.53254" lon="12.4693767"><ele>803.0</ele><time>2026-05-02T15:15:39.395Z</time></trkpt><trkpt lat="46.5323767" lon="12.469415"><ele>803.0</ele><time>2026-05-02T15:15:40.395Z</time></trkpt><trkpt lat="46.532205" lon="12.46945"><ele>803.0</ele><time>2026-05-02T15:15:41.395Z</time></trkpt><trkpt lat="46.5320233" lon="12.4694517"><ele>803.0</ele><time>2026-05-02T15:15:42.395Z</time></trkpt><trkpt lat="46.531815" lon="12.4694183"><ele>801.0</ele><time>2026-05-02T15:15:43.395Z</time></trkpt><trkpt lat="46.53162" lon="12.4693767"><ele>799.0</ele><time>2026-05-02T15:15:44.395Z</time></trkpt><trkpt lat="46.5314267" lon="12.4693183"><ele>797.0</ele><time>2026-05-02T15:15:45.395Z</time></trkpt><trkpt lat="46.5312317" lon="12.4692633"><ele>799.0</ele><time>2026-05-02T15:15:46.395Z</time></trkpt><trkpt lat="46.5310317" lon="12.4692133"><ele>801.0</ele><time>2026-05-02T15:15:47.395Z</time></trkpt><trkpt lat="46.5308367" lon="12.469165"><ele>803.0</ele><time>2026-05-02T15:15:48.395Z</time></trkpt><trkpt lat="46.5306367" lon="12.469105"><ele>803.0</ele><time>2026-05-02T15:15:49.394Z</time></trkpt><trkpt lat="46.53041" lon="12.46903"><ele>803.0</ele><time>2026-05-02T15:15:50.394Z</time></trkpt><trkpt lat="46.5301817" lon="12.46898"><ele>810.0</ele><time>2026-05-02T15:15:51.395Z</time></trkpt><trkpt lat="46.5299317" lon="12.4689167"><ele>817.0</ele><time>2026-05-02T15:15:52.394Z</time></trkpt><trkpt lat="46.5296917" lon="12.4688633"><ele>823.5</ele><time>2026-05-02T15:15:53.395Z</time></trkpt><trkpt lat="46.5294617" lon="12.4687967"><ele>830.0</ele><time>2026-05-02T15:15:54.395Z</time></trkpt><trkpt lat="46.5292417" lon="12.468725"><ele>821.3333333333334</ele><time>2026-05-02T15:15:55.394Z</time></trkpt><trkpt lat="46.5290267" lon="12.4686217"><ele>812.6666666666667</ele><time>2026-05-02T15:15:56.395Z</time></trkpt><trkpt lat="46.52883" lon="12.4685183"><ele>804.0</ele><time>2026-05-02T15:15:57.395Z</time></trkpt><trkpt lat="46.5286383" lon="12.468435"><ele>804.0</ele><time>2026-05-02T15:15:58.395Z</time></trkpt><trkpt lat="46.5284517" lon="12.4683417"><ele>804.0</ele><time>2026-05-02T15:15:59.394Z</time></trkpt><trkpt lat="46.5282567" lon="12.468265"><ele>804.0</ele><time>2026-05-02T15:16:00.395Z</time></trkpt><trkpt lat="46.5280533" lon="12.46819"><ele>809.0</ele><time>2026-05-02T15:16:01.395Z</time></trkpt><trkpt lat="46.5278617" lon="12.4681167"><ele>814.0</ele><time>2026-05-02T15:16:02.394Z</time></trkpt><trkpt lat="46.5276517" lon="12.4680417"><ele>819.0</ele><time>2026-05-02T15:16:03.395Z</time></trkpt><trkpt lat="46.52745" lon="12.4679783"><ele>812.6666666666667</ele><time>2026-05-02T15:16:04.395Z</time></trkpt><trkpt lat="46.5272617" lon="12.46793"><ele>806.3333333333334</ele><time>2026-05-02T15:16:05.395Z</time></trkpt><trkpt lat="46.527075" lon="12.46788"><ele>800.0</ele><time>2026-05-02T15:16:06.395Z</time></trkpt><trkpt lat="46.5269083" lon="12.4678533"><ele>800.0</ele><time>2026-05-02T15:16:07.395Z</time></trkpt><trkpt lat="46.5267467" lon="12.4678417"><ele>800.0</ele><time>2026-05-02T15:16:08.395Z</time></trkpt><trkpt lat="46.52658" lon="12.4678183"><ele>800.0</ele><time>2026-05-02T15:16:09.395Z</time></trkpt><trkpt lat="46.5264033" lon="12.4678"><ele>800.0</ele><time>2026-05-02T15:16:10.394Z</time></trkpt><trkpt lat="46.5262417" lon="12.4678217"><ele>800.0</ele><time>2026-05-02T15:16:11.394Z</time></trkpt><trkpt lat="46.5260767" lon="12.4678417"><ele>800.0</ele><time>2026-05-02T15:16:12.395Z</time></trkpt><trkpt lat="46.5259083" lon="12.4678467"><ele>798.3333333333334</ele><time>2026-05-02T15:16:13.395Z</time></trkpt><trkpt lat="46.5257683" lon="12.467855"><ele>796.6666666666667</ele><time>2026-05-02T15:16:14.394Z</time></trkpt><trkpt lat="46.5255667" lon="12.467775"><ele>795.0</ele><time>2026-05-02T15:16:15.395Z</time></trkpt><trkpt lat="46.5253883" lon="12.4677067"><ele>800.6666666666667</ele><time>2026-05-02T15:16:16.394Z</time></trkpt><trkpt lat="46.5252217" lon="12.4676"><ele>806.3333333333334</ele><time>2026-05-02T15:16:17.394Z</time></trkpt><trkpt lat="46.525075" lon="12.4674467"><ele>812.0</ele><time>2026-05-02T15:16:18.395Z</time></trkpt><trkpt lat="46.52494" lon="12.467275"><ele>812.0</ele><time>2026-05-02T15:16:19.395Z</time></trkpt><trkpt lat="46.5248" lon="12.4671317"><ele>812.0</ele><time>2026-05-02T15:16:20.395Z</time></trkpt><trkpt lat="46.5246833" lon="12.46701"><ele>812.0</ele><time>2026-05-02T15:16:21.395Z</time></trkpt><trkpt lat="46.5245583" lon="12.4669117"><ele>805.75</ele><time>2026-05-02T15:16:22.395Z</time></trkpt><trkpt lat="46.5244217" lon="12.4668283"><ele>799.5</ele><time>2026-05-02T15:16:23.395Z</time></trkpt><trkpt lat="46.5242783" lon="12.46678"><ele>793.25</ele><time>2026-05-02T15:16:24.395Z</time></trkpt><trkpt lat="46.524135" lon="12.4667633"><ele>787.0</ele><time>2026-05-02T15:16:25.394Z</time></trkpt><trkpt lat="46.5239733" lon="12.4667833"><ele>787.0</ele><time>2026-05-02T15:16:26.395Z</time></trkpt><trkpt lat="46.523815" lon="12.46687"><ele>787.0</ele><time>2026-05-02T15:16:27.395Z</time></trkpt><trkpt lat="46.5236683" lon="12.4669767"><ele>787.0</ele><time>2026-05-02T15:16:28.395Z</time></trkpt><trkpt lat="46.5235183" lon="12.467075"><ele>794.6666666666666</ele><time>2026-05-02T15:16:29.395Z</time></trkpt><trkpt lat="46.5233767" lon="12.4671617"><ele>802.3333333333333</ele><time>2026-05-02T15:16:30.395Z</time></trkpt><trkpt lat="46.52324" lon="12.46726"><ele>810.0</ele><time>2026-05-02T15:16:31.395Z</time></trkpt><trkpt lat="46.523085" lon="12.46732"><ele>810.0</ele><time>2026-05-02T15:16:32.394Z</time></trkpt><trkpt lat="46.5229" lon="12.4673383"><ele>810.0</ele><time>2026-05-02T15:16:33.395Z</time></trkpt><trkpt lat="46.5226917" lon="12.4673017"><ele>810.0</ele><time>2026-05-02T15:16:34.395Z</time></trkpt><trkpt lat="46.52247" lon="12.4672217"><ele>807.0</ele><time>2026-05-02T15:16:35.394Z</time></trkpt><trkpt lat="46.52228" lon="12.46717"><ele>804.0</ele><time>2026-05-02T15:16:36.395Z</time></trkpt><trkpt lat="46.52211" lon="12.4671433"><ele>801.0</ele><time>2026-05-02T15:16:37.395Z</time></trkpt><trkpt lat="46.5219367" lon="12.4671367"><ele>801.0</ele><time>2026-05-02T15:16:38.395Z</time></trkpt><trkpt lat="46.5217567" lon="12.467125"><ele>801.0</ele><time>2026-05-02T15:16:39.395Z</time></trkpt><trkpt lat="46.5215833" lon="12.4671417"><ele>801.0</ele><time>2026-05-02T15:16:40.394Z</time></trkpt><trkpt lat="46.5214133" lon="12.4671817"><ele>801.0</ele><time>2026-05-02T15:16:41.395Z</time></trkpt><trkpt lat="46.5212767" lon="12.467265"><ele>801.0</ele><time>2026-05-02T15:16:42.395Z</time></trkpt><trkpt lat="46.52111" lon="12.4673283"><ele>801.0</ele><time>2026-05-02T15:16:43.395Z</time></trkpt><trkpt lat="46.5209483" lon="12.4673683"><ele>801.6666666666667</ele><time>2026-05-02T15:16:44.394Z</time></trkpt><trkpt lat="46.5207867" lon="12.467395"><ele>802.3333333333334</ele><time>2026-05-02T15:16:45.395Z</time></trkpt><trkpt lat="46.5206183" lon="12.4673867"><ele>803.0</ele><time>2026-05-02T15:16:46.395Z</time></trkpt><trkpt lat="46.5204783" lon="12.4673617"><ele>805.5</ele><time>2026-05-02T15:16:47.395Z</time></trkpt><trkpt lat="46.5203617" lon="12.4673417"><ele>808.0</ele><time>2026-05-02T15:16:48.395Z</time></trkpt><trkpt lat="46.52022" lon="12.4672583"><ele>810.5</ele><time>2026-05-02T15:16:49.394Z</time></trkpt><trkpt lat="46.52006" lon="12.4671483"><ele>813.0</ele><time>2026-05-02T15:16:50.395Z</time></trkpt><trkpt lat="46.51991" lon="12.4670417"><ele>814.6666666666667</ele><time>2026-05-02T15:16:51.395Z</time></trkpt><trkpt lat="46.51977" lon="12.466905"><ele>816.3333333333334</ele><time>2026-05-02T15:16:52.394Z</time></trkpt><trkpt lat="46.5196533" lon="12.4667767"><ele>818.0</ele><time>2026-05-02T15:16:53.395Z</time></trkpt><trkpt lat="46.5195017" lon="12.4666233"><ele>818.0</ele><time>2026-05-02T15:16:54.394Z</time></trkpt><trkpt lat="46.5193533" lon="12.46645"><ele>818.0</ele><time>2026-05-02T15:16:55.395Z</time></trkpt><trkpt lat="46.51921" lon="12.4662733"><ele>818.0</ele><time>2026-05-02T15:16:56.395Z</time></trkpt><trkpt lat="46.5190483" lon="12.4661167"><ele>811.3333333333334</ele><time>2026-05-02T15:16:57.395Z</time></trkpt><trkpt lat="46.5188917" lon="12.4659533"><ele>804.6666666666667</ele><time>2026-05-02T15:16:58.395Z</time></trkpt><trkpt lat="46.5187517" lon="12.465835"><ele>798.0</ele><time>2026-05-02T15:16:59.395Z</time></trkpt><trkpt lat="46.5186067" lon="12.465725"><ele>798.0</ele><time>2026-05-02T15:17:00.395Z</time></trkpt><trkpt lat="46.5184683" lon="12.46563"><ele>798.0</ele><time>2026-05-02T15:17:01.394Z</time></trkpt><trkpt lat="46.51833" lon="12.4655417"><ele>798.0</ele><time>2026-05-02T15:17:02.395Z</time></trkpt><trkpt lat="46.5181917" lon="12.4654533"><ele>795.6666666666667</ele><time>2026-05-02T15:17:03.394Z</time></trkpt><trkpt lat="46.5180533" lon="12.4653633"><ele>793.3333333333334</ele><time>2026-05-02T15:17:04.395Z</time></trkpt><trkpt lat="46.5179133" lon="12.46526"><ele>791.0</ele><time>2026-05-02T15:17:05.395Z</time></trkpt><trkpt lat="46.51778" lon="12.4651617"><ele>791.0</ele><time>2026-05-02T15:17:06.395Z</time></trkpt><trkpt lat="46.517635" lon="12.4650533"><ele>791.0</ele><time>2026-05-02T15:17:07.395Z</time></trkpt><trkpt lat="46.5174833" lon="12.46495"><ele>791.0</ele><time>2026-05-02T15:17:08.395Z</time></trkpt><trkpt lat="46.51733" lon="12.4648483"><ele>791.0</ele><time>2026-05-02T15:17:09.395Z</time></trkpt><trkpt lat="46.5171783" lon="12.4647467"><ele>791.0</ele><time>2026-05-02T15:17:10.394Z</time></trkpt><trkpt lat="46.5170217" lon="12.4646533"><ele>791.0</ele><time>2026-05-02T15:17:11.395Z</time></trkpt><trkpt lat="46.5168683" lon="12.464545"><ele>790.6666666666667</ele><time>2026-05-02T15:17:12.395Z</time></trkpt><trkpt lat="46.5167183" lon="12.4644417"><ele>790.3333333333333</ele><time>2026-05-02T15:17:13.395Z</time></trkpt><trkpt lat="46.5165733" lon="12.4643417"><ele>790.0</ele><time>2026-05-02T15:17:14.395Z</time></trkpt><trkpt lat="46.516425" lon="12.46425"><ele>790.0</ele><time>2026-05-02T15:17:15.395Z</time></trkpt><trkpt lat="46.5162717" lon="12.4641683"><ele>790.0</ele><time>2026-05-02T15:17:16.395Z</time></trkpt><trkpt lat="46.5161183" lon="12.4641017"><ele>790.0</ele><time>2026-05-02T15:17:17.395Z</time></trkpt><trkpt lat="46.5159667" lon="12.4640433"><ele>789.0</ele><time>2026-05-02T15:17:18.395Z</time></trkpt><trkpt lat="46.5158167" lon="12.46399"><ele>788.0</ele><time>2026-05-02T15:17:19.395Z</time></trkpt><trkpt lat="46.5156683" lon="12.4639467"><ele>787.0</ele><time>2026-05-02T15:17:20.394Z</time></trkpt><trkpt lat="46.5155217" lon="12.4639083"><ele>785.3333333333333</ele><time>2026-05-02T15:17:21.394Z</time></trkpt><trkpt lat="46.5153783" lon="12.463865"><ele>783.6666666666667</ele><time>2026-05-02T15:17:22.395Z</time></trkpt><trkpt lat="46.5152267" lon="12.4638283"><ele>782.0</ele><time>2026-05-02T15:17:23.395Z</time></trkpt><trkpt lat="46.51507" lon="12.46379"><ele>780.6666666666667</ele><time>2026-05-02T15:17:24.395Z</time></trkpt><trkpt lat="46.51491" lon="12.4637417"><ele>779.3333333333333</ele><time>2026-05-02T15:17:25.395Z</time></trkpt><trkpt lat="46.514745" lon="12.4636983"><ele>778.0</ele><time>2026-05-02T15:17:26.394Z</time></trkpt><trkpt lat="46.514575" lon="12.46365"><ele>778.3333333333333</ele><time>2026-05-02T15:17:27.395Z</time></trkpt><trkpt lat="46.5144167" lon="12.4635967"><ele>778.6666666666667</ele><time>2026-05-02T15:17:28.395Z</time></trkpt><trkpt lat="46.5142583" lon="12.46354"><ele>779.0</ele><time>2026-05-02T15:17:29.394Z</time></trkpt><trkpt lat="46.514105" lon="12.463435"><ele>779.0</ele><time>2026-05-02T15:17:30.395Z</time></trkpt><trkpt lat="46.5139617" lon="12.463315"><ele>779.0</ele><time>2026-05-02T15:17:31.395Z</time></trkpt><trkpt lat="46.5138233" lon="12.4631717"><ele>779.0</ele><time>2026-05-02T15:17:32.394Z</time></trkpt><trkpt lat="46.5137" lon="12.4630117"><ele>777.0</ele><time>2026-05-02T15:17:33.394Z</time></trkpt><trkpt lat="46.51358" lon="12.4628483"><ele>775.0</ele><time>2026-05-02T15:17:34.395Z</time></trkpt><trkpt lat="46.51346" lon="12.4626983"><ele>773.0</ele><time>2026-05-02T15:17:35.394Z</time></trkpt><trkpt lat="46.513335" lon="12.4625583"><ele>773.0</ele><time>2026-05-02T15:17:36.395Z</time></trkpt><trkpt lat="46.5132083" lon="12.46243"><ele>773.0</ele><time>2026-05-02T15:17:37.395Z</time></trkpt><trkpt lat="46.5130783" lon="12.4623067"><ele>773.0</ele><time>2026-05-02T15:17:38.395Z</time></trkpt><trkpt lat="46.5129467" lon="12.4621933"><ele>771.0</ele><time>2026-05-02T15:17:39.395Z</time></trkpt><trkpt lat="46.512805" lon="12.4620933"><ele>769.0</ele><time>2026-05-02T15:17:40.395Z</time></trkpt><trkpt lat="46.5126683" lon="12.4619833"><ele>767.0</ele><time>2026-05-02T15:17:41.395Z</time></trkpt><trkpt lat="46.5125317" lon="12.4618767"><ele>767.0</ele><time>2026-05-02T15:17:42.395Z</time></trkpt><trkpt lat="46.5123933" lon="12.4617767"><ele>767.0</ele><time>2026-05-02T15:17:43.395Z</time></trkpt><trkpt lat="46.5122633" lon="12.46168"><ele>767.0</ele><time>2026-05-02T15:17:44.395Z</time></trkpt><trkpt lat="46.5121283" lon="12.461585"><ele>767.6666666666666</ele><time>2026-05-02T15:17:45.395Z</time></trkpt><trkpt lat="46.511995" lon="12.4614917"><ele>768.3333333333333</ele><time>2026-05-02T15:17:46.395Z</time></trkpt><trkpt lat="46.511855" lon="12.4613967"><ele>769.0</ele><time>2026-05-02T15:17:47.395Z</time></trkpt><trkpt lat="46.5117183" lon="12.4612933"><ele>772.0</ele><time>2026-05-02T15:17:48.395Z</time></trkpt><trkpt lat="46.5115783" lon="12.4611867"><ele>775.0</ele><time>2026-05-02T15:17:49.395Z</time></trkpt><trkpt lat="46.511435" lon="12.4610767"><ele>778.0</ele><time>2026-05-02T15:17:50.395Z</time></trkpt><trkpt lat="46.51129" lon="12.46097"><ele>776.0</ele><time>2026-05-02T15:17:51.395Z</time></trkpt><trkpt lat="46.5111467" lon="12.4608567"><ele>774.0</ele><time>2026-05-02T15:17:52.395Z</time></trkpt><trkpt lat="46.5110033" lon="12.4607383"><ele>772.0</ele><time>2026-05-02T15:17:53.395Z</time></trkpt><trkpt lat="46.5108667" lon="12.4606033"><ele>771.3333333333333</ele><time>2026-05-02T15:17:54.395Z</time></trkpt><trkpt lat="46.51072" lon="12.4604367"><ele>770.6666666666667</ele><time>2026-05-02T15:17:55.394Z</time></trkpt><trkpt lat="46.5105783" lon="12.4602567"><ele>770.0</ele><time>2026-05-02T15:17:56.395Z</time></trkpt><trkpt lat="46.51043" lon="12.4600667"><ele>766.3333333333334</ele><time>2026-05-02T15:17:57.395Z</time></trkpt><trkpt lat="46.510275" lon="12.4598883"><ele>762.6666666666667</ele><time>2026-05-02T15:17:58.395Z</time></trkpt><trkpt lat="46.51013" lon="12.459695"><ele>759.0</ele><time>2026-05-02T15:17:59.394Z</time></trkpt><trkpt lat="46.5099817" lon="12.45951"><ele>757.6666666666666</ele><time>2026-05-02T15:18:00.394Z</time></trkpt><trkpt lat="46.50984" lon="12.4593333"><ele>756.3333333333333</ele><time>2026-05-02T15:18:01.395Z</time></trkpt><trkpt lat="46.5096883" lon="12.4591733"><ele>755.0</ele><time>2026-05-02T15:18:02.395Z</time></trkpt><trkpt lat="46.509535" lon="12.4590283"><ele>752.0</ele><time>2026-05-02T15:18:03.395Z</time></trkpt><trkpt lat="46.5093867" lon="12.45889"><ele>749.0</ele><time>2026-05-02T15:18:04.395Z</time></trkpt><trkpt lat="46.5092217" lon="12.4587617"><ele>746.0</ele><time>2026-05-02T15:18:05.395Z</time></trkpt><trkpt lat="46.5090567" lon="12.4586383"><ele>746.0</ele><time>2026-05-02T15:18:06.395Z</time></trkpt><trkpt lat="46.5088933" lon="12.4585317"><ele>746.0</ele><time>2026-05-02T15:18:07.395Z</time></trkpt><trkpt lat="46.508725" lon="12.4584367"><ele>746.0</ele><time>2026-05-02T15:18:08.395Z</time></trkpt><trkpt lat="46.5085533" lon="12.4583483"><ele>743.0</ele><time>2026-05-02T15:18:09.395Z</time></trkpt><trkpt lat="46.50838" lon="12.458245"><ele>740.0</ele><time>2026-05-02T15:18:10.395Z</time></trkpt><trkpt lat="46.5082033" lon="12.4581417"><ele>737.0</ele><time>2026-05-02T15:18:11.395Z</time></trkpt><trkpt lat="46.5080233" lon="12.4580383"><ele>738.3333333333333</ele><time>2026-05-02T15:18:12.395Z</time></trkpt><trkpt lat="46.5078433" lon="12.4579417"><ele>739.6666666666666</ele><time>2026-05-02T15:18:13.395Z</time></trkpt><trkpt lat="46.5076667" lon="12.45785"><ele>741.0</ele><time>2026-05-02T15:18:14.395Z</time></trkpt><trkpt lat="46.50748" lon="12.4577583"><ele>741.0</ele><time>2026-05-02T15:18:15.395Z</time></trkpt><trkpt lat="46.5072983" lon="12.4576633"><ele>741.0</ele><time>2026-05-02T15:18:16.395Z</time></trkpt><trkpt lat="46.5071167" lon="12.4576033"><ele>741.0</ele><time>2026-05-02T15:18:17.395Z</time></trkpt><trkpt lat="46.5069367" lon="12.4575383"><ele>740.0</ele><time>2026-05-02T15:18:18.395Z</time></trkpt><trkpt lat="46.5067417" lon="12.457505"><ele>739.0</ele><time>2026-05-02T15:18:19.395Z</time></trkpt><trkpt lat="46.5065383" lon="12.4575083"><ele>738.0</ele><time>2026-05-02T15:18:20.395Z</time></trkpt><trkpt lat="46.5063483" lon="12.45753"><ele>739.6666666666666</ele><time>2026-05-02T15:18:21.395Z</time></trkpt><trkpt lat="46.5061667" lon="12.4575633"><ele>741.3333333333333</ele><time>2026-05-02T15:18:22.395Z</time></trkpt><trkpt lat="46.50599" lon="12.457585"><ele>743.0</ele><time>2026-05-02T15:18:23.395Z</time></trkpt><trkpt lat="46.5058133" lon="12.4576067"><ele>743.0</ele><time>2026-05-02T15:18:24.394Z</time></trkpt><trkpt lat="46.5056433" lon="12.4576133"><ele>743.0</ele><time>2026-05-02T15:18:25.395Z</time></trkpt><trkpt lat="46.505465" lon="12.4575983"><ele>743.0</ele><time>2026-05-02T15:18:26.395Z</time></trkpt><trkpt lat="46.50528" lon="12.457565"><ele>743.6666666666666</ele><time>2026-05-02T15:18:27.395Z</time></trkpt><trkpt lat="46.5051033" lon="12.4575333"><ele>744.3333333333334</ele><time>2026-05-02T15:18:28.395Z</time></trkpt><trkpt lat="46.5049217" lon="12.4575083"><ele>745.0</ele><time>2026-05-02T15:18:29.395Z</time></trkpt><trkpt lat="46.5047433" lon="12.457495"><ele>743.0</ele><time>2026-05-02T15:18:30.395Z</time></trkpt><trkpt lat="46.504555" lon="12.4574967"><ele>741.0</ele><time>2026-05-02T15:18:31.395Z</time></trkpt><trkpt lat="46.50437" lon="12.4575217"><ele>739.0</ele><time>2026-05-02T15:18:32.394Z</time></trkpt><trkpt lat="46.5041967" lon="12.4575367"><ele>739.0</ele><time>2026-05-02T15:18:33.395Z</time></trkpt><trkpt lat="46.5040433" lon="12.4575533"><ele>739.0</ele><time>2026-05-02T15:18:34.394Z</time></trkpt><trkpt lat="46.503895" lon="12.45756"><ele>739.0</ele><time>2026-05-02T15:18:35.395Z</time></trkpt><trkpt lat="46.5037483" lon="12.457575"><ele>739.0</ele><time>2026-05-02T15:18:36.395Z</time></trkpt><trkpt lat="46.5036117" lon="12.4575917"><ele>740.0</ele><time>2026-05-02T15:18:37.394Z</time></trkpt><trkpt lat="46.5034733" lon="12.4575767"><ele>741.0</ele><time>2026-05-02T15:18:38.394Z</time></trkpt><trkpt lat="46.503335" lon="12.4575233"><ele>742.0</ele><time>2026-05-02T15:18:39.395Z</time></trkpt><trkpt lat="46.5031917" lon="12.457445"><ele>743.0</ele><time>2026-05-02T15:18:40.395Z</time></trkpt><trkpt lat="46.50304" lon="12.4573417"><ele>739.3333333333333</ele><time>2026-05-02T15:18:41.394Z</time></trkpt><trkpt lat="46.5028917" lon="12.4572283"><ele>735.6666666666666</ele><time>2026-05-02T15:18:42.395Z</time></trkpt><trkpt lat="46.5027517" lon="12.45711"><ele>732.0</ele><time>2026-05-02T15:18:43.395Z</time></trkpt><trkpt lat="46.5026133" lon="12.4569917"><ele>732.0</ele><time>2026-05-02T15:18:44.394Z</time></trkpt><trkpt lat="46.5024667" lon="12.4568733"><ele>732.0</ele><time>2026-05-02T15:18:45.395Z</time></trkpt><trkpt lat="46.502325" lon="12.4567533"><ele>732.0</ele><time>2026-05-02T15:18:46.394Z</time></trkpt><trkpt lat="46.5021833" lon="12.4566367"><ele>733.6666666666666</ele><time>2026-05-02T15:18:47.395Z</time></trkpt><trkpt lat="46.50204" lon="12.4565183"><ele>735.3333333333333</ele><time>2026-05-02T15:18:48.395Z</time></trkpt><trkpt lat="46.5018967" lon="12.4563933"><ele>737.0</ele><time>2026-05-02T15:18:49.395Z</time></trkpt><trkpt lat="46.50175" lon="12.4562683"><ele>737.0</ele><time>2026-05-02T15:18:50.395Z</time></trkpt><trkpt lat="46.5016" lon="12.45615"><ele>737.0</ele><time>2026-05-02T15:18:51.395Z</time></trkpt><trkpt lat="46.5014417" lon="12.45603"><ele>737.0</ele><time>2026-05-02T15:18:52.394Z</time></trkpt><trkpt lat="46.5012867" lon="12.455905"><ele>736.6666666666666</ele><time>2026-05-02T15:18:53.395Z</time></trkpt><trkpt lat="46.5011217" lon="12.45577"><ele>736.3333333333334</ele><time>2026-05-02T15:18:54.394Z</time></trkpt><trkpt lat="46.5009617" lon="12.455635"><ele>736.0</ele><time>2026-05-02T15:18:55.395Z</time></trkpt><trkpt lat="46.5007967" lon="12.4555117"><ele>733.3333333333334</ele><time>2026-05-02T15:18:56.395Z</time></trkpt><trkpt lat="46.5006317" lon="12.45541"><ele>730.6666666666666</ele><time>2026-05-02T15:18:57.395Z</time></trkpt><trkpt lat="46.5004617" lon="12.455315"><ele>728.0</ele><time>2026-05-02T15:18:58.394Z</time></trkpt><trkpt lat="46.500285" lon="12.45523"><ele>728.0</ele><time>2026-05-02T15:18:59.395Z</time></trkpt><trkpt lat="46.500105" lon="12.4551483"><ele>728.0</ele><time>2026-05-02T15:19:00.395Z</time></trkpt><trkpt lat="46.4999183" lon="12.4550717"><ele>728.0</ele><time>2026-05-02T15:19:01.395Z</time></trkpt><trkpt lat="46.49973" lon="12.4550183"><ele>729.0</ele><time>2026-05-02T15:19:02.395Z</time></trkpt><trkpt lat="46.49953" lon="12.4549633"><ele>730.0</ele><time>2026-05-02T15:19:03.394Z</time></trkpt><trkpt lat="46.4993283" lon="12.4549133"><ele>731.0</ele><time>2026-05-02T15:19:04.395Z</time></trkpt><trkpt lat="46.4991183" lon="12.4548767"><ele>731.0</ele><time>2026-05-02T15:19:05.394Z</time></trkpt><trkpt lat="46.4989133" lon="12.454835"><ele>731.0</ele><time>2026-05-02T15:19:06.395Z</time></trkpt><trkpt lat="46.4987133" lon="12.45478"><ele>731.0</ele><time>2026-05-02T15:19:07.395Z</time></trkpt><trkpt lat="46.4985117" lon="12.4547267"><ele>731.0</ele><time>2026-05-02T15:19:08.395Z</time></trkpt><trkpt lat="46.498315" lon="12.454645"><ele>731.0</ele><time>2026-05-02T15:19:09.394Z</time></trkpt><trkpt lat="46.4981217" lon="12.4545633"><ele>731.0</ele><time>2026-05-02T15:19:10.395Z</time></trkpt><trkpt lat="46.49793" lon="12.45448"><ele>730.0</ele><time>2026-05-02T15:19:11.395Z</time></trkpt><trkpt lat="46.4977383" lon="12.4544083"><ele>729.0</ele><time>2026-05-02T15:19:12.395Z</time></trkpt><trkpt lat="46.4975517" lon="12.45431"><ele>728.0</ele><time>2026-05-02T15:19:13.395Z</time></trkpt><trkpt lat="46.4973767" lon="12.4541783"><ele>728.0</ele><time>2026-05-02T15:19:14.395Z</time></trkpt><trkpt lat="46.497205" lon="12.4540467"><ele>728.0</ele><time>2026-05-02T15:19:15.394Z</time></trkpt><trkpt lat="46.49704" lon="12.4539167"><ele>728.0</ele><time>2026-05-02T15:19:16.395Z</time></trkpt><trkpt lat="46.4968783" lon="12.4537783"><ele>729.6666666666666</ele><time>2026-05-02T15:19:17.395Z</time></trkpt><trkpt lat="46.4967183" lon="12.4536433"><ele>731.3333333333334</ele><time>2026-05-02T15:19:18.395Z</time></trkpt><trkpt lat="46.4965633" lon="12.4535117"><ele>733.0</ele><time>2026-05-02T15:19:19.395Z</time></trkpt><trkpt lat="46.496415" lon="12.4533867"><ele>733.0</ele><time>2026-05-02T15:19:20.395Z</time></trkpt><trkpt lat="46.4962533" lon="12.4532883"><ele>733.0</ele><time>2026-05-02T15:19:21.395Z</time></trkpt><trkpt lat="46.4960967" lon="12.4531767"><ele>733.0</ele><time>2026-05-02T15:19:22.395Z</time></trkpt><trkpt lat="46.4959517" lon="12.4530533"><ele>730.6666666666667</ele><time>2026-05-02T15:19:23.395Z</time></trkpt><trkpt lat="46.4958283" lon="12.4529167"><ele>728.3333333333334</ele><time>2026-05-02T15:19:24.395Z</time></trkpt><trkpt lat="46.4956917" lon="12.4527967"><ele>726.0</ele><time>2026-05-02T15:19:25.395Z</time></trkpt><trkpt lat="46.495545" lon="12.4526917"><ele>730.6666666666666</ele><time>2026-05-02T15:19:26.395Z</time></trkpt><trkpt lat="46.49539" lon="12.4526133"><ele>735.3333333333333</ele><time>2026-05-02T15:19:27.395Z</time></trkpt><trkpt lat="46.4952333" lon="12.4525633"><ele>740.0</ele><time>2026-05-02T15:19:28.395Z</time></trkpt><trkpt lat="46.4950817" lon="12.4525267"><ele>740.0</ele><time>2026-05-02T15:19:29.394Z</time></trkpt><trkpt lat="46.4949483" lon="12.45249"><ele>740.0</ele><time>2026-05-02T15:19:30.395Z</time></trkpt><trkpt lat="46.4948283" lon="12.45246"><ele>740.0</ele><time>2026-05-02T15:19:31.395Z</time></trkpt><trkpt lat="46.49472" lon="12.4524433"><ele>740.0</ele><time>2026-05-02T15:19:32.395Z</time></trkpt><trkpt lat="46.4946217" lon="12.4524233"><ele>740.8</ele><time>2026-05-02T15:19:33.395Z</time></trkpt><trkpt lat="46.4945317" lon="12.4523867"><ele>741.6</ele><time>2026-05-02T15:19:34.395Z</time></trkpt><trkpt lat="46.4944467" lon="12.4523233"><ele>742.4000000000001</ele><time>2026-05-02T15:19:35.395Z</time></trkpt><trkpt lat="46.49437" lon="12.45226"><ele>743.2</ele><time>2026-05-02T15:19:36.394Z</time></trkpt><trkpt lat="46.4942833" lon="12.4522067"><ele>744.0</ele><time>2026-05-02T15:19:37.395Z</time></trkpt><trkpt lat="46.4941867" lon="12.4521717"><ele>744.0</ele><time>2026-05-02T15:19:38.395Z</time></trkpt><trkpt lat="46.4940817" lon="12.452175"><ele>744.0</ele><time>2026-05-02T15:19:39.394Z</time></trkpt><trkpt lat="46.49397" lon="12.4522233"><ele>744.0</ele><time>2026-05-02T15:19:40.395Z</time></trkpt><trkpt lat="46.4938433" lon="12.452305"><ele>744.0</ele><time>2026-05-02T15:19:41.394Z</time></trkpt><trkpt lat="46.49372" lon="12.4523783"><ele>745.5</ele><time>2026-05-02T15:19:42.395Z</time></trkpt><trkpt lat="46.4936" lon="12.452425"><ele>747.0</ele><time>2026-05-02T15:19:43.395Z</time></trkpt><trkpt lat="46.4934817" lon="12.45241"><ele>748.5</ele><time>2026-05-02T15:19:44.395Z</time></trkpt><trkpt lat="46.4933767" lon="12.4523483"><ele>750.0</ele><time>2026-05-02T15:19:45.395Z</time></trkpt><trkpt lat="46.4932967" lon="12.4522583"><ele>750.25</ele><time>2026-05-02T15:19:46.395Z</time></trkpt><trkpt lat="46.49323" lon="12.4521167"><ele>750.5</ele><time>2026-05-02T15:19:47.395Z</time></trkpt><trkpt lat="46.49318" lon="12.4519583"><ele>750.75</ele><time>2026-05-02T15:19:48.395Z</time></trkpt><trkpt lat="46.4931233" lon="12.4517967"><ele>751.0</ele><time>2026-05-02T15:19:49.394Z</time></trkpt><trkpt lat="46.493055" lon="12.4516633"><ele>751.0</ele><time>2026-05-02T15:19:50.395Z</time></trkpt><trkpt lat="46.49297" lon="12.4515533"><ele>751.0</ele><time>2026-05-02T15:19:51.395Z</time></trkpt><trkpt lat="46.4928433" lon="12.4514733"><ele>751.0</ele><time>2026-05-02T15:19:52.395Z</time></trkpt><trkpt lat="46.4927" lon="12.4514117"><ele>751.0</ele><time>2026-05-02T15:19:53.394Z</time></trkpt><trkpt lat="46.49255" lon="12.4513733"><ele>749.25</ele><time>2026-05-02T15:19:54.395Z</time></trkpt><trkpt lat="46.492405" lon="12.451355"><ele>747.5</ele><time>2026-05-02T15:19:55.395Z</time></trkpt><trkpt lat="46.49227" lon="12.451355"><ele>745.75</ele><time>2026-05-02T15:19:56.395Z</time></trkpt><trkpt lat="46.492135" lon="12.4513783"><ele>744.0</ele><time>2026-05-02T15:19:57.395Z</time></trkpt><trkpt lat="46.4919983" lon="12.45141"><ele>742.5</ele><time>2026-05-02T15:19:58.395Z</time></trkpt><trkpt lat="46.4918617" lon="12.4514317"><ele>741.0</ele><time>2026-05-02T15:19:59.395Z</time></trkpt><trkpt lat="46.4917317" lon="12.4514317"><ele>739.5</ele><time>2026-05-02T15:20:00.394Z</time></trkpt><trkpt lat="46.4915967" lon="12.4514267"><ele>738.0</ele><time>2026-05-02T15:20:01.394Z</time></trkpt><trkpt lat="46.4914683" lon="12.4514"><ele>738.0</ele><time>2026-05-02T15:20:02.395Z</time></trkpt><trkpt lat="46.4913433" lon="12.4513733"><ele>738.0</ele><time>2026-05-02T15:20:03.395Z</time></trkpt><trkpt lat="46.4912217" lon="12.4513567"><ele>738.0</ele><time>2026-05-02T15:20:04.394Z</time></trkpt><trkpt lat="46.4911033" lon="12.451345"><ele>738.0</ele><time>2026-05-02T15:20:05.395Z</time></trkpt><trkpt lat="46.49099" lon="12.4513433"><ele>738.25</ele><time>2026-05-02T15:20:06.395Z</time></trkpt><trkpt lat="46.49088" lon="12.4513783"><ele>738.5</ele><time>2026-05-02T15:20:07.394Z</time></trkpt><trkpt lat="46.4907633" lon="12.45143"><ele>738.75</ele><time>2026-05-02T15:20:08.395Z</time></trkpt><trkpt lat="46.4906467" lon="12.4514583"><ele>739.0</ele><time>2026-05-02T15:20:09.395Z</time></trkpt><trkpt lat="46.4905133" lon="12.4514283"><ele>738.25</ele><time>2026-05-02T15:20:10.395Z</time></trkpt><trkpt lat="46.4903767" lon="12.4513833"><ele>737.5</ele><time>2026-05-02T15:20:11.395Z</time></trkpt><trkpt lat="46.490235" lon="12.45133"><ele>736.75</ele><time>2026-05-02T15:20:12.395Z</time></trkpt><trkpt lat="46.4900917" lon="12.4512733"><ele>736.0</ele><time>2026-05-02T15:20:13.394Z</time></trkpt><trkpt lat="46.48995" lon="12.4512167"><ele>739.5</ele><time>2026-05-02T15:20:14.395Z</time></trkpt><trkpt lat="46.48982" lon="12.451155"><ele>743.0</ele><time>2026-05-02T15:20:15.395Z</time></trkpt><trkpt lat="46.4896867" lon="12.4511067"><ele>746.5</ele><time>2026-05-02T15:20:16.395Z</time></trkpt><trkpt lat="46.489555" lon="12.4510467"><ele>750.0</ele><time>2026-05-02T15:20:17.395Z</time></trkpt><trkpt lat="46.489415" lon="12.4509917"><ele>750.0</ele><time>2026-05-02T15:20:18.395Z</time></trkpt><trkpt lat="46.4892833" lon="12.45093"><ele>750.0</ele><time>2026-05-02T15:20:19.395Z</time></trkpt><trkpt lat="46.4891417" lon="12.450885"><ele>750.0</ele><time>2026-05-02T15:20:20.395Z</time></trkpt><trkpt lat="46.4889833" lon="12.4508583"><ele>750.0</ele><time>2026-05-02T15:20:21.395Z</time></trkpt><trkpt lat="46.4888167" lon="12.4508383"><ele>750.0</ele><time>2026-05-02T15:20:22.394Z</time></trkpt><trkpt lat="46.4886367" lon="12.4508317"><ele>750.0</ele><time>2026-05-02T15:20:23.395Z</time></trkpt><trkpt lat="46.4884517" lon="12.4508233"><ele>750.0</ele><time>2026-05-02T15:20:24.395Z</time></trkpt><trkpt lat="46.488255" lon="12.4508067"><ele>750.0</ele><time>2026-05-02T15:20:25.395Z</time></trkpt><trkpt lat="46.4880317" lon="12.4507767"><ele>750.0</ele><time>2026-05-02T15:20:26.395Z</time></trkpt><trkpt lat="46.487785" lon="12.4508"><ele>744.5</ele><time>2026-05-02T15:20:27.394Z</time></trkpt><trkpt lat="46.4875367" lon="12.4508083"><ele>739.0</ele><time>2026-05-02T15:20:28.395Z</time></trkpt><trkpt lat="46.4873" lon="12.4507983"><ele>734.6666666666667</ele><time>2026-05-02T15:20:29.395Z</time></trkpt><trkpt lat="46.4870733" lon="12.45079"><ele>730.3333333333334</ele><time>2026-05-02T15:20:30.395Z</time></trkpt><trkpt lat="46.4868583" lon="12.45079"><ele>726.0</ele><time>2026-05-02T15:20:31.395Z</time></trkpt><trkpt lat="46.4866517" lon="12.4507817"><ele>726.0</ele><time>2026-05-02T15:20:32.395Z</time></trkpt><trkpt lat="46.486455" lon="12.4507567"><ele>726.0</ele><time>2026-05-02T15:20:33.395Z</time></trkpt><trkpt lat="46.4862633" lon="12.4507167"><ele>726.0</ele><time>2026-05-02T15:20:34.394Z</time></trkpt><trkpt lat="46.4860717" lon="12.4506433"><ele>725.3333333333334</ele><time>2026-05-02T15:20:35.395Z</time></trkpt><trkpt lat="46.4858817" lon="12.4505533"><ele>724.6666666666667</ele><time>2026-05-02T15:20:36.395Z</time></trkpt><trkpt lat="46.4856983" lon="12.450455"><ele>724.0</ele><time>2026-05-02T15:20:37.394Z</time></trkpt><trkpt lat="46.4855283" lon="12.4503317"><ele>724.0</ele><time>2026-05-02T15:20:38.395Z</time></trkpt><trkpt lat="46.4853617" lon="12.4502033"><ele>724.0</ele><time>2026-05-02T15:20:39.394Z</time></trkpt><trkpt lat="46.4852017" lon="12.4500567"><ele>724.0</ele><time>2026-05-02T15:20:40.395Z</time></trkpt><trkpt lat="46.4850483" lon="12.4498833"><ele>724.0</ele><time>2026-05-02T15:20:41.395Z</time></trkpt><trkpt lat="46.484905" lon="12.449705"><ele>724.0</ele><time>2026-05-02T15:20:42.395Z</time></trkpt><trkpt lat="46.484765" lon="12.4495117"><ele>724.0</ele><time>2026-05-02T15:20:43.395Z</time></trkpt><trkpt lat="46.484625" lon="12.4492967"><ele>722.3333333333334</ele><time>2026-05-02T15:20:44.394Z</time></trkpt><trkpt lat="46.4844933" lon="12.4490583"><ele>720.6666666666666</ele><time>2026-05-02T15:20:45.394Z</time></trkpt><trkpt lat="46.4843717" lon="12.448805"><ele>719.0</ele><time>2026-05-02T15:20:46.394Z</time></trkpt><trkpt lat="46.484255" lon="12.448545"><ele>719.0</ele><time>2026-05-02T15:20:47.395Z</time></trkpt><trkpt lat="46.484145" lon="12.44828"><ele>719.0</ele><time>2026-05-02T15:20:48.395Z</time></trkpt><trkpt lat="46.48404" lon="12.4480083"><ele>719.0</ele><time>2026-05-02T15:20:49.395Z</time></trkpt><trkpt lat="46.4839333" lon="12.4477317"><ele>717.0</ele><time>2026-05-02T15:20:50.394Z</time></trkpt><trkpt lat="46.4838233" lon="12.44745"><ele>715.0</ele><time>2026-05-02T15:20:51.395Z</time></trkpt><trkpt lat="46.4837183" lon="12.4471617"><ele>713.0</ele><time>2026-05-02T15:20:52.394Z</time></trkpt><trkpt lat="46.4836183" lon="12.4468817"><ele>717.0</ele><time>2026-05-02T15:20:53.394Z</time></trkpt><trkpt lat="46.48352" lon="12.4466033"><ele>721.0</ele><time>2026-05-02T15:20:54.395Z</time></trkpt><trkpt lat="46.4834217" lon="12.4463267"><ele>725.0</ele><time>2026-05-02T15:20:55.395Z</time></trkpt><trkpt lat="46.4833267" lon="12.4460483"><ele>728.3333333333333</ele><time>2026-05-02T15:20:56.395Z</time></trkpt><trkpt lat="46.4832333" lon="12.4457767"><ele>731.6666666666666</ele><time>2026-05-02T15:20:57.394Z</time></trkpt><trkpt lat="46.48314" lon="12.445515"><ele>735.0</ele><time>2026-05-02T15:20:58.394Z</time></trkpt><trkpt lat="46.4830483" lon="12.4452417"><ele>734.3333333333334</ele><time>2026-05-02T15:20:59.395Z</time></trkpt><trkpt lat="46.4829533" lon="12.4449817"><ele>733.6666666666667</ele><time>2026-05-02T15:21:00.394Z</time></trkpt><trkpt lat="46.4828483" lon="12.4447233"><ele>733.0</ele><time>2026-05-02T15:21:01.394Z</time></trkpt><trkpt lat="46.4827417" lon="12.4444717"><ele>733.6666666666667</ele><time>2026-05-02T15:21:02.395Z</time></trkpt><trkpt lat="46.4826133" lon="12.4442417"><ele>734.3333333333334</ele><time>2026-05-02T15:21:03.395Z</time></trkpt><trkpt lat="46.48248" lon="12.4440133"><ele>735.0</ele><time>2026-05-02T15:21:04.394Z</time></trkpt><trkpt lat="46.4823333" lon="12.44379"><ele>735.0</ele><time>2026-05-02T15:21:05.395Z</time></trkpt><trkpt lat="46.48218" lon="12.4435567"><ele>735.0</ele><time>2026-05-02T15:21:06.395Z</time></trkpt><trkpt lat="46.4820267" lon="12.4433117"><ele>735.0</ele><time>2026-05-02T15:21:07.394Z</time></trkpt><trkpt lat="46.4818717" lon="12.4430917"><ele>735.0</ele><time>2026-05-02T15:21:08.395Z</time></trkpt><trkpt lat="46.4817233" lon="12.44285"><ele>735.0</ele><time>2026-05-02T15:21:09.395Z</time></trkpt><trkpt lat="46.4815717" lon="12.44261"><ele>736.5</ele><time>2026-05-02T15:21:10.395Z</time></trkpt><trkpt lat="46.4814117" lon="12.4423733"><ele>738.0</ele><time>2026-05-02T15:21:11.395Z</time></trkpt><trkpt lat="46.48125" lon="12.4421367"><ele>740.5</ele><time>2026-05-02T15:21:12.394Z</time></trkpt><trkpt lat="46.48108" lon="12.4419017"><ele>743.0</ele><time>2026-05-02T15:21:13.395Z</time></trkpt><trkpt lat="46.48089" lon="12.441675"><ele>743.0</ele><time>2026-05-02T15:21:14.395Z</time></trkpt><trkpt lat="46.4806917" lon="12.441465"><ele>743.0</ele><time>2026-05-02T15:21:15.395Z</time></trkpt><trkpt lat="46.4804867" lon="12.4412667"><ele>747.5</ele><time>2026-05-02T15:21:16.395Z</time></trkpt><trkpt lat="46.48027" lon="12.44109"><ele>752.0</ele><time>2026-05-02T15:21:17.395Z</time></trkpt><trkpt lat="46.4800433" lon="12.4409267"><ele>752.0</ele><time>2026-05-02T15:21:18.395Z</time></trkpt><trkpt lat="46.47982" lon="12.4407783"><ele>752.0</ele><time>2026-05-02T15:21:19.394Z</time></trkpt><trkpt lat="46.4796067" lon="12.440645"><ele>752.6666666666666</ele><time>2026-05-02T15:21:20.395Z</time></trkpt><trkpt lat="46.4794033" lon="12.4405117"><ele>753.3333333333334</ele><time>2026-05-02T15:21:21.395Z</time></trkpt><trkpt lat="46.4792" lon="12.4403867"><ele>754.0</ele><time>2026-05-02T15:21:22.394Z</time></trkpt><trkpt lat="46.4790067" lon="12.4402467"><ele>759.0</ele><time>2026-05-02T15:21:23.394Z</time></trkpt><trkpt lat="46.4788283" lon="12.440075"><ele>764.0</ele><time>2026-05-02T15:21:24.395Z</time></trkpt><trkpt lat="46.4786517" lon="12.43989"><ele>769.0</ele><time>2026-05-02T15:21:25.394Z</time></trkpt><trkpt lat="46.478485" lon="12.4396867"><ele>774.0</ele><time>2026-05-02T15:21:26.395Z</time></trkpt><trkpt lat="46.478325" lon="12.43946"><ele>779.0</ele><time>2026-05-02T15:21:27.394Z</time></trkpt><trkpt lat="46.47817" lon="12.43922"><ele>779.0</ele><time>2026-05-02T15:21:28.395Z</time></trkpt><trkpt lat="46.4780267" lon="12.4389733"><ele>779.0</ele><time>2026-05-02T15:21:29.394Z</time></trkpt><trkpt lat="46.4778867" lon="12.4387217"><ele>779.0</ele><time>2026-05-02T15:21:30.395Z</time></trkpt><trkpt lat="46.47775" lon="12.43847"><ele>780.3333333333334</ele><time>2026-05-02T15:21:31.395Z</time></trkpt><trkpt lat="46.4776067" lon="12.43823"><ele>781.6666666666667</ele><time>2026-05-02T15:21:32.395Z</time></trkpt><trkpt lat="46.4774733" lon="12.438"><ele>783.0</ele><time>2026-05-02T15:21:33.395Z</time></trkpt><trkpt lat="46.4773383" lon="12.4377783"><ele>785.6666666666667</ele><time>2026-05-02T15:21:34.395Z</time></trkpt><trkpt lat="46.477195" lon="12.4375567"><ele>788.3333333333334</ele><time>2026-05-02T15:21:35.395Z</time></trkpt><trkpt lat="46.4770467" lon="12.437355"><ele>791.0</ele><time>2026-05-02T15:21:36.395Z</time></trkpt><trkpt lat="46.4768983" lon="12.43717"><ele>791.6666666666667</ele><time>2026-05-02T15:21:37.394Z</time></trkpt><trkpt lat="46.4767483" lon="12.437"><ele>792.3333333333333</ele><time>2026-05-02T15:21:38.395Z</time></trkpt><trkpt lat="46.4765983" lon="12.4368417"><ele>793.0</ele><time>2026-05-02T15:21:39.395Z</time></trkpt><trkpt lat="46.4764483" lon="12.4366883"><ele>793.0</ele><time>2026-05-02T15:21:40.395Z</time></trkpt><trkpt lat="46.476295" lon="12.4365283"><ele>793.0</ele><time>2026-05-02T15:21:41.395Z</time></trkpt><trkpt lat="46.476135" lon="12.43637"><ele>793.0</ele><time>2026-05-02T15:21:42.395Z</time></trkpt><trkpt lat="46.47598" lon="12.4362117"><ele>794.0</ele><time>2026-05-02T15:21:43.395Z</time></trkpt><trkpt lat="46.4758233" lon="12.4360583"><ele>795.0</ele><time>2026-05-02T15:21:44.395Z</time></trkpt><trkpt lat="46.4756933" lon="12.4358717"><ele>796.0</ele><time>2026-05-02T15:21:45.394Z</time></trkpt><trkpt lat="46.475565" lon="12.4357167"><ele>796.0</ele><time>2026-05-02T15:21:46.395Z</time></trkpt><trkpt lat="46.4754483" lon="12.4355517"><ele>796.0</ele><time>2026-05-02T15:21:47.394Z</time></trkpt><trkpt lat="46.4753317" lon="12.4353733"><ele>796.0</ele><time>2026-05-02T15:21:48.395Z</time></trkpt><trkpt lat="46.4752183" lon="12.4351783"><ele>796.6666666666666</ele><time>2026-05-02T15:21:49.395Z</time></trkpt><trkpt lat="46.47511" lon="12.4349717"><ele>797.3333333333333</ele><time>2026-05-02T15:21:50.395Z</time></trkpt><trkpt lat="46.4749933" lon="12.4347683"><ele>798.0</ele><time>2026-05-02T15:21:51.395Z</time></trkpt><trkpt lat="46.4748783" lon="12.4345583"><ele>798.0</ele><time>2026-05-02T15:21:52.395Z</time></trkpt><trkpt lat="46.47474" lon="12.434365"><ele>798.0</ele><time>2026-05-02T15:21:53.395Z</time></trkpt><trkpt lat="46.4745883" lon="12.4342"><ele>798.0</ele><time>2026-05-02T15:21:54.395Z</time></trkpt><trkpt lat="46.4744433" lon="12.4340617"><ele>798.6666666666667</ele><time>2026-05-02T15:21:55.395Z</time></trkpt><trkpt lat="46.4743" lon="12.43394"><ele>799.3333333333334</ele><time>2026-05-02T15:21:56.395Z</time></trkpt><trkpt lat="46.474155" lon="12.4338217"><ele>800.0</ele><time>2026-05-02T15:21:57.394Z</time></trkpt><trkpt lat="46.4740233" lon="12.4337117"><ele>800.0</ele><time>2026-05-02T15:21:58.395Z</time></trkpt><trkpt lat="46.4738967" lon="12.4335933"><ele>800.0</ele><time>2026-05-02T15:21:59.394Z</time></trkpt><trkpt lat="46.473775" lon="12.4334733"><ele>800.0</ele><time>2026-05-02T15:22:00.395Z</time></trkpt><trkpt lat="46.4736583" lon="12.43332"><ele>797.3333333333334</ele><time>2026-05-02T15:22:01.394Z</time></trkpt><trkpt lat="46.47355" lon="12.4331617"><ele>794.6666666666667</ele><time>2026-05-02T15:22:02.395Z</time></trkpt><trkpt lat="46.4734517" lon="12.433"><ele>792.0</ele><time>2026-05-02T15:22:03.395Z</time></trkpt><trkpt lat="46.473355" lon="12.4328283"><ele>792.0</ele><time>2026-05-02T15:22:04.395Z</time></trkpt><trkpt lat="46.4732567" lon="12.432645"><ele>792.0</ele><time>2026-05-02T15:22:05.395Z</time></trkpt><trkpt lat="46.47316" lon="12.4324633"><ele>792.0</ele><time>2026-05-02T15:22:06.394Z</time></trkpt><trkpt lat="46.4730517" lon="12.432305"><ele>791.75</ele><time>2026-05-02T15:22:07.394Z</time></trkpt><trkpt lat="46.4729333" lon="12.4321733"><ele>791.5</ele><time>2026-05-02T15:22:08.395Z</time></trkpt><trkpt lat="46.472815" lon="12.4320683"><ele>791.25</ele><time>2026-05-02T15:22:09.395Z</time></trkpt><trkpt lat="46.4726867" lon="12.4319867"><ele>791.0</ele><time>2026-05-02T15:22:10.395Z</time></trkpt><trkpt lat="46.4725433" lon="12.431945"><ele>791.0</ele><time>2026-05-02T15:22:11.395Z</time></trkpt><trkpt lat="46.47238" lon="12.4319517"><ele>791.0</ele><time>2026-05-02T15:22:12.395Z</time></trkpt><trkpt lat="46.4722083" lon="12.4319917"><ele>791.0</ele><time>2026-05-02T15:22:13.395Z</time></trkpt><trkpt lat="46.47204" lon="12.4320317"><ele>791.0</ele><time>2026-05-02T15:22:14.395Z</time></trkpt><trkpt lat="46.4718783" lon="12.4320783"><ele>791.0</ele><time>2026-05-02T15:22:15.395Z</time></trkpt><trkpt lat="46.47172" lon="12.4321117"><ele>791.0</ele><time>2026-05-02T15:22:16.394Z</time></trkpt><trkpt lat="46.4715517" lon="12.4321567"><ele>791.0</ele><time>2026-05-02T15:22:17.395Z</time></trkpt><trkpt lat="46.4713883" lon="12.432185"><ele>791.0</ele><time>2026-05-02T15:22:18.395Z</time></trkpt><trkpt lat="46.4712317" lon="12.43221"><ele>791.0</ele><time>2026-05-02T15:22:19.395Z</time></trkpt><trkpt lat="46.4710867" lon="12.4322167"><ele>792.75</ele><time>2026-05-02T15:22:20.395Z</time></trkpt><trkpt lat="46.4709433" lon="12.43221"><ele>794.5</ele><time>2026-05-02T15:22:21.395Z</time></trkpt><trkpt lat="46.4708083" lon="12.4321883"><ele>796.25</ele><time>2026-05-02T15:22:22.395Z</time></trkpt><trkpt lat="46.4706683" lon="12.4321467"><ele>798.0</ele><time>2026-05-02T15:22:23.395Z</time></trkpt><trkpt lat="46.4705267" lon="12.4320767"><ele>800.3333333333333</ele><time>2026-05-02T15:22:24.395Z</time></trkpt><trkpt lat="46.4703983" lon="12.4319783"><ele>802.6666666666666</ele><time>2026-05-02T15:22:25.395Z</time></trkpt><trkpt lat="46.4702767" lon="12.431845"><ele>805.0</ele><time>2026-05-02T15:22:26.394Z</time></trkpt><trkpt lat="46.4701517" lon="12.43168"><ele>805.0</ele><time>2026-05-02T15:22:27.395Z</time></trkpt><trkpt lat="46.4700383" lon="12.4315067"><ele>805.0</ele><time>2026-05-02T15:22:28.394Z</time></trkpt><trkpt lat="46.46992" lon="12.431335"><ele>805.0</ele><time>2026-05-02T15:22:29.394Z</time></trkpt><trkpt lat="46.46979" lon="12.43119"><ele>804.6666666666666</ele><time>2026-05-02T15:22:30.395Z</time></trkpt><trkpt lat="46.4696717" lon="12.4310267"><ele>804.3333333333333</ele><time>2026-05-02T15:22:31.394Z</time></trkpt><trkpt lat="46.4695333" lon="12.43089"><ele>804.0</ele><time>2026-05-02T15:22:32.395Z</time></trkpt><trkpt lat="46.4694033" lon="12.4307367"><ele>804.0</ele><time>2026-05-02T15:22:33.394Z</time></trkpt><trkpt lat="46.4692717" lon="12.4305967"><ele>804.0</ele><time>2026-05-02T15:22:34.395Z</time></trkpt><trkpt lat="46.4691483" lon="12.43045"><ele>804.0</ele><time>2026-05-02T15:22:35.395Z</time></trkpt><trkpt lat="46.4690183" lon="12.4303233"><ele>805.3333333333333</ele><time>2026-05-02T15:22:36.395Z</time></trkpt><trkpt lat="46.4688967" lon="12.4301633"><ele>806.6666666666666</ele><time>2026-05-02T15:22:37.395Z</time></trkpt><trkpt lat="46.4687833" lon="12.4299867"><ele>808.0</ele><time>2026-05-02T15:22:38.395Z</time></trkpt><trkpt lat="46.4686783" lon="12.4297983"><ele>809.3333333333333</ele><time>2026-05-02T15:22:39.394Z</time></trkpt><trkpt lat="46.4685817" lon="12.429605"><ele>810.6666666666667</ele><time>2026-05-02T15:22:40.395Z</time></trkpt><trkpt lat="46.4684717" lon="12.4294217"><ele>812.0</ele><time>2026-05-02T15:22:41.395Z</time></trkpt><trkpt lat="46.4683683" lon="12.4292367"><ele>812.0</ele><time>2026-05-02T15:22:42.395Z</time></trkpt><trkpt lat="46.4682667" lon="12.429045"><ele>812.0</ele><time>2026-05-02T15:22:43.395Z</time></trkpt><trkpt lat="46.46817" lon="12.4288583"><ele>812.0</ele><time>2026-05-02T15:22:44.395Z</time></trkpt><trkpt lat="46.46807" lon="12.42868"><ele>811.0</ele><time>2026-05-02T15:22:45.395Z</time></trkpt><trkpt lat="46.46797" lon="12.4285067"><ele>810.0</ele><time>2026-05-02T15:22:46.395Z</time></trkpt><trkpt lat="46.4678717" lon="12.42833"><ele>809.0</ele><time>2026-05-02T15:22:47.395Z</time></trkpt><trkpt lat="46.467775" lon="12.4281467"><ele>809.6666666666667</ele><time>2026-05-02T15:22:48.395Z</time></trkpt><trkpt lat="46.4676783" lon="12.4279717"><ele>810.3333333333333</ele><time>2026-05-02T15:22:49.395Z</time></trkpt><trkpt lat="46.4675833" lon="12.4277933"><ele>811.0</ele><time>2026-05-02T15:22:50.394Z</time></trkpt><trkpt lat="46.4674817" lon="12.4276167"><ele>811.0</ele><time>2026-05-02T15:22:51.394Z</time></trkpt><trkpt lat="46.467365" lon="12.42745"><ele>811.0</ele><time>2026-05-02T15:22:52.394Z</time></trkpt><trkpt lat="46.467245" lon="12.4272917"><ele>811.0</ele><time>2026-05-02T15:22:53.394Z</time></trkpt><trkpt lat="46.46712" lon="12.4271283"><ele>808.6666666666666</ele><time>2026-05-02T15:22:54.395Z</time></trkpt><trkpt lat="46.466995" lon="12.4269667"><ele>806.3333333333333</ele><time>2026-05-02T15:22:55.395Z</time></trkpt><trkpt lat="46.4668767" lon="12.4268083"><ele>804.0</ele><time>2026-05-02T15:22:56.395Z</time></trkpt><trkpt lat="46.46677" lon="12.426645"><ele>804.0</ele><time>2026-05-02T15:22:57.395Z</time></trkpt><trkpt lat="46.46667" lon="12.4264683"><ele>804.0</ele><time>2026-05-02T15:22:58.395Z</time></trkpt><trkpt lat="46.4665683" lon="12.4262833"><ele>804.0</ele><time>2026-05-02T15:22:59.395Z</time></trkpt><trkpt lat="46.4664683" lon="12.4260967"><ele>805.3333333333333</ele><time>2026-05-02T15:23:00.395Z</time></trkpt><trkpt lat="46.4663667" lon="12.4258983"><ele>806.6666666666666</ele><time>2026-05-02T15:23:01.395Z</time></trkpt><trkpt lat="46.46626" lon="12.4257033"><ele>808.0</ele><time>2026-05-02T15:23:02.395Z</time></trkpt><trkpt lat="46.4661617" lon="12.4255167"><ele>804.3333333333333</ele><time>2026-05-02T15:23:03.395Z</time></trkpt><trkpt lat="46.4660567" lon="12.4253283"><ele>800.6666666666667</ele><time>2026-05-02T15:23:04.394Z</time></trkpt><trkpt lat="46.4659467" lon="12.425145"><ele>797.0</ele><time>2026-05-02T15:23:05.394Z</time></trkpt><trkpt lat="46.465845" lon="12.4249667"><ele>797.0</ele><time>2026-05-02T15:23:06.393Z</time></trkpt><trkpt lat="46.4657467" lon="12.4248"><ele>797.0</ele><time>2026-05-02T15:23:07.393Z</time></trkpt><trkpt lat="46.4656483" lon="12.4246367"><ele>797.0</ele><time>2026-05-02T15:23:08.394Z</time></trkpt><trkpt lat="46.465545" lon="12.4244733"><ele>794.3333333333334</ele><time>2026-05-02T15:23:09.393Z</time></trkpt><trkpt lat="46.4654333" lon="12.4243083"><ele>791.6666666666667</ele><time>2026-05-02T15:23:10.394Z</time></trkpt><trkpt lat="46.4653133" lon="12.4241633"><ele>789.0</ele><time>2026-05-02T15:23:11.393Z</time></trkpt><trkpt lat="46.4651967" lon="12.4240283"><ele>789.0</ele><time>2026-05-02T15:23:12.393Z</time></trkpt><trkpt lat="46.4650783" lon="12.4238933"><ele>789.0</ele><time>2026-05-02T15:23:13.393Z</time></trkpt><trkpt lat="46.46495" lon="12.4237733"><ele>789.0</ele><time>2026-05-02T15:23:14.393Z</time></trkpt><trkpt lat="46.4648183" lon="12.4236817"><ele>789.0</ele><time>2026-05-02T15:23:15.394Z</time></trkpt><trkpt lat="46.4646933" lon="12.4235733"><ele>787.0</ele><time>2026-05-02T15:23:16.394Z</time></trkpt><trkpt lat="46.4645683" lon="12.4234483"><ele>785.0</ele><time>2026-05-02T15:23:17.393Z</time></trkpt><trkpt lat="46.4644467" lon="12.4233133"><ele>783.0</ele><time>2026-05-02T15:23:18.394Z</time></trkpt><trkpt lat="46.4643333" lon="12.4231567"><ele>783.0</ele><time>2026-05-02T15:23:19.394Z</time></trkpt><trkpt lat="46.46423" lon="12.4229917"><ele>783.0</ele><time>2026-05-02T15:23:20.394Z</time></trkpt><trkpt lat="46.464145" lon="12.4228233"><ele>783.0</ele><time>2026-05-02T15:23:21.394Z</time></trkpt><trkpt lat="46.4640633" lon="12.4226533"><ele>783.0</ele><time>2026-05-02T15:23:22.394Z</time></trkpt><trkpt lat="46.4639833" lon="12.42249"><ele>782.25</ele><time>2026-05-02T15:23:23.394Z</time></trkpt><trkpt lat="46.4639117" lon="12.42232"><ele>781.5</ele><time>2026-05-02T15:23:24.394Z</time></trkpt><trkpt lat="46.463835" lon="12.422145"><ele>780.75</ele><time>2026-05-02T15:23:25.394Z</time></trkpt><trkpt lat="46.46376" lon="12.42198"><ele>780.0</ele><time>2026-05-02T15:23:26.394Z</time></trkpt><trkpt lat="46.4636767" lon="12.4218283"><ele>780.0</ele><time>2026-05-02T15:23:27.393Z</time></trkpt><trkpt lat="46.4636017" lon="12.4216917"><ele>780.0</ele><time>2026-05-02T15:23:28.393Z</time></trkpt><trkpt lat="46.4635267" lon="12.4215633"><ele>780.0</ele><time>2026-05-02T15:23:29.394Z</time></trkpt><trkpt lat="46.4634617" lon="12.4214267"><ele>780.0</ele><time>2026-05-02T15:23:30.394Z</time></trkpt><trkpt lat="46.4634083" lon="12.4212967"><ele>780.8</ele><time>2026-05-02T15:23:31.394Z</time></trkpt><trkpt lat="46.4633433" lon="12.421175"><ele>781.6</ele><time>2026-05-02T15:23:32.393Z</time></trkpt><trkpt lat="46.463265" lon="12.4210933"><ele>782.4000000000001</ele><time>2026-05-02T15:23:33.394Z</time></trkpt><trkpt lat="46.46317" lon="12.4210317"><ele>783.2</ele><time>2026-05-02T15:23:34.394Z</time></trkpt><trkpt lat="46.46306" lon="12.4209667"><ele>784.0</ele><time>2026-05-02T15:23:35.394Z</time></trkpt><trkpt lat="46.462955" lon="12.42088"><ele>782.5</ele><time>2026-05-02T15:23:36.394Z</time></trkpt><trkpt lat="46.46286" lon="12.4207683"><ele>781.0</ele><time>2026-05-02T15:23:37.394Z</time></trkpt><trkpt lat="46.4627717" lon="12.420655"><ele>779.5</ele><time>2026-05-02T15:23:38.394Z</time></trkpt><trkpt lat="46.462675" lon="12.4205467"><ele>778.0</ele><time>2026-05-02T15:23:39.394Z</time></trkpt><trkpt lat="46.4625867" lon="12.4204417"><ele>778.0</ele><time>2026-05-02T15:23:40.394Z</time></trkpt><trkpt lat="46.4624917" lon="12.4203367"><ele>778.0</ele><time>2026-05-02T15:23:41.394Z</time></trkpt><trkpt lat="46.4624067" lon="12.4202317"><ele>778.0</ele><time>2026-05-02T15:23:42.394Z</time></trkpt><trkpt lat="46.4623167" lon="12.42011"><ele>778.0</ele><time>2026-05-02T15:23:43.394Z</time></trkpt><trkpt lat="46.462235" lon="12.4199717"><ele>778.0</ele><time>2026-05-02T15:23:44.393Z</time></trkpt><trkpt lat="46.462165" lon="12.4198133"><ele>778.0</ele><time>2026-05-02T15:23:45.394Z</time></trkpt><trkpt lat="46.4621033" lon="12.4196383"><ele>778.0</ele><time>2026-05-02T15:23:46.393Z</time></trkpt><trkpt lat="46.4620517" lon="12.4194683"><ele>778.0</ele><time>2026-05-02T15:23:47.393Z</time></trkpt><trkpt lat="46.4619867" lon="12.4193"><ele>776.5</ele><time>2026-05-02T15:23:48.394Z</time></trkpt><trkpt lat="46.46191" lon="12.4191317"><ele>775.0</ele><time>2026-05-02T15:23:49.394Z</time></trkpt><trkpt lat="46.4618383" lon="12.41896"><ele>773.5</ele><time>2026-05-02T15:23:50.393Z</time></trkpt><trkpt lat="46.461755" lon="12.4188017"><ele>772.0</ele><time>2026-05-02T15:23:51.394Z</time></trkpt><trkpt lat="46.46168" lon="12.4186283"><ele>772.0</ele><time>2026-05-02T15:23:52.394Z</time></trkpt><trkpt lat="46.461605" lon="12.4184567"><ele>772.0</ele><time>2026-05-02T15:23:53.394Z</time></trkpt><trkpt lat="46.4615433" lon="12.418275"><ele>772.0</ele><time>2026-05-02T15:23:54.394Z</time></trkpt><trkpt lat="46.461485" lon="12.4180983"><ele>772.0</ele><time>2026-05-02T15:23:55.394Z</time></trkpt><trkpt lat="46.461425" lon="12.417915"><ele>771.75</ele><time>2026-05-02T15:23:56.394Z</time></trkpt><trkpt lat="46.4613633" lon="12.4177567"><ele>771.5</ele><time>2026-05-02T15:23:57.393Z</time></trkpt><trkpt lat="46.4612917" lon="12.417605"><ele>771.25</ele><time>2026-05-02T15:23:58.394Z</time></trkpt><trkpt lat="46.4612233" lon="12.41746"><ele>771.0</ele><time>2026-05-02T15:23:59.393Z</time></trkpt><trkpt lat="46.46113" lon="12.4173517"><ele>771.0</ele><time>2026-05-02T15:24:00.394Z</time></trkpt><trkpt lat="46.4610433" lon="12.417245"><ele>771.0</ele><time>2026-05-02T15:24:01.394Z</time></trkpt><trkpt lat="46.4609517" lon="12.4171533"><ele>771.0</ele><time>2026-05-02T15:24:02.393Z</time></trkpt><trkpt lat="46.4608617" lon="12.41706"><ele>771.0</ele><time>2026-05-02T15:24:03.393Z</time></trkpt><trkpt lat="46.4607767" lon="12.416955"><ele>771.0</ele><time>2026-05-02T15:24:04.394Z</time></trkpt><trkpt lat="46.4606883" lon="12.4168417"><ele>771.1999999999999</ele><time>2026-05-02T15:24:05.393Z</time></trkpt><trkpt lat="46.4606017" lon="12.41672"><ele>771.4</ele><time>2026-05-02T15:24:06.394Z</time></trkpt><trkpt lat="46.460515" lon="12.416615"><ele>771.6</ele><time>2026-05-02T15:24:07.394Z</time></trkpt><trkpt lat="46.460445" lon="12.4164967"><ele>771.8</ele><time>2026-05-02T15:24:08.394Z</time></trkpt><trkpt lat="46.4603583" lon="12.4164083"><ele>772.0</ele><time>2026-05-02T15:24:09.394Z</time></trkpt><trkpt lat="46.4602817" lon="12.4163033"><ele>772.4000000000001</ele><time>2026-05-02T15:24:10.394Z</time></trkpt><trkpt lat="46.4602133" lon="12.416185"><ele>772.8000000000001</ele><time>2026-05-02T15:24:11.394Z</time></trkpt><trkpt lat="46.46016" lon="12.4160467"><ele>773.2</ele><time>2026-05-02T15:24:12.393Z</time></trkpt><trkpt lat="46.4601033" lon="12.4159133"><ele>773.6</ele><time>2026-05-02T15:24:13.394Z</time></trkpt><trkpt lat="46.460055" lon="12.4157733"><ele>774.0</ele><time>2026-05-02T15:24:14.393Z</time></trkpt><trkpt lat="46.4600017" lon="12.4156417"><ele>774.0</ele><time>2026-05-02T15:24:15.394Z</time></trkpt><trkpt lat="46.4599517" lon="12.4154983"><ele>774.0</ele><time>2026-05-02T15:24:16.394Z</time></trkpt><trkpt lat="46.4598883" lon="12.4153467"><ele>774.0</ele><time>2026-05-02T15:24:17.394Z</time></trkpt><trkpt lat="46.4598267" lon="12.4151917"><ele>774.0</ele><time>2026-05-02T15:24:18.394Z</time></trkpt><trkpt lat="46.45977" lon="12.4150383"><ele>773.75</ele><time>2026-05-02T15:24:19.394Z</time></trkpt><trkpt lat="46.459705" lon="12.4148867"><ele>773.5</ele><time>2026-05-02T15:24:20.394Z</time></trkpt><trkpt lat="46.459645" lon="12.4147117"><ele>773.25</ele><time>2026-05-02T15:24:21.394Z</time></trkpt><trkpt lat="46.4595917" lon="12.4145283"><ele>773.0</ele><time>2026-05-02T15:24:22.394Z</time></trkpt><trkpt lat="46.4595317" lon="12.4143517"><ele>771.5</ele><time>2026-05-02T15:24:23.394Z</time></trkpt><trkpt lat="46.4594767" lon="12.4141833"><ele>770.0</ele><time>2026-05-02T15:24:24.394Z</time></trkpt><trkpt lat="46.45942" lon="12.4140217"><ele>768.5</ele><time>2026-05-02T15:24:25.394Z</time></trkpt><trkpt lat="46.4593683" lon="12.4138683"><ele>767.0</ele><time>2026-05-02T15:24:26.394Z</time></trkpt><trkpt lat="46.4593183" lon="12.4137083"><ele>766.75</ele><time>2026-05-02T15:24:27.394Z</time></trkpt><trkpt lat="46.4592683" lon="12.413545"><ele>766.5</ele><time>2026-05-02T15:24:28.394Z</time></trkpt><trkpt lat="46.45924" lon="12.4133567"><ele>766.25</ele><time>2026-05-02T15:24:29.393Z</time></trkpt><trkpt lat="46.4592267" lon="12.4131633"><ele>766.0</ele><time>2026-05-02T15:24:30.393Z</time></trkpt><trkpt lat="46.45921" lon="12.412975"><ele>766.75</ele><time>2026-05-02T15:24:31.394Z</time></trkpt><trkpt lat="46.4592017" lon="12.41279"><ele>767.5</ele><time>2026-05-02T15:24:32.394Z</time></trkpt><trkpt lat="46.4591917" lon="12.4126067"><ele>768.25</ele><time>2026-05-02T15:24:33.394Z</time></trkpt><trkpt lat="46.4591517" lon="12.41244"><ele>769.0</ele><time>2026-05-02T15:24:34.394Z</time></trkpt><trkpt lat="46.4590883" lon="12.412275"><ele>769.25</ele><time>2026-05-02T15:24:35.394Z</time></trkpt><trkpt lat="46.45902" lon="12.4121217"><ele>769.5</ele><time>2026-05-02T15:24:36.394Z</time></trkpt><trkpt lat="46.4589517" lon="12.4119733"><ele>769.75</ele><time>2026-05-02T15:24:37.393Z</time></trkpt><trkpt lat="46.4588817" lon="12.411835"><ele>770.0</ele><time>2026-05-02T15:24:38.394Z</time></trkpt><trkpt lat="46.4588133" lon="12.4117017"><ele>767.75</ele><time>2026-05-02T15:24:39.394Z</time></trkpt><trkpt lat="46.4587433" lon="12.4115667"><ele>765.5</ele><time>2026-05-02T15:24:40.394Z</time></trkpt><trkpt lat="46.4586667" lon="12.4114417"><ele>763.25</ele><time>2026-05-02T15:24:41.394Z</time></trkpt><trkpt lat="46.4585617" lon="12.4113183"><ele>761.0</ele><time>2026-05-02T15:24:42.393Z</time></trkpt><trkpt lat="46.4584483" lon="12.4111867"><ele>761.0</ele><time>2026-05-02T15:24:43.393Z</time></trkpt><trkpt lat="46.45837" lon="12.4110433"><ele>761.0</ele><time>2026-05-02T15:24:44.394Z</time></trkpt><trkpt lat="46.4582917" lon="12.4108917"><ele>761.0</ele><time>2026-05-02T15:24:45.394Z</time></trkpt><trkpt lat="46.4582067" lon="12.41073"><ele>761.0</ele><time>2026-05-02T15:24:46.394Z</time></trkpt><trkpt lat="46.45812" lon="12.4105667"><ele>761.75</ele><time>2026-05-02T15:24:47.394Z</time></trkpt><trkpt lat="46.4580333" lon="12.4104183"><ele>762.5</ele><time>2026-05-02T15:24:48.394Z</time></trkpt><trkpt lat="46.4579517" lon="12.4102567"><ele>763.25</ele><time>2026-05-02T15:24:49.394Z</time></trkpt><trkpt lat="46.4578633" lon="12.4100883"><ele>764.0</ele><time>2026-05-02T15:24:50.394Z</time></trkpt><trkpt lat="46.45777" lon="12.4099183"><ele>762.3333333333333</ele><time>2026-05-02T15:24:51.394Z</time></trkpt><trkpt lat="46.45767" lon="12.4097417"><ele>760.6666666666666</ele><time>2026-05-02T15:24:52.393Z</time></trkpt><trkpt lat="46.45756" lon="12.40958"><ele>759.0</ele><time>2026-05-02T15:24:53.394Z</time></trkpt><trkpt lat="46.45744" lon="12.40942"><ele>759.0</ele><time>2026-05-02T15:24:54.394Z</time></trkpt><trkpt lat="46.4573283" lon="12.4092683"><ele>759.0</ele><time>2026-05-02T15:24:55.393Z</time></trkpt><trkpt lat="46.45722" lon="12.4091317"><ele>759.0</ele><time>2026-05-02T15:24:56.394Z</time></trkpt><trkpt lat="46.4571183" lon="12.409015"><ele>759.0</ele><time>2026-05-02T15:24:57.393Z</time></trkpt><trkpt lat="46.4570183" lon="12.408905"><ele>759.0</ele><time>2026-05-02T15:24:58.394Z</time></trkpt><trkpt lat="46.4569217" lon="12.4088017"><ele>759.0</ele><time>2026-05-02T15:24:59.394Z</time></trkpt><trkpt lat="46.45682" lon="12.4087017"><ele>759.0</ele><time>2026-05-02T15:25:00.393Z</time></trkpt><trkpt lat="46.456715" lon="12.40859"><ele>759.0</ele><time>2026-05-02T15:25:01.394Z</time></trkpt><trkpt lat="46.4566267" lon="12.40846"><ele>759.0</ele><time>2026-05-02T15:25:02.394Z</time></trkpt><trkpt lat="46.4565267" lon="12.4083433"><ele>759.0</ele><time>2026-05-02T15:25:03.394Z</time></trkpt><trkpt lat="46.4564483" lon="12.4082417"><ele>759.0</ele><time>2026-05-02T15:25:04.394Z</time></trkpt><trkpt lat="46.456355" lon="12.4081483"><ele>759.0</ele><time>2026-05-02T15:25:05.394Z</time></trkpt><trkpt lat="46.4562683" lon="12.4080583"><ele>757.75</ele><time>2026-05-02T15:25:06.394Z</time></trkpt><trkpt lat="46.4561733" lon="12.4079567"><ele>756.5</ele><time>2026-05-02T15:25:07.394Z</time></trkpt><trkpt lat="46.4560833" lon="12.407835"><ele>755.25</ele><time>2026-05-02T15:25:08.394Z</time></trkpt><trkpt lat="46.4559883" lon="12.4076983"><ele>754.0</ele><time>2026-05-02T15:25:09.394Z</time></trkpt><trkpt lat="46.4559" lon="12.40755"><ele>754.0</ele><time>2026-05-02T15:25:10.394Z</time></trkpt><trkpt lat="46.4558117" lon="12.4074033"><ele>754.0</ele><time>2026-05-02T15:25:11.393Z</time></trkpt><trkpt lat="46.45572" lon="12.4072733"><ele>754.0</ele><time>2026-05-02T15:25:12.393Z</time></trkpt><trkpt lat="46.4556267" lon="12.407125"><ele>754.0</ele><time>2026-05-02T15:25:13.393Z</time></trkpt><trkpt lat="46.4555317" lon="12.4069717"><ele>752.6666666666667</ele><time>2026-05-02T15:25:14.393Z</time></trkpt><trkpt lat="46.4554367" lon="12.4067983"><ele>751.3333333333334</ele><time>2026-05-02T15:25:15.394Z</time></trkpt><trkpt lat="46.45535" lon="12.4066183"><ele>750.0</ele><time>2026-05-02T15:25:16.394Z</time></trkpt><trkpt lat="46.4552617" lon="12.4064333"><ele>751.6666666666666</ele><time>2026-05-02T15:25:17.394Z</time></trkpt><trkpt lat="46.4551833" lon="12.4062217"><ele>753.3333333333333</ele><time>2026-05-02T15:25:18.394Z</time></trkpt><trkpt lat="46.4551" lon="12.40602"><ele>755.0</ele><time>2026-05-02T15:25:19.394Z</time></trkpt><trkpt lat="46.4549983" lon="12.4058283"><ele>755.0</ele><time>2026-05-02T15:25:20.393Z</time></trkpt><trkpt lat="46.4548967" lon="12.4056367"><ele>755.0</ele><time>2026-05-02T15:25:21.393Z</time></trkpt><trkpt lat="46.4547583" lon="12.4054617"><ele>755.0</ele><time>2026-05-02T15:25:22.394Z</time></trkpt><trkpt lat="46.454605" lon="12.4053083"><ele>756.6666666666666</ele><time>2026-05-02T15:25:23.394Z</time></trkpt><trkpt lat="46.4544467" lon="12.4051883"><ele>758.3333333333334</ele><time>2026-05-02T15:25:24.393Z</time></trkpt><trkpt lat="46.4542767" lon="12.4050783"><ele>760.0</ele><time>2026-05-02T15:25:25.394Z</time></trkpt><trkpt lat="46.4541217" lon="12.4049733"><ele>760.0</ele><time>2026-05-02T15:25:26.394Z</time></trkpt><trkpt lat="46.4539767" lon="12.404875"><ele>760.0</ele><time>2026-05-02T15:25:27.394Z</time></trkpt><trkpt lat="46.4538383" lon="12.4047567"><ele>760.0</ele><time>2026-05-02T15:25:28.394Z</time></trkpt><trkpt lat="46.4537133" lon="12.4046267"><ele>760.0</ele><time>2026-05-02T15:25:29.394Z</time></trkpt><trkpt lat="46.45359" lon="12.4044867"><ele>760.0</ele><time>2026-05-02T15:25:30.393Z</time></trkpt><trkpt lat="46.4534817" lon="12.4043433"><ele>760.0</ele><time>2026-05-02T15:25:31.394Z</time></trkpt><trkpt lat="46.453395" lon="12.404195"><ele>760.0</ele><time>2026-05-02T15:25:32.394Z</time></trkpt><trkpt lat="46.4533233" lon="12.4040383"><ele>760.0</ele><time>2026-05-02T15:25:33.394Z</time></trkpt><trkpt lat="46.4532617" lon="12.4038733"><ele>760.0</ele><time>2026-05-02T15:25:34.394Z</time></trkpt><trkpt lat="46.4532183" lon="12.4036883"><ele>760.0</ele><time>2026-05-02T15:25:35.394Z</time></trkpt><trkpt lat="46.4531883" lon="12.4035033"><ele>760.0</ele><time>2026-05-02T15:25:36.394Z</time></trkpt><trkpt lat="46.45317" lon="12.4033233"><ele>760.25</ele><time>2026-05-02T15:25:37.394Z</time></trkpt><trkpt lat="46.4531617" lon="12.4031333"><ele>760.5</ele><time>2026-05-02T15:25:38.394Z</time></trkpt><trkpt lat="46.4531617" lon="12.402935"><ele>760.75</ele><time>2026-05-02T15:25:39.394Z</time></trkpt><trkpt lat="46.4531783" lon="12.4027417"><ele>761.0</ele><time>2026-05-02T15:25:40.393Z</time></trkpt><trkpt lat="46.4532083" lon="12.402545"><ele>760.0</ele><time>2026-05-02T15:25:41.394Z</time></trkpt><trkpt lat="46.4532317" lon="12.4023483"><ele>759.0</ele><time>2026-05-02T15:25:42.393Z</time></trkpt><trkpt lat="46.4532483" lon="12.40216"><ele>758.0</ele><time>2026-05-02T15:25:43.393Z</time></trkpt><trkpt lat="46.4532667" lon="12.4019783"><ele>757.0</ele><time>2026-05-02T15:25:44.393Z</time></trkpt><trkpt lat="46.4532733" lon="12.4017983"><ele>756.75</ele><time>2026-05-02T15:25:45.394Z</time></trkpt><trkpt lat="46.4532633" lon="12.4016033"><ele>756.5</ele><time>2026-05-02T15:25:46.394Z</time></trkpt><trkpt lat="46.4532367" lon="12.4014033"><ele>756.25</ele><time>2026-05-02T15:25:47.394Z</time></trkpt><trkpt lat="46.4532033" lon="12.401205"><ele>756.0</ele><time>2026-05-02T15:25:48.393Z</time></trkpt><trkpt lat="46.4531783" lon="12.4010067"><ele>756.0</ele><time>2026-05-02T15:25:49.393Z</time></trkpt><trkpt lat="46.453175" lon="12.4007983"><ele>756.0</ele><time>2026-05-02T15:25:50.394Z</time></trkpt><trkpt lat="46.453185" lon="12.4005983"><ele>756.0</ele><time>2026-05-02T15:25:51.394Z</time></trkpt><trkpt lat="46.453195" lon="12.4004017"><ele>756.0</ele><time>2026-05-02T15:25:52.394Z</time></trkpt><trkpt lat="46.4532017" lon="12.400215"><ele>755.75</ele><time>2026-05-02T15:25:53.394Z</time></trkpt><trkpt lat="46.453205" lon="12.4000283"><ele>755.5</ele><time>2026-05-02T15:25:54.394Z</time></trkpt><trkpt lat="46.45317" lon="12.3998417"><ele>755.25</ele><time>2026-05-02T15:25:55.393Z</time></trkpt><trkpt lat="46.453115" lon="12.3996683"><ele>755.0</ele><time>2026-05-02T15:25:56.394Z</time></trkpt><trkpt lat="46.4530467" lon="12.3994967"><ele>754.5</ele><time>2026-05-02T15:25:57.394Z</time></trkpt><trkpt lat="46.4529733" lon="12.3993383"><ele>754.0</ele><time>2026-05-02T15:25:58.394Z</time></trkpt><trkpt lat="46.4528917" lon="12.3991967"><ele>753.5</ele><time>2026-05-02T15:25:59.394Z</time></trkpt><trkpt lat="46.4528" lon="12.39908"><ele>753.0</ele><time>2026-05-02T15:26:00.394Z</time></trkpt><trkpt lat="46.4527" lon="12.3990017"><ele>751.2</ele><time>2026-05-02T15:26:01.394Z</time></trkpt><trkpt lat="46.452605" lon="12.3989683"><ele>749.4</ele><time>2026-05-02T15:26:02.393Z</time></trkpt><trkpt lat="46.4525083" lon="12.3989917"><ele>747.6</ele><time>2026-05-02T15:26:03.394Z</time></trkpt><trkpt lat="46.4524083" lon="12.3990617"><ele>745.8000000000001</ele><time>2026-05-02T15:26:04.394Z</time></trkpt><trkpt lat="46.4522933" lon="12.3991383"><ele>744.0</ele><time>2026-05-02T15:26:05.393Z</time></trkpt><trkpt lat="46.4521717" lon="12.3991933"><ele>742.75</ele><time>2026-05-02T15:26:06.394Z</time></trkpt><trkpt lat="46.4520333" lon="12.3991933"><ele>741.5</ele><time>2026-05-02T15:26:07.393Z</time></trkpt><trkpt lat="46.4519" lon="12.3991417"><ele>740.25</ele><time>2026-05-02T15:26:08.393Z</time></trkpt><trkpt lat="46.4517717" lon="12.3990583"><ele>739.0</ele><time>2026-05-02T15:26:09.394Z</time></trkpt><trkpt lat="46.4516417" lon="12.3989583"><ele>739.0</ele><time>2026-05-02T15:26:10.394Z</time></trkpt><trkpt lat="46.4515183" lon="12.3988767"><ele>739.0</ele><time>2026-05-02T15:26:11.394Z</time></trkpt><trkpt lat="46.4514117" lon="12.3987633"><ele>739.0</ele><time>2026-05-02T15:26:12.394Z</time></trkpt><trkpt lat="46.451315" lon="12.3986433"><ele>739.0</ele><time>2026-05-02T15:26:13.394Z</time></trkpt><trkpt lat="46.451235" lon="12.3984967"><ele>737.75</ele><time>2026-05-02T15:26:14.394Z</time></trkpt><trkpt lat="46.4511533" lon="12.3983467"><ele>736.5</ele><time>2026-05-02T15:26:15.393Z</time></trkpt><trkpt lat="46.45107" lon="12.3981867"><ele>735.25</ele><time>2026-05-02T15:26:16.394Z</time></trkpt><trkpt lat="46.4509767" lon="12.39804"><ele>734.0</ele><time>2026-05-02T15:26:17.394Z</time></trkpt><trkpt lat="46.4508683" lon="12.3978967"><ele>735.5</ele><time>2026-05-02T15:26:18.394Z</time></trkpt><trkpt lat="46.4507433" lon="12.3977733"><ele>737.0</ele><time>2026-05-02T15:26:19.394Z</time></trkpt><trkpt lat="46.450615" lon="12.3976717"><ele>738.5</ele><time>2026-05-02T15:26:20.394Z</time></trkpt><trkpt lat="46.45048" lon="12.3975883"><ele>740.0</ele><time>2026-05-02T15:26:21.394Z</time></trkpt><trkpt lat="46.4503433" lon="12.3975083"><ele>740.0</ele><time>2026-05-02T15:26:22.394Z</time></trkpt><trkpt lat="46.4502017" lon="12.397435"><ele>740.0</ele><time>2026-05-02T15:26:23.394Z</time></trkpt><trkpt lat="46.4500583" lon="12.3973517"><ele>740.0</ele><time>2026-05-02T15:26:24.394Z</time></trkpt><trkpt lat="46.4499217" lon="12.3972583"><ele>741.5</ele><time>2026-05-02T15:26:25.393Z</time></trkpt><trkpt lat="46.4497933" lon="12.3971567"><ele>743.0</ele><time>2026-05-02T15:26:26.394Z</time></trkpt><trkpt lat="46.4496633" lon="12.3970567"><ele>744.5</ele><time>2026-05-02T15:26:27.393Z</time></trkpt><trkpt lat="46.4495317" lon="12.3969533"><ele>746.0</ele><time>2026-05-02T15:26:28.394Z</time></trkpt><trkpt lat="46.4494067" lon="12.39684"><ele>746.0</ele><time>2026-05-02T15:26:29.394Z</time></trkpt><trkpt lat="46.4492983" lon="12.3967017"><ele>746.0</ele><time>2026-05-02T15:26:30.393Z</time></trkpt><trkpt lat="46.4492033" lon="12.3965617"><ele>746.0</ele><time>2026-05-02T15:26:31.394Z</time></trkpt><trkpt lat="46.44912" lon="12.39641"><ele>746.0</ele><time>2026-05-02T15:26:32.394Z</time></trkpt><trkpt lat="46.4490517" lon="12.39623"><ele>747.5</ele><time>2026-05-02T15:26:33.393Z</time></trkpt><trkpt lat="46.4489983" lon="12.3960317"><ele>749.0</ele><time>2026-05-02T15:26:34.394Z</time></trkpt><trkpt lat="46.4489533" lon="12.3958383"><ele>750.5</ele><time>2026-05-02T15:26:35.394Z</time></trkpt><trkpt lat="46.4489117" lon="12.395635"><ele>752.0</ele><time>2026-05-02T15:26:36.394Z</time></trkpt><trkpt lat="46.4488717" lon="12.3954267"><ele>751.0</ele><time>2026-05-02T15:26:37.394Z</time></trkpt><trkpt lat="46.4488317" lon="12.3952217"><ele>750.0</ele><time>2026-05-02T15:26:38.394Z</time></trkpt><trkpt lat="46.4488" lon="12.395035"><ele>749.0</ele><time>2026-05-02T15:26:39.394Z</time></trkpt><trkpt lat="46.44876" lon="12.3948517"><ele>748.0</ele><time>2026-05-02T15:26:40.394Z</time></trkpt><trkpt lat="46.4487233" lon="12.394665"><ele>748.0</ele><time>2026-05-02T15:26:41.394Z</time></trkpt><trkpt lat="46.4486967" lon="12.394475"><ele>748.0</ele><time>2026-05-02T15:26:42.394Z</time></trkpt><trkpt lat="46.4486617" lon="12.3942983"><ele>748.0</ele><time>2026-05-02T15:26:43.394Z</time></trkpt><trkpt lat="46.448625" lon="12.3941233"><ele>748.0</ele><time>2026-05-02T15:26:44.394Z</time></trkpt><trkpt lat="46.448585" lon="12.3939517"><ele>749.0</ele><time>2026-05-02T15:26:45.394Z</time></trkpt><trkpt lat="46.44855" lon="12.3937817"><ele>750.0</ele><time>2026-05-02T15:26:46.394Z</time></trkpt><trkpt lat="46.448515" lon="12.3936133"><ele>751.0</ele><time>2026-05-02T15:26:47.393Z</time></trkpt><trkpt lat="46.4484783" lon="12.3934417"><ele>752.0</ele><time>2026-05-02T15:26:48.393Z</time></trkpt><trkpt lat="46.4484483" lon="12.39327"><ele>752.0</ele><time>2026-05-02T15:26:49.394Z</time></trkpt><trkpt lat="46.4484117" lon="12.3931033"><ele>752.0</ele><time>2026-05-02T15:26:50.393Z</time></trkpt><trkpt lat="46.4483833" lon="12.392925"><ele>752.0</ele><time>2026-05-02T15:26:51.393Z</time></trkpt><trkpt lat="46.448355" lon="12.3927583"><ele>752.0</ele><time>2026-05-02T15:26:52.393Z</time></trkpt><trkpt lat="46.4483233" lon="12.3925883"><ele>753.25</ele><time>2026-05-02T15:26:53.394Z</time></trkpt><trkpt lat="46.448285" lon="12.3924083"><ele>754.5</ele><time>2026-05-02T15:26:54.393Z</time></trkpt><trkpt lat="46.448255" lon="12.392235"><ele>755.75</ele><time>2026-05-02T15:26:55.393Z</time></trkpt><trkpt lat="46.44821" lon="12.3920667"><ele>757.0</ele><time>2026-05-02T15:26:56.394Z</time></trkpt><trkpt lat="46.44818" lon="12.3918967"><ele>757.75</ele><time>2026-05-02T15:26:57.393Z</time></trkpt><trkpt lat="46.448145" lon="12.3917267"><ele>758.5</ele><time>2026-05-02T15:26:58.394Z</time></trkpt><trkpt lat="46.4481167" lon="12.39155"><ele>759.25</ele><time>2026-05-02T15:26:59.394Z</time></trkpt><trkpt lat="46.44812" lon="12.3913483"><ele>760.0</ele><time>2026-05-02T15:27:00.394Z</time></trkpt><trkpt lat="46.448135" lon="12.39114"><ele>760.25</ele><time>2026-05-02T15:27:01.394Z</time></trkpt><trkpt lat="46.4481667" lon="12.3909317"><ele>760.5</ele><time>2026-05-02T15:27:02.394Z</time></trkpt><trkpt lat="46.448195" lon="12.390725"><ele>760.75</ele><time>2026-05-02T15:27:03.394Z</time></trkpt><trkpt lat="46.448225" lon="12.3905233"><ele>761.0</ele><time>2026-05-02T15:27:04.394Z</time></trkpt><trkpt lat="46.4482583" lon="12.3903233"><ele>759.0</ele><time>2026-05-02T15:27:05.394Z</time></trkpt><trkpt lat="46.448285" lon="12.3901283"><ele>757.0</ele><time>2026-05-02T15:27:06.394Z</time></trkpt><trkpt lat="46.4483083" lon="12.38995"><ele>755.0</ele><time>2026-05-02T15:27:07.394Z</time></trkpt><trkpt lat="46.448335" lon="12.3897683"><ele>753.0</ele><time>2026-05-02T15:27:08.394Z</time></trkpt><trkpt lat="46.44837" lon="12.389585"><ele>750.5</ele><time>2026-05-02T15:27:09.393Z</time></trkpt><trkpt lat="46.44842" lon="12.38941"><ele>748.0</ele><time>2026-05-02T15:27:10.394Z</time></trkpt><trkpt lat="46.4484917" lon="12.38926"><ele>745.5</ele><time>2026-05-02T15:27:11.394Z</time></trkpt><trkpt lat="46.4485833" lon="12.3891367"><ele>743.0</ele><time>2026-05-02T15:27:12.394Z</time></trkpt><trkpt lat="46.44869" lon="12.3890367"><ele>744.5999999999999</ele><time>2026-05-02T15:27:13.394Z</time></trkpt><trkpt lat="46.448795" lon="12.388955"><ele>746.1999999999999</ele><time>2026-05-02T15:27:14.393Z</time></trkpt><trkpt lat="46.4488883" lon="12.3888617"><ele>747.8</ele><time>2026-05-02T15:27:15.394Z</time></trkpt><trkpt lat="46.4489683" lon="12.38877"><ele>749.4</ele><time>2026-05-02T15:27:16.394Z</time></trkpt><trkpt lat="46.4490333" lon="12.3886583"><ele>751.0</ele><time>2026-05-02T15:27:17.393Z</time></trkpt><trkpt lat="46.449085" lon="12.3885267"><ele>751.0</ele><time>2026-05-02T15:27:18.394Z</time></trkpt><trkpt lat="46.449115" lon="12.3883983"><ele>751.0</ele><time>2026-05-02T15:27:19.394Z</time></trkpt><trkpt lat="46.4491133" lon="12.3882833"><ele>751.0</ele><time>2026-05-02T15:27:20.393Z</time></trkpt><trkpt lat="46.44909" lon="12.388175"><ele>751.0</ele><time>2026-05-02T15:27:21.393Z</time></trkpt><trkpt lat="46.449055" lon="12.3880717"><ele>751.0</ele><time>2026-05-02T15:27:22.393Z</time></trkpt><trkpt lat="46.44901" lon="12.3879933"><ele>751.0</ele><time>2026-05-02T15:27:23.393Z</time></trkpt><trkpt lat="46.4489667" lon="12.3879183"><ele>750.5714285714287</ele><time>2026-05-02T15:27:24.394Z</time></trkpt><trkpt lat="46.4489233" lon="12.3878517"><ele>750.1428571428571</ele><time>2026-05-02T15:27:25.394Z</time></trkpt><trkpt lat="46.4488767" lon="12.3877867"><ele>749.7142857142858</ele><time>2026-05-02T15:27:26.394Z</time></trkpt><trkpt lat="46.4488267" lon="12.3877183"><ele>749.2857142857143</ele><time>2026-05-02T15:27:27.393Z</time></trkpt><trkpt lat="46.4487733" lon="12.3876567"><ele>748.8571428571429</ele><time>2026-05-02T15:27:28.393Z</time></trkpt><trkpt lat="46.4487083" lon="12.38761"><ele>748.4285714285714</ele><time>2026-05-02T15:27:29.394Z</time></trkpt><trkpt lat="46.4486333" lon="12.3875617"><ele>748.0</ele><time>2026-05-02T15:27:30.394Z</time></trkpt><trkpt lat="46.4485483" lon="12.3875233"><ele>748.0</ele><time>2026-05-02T15:27:31.394Z</time></trkpt><trkpt lat="46.4484617" lon="12.3874983"><ele>748.0</ele><time>2026-05-02T15:27:32.394Z</time></trkpt><trkpt lat="46.4483767" lon="12.3874983"><ele>748.0</ele><time>2026-05-02T15:27:33.394Z</time></trkpt><trkpt lat="46.4482783" lon="12.3875183"><ele>748.0</ele><time>2026-05-02T15:27:34.394Z</time></trkpt><trkpt lat="46.448175" lon="12.3875683"><ele>748.0</ele><time>2026-05-02T15:27:35.393Z</time></trkpt><trkpt lat="46.4480733" lon="12.3876167"><ele>748.0</ele><time>2026-05-02T15:27:36.394Z</time></trkpt><trkpt lat="46.4479717" lon="12.38765"><ele>748.0</ele><time>2026-05-02T15:27:37.394Z</time></trkpt><trkpt lat="46.4478933" lon="12.3876683"><ele>748.0</ele><time>2026-05-02T15:27:38.393Z</time></trkpt><trkpt lat="46.44783" lon="12.3876733"><ele>748.0</ele><time>2026-05-02T15:27:39.394Z</time></trkpt><trkpt lat="46.4477417" lon="12.3876817"><ele>748.0</ele><time>2026-05-02T15:27:41.393Z</time></trkpt><trkpt lat="46.4476767" lon="12.387695"><ele>748.0</ele><time>2026-05-02T15:27:43.394Z</time></trkpt><trkpt lat="46.44759" lon="12.38771"><ele>749.4</ele><time>2026-05-02T15:27:46.394Z</time></trkpt><trkpt lat="46.4475133" lon="12.387715"><ele>750.8</ele><time>2026-05-02T15:27:48.394Z</time></trkpt><trkpt lat="46.44741" lon="12.38772"><ele>752.2</ele><time>2026-05-02T15:27:50.393Z</time></trkpt><trkpt lat="46.447305" lon="12.38772"><ele>753.6</ele><time>2026-05-02T15:27:52.394Z</time></trkpt><trkpt lat="46.4471933" lon="12.3877267"><ele>755.0</ele><time>2026-05-02T15:27:54.393Z</time></trkpt><trkpt lat="46.44708" lon="12.3877083"><ele>755.0</ele><time>2026-05-02T15:27:56.394Z</time></trkpt><trkpt lat="46.4470167" lon="12.3877"><ele>755.0</ele><time>2026-05-02T15:27:57.394Z</time></trkpt><trkpt lat="46.4468867" lon="12.387665"><ele>755.0</ele><time>2026-05-02T15:27:59.393Z</time></trkpt><trkpt lat="46.4468083" lon="12.3876383"><ele>755.0</ele><time>2026-05-02T15:28:00.394Z</time></trkpt><trkpt lat="46.4467233" lon="12.3875967"><ele>755.0</ele><time>2026-05-02T15:28:01.393Z</time></trkpt><trkpt lat="46.44664" lon="12.3875317"><ele>755.0</ele><time>2026-05-02T15:28:02.394Z</time></trkpt><trkpt lat="46.446555" lon="12.3874433"><ele>755.0</ele><time>2026-05-02T15:28:03.393Z</time></trkpt><trkpt lat="46.4464783" lon="12.387335"><ele>755.0</ele><time>2026-05-02T15:28:04.393Z</time></trkpt><trkpt lat="46.4464083" lon="12.3872117"><ele>755.0</ele><time>2026-05-02T15:28:05.394Z</time></trkpt><trkpt lat="46.446355" lon="12.3870617"><ele>755.0</ele><time>2026-05-02T15:28:06.393Z</time></trkpt><trkpt lat="46.4462917" lon="12.38692"><ele>755.3333333333333</ele><time>2026-05-02T15:28:07.394Z</time></trkpt><trkpt lat="46.4462283" lon="12.3867983"><ele>755.6666666666666</ele><time>2026-05-02T15:28:08.394Z</time></trkpt><trkpt lat="46.44617" lon="12.386685"><ele>756.0</ele><time>2026-05-02T15:28:09.394Z</time></trkpt><trkpt lat="46.4461283" lon="12.38658"><ele>756.3333333333334</ele><time>2026-05-02T15:28:10.393Z</time></trkpt><trkpt lat="46.4460783" lon="12.3864917"><ele>756.6666666666667</ele><time>2026-05-02T15:28:11.394Z</time></trkpt><trkpt lat="46.4460267" lon="12.3864117"><ele>757.0</ele><time>2026-05-02T15:28:12.394Z</time></trkpt><trkpt lat="46.4459817" lon="12.3863417"><ele>758.5</ele><time>2026-05-02T15:28:13.394Z</time></trkpt><trkpt lat="46.4459083" lon="12.3862633"><ele>760.0</ele><time>2026-05-02T15:28:15.394Z</time></trkpt><trkpt lat="46.4458433" lon="12.3861967"><ele>761.5</ele><time>2026-05-02T15:28:18.393Z</time></trkpt><trkpt lat="46.4457833" lon="12.3861617"><ele>763.0</ele><time>2026-05-02T15:28:21.394Z</time></trkpt><trkpt lat="46.4457183" lon="12.3861317"><ele>764.5</ele><time>2026-05-02T15:28:25.394Z</time></trkpt><trkpt lat="46.44565" lon="12.3861117"><ele>766.0</ele><time>2026-05-02T15:28:33.394Z</time></trkpt><trkpt lat="46.4455417" lon="12.3860733"><ele>766.0</ele><time>2026-05-02T15:28:35.393Z</time></trkpt><trkpt lat="46.44548" lon="12.3860517"><ele>766.0</ele><time>2026-05-02T15:28:36.394Z</time></trkpt><trkpt lat="46.4454133" lon="12.38603"><ele>766.0</ele><time>2026-05-02T15:28:37.394Z</time></trkpt><trkpt lat="46.4453383" lon="12.386005"><ele>766.0</ele><time>2026-05-02T15:28:38.394Z</time></trkpt><trkpt lat="46.4452717" lon="12.3859767"><ele>766.0</ele><time>2026-05-02T15:28:39.394Z</time></trkpt><trkpt lat="46.4452033" lon="12.3859583"><ele>766.0</ele><time>2026-05-02T15:28:40.394Z</time></trkpt><trkpt lat="46.4451033" lon="12.3859217"><ele>765.8333333333334</ele><time>2026-05-02T15:28:42.394Z</time></trkpt><trkpt lat="46.4449917" lon="12.385875"><ele>765.6666666666667</ele><time>2026-05-02T15:28:44.394Z</time></trkpt><trkpt lat="46.4449267" lon="12.3858417"><ele>765.5</ele><time>2026-05-02T15:28:45.394Z</time></trkpt><trkpt lat="46.4448583" lon="12.3858133"><ele>765.3333333333334</ele><time>2026-05-02T15:28:46.393Z</time></trkpt><trkpt lat="46.4447983" lon="12.3857767"><ele>765.1666666666666</ele><time>2026-05-02T15:28:47.393Z</time></trkpt><trkpt lat="46.4447167" lon="12.3857167"><ele>765.0</ele><time>2026-05-02T15:28:49.393Z</time></trkpt><trkpt lat="46.4446433" lon="12.3856483"><ele>765.6666666666666</ele><time>2026-05-02T15:28:51.394Z</time></trkpt><trkpt lat="46.4445333" lon="12.3855683"><ele>766.3333333333333</ele><time>2026-05-02T15:28:53.393Z</time></trkpt><trkpt lat="46.4444733" lon="12.385525"><ele>767.0</ele><time>2026-05-02T15:28:54.394Z</time></trkpt><trkpt lat="46.444405" lon="12.3854783"><ele>767.6666666666666</ele><time>2026-05-02T15:28:55.394Z</time></trkpt><trkpt lat="46.4443317" lon="12.3854217"><ele>768.3333333333333</ele><time>2026-05-02T15:28:56.393Z</time></trkpt><trkpt lat="46.4442517" lon="12.3853433"><ele>769.0</ele><time>2026-05-02T15:28:57.393Z</time></trkpt><trkpt lat="46.444175" lon="12.3852717"><ele>769.2</ele><time>2026-05-02T15:28:58.394Z</time></trkpt><trkpt lat="46.4441017" lon="12.3851883"><ele>769.4000000000001</ele><time>2026-05-02T15:28:59.393Z</time></trkpt><trkpt lat="46.44403" lon="12.3851033"><ele>769.6</ele><time>2026-05-02T15:29:00.394Z</time></trkpt><trkpt lat="46.4439583" lon="12.38501"><ele>769.8</ele><time>2026-05-02T15:29:01.394Z</time></trkpt><trkpt lat="46.4438883" lon="12.384895"><ele>770.0</ele><time>2026-05-02T15:29:02.394Z</time></trkpt><trkpt lat="46.443795" lon="12.38476"><ele>771.0</ele><time>2026-05-02T15:29:03.394Z</time></trkpt><trkpt lat="46.44368" lon="12.38461"><ele>772.0</ele><time>2026-05-02T15:29:04.394Z</time></trkpt><trkpt lat="46.4435733" lon="12.3844417"><ele>773.0</ele><time>2026-05-02T15:29:05.393Z</time></trkpt><trkpt lat="46.443465" lon="12.38428"><ele>773.0</ele><time>2026-05-02T15:29:06.394Z</time></trkpt><trkpt lat="46.4433533" lon="12.3841267"><ele>773.0</ele><time>2026-05-02T15:29:07.394Z</time></trkpt><trkpt lat="46.4432617" lon="12.38396"><ele>773.0</ele><time>2026-05-02T15:29:08.394Z</time></trkpt><trkpt lat="46.4431767" lon="12.3838133"><ele>773.0</ele><time>2026-05-02T15:29:09.394Z</time></trkpt><trkpt lat="46.443105" lon="12.3836817"><ele>772.8</ele><time>2026-05-02T15:29:10.394Z</time></trkpt><trkpt lat="46.4430467" lon="12.3835767"><ele>772.5999999999999</ele><time>2026-05-02T15:29:11.394Z</time></trkpt><trkpt lat="46.4429867" lon="12.383485"><ele>772.4000000000001</ele><time>2026-05-02T15:29:12.394Z</time></trkpt><trkpt lat="46.4429267" lon="12.3833883"><ele>772.2</ele><time>2026-05-02T15:29:13.394Z</time></trkpt><trkpt lat="46.442875" lon="12.383275"><ele>772.0</ele><time>2026-05-02T15:29:14.394Z</time></trkpt><trkpt lat="46.4428283" lon="12.3831617"><ele>772.0</ele><time>2026-05-02T15:29:15.394Z</time></trkpt><trkpt lat="46.442775" lon="12.383055"><ele>772.0</ele><time>2026-05-02T15:29:16.394Z</time></trkpt><trkpt lat="46.442725" lon="12.382935"><ele>772.0</ele><time>2026-05-02T15:29:17.394Z</time></trkpt><trkpt lat="46.442675" lon="12.38282"><ele>772.0</ele><time>2026-05-02T15:29:18.393Z</time></trkpt><trkpt lat="46.4426283" lon="12.3826917"><ele>772.0</ele><time>2026-05-02T15:29:19.393Z</time></trkpt><trkpt lat="46.4425833" lon="12.3825683"><ele>772.75</ele><time>2026-05-02T15:29:20.394Z</time></trkpt><trkpt lat="46.4425283" lon="12.382435"><ele>773.5</ele><time>2026-05-02T15:29:21.393Z</time></trkpt><trkpt lat="46.4424683" lon="12.3823"><ele>774.25</ele><time>2026-05-02T15:29:22.394Z</time></trkpt><trkpt lat="46.44238" lon="12.3821517"><ele>775.0</ele><time>2026-05-02T15:29:23.394Z</time></trkpt><trkpt lat="46.4422683" lon="12.3819867"><ele>776.3333333333333</ele><time>2026-05-02T15:29:24.393Z</time></trkpt><trkpt lat="46.4421533" lon="12.38182"><ele>777.6666666666667</ele><time>2026-05-02T15:29:25.393Z</time></trkpt><trkpt lat="46.4420433" lon="12.3816667"><ele>779.0</ele><time>2026-05-02T15:29:26.393Z</time></trkpt><trkpt lat="46.441935" lon="12.3815283"><ele>779.0</ele><time>2026-05-02T15:29:27.393Z</time></trkpt><trkpt lat="46.4418433" lon="12.381405"><ele>779.0</ele><time>2026-05-02T15:29:28.393Z</time></trkpt><trkpt lat="46.4417583" lon="12.38129"><ele>779.0</ele><time>2026-05-02T15:29:29.394Z</time></trkpt><trkpt lat="46.4416817" lon="12.3812"><ele>779.0</ele><time>2026-05-02T15:29:30.394Z</time></trkpt><trkpt lat="46.4416117" lon="12.381125"><ele>779.0</ele><time>2026-05-02T15:29:31.394Z</time></trkpt><trkpt lat="46.4415433" lon="12.3810667"><ele>779.8000000000001</ele><time>2026-05-02T15:29:32.393Z</time></trkpt><trkpt lat="46.4414683" lon="12.3810117"><ele>780.6</ele><time>2026-05-02T15:29:33.393Z</time></trkpt><trkpt lat="46.441395" lon="12.380955"><ele>781.4</ele><time>2026-05-02T15:29:34.393Z</time></trkpt><trkpt lat="46.44131" lon="12.3808917"><ele>782.2</ele><time>2026-05-02T15:29:35.393Z</time></trkpt><trkpt lat="46.441215" lon="12.380825"><ele>783.0</ele><time>2026-05-02T15:29:36.393Z</time></trkpt><trkpt lat="46.4411033" lon="12.38077"><ele>783.0</ele><time>2026-05-02T15:29:37.394Z</time></trkpt><trkpt lat="46.4409917" lon="12.3807133"><ele>783.0</ele><time>2026-05-02T15:29:38.394Z</time></trkpt><trkpt lat="46.4408767" lon="12.38065"><ele>783.0</ele><time>2026-05-02T15:29:39.393Z</time></trkpt><trkpt lat="46.4407567" lon="12.3805867"><ele>783.0</ele><time>2026-05-02T15:29:40.394Z</time></trkpt><trkpt lat="46.440635" lon="12.3804967"><ele>787.75</ele><time>2026-05-02T15:29:41.393Z</time></trkpt><trkpt lat="46.4405167" lon="12.3804267"><ele>792.5</ele><time>2026-05-02T15:29:42.394Z</time></trkpt><trkpt lat="46.440395" lon="12.3803717"><ele>797.25</ele><time>2026-05-02T15:29:43.394Z</time></trkpt><trkpt lat="46.440285" lon="12.3803267"><ele>802.0</ele><time>2026-05-02T15:29:44.394Z</time></trkpt><trkpt lat="46.44018" lon="12.3802867"><ele>802.0</ele><time>2026-05-02T15:29:45.394Z</time></trkpt><trkpt lat="46.440075" lon="12.38024"><ele>802.0</ele><time>2026-05-02T15:29:46.394Z</time></trkpt><trkpt lat="46.43996" lon="12.3801917"><ele>802.0</ele><time>2026-05-02T15:29:47.394Z</time></trkpt><trkpt lat="46.439845" lon="12.380115"><ele>802.0</ele><time>2026-05-02T15:29:48.394Z</time></trkpt><trkpt lat="46.4397033" lon="12.380075"><ele>803.5</ele><time>2026-05-02T15:29:49.393Z</time></trkpt><trkpt lat="46.4395583" lon="12.3800633"><ele>805.0</ele><time>2026-05-02T15:29:50.394Z</time></trkpt><trkpt lat="46.4394117" lon="12.380075"><ele>806.5</ele><time>2026-05-02T15:29:51.394Z</time></trkpt><trkpt lat="46.4392583" lon="12.3800967"><ele>808.0</ele><time>2026-05-02T15:29:52.394Z</time></trkpt><trkpt lat="46.4391033" lon="12.38012"><ele>808.0</ele><time>2026-05-02T15:29:53.394Z</time></trkpt><trkpt lat="46.438945" lon="12.3801317"><ele>808.0</ele><time>2026-05-02T15:29:54.394Z</time></trkpt><trkpt lat="46.4387983" lon="12.3801483"><ele>808.0</ele><time>2026-05-02T15:29:55.394Z</time></trkpt><trkpt lat="46.4386633" lon="12.38016"><ele>808.0</ele><time>2026-05-02T15:29:56.394Z</time></trkpt><trkpt lat="46.4385283" lon="12.3801667"><ele>808.75</ele><time>2026-05-02T15:29:57.394Z</time></trkpt><trkpt lat="46.43841" lon="12.380175"><ele>809.5</ele><time>2026-05-02T15:29:58.394Z</time></trkpt><trkpt lat="46.4382917" lon="12.3801633"><ele>810.25</ele><time>2026-05-02T15:29:59.394Z</time></trkpt><trkpt lat="46.4381767" lon="12.380145"><ele>811.0</ele><time>2026-05-02T15:30:00.394Z</time></trkpt><trkpt lat="46.4380567" lon="12.3801017"><ele>811.25</ele><time>2026-05-02T15:30:01.394Z</time></trkpt><trkpt lat="46.4379383" lon="12.380065"><ele>811.5</ele><time>2026-05-02T15:30:02.394Z</time></trkpt><trkpt lat="46.4378267" lon="12.3800083"><ele>811.75</ele><time>2026-05-02T15:30:03.393Z</time></trkpt><trkpt lat="46.4377133" lon="12.3799617"><ele>812.0</ele><time>2026-05-02T15:30:04.394Z</time></trkpt><trkpt lat="46.4376033" lon="12.3799117"><ele>812.0</ele><time>2026-05-02T15:30:05.394Z</time></trkpt><trkpt lat="46.4374967" lon="12.3798617"><ele>812.0</ele><time>2026-05-02T15:30:06.393Z</time></trkpt><trkpt lat="46.4373867" lon="12.3798133"><ele>812.0</ele><time>2026-05-02T15:30:07.394Z</time></trkpt><trkpt lat="46.4372717" lon="12.3797683"><ele>812.0</ele><time>2026-05-02T15:30:08.394Z</time></trkpt><trkpt lat="46.43716" lon="12.3797317"><ele>811.4000000000001</ele><time>2026-05-02T15:30:09.394Z</time></trkpt><trkpt lat="46.43705" lon="12.379705"><ele>810.8000000000001</ele><time>2026-05-02T15:30:10.394Z</time></trkpt><trkpt lat="46.4369467" lon="12.3796717"><ele>810.2</ele><time>2026-05-02T15:30:11.394Z</time></trkpt><trkpt lat="46.43685" lon="12.3796433"><ele>809.6</ele><time>2026-05-02T15:30:12.394Z</time></trkpt><trkpt lat="46.436765" lon="12.3796183"><ele>809.0</ele><time>2026-05-02T15:30:13.394Z</time></trkpt><trkpt lat="46.4366833" lon="12.3795883"><ele>811.0000000000001</ele><time>2026-05-02T15:30:14.394Z</time></trkpt><trkpt lat="46.4366067" lon="12.3795417"><ele>813.0</ele><time>2026-05-02T15:30:15.394Z</time></trkpt><trkpt lat="46.4365283" lon="12.37949"><ele>815.0</ele><time>2026-05-02T15:30:16.394Z</time></trkpt><trkpt lat="46.43646" lon="12.37942"><ele>817.0</ele><time>2026-05-02T15:30:17.394Z</time></trkpt><trkpt lat="46.436405" lon="12.3793317"><ele>819.0000000000001</ele><time>2026-05-02T15:30:18.394Z</time></trkpt><trkpt lat="46.43636" lon="12.3792417"><ele>821.0</ele><time>2026-05-02T15:30:19.394Z</time></trkpt><trkpt lat="46.4363183" lon="12.3791467"><ele>820.6666666666667</ele><time>2026-05-02T15:30:20.394Z</time></trkpt><trkpt lat="46.4362867" lon="12.3790633"><ele>820.3333333333334</ele><time>2026-05-02T15:30:21.394Z</time></trkpt><trkpt lat="46.4362" lon="12.3789417"><ele>820.0</ele><time>2026-05-02T15:30:23.394Z</time></trkpt><trkpt lat="46.436135" lon="12.37892"><ele>819.6666666666667</ele><time>2026-05-02T15:30:24.394Z</time></trkpt><trkpt lat="46.4360533" lon="12.3789133"><ele>819.3333333333334</ele><time>2026-05-02T15:30:25.393Z</time></trkpt><trkpt lat="46.43596" lon="12.3788783"><ele>819.0</ele><time>2026-05-02T15:30:26.394Z</time></trkpt><trkpt lat="46.4358567" lon="12.37881"><ele>819.0</ele><time>2026-05-02T15:30:27.394Z</time></trkpt><trkpt lat="46.435745" lon="12.3787117"><ele>819.0</ele><time>2026-05-02T15:30:28.394Z</time></trkpt><trkpt lat="46.4356217" lon="12.3786233"><ele>819.0</ele><time>2026-05-02T15:30:29.393Z</time></trkpt><trkpt lat="46.4354767" lon="12.37854"><ele>819.0</ele><time>2026-05-02T15:30:30.394Z</time></trkpt><trkpt lat="46.43531" lon="12.3784867"><ele>821.6666666666667</ele><time>2026-05-02T15:30:31.394Z</time></trkpt><trkpt lat="46.4351317" lon="12.3784683"><ele>824.3333333333334</ele><time>2026-05-02T15:30:32.394Z</time></trkpt><trkpt lat="46.4349567" lon="12.3784867"><ele>827.0</ele><time>2026-05-02T15:30:33.394Z</time></trkpt><trkpt lat="46.4347883" lon="12.3785483"><ele>830.0</ele><time>2026-05-02T15:30:34.394Z</time></trkpt><trkpt lat="46.4346283" lon="12.3786383"><ele>833.0</ele><time>2026-05-02T15:30:35.393Z</time></trkpt><trkpt lat="46.4344717" lon="12.3787433"><ele>836.0</ele><time>2026-05-02T15:30:36.393Z</time></trkpt><trkpt lat="46.4343233" lon="12.378855"><ele>828.6666666666667</ele><time>2026-05-02T15:30:37.394Z</time></trkpt><trkpt lat="46.4341733" lon="12.3789733"><ele>821.3333333333333</ele><time>2026-05-02T15:30:38.394Z</time></trkpt><trkpt lat="46.434025" lon="12.3790833"><ele>814.0</ele><time>2026-05-02T15:30:39.394Z</time></trkpt><trkpt lat="46.4338867" lon="12.3791767"><ele>819.0</ele><time>2026-05-02T15:30:40.394Z</time></trkpt><trkpt lat="46.43374" lon="12.3792533"><ele>824.0</ele><time>2026-05-02T15:30:41.393Z</time></trkpt><trkpt lat="46.4335983" lon="12.37932"><ele>829.0</ele><time>2026-05-02T15:30:42.394Z</time></trkpt><trkpt lat="46.433455" lon="12.3793767"><ele>829.0</ele><time>2026-05-02T15:30:43.394Z</time></trkpt><trkpt lat="46.433305" lon="12.3794267"><ele>829.0</ele><time>2026-05-02T15:30:44.394Z</time></trkpt><trkpt lat="46.4331467" lon="12.37948"><ele>829.0</ele><time>2026-05-02T15:30:45.394Z</time></trkpt><trkpt lat="46.432985" lon="12.3795283"><ele>833.0</ele><time>2026-05-02T15:30:46.393Z</time></trkpt><trkpt lat="46.4328117" lon="12.37957"><ele>837.0</ele><time>2026-05-02T15:30:47.394Z</time></trkpt><trkpt lat="46.432635" lon="12.37961"><ele>841.0</ele><time>2026-05-02T15:30:48.393Z</time></trkpt><trkpt lat="46.4324617" lon="12.3796383"><ele>841.0</ele><time>2026-05-02T15:30:49.394Z</time></trkpt><trkpt lat="46.4322767" lon="12.37966"><ele>841.0</ele><time>2026-05-02T15:30:50.394Z</time></trkpt><trkpt lat="46.43209" lon="12.379665"><ele>841.0</ele><time>2026-05-02T15:30:51.394Z</time></trkpt><trkpt lat="46.43191" lon="12.3796633"><ele>842.3333333333333</ele><time>2026-05-02T15:30:52.394Z</time></trkpt><trkpt lat="46.4317233" lon="12.3796183"><ele>843.6666666666667</ele><time>2026-05-02T15:30:53.394Z</time></trkpt><trkpt lat="46.43154" lon="12.3795883"><ele>845.0</ele><time>2026-05-02T15:30:54.393Z</time></trkpt><trkpt lat="46.4313617" lon="12.37955"><ele>840.3333333333334</ele><time>2026-05-02T15:30:55.394Z</time></trkpt><trkpt lat="46.4311933" lon="12.3795133"><ele>835.6666666666667</ele><time>2026-05-02T15:30:56.394Z</time></trkpt><trkpt lat="46.43103" lon="12.3794867"><ele>831.0</ele><time>2026-05-02T15:30:57.394Z</time></trkpt><trkpt lat="46.430865" lon="12.379455"><ele>831.0</ele><time>2026-05-02T15:30:58.394Z</time></trkpt><trkpt lat="46.4307067" lon="12.379425"><ele>831.0</ele><time>2026-05-02T15:30:59.394Z</time></trkpt><trkpt lat="46.4305467" lon="12.37938"><ele>831.0</ele><time>2026-05-02T15:31:00.393Z</time></trkpt><trkpt lat="46.4303883" lon="12.3793233"><ele>832.0</ele><time>2026-05-02T15:31:01.394Z</time></trkpt><trkpt lat="46.430235" lon="12.3792617"><ele>833.0</ele><time>2026-05-02T15:31:02.393Z</time></trkpt><trkpt lat="46.430085" lon="12.3792017"><ele>834.0</ele><time>2026-05-02T15:31:03.394Z</time></trkpt><trkpt lat="46.4299383" lon="12.3791217"><ele>834.0</ele><time>2026-05-02T15:31:04.394Z</time></trkpt><trkpt lat="46.4297933" lon="12.3790367"><ele>834.0</ele><time>2026-05-02T15:31:05.394Z</time></trkpt><trkpt lat="46.4296533" lon="12.3789533"><ele>834.0</ele><time>2026-05-02T15:31:06.393Z</time></trkpt><trkpt lat="46.4295083" lon="12.378865"><ele>829.0</ele><time>2026-05-02T15:31:07.394Z</time></trkpt><trkpt lat="46.4293617" lon="12.3787733"><ele>824.0</ele><time>2026-05-02T15:31:08.394Z</time></trkpt><trkpt lat="46.4252545" lon="12.3705345"><ele>835.0</ele><time>2026-05-02T15:31:33.374Z</time></trkpt><trkpt lat="46.4252116" lon="12.3654739"><ele>828.0</ele><time>2026-05-02T15:31:39.854Z</time></trkpt><trkpt lat="46.42509" lon="12.3704333"><ele>828.0</ele><time>2026-05-02T15:31:47.401Z</time></trkpt><trkpt lat="46.4250567" lon="12.3701983"><ele>828.0</ele><time>2026-05-02T15:31:48.402Z</time></trkpt><trkpt lat="46.4250317" lon="12.3699617"><ele>828.0</ele><time>2026-05-02T15:31:49.401Z</time></trkpt><trkpt lat="46.4250033" lon="12.3697367"><ele>830.6666666666667</ele><time>2026-05-02T15:31:50.402Z</time></trkpt><trkpt lat="46.4249917" lon="12.369515"><ele>833.3333333333334</ele><time>2026-05-02T15:31:51.402Z</time></trkpt><trkpt lat="46.4249817" lon="12.3693"><ele>836.0</ele><time>2026-05-02T15:31:52.402Z</time></trkpt><trkpt lat="46.4249817" lon="12.3690783"><ele>836.3333333333334</ele><time>2026-05-02T15:31:53.401Z</time></trkpt><trkpt lat="46.4249833" lon="12.3688417"><ele>836.6666666666667</ele><time>2026-05-02T15:31:54.402Z</time></trkpt><trkpt lat="46.4249817" lon="12.3686033"><ele>837.0</ele><time>2026-05-02T15:31:55.402Z</time></trkpt><trkpt lat="46.42498" lon="12.3683667"><ele>835.0</ele><time>2026-05-02T15:31:56.402Z</time></trkpt><trkpt lat="46.4250762" lon="12.3655009"><ele>835.0</ele><time>2026-05-02T15:32:04.932Z</time></trkpt><trkpt lat="46.4252667" lon="12.3654933"><ele>835.0</ele><time>2026-05-02T15:32:09.406Z</time></trkpt><trkpt lat="46.4251867" lon="12.3653617"><ele>835.0</ele><time>2026-05-02T15:32:10.406Z</time></trkpt><trkpt lat="46.425105" lon="12.3652467"><ele>835.0</ele><time>2026-05-02T15:32:11.406Z</time></trkpt><trkpt lat="46.4250233" lon="12.3651533"><ele>835.0</ele><time>2026-05-02T15:32:12.406Z</time></trkpt><trkpt lat="46.4249367" lon="12.3650667"><ele>835.0</ele><time>2026-05-02T15:32:13.405Z</time></trkpt><trkpt lat="46.4248483" lon="12.364995"><ele>835.0</ele><time>2026-05-02T15:32:14.405Z</time></trkpt><trkpt lat="46.424755" lon="12.364925"><ele>835.0</ele><time>2026-05-02T15:32:15.405Z</time></trkpt><trkpt lat="46.4246533" lon="12.3648617"><ele>835.0</ele><time>2026-05-02T15:32:16.406Z</time></trkpt><trkpt lat="46.42455" lon="12.364815"><ele>832.6</ele><time>2026-05-02T15:32:17.405Z</time></trkpt><trkpt lat="46.4244433" lon="12.3647933"><ele>830.2</ele><time>2026-05-02T15:32:18.405Z</time></trkpt><trkpt lat="46.42433" lon="12.36478"><ele>827.8</ele><time>2026-05-02T15:32:19.406Z</time></trkpt><trkpt lat="46.424225" lon="12.3647817"><ele>825.4</ele><time>2026-05-02T15:32:20.405Z</time></trkpt><trkpt lat="46.42412" lon="12.3647883"><ele>823.0</ele><time>2026-05-02T15:32:21.406Z</time></trkpt><trkpt lat="46.4240183" lon="12.3648083"><ele>823.0</ele><time>2026-05-02T15:32:22.406Z</time></trkpt><trkpt lat="46.4239117" lon="12.3648417"><ele>823.0</ele><time>2026-05-02T15:32:23.406Z</time></trkpt><trkpt lat="46.42381" lon="12.3648733"><ele>823.0</ele><time>2026-05-02T15:32:24.406Z</time></trkpt><trkpt lat="46.4237117" lon="12.3649133"><ele>823.0</ele><time>2026-05-02T15:32:25.406Z</time></trkpt><trkpt lat="46.4236117" lon="12.3649567"><ele>823.0</ele><time>2026-05-02T15:32:26.406Z</time></trkpt><trkpt lat="46.423505" lon="12.3649917"><ele>822.4999999999999</ele><time>2026-05-02T15:32:27.405Z</time></trkpt><trkpt lat="46.4234183" lon="12.3650233"><ele>822.0</ele><time>2026-05-02T15:32:28.405Z</time></trkpt><trkpt lat="46.4233467" lon="12.36505"><ele>821.5</ele><time>2026-05-02T15:32:29.406Z</time></trkpt><trkpt lat="46.42326" lon="12.3650817"><ele>821.0</ele><time>2026-05-02T15:32:31.406Z</time></trkpt><trkpt lat="46.4231833" lon="12.3651"><ele>820.4999999999999</ele><time>2026-05-02T15:32:34.406Z</time></trkpt><trkpt lat="46.4231" lon="12.365135"><ele>820.0</ele><time>2026-05-02T15:32:37.405Z</time></trkpt><trkpt lat="46.4230017" lon="12.365115"><ele>822.2</ele><time>2026-05-02T15:32:40.406Z</time></trkpt><trkpt lat="46.4229133" lon="12.3650333"><ele>824.4</ele><time>2026-05-02T15:32:42.405Z</time></trkpt><trkpt lat="46.422815" lon="12.3650267"><ele>826.5999999999999</ele><time>2026-05-02T15:32:44.406Z</time></trkpt><trkpt lat="46.4227517" lon="12.3651367"><ele>828.8</ele><time>2026-05-02T15:32:46.406Z</time></trkpt><trkpt lat="46.42271" lon="12.3652867"><ele>831.0</ele><time>2026-05-02T15:32:48.406Z</time></trkpt><trkpt lat="46.4226783" lon="12.3653667"><ele>831.0</ele><time>2026-05-02T15:32:49.406Z</time></trkpt><trkpt lat="46.42264" lon="12.3654583"><ele>831.0</ele><time>2026-05-02T15:32:50.406Z</time></trkpt><trkpt lat="46.4225867" lon="12.3655433"><ele>831.0</ele><time>2026-05-02T15:32:51.406Z</time></trkpt><trkpt lat="46.4225183" lon="12.3656317"><ele>831.0</ele><time>2026-05-02T15:32:52.406Z</time></trkpt><trkpt lat="46.4224517" lon="12.36573"><ele>831.0</ele><time>2026-05-02T15:32:53.405Z</time></trkpt><trkpt lat="46.4223867" lon="12.36584"><ele>831.0</ele><time>2026-05-02T15:32:54.406Z</time></trkpt><trkpt lat="46.42232" lon="12.3659517"><ele>830.8</ele><time>2026-05-02T15:32:55.406Z</time></trkpt><trkpt lat="46.4222533" lon="12.3660633"><ele>830.5999999999999</ele><time>2026-05-02T15:32:56.406Z</time></trkpt><trkpt lat="46.4221833" lon="12.3661867"><ele>830.4</ele><time>2026-05-02T15:32:57.406Z</time></trkpt><trkpt lat="46.4221083" lon="12.366315"><ele>830.2</ele><time>2026-05-02T15:32:58.406Z</time></trkpt><trkpt lat="46.4220317" lon="12.3664467"><ele>830.0</ele><time>2026-05-02T15:32:59.405Z</time></trkpt><trkpt lat="46.4219533" lon="12.3665833"><ele>826.75</ele><time>2026-05-02T15:33:00.406Z</time></trkpt><trkpt lat="46.4218667" lon="12.36672"><ele>823.5</ele><time>2026-05-02T15:33:01.406Z</time></trkpt><trkpt lat="46.421775" lon="12.3668467"><ele>820.25</ele><time>2026-05-02T15:33:02.406Z</time></trkpt><trkpt lat="46.42168" lon="12.36696"><ele>817.0</ele><time>2026-05-02T15:33:03.406Z</time></trkpt><trkpt lat="46.4215767" lon="12.367055"><ele>817.0</ele><time>2026-05-02T15:33:04.405Z</time></trkpt><trkpt lat="46.421465" lon="12.367135"><ele>817.0</ele><time>2026-05-02T15:33:05.406Z</time></trkpt><trkpt lat="46.4213483" lon="12.367195"><ele>817.0</ele><time>2026-05-02T15:33:06.406Z</time></trkpt><trkpt lat="46.42124" lon="12.3672367"><ele>817.0</ele><time>2026-05-02T15:33:07.406Z</time></trkpt><trkpt lat="46.4211183" lon="12.3672517"><ele>817.0</ele><time>2026-05-02T15:33:08.405Z</time></trkpt><trkpt lat="46.4209933" lon="12.3672333"><ele>817.0</ele><time>2026-05-02T15:33:09.405Z</time></trkpt><trkpt lat="46.4208833" lon="12.3672"><ele>817.0</ele><time>2026-05-02T15:33:10.406Z</time></trkpt><trkpt lat="46.4207883" lon="12.36716"><ele>817.0</ele><time>2026-05-02T15:33:11.406Z</time></trkpt><trkpt lat="46.4207133" lon="12.3671067"><ele>817.0</ele><time>2026-05-02T15:33:12.406Z</time></trkpt><trkpt lat="46.4206517" lon="12.36705"><ele>816.9999999999999</ele><time>2026-05-02T15:33:13.406Z</time></trkpt><trkpt lat="46.420595" lon="12.3669717"><ele>817.0</ele><time>2026-05-02T15:33:14.406Z</time></trkpt><trkpt lat="46.4205467" lon="12.3668617"><ele>817.0</ele><time>2026-05-02T15:33:15.405Z</time></trkpt><trkpt lat="46.4204967" lon="12.3667683"><ele>817.0</ele><time>2026-05-02T15:33:16.405Z</time></trkpt><trkpt lat="46.4204367" lon="12.3667033"><ele>816.9999999999999</ele><time>2026-05-02T15:33:17.405Z</time></trkpt><trkpt lat="46.420365" lon="12.3666733"><ele>817.0</ele><time>2026-05-02T15:33:18.406Z</time></trkpt><trkpt lat="46.4202883" lon="12.36669"><ele>818.2</ele><time>2026-05-02T15:33:19.406Z</time></trkpt><trkpt lat="46.4202167" lon="12.36674"><ele>819.4000000000001</ele><time>2026-05-02T15:33:20.406Z</time></trkpt><trkpt lat="46.4201467" lon="12.3668217"><ele>820.5999999999999</ele><time>2026-05-02T15:33:21.406Z</time></trkpt><trkpt lat="46.4200933" lon="12.3669367"><ele>821.8</ele><time>2026-05-02T15:33:22.406Z</time></trkpt><trkpt lat="46.42007" lon="12.3670967"><ele>823.0</ele><time>2026-05-02T15:33:23.405Z</time></trkpt><trkpt lat="46.4200433" lon="12.3672683"><ele>823.0</ele><time>2026-05-02T15:33:24.406Z</time></trkpt><trkpt lat="46.4200133" lon="12.3674517"><ele>823.0</ele><time>2026-05-02T15:33:25.405Z</time></trkpt><trkpt lat="46.41998" lon="12.3676417"><ele>823.0</ele><time>2026-05-02T15:33:26.406Z</time></trkpt><trkpt lat="46.4199417" lon="12.3678267"><ele>823.0</ele><time>2026-05-02T15:33:27.405Z</time></trkpt><trkpt lat="46.419915" lon="12.3680267"><ele>822.25</ele><time>2026-05-02T15:33:28.405Z</time></trkpt><trkpt lat="46.4198933" lon="12.3682417"><ele>821.5</ele><time>2026-05-02T15:33:29.406Z</time></trkpt><trkpt lat="46.4198817" lon="12.3684517"><ele>820.75</ele><time>2026-05-02T15:33:30.406Z</time></trkpt><trkpt lat="46.4198733" lon="12.3686617"><ele>820.0</ele><time>2026-05-02T15:33:31.406Z</time></trkpt><trkpt lat="46.419875" lon="12.3688733"><ele>820.0</ele><time>2026-05-02T15:33:32.406Z</time></trkpt><trkpt lat="46.4198783" lon="12.3690783"><ele>820.0</ele><time>2026-05-02T15:33:33.406Z</time></trkpt><trkpt lat="46.4198683" lon="12.369285"><ele>820.0</ele><time>2026-05-02T15:33:34.405Z</time></trkpt><trkpt lat="46.4198633" lon="12.3694883"><ele>820.0</ele><time>2026-05-02T15:33:35.406Z</time></trkpt><trkpt lat="46.41986" lon="12.36969"><ele>818.5</ele><time>2026-05-02T15:33:36.406Z</time></trkpt><trkpt lat="46.4198567" lon="12.3698933"><ele>817.0</ele><time>2026-05-02T15:33:37.405Z</time></trkpt><trkpt lat="46.4198567" lon="12.3700867"><ele>815.5</ele><time>2026-05-02T15:33:38.406Z</time></trkpt><trkpt lat="46.4198567" lon="12.3702817"><ele>814.0</ele><time>2026-05-02T15:33:39.406Z</time></trkpt><trkpt lat="46.4198467" lon="12.37048"><ele>813.0</ele><time>2026-05-02T15:33:40.406Z</time></trkpt><trkpt lat="46.419845" lon="12.3706833"><ele>812.0</ele><time>2026-05-02T15:33:41.406Z</time></trkpt><trkpt lat="46.41984" lon="12.3708883"><ele>811.0</ele><time>2026-05-02T15:33:42.406Z</time></trkpt><trkpt lat="46.4198317" lon="12.371095"><ele>810.0</ele><time>2026-05-02T15:33:43.406Z</time></trkpt><trkpt lat="46.4198233" lon="12.3713"><ele>809.6666666666667</ele><time>2026-05-02T15:33:44.406Z</time></trkpt><trkpt lat="46.4198067" lon="12.3715133"><ele>809.3333333333334</ele><time>2026-05-02T15:33:45.405Z</time></trkpt><trkpt lat="46.4197833" lon="12.37173"><ele>809.0</ele><time>2026-05-02T15:33:46.406Z</time></trkpt><trkpt lat="46.4197467" lon="12.37195"><ele>809.0</ele><time>2026-05-02T15:33:47.405Z</time></trkpt><trkpt lat="46.4197033" lon="12.3721767"><ele>809.0</ele><time>2026-05-02T15:33:48.406Z</time></trkpt><trkpt lat="46.4196517" lon="12.3724033"><ele>809.0</ele><time>2026-05-02T15:33:49.406Z</time></trkpt><trkpt lat="46.419595" lon="12.37263"><ele>810.5</ele><time>2026-05-02T15:33:50.405Z</time></trkpt><trkpt lat="46.4195583" lon="12.3728417"><ele>812.0</ele><time>2026-05-02T15:33:51.406Z</time></trkpt><trkpt lat="46.4195183" lon="12.373045"><ele>813.5</ele><time>2026-05-02T15:33:52.406Z</time></trkpt><trkpt lat="46.4194717" lon="12.37325"><ele>815.0</ele><time>2026-05-02T15:33:53.406Z</time></trkpt><trkpt lat="46.419415" lon="12.37346"><ele>815.0</ele><time>2026-05-02T15:33:54.406Z</time></trkpt><trkpt lat="46.4193467" lon="12.3736617"><ele>815.0</ele><time>2026-05-02T15:33:55.405Z</time></trkpt><trkpt lat="46.4192683" lon="12.37384"><ele>815.0</ele><time>2026-05-02T15:33:56.406Z</time></trkpt><trkpt lat="46.419165" lon="12.3739967"><ele>812.25</ele><time>2026-05-02T15:33:57.406Z</time></trkpt><trkpt lat="46.419035" lon="12.37411"><ele>809.5</ele><time>2026-05-02T15:33:58.406Z</time></trkpt><trkpt lat="46.4189033" lon="12.3741967"><ele>806.75</ele><time>2026-05-02T15:33:59.406Z</time></trkpt><trkpt lat="46.418755" lon="12.3742317"><ele>804.0</ele><time>2026-05-02T15:34:00.406Z</time></trkpt><trkpt lat="46.4186" lon="12.3742667"><ele>804.0</ele><time>2026-05-02T15:34:01.406Z</time></trkpt><trkpt lat="46.4184433" lon="12.3743083"><ele>804.0</ele><time>2026-05-02T15:34:02.406Z</time></trkpt><trkpt lat="46.41829" lon="12.3743433"><ele>804.0</ele><time>2026-05-02T15:34:03.406Z</time></trkpt><trkpt lat="46.41814" lon="12.374385"><ele>804.0</ele><time>2026-05-02T15:34:04.406Z</time></trkpt><trkpt lat="46.4179967" lon="12.374415"><ele>804.0</ele><time>2026-05-02T15:34:05.405Z</time></trkpt><trkpt lat="46.4178467" lon="12.3744367"><ele>804.0</ele><time>2026-05-02T15:34:06.406Z</time></trkpt><trkpt lat="46.4176983" lon="12.37443"><ele>804.0</ele><time>2026-05-02T15:34:07.406Z</time></trkpt><trkpt lat="46.4175467" lon="12.37439"><ele>801.0</ele><time>2026-05-02T15:34:08.406Z</time></trkpt><trkpt lat="46.4173983" lon="12.3743133"><ele>798.0</ele><time>2026-05-02T15:34:09.406Z</time></trkpt><trkpt lat="46.4172467" lon="12.374215"><ele>795.0</ele><time>2026-05-02T15:34:10.406Z</time></trkpt><trkpt lat="46.4171017" lon="12.3740867"><ele>794.6666666666667</ele><time>2026-05-02T15:34:11.406Z</time></trkpt><trkpt lat="46.4169567" lon="12.3739617"><ele>794.3333333333334</ele><time>2026-05-02T15:34:12.406Z</time></trkpt><trkpt lat="46.4168033" lon="12.37383"><ele>794.0</ele><time>2026-05-02T15:34:13.406Z</time></trkpt><trkpt lat="46.4166533" lon="12.3736717"><ele>794.0</ele><time>2026-05-02T15:34:14.406Z</time></trkpt><trkpt lat="46.41649" lon="12.3735183"><ele>794.0</ele><time>2026-05-02T15:34:15.406Z</time></trkpt><trkpt lat="46.416325" lon="12.3733617"><ele>794.0</ele><time>2026-05-02T15:34:16.405Z</time></trkpt><trkpt lat="46.4161617" lon="12.3732083"><ele>795.0</ele><time>2026-05-02T15:34:17.406Z</time></trkpt><trkpt lat="46.415995" lon="12.3730633"><ele>796.0</ele><time>2026-05-02T15:34:18.406Z</time></trkpt><trkpt lat="46.4158483" lon="12.3729167"><ele>797.0</ele><time>2026-05-02T15:34:19.405Z</time></trkpt><trkpt lat="46.4156983" lon="12.3727733"><ele>797.0</ele><time>2026-05-02T15:34:20.405Z</time></trkpt><trkpt lat="46.41555" lon="12.3726383"><ele>797.0</ele><time>2026-05-02T15:34:21.406Z</time></trkpt><trkpt lat="46.415405" lon="12.3724983"><ele>797.0</ele><time>2026-05-02T15:34:22.406Z</time></trkpt><trkpt lat="46.4152683" lon="12.37235"><ele>792.6666666666667</ele><time>2026-05-02T15:34:23.406Z</time></trkpt><trkpt lat="46.415135" lon="12.372185"><ele>788.3333333333333</ele><time>2026-05-02T15:34:24.406Z</time></trkpt><trkpt lat="46.41502" lon="12.3720083"><ele>784.0</ele><time>2026-05-02T15:34:25.406Z</time></trkpt><trkpt lat="46.4149067" lon="12.3718167"><ele>784.0</ele><time>2026-05-02T15:34:26.406Z</time></trkpt><trkpt lat="46.4147983" lon="12.37164"><ele>784.0</ele><time>2026-05-02T15:34:27.406Z</time></trkpt><trkpt lat="46.4146867" lon="12.3714467"><ele>784.0</ele><time>2026-05-02T15:34:28.406Z</time></trkpt><trkpt lat="46.4145667" lon="12.3712767"><ele>781.6666666666666</ele><time>2026-05-02T15:34:29.406Z</time></trkpt><trkpt lat="46.4144333" lon="12.3711267"><ele>779.3333333333333</ele><time>2026-05-02T15:34:30.405Z</time></trkpt><trkpt lat="46.4143017" lon="12.37098"><ele>777.0</ele><time>2026-05-02T15:34:31.406Z</time></trkpt><trkpt lat="46.414165" lon="12.3708333"><ele>777.0</ele><time>2026-05-02T15:34:32.406Z</time></trkpt><trkpt lat="46.4140283" lon="12.3706833"><ele>777.0</ele><time>2026-05-02T15:34:33.406Z</time></trkpt><trkpt lat="46.4138917" lon="12.3705467"><ele>777.0</ele><time>2026-05-02T15:34:34.406Z</time></trkpt><trkpt lat="46.4137583" lon="12.37042"><ele>774.6666666666667</ele><time>2026-05-02T15:34:35.405Z</time></trkpt><trkpt lat="46.4136317" lon="12.3702867"><ele>772.3333333333334</ele><time>2026-05-02T15:34:36.405Z</time></trkpt><trkpt lat="46.4135" lon="12.3701517"><ele>770.0</ele><time>2026-05-02T15:34:37.406Z</time></trkpt><trkpt lat="46.4133717" lon="12.3700117"><ele>770.0</ele><time>2026-05-02T15:34:38.406Z</time></trkpt><trkpt lat="46.4132433" lon="12.36988"><ele>770.0</ele><time>2026-05-02T15:34:39.406Z</time></trkpt><trkpt lat="46.4131167" lon="12.369745"><ele>770.0</ele><time>2026-05-02T15:34:40.406Z</time></trkpt><trkpt lat="46.4129933" lon="12.3696133"><ele>769.0</ele><time>2026-05-02T15:34:41.406Z</time></trkpt><trkpt lat="46.4128667" lon="12.3694917"><ele>768.0</ele><time>2026-05-02T15:34:42.405Z</time></trkpt><trkpt lat="46.4127117" lon="12.3693767"><ele>767.0</ele><time>2026-05-02T15:34:43.406Z</time></trkpt><trkpt lat="46.41254" lon="12.369275"><ele>767.0</ele><time>2026-05-02T15:34:44.406Z</time></trkpt><trkpt lat="46.4123633" lon="12.3691867"><ele>767.0</ele><time>2026-05-02T15:34:45.406Z</time></trkpt><trkpt lat="46.412195" lon="12.3690967"><ele>767.0</ele><time>2026-05-02T15:34:46.405Z</time></trkpt><trkpt lat="46.4120183" lon="12.3690167"><ele>770.0</ele><time>2026-05-02T15:34:47.406Z</time></trkpt><trkpt lat="46.4118483" lon="12.3689483"><ele>773.0</ele><time>2026-05-02T15:34:48.406Z</time></trkpt><trkpt lat="46.4116867" lon="12.3688767"><ele>776.0</ele><time>2026-05-02T15:34:49.406Z</time></trkpt><trkpt lat="46.41153" lon="12.3688033"><ele>776.0</ele><time>2026-05-02T15:34:50.405Z</time></trkpt><trkpt lat="46.4113717" lon="12.3687383"><ele>776.0</ele><time>2026-05-02T15:34:51.405Z</time></trkpt><trkpt lat="46.4112283" lon="12.3686567"><ele>776.0</ele><time>2026-05-02T15:34:52.406Z</time></trkpt><trkpt lat="46.4110817" lon="12.3685783"><ele>769.3333333333334</ele><time>2026-05-02T15:34:53.406Z</time></trkpt><trkpt lat="46.4109317" lon="12.3684917"><ele>762.6666666666667</ele><time>2026-05-02T15:34:54.406Z</time></trkpt><trkpt lat="46.4107817" lon="12.368385"><ele>756.0</ele><time>2026-05-02T15:34:55.405Z</time></trkpt><trkpt lat="46.4106367" lon="12.3682783"><ele>756.0</ele><time>2026-05-02T15:34:56.406Z</time></trkpt><trkpt lat="46.4105083" lon="12.36815"><ele>756.0</ele><time>2026-05-02T15:34:57.406Z</time></trkpt><trkpt lat="46.41038" lon="12.36802"><ele>756.0</ele><time>2026-05-02T15:34:58.406Z</time></trkpt><trkpt lat="46.4102617" lon="12.3678883"><ele>755.6666666666666</ele><time>2026-05-02T15:34:59.405Z</time></trkpt><trkpt lat="46.4101383" lon="12.3677633"><ele>755.3333333333333</ele><time>2026-05-02T15:35:00.405Z</time></trkpt><trkpt lat="46.4100083" lon="12.367655"><ele>755.0</ele><time>2026-05-02T15:35:01.406Z</time></trkpt><trkpt lat="46.4098783" lon="12.367525"><ele>755.0</ele><time>2026-05-02T15:35:02.406Z</time></trkpt><trkpt lat="46.4097467" lon="12.3674133"><ele>755.0</ele><time>2026-05-02T15:35:03.406Z</time></trkpt><trkpt lat="46.4096133" lon="12.36732"><ele>755.0</ele><time>2026-05-02T15:35:04.406Z</time></trkpt><trkpt lat="46.4094833" lon="12.3672117"><ele>756.6666666666666</ele><time>2026-05-02T15:35:05.405Z</time></trkpt><trkpt lat="46.4093317" lon="12.3671417"><ele>758.3333333333334</ele><time>2026-05-02T15:35:06.406Z</time></trkpt><trkpt lat="46.4091833" lon="12.3670883"><ele>760.0</ele><time>2026-05-02T15:35:07.405Z</time></trkpt><trkpt lat="46.4090233" lon="12.3670817"><ele>760.0</ele><time>2026-05-02T15:35:08.406Z</time></trkpt><trkpt lat="46.4088717" lon="12.367095"><ele>760.0</ele><time>2026-05-02T15:35:09.406Z</time></trkpt><trkpt lat="46.4087217" lon="12.3671083"><ele>760.0</ele><time>2026-05-02T15:35:10.406Z</time></trkpt><trkpt lat="46.4085783" lon="12.3671567"><ele>760.0</ele><time>2026-05-02T15:35:11.406Z</time></trkpt><trkpt lat="46.4084433" lon="12.3672067"><ele>752.5</ele><time>2026-05-02T15:35:12.406Z</time></trkpt><trkpt lat="46.4083033" lon="12.367295"><ele>745.0</ele><time>2026-05-02T15:35:13.406Z</time></trkpt><trkpt lat="46.40817" lon="12.367385"><ele>737.5</ele><time>2026-05-02T15:35:14.406Z</time></trkpt><trkpt lat="46.4080467" lon="12.3674767"><ele>730.0</ele><time>2026-05-02T15:35:15.406Z</time></trkpt><trkpt lat="46.4079417" lon="12.36757"><ele>730.0</ele><time>2026-05-02T15:35:16.406Z</time></trkpt><trkpt lat="46.4078567" lon="12.36764"><ele>730.0</ele><time>2026-05-02T15:35:17.406Z</time></trkpt><trkpt lat="46.4077833" lon="12.3676933"><ele>730.0</ele><time>2026-05-02T15:35:18.405Z</time></trkpt><trkpt lat="46.4077117" lon="12.3677383"><ele>730.0</ele><time>2026-05-02T15:35:19.406Z</time></trkpt><trkpt lat="46.4076217" lon="12.36775"><ele>730.0</ele><time>2026-05-02T15:35:20.406Z</time></trkpt><trkpt lat="46.4075317" lon="12.3677367"><ele>730.0</ele><time>2026-05-02T15:35:21.406Z</time></trkpt><trkpt lat="46.4074217" lon="12.36768"><ele>730.0</ele><time>2026-05-02T15:35:22.406Z</time></trkpt><trkpt lat="46.4072967" lon="12.36759"><ele>730.0</ele><time>2026-05-02T15:35:23.406Z</time></trkpt><trkpt lat="46.407165" lon="12.367475"><ele>730.0</ele><time>2026-05-02T15:35:24.406Z</time></trkpt><trkpt lat="46.4070317" lon="12.367355"><ele>726.6666666666667</ele><time>2026-05-02T15:35:25.405Z</time></trkpt><trkpt lat="46.4069033" lon="12.3672233"><ele>723.3333333333334</ele><time>2026-05-02T15:35:26.405Z</time></trkpt><trkpt lat="46.4067817" lon="12.367085"><ele>720.0</ele><time>2026-05-02T15:35:27.406Z</time></trkpt><trkpt lat="46.4066533" lon="12.366925"><ele>720.0</ele><time>2026-05-02T15:35:28.405Z</time></trkpt><trkpt lat="46.4065317" lon="12.36676"><ele>720.0</ele><time>2026-05-02T15:35:29.406Z</time></trkpt><trkpt lat="46.4064133" lon="12.3665983"><ele>720.0</ele><time>2026-05-02T15:35:30.406Z</time></trkpt><trkpt lat="46.4062967" lon="12.3664333"><ele>718.0</ele><time>2026-05-02T15:35:31.406Z</time></trkpt><trkpt lat="46.406175" lon="12.3662867"><ele>716.0</ele><time>2026-05-02T15:35:32.406Z</time></trkpt><trkpt lat="46.4060617" lon="12.3661267"><ele>714.0</ele><time>2026-05-02T15:35:33.406Z</time></trkpt><trkpt lat="46.4059467" lon="12.3659817"><ele>714.0</ele><time>2026-05-02T15:35:34.406Z</time></trkpt><trkpt lat="46.4058367" lon="12.365835"><ele>714.0</ele><time>2026-05-02T15:35:35.406Z</time></trkpt><trkpt lat="46.4057233" lon="12.3656867"><ele>714.0</ele><time>2026-05-02T15:35:36.406Z</time></trkpt><trkpt lat="46.4056167" lon="12.365555"><ele>714.0</ele><time>2026-05-02T15:35:37.405Z</time></trkpt><trkpt lat="46.4055067" lon="12.3654383"><ele>715.0</ele><time>2026-05-02T15:35:38.405Z</time></trkpt><trkpt lat="46.4053717" lon="12.3653683"><ele>716.0</ele><time>2026-05-02T15:35:39.406Z</time></trkpt><trkpt lat="46.4052433" lon="12.3653183"><ele>717.0</ele><time>2026-05-02T15:35:40.406Z</time></trkpt><trkpt lat="46.4051083" lon="12.365295"><ele>718.0</ele><time>2026-05-02T15:35:41.405Z</time></trkpt><trkpt lat="46.404975" lon="12.365285"><ele>718.0</ele><time>2026-05-02T15:35:42.406Z</time></trkpt><trkpt lat="46.40485" lon="12.36528"><ele>718.0</ele><time>2026-05-02T15:35:43.406Z</time></trkpt><trkpt lat="46.404725" lon="12.365295"><ele>718.0</ele><time>2026-05-02T15:35:44.405Z</time></trkpt><trkpt lat="46.4046067" lon="12.3653567"><ele>718.0</ele><time>2026-05-02T15:35:45.406Z</time></trkpt><trkpt lat="46.4045067" lon="12.36542"><ele>717.5</ele><time>2026-05-02T15:35:46.406Z</time></trkpt><trkpt lat="46.4044183" lon="12.3655217"><ele>717.0</ele><time>2026-05-02T15:35:47.405Z</time></trkpt><trkpt lat="46.40435" lon="12.3656317"><ele>716.5</ele><time>2026-05-02T15:35:48.406Z</time></trkpt><trkpt lat="46.4042983" lon="12.3657983"><ele>716.0</ele><time>2026-05-02T15:35:49.405Z</time></trkpt><trkpt lat="46.404275" lon="12.366015"><ele>716.0</ele><time>2026-05-02T15:35:50.406Z</time></trkpt><trkpt lat="46.404255" lon="12.3662433"><ele>716.0</ele><time>2026-05-02T15:35:51.406Z</time></trkpt><trkpt lat="46.4042367" lon="12.3664617"><ele>716.0</ele><time>2026-05-02T15:35:52.406Z</time></trkpt><trkpt lat="46.4042233" lon="12.3666833"><ele>717.6666666666666</ele><time>2026-05-02T15:35:53.406Z</time></trkpt><trkpt lat="46.4042067" lon="12.3669067"><ele>719.3333333333334</ele><time>2026-05-02T15:35:54.406Z</time></trkpt><trkpt lat="46.4041917" lon="12.367135"><ele>721.0</ele><time>2026-05-02T15:35:55.406Z</time></trkpt><trkpt lat="46.4041917" lon="12.3673717"><ele>721.0</ele><time>2026-05-02T15:35:56.406Z</time></trkpt><trkpt lat="46.4042167" lon="12.3676267"><ele>721.0</ele><time>2026-05-02T15:35:57.406Z</time></trkpt><trkpt lat="46.4042633" lon="12.3678867"><ele>721.0</ele><time>2026-05-02T15:35:58.405Z</time></trkpt><trkpt lat="46.40432" lon="12.3681117"><ele>720.3333333333334</ele><time>2026-05-02T15:35:59.406Z</time></trkpt><trkpt lat="46.404375" lon="12.3683283"><ele>719.6666666666666</ele><time>2026-05-02T15:36:00.405Z</time></trkpt><trkpt lat="46.40442" lon="12.36854"><ele>719.0</ele><time>2026-05-02T15:36:01.406Z</time></trkpt><trkpt lat="46.4044367" lon="12.3687467"><ele>716.3333333333333</ele><time>2026-05-02T15:36:02.406Z</time></trkpt><trkpt lat="46.4044267" lon="12.368975"><ele>713.6666666666666</ele><time>2026-05-02T15:36:03.406Z</time></trkpt><trkpt lat="46.404405" lon="12.369205"><ele>711.0</ele><time>2026-05-02T15:36:04.406Z</time></trkpt><trkpt lat="46.40437" lon="12.3694283"><ele>711.0</ele><time>2026-05-02T15:36:05.406Z</time></trkpt><trkpt lat="46.4043417" lon="12.36963"><ele>711.0</ele><time>2026-05-02T15:36:06.406Z</time></trkpt><trkpt lat="46.4043117" lon="12.3698117"><ele>711.0</ele><time>2026-05-02T15:36:07.406Z</time></trkpt><trkpt lat="46.4042917" lon="12.3699667"><ele>711.0</ele><time>2026-05-02T15:36:08.406Z</time></trkpt><trkpt lat="46.404255" lon="12.3700933"><ele>709.4</ele><time>2026-05-02T15:36:09.406Z</time></trkpt><trkpt lat="46.40419" lon="12.3701867"><ele>707.8</ele><time>2026-05-02T15:36:10.405Z</time></trkpt><trkpt lat="46.4040917" lon="12.3702367"><ele>706.1999999999999</ele><time>2026-05-02T15:36:11.406Z</time></trkpt><trkpt lat="46.4039883" lon="12.3702317"><ele>704.5999999999999</ele><time>2026-05-02T15:36:12.406Z</time></trkpt><trkpt lat="46.4038883" lon="12.3701517"><ele>703.0</ele><time>2026-05-02T15:36:13.406Z</time></trkpt><trkpt lat="46.403815" lon="12.3700167"><ele>693.0</ele><time>2026-05-02T15:36:14.406Z</time></trkpt><trkpt lat="46.4037667" lon="12.3698317"><ele>683.0</ele><time>2026-05-02T15:36:15.406Z</time></trkpt><trkpt lat="46.40373" lon="12.369605"><ele>673.0</ele><time>2026-05-02T15:36:16.406Z</time></trkpt><trkpt lat="46.4037033" lon="12.3693617"><ele>673.0</ele><time>2026-05-02T15:36:17.405Z</time></trkpt><trkpt lat="46.4036683" lon="12.36912"><ele>673.0</ele><time>2026-05-02T15:36:18.406Z</time></trkpt><trkpt lat="46.4036167" lon="12.3688967"><ele>673.0</ele><time>2026-05-02T15:36:19.406Z</time></trkpt><trkpt lat="46.40357" lon="12.3686883"><ele>680.0</ele><time>2026-05-02T15:36:20.406Z</time></trkpt><trkpt lat="46.40351" lon="12.3685033"><ele>687.0</ele><time>2026-05-02T15:36:21.406Z</time></trkpt><trkpt lat="46.4034217" lon="12.3683317"><ele>694.0</ele><time>2026-05-02T15:36:22.406Z</time></trkpt><trkpt lat="46.4033" lon="12.3681917"><ele>701.0</ele><time>2026-05-02T15:36:23.405Z</time></trkpt><trkpt lat="46.403165" lon="12.3680717"><ele>696.0</ele><time>2026-05-02T15:36:24.406Z</time></trkpt><trkpt lat="46.40301" lon="12.3679817"><ele>691.0</ele><time>2026-05-02T15:36:25.406Z</time></trkpt><trkpt lat="46.4028683" lon="12.3678783"><ele>686.0</ele><time>2026-05-02T15:36:26.406Z</time></trkpt><trkpt lat="46.4027317" lon="12.3677767"><ele>686.0</ele><time>2026-05-02T15:36:27.405Z</time></trkpt><trkpt lat="46.4026117" lon="12.36765"><ele>686.0</ele><time>2026-05-02T15:36:28.406Z</time></trkpt><trkpt lat="46.4025017" lon="12.3674933"><ele>686.0</ele><time>2026-05-02T15:36:29.406Z</time></trkpt><trkpt lat="46.40241" lon="12.367285"><ele>691.6666666666666</ele><time>2026-05-02T15:36:30.406Z</time></trkpt><trkpt lat="46.402335" lon="12.3670567"><ele>697.3333333333334</ele><time>2026-05-02T15:36:31.405Z</time></trkpt><trkpt lat="46.4022583" lon="12.3668267"><ele>703.0</ele><time>2026-05-02T15:36:32.406Z</time></trkpt><trkpt lat="46.402185" lon="12.3666083"><ele>698.3333333333334</ele><time>2026-05-02T15:36:33.405Z</time></trkpt><trkpt lat="46.4021117" lon="12.3664117"><ele>693.6666666666666</ele><time>2026-05-02T15:36:34.406Z</time></trkpt><trkpt lat="46.40203" lon="12.3662267"><ele>689.0</ele><time>2026-05-02T15:36:35.406Z</time></trkpt><trkpt lat="46.4019183" lon="12.3660817"><ele>689.0</ele><time>2026-05-02T15:36:36.406Z</time></trkpt><trkpt lat="46.401765" lon="12.3659867"><ele>689.0</ele><time>2026-05-02T15:36:37.406Z</time></trkpt><trkpt lat="46.40159" lon="12.365915"><ele>689.0</ele><time>2026-05-02T15:36:38.406Z</time></trkpt><trkpt lat="46.40143" lon="12.36581"><ele>679.3333333333333</ele><time>2026-05-02T15:36:39.406Z</time></trkpt><trkpt lat="46.4012733" lon="12.365715"><ele>669.6666666666666</ele><time>2026-05-02T15:36:40.406Z</time></trkpt><trkpt lat="46.4011317" lon="12.3656233"><ele>660.0</ele><time>2026-05-02T15:36:41.405Z</time></trkpt><trkpt lat="46.40099" lon="12.3655433"><ele>666.25</ele><time>2026-05-02T15:36:42.406Z</time></trkpt><trkpt lat="46.4008683" lon="12.3654283"><ele>672.5</ele><time>2026-05-02T15:36:43.405Z</time></trkpt><trkpt lat="46.4007533" lon="12.3653217"><ele>678.75</ele><time>2026-05-02T15:36:44.405Z</time></trkpt><trkpt lat="46.4006717" lon="12.36518"><ele>685.0</ele><time>2026-05-02T15:36:45.405Z</time></trkpt><trkpt lat="46.4006017" lon="12.3650217"><ele>685.0</ele><time>2026-05-02T15:36:46.406Z</time></trkpt><trkpt lat="46.4005667" lon="12.3648267"><ele>685.0</ele><time>2026-05-02T15:36:47.406Z</time></trkpt><trkpt lat="46.4005267" lon="12.3646367"><ele>685.0</ele><time>2026-05-02T15:36:48.405Z</time></trkpt><trkpt lat="46.400495" lon="12.3644533"><ele>685.0</ele><time>2026-05-02T15:36:49.406Z</time></trkpt><trkpt lat="46.4004583" lon="12.3642883"><ele>686.0</ele><time>2026-05-02T15:36:50.406Z</time></trkpt><trkpt lat="46.4004383" lon="12.3641333"><ele>687.0</ele><time>2026-05-02T15:36:51.406Z</time></trkpt><trkpt lat="46.4004567" lon="12.3639617"><ele>688.0</ele><time>2026-05-02T15:36:52.405Z</time></trkpt><trkpt lat="46.4004717" lon="12.36377"><ele>689.0</ele><time>2026-05-02T15:36:53.405Z</time></trkpt><trkpt lat="46.4005117" lon="12.3635517"><ele>689.0</ele><time>2026-05-02T15:36:54.406Z</time></trkpt><trkpt lat="46.4005483" lon="12.3633167"><ele>689.0</ele><time>2026-05-02T15:36:55.406Z</time></trkpt><trkpt lat="46.4005933" lon="12.3630717"><ele>689.0</ele><time>2026-05-02T15:36:56.406Z</time></trkpt><trkpt lat="46.40063" lon="12.3628083"><ele>680.3333333333333</ele><time>2026-05-02T15:36:57.405Z</time></trkpt><trkpt lat="46.4006617" lon="12.3625733"><ele>671.6666666666666</ele><time>2026-05-02T15:36:58.406Z</time></trkpt><trkpt lat="46.400705" lon="12.362345"><ele>663.0</ele><time>2026-05-02T15:36:59.406Z</time></trkpt><trkpt lat="46.40075" lon="12.36211"><ele>660.6666666666666</ele><time>2026-05-02T15:37:00.405Z</time></trkpt><trkpt lat="46.4007783" lon="12.36187"><ele>658.3333333333333</ele><time>2026-05-02T15:37:01.406Z</time></trkpt><trkpt lat="46.4007967" lon="12.361635"><ele>656.0</ele><time>2026-05-02T15:37:02.406Z</time></trkpt><trkpt lat="46.4007883" lon="12.3614067"><ele>654.6666666666666</ele><time>2026-05-02T15:37:03.406Z</time></trkpt><trkpt lat="46.4007583" lon="12.3611533"><ele>653.3333333333334</ele><time>2026-05-02T15:37:04.406Z</time></trkpt><trkpt lat="46.4007167" lon="12.3609"><ele>652.0</ele><time>2026-05-02T15:37:05.406Z</time></trkpt><trkpt lat="46.4006517" lon="12.3606717"><ele>640.6666666666667</ele><time>2026-05-02T15:37:06.405Z</time></trkpt><trkpt lat="46.400595" lon="12.3604417"><ele>629.3333333333334</ele><time>2026-05-02T15:37:07.406Z</time></trkpt><trkpt lat="46.4005383" lon="12.360215"><ele>618.0</ele><time>2026-05-02T15:37:08.405Z</time></trkpt><trkpt lat="46.4004767" lon="12.359995"><ele>618.0</ele><time>2026-05-02T15:37:09.406Z</time></trkpt><trkpt lat="46.4004233" lon="12.3597833"><ele>618.0</ele><time>2026-05-02T15:37:10.406Z</time></trkpt><trkpt lat="46.400355" lon="12.3595817"><ele>618.0</ele><time>2026-05-02T15:37:11.406Z</time></trkpt><trkpt lat="46.40029" lon="12.3593683"><ele>621.6666666666666</ele><time>2026-05-02T15:37:12.406Z</time></trkpt><trkpt lat="46.4002417" lon="12.35913"><ele>625.3333333333333</ele><time>2026-05-02T15:37:13.406Z</time></trkpt><trkpt lat="46.4002083" lon="12.35889"><ele>629.0</ele><time>2026-05-02T15:37:14.406Z</time></trkpt><trkpt lat="46.4001733" lon="12.3586417"><ele>629.0</ele><time>2026-05-02T15:37:15.406Z</time></trkpt><trkpt lat="46.4001333" lon="12.3584017"><ele>629.0</ele><time>2026-05-02T15:37:16.406Z</time></trkpt><trkpt lat="46.4001017" lon="12.3581767"><ele>629.0</ele><time>2026-05-02T15:37:17.406Z</time></trkpt><trkpt lat="46.4000783" lon="12.35796"><ele>629.0</ele><time>2026-05-02T15:37:18.406Z</time></trkpt><trkpt lat="46.40005" lon="12.357755"><ele>629.0</ele><time>2026-05-02T15:37:19.406Z</time></trkpt><trkpt lat="46.400025" lon="12.3575633"><ele>629.0</ele><time>2026-05-02T15:37:20.406Z</time></trkpt><trkpt lat="46.4000067" lon="12.3573933"><ele>629.0</ele><time>2026-05-02T15:37:21.406Z</time></trkpt><trkpt lat="46.39999" lon="12.35726"><ele>629.0</ele><time>2026-05-02T15:37:22.406Z</time></trkpt><trkpt lat="46.399935" lon="12.3571267"><ele>629.0</ele><time>2026-05-02T15:37:24.406Z</time></trkpt><trkpt lat="46.3998217" lon="12.3571333"><ele>629.0</ele><time>2026-05-02T15:37:26.406Z</time></trkpt><trkpt lat="46.3997817" lon="12.3572967"><ele>629.0</ele><time>2026-05-02T15:37:28.406Z</time></trkpt><trkpt lat="46.3998233" lon="12.3574633"><ele>629.0</ele><time>2026-05-02T15:37:29.406Z</time></trkpt><trkpt lat="46.3998433" lon="12.3576633"><ele>629.0</ele><time>2026-05-02T15:37:30.406Z</time></trkpt><trkpt lat="46.3998233" lon="12.35788"><ele>629.0</ele><time>2026-05-02T15:37:31.405Z</time></trkpt><trkpt lat="46.3998017" lon="12.358135"><ele>629.0</ele><time>2026-05-02T15:37:32.406Z</time></trkpt><trkpt lat="46.39979" lon="12.3584017"><ele>629.0</ele><time>2026-05-02T15:37:33.406Z</time></trkpt><trkpt lat="46.399785" lon="12.3586583"><ele>629.0</ele><time>2026-05-02T15:37:34.405Z</time></trkpt><trkpt lat="46.3997867" lon="12.3589033"><ele>630.0</ele><time>2026-05-02T15:37:35.406Z</time></trkpt><trkpt lat="46.3997983" lon="12.3591583"><ele>631.0</ele><time>2026-05-02T15:37:36.406Z</time></trkpt><trkpt lat="46.3998233" lon="12.3594"><ele>632.0</ele><time>2026-05-02T15:37:37.406Z</time></trkpt><trkpt lat="46.3998667" lon="12.3596483"><ele>627.3333333333333</ele><time>2026-05-02T15:37:38.406Z</time></trkpt><trkpt lat="46.3999183" lon="12.359885"><ele>622.6666666666666</ele><time>2026-05-02T15:37:39.406Z</time></trkpt><trkpt lat="46.3999717" lon="12.36012"><ele>618.0</ele><time>2026-05-02T15:37:40.405Z</time></trkpt><trkpt lat="46.4000167" lon="12.3603367"><ele>612.3333333333334</ele><time>2026-05-02T15:37:41.406Z</time></trkpt><trkpt lat="46.400045" lon="12.3605433"><ele>606.6666666666667</ele><time>2026-05-02T15:37:42.405Z</time></trkpt><trkpt lat="46.4000567" lon="12.360775"><ele>601.0</ele><time>2026-05-02T15:37:43.406Z</time></trkpt><trkpt lat="46.40005" lon="12.3610167"><ele>601.0</ele><time>2026-05-02T15:37:44.405Z</time></trkpt><trkpt lat="46.40003" lon="12.3612683"><ele>601.0</ele><time>2026-05-02T15:37:45.406Z</time></trkpt><trkpt lat="46.400005" lon="12.361515"><ele>601.0</ele><time>2026-05-02T15:37:46.406Z</time></trkpt><trkpt lat="46.39999" lon="12.3617617"><ele>601.3333333333334</ele><time>2026-05-02T15:37:47.405Z</time></trkpt><trkpt lat="46.3999767" lon="12.3620183"><ele>601.6666666666666</ele><time>2026-05-02T15:37:48.406Z</time></trkpt><trkpt lat="46.3999583" lon="12.3622883"><ele>602.0</ele><time>2026-05-02T15:37:49.406Z</time></trkpt><trkpt lat="46.3999317" lon="12.362545"><ele>601.3333333333333</ele><time>2026-05-02T15:37:50.406Z</time></trkpt><trkpt lat="46.3999033" lon="12.362795"><ele>600.6666666666666</ele><time>2026-05-02T15:37:51.405Z</time></trkpt><trkpt lat="46.39988" lon="12.3630683"><ele>600.0</ele><time>2026-05-02T15:37:52.406Z</time></trkpt><trkpt lat="46.39984" lon="12.3633117"><ele>602.3333333333334</ele><time>2026-05-02T15:37:53.406Z</time></trkpt><trkpt lat="46.3998" lon="12.3635417"><ele>604.6666666666667</ele><time>2026-05-02T15:37:54.405Z</time></trkpt><trkpt lat="46.3997617" lon="12.36377"><ele>607.0</ele><time>2026-05-02T15:37:55.406Z</time></trkpt><trkpt lat="46.3997167" lon="12.3639917"><ele>609.0</ele><time>2026-05-02T15:37:56.406Z</time></trkpt><trkpt lat="46.3996733" lon="12.3642033"><ele>611.0</ele><time>2026-05-02T15:37:57.406Z</time></trkpt><trkpt lat="46.3996417" lon="12.3644317"><ele>613.0</ele><time>2026-05-02T15:37:58.405Z</time></trkpt><trkpt lat="46.3996283" lon="12.3646683"><ele>612.75</ele><time>2026-05-02T15:37:59.406Z</time></trkpt><trkpt lat="46.3996317" lon="12.3649067"><ele>612.5</ele><time>2026-05-02T15:38:00.406Z</time></trkpt><trkpt lat="46.3996433" lon="12.3651067"><ele>612.25</ele><time>2026-05-02T15:38:01.406Z</time></trkpt><trkpt lat="46.399675" lon="12.3652933"><ele>612.0</ele><time>2026-05-02T15:38:02.406Z</time></trkpt><trkpt lat="46.3997067" lon="12.365455"><ele>610.6</ele><time>2026-05-02T15:38:03.406Z</time></trkpt><trkpt lat="46.3997283" lon="12.3655933"><ele>609.2</ele><time>2026-05-02T15:38:04.406Z</time></trkpt><trkpt lat="46.399735" lon="12.365695"><ele>607.8</ele><time>2026-05-02T15:38:05.406Z</time></trkpt><trkpt lat="46.3996917" lon="12.3658617"><ele>606.4</ele><time>2026-05-02T15:38:07.406Z</time></trkpt><trkpt lat="46.3995767" lon="12.3658167"><ele>605.0</ele><time>2026-05-02T15:38:09.406Z</time></trkpt><trkpt lat="46.3995417" lon="12.3657083"><ele>593.5</ele><time>2026-05-02T15:38:10.405Z</time></trkpt><trkpt lat="46.39951" lon="12.365555"><ele>582.0</ele><time>2026-05-02T15:38:11.406Z</time></trkpt><trkpt lat="46.3994983" lon="12.365335"><ele>570.5</ele><time>2026-05-02T15:38:12.406Z</time></trkpt><trkpt lat="46.3994867" lon="12.3650667"><ele>559.0</ele><time>2026-05-02T15:38:13.406Z</time></trkpt><trkpt lat="46.3994733" lon="12.364765"><ele>557.6666666666667</ele><time>2026-05-02T15:38:14.406Z</time></trkpt><trkpt lat="46.399475" lon="12.364465"><ele>556.3333333333334</ele><time>2026-05-02T15:38:15.406Z</time></trkpt><trkpt lat="46.3995017" lon="12.3641817"><ele>555.0</ele><time>2026-05-02T15:38:16.406Z</time></trkpt><trkpt lat="46.3995267" lon="12.3639133"><ele>554.0</ele><time>2026-05-02T15:38:17.406Z</time></trkpt><trkpt lat="46.39953" lon="12.3636517"><ele>553.0</ele><time>2026-05-02T15:38:18.405Z</time></trkpt><trkpt lat="46.3995317" lon="12.3633917"><ele>552.0</ele><time>2026-05-02T15:38:19.405Z</time></trkpt><trkpt lat="46.3995033" lon="12.3631117"><ele>551.6666666666666</ele><time>2026-05-02T15:38:20.405Z</time></trkpt><trkpt lat="46.399495" lon="12.3628433"><ele>551.3333333333333</ele><time>2026-05-02T15:38:21.406Z</time></trkpt><trkpt lat="46.3995067" lon="12.3625783"><ele>551.0</ele><time>2026-05-02T15:38:22.406Z</time></trkpt><trkpt lat="46.399505" lon="12.36233"><ele>551.3333333333333</ele><time>2026-05-02T15:38:23.406Z</time></trkpt><trkpt lat="46.39949" lon="12.3620933"><ele>551.6666666666666</ele><time>2026-05-02T15:38:24.406Z</time></trkpt><trkpt lat="46.39945" lon="12.3618583"><ele>552.0</ele><time>2026-05-02T15:38:25.406Z</time></trkpt><trkpt lat="46.3993967" lon="12.3616133"><ele>552.0</ele><time>2026-05-02T15:38:26.406Z</time></trkpt><trkpt lat="46.39934" lon="12.3613717"><ele>552.0</ele><time>2026-05-02T15:38:27.406Z</time></trkpt><trkpt lat="46.399285" lon="12.36114"><ele>552.0</ele><time>2026-05-02T15:38:28.406Z</time></trkpt><trkpt lat="46.39922" lon="12.36091"><ele>552.6666666666666</ele><time>2026-05-02T15:38:29.405Z</time></trkpt><trkpt lat="46.3991667" lon="12.3606767"><ele>553.3333333333333</ele><time>2026-05-02T15:38:30.406Z</time></trkpt><trkpt lat="46.3991183" lon="12.3604483"><ele>554.0</ele><time>2026-05-02T15:38:31.405Z</time></trkpt><trkpt lat="46.3990833" lon="12.360215"><ele>555.0</ele><time>2026-05-02T15:38:32.406Z</time></trkpt><trkpt lat="46.3990367" lon="12.359975"><ele>556.0</ele><time>2026-05-02T15:38:33.406Z</time></trkpt><trkpt lat="46.3990033" lon="12.359735"><ele>557.0</ele><time>2026-05-02T15:38:34.406Z</time></trkpt><trkpt lat="46.398965" lon="12.3595"><ele>561.6666666666666</ele><time>2026-05-02T15:38:35.406Z</time></trkpt><trkpt lat="46.3989217" lon="12.3592833"><ele>566.3333333333334</ele><time>2026-05-02T15:38:36.406Z</time></trkpt><trkpt lat="46.39886" lon="12.3590533"><ele>571.0</ele><time>2026-05-02T15:38:37.406Z</time></trkpt><trkpt lat="46.398805" lon="12.3588417"><ele>563.25</ele><time>2026-05-02T15:38:38.405Z</time></trkpt><trkpt lat="46.39874" lon="12.3586533"><ele>555.5</ele><time>2026-05-02T15:38:39.406Z</time></trkpt><trkpt lat="46.3986617" lon="12.358475"><ele>547.75</ele><time>2026-05-02T15:38:40.406Z</time></trkpt><trkpt lat="46.3985617" lon="12.3583067"><ele>540.0</ele><time>2026-05-02T15:38:41.406Z</time></trkpt><trkpt lat="46.3984733" lon="12.3581617"><ele>542.75</ele><time>2026-05-02T15:38:42.406Z</time></trkpt><trkpt lat="46.39839" lon="12.3580167"><ele>545.5</ele><time>2026-05-02T15:38:43.406Z</time></trkpt><trkpt lat="46.3983067" lon="12.3578667"><ele>548.25</ele><time>2026-05-02T15:38:44.406Z</time></trkpt><trkpt lat="46.39822" lon="12.3577"><ele>551.0</ele><time>2026-05-02T15:38:45.405Z</time></trkpt><trkpt lat="46.3981367" lon="12.3575317"><ele>551.0</ele><time>2026-05-02T15:38:46.406Z</time></trkpt><trkpt lat="46.3980567" lon="12.3573817"><ele>551.0</ele><time>2026-05-02T15:38:47.405Z</time></trkpt><trkpt lat="46.3979883" lon="12.357225"><ele>551.0</ele><time>2026-05-02T15:38:48.406Z</time></trkpt><trkpt lat="46.397915" lon="12.3570883"><ele>551.0</ele><time>2026-05-02T15:38:49.406Z</time></trkpt><trkpt lat="46.39783" lon="12.3569417"><ele>546.25</ele><time>2026-05-02T15:38:50.406Z</time></trkpt><trkpt lat="46.3977417" lon="12.356775"><ele>541.5</ele><time>2026-05-02T15:38:51.405Z</time></trkpt><trkpt lat="46.3976517" lon="12.35662"><ele>536.75</ele><time>2026-05-02T15:38:52.406Z</time></trkpt><trkpt lat="46.39757" lon="12.3564767"><ele>532.0</ele><time>2026-05-02T15:38:53.406Z</time></trkpt><trkpt lat="46.3975" lon="12.3563367"><ele>532.0</ele><time>2026-05-02T15:38:54.406Z</time></trkpt><trkpt lat="46.3974367" lon="12.3562067"><ele>532.0</ele><time>2026-05-02T15:38:55.406Z</time></trkpt><trkpt lat="46.397375" lon="12.35608"><ele>532.0</ele><time>2026-05-02T15:38:56.405Z</time></trkpt><trkpt lat="46.3973133" lon="12.3559467"><ele>532.0</ele><time>2026-05-02T15:38:57.406Z</time></trkpt><trkpt lat="46.3972433" lon="12.3558183"><ele>532.0</ele><time>2026-05-02T15:38:58.405Z</time></trkpt><trkpt lat="46.3971717" lon="12.355695"><ele>532.2</ele><time>2026-05-02T15:38:59.406Z</time></trkpt><trkpt lat="46.397095" lon="12.3556"><ele>532.4000000000001</ele><time>2026-05-02T15:39:00.406Z</time></trkpt><trkpt lat="46.3969917" lon="12.3555433"><ele>532.5999999999999</ele><time>2026-05-02T15:39:01.405Z</time></trkpt><trkpt lat="46.396905" lon="12.3555383"><ele>532.8</ele><time>2026-05-02T15:39:02.406Z</time></trkpt><trkpt lat="46.3968067" lon="12.355565"><ele>533.0</ele><time>2026-05-02T15:39:03.405Z</time></trkpt><trkpt lat="46.3966967" lon="12.35563"><ele>533.0</ele><time>2026-05-02T15:39:04.406Z</time></trkpt><trkpt lat="46.3965883" lon="12.3557083"><ele>533.0</ele><time>2026-05-02T15:39:05.406Z</time></trkpt><trkpt lat="46.396475" lon="12.3557817"><ele>533.0</ele><time>2026-05-02T15:39:06.406Z</time></trkpt><trkpt lat="46.3963567" lon="12.3558717"><ele>533.0</ele><time>2026-05-02T15:39:07.406Z</time></trkpt><trkpt lat="46.3962433" lon="12.3559433"><ele>533.75</ele><time>2026-05-02T15:39:08.406Z</time></trkpt><trkpt lat="46.3961267" lon="12.356015"><ele>534.5</ele><time>2026-05-02T15:39:09.406Z</time></trkpt><trkpt lat="46.3960033" lon="12.3561017"><ele>535.25</ele><time>2026-05-02T15:39:10.406Z</time></trkpt><trkpt lat="46.3958733" lon="12.35617"><ele>536.0</ele><time>2026-05-02T15:39:11.405Z</time></trkpt><trkpt lat="46.3957483" lon="12.35624"><ele>536.0</ele><time>2026-05-02T15:39:12.406Z</time></trkpt><trkpt lat="46.3956233" lon="12.3563583"><ele>536.0</ele><time>2026-05-02T15:39:13.406Z</time></trkpt><trkpt lat="46.3954833" lon="12.3564517"><ele>536.0</ele><time>2026-05-02T15:39:14.405Z</time></trkpt><trkpt lat="46.3953383" lon="12.3565233"><ele>534.25</ele><time>2026-05-02T15:39:15.405Z</time></trkpt><trkpt lat="46.3951833" lon="12.356555"><ele>532.5</ele><time>2026-05-02T15:39:16.406Z</time></trkpt><trkpt lat="46.3950417" lon="12.3565667"><ele>530.75</ele><time>2026-05-02T15:39:17.405Z</time></trkpt><trkpt lat="46.394895" lon="12.3565383"><ele>529.0</ele><time>2026-05-02T15:39:18.406Z</time></trkpt><trkpt lat="46.3947367" lon="12.3564883"><ele>528.6666666666667</ele><time>2026-05-02T15:39:19.406Z</time></trkpt><trkpt lat="46.3945883" lon="12.3564117"><ele>528.3333333333334</ele><time>2026-05-02T15:39:20.405Z</time></trkpt><trkpt lat="46.3944367" lon="12.3563267"><ele>528.0</ele><time>2026-05-02T15:39:21.405Z</time></trkpt><trkpt lat="46.3942817" lon="12.3562517"><ele>532.6666666666666</ele><time>2026-05-02T15:39:22.406Z</time></trkpt><trkpt lat="46.3941267" lon="12.3561833"><ele>537.3333333333333</ele><time>2026-05-02T15:39:23.406Z</time></trkpt><trkpt lat="46.3939633" lon="12.3561183"><ele>542.0</ele><time>2026-05-02T15:39:24.406Z</time></trkpt><trkpt lat="46.39381" lon="12.3560633"><ele>542.0</ele><time>2026-05-02T15:39:25.406Z</time></trkpt><trkpt lat="46.3936683" lon="12.35601"><ele>542.0</ele><time>2026-05-02T15:39:26.405Z</time></trkpt><trkpt lat="46.393515" lon="12.3559717"><ele>542.0</ele><time>2026-05-02T15:39:27.406Z</time></trkpt><trkpt lat="46.3933533" lon="12.3559317"><ele>542.0</ele><time>2026-05-02T15:39:28.406Z</time></trkpt><trkpt lat="46.3931917" lon="12.3558883"><ele>542.0</ele><time>2026-05-02T15:39:29.406Z</time></trkpt><trkpt lat="46.3930367" lon="12.3558733"><ele>542.0</ele><time>2026-05-02T15:39:30.406Z</time></trkpt><trkpt lat="46.3928817" lon="12.3558583"><ele>538.3333333333333</ele><time>2026-05-02T15:39:31.405Z</time></trkpt><trkpt lat="46.39271" lon="12.3558317"><ele>534.6666666666666</ele><time>2026-05-02T15:39:32.406Z</time></trkpt><trkpt lat="46.3925233" lon="12.3557767"><ele>531.0</ele><time>2026-05-02T15:39:33.406Z</time></trkpt><trkpt lat="46.3923217" lon="12.3557033"><ele>531.0</ele><time>2026-05-02T15:39:34.406Z</time></trkpt><trkpt lat="46.392115" lon="12.3555917"><ele>531.0</ele><time>2026-05-02T15:39:35.406Z</time></trkpt><trkpt lat="46.39191" lon="12.3554783"><ele>531.0</ele><time>2026-05-02T15:39:36.405Z</time></trkpt><trkpt lat="46.391705" lon="12.3553717"><ele>534.6666666666666</ele><time>2026-05-02T15:39:37.406Z</time></trkpt><trkpt lat="46.3914983" lon="12.355285"><ele>538.3333333333333</ele><time>2026-05-02T15:39:38.406Z</time></trkpt><trkpt lat="46.3912917" lon="12.355185"><ele>542.0</ele><time>2026-05-02T15:39:39.406Z</time></trkpt><trkpt lat="46.3910917" lon="12.3550683"><ele>542.0</ele><time>2026-05-02T15:39:40.405Z</time></trkpt><trkpt lat="46.3908917" lon="12.3549617"><ele>542.0</ele><time>2026-05-02T15:39:41.406Z</time></trkpt><trkpt lat="46.39069" lon="12.3548633"><ele>542.0</ele><time>2026-05-02T15:39:42.406Z</time></trkpt><trkpt lat="46.3904933" lon="12.3547833"><ele>537.3333333333333</ele><time>2026-05-02T15:39:43.406Z</time></trkpt><trkpt lat="46.3902983" lon="12.3547083"><ele>532.6666666666666</ele><time>2026-05-02T15:39:44.405Z</time></trkpt><trkpt lat="46.3901083" lon="12.3546417"><ele>528.0</ele><time>2026-05-02T15:39:45.406Z</time></trkpt><trkpt lat="46.3899267" lon="12.354575"><ele>537.0</ele><time>2026-05-02T15:39:46.406Z</time></trkpt><trkpt lat="46.3897417" lon="12.35451"><ele>546.0</ele><time>2026-05-02T15:39:47.406Z</time></trkpt><trkpt lat="46.3895483" lon="12.354445"><ele>555.0</ele><time>2026-05-02T15:39:48.405Z</time></trkpt><trkpt lat="46.3893383" lon="12.354435"><ele>555.0</ele><time>2026-05-02T15:39:49.405Z</time></trkpt><trkpt lat="46.3891283" lon="12.354405"><ele>555.0</ele><time>2026-05-02T15:39:50.405Z</time></trkpt><trkpt lat="46.3889383" lon="12.3543717"><ele>555.0</ele><time>2026-05-02T15:39:51.406Z</time></trkpt><trkpt lat="46.3887617" lon="12.354335"><ele>551.6666666666666</ele><time>2026-05-02T15:39:52.405Z</time></trkpt><trkpt lat="46.3885833" lon="12.3543"><ele>548.3333333333333</ele><time>2026-05-02T15:39:53.406Z</time></trkpt><trkpt lat="46.3884083" lon="12.3542683"><ele>545.0</ele><time>2026-05-02T15:39:54.405Z</time></trkpt><trkpt lat="46.3882467" lon="12.3542133"><ele>545.0</ele><time>2026-05-02T15:39:55.405Z</time></trkpt><trkpt lat="46.3880717" lon="12.3541333"><ele>545.0</ele><time>2026-05-02T15:39:56.406Z</time></trkpt><trkpt lat="46.38788" lon="12.3540317"><ele>545.0</ele><time>2026-05-02T15:39:57.406Z</time></trkpt><trkpt lat="46.3876933" lon="12.3539267"><ele>546.0</ele><time>2026-05-02T15:39:58.405Z</time></trkpt><trkpt lat="46.387515" lon="12.35382"><ele>547.0</ele><time>2026-05-02T15:39:59.406Z</time></trkpt><trkpt lat="46.387335" lon="12.3537133"><ele>548.0</ele><time>2026-05-02T15:40:00.406Z</time></trkpt><trkpt lat="46.3871567" lon="12.3536033"><ele>548.0</ele><time>2026-05-02T15:40:01.405Z</time></trkpt><trkpt lat="46.38697" lon="12.353525"><ele>548.0</ele><time>2026-05-02T15:40:02.406Z</time></trkpt><trkpt lat="46.3867817" lon="12.3534717"><ele>548.0</ele><time>2026-05-02T15:40:03.406Z</time></trkpt><trkpt lat="46.3866067" lon="12.3534267"><ele>548.0</ele><time>2026-05-02T15:40:04.406Z</time></trkpt><trkpt lat="46.386445" lon="12.35338"><ele>548.0</ele><time>2026-05-02T15:40:05.406Z</time></trkpt><trkpt lat="46.386285" lon="12.3533167"><ele>548.0</ele><time>2026-05-02T15:40:06.406Z</time></trkpt><trkpt lat="46.3861167" lon="12.3532633"><ele>546.3333333333333</ele><time>2026-05-02T15:40:07.406Z</time></trkpt><trkpt lat="46.385955" lon="12.353215"><ele>544.6666666666666</ele><time>2026-05-02T15:40:08.406Z</time></trkpt><trkpt lat="46.3857983" lon="12.35317"><ele>543.0</ele><time>2026-05-02T15:40:09.406Z</time></trkpt><trkpt lat="46.38564" lon="12.353125"><ele>540.3333333333334</ele><time>2026-05-02T15:40:10.406Z</time></trkpt><trkpt lat="46.3854867" lon="12.35308"><ele>537.6666666666667</ele><time>2026-05-02T15:40:11.406Z</time></trkpt><trkpt lat="46.3853317" lon="12.35303"><ele>535.0</ele><time>2026-05-02T15:40:12.405Z</time></trkpt><trkpt lat="46.3851883" lon="12.35298"><ele>540.25</ele><time>2026-05-02T15:40:13.405Z</time></trkpt><trkpt lat="46.3850467" lon="12.352935"><ele>545.5</ele><time>2026-05-02T15:40:14.406Z</time></trkpt><trkpt lat="46.384915" lon="12.3528883"><ele>550.75</ele><time>2026-05-02T15:40:15.406Z</time></trkpt><trkpt lat="46.3847933" lon="12.352845"><ele>556.0</ele><time>2026-05-02T15:40:16.406Z</time></trkpt><trkpt lat="46.3846817" lon="12.35279"><ele>553.75</ele><time>2026-05-02T15:40:17.405Z</time></trkpt><trkpt lat="46.38457" lon="12.3527083"><ele>551.5</ele><time>2026-05-02T15:40:18.405Z</time></trkpt><trkpt lat="46.3844683" lon="12.3526167"><ele>549.25</ele><time>2026-05-02T15:40:19.406Z</time></trkpt><trkpt lat="46.3843733" lon="12.352525"><ele>547.0</ele><time>2026-05-02T15:40:20.406Z</time></trkpt><trkpt lat="46.3842817" lon="12.3524167"><ele>547.0</ele><time>2026-05-02T15:40:21.406Z</time></trkpt><trkpt lat="46.3841983" lon="12.3522867"><ele>547.0</ele><time>2026-05-02T15:40:22.405Z</time></trkpt><trkpt lat="46.384115" lon="12.352135"><ele>547.0</ele><time>2026-05-02T15:40:23.406Z</time></trkpt><trkpt lat="46.3840433" lon="12.3520033"><ele>547.0</ele><time>2026-05-02T15:40:24.405Z</time></trkpt><trkpt lat="46.3839533" lon="12.3519117"><ele>555.25</ele><time>2026-05-02T15:40:25.406Z</time></trkpt><trkpt lat="46.3838567" lon="12.351865"><ele>563.5</ele><time>2026-05-02T15:40:26.406Z</time></trkpt><trkpt lat="46.38375" lon="12.3518633"><ele>571.75</ele><time>2026-05-02T15:40:27.406Z</time></trkpt><trkpt lat="46.3836283" lon="12.3519233"><ele>580.0</ele><time>2026-05-02T15:40:28.406Z</time></trkpt><trkpt lat="46.383485" lon="12.3520183"><ele>581.6666666666667</ele><time>2026-05-02T15:40:29.406Z</time></trkpt><trkpt lat="46.38334" lon="12.3520783"><ele>583.3333333333334</ele><time>2026-05-02T15:40:30.405Z</time></trkpt><trkpt lat="46.38319" lon="12.352105"><ele>585.0</ele><time>2026-05-02T15:40:31.406Z</time></trkpt><trkpt lat="46.3830383" lon="12.3521067"><ele>581.6666666666666</ele><time>2026-05-02T15:40:32.406Z</time></trkpt><trkpt lat="46.3828817" lon="12.3520933"><ele>578.3333333333333</ele><time>2026-05-02T15:40:33.406Z</time></trkpt><trkpt lat="46.382725" lon="12.352065"><ele>575.0</ele><time>2026-05-02T15:40:34.405Z</time></trkpt><trkpt lat="46.382565" lon="12.3520517"><ele>575.0</ele><time>2026-05-02T15:40:35.406Z</time></trkpt><trkpt lat="46.382415" lon="12.3520517"><ele>575.0</ele><time>2026-05-02T15:40:36.406Z</time></trkpt><trkpt lat="46.3822733" lon="12.3520467"><ele>575.0</ele><time>2026-05-02T15:40:37.406Z</time></trkpt><trkpt lat="46.3821167" lon="12.3520183"><ele>576.0</ele><time>2026-05-02T15:40:38.406Z</time></trkpt><trkpt lat="46.3819667" lon="12.35196"><ele>577.0</ele><time>2026-05-02T15:40:39.406Z</time></trkpt><trkpt lat="46.3818117" lon="12.3519"><ele>578.0</ele><time>2026-05-02T15:40:40.406Z</time></trkpt><trkpt lat="46.381645" lon="12.3518733"><ele>578.0</ele><time>2026-05-02T15:40:41.405Z</time></trkpt><trkpt lat="46.3814783" lon="12.351865"><ele>578.0</ele><time>2026-05-02T15:40:42.406Z</time></trkpt><trkpt lat="46.381315" lon="12.3518633"><ele>578.0</ele><time>2026-05-02T15:40:43.406Z</time></trkpt><trkpt lat="46.3811517" lon="12.3518633"><ele>578.6666666666666</ele><time>2026-05-02T15:40:44.406Z</time></trkpt><trkpt lat="46.3809883" lon="12.3518717"><ele>579.3333333333334</ele><time>2026-05-02T15:40:45.406Z</time></trkpt><trkpt lat="46.380825" lon="12.3519133"><ele>580.0</ele><time>2026-05-02T15:40:46.406Z</time></trkpt><trkpt lat="46.3806583" lon="12.351965"><ele>585.0</ele><time>2026-05-02T15:40:47.406Z</time></trkpt><trkpt lat="46.380495" lon="12.3520467"><ele>590.0</ele><time>2026-05-02T15:40:48.406Z</time></trkpt><trkpt lat="46.38035" lon="12.3521067"><ele>595.0</ele><time>2026-05-02T15:40:49.406Z</time></trkpt><trkpt lat="46.3801983" lon="12.352165"><ele>578.0</ele><time>2026-05-02T15:40:50.405Z</time></trkpt><trkpt lat="46.3800483" lon="12.35222"><ele>561.0</ele><time>2026-05-02T15:40:51.406Z</time></trkpt><trkpt lat="46.3799017" lon="12.352285"><ele>544.0</ele><time>2026-05-02T15:40:52.406Z</time></trkpt><trkpt lat="46.3797567" lon="12.35235"><ele>548.25</ele><time>2026-05-02T15:40:53.405Z</time></trkpt><trkpt lat="46.3796117" lon="12.3524167"><ele>552.5</ele><time>2026-05-02T15:40:54.405Z</time></trkpt><trkpt lat="46.3794717" lon="12.3524783"><ele>556.75</ele><time>2026-05-02T15:40:55.406Z</time></trkpt><trkpt lat="46.3793333" lon="12.3525183"><ele>561.0</ele><time>2026-05-02T15:40:56.405Z</time></trkpt><trkpt lat="46.379195" lon="12.3525417"><ele>561.0</ele><time>2026-05-02T15:40:57.406Z</time></trkpt><trkpt lat="46.379055" lon="12.3525533"><ele>561.0</ele><time>2026-05-02T15:40:58.405Z</time></trkpt><trkpt lat="46.37893" lon="12.3525767"><ele>561.0</ele><time>2026-05-02T15:40:59.405Z</time></trkpt><trkpt lat="46.3788017" lon="12.3526267"><ele>561.0</ele><time>2026-05-02T15:41:00.406Z</time></trkpt><trkpt lat="46.3786983" lon="12.3527217"><ele>561.75</ele><time>2026-05-02T15:41:01.406Z</time></trkpt><trkpt lat="46.37861" lon="12.352835"><ele>562.5</ele><time>2026-05-02T15:41:02.405Z</time></trkpt><trkpt lat="46.3785317" lon="12.353015"><ele>563.25</ele><time>2026-05-02T15:41:03.405Z</time></trkpt><trkpt lat="46.378455" lon="12.3532"><ele>564.0</ele><time>2026-05-02T15:41:04.406Z</time></trkpt><trkpt lat="46.378365" lon="12.3533767"><ele>564.0</ele><time>2026-05-02T15:41:05.406Z</time></trkpt><trkpt lat="46.3782583" lon="12.3535417"><ele>564.0</ele><time>2026-05-02T15:41:06.405Z</time></trkpt><trkpt lat="46.37813" lon="12.3536817"><ele>564.0</ele><time>2026-05-02T15:41:07.406Z</time></trkpt><trkpt lat="46.377995" lon="12.3538117"><ele>562.6666666666666</ele><time>2026-05-02T15:41:08.406Z</time></trkpt><trkpt lat="46.377875" lon="12.35392"><ele>561.3333333333333</ele><time>2026-05-02T15:41:09.406Z</time></trkpt><trkpt lat="46.3777283" lon="12.3540133"><ele>560.0</ele><time>2026-05-02T15:41:10.406Z</time></trkpt><trkpt lat="46.377575" lon="12.354095"><ele>560.0</ele><time>2026-05-02T15:41:11.406Z</time></trkpt><trkpt lat="46.3774033" lon="12.3541683"><ele>560.0</ele><time>2026-05-02T15:41:12.406Z</time></trkpt><trkpt lat="46.3772317" lon="12.3542417"><ele>560.0</ele><time>2026-05-02T15:41:13.406Z</time></trkpt><trkpt lat="46.3770617" lon="12.3543133"><ele>565.0</ele><time>2026-05-02T15:41:14.406Z</time></trkpt><trkpt lat="46.3769033" lon="12.3543883"><ele>570.0</ele><time>2026-05-02T15:41:15.405Z</time></trkpt><trkpt lat="46.37675" lon="12.3544567"><ele>575.0</ele><time>2026-05-02T15:41:16.406Z</time></trkpt><trkpt lat="46.3766033" lon="12.3545267"><ele>575.0</ele><time>2026-05-02T15:41:17.406Z</time></trkpt><trkpt lat="46.3764717" lon="12.3546"><ele>575.0</ele><time>2026-05-02T15:41:18.406Z</time></trkpt><trkpt lat="46.376335" lon="12.3546567"><ele>575.0</ele><time>2026-05-02T15:41:19.406Z</time></trkpt><trkpt lat="46.376205" lon="12.354685"><ele>575.0</ele><time>2026-05-02T15:41:20.406Z</time></trkpt><trkpt lat="46.3760783" lon="12.35467"><ele>574.3333333333333</ele><time>2026-05-02T15:41:21.406Z</time></trkpt><trkpt lat="46.3759283" lon="12.3545867"><ele>573.6666666666666</ele><time>2026-05-02T15:41:22.406Z</time></trkpt><trkpt lat="46.37578" lon="12.3544683"><ele>573.0</ele><time>2026-05-02T15:41:23.406Z</time></trkpt><trkpt lat="46.3756433" lon="12.3543683"><ele>566.0</ele><time>2026-05-02T15:41:24.406Z</time></trkpt><trkpt lat="46.3754933" lon="12.354275"><ele>559.0</ele><time>2026-05-02T15:41:25.406Z</time></trkpt><trkpt lat="46.3753317" lon="12.3542083"><ele>552.0</ele><time>2026-05-02T15:41:26.405Z</time></trkpt><trkpt lat="46.3751583" lon="12.3541617"><ele>552.0</ele><time>2026-05-02T15:41:27.406Z</time></trkpt><trkpt lat="46.3749933" lon="12.3541067"><ele>552.0</ele><time>2026-05-02T15:41:28.406Z</time></trkpt><trkpt lat="46.37483" lon="12.3540617"><ele>552.0</ele><time>2026-05-02T15:41:29.406Z</time></trkpt><trkpt lat="46.37466" lon="12.3540283"><ele>551.3333333333334</ele><time>2026-05-02T15:41:30.406Z</time></trkpt><trkpt lat="46.3744917" lon="12.3540033"><ele>550.6666666666667</ele><time>2026-05-02T15:41:31.406Z</time></trkpt><trkpt lat="46.3743233" lon="12.3540083"><ele>550.0</ele><time>2026-05-02T15:41:32.406Z</time></trkpt><trkpt lat="46.3741283" lon="12.35409"><ele>550.0</ele><time>2026-05-02T15:41:33.405Z</time></trkpt><trkpt lat="46.373955" lon="12.3541483"><ele>550.0</ele><time>2026-05-02T15:41:34.405Z</time></trkpt><trkpt lat="46.3737783" lon="12.3541983"><ele>550.0</ele><time>2026-05-02T15:41:35.406Z</time></trkpt><trkpt lat="46.3736083" lon="12.354265"><ele>553.6666666666667</ele><time>2026-05-02T15:41:36.406Z</time></trkpt><trkpt lat="46.373445" lon="12.354335"><ele>557.3333333333334</ele><time>2026-05-02T15:41:37.406Z</time></trkpt><trkpt lat="46.3732783" lon="12.3543933"><ele>561.0</ele><time>2026-05-02T15:41:38.406Z</time></trkpt><trkpt lat="46.37312" lon="12.35445"><ele>564.6666666666666</ele><time>2026-05-02T15:41:39.406Z</time></trkpt><trkpt lat="46.3729483" lon="12.3545083"><ele>568.3333333333333</ele><time>2026-05-02T15:41:40.406Z</time></trkpt><trkpt lat="46.37278" lon="12.3545683"><ele>572.0</ele><time>2026-05-02T15:41:41.405Z</time></trkpt><trkpt lat="46.3726217" lon="12.3546317"><ele>572.0</ele><time>2026-05-02T15:41:42.406Z</time></trkpt><trkpt lat="46.3724683" lon="12.3546917"><ele>572.0</ele><time>2026-05-02T15:41:43.406Z</time></trkpt><trkpt lat="46.3723283" lon="12.3547417"><ele>572.0</ele><time>2026-05-02T15:41:44.406Z</time></trkpt><trkpt lat="46.3721917" lon="12.35479"><ele>572.0</ele><time>2026-05-02T15:41:45.406Z</time></trkpt><trkpt lat="46.3720717" lon="12.354845"><ele>562.25</ele><time>2026-05-02T15:41:46.406Z</time></trkpt><trkpt lat="46.3719283" lon="12.354885"><ele>552.5</ele><time>2026-05-02T15:41:47.406Z</time></trkpt><trkpt lat="46.3717883" lon="12.3548983"><ele>542.75</ele><time>2026-05-02T15:41:48.406Z</time></trkpt><trkpt lat="46.3716433" lon="12.3549067"><ele>533.0</ele><time>2026-05-02T15:41:49.406Z</time></trkpt><trkpt lat="46.371505" lon="12.3549183"><ele>533.0</ele><time>2026-05-02T15:41:50.406Z</time></trkpt><trkpt lat="46.3713667" lon="12.3549667"><ele>533.0</ele><time>2026-05-02T15:41:51.406Z</time></trkpt><trkpt lat="46.3712283" lon="12.355015"><ele>533.0</ele><time>2026-05-02T15:41:52.406Z</time></trkpt><trkpt lat="46.3710783" lon="12.3550383"><ele>533.0</ele><time>2026-05-02T15:41:53.406Z</time></trkpt><trkpt lat="46.37092" lon="12.3550033"><ele>532.25</ele><time>2026-05-02T15:41:54.406Z</time></trkpt><trkpt lat="46.3707867" lon="12.35499"><ele>531.5</ele><time>2026-05-02T15:41:55.406Z</time></trkpt><trkpt lat="46.3706617" lon="12.35494"><ele>530.75</ele><time>2026-05-02T15:41:56.405Z</time></trkpt><trkpt lat="46.37053" lon="12.3548567"><ele>530.0</ele><time>2026-05-02T15:41:57.406Z</time></trkpt><trkpt lat="46.370385" lon="12.3547633"><ele>537.0</ele><time>2026-05-02T15:41:58.406Z</time></trkpt><trkpt lat="46.3702333" lon="12.354665"><ele>544.0</ele><time>2026-05-02T15:41:59.406Z</time></trkpt><trkpt lat="46.3700883" lon="12.354575"><ele>551.0</ele><time>2026-05-02T15:42:00.406Z</time></trkpt><trkpt lat="46.369955" lon="12.3544717"><ele>551.0</ele><time>2026-05-02T15:42:01.406Z</time></trkpt><trkpt lat="46.3698117" lon="12.3543767"><ele>551.0</ele><time>2026-05-02T15:42:02.406Z</time></trkpt><trkpt lat="46.369665" lon="12.3543133"><ele>551.0</ele><time>2026-05-02T15:42:03.406Z</time></trkpt><trkpt lat="46.36952" lon="12.35429"><ele>548.25</ele><time>2026-05-02T15:42:04.406Z</time></trkpt><trkpt lat="46.36937" lon="12.354245"><ele>545.5</ele><time>2026-05-02T15:42:05.406Z</time></trkpt><trkpt lat="46.36922" lon="12.354225"><ele>542.75</ele><time>2026-05-02T15:42:06.406Z</time></trkpt><trkpt lat="46.3690867" lon="12.3542133"><ele>540.0</ele><time>2026-05-02T15:42:07.405Z</time></trkpt><trkpt lat="46.368945" lon="12.3542367"><ele>538.25</ele><time>2026-05-02T15:42:08.406Z</time></trkpt><trkpt lat="46.3688183" lon="12.35427"><ele>536.5</ele><time>2026-05-02T15:42:09.406Z</time></trkpt><trkpt lat="46.3686933" lon="12.354285"><ele>534.75</ele><time>2026-05-02T15:42:10.406Z</time></trkpt><trkpt lat="46.3685767" lon="12.3542383"><ele>533.0</ele><time>2026-05-02T15:42:11.406Z</time></trkpt><trkpt lat="46.3684833" lon="12.3541283"><ele>533.0</ele><time>2026-05-02T15:42:12.406Z</time></trkpt><trkpt lat="46.3684017" lon="12.3539617"><ele>533.0</ele><time>2026-05-02T15:42:13.406Z</time></trkpt><trkpt lat="46.3683267" lon="12.3537567"><ele>533.0</ele><time>2026-05-02T15:42:14.406Z</time></trkpt><trkpt lat="46.3682333" lon="12.353535"><ele>530.3333333333333</ele><time>2026-05-02T15:42:15.406Z</time></trkpt><trkpt lat="46.368105" lon="12.35335"><ele>527.6666666666666</ele><time>2026-05-02T15:42:16.405Z</time></trkpt><trkpt lat="46.3679733" lon="12.3531683"><ele>525.0</ele><time>2026-05-02T15:42:17.406Z</time></trkpt><trkpt lat="46.36783" lon="12.352995"><ele>532.0</ele><time>2026-05-02T15:42:18.405Z</time></trkpt><trkpt lat="46.3676767" lon="12.352815"><ele>539.0</ele><time>2026-05-02T15:42:19.406Z</time></trkpt><trkpt lat="46.3675333" lon="12.352635"><ele>546.0</ele><time>2026-05-02T15:42:20.406Z</time></trkpt><trkpt lat="46.3673767" lon="12.3524767"><ele>546.0</ele><time>2026-05-02T15:42:21.406Z</time></trkpt><trkpt lat="46.367195" lon="12.35235"><ele>546.0</ele><time>2026-05-02T15:42:22.406Z</time></trkpt><trkpt lat="46.36702" lon="12.3521967"><ele>546.0</ele><time>2026-05-02T15:42:23.406Z</time></trkpt><trkpt lat="46.3668383" lon="12.3520433"><ele>546.0</ele><time>2026-05-02T15:42:24.406Z</time></trkpt><trkpt lat="46.3666567" lon="12.351905"><ele>546.0</ele><time>2026-05-02T15:42:25.406Z</time></trkpt><trkpt lat="46.3664817" lon="12.3517667"><ele>546.0</ele><time>2026-05-02T15:42:26.406Z</time></trkpt><trkpt lat="46.3663083" lon="12.3516267"><ele>545.6666666666666</ele><time>2026-05-02T15:42:27.406Z</time></trkpt><trkpt lat="46.366135" lon="12.3514667"><ele>545.3333333333333</ele><time>2026-05-02T15:42:28.406Z</time></trkpt><trkpt lat="46.3659667" lon="12.3512933"><ele>545.0</ele><time>2026-05-02T15:42:29.406Z</time></trkpt><trkpt lat="46.3658017" lon="12.3511017"><ele>545.0</ele><time>2026-05-02T15:42:30.406Z</time></trkpt><trkpt lat="46.3656383" lon="12.3509183"><ele>545.0</ele><time>2026-05-02T15:42:31.406Z</time></trkpt><trkpt lat="46.365485" lon="12.3507467"><ele>545.0</ele><time>2026-05-02T15:42:32.406Z</time></trkpt><trkpt lat="46.3653383" lon="12.3505767"><ele>540.0</ele><time>2026-05-02T15:42:33.405Z</time></trkpt><trkpt lat="46.3652133" lon="12.35038"><ele>535.0</ele><time>2026-05-02T15:42:34.405Z</time></trkpt><trkpt lat="46.3651033" lon="12.3502"><ele>530.0</ele><time>2026-05-02T15:42:35.406Z</time></trkpt><trkpt lat="46.3650117" lon="12.3500267"><ele>530.0</ele><time>2026-05-02T15:42:36.405Z</time></trkpt><trkpt lat="46.3649317" lon="12.3498567"><ele>530.0</ele><time>2026-05-02T15:42:37.406Z</time></trkpt><trkpt lat="46.3648967" lon="12.3496483"><ele>530.0</ele><time>2026-05-02T15:42:38.406Z</time></trkpt><trkpt lat="46.3648533" lon="12.3494483"><ele>530.0</ele><time>2026-05-02T15:42:39.406Z</time></trkpt><trkpt lat="46.3648333" lon="12.3492417"><ele>527.0</ele><time>2026-05-02T15:42:40.406Z</time></trkpt><trkpt lat="46.3648267" lon="12.349045"><ele>524.0</ele><time>2026-05-02T15:42:41.406Z</time></trkpt><trkpt lat="46.3647817" lon="12.3488383"><ele>521.0</ele><time>2026-05-02T15:42:42.406Z</time></trkpt><trkpt lat="46.3647117" lon="12.3486267"><ele>518.0</ele><time>2026-05-02T15:42:43.405Z</time></trkpt><trkpt lat="46.3645817" lon="12.3484183"><ele>518.0</ele><time>2026-05-02T15:42:44.406Z</time></trkpt><trkpt lat="46.3644767" lon="12.3482033"><ele>518.0</ele><time>2026-05-02T15:42:45.405Z</time></trkpt><trkpt lat="46.3643733" lon="12.3479933"><ele>518.0</ele><time>2026-05-02T15:42:46.406Z</time></trkpt><trkpt lat="46.36427" lon="12.347775"><ele>523.6666666666666</ele><time>2026-05-02T15:42:47.406Z</time></trkpt><trkpt lat="46.3641833" lon="12.347515"><ele>529.3333333333334</ele><time>2026-05-02T15:42:48.405Z</time></trkpt><trkpt lat="46.3641" lon="12.3472633"><ele>535.0</ele><time>2026-05-02T15:42:49.406Z</time></trkpt><trkpt lat="46.3640017" lon="12.347005"><ele>534.0</ele><time>2026-05-02T15:42:50.406Z</time></trkpt><trkpt lat="46.363905" lon="12.346735"><ele>533.0</ele><time>2026-05-02T15:42:51.405Z</time></trkpt><trkpt lat="46.3638083" lon="12.3464983"><ele>532.0</ele><time>2026-05-02T15:42:52.406Z</time></trkpt><trkpt lat="46.36371" lon="12.3462783"><ele>532.0</ele><time>2026-05-02T15:42:53.405Z</time></trkpt><trkpt lat="46.3636033" lon="12.3460683"><ele>532.0</ele><time>2026-05-02T15:42:54.406Z</time></trkpt><trkpt lat="46.3634683" lon="12.3459167"><ele>532.0</ele><time>2026-05-02T15:42:55.406Z</time></trkpt><trkpt lat="46.3633317" lon="12.3457783"><ele>532.0</ele><time>2026-05-02T15:42:56.406Z</time></trkpt><trkpt lat="46.3631983" lon="12.3456667"><ele>532.0</ele><time>2026-05-02T15:42:57.406Z</time></trkpt><trkpt lat="46.36305" lon="12.3456133"><ele>532.0</ele><time>2026-05-02T15:42:58.406Z</time></trkpt><trkpt lat="46.3629067" lon="12.3456083"><ele>529.75</ele><time>2026-05-02T15:42:59.406Z</time></trkpt><trkpt lat="46.36277" lon="12.3456167"><ele>527.5</ele><time>2026-05-02T15:43:00.406Z</time></trkpt><trkpt lat="46.362655" lon="12.34558"><ele>525.25</ele><time>2026-05-02T15:43:01.406Z</time></trkpt><trkpt lat="46.3625483" lon="12.34549"><ele>523.0</ele><time>2026-05-02T15:43:02.405Z</time></trkpt><trkpt lat="46.3624567" lon="12.3453267"><ele>523.0</ele><time>2026-05-02T15:43:03.405Z</time></trkpt><trkpt lat="46.3623867" lon="12.3451383"><ele>523.0</ele><time>2026-05-02T15:43:04.406Z</time></trkpt><trkpt lat="46.3623333" lon="12.3449283"><ele>523.0</ele><time>2026-05-02T15:43:05.406Z</time></trkpt><trkpt lat="46.36228" lon="12.3447117"><ele>519.0</ele><time>2026-05-02T15:43:06.406Z</time></trkpt><trkpt lat="46.3622017" lon="12.3445067"><ele>515.0</ele><time>2026-05-02T15:43:07.406Z</time></trkpt><trkpt lat="46.3621317" lon="12.34432"><ele>511.0</ele><time>2026-05-02T15:43:08.406Z</time></trkpt><trkpt lat="46.3620233" lon="12.3441483"><ele>511.0</ele><time>2026-05-02T15:43:09.405Z</time></trkpt><trkpt lat="46.3618967" lon="12.3439583"><ele>511.0</ele><time>2026-05-02T15:43:10.406Z</time></trkpt><trkpt lat="46.3617717" lon="12.34376"><ele>511.0</ele><time>2026-05-02T15:43:11.406Z</time></trkpt><trkpt lat="46.3616517" lon="12.34357"><ele>510.33333333333337</ele><time>2026-05-02T15:43:12.406Z</time></trkpt><trkpt lat="46.361525" lon="12.3433733"><ele>509.66666666666663</ele><time>2026-05-02T15:43:13.405Z</time></trkpt><trkpt lat="46.3613933" lon="12.3431817"><ele>509.0</ele><time>2026-05-02T15:43:14.406Z</time></trkpt><trkpt lat="46.3612533" lon="12.3429833"><ele>509.0</ele><time>2026-05-02T15:43:15.406Z</time></trkpt><trkpt lat="46.361115" lon="12.3427667"><ele>509.0</ele><time>2026-05-02T15:43:16.406Z</time></trkpt><trkpt lat="46.360995" lon="12.342525"><ele>509.0</ele><time>2026-05-02T15:43:17.406Z</time></trkpt><trkpt lat="46.36089" lon="12.3422867"><ele>513.6666666666666</ele><time>2026-05-02T15:43:18.406Z</time></trkpt><trkpt lat="46.3607867" lon="12.342065"><ele>518.3333333333334</ele><time>2026-05-02T15:43:19.406Z</time></trkpt><trkpt lat="46.3606767" lon="12.3418583"><ele>523.0</ele><time>2026-05-02T15:43:20.405Z</time></trkpt><trkpt lat="46.36056" lon="12.3416467"><ele>520.3333333333334</ele><time>2026-05-02T15:43:21.406Z</time></trkpt><trkpt lat="46.3604433" lon="12.3414317"><ele>517.6666666666666</ele><time>2026-05-02T15:43:22.406Z</time></trkpt><trkpt lat="46.3603383" lon="12.3412233"><ele>515.0</ele><time>2026-05-02T15:43:23.405Z</time></trkpt><trkpt lat="46.360235" lon="12.3410317"><ele>515.0</ele><time>2026-05-02T15:43:24.406Z</time></trkpt><trkpt lat="46.360115" lon="12.3408733"><ele>515.0</ele><time>2026-05-02T15:43:25.405Z</time></trkpt><trkpt lat="46.3600133" lon="12.340715"><ele>515.0</ele><time>2026-05-02T15:43:26.406Z</time></trkpt><trkpt lat="46.3598983" lon="12.3405667"><ele>511.0</ele><time>2026-05-02T15:43:27.406Z</time></trkpt><trkpt lat="46.3597567" lon="12.340455"><ele>507.0</ele><time>2026-05-02T15:43:28.406Z</time></trkpt><trkpt lat="46.3595967" lon="12.3403633"><ele>503.0</ele><time>2026-05-02T15:43:29.406Z</time></trkpt><trkpt lat="46.35945" lon="12.3402733"><ele>503.0</ele><time>2026-05-02T15:43:30.406Z</time></trkpt><trkpt lat="46.3593117" lon="12.340155"><ele>503.0</ele><time>2026-05-02T15:43:31.405Z</time></trkpt><trkpt lat="46.3591683" lon="12.3400617"><ele>503.0</ele><time>2026-05-02T15:43:32.406Z</time></trkpt><trkpt lat="46.3590283" lon="12.33998"><ele>503.0</ele><time>2026-05-02T15:43:33.406Z</time></trkpt><trkpt lat="46.35889" lon="12.339895"><ele>503.0</ele><time>2026-05-02T15:43:34.405Z</time></trkpt><trkpt lat="46.3587483" lon="12.3398133"><ele>503.0</ele><time>2026-05-02T15:43:35.405Z</time></trkpt><trkpt lat="46.358605" lon="12.33972"><ele>515.6666666666666</ele><time>2026-05-02T15:43:36.406Z</time></trkpt><trkpt lat="46.35846" lon="12.3396233"><ele>528.3333333333334</ele><time>2026-05-02T15:43:37.406Z</time></trkpt><trkpt lat="46.35831" lon="12.33953"><ele>541.0</ele><time>2026-05-02T15:43:38.405Z</time></trkpt><trkpt lat="46.3581517" lon="12.3394433"><ele>531.3333333333334</ele><time>2026-05-02T15:43:39.406Z</time></trkpt><trkpt lat="46.3579683" lon="12.33937"><ele>521.6666666666666</ele><time>2026-05-02T15:43:40.406Z</time></trkpt><trkpt lat="46.357785" lon="12.33931"><ele>512.0</ele><time>2026-05-02T15:43:41.406Z</time></trkpt><trkpt lat="46.3576" lon="12.3392667"><ele>512.0</ele><time>2026-05-02T15:43:42.406Z</time></trkpt><trkpt lat="46.3574317" lon="12.3392083"><ele>512.0</ele><time>2026-05-02T15:43:43.405Z</time></trkpt><trkpt lat="46.35727" lon="12.3391533"><ele>512.0</ele><time>2026-05-02T15:43:44.406Z</time></trkpt><trkpt lat="46.3571167" lon="12.33906"><ele>515.0</ele><time>2026-05-02T15:43:45.406Z</time></trkpt><trkpt lat="46.3569667" lon="12.33891"><ele>518.0</ele><time>2026-05-02T15:43:46.405Z</time></trkpt><trkpt lat="46.3568033" lon="12.3387633"><ele>521.0</ele><time>2026-05-02T15:43:47.406Z</time></trkpt><trkpt lat="46.3566417" lon="12.3386217"><ele>521.0</ele><time>2026-05-02T15:43:48.406Z</time></trkpt><trkpt lat="46.35648" lon="12.3384817"><ele>521.0</ele><time>2026-05-02T15:43:49.405Z</time></trkpt><trkpt lat="46.3563083" lon="12.33836"><ele>521.0</ele><time>2026-05-02T15:43:50.406Z</time></trkpt><trkpt lat="46.3561283" lon="12.3382517"><ele>513.0</ele><time>2026-05-02T15:43:51.405Z</time></trkpt><trkpt lat="46.3559433" lon="12.33814"><ele>505.0</ele><time>2026-05-02T15:43:52.406Z</time></trkpt><trkpt lat="46.355755" lon="12.338045"><ele>497.0</ele><time>2026-05-02T15:43:53.406Z</time></trkpt><trkpt lat="46.3555667" lon="12.3379683"><ele>507.3333333333333</ele><time>2026-05-02T15:43:54.406Z</time></trkpt><trkpt lat="46.3553917" lon="12.3378933"><ele>517.6666666666666</ele><time>2026-05-02T15:43:55.406Z</time></trkpt><trkpt lat="46.3552217" lon="12.3378267"><ele>528.0</ele><time>2026-05-02T15:43:56.405Z</time></trkpt><trkpt lat="46.3550567" lon="12.337765"><ele>528.0</ele><time>2026-05-02T15:43:57.406Z</time></trkpt><trkpt lat="46.3549" lon="12.3377033"><ele>528.0</ele><time>2026-05-02T15:43:58.405Z</time></trkpt><trkpt lat="46.3547467" lon="12.337645"><ele>528.0</ele><time>2026-05-02T15:43:59.405Z</time></trkpt><trkpt lat="46.3546017" lon="12.3375867"><ele>521.75</ele><time>2026-05-02T15:44:00.406Z</time></trkpt><trkpt lat="46.35448" lon="12.3375267"><ele>515.5</ele><time>2026-05-02T15:44:01.406Z</time></trkpt><trkpt lat="46.3543683" lon="12.3374833"><ele>509.25</ele><time>2026-05-02T15:44:02.406Z</time></trkpt><trkpt lat="46.3542683" lon="12.3374267"><ele>503.0</ele><time>2026-05-02T15:44:03.406Z</time></trkpt><trkpt lat="46.3541583" lon="12.3373717"><ele>503.0</ele><time>2026-05-02T15:44:04.405Z</time></trkpt><trkpt lat="46.3540433" lon="12.3373017"><ele>503.0</ele><time>2026-05-02T15:44:05.406Z</time></trkpt><trkpt lat="46.3539283" lon="12.3372317"><ele>503.0</ele><time>2026-05-02T15:44:06.405Z</time></trkpt><trkpt lat="46.353805" lon="12.33718"><ele>503.0</ele><time>2026-05-02T15:44:07.406Z</time></trkpt><trkpt lat="46.3536767" lon="12.3371083"><ele>511.0</ele><time>2026-05-02T15:44:08.406Z</time></trkpt><trkpt lat="46.3535467" lon="12.3370333"><ele>519.0</ele><time>2026-05-02T15:44:09.406Z</time></trkpt><trkpt lat="46.3534067" lon="12.33696"><ele>527.0</ele><time>2026-05-02T15:44:10.406Z</time></trkpt><trkpt lat="46.3532517" lon="12.3368983"><ele>527.0</ele><time>2026-05-02T15:44:11.406Z</time></trkpt><trkpt lat="46.3531083" lon="12.336875"><ele>527.0</ele><time>2026-05-02T15:44:12.406Z</time></trkpt><trkpt lat="46.3529483" lon="12.33688"><ele>527.0</ele><time>2026-05-02T15:44:13.406Z</time></trkpt><trkpt lat="46.3527833" lon="12.3368933"><ele>520.0</ele><time>2026-05-02T15:44:14.406Z</time></trkpt><trkpt lat="46.3526167" lon="12.3369067"><ele>513.0</ele><time>2026-05-02T15:44:15.406Z</time></trkpt><trkpt lat="46.35245" lon="12.3369233"><ele>506.0</ele><time>2026-05-02T15:44:16.406Z</time></trkpt><trkpt lat="46.3522933" lon="12.336935"><ele>504.5</ele><time>2026-05-02T15:44:17.406Z</time></trkpt><trkpt lat="46.3521467" lon="12.3369417"><ele>503.0</ele><time>2026-05-02T15:44:18.406Z</time></trkpt><trkpt lat="46.3520067" lon="12.3369583"><ele>501.5</ele><time>2026-05-02T15:44:19.406Z</time></trkpt><trkpt lat="46.3518683" lon="12.3369617"><ele>500.0</ele><time>2026-05-02T15:44:20.406Z</time></trkpt><trkpt lat="46.351725" lon="12.33695"><ele>500.0</ele><time>2026-05-02T15:44:21.406Z</time></trkpt><trkpt lat="46.3516017" lon="12.3369"><ele>500.0</ele><time>2026-05-02T15:44:22.405Z</time></trkpt><trkpt lat="46.351485" lon="12.3368267"><ele>500.0</ele><time>2026-05-02T15:44:23.406Z</time></trkpt><trkpt lat="46.3513933" lon="12.3367433"><ele>500.0</ele><time>2026-05-02T15:44:24.405Z</time></trkpt><trkpt lat="46.351305" lon="12.3366583"><ele>499.5</ele><time>2026-05-02T15:44:25.406Z</time></trkpt><trkpt lat="46.3512233" lon="12.33656"><ele>499.0</ele><time>2026-05-02T15:44:26.405Z</time></trkpt><trkpt lat="46.3511283" lon="12.336445"><ele>498.5</ele><time>2026-05-02T15:44:27.406Z</time></trkpt><trkpt lat="46.3510317" lon="12.3362967"><ele>498.0</ele><time>2026-05-02T15:44:28.406Z</time></trkpt><trkpt lat="46.3509333" lon="12.3361383"><ele>497.75</ele><time>2026-05-02T15:44:29.406Z</time></trkpt><trkpt lat="46.3508317" lon="12.3359917"><ele>497.5</ele><time>2026-05-02T15:44:30.406Z</time></trkpt><trkpt lat="46.3507383" lon="12.3358333"><ele>497.25</ele><time>2026-05-02T15:44:31.406Z</time></trkpt><trkpt lat="46.35064" lon="12.33567"><ele>497.0</ele><time>2026-05-02T15:44:32.406Z</time></trkpt><trkpt lat="46.3505117" lon="12.335525"><ele>497.0</ele><time>2026-05-02T15:44:33.406Z</time></trkpt><trkpt lat="46.35036" lon="12.3353817"><ele>497.0</ele><time>2026-05-02T15:44:34.406Z</time></trkpt><trkpt lat="46.3502283" lon="12.3352083"><ele>497.0</ele><time>2026-05-02T15:44:35.406Z</time></trkpt><trkpt lat="46.350105" lon="12.3350233"><ele>497.0</ele><time>2026-05-02T15:44:36.406Z</time></trkpt><trkpt lat="46.3499783" lon="12.3348517"><ele>497.0</ele><time>2026-05-02T15:44:37.405Z</time></trkpt><trkpt lat="46.3498433" lon="12.3346817"><ele>497.0</ele><time>2026-05-02T15:44:38.406Z</time></trkpt><trkpt lat="46.3497033" lon="12.3345083"><ele>496.3333333333333</ele><time>2026-05-02T15:44:39.405Z</time></trkpt><trkpt lat="46.3495567" lon="12.3343417"><ele>495.66666666666663</ele><time>2026-05-02T15:44:40.406Z</time></trkpt><trkpt lat="46.3494083" lon="12.33419"><ele>495.0</ele><time>2026-05-02T15:44:41.406Z</time></trkpt><trkpt lat="46.34926" lon="12.3340417"><ele>495.0</ele><time>2026-05-02T15:44:42.405Z</time></trkpt><trkpt lat="46.3491133" lon="12.3338933"><ele>495.0</ele><time>2026-05-02T15:44:43.406Z</time></trkpt><trkpt lat="46.3489717" lon="12.3337483"><ele>495.0</ele><time>2026-05-02T15:44:44.406Z</time></trkpt><trkpt lat="46.3488317" lon="12.3336133"><ele>496.66666666666663</ele><time>2026-05-02T15:44:45.406Z</time></trkpt><trkpt lat="46.3486817" lon="12.3334667"><ele>498.3333333333333</ele><time>2026-05-02T15:44:46.405Z</time></trkpt><trkpt lat="46.3485283" lon="12.3333467"><ele>500.0</ele><time>2026-05-02T15:44:47.405Z</time></trkpt><trkpt lat="46.3483717" lon="12.3332383"><ele>500.0</ele><time>2026-05-02T15:44:48.406Z</time></trkpt><trkpt lat="46.348215" lon="12.33313"><ele>500.0</ele><time>2026-05-02T15:44:49.406Z</time></trkpt><trkpt lat="46.3480667" lon="12.33303"><ele>500.0</ele><time>2026-05-02T15:44:50.406Z</time></trkpt><trkpt lat="46.347915" lon="12.3329417"><ele>504.66666666666663</ele><time>2026-05-02T15:44:51.406Z</time></trkpt><trkpt lat="46.34777" lon="12.3328567"><ele>509.33333333333337</ele><time>2026-05-02T15:44:52.406Z</time></trkpt><trkpt lat="46.3476267" lon="12.332775"><ele>514.0</ele><time>2026-05-02T15:44:53.406Z</time></trkpt><trkpt lat="46.347485" lon="12.3326633"><ele>514.0</ele><time>2026-05-02T15:44:54.405Z</time></trkpt><trkpt lat="46.3473417" lon="12.332515"><ele>514.0</ele><time>2026-05-02T15:44:55.406Z</time></trkpt><trkpt lat="46.3472117" lon="12.3323467"><ele>514.0</ele><time>2026-05-02T15:44:56.406Z</time></trkpt><trkpt lat="46.3470933" lon="12.33219"><ele>512.0</ele><time>2026-05-02T15:44:57.406Z</time></trkpt><trkpt lat="46.34698" lon="12.3320383"><ele>510.0</ele><time>2026-05-02T15:44:58.405Z</time></trkpt><trkpt lat="46.34686" lon="12.3318817"><ele>508.0</ele><time>2026-05-02T15:44:59.406Z</time></trkpt><trkpt lat="46.3467317" lon="12.33172"><ele>508.0</ele><time>2026-05-02T15:45:00.406Z</time></trkpt><trkpt lat="46.34657" lon="12.331585"><ele>508.0</ele><time>2026-05-02T15:45:01.406Z</time></trkpt><trkpt lat="46.3464033" lon="12.3314567"><ele>508.0</ele><time>2026-05-02T15:45:02.405Z</time></trkpt><trkpt lat="46.346235" lon="12.3313367"><ele>511.0</ele><time>2026-05-02T15:45:03.406Z</time></trkpt><trkpt lat="46.3460717" lon="12.33121"><ele>514.0</ele><time>2026-05-02T15:45:04.405Z</time></trkpt><trkpt lat="46.3459067" lon="12.331085"><ele>517.0</ele><time>2026-05-02T15:45:05.406Z</time></trkpt><trkpt lat="46.3457383" lon="12.330975"><ele>517.0</ele><time>2026-05-02T15:45:06.405Z</time></trkpt><trkpt lat="46.34557" lon="12.3308833"><ele>517.0</ele><time>2026-05-02T15:45:07.406Z</time></trkpt><trkpt lat="46.34542" lon="12.3307583"><ele>517.0</ele><time>2026-05-02T15:45:08.406Z</time></trkpt><trkpt lat="46.3452817" lon="12.3306383"><ele>524.3333333333334</ele><time>2026-05-02T15:45:09.406Z</time></trkpt><trkpt lat="46.3451517" lon="12.3305017"><ele>531.6666666666666</ele><time>2026-05-02T15:45:10.406Z</time></trkpt><trkpt lat="46.34504" lon="12.3303733"><ele>539.0</ele><time>2026-05-02T15:45:11.406Z</time></trkpt><trkpt lat="46.34491" lon="12.330275"><ele>539.0</ele><time>2026-05-02T15:45:12.406Z</time></trkpt><trkpt lat="46.3447433" lon="12.3302233"><ele>539.0</ele><time>2026-05-02T15:45:13.406Z</time></trkpt><trkpt lat="46.3445583" lon="12.3302017"><ele>539.0</ele><time>2026-05-02T15:45:14.405Z</time></trkpt><trkpt lat="46.3443717" lon="12.3301783"><ele>532.3333333333333</ele><time>2026-05-02T15:45:15.406Z</time></trkpt><trkpt lat="46.3441983" lon="12.3301433"><ele>525.6666666666666</ele><time>2026-05-02T15:45:16.405Z</time></trkpt><trkpt lat="46.344025" lon="12.3301167"><ele>519.0</ele><time>2026-05-02T15:45:17.406Z</time></trkpt><trkpt lat="46.3438517" lon="12.3301083"><ele>518.0</ele><time>2026-05-02T15:45:18.405Z</time></trkpt><trkpt lat="46.3436917" lon="12.3301233"><ele>517.0</ele><time>2026-05-02T15:45:19.406Z</time></trkpt><trkpt lat="46.3435383" lon="12.3301633"><ele>516.0</ele><time>2026-05-02T15:45:20.406Z</time></trkpt><trkpt lat="46.3433967" lon="12.330195"><ele>516.0</ele><time>2026-05-02T15:45:21.406Z</time></trkpt><trkpt lat="46.3432467" lon="12.330215"><ele>516.0</ele><time>2026-05-02T15:45:22.406Z</time></trkpt><trkpt lat="46.3430717" lon="12.3302117"><ele>516.0</ele><time>2026-05-02T15:45:23.406Z</time></trkpt><trkpt lat="46.3428917" lon="12.33018"><ele>513.0</ele><time>2026-05-02T15:45:24.406Z</time></trkpt><trkpt lat="46.342725" lon="12.330135"><ele>510.0</ele><time>2026-05-02T15:45:25.405Z</time></trkpt><trkpt lat="46.34257" lon="12.3300967"><ele>507.0</ele><time>2026-05-02T15:45:26.406Z</time></trkpt><trkpt lat="46.342425" lon="12.33004"><ele>507.0</ele><time>2026-05-02T15:45:27.405Z</time></trkpt><trkpt lat="46.3422867" lon="12.3299633"><ele>507.0</ele><time>2026-05-02T15:45:28.405Z</time></trkpt><trkpt lat="46.342145" lon="12.3299233"><ele>507.0</ele><time>2026-05-02T15:45:29.406Z</time></trkpt><trkpt lat="46.341985" lon="12.3299383"><ele>508.0</ele><time>2026-05-02T15:45:30.406Z</time></trkpt><trkpt lat="46.3418267" lon="12.3299983"><ele>509.0</ele><time>2026-05-02T15:45:31.406Z</time></trkpt><trkpt lat="46.3416667" lon="12.3300767"><ele>510.0</ele><time>2026-05-02T15:45:32.406Z</time></trkpt><trkpt lat="46.3415117" lon="12.33016"><ele>519.6666666666666</ele><time>2026-05-02T15:45:33.406Z</time></trkpt><trkpt lat="46.341335" lon="12.3302367"><ele>529.3333333333333</ele><time>2026-05-02T15:45:34.405Z</time></trkpt><trkpt lat="46.3411683" lon="12.3302867"><ele>539.0</ele><time>2026-05-02T15:45:35.405Z</time></trkpt><trkpt lat="46.3410067" lon="12.3303033"><ele>539.0</ele><time>2026-05-02T15:45:36.406Z</time></trkpt><trkpt lat="46.3408483" lon="12.330305"><ele>539.0</ele><time>2026-05-02T15:45:37.406Z</time></trkpt><trkpt lat="46.3406983" lon="12.3303333"><ele>539.0</ele><time>2026-05-02T15:45:38.406Z</time></trkpt><trkpt lat="46.3405617" lon="12.330365"><ele>539.0</ele><time>2026-05-02T15:45:39.406Z</time></trkpt><trkpt lat="46.3404233" lon="12.3304583"><ele>531.0</ele><time>2026-05-02T15:45:40.406Z</time></trkpt><trkpt lat="46.34031" lon="12.33058"><ele>523.0</ele><time>2026-05-02T15:45:41.405Z</time></trkpt><trkpt lat="46.3401967" lon="12.330675"><ele>515.0</ele><time>2026-05-02T15:45:42.406Z</time></trkpt><trkpt lat="46.340065" lon="12.3307567"><ele>507.0</ele><time>2026-05-02T15:45:43.405Z</time></trkpt><trkpt lat="46.3399233" lon="12.330815"><ele>507.0</ele><time>2026-05-02T15:45:44.406Z</time></trkpt><trkpt lat="46.3397683" lon="12.3308683"><ele>507.0</ele><time>2026-05-02T15:45:45.406Z</time></trkpt><trkpt lat="46.3396233" lon="12.33093"><ele>507.0</ele><time>2026-05-02T15:45:46.406Z</time></trkpt><trkpt lat="46.339475" lon="12.3309917"><ele>514.3333333333334</ele><time>2026-05-02T15:45:47.406Z</time></trkpt><trkpt lat="46.3393167" lon="12.3310467"><ele>521.6666666666667</ele><time>2026-05-02T15:45:48.405Z</time></trkpt><trkpt lat="46.3391617" lon="12.33106"><ele>529.0</ele><time>2026-05-02T15:45:49.406Z</time></trkpt><trkpt lat="46.3390033" lon="12.3310533"><ele>531.0</ele><time>2026-05-02T15:45:50.406Z</time></trkpt><trkpt lat="46.3388367" lon="12.3310433"><ele>533.0</ele><time>2026-05-02T15:45:51.406Z</time></trkpt><trkpt lat="46.3386783" lon="12.33103"><ele>535.0</ele><time>2026-05-02T15:45:52.405Z</time></trkpt><trkpt lat="46.3385317" lon="12.3310217"><ele>535.0</ele><time>2026-05-02T15:45:53.406Z</time></trkpt><trkpt lat="46.3383867" lon="12.3310267"><ele>535.0</ele><time>2026-05-02T15:45:54.406Z</time></trkpt><trkpt lat="46.3382517" lon="12.3310633"><ele>535.0</ele><time>2026-05-02T15:45:55.406Z</time></trkpt><trkpt lat="46.3381267" lon="12.3311917"><ele>535.0</ele><time>2026-05-02T15:45:56.406Z</time></trkpt><trkpt lat="46.337995" lon="12.3312433"><ele>540.0</ele><time>2026-05-02T15:45:57.406Z</time></trkpt><trkpt lat="46.3378533" lon="12.3313"><ele>545.0</ele><time>2026-05-02T15:45:58.406Z</time></trkpt><trkpt lat="46.3377033" lon="12.3313117"><ele>550.0</ele><time>2026-05-02T15:45:59.405Z</time></trkpt><trkpt lat="46.3375667" lon="12.33132"><ele>555.0</ele><time>2026-05-02T15:46:00.406Z</time></trkpt><trkpt lat="46.3374217" lon="12.3313133"><ele>555.0</ele><time>2026-05-02T15:46:01.406Z</time></trkpt><trkpt lat="46.33726" lon="12.331285"><ele>555.0</ele><time>2026-05-02T15:46:02.405Z</time></trkpt><trkpt lat="46.3370983" lon="12.3312733"><ele>555.0</ele><time>2026-05-02T15:46:03.406Z</time></trkpt><trkpt lat="46.336925" lon="12.3312433"><ele>551.0</ele><time>2026-05-02T15:46:04.405Z</time></trkpt><trkpt lat="46.3367467" lon="12.331245"><ele>547.0</ele><time>2026-05-02T15:46:05.406Z</time></trkpt><trkpt lat="46.3365767" lon="12.3312633"><ele>543.0</ele><time>2026-05-02T15:46:06.406Z</time></trkpt><trkpt lat="46.3364083" lon="12.3312733"><ele>543.6666666666666</ele><time>2026-05-02T15:46:07.406Z</time></trkpt><trkpt lat="46.3362533" lon="12.33126"><ele>544.3333333333333</ele><time>2026-05-02T15:46:08.406Z</time></trkpt><trkpt lat="46.3361083" lon="12.3312"><ele>545.0</ele><time>2026-05-02T15:46:09.406Z</time></trkpt><trkpt lat="46.335965" lon="12.3311333"><ele>545.0</ele><time>2026-05-02T15:46:10.406Z</time></trkpt><trkpt lat="46.335825" lon="12.3310633"><ele>545.0</ele><time>2026-05-02T15:46:11.406Z</time></trkpt><trkpt lat="46.3356917" lon="12.3310367"><ele>545.0</ele><time>2026-05-02T15:46:12.405Z</time></trkpt><trkpt lat="46.33555" lon="12.3310517"><ele>545.0</ele><time>2026-05-02T15:46:13.406Z</time></trkpt><trkpt lat="46.3354133" lon="12.331115"><ele>546.0</ele><time>2026-05-02T15:46:14.406Z</time></trkpt><trkpt lat="46.3352833" lon="12.3311683"><ele>547.0</ele><time>2026-05-02T15:46:15.406Z</time></trkpt><trkpt lat="46.3351533" lon="12.3312033"><ele>548.0</ele><time>2026-05-02T15:46:16.405Z</time></trkpt><trkpt lat="46.3349817" lon="12.3311367"><ele>549.0</ele><time>2026-05-02T15:46:17.406Z</time></trkpt><trkpt lat="46.334845" lon="12.3310267"><ele>545.5</ele><time>2026-05-02T15:46:18.405Z</time></trkpt><trkpt lat="46.33471" lon="12.3309633"><ele>542.0</ele><time>2026-05-02T15:46:19.405Z</time></trkpt><trkpt lat="46.3345733" lon="12.3309067"><ele>538.5</ele><time>2026-05-02T15:46:20.406Z</time></trkpt><trkpt lat="46.3344333" lon="12.3308833"><ele>535.0</ele><time>2026-05-02T15:46:21.406Z</time></trkpt><trkpt lat="46.3342783" lon="12.330875"><ele>535.0</ele><time>2026-05-02T15:46:22.406Z</time></trkpt><trkpt lat="46.33412" lon="12.3308717"><ele>535.0</ele><time>2026-05-02T15:46:23.406Z</time></trkpt><trkpt lat="46.3339717" lon="12.3308517"><ele>535.0</ele><time>2026-05-02T15:46:24.406Z</time></trkpt><trkpt lat="46.3338383" lon="12.3308317"><ele>535.0</ele><time>2026-05-02T15:46:25.406Z</time></trkpt><trkpt lat="46.3337" lon="12.33082"><ele>537.0</ele><time>2026-05-02T15:46:26.406Z</time></trkpt><trkpt lat="46.33357" lon="12.33077"><ele>539.0</ele><time>2026-05-02T15:46:27.405Z</time></trkpt><trkpt lat="46.3334517" lon="12.3306633"><ele>541.0</ele><time>2026-05-02T15:46:28.406Z</time></trkpt><trkpt lat="46.33333" lon="12.3305367"><ele>543.0</ele><time>2026-05-02T15:46:29.406Z</time></trkpt><trkpt lat="46.3332033" lon="12.3304383"><ele>543.0</ele><time>2026-05-02T15:46:30.406Z</time></trkpt><trkpt lat="46.3330967" lon="12.3303217"><ele>543.0</ele><time>2026-05-02T15:46:31.406Z</time></trkpt><trkpt lat="46.3329983" lon="12.3301883"><ele>543.0</ele><time>2026-05-02T15:46:32.406Z</time></trkpt><trkpt lat="46.332905" lon="12.3300267"><ele>543.0</ele><time>2026-05-02T15:46:33.406Z</time></trkpt><trkpt lat="46.3328333" lon="12.329845"><ele>528.3333333333334</ele><time>2026-05-02T15:46:34.406Z</time></trkpt><trkpt lat="46.332765" lon="12.3296433"><ele>513.6666666666667</ele><time>2026-05-02T15:46:35.406Z</time></trkpt><trkpt lat="46.3326733" lon="12.32945"><ele>499.0</ele><time>2026-05-02T15:46:36.406Z</time></trkpt><trkpt lat="46.3325683" lon="12.3292467"><ele>499.0</ele><time>2026-05-02T15:46:37.406Z</time></trkpt><trkpt lat="46.3324667" lon="12.3290367"><ele>499.0</ele><time>2026-05-02T15:46:38.406Z</time></trkpt><trkpt lat="46.3323617" lon="12.3288217"><ele>499.0</ele><time>2026-05-02T15:46:39.406Z</time></trkpt><trkpt lat="46.3322583" lon="12.328605"><ele>502.33333333333337</ele><time>2026-05-02T15:46:40.406Z</time></trkpt><trkpt lat="46.3321517" lon="12.3284033"><ele>505.66666666666663</ele><time>2026-05-02T15:46:41.406Z</time></trkpt><trkpt lat="46.3320367" lon="12.3281983"><ele>509.0</ele><time>2026-05-02T15:46:42.406Z</time></trkpt><trkpt lat="46.3319333" lon="12.3279983"><ele>509.0</ele><time>2026-05-02T15:46:43.406Z</time></trkpt><trkpt lat="46.3318267" lon="12.3278167"><ele>509.0</ele><time>2026-05-02T15:46:44.406Z</time></trkpt><trkpt lat="46.33172" lon="12.3276367"><ele>509.0</ele><time>2026-05-02T15:46:45.406Z</time></trkpt><trkpt lat="46.3315917" lon="12.327495"><ele>509.0</ele><time>2026-05-02T15:46:46.406Z</time></trkpt><trkpt lat="46.3314317" lon="12.327365"><ele>509.0</ele><time>2026-05-02T15:46:47.406Z</time></trkpt><trkpt lat="46.3312983" lon="12.3272433"><ele>509.0</ele><time>2026-05-02T15:46:48.405Z</time></trkpt><trkpt lat="46.3311633" lon="12.3271317"><ele>519.3333333333333</ele><time>2026-05-02T15:46:49.405Z</time></trkpt><trkpt lat="46.33103" lon="12.32703"><ele>529.6666666666666</ele><time>2026-05-02T15:46:50.406Z</time></trkpt><trkpt lat="46.33089" lon="12.3269367"><ele>540.0</ele><time>2026-05-02T15:46:51.405Z</time></trkpt><trkpt lat="46.3307617" lon="12.3268333"><ele>540.0</ele><time>2026-05-02T15:46:52.406Z</time></trkpt><trkpt lat="46.3306217" lon="12.32676"><ele>540.0</ele><time>2026-05-02T15:46:53.406Z</time></trkpt><trkpt lat="46.3304633" lon="12.32671"><ele>540.0</ele><time>2026-05-02T15:46:54.406Z</time></trkpt><trkpt lat="46.3303017" lon="12.3266583"><ele>523.6666666666666</ele><time>2026-05-02T15:46:55.406Z</time></trkpt><trkpt lat="46.330145" lon="12.3265817"><ele>507.3333333333333</ele><time>2026-05-02T15:46:56.406Z</time></trkpt><trkpt lat="46.3299983" lon="12.3265133"><ele>491.0</ele><time>2026-05-02T15:46:57.406Z</time></trkpt><trkpt lat="46.3298617" lon="12.326445"><ele>489.8</ele><time>2026-05-02T15:46:58.406Z</time></trkpt><trkpt lat="46.329755" lon="12.3263767"><ele>488.6</ele><time>2026-05-02T15:46:59.405Z</time></trkpt><trkpt lat="46.3296733" lon="12.3262783"><ele>487.4</ele><time>2026-05-02T15:47:00.406Z</time></trkpt><trkpt lat="46.3295983" lon="12.3262017"><ele>486.2</ele><time>2026-05-02T15:47:01.406Z</time></trkpt><trkpt lat="46.3295467" lon="12.3261067"><ele>485.0</ele><time>2026-05-02T15:47:02.406Z</time></trkpt><trkpt lat="46.3295133" lon="12.325985"><ele>485.0</ele><time>2026-05-02T15:47:03.406Z</time></trkpt><trkpt lat="46.3294783" lon="12.3258483"><ele>485.0</ele><time>2026-05-02T15:47:04.406Z</time></trkpt><trkpt lat="46.3294433" lon="12.325685"><ele>485.0</ele><time>2026-05-02T15:47:05.406Z</time></trkpt><trkpt lat="46.329395" lon="12.325525"><ele>485.0</ele><time>2026-05-02T15:47:06.406Z</time></trkpt><trkpt lat="46.3293383" lon="12.3253633"><ele>484.75</ele><time>2026-05-02T15:47:07.406Z</time></trkpt><trkpt lat="46.329265" lon="12.3251867"><ele>484.5</ele><time>2026-05-02T15:47:08.406Z</time></trkpt><trkpt lat="46.3291883" lon="12.3250183"><ele>484.25</ele><time>2026-05-02T15:47:09.406Z</time></trkpt><trkpt lat="46.3291183" lon="12.32483"><ele>484.0</ele><time>2026-05-02T15:47:10.406Z</time></trkpt><trkpt lat="46.3290433" lon="12.3246517"><ele>484.0</ele><time>2026-05-02T15:47:11.405Z</time></trkpt><trkpt lat="46.3289633" lon="12.32447"><ele>484.0</ele><time>2026-05-02T15:47:12.406Z</time></trkpt><trkpt lat="46.3288833" lon="12.3243133"><ele>484.0</ele><time>2026-05-02T15:47:13.405Z</time></trkpt><trkpt lat="46.32881" lon="12.3241817"><ele>484.0</ele><time>2026-05-02T15:47:14.405Z</time></trkpt><trkpt lat="46.3287433" lon="12.3240233"><ele>483.5</ele><time>2026-05-02T15:47:15.406Z</time></trkpt><trkpt lat="46.32868" lon="12.3238533"><ele>483.0</ele><time>2026-05-02T15:47:16.405Z</time></trkpt><trkpt lat="46.3286033" lon="12.32369"><ele>482.5</ele><time>2026-05-02T15:47:17.406Z</time></trkpt><trkpt lat="46.32852" lon="12.32353"><ele>482.0</ele><time>2026-05-02T15:47:18.406Z</time></trkpt><trkpt lat="46.32842" lon="12.323375"><ele>482.0</ele><time>2026-05-02T15:47:19.406Z</time></trkpt><trkpt lat="46.3283083" lon="12.3232367"><ele>482.0</ele><time>2026-05-02T15:47:20.405Z</time></trkpt><trkpt lat="46.3281817" lon="12.3231183"><ele>482.0</ele><time>2026-05-02T15:47:21.406Z</time></trkpt><trkpt lat="46.3280533" lon="12.3230033"><ele>482.0</ele><time>2026-05-02T15:47:22.406Z</time></trkpt><trkpt lat="46.3279183" lon="12.3228917"><ele>483.0</ele><time>2026-05-02T15:47:23.406Z</time></trkpt><trkpt lat="46.3277667" lon="12.32277"><ele>484.0</ele><time>2026-05-02T15:47:24.406Z</time></trkpt><trkpt lat="46.3276117" lon="12.322635"><ele>485.0</ele><time>2026-05-02T15:47:25.406Z</time></trkpt><trkpt lat="46.327465" lon="12.3225267"><ele>485.0</ele><time>2026-05-02T15:47:26.406Z</time></trkpt><trkpt lat="46.3273267" lon="12.3224267"><ele>485.0</ele><time>2026-05-02T15:47:27.406Z</time></trkpt><trkpt lat="46.327205" lon="12.3222867"><ele>485.0</ele><time>2026-05-02T15:47:28.406Z</time></trkpt><trkpt lat="46.3270983" lon="12.3220933"><ele>480.66666666666663</ele><time>2026-05-02T15:47:29.405Z</time></trkpt><trkpt lat="46.3270117" lon="12.3218767"><ele>476.33333333333337</ele><time>2026-05-02T15:47:30.406Z</time></trkpt><trkpt lat="46.3269567" lon="12.3216517"><ele>472.0</ele><time>2026-05-02T15:47:31.406Z</time></trkpt><trkpt lat="46.32691" lon="12.32142"><ele>474.6666666666667</ele><time>2026-05-02T15:47:32.405Z</time></trkpt><trkpt lat="46.3268683" lon="12.3211967"><ele>477.33333333333337</ele><time>2026-05-02T15:47:33.405Z</time></trkpt><trkpt lat="46.3268183" lon="12.320975"><ele>480.0</ele><time>2026-05-02T15:47:34.406Z</time></trkpt><trkpt lat="46.3267483" lon="12.320765"><ele>478.66666666666663</ele><time>2026-05-02T15:47:35.406Z</time></trkpt><trkpt lat="46.3266417" lon="12.3205517"><ele>477.3333333333333</ele><time>2026-05-02T15:47:36.406Z</time></trkpt><trkpt lat="46.3265" lon="12.32038"><ele>476.0</ele><time>2026-05-02T15:47:37.406Z</time></trkpt><trkpt lat="46.32636" lon="12.3202"><ele>476.0</ele><time>2026-05-02T15:47:38.405Z</time></trkpt><trkpt lat="46.3262183" lon="12.320055"><ele>476.0</ele><time>2026-05-02T15:47:39.406Z</time></trkpt><trkpt lat="46.326085" lon="12.319895"><ele>476.0</ele><time>2026-05-02T15:47:40.406Z</time></trkpt><trkpt lat="46.32595" lon="12.3197417"><ele>477.0</ele><time>2026-05-02T15:47:41.405Z</time></trkpt><trkpt lat="46.32582" lon="12.3195967"><ele>478.0</ele><time>2026-05-02T15:47:42.406Z</time></trkpt><trkpt lat="46.3256933" lon="12.31946"><ele>479.0</ele><time>2026-05-02T15:47:43.406Z</time></trkpt><trkpt lat="46.3255617" lon="12.3193183"><ele>479.0</ele><time>2026-05-02T15:47:44.406Z</time></trkpt><trkpt lat="46.3254333" lon="12.31918"><ele>479.0</ele><time>2026-05-02T15:47:45.406Z</time></trkpt><trkpt lat="46.3253083" lon="12.3190283"><ele>479.0</ele><time>2026-05-02T15:47:46.406Z</time></trkpt><trkpt lat="46.325185" lon="12.3188933"><ele>482.5</ele><time>2026-05-02T15:47:47.405Z</time></trkpt><trkpt lat="46.3250733" lon="12.3187667"><ele>486.0</ele><time>2026-05-02T15:47:48.406Z</time></trkpt><trkpt lat="46.3249717" lon="12.3186367"><ele>489.5</ele><time>2026-05-02T15:47:49.406Z</time></trkpt><trkpt lat="46.3249017" lon="12.3184833"><ele>493.0</ele><time>2026-05-02T15:47:50.406Z</time></trkpt><trkpt lat="46.3248483" lon="12.3183033"><ele>493.0</ele><time>2026-05-02T15:47:51.406Z</time></trkpt><trkpt lat="46.32481" lon="12.3180917"><ele>493.0</ele><time>2026-05-02T15:47:52.406Z</time></trkpt><trkpt lat="46.324775" lon="12.317875"><ele>493.0</ele><time>2026-05-02T15:47:53.405Z</time></trkpt><trkpt lat="46.3247283" lon="12.31765"><ele>489.33333333333337</ele><time>2026-05-02T15:47:54.406Z</time></trkpt><trkpt lat="46.3246817" lon="12.317465"><ele>485.66666666666663</ele><time>2026-05-02T15:47:55.406Z</time></trkpt><trkpt lat="46.3245983" lon="12.31728"><ele>482.0</ele><time>2026-05-02T15:47:56.405Z</time></trkpt><trkpt lat="46.3244833" lon="12.3171167"><ele>490.66666666666663</ele><time>2026-05-02T15:47:57.405Z</time></trkpt><trkpt lat="46.3243267" lon="12.316975"><ele>499.33333333333337</ele><time>2026-05-02T15:47:58.405Z</time></trkpt><trkpt lat="46.3241517" lon="12.316865"><ele>508.0</ele><time>2026-05-02T15:47:59.406Z</time></trkpt><trkpt lat="46.323985" lon="12.3167567"><ele>504.0</ele><time>2026-05-02T15:48:00.405Z</time></trkpt><trkpt lat="46.3237983" lon="12.3166833"><ele>500.0</ele><time>2026-05-02T15:48:01.406Z</time></trkpt><trkpt lat="46.3236067" lon="12.31664"><ele>496.0</ele><time>2026-05-02T15:48:02.405Z</time></trkpt><trkpt lat="46.3234117" lon="12.3166067"><ele>496.0</ele><time>2026-05-02T15:48:03.406Z</time></trkpt><trkpt lat="46.32321" lon="12.3165833"><ele>496.0</ele><time>2026-05-02T15:48:04.406Z</time></trkpt><trkpt lat="46.3230133" lon="12.3165517"><ele>496.0</ele><time>2026-05-02T15:48:05.406Z</time></trkpt><trkpt lat="46.322815" lon="12.3165217"><ele>492.33333333333337</ele><time>2026-05-02T15:48:06.406Z</time></trkpt><trkpt lat="46.3226217" lon="12.316495"><ele>488.66666666666663</ele><time>2026-05-02T15:48:07.405Z</time></trkpt><trkpt lat="46.32243" lon="12.3164767"><ele>485.0</ele><time>2026-05-02T15:48:08.406Z</time></trkpt><trkpt lat="46.3222333" lon="12.3164733"><ele>482.66666666666663</ele><time>2026-05-02T15:48:09.406Z</time></trkpt><trkpt lat="46.32205" lon="12.3165317"><ele>480.33333333333337</ele><time>2026-05-02T15:48:10.406Z</time></trkpt><trkpt lat="46.3218717" lon="12.316525"><ele>478.0</ele><time>2026-05-02T15:48:11.406Z</time></trkpt><trkpt lat="46.3216983" lon="12.3165417"><ele>478.0</ele><time>2026-05-02T15:48:12.406Z</time></trkpt><trkpt lat="46.3215333" lon="12.31655"><ele>478.0</ele><time>2026-05-02T15:48:13.406Z</time></trkpt><trkpt lat="46.32137" lon="12.31655"><ele>478.0</ele><time>2026-05-02T15:48:14.406Z</time></trkpt><trkpt lat="46.32121" lon="12.31655"><ele>480.0</ele><time>2026-05-02T15:48:15.406Z</time></trkpt><trkpt lat="46.3210417" lon="12.3165583"><ele>482.0</ele><time>2026-05-02T15:48:16.406Z</time></trkpt><trkpt lat="46.3208817" lon="12.3165667"><ele>484.0</ele><time>2026-05-02T15:48:17.405Z</time></trkpt><trkpt lat="46.3207167" lon="12.3165233"><ele>483.33333333333337</ele><time>2026-05-02T15:48:18.406Z</time></trkpt><trkpt lat="46.320545" lon="12.31648"><ele>482.66666666666663</ele><time>2026-05-02T15:48:19.406Z</time></trkpt><trkpt lat="46.3203633" lon="12.3164233"><ele>482.0</ele><time>2026-05-02T15:48:20.406Z</time></trkpt><trkpt lat="46.3201683" lon="12.3163867"><ele>480.3333333333333</ele><time>2026-05-02T15:48:21.406Z</time></trkpt><trkpt lat="46.319975" lon="12.31638"><ele>478.66666666666663</ele><time>2026-05-02T15:48:22.406Z</time></trkpt><trkpt lat="46.3197767" lon="12.31639"><ele>477.0</ele><time>2026-05-02T15:48:23.406Z</time></trkpt><trkpt lat="46.31958" lon="12.3164133"><ele>477.0</ele><time>2026-05-02T15:48:24.406Z</time></trkpt><trkpt lat="46.3193983" lon="12.3164217"><ele>477.0</ele><time>2026-05-02T15:48:25.406Z</time></trkpt><trkpt lat="46.3192233" lon="12.31644"><ele>477.0</ele><time>2026-05-02T15:48:26.406Z</time></trkpt><trkpt lat="46.31907" lon="12.3163867"><ele>480.0</ele><time>2026-05-02T15:48:27.405Z</time></trkpt><trkpt lat="46.3188833" lon="12.3163667"><ele>483.0</ele><time>2026-05-02T15:48:28.406Z</time></trkpt><trkpt lat="46.3187033" lon="12.31628"><ele>486.0</ele><time>2026-05-02T15:48:29.406Z</time></trkpt><trkpt lat="46.3185383" lon="12.3161617"><ele>486.0</ele><time>2026-05-02T15:48:30.406Z</time></trkpt><trkpt lat="46.3183683" lon="12.3161283"><ele>486.0</ele><time>2026-05-02T15:48:31.406Z</time></trkpt><trkpt lat="46.3182083" lon="12.31612"><ele>486.0</ele><time>2026-05-02T15:48:32.406Z</time></trkpt><trkpt lat="46.318055" lon="12.31612"><ele>501.0</ele><time>2026-05-02T15:48:33.406Z</time></trkpt><trkpt lat="46.3178933" lon="12.31616"><ele>516.0</ele><time>2026-05-02T15:48:34.406Z</time></trkpt><trkpt lat="46.3177333" lon="12.3162517"><ele>531.0</ele><time>2026-05-02T15:48:35.406Z</time></trkpt><trkpt lat="46.31759" lon="12.316365"><ele>519.6666666666666</ele><time>2026-05-02T15:48:36.405Z</time></trkpt><trkpt lat="46.31745" lon="12.316505"><ele>508.3333333333333</ele><time>2026-05-02T15:48:37.406Z</time></trkpt><trkpt lat="46.3173333" lon="12.316685"><ele>497.0</ele><time>2026-05-02T15:48:38.406Z</time></trkpt><trkpt lat="46.317215" lon="12.316885"><ele>504.3333333333333</ele><time>2026-05-02T15:48:39.405Z</time></trkpt><trkpt lat="46.3170933" lon="12.3170883"><ele>511.66666666666663</ele><time>2026-05-02T15:48:40.405Z</time></trkpt><trkpt lat="46.316965" lon="12.3173033"><ele>519.0</ele><time>2026-05-02T15:48:41.406Z</time></trkpt><trkpt lat="46.316825" lon="12.317535"><ele>519.0</ele><time>2026-05-02T15:48:42.406Z</time></trkpt><trkpt lat="46.3166867" lon="12.3177533"><ele>519.0</ele><time>2026-05-02T15:48:43.405Z</time></trkpt><trkpt lat="46.3165533" lon="12.3179833"><ele>519.0</ele><time>2026-05-02T15:48:44.405Z</time></trkpt><trkpt lat="46.3164283" lon="12.3182067"><ele>518.0</ele><time>2026-05-02T15:48:45.405Z</time></trkpt><trkpt lat="46.3162983" lon="12.31842"><ele>517.0</ele><time>2026-05-02T15:48:46.406Z</time></trkpt><trkpt lat="46.3161617" lon="12.3186267"><ele>516.0</ele><time>2026-05-02T15:48:47.406Z</time></trkpt><trkpt lat="46.3160117" lon="12.318825"><ele>503.33333333333337</ele><time>2026-05-02T15:48:48.405Z</time></trkpt><trkpt lat="46.3158683" lon="12.3190117"><ele>490.6666666666667</ele><time>2026-05-02T15:48:49.406Z</time></trkpt><trkpt lat="46.3157417" lon="12.31921"><ele>478.0</ele><time>2026-05-02T15:48:50.406Z</time></trkpt><trkpt lat="46.3156117" lon="12.3193983"><ele>486.33333333333337</ele><time>2026-05-02T15:48:51.406Z</time></trkpt><trkpt lat="46.3154933" lon="12.3195833"><ele>494.66666666666663</ele><time>2026-05-02T15:48:52.406Z</time></trkpt><trkpt lat="46.3153983" lon="12.3197617"><ele>503.0</ele><time>2026-05-02T15:48:53.406Z</time></trkpt><trkpt lat="46.3153083" lon="12.3199483"><ele>503.0</ele><time>2026-05-02T15:48:54.406Z</time></trkpt><trkpt lat="46.31521" lon="12.3201483"><ele>503.0</ele><time>2026-05-02T15:48:55.406Z</time></trkpt><trkpt lat="46.31511" lon="12.32033"><ele>503.0</ele><time>2026-05-02T15:48:56.406Z</time></trkpt><trkpt lat="46.315005" lon="12.3205017"><ele>495.0</ele><time>2026-05-02T15:48:57.405Z</time></trkpt><trkpt lat="46.3149083" lon="12.320665"><ele>487.0</ele><time>2026-05-02T15:48:58.406Z</time></trkpt><trkpt lat="46.3148083" lon="12.3208383"><ele>479.0</ele><time>2026-05-02T15:48:59.406Z</time></trkpt><trkpt lat="46.314715" lon="12.32102"><ele>492.0</ele><time>2026-05-02T15:49:00.405Z</time></trkpt><trkpt lat="46.3146033" lon="12.3212117"><ele>505.0</ele><time>2026-05-02T15:49:01.406Z</time></trkpt><trkpt lat="46.314495" lon="12.3214067"><ele>518.0</ele><time>2026-05-02T15:49:02.406Z</time></trkpt><trkpt lat="46.3143817" lon="12.3215967"><ele>518.0</ele><time>2026-05-02T15:49:03.406Z</time></trkpt><trkpt lat="46.3142833" lon="12.3217917"><ele>518.0</ele><time>2026-05-02T15:49:04.406Z</time></trkpt><trkpt lat="46.3141917" lon="12.3219933"><ele>518.0</ele><time>2026-05-02T15:49:05.405Z</time></trkpt><trkpt lat="46.3141" lon="12.3221917"><ele>518.0</ele><time>2026-05-02T15:49:06.406Z</time></trkpt><trkpt lat="46.313975" lon="12.3223567"><ele>518.0</ele><time>2026-05-02T15:49:07.405Z</time></trkpt><trkpt lat="46.3138633" lon="12.322495"><ele>518.0</ele><time>2026-05-02T15:49:08.406Z</time></trkpt><trkpt lat="46.3137267" lon="12.3226217"><ele>518.0</ele><time>2026-05-02T15:49:09.406Z</time></trkpt><trkpt lat="46.31358" lon="12.322725"><ele>518.0</ele><time>2026-05-02T15:49:10.406Z</time></trkpt><trkpt lat="46.313425" lon="12.3227733"><ele>518.0</ele><time>2026-05-02T15:49:11.405Z</time></trkpt><trkpt lat="46.3132767" lon="12.3228333"><ele>518.0</ele><time>2026-05-02T15:49:12.406Z</time></trkpt><trkpt lat="46.313085" lon="12.32282"><ele>518.0</ele><time>2026-05-02T15:49:13.405Z</time></trkpt><trkpt lat="46.3129017" lon="12.3228583"><ele>518.0</ele><time>2026-05-02T15:49:14.406Z</time></trkpt><trkpt lat="46.3127267" lon="12.3229133"><ele>520.0</ele><time>2026-05-02T15:49:15.406Z</time></trkpt><trkpt lat="46.312555" lon="12.3229983"><ele>522.0</ele><time>2026-05-02T15:49:16.405Z</time></trkpt><trkpt lat="46.31237" lon="12.32307"><ele>524.0</ele><time>2026-05-02T15:49:17.406Z</time></trkpt><trkpt lat="46.3122117" lon="12.323155"><ele>512.3333333333333</ele><time>2026-05-02T15:49:18.406Z</time></trkpt><trkpt lat="46.3120617" lon="12.323235"><ele>500.66666666666663</ele><time>2026-05-02T15:49:19.406Z</time></trkpt><trkpt lat="46.3119167" lon="12.3232983"><ele>489.0</ele><time>2026-05-02T15:49:20.405Z</time></trkpt><trkpt lat="46.3117367" lon="12.3233333"><ele>489.0</ele><time>2026-05-02T15:49:21.406Z</time></trkpt><trkpt lat="46.31156" lon="12.3233733"><ele>489.0</ele><time>2026-05-02T15:49:22.406Z</time></trkpt><trkpt lat="46.3113917" lon="12.32339"><ele>489.0</ele><time>2026-05-02T15:49:23.406Z</time></trkpt><trkpt lat="46.3112283" lon="12.3234133"><ele>500.66666666666663</ele><time>2026-05-02T15:49:24.405Z</time></trkpt><trkpt lat="46.31107" lon="12.3234467"><ele>512.3333333333333</ele><time>2026-05-02T15:49:25.406Z</time></trkpt><trkpt lat="46.3109117" lon="12.32349"><ele>524.0</ele><time>2026-05-02T15:49:26.406Z</time></trkpt><trkpt lat="46.310755" lon="12.3235683"><ele>524.0</ele><time>2026-05-02T15:49:27.406Z</time></trkpt><trkpt lat="46.3106083" lon="12.3236717"><ele>524.0</ele><time>2026-05-02T15:49:28.406Z</time></trkpt><trkpt lat="46.310485" lon="12.32377"><ele>524.0</ele><time>2026-05-02T15:49:29.406Z</time></trkpt><trkpt lat="46.310365" lon="12.3238567"><ele>524.0</ele><time>2026-05-02T15:49:30.406Z</time></trkpt><trkpt lat="46.31025" lon="12.3239217"><ele>513.25</ele><time>2026-05-02T15:49:31.406Z</time></trkpt><trkpt lat="46.310125" lon="12.3239683"><ele>502.5</ele><time>2026-05-02T15:49:32.406Z</time></trkpt><trkpt lat="46.3099833" lon="12.3239933"><ele>491.75</ele><time>2026-05-02T15:49:33.405Z</time></trkpt><trkpt lat="46.3098217" lon="12.3239783"><ele>481.0</ele><time>2026-05-02T15:49:34.406Z</time></trkpt><trkpt lat="46.3096683" lon="12.323975"><ele>475.0</ele><time>2026-05-02T15:49:35.405Z</time></trkpt><trkpt lat="46.3094967" lon="12.32398"><ele>469.0</ele><time>2026-05-02T15:49:36.406Z</time></trkpt><trkpt lat="46.309325" lon="12.32401"><ele>463.0</ele><time>2026-05-02T15:49:37.406Z</time></trkpt><trkpt lat="46.3091467" lon="12.3240517"><ele>463.0</ele><time>2026-05-02T15:49:38.406Z</time></trkpt><trkpt lat="46.3089683" lon="12.32409"><ele>463.0</ele><time>2026-05-02T15:49:39.405Z</time></trkpt><trkpt lat="46.3087767" lon="12.3241667"><ele>463.0</ele><time>2026-05-02T15:49:40.405Z</time></trkpt><trkpt lat="46.308595" lon="12.3242567"><ele>467.0</ele><time>2026-05-02T15:49:41.406Z</time></trkpt><trkpt lat="46.3084083" lon="12.32432"><ele>471.0</ele><time>2026-05-02T15:49:42.406Z</time></trkpt><trkpt lat="46.3082217" lon="12.3244017"><ele>475.0</ele><time>2026-05-02T15:49:43.406Z</time></trkpt><trkpt lat="46.3080417" lon="12.324495"><ele>482.6666666666667</ele><time>2026-05-02T15:49:44.405Z</time></trkpt><trkpt lat="46.3078567" lon="12.3245567"><ele>490.33333333333337</ele><time>2026-05-02T15:49:45.406Z</time></trkpt><trkpt lat="46.3076583" lon="12.3245883"><ele>498.0</ele><time>2026-05-02T15:49:46.406Z</time></trkpt><trkpt lat="46.307465" lon="12.324605"><ele>498.0</ele><time>2026-05-02T15:49:47.406Z</time></trkpt><trkpt lat="46.30729" lon="12.3246267"><ele>498.0</ele><time>2026-05-02T15:49:48.405Z</time></trkpt><trkpt lat="46.3071133" lon="12.3246517"><ele>498.0</ele><time>2026-05-02T15:49:49.406Z</time></trkpt><trkpt lat="46.3069383" lon="12.3246817"><ele>496.33333333333337</ele><time>2026-05-02T15:49:50.406Z</time></trkpt><trkpt lat="46.3067533" lon="12.324685"><ele>494.6666666666667</ele><time>2026-05-02T15:49:51.406Z</time></trkpt><trkpt lat="46.3065717" lon="12.32466"><ele>493.0</ele><time>2026-05-02T15:49:52.405Z</time></trkpt><trkpt lat="46.3063817" lon="12.3246033"><ele>488.33333333333337</ele><time>2026-05-02T15:49:53.406Z</time></trkpt><trkpt lat="46.3061967" lon="12.3245517"><ele>483.66666666666663</ele><time>2026-05-02T15:49:54.405Z</time></trkpt><trkpt lat="46.30602" lon="12.3244767"><ele>479.0</ele><time>2026-05-02T15:49:55.405Z</time></trkpt><trkpt lat="46.3058517" lon="12.3243667"><ele>479.0</ele><time>2026-05-02T15:49:56.406Z</time></trkpt><trkpt lat="46.3056917" lon="12.324235"><ele>479.0</ele><time>2026-05-02T15:49:57.406Z</time></trkpt><trkpt lat="46.305535" lon="12.3241017"><ele>479.0</ele><time>2026-05-02T15:49:58.405Z</time></trkpt><trkpt lat="46.305375" lon="12.3239833"><ele>489.0</ele><time>2026-05-02T15:49:59.406Z</time></trkpt><trkpt lat="46.3052083" lon="12.3238783"><ele>499.0</ele><time>2026-05-02T15:50:00.406Z</time></trkpt><trkpt lat="46.3050317" lon="12.32381"><ele>509.0</ele><time>2026-05-02T15:50:01.405Z</time></trkpt><trkpt lat="46.30485" lon="12.3238133"><ele>504.0</ele><time>2026-05-02T15:50:02.406Z</time></trkpt><trkpt lat="46.3046683" lon="12.3238433"><ele>499.0</ele><time>2026-05-02T15:50:03.406Z</time></trkpt><trkpt lat="46.3044933" lon="12.3238583"><ele>494.0</ele><time>2026-05-02T15:50:04.405Z</time></trkpt><trkpt lat="46.3042967" lon="12.3238567"><ele>494.0</ele><time>2026-05-02T15:50:05.406Z</time></trkpt><trkpt lat="46.3041133" lon="12.323805"><ele>494.0</ele><time>2026-05-02T15:50:06.405Z</time></trkpt><trkpt lat="46.30394" lon="12.323745"><ele>494.0</ele><time>2026-05-02T15:50:07.406Z</time></trkpt><trkpt lat="46.303775" lon="12.32368"><ele>485.66666666666663</ele><time>2026-05-02T15:50:08.406Z</time></trkpt><trkpt lat="46.3036217" lon="12.32359"><ele>477.33333333333337</ele><time>2026-05-02T15:50:09.406Z</time></trkpt><trkpt lat="46.3034833" lon="12.3234767"><ele>469.0</ele><time>2026-05-02T15:50:10.406Z</time></trkpt><trkpt lat="46.3033667" lon="12.323305"><ele>469.0</ele><time>2026-05-02T15:50:11.406Z</time></trkpt><trkpt lat="46.3032617" lon="12.3231483"><ele>469.0</ele><time>2026-05-02T15:50:12.406Z</time></trkpt><trkpt lat="46.3031817" lon="12.3230017"><ele>469.0</ele><time>2026-05-02T15:50:13.406Z</time></trkpt><trkpt lat="46.3031083" lon="12.3228483"><ele>469.0</ele><time>2026-05-02T15:50:14.406Z</time></trkpt><trkpt lat="46.3030317" lon="12.322675"><ele>469.0</ele><time>2026-05-02T15:50:15.406Z</time></trkpt><trkpt lat="46.3029533" lon="12.32249"><ele>469.0</ele><time>2026-05-02T15:50:16.406Z</time></trkpt><trkpt lat="46.3028817" lon="12.3223"><ele>469.0</ele><time>2026-05-02T15:50:17.405Z</time></trkpt><trkpt lat="46.302805" lon="12.3220917"><ele>469.0</ele><time>2026-05-02T15:50:18.405Z</time></trkpt><trkpt lat="46.3027267" lon="12.32189"><ele>469.0</ele><time>2026-05-02T15:50:19.406Z</time></trkpt><trkpt lat="46.3026533" lon="12.321685"><ele>469.0</ele><time>2026-05-02T15:50:20.406Z</time></trkpt><trkpt lat="46.30259" lon="12.3214783"><ele>471.33333333333337</ele><time>2026-05-02T15:50:21.406Z</time></trkpt><trkpt lat="46.3025133" lon="12.3212433"><ele>473.66666666666663</ele><time>2026-05-02T15:50:22.406Z</time></trkpt><trkpt lat="46.3024333" lon="12.3209733"><ele>476.0</ele><time>2026-05-02T15:50:23.406Z</time></trkpt><trkpt lat="46.3023517" lon="12.3206983"><ele>478.3333333333333</ele><time>2026-05-02T15:50:24.405Z</time></trkpt><trkpt lat="46.3022717" lon="12.3204383"><ele>480.66666666666663</ele><time>2026-05-02T15:50:25.406Z</time></trkpt><trkpt lat="46.3021817" lon="12.320175"><ele>483.0</ele><time>2026-05-02T15:50:26.405Z</time></trkpt><trkpt lat="46.3021033" lon="12.3199367"><ele>475.66666666666663</ele><time>2026-05-02T15:50:27.406Z</time></trkpt><trkpt lat="46.30202" lon="12.3196883"><ele>468.3333333333333</ele><time>2026-05-02T15:50:28.406Z</time></trkpt><trkpt lat="46.30194" lon="12.319445"><ele>461.0</ele><time>2026-05-02T15:50:29.406Z</time></trkpt><trkpt lat="46.30186" lon="12.3192167"><ele>461.0</ele><time>2026-05-02T15:50:30.406Z</time></trkpt><trkpt lat="46.3017867" lon="12.3189533"><ele>461.0</ele><time>2026-05-02T15:50:31.406Z</time></trkpt><trkpt lat="46.3017183" lon="12.3186767"><ele>461.0</ele><time>2026-05-02T15:50:32.405Z</time></trkpt><trkpt lat="46.301645" lon="12.3183883"><ele>462.3333333333333</ele><time>2026-05-02T15:50:33.406Z</time></trkpt><trkpt lat="46.3015617" lon="12.3180967"><ele>463.66666666666663</ele><time>2026-05-02T15:50:34.406Z</time></trkpt><trkpt lat="46.301465" lon="12.317835"><ele>465.0</ele><time>2026-05-02T15:50:35.406Z</time></trkpt><trkpt lat="46.3013383" lon="12.3175883"><ele>465.0</ele><time>2026-05-02T15:50:36.406Z</time></trkpt><trkpt lat="46.3012" lon="12.3173417"><ele>465.0</ele><time>2026-05-02T15:50:37.406Z</time></trkpt><trkpt lat="46.3010567" lon="12.3170833"><ele>465.0</ele><time>2026-05-02T15:50:38.406Z</time></trkpt><trkpt lat="46.3008967" lon="12.3168933"><ele>471.0</ele><time>2026-05-02T15:50:39.406Z</time></trkpt><trkpt lat="46.30074" lon="12.3167233"><ele>477.0</ele><time>2026-05-02T15:50:40.406Z</time></trkpt><trkpt lat="46.3005867" lon="12.3165667"><ele>483.0</ele><time>2026-05-02T15:50:41.405Z</time></trkpt><trkpt lat="46.3004533" lon="12.316395"><ele>483.0</ele><time>2026-05-02T15:50:42.406Z</time></trkpt><trkpt lat="46.3003167" lon="12.3162233"><ele>483.0</ele><time>2026-05-02T15:50:43.406Z</time></trkpt><trkpt lat="46.3002033" lon="12.316025"><ele>483.0</ele><time>2026-05-02T15:50:44.406Z</time></trkpt><trkpt lat="46.3001067" lon="12.3158067"><ele>483.0</ele><time>2026-05-02T15:50:45.406Z</time></trkpt><trkpt lat="46.300005" lon="12.3155883"><ele>483.0</ele><time>2026-05-02T15:50:46.406Z</time></trkpt><trkpt lat="46.2998817" lon="12.3153917"><ele>483.0</ele><time>2026-05-02T15:50:47.405Z</time></trkpt><trkpt lat="46.29972" lon="12.3152267"><ele>479.66666666666663</ele><time>2026-05-02T15:50:48.406Z</time></trkpt><trkpt lat="46.2995383" lon="12.3150867"><ele>476.3333333333333</ele><time>2026-05-02T15:50:49.406Z</time></trkpt><trkpt lat="46.2993467" lon="12.3149583"><ele>473.0</ele><time>2026-05-02T15:50:50.406Z</time></trkpt><trkpt lat="46.2991417" lon="12.3148417"><ele>475.0</ele><time>2026-05-02T15:50:51.406Z</time></trkpt><trkpt lat="46.29894" lon="12.3147"><ele>477.0</ele><time>2026-05-02T15:50:52.406Z</time></trkpt><trkpt lat="46.2987683" lon="12.31455"><ele>479.0</ele><time>2026-05-02T15:50:53.406Z</time></trkpt><trkpt lat="46.2986017" lon="12.3144067"><ele>479.0</ele><time>2026-05-02T15:50:54.406Z</time></trkpt><trkpt lat="46.298435" lon="12.31429"><ele>479.0</ele><time>2026-05-02T15:50:55.405Z</time></trkpt><trkpt lat="46.29827" lon="12.3141833"><ele>479.0</ele><time>2026-05-02T15:50:56.406Z</time></trkpt><trkpt lat="46.2980817" lon="12.3141333"><ele>482.66666666666663</ele><time>2026-05-02T15:50:57.406Z</time></trkpt><trkpt lat="46.2979167" lon="12.31404"><ele>486.33333333333337</ele><time>2026-05-02T15:50:58.405Z</time></trkpt><trkpt lat="46.297755" lon="12.31392"><ele>490.0</ele><time>2026-05-02T15:50:59.406Z</time></trkpt><trkpt lat="46.29761" lon="12.3137467"><ele>490.0</ele><time>2026-05-02T15:51:00.405Z</time></trkpt><trkpt lat="46.297475" lon="12.3135633"><ele>490.0</ele><time>2026-05-02T15:51:01.406Z</time></trkpt><trkpt lat="46.2973417" lon="12.3133917"><ele>490.0</ele><time>2026-05-02T15:51:02.406Z</time></trkpt><trkpt lat="46.2972067" lon="12.3132383"><ele>485.6666666666667</ele><time>2026-05-02T15:51:03.406Z</time></trkpt><trkpt lat="46.2970683" lon="12.3130867"><ele>481.33333333333337</ele><time>2026-05-02T15:51:04.406Z</time></trkpt><trkpt lat="46.296935" lon="12.3129317"><ele>477.0</ele><time>2026-05-02T15:51:05.405Z</time></trkpt><trkpt lat="46.2968067" lon="12.312775"><ele>477.0</ele><time>2026-05-02T15:51:06.406Z</time></trkpt><trkpt lat="46.2966817" lon="12.3126333"><ele>477.0</ele><time>2026-05-02T15:51:07.406Z</time></trkpt><trkpt lat="46.296565" lon="12.3124917"><ele>477.0</ele><time>2026-05-02T15:51:08.405Z</time></trkpt><trkpt lat="46.2964533" lon="12.3123617"><ele>474.5</ele><time>2026-05-02T15:51:09.406Z</time></trkpt><trkpt lat="46.2963433" lon="12.3122417"><ele>472.0</ele><time>2026-05-02T15:51:10.406Z</time></trkpt><trkpt lat="46.29624" lon="12.3121233"><ele>469.5</ele><time>2026-05-02T15:51:11.405Z</time></trkpt><trkpt lat="46.2961417" lon="12.3120167"><ele>467.0</ele><time>2026-05-02T15:51:12.406Z</time></trkpt><trkpt lat="46.2960483" lon="12.3119"><ele>467.0</ele><time>2026-05-02T15:51:13.406Z</time></trkpt><trkpt lat="46.2959633" lon="12.311815"><ele>467.00000000000006</ele><time>2026-05-02T15:51:14.406Z</time></trkpt><trkpt lat="46.2959033" lon="12.3117317"><ele>467.00000000000006</ele><time>2026-05-02T15:51:15.405Z</time></trkpt><trkpt lat="46.295825" lon="12.311625"><ele>467.0</ele><time>2026-05-02T15:51:17.406Z</time></trkpt><trkpt lat="46.2957833" lon="12.3115517"><ele>467.0</ele><time>2026-05-02T15:51:19.406Z</time></trkpt><trkpt lat="46.29574" lon="12.3114283"><ele>469.0</ele><time>2026-05-02T15:51:37.406Z</time></trkpt><trkpt lat="46.2956617" lon="12.311265"><ele>471.0</ele><time>2026-05-02T15:51:39.406Z</time></trkpt><trkpt lat="46.2955917" lon="12.3111533"><ele>473.0</ele><time>2026-05-02T15:51:40.406Z</time></trkpt><trkpt lat="46.2955" lon="12.31102"><ele>475.0</ele><time>2026-05-02T15:51:41.406Z</time></trkpt><trkpt lat="46.295385" lon="12.310885"><ele>475.0</ele><time>2026-05-02T15:51:42.406Z</time></trkpt><trkpt lat="46.2952733" lon="12.3107683"><ele>475.0</ele><time>2026-05-02T15:51:43.405Z</time></trkpt><trkpt lat="46.2951517" lon="12.3106667"><ele>475.0</ele><time>2026-05-02T15:51:44.405Z</time></trkpt><trkpt lat="46.29503" lon="12.31057"><ele>475.0</ele><time>2026-05-02T15:51:45.406Z</time></trkpt><trkpt lat="46.2949" lon="12.3105017"><ele>497.0</ele><time>2026-05-02T15:51:46.406Z</time></trkpt><trkpt lat="46.2947567" lon="12.3104833"><ele>519.0</ele><time>2026-05-02T15:51:47.406Z</time></trkpt><trkpt lat="46.2945967" lon="12.3105083"><ele>541.0</ele><time>2026-05-02T15:51:48.405Z</time></trkpt><trkpt lat="46.2944167" lon="12.3105433"><ele>518.0</ele><time>2026-05-02T15:51:49.406Z</time></trkpt><trkpt lat="46.294225" lon="12.3105767"><ele>495.0</ele><time>2026-05-02T15:51:50.406Z</time></trkpt><trkpt lat="46.2940183" lon="12.3105833"><ele>472.0</ele><time>2026-05-02T15:51:51.406Z</time></trkpt><trkpt lat="46.2938233" lon="12.3106033"><ele>472.0</ele><time>2026-05-02T15:51:52.406Z</time></trkpt><trkpt lat="46.29364" lon="12.3106683"><ele>472.0</ele><time>2026-05-02T15:51:53.406Z</time></trkpt><trkpt lat="46.2934667" lon="12.3107"><ele>472.0</ele><time>2026-05-02T15:51:54.406Z</time></trkpt><trkpt lat="46.2932783" lon="12.3107267"><ele>470.0</ele><time>2026-05-02T15:51:55.406Z</time></trkpt><trkpt lat="46.2930883" lon="12.3107383"><ele>468.0</ele><time>2026-05-02T15:51:56.406Z</time></trkpt><trkpt lat="46.2928983" lon="12.3107367"><ele>466.0</ele><time>2026-05-02T15:51:57.405Z</time></trkpt><trkpt lat="46.2927017" lon="12.3107183"><ele>466.0</ele><time>2026-05-02T15:51:58.406Z</time></trkpt><trkpt lat="46.2925083" lon="12.31071"><ele>466.0</ele><time>2026-05-02T15:51:59.405Z</time></trkpt><trkpt lat="46.2923183" lon="12.3107017"><ele>466.0</ele><time>2026-05-02T15:52:00.406Z</time></trkpt><trkpt lat="46.29212" lon="12.310685"><ele>466.6666666666667</ele><time>2026-05-02T15:52:01.406Z</time></trkpt><trkpt lat="46.2919217" lon="12.3106683"><ele>467.33333333333337</ele><time>2026-05-02T15:52:02.406Z</time></trkpt><trkpt lat="46.2917133" lon="12.310675"><ele>468.0</ele><time>2026-05-02T15:52:03.406Z</time></trkpt><trkpt lat="46.2914933" lon="12.310665"><ele>468.0</ele><time>2026-05-02T15:52:04.406Z</time></trkpt><trkpt lat="46.29127" lon="12.3106267"><ele>468.0</ele><time>2026-05-02T15:52:05.406Z</time></trkpt><trkpt lat="46.291055" lon="12.3105833"><ele>468.0</ele><time>2026-05-02T15:52:06.405Z</time></trkpt><trkpt lat="46.29084" lon="12.31055"><ele>476.0</ele><time>2026-05-02T15:52:07.406Z</time></trkpt><trkpt lat="46.2906417" lon="12.3105067"><ele>484.0</ele><time>2026-05-02T15:52:08.406Z</time></trkpt><trkpt lat="46.290445" lon="12.31048"><ele>492.0</ele><time>2026-05-02T15:52:09.406Z</time></trkpt><trkpt lat="46.29025" lon="12.3104683"><ele>492.0</ele><time>2026-05-02T15:52:10.406Z</time></trkpt><trkpt lat="46.2900633" lon="12.3104717"><ele>492.0</ele><time>2026-05-02T15:52:11.405Z</time></trkpt><trkpt lat="46.289875" lon="12.3104833"><ele>492.0</ele><time>2026-05-02T15:52:12.405Z</time></trkpt><trkpt lat="46.28969" lon="12.3105033"><ele>494.33333333333337</ele><time>2026-05-02T15:52:13.406Z</time></trkpt><trkpt lat="46.2895017" lon="12.3105117"><ele>496.6666666666667</ele><time>2026-05-02T15:52:14.406Z</time></trkpt><trkpt lat="46.28931" lon="12.3105367"><ele>499.0</ele><time>2026-05-02T15:52:15.405Z</time></trkpt><trkpt lat="46.2891167" lon="12.3105617"><ele>492.0</ele><time>2026-05-02T15:52:16.405Z</time></trkpt><trkpt lat="46.2889217" lon="12.310585"><ele>485.0</ele><time>2026-05-02T15:52:17.406Z</time></trkpt><trkpt lat="46.28873" lon="12.3106067"><ele>478.0</ele><time>2026-05-02T15:52:18.405Z</time></trkpt><trkpt lat="46.2885317" lon="12.3106233"><ele>478.0</ele><time>2026-05-02T15:52:19.406Z</time></trkpt><trkpt lat="46.28834" lon="12.31066"><ele>478.0</ele><time>2026-05-02T15:52:20.406Z</time></trkpt><trkpt lat="46.2881383" lon="12.3106867"><ele>478.0</ele><time>2026-05-02T15:52:21.406Z</time></trkpt><trkpt lat="46.2879283" lon="12.310715"><ele>480.33333333333337</ele><time>2026-05-02T15:52:22.406Z</time></trkpt><trkpt lat="46.2877267" lon="12.3107517"><ele>482.66666666666663</ele><time>2026-05-02T15:52:23.406Z</time></trkpt><trkpt lat="46.28753" lon="12.31078"><ele>485.0</ele><time>2026-05-02T15:52:24.406Z</time></trkpt><trkpt lat="46.28735" lon="12.310815"><ele>488.0</ele><time>2026-05-02T15:52:25.405Z</time></trkpt><trkpt lat="46.2871683" lon="12.3108467"><ele>491.0</ele><time>2026-05-02T15:52:26.406Z</time></trkpt><trkpt lat="46.286995" lon="12.3108783"><ele>494.0</ele><time>2026-05-02T15:52:27.405Z</time></trkpt><trkpt lat="46.2868233" lon="12.310905"><ele>494.0</ele><time>2026-05-02T15:52:28.406Z</time></trkpt><trkpt lat="46.2866533" lon="12.310925"><ele>494.0</ele><time>2026-05-02T15:52:29.406Z</time></trkpt><trkpt lat="46.2864983" lon="12.31093"><ele>494.0</ele><time>2026-05-02T15:52:30.405Z</time></trkpt><trkpt lat="46.2863383" lon="12.3109067"><ele>491.3333333333333</ele><time>2026-05-02T15:52:31.406Z</time></trkpt><trkpt lat="46.2861767" lon="12.3108483"><ele>488.66666666666663</ele><time>2026-05-02T15:52:32.406Z</time></trkpt><trkpt lat="46.2860133" lon="12.310745"><ele>486.0</ele><time>2026-05-02T15:52:33.405Z</time></trkpt><trkpt lat="46.285855" lon="12.3106467"><ele>487.0</ele><time>2026-05-02T15:52:34.406Z</time></trkpt><trkpt lat="46.2856883" lon="12.3105533"><ele>488.0</ele><time>2026-05-02T15:52:35.406Z</time></trkpt><trkpt lat="46.2855367" lon="12.3104283"><ele>489.0</ele><time>2026-05-02T15:52:36.406Z</time></trkpt><trkpt lat="46.28539" lon="12.310295"><ele>489.0</ele><time>2026-05-02T15:52:37.406Z</time></trkpt><trkpt lat="46.2852417" lon="12.3101417"><ele>489.0</ele><time>2026-05-02T15:52:38.406Z</time></trkpt><trkpt lat="46.2850917" lon="12.3099933"><ele>489.0</ele><time>2026-05-02T15:52:39.406Z</time></trkpt><trkpt lat="46.2849217" lon="12.30987"><ele>490.0</ele><time>2026-05-02T15:52:40.406Z</time></trkpt><trkpt lat="46.2847467" lon="12.309745"><ele>491.0</ele><time>2026-05-02T15:52:41.406Z</time></trkpt><trkpt lat="46.2845767" lon="12.3096133"><ele>492.0</ele><time>2026-05-02T15:52:42.406Z</time></trkpt><trkpt lat="46.2844083" lon="12.3094917"><ele>492.0</ele><time>2026-05-02T15:52:43.406Z</time></trkpt><trkpt lat="46.2842533" lon="12.3093567"><ele>492.0</ele><time>2026-05-02T15:52:44.406Z</time></trkpt><trkpt lat="46.28409" lon="12.3092183"><ele>492.0</ele><time>2026-05-02T15:52:45.406Z</time></trkpt><trkpt lat="46.283935" lon="12.309085"><ele>491.33333333333337</ele><time>2026-05-02T15:52:46.406Z</time></trkpt><trkpt lat="46.2837933" lon="12.308935"><ele>490.6666666666667</ele><time>2026-05-02T15:52:47.406Z</time></trkpt><trkpt lat="46.2836567" lon="12.3087867"><ele>490.0</ele><time>2026-05-02T15:52:48.405Z</time></trkpt><trkpt lat="46.2835217" lon="12.3086517"><ele>490.0</ele><time>2026-05-02T15:52:49.406Z</time></trkpt><trkpt lat="46.2833933" lon="12.3085217"><ele>490.0</ele><time>2026-05-02T15:52:50.406Z</time></trkpt><trkpt lat="46.2832683" lon="12.308385"><ele>490.0</ele><time>2026-05-02T15:52:51.406Z</time></trkpt><trkpt lat="46.2831467" lon="12.3082467"><ele>489.25</ele><time>2026-05-02T15:52:52.406Z</time></trkpt><trkpt lat="46.2830367" lon="12.30811"><ele>488.5</ele><time>2026-05-02T15:52:53.406Z</time></trkpt><trkpt lat="46.2829383" lon="12.3079983"><ele>487.75</ele><time>2026-05-02T15:52:54.405Z</time></trkpt><trkpt lat="46.2828633" lon="12.3078517"><ele>487.0</ele><time>2026-05-02T15:52:55.406Z</time></trkpt><trkpt lat="46.2828083" lon="12.30768"><ele>487.0</ele><time>2026-05-02T15:52:56.406Z</time></trkpt><trkpt lat="46.2827783" lon="12.3074917"><ele>487.0</ele><time>2026-05-02T15:52:57.406Z</time></trkpt><trkpt lat="46.28275" lon="12.3072967"><ele>487.0</ele><time>2026-05-02T15:52:58.406Z</time></trkpt><trkpt lat="46.2827217" lon="12.3071017"><ele>487.0</ele><time>2026-05-02T15:52:59.405Z</time></trkpt><trkpt lat="46.2826917" lon="12.3069067"><ele>487.6666666666667</ele><time>2026-05-02T15:53:00.406Z</time></trkpt><trkpt lat="46.2826717" lon="12.3067033"><ele>488.33333333333337</ele><time>2026-05-02T15:53:01.405Z</time></trkpt><trkpt lat="46.2826633" lon="12.3064783"><ele>489.0</ele><time>2026-05-02T15:53:02.406Z</time></trkpt><trkpt lat="46.282675" lon="12.3062483"><ele>489.25</ele><time>2026-05-02T15:53:03.406Z</time></trkpt><trkpt lat="46.2826917" lon="12.3060233"><ele>489.5</ele><time>2026-05-02T15:53:04.406Z</time></trkpt><trkpt lat="46.282705" lon="12.3058217"><ele>489.75</ele><time>2026-05-02T15:53:05.405Z</time></trkpt><trkpt lat="46.28272" lon="12.305615"><ele>490.0</ele><time>2026-05-02T15:53:06.406Z</time></trkpt><trkpt lat="46.2827333" lon="12.3054"><ele>490.0</ele><time>2026-05-02T15:53:07.405Z</time></trkpt><trkpt lat="46.2827433" lon="12.3052017"><ele>490.0</ele><time>2026-05-02T15:53:08.405Z</time></trkpt><trkpt lat="46.28273" lon="12.3050217"><ele>490.0</ele><time>2026-05-02T15:53:09.405Z</time></trkpt><trkpt lat="46.2827067" lon="12.3048433"><ele>490.0</ele><time>2026-05-02T15:53:10.405Z</time></trkpt><trkpt lat="46.2826567" lon="12.304675"><ele>496.0</ele><time>2026-05-02T15:53:11.406Z</time></trkpt><trkpt lat="46.2825733" lon="12.3045017"><ele>502.0</ele><time>2026-05-02T15:53:12.406Z</time></trkpt><trkpt lat="46.28246" lon="12.3043317"><ele>508.0</ele><time>2026-05-02T15:53:13.406Z</time></trkpt><trkpt lat="46.2823283" lon="12.3041717"><ele>501.6666666666667</ele><time>2026-05-02T15:53:14.405Z</time></trkpt><trkpt lat="46.2821967" lon="12.3040217"><ele>495.33333333333337</ele><time>2026-05-02T15:53:15.406Z</time></trkpt><trkpt lat="46.2820633" lon="12.303885"><ele>489.0</ele><time>2026-05-02T15:53:16.406Z</time></trkpt><trkpt lat="46.2819167" lon="12.30378"><ele>494.33333333333337</ele><time>2026-05-02T15:53:17.406Z</time></trkpt><trkpt lat="46.2817583" lon="12.303695"><ele>499.6666666666667</ele><time>2026-05-02T15:53:18.406Z</time></trkpt><trkpt lat="46.2815967" lon="12.303625"><ele>505.0</ele><time>2026-05-02T15:53:19.406Z</time></trkpt><trkpt lat="46.2814267" lon="12.30357"><ele>505.0</ele><time>2026-05-02T15:53:20.406Z</time></trkpt><trkpt lat="46.281265" lon="12.30351"><ele>505.0</ele><time>2026-05-02T15:53:21.406Z</time></trkpt><trkpt lat="46.281095" lon="12.3034633"><ele>505.0</ele><time>2026-05-02T15:53:22.406Z</time></trkpt><trkpt lat="46.2809183" lon="12.3033767"><ele>505.0</ele><time>2026-05-02T15:53:23.405Z</time></trkpt><trkpt lat="46.280755" lon="12.303245"><ele>505.0</ele><time>2026-05-02T15:53:24.406Z</time></trkpt><trkpt lat="46.280585" lon="12.30312"><ele>505.0</ele><time>2026-05-02T15:53:25.405Z</time></trkpt><trkpt lat="46.2804117" lon="12.3029933"><ele>508.33333333333337</ele><time>2026-05-02T15:53:26.406Z</time></trkpt><trkpt lat="46.2802433" lon="12.3028967"><ele>511.66666666666663</ele><time>2026-05-02T15:53:27.406Z</time></trkpt><trkpt lat="46.2800733" lon="12.3028383"><ele>515.0</ele><time>2026-05-02T15:53:28.406Z</time></trkpt><trkpt lat="46.2799" lon="12.3028117"><ele>511.0</ele><time>2026-05-02T15:53:29.406Z</time></trkpt><trkpt lat="46.2797283" lon="12.3027867"><ele>507.0</ele><time>2026-05-02T15:53:30.406Z</time></trkpt><trkpt lat="46.2795567" lon="12.3027633"><ele>503.0</ele><time>2026-05-02T15:53:31.406Z</time></trkpt><trkpt lat="46.2793933" lon="12.3027367"><ele>503.0</ele><time>2026-05-02T15:53:32.406Z</time></trkpt><trkpt lat="46.279235" lon="12.30272"><ele>503.0</ele><time>2026-05-02T15:53:33.406Z</time></trkpt><trkpt lat="46.2790867" lon="12.3026883"><ele>503.0</ele><time>2026-05-02T15:53:34.406Z</time></trkpt><trkpt lat="46.2789567" lon="12.3026417"><ele>503.0</ele><time>2026-05-02T15:53:35.405Z</time></trkpt><trkpt lat="46.2788533" lon="12.3025833"><ele>500.59999999999997</ele><time>2026-05-02T15:53:36.406Z</time></trkpt><trkpt lat="46.278765" lon="12.3024983"><ele>498.19999999999993</ele><time>2026-05-02T15:53:37.406Z</time></trkpt><trkpt lat="46.2786917" lon="12.3024067"><ele>495.8</ele><time>2026-05-02T15:53:38.406Z</time></trkpt><trkpt lat="46.2786317" lon="12.3023067"><ele>493.4</ele><time>2026-05-02T15:53:39.406Z</time></trkpt><trkpt lat="46.2785717" lon="12.3022267"><ele>491.0</ele><time>2026-05-02T15:53:40.405Z</time></trkpt><trkpt lat="46.27851" lon="12.30215"><ele>490.6</ele><time>2026-05-02T15:53:41.405Z</time></trkpt><trkpt lat="46.2784233" lon="12.3020967"><ele>490.20000000000005</ele><time>2026-05-02T15:53:42.406Z</time></trkpt><trkpt lat="46.2783233" lon="12.3020417"><ele>489.79999999999995</ele><time>2026-05-02T15:53:43.406Z</time></trkpt><trkpt lat="46.2782267" lon="12.3019733"><ele>489.4</ele><time>2026-05-02T15:53:44.406Z</time></trkpt><trkpt lat="46.2781217" lon="12.3019117"><ele>489.0</ele><time>2026-05-02T15:53:45.406Z</time></trkpt><trkpt lat="46.27801" lon="12.30184"><ele>489.0</ele><time>2026-05-02T15:53:46.406Z</time></trkpt><trkpt lat="46.2779033" lon="12.3017633"><ele>489.0</ele><time>2026-05-02T15:53:47.406Z</time></trkpt><trkpt lat="46.2778067" lon="12.30168"><ele>489.0</ele><time>2026-05-02T15:53:48.406Z</time></trkpt><trkpt lat="46.2777117" lon="12.30159"><ele>489.0</ele><time>2026-05-02T15:53:49.406Z</time></trkpt><trkpt lat="46.2776183" lon="12.3014917"><ele>490.79999999999995</ele><time>2026-05-02T15:53:50.406Z</time></trkpt><trkpt lat="46.27752" lon="12.30141"><ele>492.59999999999997</ele><time>2026-05-02T15:53:51.406Z</time></trkpt><trkpt lat="46.2774267" lon="12.3013167"><ele>494.4</ele><time>2026-05-02T15:53:52.406Z</time></trkpt><trkpt lat="46.27734" lon="12.301215"><ele>496.2</ele><time>2026-05-02T15:53:53.406Z</time></trkpt><trkpt lat="46.2772633" lon="12.301125"><ele>498.0</ele><time>2026-05-02T15:53:54.406Z</time></trkpt><trkpt lat="46.2771967" lon="12.30105"><ele>498.0</ele><time>2026-05-02T15:53:55.406Z</time></trkpt><trkpt lat="46.27713" lon="12.300975"><ele>498.0</ele><time>2026-05-02T15:53:56.405Z</time></trkpt><trkpt lat="46.2770567" lon="12.3009083"><ele>498.0</ele><time>2026-05-02T15:53:57.406Z</time></trkpt><trkpt lat="46.2769833" lon="12.3008617"><ele>498.0</ele><time>2026-05-02T15:53:58.405Z</time></trkpt><trkpt lat="46.2769183" lon="12.3008217"><ele>498.0</ele><time>2026-05-02T15:53:59.406Z</time></trkpt><trkpt lat="46.2767983" lon="12.3007933"><ele>498.0</ele><time>2026-05-02T15:54:01.406Z</time></trkpt><trkpt lat="46.2766867" lon="12.3008067"><ele>498.0</ele><time>2026-05-02T15:54:03.406Z</time></trkpt><trkpt lat="46.2765967" lon="12.3008167"><ele>497.99999999999994</ele><time>2026-05-02T15:54:05.406Z</time></trkpt><trkpt lat="46.2765" lon="12.300845"><ele>497.99999999999994</ele><time>2026-05-02T15:54:07.406Z</time></trkpt><trkpt lat="46.27638" lon="12.3008467"><ele>498.0</ele><time>2026-05-02T15:54:09.405Z</time></trkpt><trkpt lat="46.27631" lon="12.3008533"><ele>498.0</ele><time>2026-05-02T15:54:10.405Z</time></trkpt><trkpt lat="46.2762167" lon="12.300865"><ele>497.25</ele><time>2026-05-02T15:54:11.406Z</time></trkpt><trkpt lat="46.2761033" lon="12.3008883"><ele>496.5</ele><time>2026-05-02T15:54:12.406Z</time></trkpt><trkpt lat="46.275975" lon="12.30091"><ele>495.75</ele><time>2026-05-02T15:54:13.405Z</time></trkpt><trkpt lat="46.2758383" lon="12.30093"><ele>495.0</ele><time>2026-05-02T15:54:14.406Z</time></trkpt><trkpt lat="46.275705" lon="12.3009383"><ele>493.75</ele><time>2026-05-02T15:54:15.405Z</time></trkpt><trkpt lat="46.2755617" lon="12.300945"><ele>492.5</ele><time>2026-05-02T15:54:16.406Z</time></trkpt><trkpt lat="46.2754267" lon="12.3009583"><ele>491.25</ele><time>2026-05-02T15:54:17.406Z</time></trkpt><trkpt lat="46.2753017" lon="12.30096"><ele>490.0</ele><time>2026-05-02T15:54:18.405Z</time></trkpt><trkpt lat="46.2751817" lon="12.3009633"><ele>490.0</ele><time>2026-05-02T15:54:19.406Z</time></trkpt><trkpt lat="46.2750633" lon="12.30097"><ele>490.0</ele><time>2026-05-02T15:54:20.406Z</time></trkpt><trkpt lat="46.27495" lon="12.30098"><ele>490.0</ele><time>2026-05-02T15:54:21.406Z</time></trkpt><trkpt lat="46.274835" lon="12.300975"><ele>490.0</ele><time>2026-05-02T15:54:22.406Z</time></trkpt><trkpt lat="46.27474" lon="12.3009933"><ele>490.0</ele><time>2026-05-02T15:54:23.406Z</time></trkpt><trkpt lat="46.274645" lon="12.3009867"><ele>489.50000000000006</ele><time>2026-05-02T15:54:24.406Z</time></trkpt><trkpt lat="46.2745517" lon="12.3009867"><ele>489.0</ele><time>2026-05-02T15:54:25.406Z</time></trkpt><trkpt lat="46.274465" lon="12.3010033"><ele>488.5</ele><time>2026-05-02T15:54:26.406Z</time></trkpt><trkpt lat="46.2743767" lon="12.3010067"><ele>488.0</ele><time>2026-05-02T15:54:27.405Z</time></trkpt><trkpt lat="46.2742867" lon="12.3010183"><ele>487.50000000000006</ele><time>2026-05-02T15:54:28.405Z</time></trkpt><trkpt lat="46.2742033" lon="12.3010217"><ele>487.0</ele><time>2026-05-02T15:54:29.406Z</time></trkpt><trkpt lat="46.2741117" lon="12.301015"><ele>487.0</ele><time>2026-05-02T15:54:30.406Z</time></trkpt><trkpt lat="46.2740117" lon="12.3010067"><ele>487.00000000000006</ele><time>2026-05-02T15:54:31.406Z</time></trkpt><trkpt lat="46.2739083" lon="12.30099"><ele>487.00000000000006</ele><time>2026-05-02T15:54:32.406Z</time></trkpt><trkpt lat="46.273805" lon="12.30097"><ele>487.0</ele><time>2026-05-02T15:54:33.406Z</time></trkpt><trkpt lat="46.2736933" lon="12.3009467"><ele>487.0</ele><time>2026-05-02T15:54:34.406Z</time></trkpt><trkpt lat="46.27358" lon="12.3009267"><ele>485.40000000000003</ele><time>2026-05-02T15:54:35.406Z</time></trkpt><trkpt lat="46.2734717" lon="12.30091"><ele>483.80000000000007</ele><time>2026-05-02T15:54:36.406Z</time></trkpt><trkpt lat="46.2733683" lon="12.3008833"><ele>482.2</ele><time>2026-05-02T15:54:37.406Z</time></trkpt><trkpt lat="46.2732683" lon="12.3008567"><ele>480.6</ele><time>2026-05-02T15:54:38.406Z</time></trkpt><trkpt lat="46.2731717" lon="12.3008233"><ele>479.0</ele><time>2026-05-02T15:54:39.406Z</time></trkpt><trkpt lat="46.27308" lon="12.3007967"><ele>477.0</ele><time>2026-05-02T15:54:40.406Z</time></trkpt><trkpt lat="46.27299" lon="12.3007533"><ele>475.0</ele><time>2026-05-02T15:54:41.405Z</time></trkpt><trkpt lat="46.2729017" lon="12.30072"><ele>473.0</ele><time>2026-05-02T15:54:42.406Z</time></trkpt><trkpt lat="46.2728133" lon="12.300685"><ele>471.0</ele><time>2026-05-02T15:54:43.406Z</time></trkpt><trkpt lat="46.272725" lon="12.30064"><ele>469.0</ele><time>2026-05-02T15:54:44.406Z</time></trkpt><trkpt lat="46.2726283" lon="12.3005917"><ele>472.6</ele><time>2026-05-02T15:54:45.406Z</time></trkpt><trkpt lat="46.2725333" lon="12.3005433"><ele>476.2</ele><time>2026-05-02T15:54:46.406Z</time></trkpt><trkpt lat="46.272425" lon="12.3004983"><ele>479.80000000000007</ele><time>2026-05-02T15:54:47.406Z</time></trkpt><trkpt lat="46.27231" lon="12.3004733"><ele>483.40000000000003</ele><time>2026-05-02T15:54:48.405Z</time></trkpt><trkpt lat="46.272195" lon="12.3004433"><ele>487.0</ele><time>2026-05-02T15:54:49.406Z</time></trkpt><trkpt lat="46.2720817" lon="12.3004583"><ele>487.0</ele><time>2026-05-02T15:54:50.406Z</time></trkpt><trkpt lat="46.2719683" lon="12.30049"><ele>487.0</ele><time>2026-05-02T15:54:51.406Z</time></trkpt><trkpt lat="46.271845" lon="12.300525"><ele>487.0</ele><time>2026-05-02T15:54:52.405Z</time></trkpt><trkpt lat="46.271705" lon="12.3005983"><ele>487.0</ele><time>2026-05-02T15:54:53.406Z</time></trkpt><trkpt lat="46.2715383" lon="12.3006867"><ele>483.6666666666667</ele><time>2026-05-02T15:54:54.406Z</time></trkpt><trkpt lat="46.2713767" lon="12.30078"><ele>480.33333333333337</ele><time>2026-05-02T15:54:55.405Z</time></trkpt><trkpt lat="46.2712233" lon="12.3008667"><ele>477.0</ele><time>2026-05-02T15:54:56.406Z</time></trkpt><trkpt lat="46.2710783" lon="12.30096"><ele>477.0</ele><time>2026-05-02T15:54:57.406Z</time></trkpt><trkpt lat="46.2709283" lon="12.3010517"><ele>477.0</ele><time>2026-05-02T15:54:58.406Z</time></trkpt><trkpt lat="46.2707867" lon="12.3011467"><ele>477.0</ele><time>2026-05-02T15:54:59.406Z</time></trkpt><trkpt lat="46.270635" lon="12.301245"><ele>477.66666666666663</ele><time>2026-05-02T15:55:00.406Z</time></trkpt><trkpt lat="46.2704867" lon="12.3013417"><ele>478.3333333333333</ele><time>2026-05-02T15:55:01.406Z</time></trkpt><trkpt lat="46.2703467" lon="12.3014317"><ele>479.0</ele><time>2026-05-02T15:55:02.406Z</time></trkpt><trkpt lat="46.2702" lon="12.3015217"><ele>477.0</ele><time>2026-05-02T15:55:03.406Z</time></trkpt><trkpt lat="46.27006" lon="12.3016033"><ele>475.0</ele><time>2026-05-02T15:55:04.406Z</time></trkpt><trkpt lat="46.2699167" lon="12.3016683"><ele>473.0</ele><time>2026-05-02T15:55:05.406Z</time></trkpt><trkpt lat="46.269775" lon="12.3017083"><ele>471.0</ele><time>2026-05-02T15:55:06.406Z</time></trkpt><trkpt lat="46.269635" lon="12.3017433"><ele>471.0</ele><time>2026-05-02T15:55:07.406Z</time></trkpt><trkpt lat="46.2695017" lon="12.3017583"><ele>471.0</ele><time>2026-05-02T15:55:08.405Z</time></trkpt><trkpt lat="46.2693717" lon="12.301765"><ele>471.0</ele><time>2026-05-02T15:55:09.406Z</time></trkpt><trkpt lat="46.2692467" lon="12.3017717"><ele>471.0</ele><time>2026-05-02T15:55:10.405Z</time></trkpt><trkpt lat="46.2691233" lon="12.3017733"><ele>471.0</ele><time>2026-05-02T15:55:11.406Z</time></trkpt><trkpt lat="46.2689983" lon="12.3017617"><ele>471.0</ele><time>2026-05-02T15:55:12.406Z</time></trkpt><trkpt lat="46.2688883" lon="12.301765"><ele>471.0</ele><time>2026-05-02T15:55:13.406Z</time></trkpt><trkpt lat="46.2687883" lon="12.3017633"><ele>471.0</ele><time>2026-05-02T15:55:14.406Z</time></trkpt><trkpt lat="46.2686967" lon="12.3017633"><ele>471.0</ele><time>2026-05-02T15:55:15.406Z</time></trkpt><trkpt lat="46.2686283" lon="12.3017583"><ele>470.8333333333333</ele><time>2026-05-02T15:55:16.406Z</time></trkpt><trkpt lat="46.2685267" lon="12.301755"><ele>470.66666666666663</ele><time>2026-05-02T15:55:18.406Z</time></trkpt><trkpt lat="46.268455" lon="12.3017433"><ele>470.5</ele><time>2026-05-02T15:55:20.406Z</time></trkpt><trkpt lat="46.2683717" lon="12.30172"><ele>470.3333333333333</ele><time>2026-05-02T15:55:23.405Z</time></trkpt><trkpt lat="46.2682817" lon="12.301685"><ele>470.16666666666663</ele><time>2026-05-02T15:55:26.406Z</time></trkpt><trkpt lat="46.268215" lon="12.301655"><ele>470.0</ele><time>2026-05-02T15:55:28.406Z</time></trkpt><trkpt lat="46.2681417" lon="12.301635"><ele>469.49999999999994</ele><time>2026-05-02T15:55:30.406Z</time></trkpt><trkpt lat="46.26807" lon="12.301605"><ele>469.0</ele><time>2026-05-02T15:55:32.406Z</time></trkpt><trkpt lat="46.2680067" lon="12.3015817"><ele>468.5</ele><time>2026-05-02T15:55:34.405Z</time></trkpt><trkpt lat="46.2679283" lon="12.3015583"><ele>468.0</ele><time>2026-05-02T15:55:36.406Z</time></trkpt><trkpt lat="46.2678367" lon="12.3015383"><ele>467.49999999999994</ele><time>2026-05-02T15:55:38.406Z</time></trkpt><trkpt lat="46.267745" lon="12.3015183"><ele>467.0</ele><time>2026-05-02T15:55:40.405Z</time></trkpt><trkpt lat="46.2676533" lon="12.3014933"><ele>466.99999999999994</ele><time>2026-05-02T15:55:42.406Z</time></trkpt><trkpt lat="46.267565" lon="12.3014717"><ele>467.0</ele><time>2026-05-02T15:55:44.406Z</time></trkpt><trkpt lat="46.2674933" lon="12.3014367"><ele>467.0</ele><time>2026-05-02T15:55:46.406Z</time></trkpt><trkpt lat="46.2673983" lon="12.3014067"><ele>467.0</ele><time>2026-05-02T15:55:48.406Z</time></trkpt><trkpt lat="46.2672833" lon="12.3013867"><ele>466.99999999999994</ele><time>2026-05-02T15:55:50.406Z</time></trkpt><trkpt lat="46.26722" lon="12.30138"><ele>467.0</ele><time>2026-05-02T15:55:51.406Z</time></trkpt><trkpt lat="46.2671433" lon="12.3013733"><ele>468.66666666666663</ele><time>2026-05-02T15:55:52.406Z</time></trkpt><trkpt lat="46.2670633" lon="12.3013683"><ele>470.3333333333333</ele><time>2026-05-02T15:55:53.406Z</time></trkpt><trkpt lat="46.266985" lon="12.30137"><ele>472.0</ele><time>2026-05-02T15:55:54.406Z</time></trkpt><trkpt lat="46.266905" lon="12.3013633"><ele>473.66666666666663</ele><time>2026-05-02T15:55:55.406Z</time></trkpt><trkpt lat="46.266825" lon="12.3013617"><ele>475.3333333333333</ele><time>2026-05-02T15:55:56.406Z</time></trkpt><trkpt lat="46.2667417" lon="12.30137"><ele>477.0</ele><time>2026-05-02T15:55:57.406Z</time></trkpt><trkpt lat="46.26666" lon="12.301375"><ele>477.0</ele><time>2026-05-02T15:55:58.406Z</time></trkpt><trkpt lat="46.26658" lon="12.301385"><ele>477.0</ele><time>2026-05-02T15:55:59.406Z</time></trkpt><trkpt lat="46.2664983" lon="12.3014"><ele>477.0</ele><time>2026-05-02T15:56:00.406Z</time></trkpt><trkpt lat="46.2664117" lon="12.3014317"><ele>477.0</ele><time>2026-05-02T15:56:01.406Z</time></trkpt><trkpt lat="46.26633" lon="12.3014417"><ele>477.0</ele><time>2026-05-02T15:56:02.406Z</time></trkpt><trkpt lat="46.2662433" lon="12.3014533"><ele>477.0</ele><time>2026-05-02T15:56:03.406Z</time></trkpt><trkpt lat="46.26616" lon="12.3014683"><ele>476.20000000000005</ele><time>2026-05-02T15:56:04.406Z</time></trkpt><trkpt lat="46.2660683" lon="12.3014833"><ele>475.40000000000003</ele><time>2026-05-02T15:56:05.406Z</time></trkpt><trkpt lat="46.2659667" lon="12.30153"><ele>474.59999999999997</ele><time>2026-05-02T15:56:06.406Z</time></trkpt><trkpt lat="46.265865" lon="12.3015633"><ele>473.79999999999995</ele><time>2026-05-02T15:56:07.406Z</time></trkpt><trkpt lat="46.265765" lon="12.3016033"><ele>473.0</ele><time>2026-05-02T15:56:08.405Z</time></trkpt><trkpt lat="46.2656783" lon="12.3016583"><ele>474.3333333333333</ele><time>2026-05-02T15:56:09.406Z</time></trkpt><trkpt lat="46.2656033" lon="12.301705"><ele>475.66666666666663</ele><time>2026-05-02T15:56:10.406Z</time></trkpt><trkpt lat="46.26553" lon="12.3017633"><ele>477.0</ele><time>2026-05-02T15:56:11.406Z</time></trkpt><trkpt lat="46.2654633" lon="12.3018333"><ele>478.33333333333337</ele><time>2026-05-02T15:56:12.406Z</time></trkpt><trkpt lat="46.2654017" lon="12.30191"><ele>479.6666666666667</ele><time>2026-05-02T15:56:13.406Z</time></trkpt><trkpt lat="46.2653467" lon="12.3020017"><ele>481.0</ele><time>2026-05-02T15:56:14.406Z</time></trkpt><trkpt lat="46.2652867" lon="12.3020917"><ele>481.0</ele><time>2026-05-02T15:56:15.406Z</time></trkpt><trkpt lat="46.2652267" lon="12.3021883"><ele>481.0</ele><time>2026-05-02T15:56:16.406Z</time></trkpt><trkpt lat="46.26516" lon="12.3022917"><ele>481.0</ele><time>2026-05-02T15:56:17.406Z</time></trkpt><trkpt lat="46.2650967" lon="12.3023867"><ele>481.0</ele><time>2026-05-02T15:56:18.405Z</time></trkpt><trkpt lat="46.2650317" lon="12.3024833"><ele>481.0</ele><time>2026-05-02T15:56:19.406Z</time></trkpt><trkpt lat="46.264965" lon="12.3025833"><ele>480.8</ele><time>2026-05-02T15:56:20.406Z</time></trkpt><trkpt lat="46.26489" lon="12.3026783"><ele>480.6</ele><time>2026-05-02T15:56:21.406Z</time></trkpt><trkpt lat="46.2648083" lon="12.30277"><ele>480.4</ele><time>2026-05-02T15:56:22.406Z</time></trkpt><trkpt lat="46.2647183" lon="12.302855"><ele>480.2</ele><time>2026-05-02T15:56:23.406Z</time></trkpt><trkpt lat="46.2646183" lon="12.3029283"><ele>480.0</ele><time>2026-05-02T15:56:24.406Z</time></trkpt><trkpt lat="46.26451" lon="12.3029817"><ele>480.0</ele><time>2026-05-02T15:56:25.405Z</time></trkpt><trkpt lat="46.264395" lon="12.3030183"><ele>480.0</ele><time>2026-05-02T15:56:26.406Z</time></trkpt><trkpt lat="46.2642733" lon="12.3030433"><ele>480.0</ele><time>2026-05-02T15:56:27.406Z</time></trkpt><trkpt lat="46.2641533" lon="12.3030467"><ele>480.0</ele><time>2026-05-02T15:56:28.406Z</time></trkpt><trkpt lat="46.2640167" lon="12.303025"><ele>475.33333333333337</ele><time>2026-05-02T15:56:29.405Z</time></trkpt><trkpt lat="46.26387" lon="12.30297"><ele>470.6666666666667</ele><time>2026-05-02T15:56:30.406Z</time></trkpt><trkpt lat="46.2636967" lon="12.302885"><ele>466.0</ele><time>2026-05-02T15:56:31.406Z</time></trkpt><trkpt lat="46.2634917" lon="12.3027717"><ele>466.0</ele><time>2026-05-02T15:56:32.406Z</time></trkpt><trkpt lat="46.26327" lon="12.3026083"><ele>466.0</ele><time>2026-05-02T15:56:33.405Z</time></trkpt><trkpt lat="46.2630333" lon="12.3024367"><ele>464.5</ele><time>2026-05-02T15:56:34.406Z</time></trkpt><trkpt lat="46.26279" lon="12.30227"><ele>463.0</ele><time>2026-05-02T15:56:35.406Z</time></trkpt><trkpt lat="46.262555" lon="12.3021083"><ele>463.0</ele><time>2026-05-02T15:56:36.406Z</time></trkpt><trkpt lat="46.2623233" lon="12.3019517"><ele>463.0</ele><time>2026-05-02T15:56:37.406Z</time></trkpt><trkpt lat="46.2621083" lon="12.3017967"><ele>456.0</ele><time>2026-05-02T15:56:38.406Z</time></trkpt><trkpt lat="46.261895" lon="12.3016517"><ele>449.0</ele><time>2026-05-02T15:56:39.406Z</time></trkpt><trkpt lat="46.261695" lon="12.3015067"><ele>449.66666666666663</ele><time>2026-05-02T15:56:40.406Z</time></trkpt><trkpt lat="46.2615" lon="12.30137"><ele>450.33333333333337</ele><time>2026-05-02T15:56:41.406Z</time></trkpt><trkpt lat="46.2613083" lon="12.3012283"><ele>451.0</ele><time>2026-05-02T15:56:42.406Z</time></trkpt><trkpt lat="46.261125" lon="12.301085"><ele>451.0</ele><time>2026-05-02T15:56:43.406Z</time></trkpt><trkpt lat="46.26095" lon="12.30092"><ele>451.0</ele><time>2026-05-02T15:56:44.406Z</time></trkpt><trkpt lat="46.2607717" lon="12.30076"><ele>451.0</ele><time>2026-05-02T15:56:45.406Z</time></trkpt><trkpt lat="46.260585" lon="12.3006067"><ele>449.0</ele><time>2026-05-02T15:56:46.406Z</time></trkpt><trkpt lat="46.2604" lon="12.3004617"><ele>447.0</ele><time>2026-05-02T15:56:47.406Z</time></trkpt><trkpt lat="46.260205" lon="12.30035"><ele>445.0</ele><time>2026-05-02T15:56:48.406Z</time></trkpt><trkpt lat="46.2600083" lon="12.3002667"><ele>445.0</ele><time>2026-05-02T15:56:49.406Z</time></trkpt><trkpt lat="46.259815" lon="12.3001833"><ele>445.0</ele><time>2026-05-02T15:56:50.406Z</time></trkpt><trkpt lat="46.259625" lon="12.3000983"><ele>445.0</ele><time>2026-05-02T15:56:51.406Z</time></trkpt><trkpt lat="46.25945" lon="12.300005"><ele>443.33333333333337</ele><time>2026-05-02T15:56:52.406Z</time></trkpt><trkpt lat="46.2592817" lon="12.2999467"><ele>441.66666666666663</ele><time>2026-05-02T15:56:53.406Z</time></trkpt><trkpt lat="46.2591117" lon="12.299905"><ele>440.0</ele><time>2026-05-02T15:56:54.406Z</time></trkpt><trkpt lat="46.2589517" lon="12.2998817"><ele>438.3333333333333</ele><time>2026-05-02T15:56:55.406Z</time></trkpt><trkpt lat="46.25879" lon="12.2998517"><ele>436.66666666666663</ele><time>2026-05-02T15:56:56.406Z</time></trkpt><trkpt lat="46.2586233" lon="12.2998217"><ele>435.0</ele><time>2026-05-02T15:56:57.406Z</time></trkpt><trkpt lat="46.25846" lon="12.2997883"><ele>435.0</ele><time>2026-05-02T15:56:58.406Z</time></trkpt><trkpt lat="46.2582983" lon="12.2997533"><ele>435.0</ele><time>2026-05-02T15:56:59.406Z</time></trkpt><trkpt lat="46.2581367" lon="12.2997133"><ele>435.0</ele><time>2026-05-02T15:57:00.406Z</time></trkpt><trkpt lat="46.2579783" lon="12.29965"><ele>440.33333333333337</ele><time>2026-05-02T15:57:01.406Z</time></trkpt><trkpt lat="46.257825" lon="12.2995767"><ele>445.6666666666667</ele><time>2026-05-02T15:57:02.406Z</time></trkpt><trkpt lat="46.2576767" lon="12.2995017"><ele>451.0</ele><time>2026-05-02T15:57:03.406Z</time></trkpt><trkpt lat="46.2575267" lon="12.2994217"><ele>451.0</ele><time>2026-05-02T15:57:04.405Z</time></trkpt><trkpt lat="46.257375" lon="12.29935"><ele>451.0</ele><time>2026-05-02T15:57:05.406Z</time></trkpt><trkpt lat="46.2572233" lon="12.2992817"><ele>451.0</ele><time>2026-05-02T15:57:06.405Z</time></trkpt><trkpt lat="46.2570717" lon="12.2992167"><ele>446.33333333333337</ele><time>2026-05-02T15:57:07.405Z</time></trkpt><trkpt lat="46.2569267" lon="12.2991367"><ele>441.66666666666663</ele><time>2026-05-02T15:57:08.406Z</time></trkpt><trkpt lat="46.2567767" lon="12.2990783"><ele>437.0</ele><time>2026-05-02T15:57:09.405Z</time></trkpt><trkpt lat="46.2566283" lon="12.2989917"><ele>437.0</ele><time>2026-05-02T15:57:10.405Z</time></trkpt><trkpt lat="46.25648" lon="12.2989367"><ele>437.0</ele><time>2026-05-02T15:57:11.406Z</time></trkpt><trkpt lat="46.2563317" lon="12.2988983"><ele>437.0</ele><time>2026-05-02T15:57:12.406Z</time></trkpt><trkpt lat="46.2561917" lon="12.2988417"><ele>437.0</ele><time>2026-05-02T15:57:13.406Z</time></trkpt><trkpt lat="46.2560533" lon="12.298785"><ele>439.75</ele><time>2026-05-02T15:57:14.406Z</time></trkpt><trkpt lat="46.25591" lon="12.29874"><ele>442.5</ele><time>2026-05-02T15:57:15.406Z</time></trkpt><trkpt lat="46.255765" lon="12.2986983"><ele>445.25</ele><time>2026-05-02T15:57:16.405Z</time></trkpt><trkpt lat="46.255615" lon="12.2986583"><ele>448.0</ele><time>2026-05-02T15:57:17.406Z</time></trkpt><trkpt lat="46.2554617" lon="12.2986467"><ele>449.0</ele><time>2026-05-02T15:57:18.406Z</time></trkpt><trkpt lat="46.2553067" lon="12.29864"><ele>450.0</ele><time>2026-05-02T15:57:19.406Z</time></trkpt><trkpt lat="46.2551517" lon="12.2986333"><ele>451.0</ele><time>2026-05-02T15:57:20.405Z</time></trkpt><trkpt lat="46.2549933" lon="12.2986283"><ele>451.0</ele><time>2026-05-02T15:57:21.405Z</time></trkpt><trkpt lat="46.2548333" lon="12.29863"><ele>451.0</ele><time>2026-05-02T15:57:22.405Z</time></trkpt><trkpt lat="46.25467" lon="12.2986233"><ele>451.0</ele><time>2026-05-02T15:57:23.405Z</time></trkpt><trkpt lat="46.2545083" lon="12.2986183"><ele>449.33333333333337</ele><time>2026-05-02T15:57:24.405Z</time></trkpt><trkpt lat="46.2543383" lon="12.2986033"><ele>447.66666666666663</ele><time>2026-05-02T15:57:25.405Z</time></trkpt><trkpt lat="46.25417" lon="12.2986033"><ele>446.0</ele><time>2026-05-02T15:57:26.406Z</time></trkpt><trkpt lat="46.2540067" lon="12.2986"><ele>447.0</ele><time>2026-05-02T15:57:27.406Z</time></trkpt><trkpt lat="46.253845" lon="12.2986"><ele>448.0</ele><time>2026-05-02T15:57:28.406Z</time></trkpt><trkpt lat="46.2536867" lon="12.29859"><ele>449.0</ele><time>2026-05-02T15:57:29.405Z</time></trkpt><trkpt lat="46.25353" lon="12.2985817"><ele>449.0</ele><time>2026-05-02T15:57:30.406Z</time></trkpt><trkpt lat="46.2533767" lon="12.2985667"><ele>449.0</ele><time>2026-05-02T15:57:31.406Z</time></trkpt><trkpt lat="46.25322" lon="12.298565"><ele>449.0</ele><time>2026-05-02T15:57:32.406Z</time></trkpt><trkpt lat="46.2530633" lon="12.2985667"><ele>450.0</ele><time>2026-05-02T15:57:33.406Z</time></trkpt><trkpt lat="46.2529017" lon="12.2985683"><ele>451.0</ele><time>2026-05-02T15:57:34.406Z</time></trkpt><trkpt lat="46.252735" lon="12.2985667"><ele>452.0</ele><time>2026-05-02T15:57:35.406Z</time></trkpt><trkpt lat="46.252575" lon="12.298575"><ele>452.0</ele><time>2026-05-02T15:57:36.406Z</time></trkpt><trkpt lat="46.2524267" lon="12.2985583"><ele>452.0</ele><time>2026-05-02T15:57:37.406Z</time></trkpt><trkpt lat="46.2522817" lon="12.2985267"><ele>452.0</ele><time>2026-05-02T15:57:38.406Z</time></trkpt><trkpt lat="46.2521433" lon="12.2985033"><ele>452.0</ele><time>2026-05-02T15:57:39.406Z</time></trkpt><trkpt lat="46.25201" lon="12.2984883"><ele>449.75</ele><time>2026-05-02T15:57:40.406Z</time></trkpt><trkpt lat="46.251885" lon="12.2984667"><ele>447.5</ele><time>2026-05-02T15:57:41.406Z</time></trkpt><trkpt lat="46.2517667" lon="12.2984383"><ele>445.25</ele><time>2026-05-02T15:57:42.406Z</time></trkpt><trkpt lat="46.251645" lon="12.2984183"><ele>443.0</ele><time>2026-05-02T15:57:43.406Z</time></trkpt><trkpt lat="46.2515233" lon="12.2984017"><ele>441.5</ele><time>2026-05-02T15:57:44.405Z</time></trkpt><trkpt lat="46.2514" lon="12.2983833"><ele>440.0</ele><time>2026-05-02T15:57:45.406Z</time></trkpt><trkpt lat="46.25127" lon="12.2983583"><ele>438.5</ele><time>2026-05-02T15:57:46.406Z</time></trkpt><trkpt lat="46.2511333" lon="12.29834"><ele>437.0</ele><time>2026-05-02T15:57:47.405Z</time></trkpt><trkpt lat="46.2510117" lon="12.2983283"><ele>437.0</ele><time>2026-05-02T15:57:48.406Z</time></trkpt><trkpt lat="46.250895" lon="12.2983117"><ele>437.0</ele><time>2026-05-02T15:57:49.406Z</time></trkpt><trkpt lat="46.2507733" lon="12.2983017"><ele>437.0</ele><time>2026-05-02T15:57:50.406Z</time></trkpt><trkpt lat="46.2506567" lon="12.2982917"><ele>437.0</ele><time>2026-05-02T15:57:51.406Z</time></trkpt><trkpt lat="46.2505467" lon="12.2982867"><ele>437.40000000000003</ele><time>2026-05-02T15:57:52.406Z</time></trkpt><trkpt lat="46.25044" lon="12.2983017"><ele>437.80000000000007</ele><time>2026-05-02T15:57:53.406Z</time></trkpt><trkpt lat="46.25034" lon="12.2983167"><ele>438.2</ele><time>2026-05-02T15:57:54.406Z</time></trkpt><trkpt lat="46.25024" lon="12.2983283"><ele>438.6</ele><time>2026-05-02T15:57:55.405Z</time></trkpt><trkpt lat="46.250145" lon="12.2983383"><ele>439.0</ele><time>2026-05-02T15:57:56.406Z</time></trkpt><trkpt lat="46.2500517" lon="12.2983467"><ele>439.0</ele><time>2026-05-02T15:57:57.406Z</time></trkpt><trkpt lat="46.2499533" lon="12.298375"><ele>439.0</ele><time>2026-05-02T15:57:58.405Z</time></trkpt><trkpt lat="46.249855" lon="12.298395"><ele>439.0</ele><time>2026-05-02T15:57:59.406Z</time></trkpt><trkpt lat="46.2497533" lon="12.2984183"><ele>439.0</ele><time>2026-05-02T15:58:00.406Z</time></trkpt><trkpt lat="46.2496467" lon="12.2984317"><ele>439.0</ele><time>2026-05-02T15:58:01.406Z</time></trkpt><trkpt lat="46.2495417" lon="12.298445"><ele>438.0</ele><time>2026-05-02T15:58:02.406Z</time></trkpt><trkpt lat="46.2494317" lon="12.2984583"><ele>437.0</ele><time>2026-05-02T15:58:03.406Z</time></trkpt><trkpt lat="46.2493267" lon="12.29847"><ele>436.0</ele><time>2026-05-02T15:58:04.406Z</time></trkpt><trkpt lat="46.2492167" lon="12.2984933"><ele>435.0</ele><time>2026-05-02T15:58:05.406Z</time></trkpt><trkpt lat="46.2491017" lon="12.298525"><ele>434.0</ele><time>2026-05-02T15:58:06.406Z</time></trkpt><trkpt lat="46.2489883" lon="12.29855"><ele>433.79999999999995</ele><time>2026-05-02T15:58:07.405Z</time></trkpt><trkpt lat="46.248875" lon="12.29857"><ele>433.59999999999997</ele><time>2026-05-02T15:58:08.405Z</time></trkpt><trkpt lat="46.2487717" lon="12.2985883"><ele>433.4</ele><time>2026-05-02T15:58:09.406Z</time></trkpt><trkpt lat="46.2486733" lon="12.29861"><ele>433.2</ele><time>2026-05-02T15:58:10.406Z</time></trkpt><trkpt lat="46.24857" lon="12.29863"><ele>433.0</ele><time>2026-05-02T15:58:11.406Z</time></trkpt><trkpt lat="46.24846" lon="12.2986533"><ele>433.0</ele><time>2026-05-02T15:58:12.406Z</time></trkpt><trkpt lat="46.2483533" lon="12.2986817"><ele>432.99999999999994</ele><time>2026-05-02T15:58:13.406Z</time></trkpt><trkpt lat="46.2482483" lon="12.2987117"><ele>432.99999999999994</ele><time>2026-05-02T15:58:14.406Z</time></trkpt><trkpt lat="46.24815" lon="12.298745"><ele>433.0</ele><time>2026-05-02T15:58:15.406Z</time></trkpt><trkpt lat="46.248055" lon="12.298775"><ele>433.0</ele><time>2026-05-02T15:58:16.406Z</time></trkpt><trkpt lat="46.24796" lon="12.2987933"><ele>433.2</ele><time>2026-05-02T15:58:17.406Z</time></trkpt><trkpt lat="46.2478583" lon="12.2988233"><ele>433.4</ele><time>2026-05-02T15:58:18.406Z</time></trkpt><trkpt lat="46.24776" lon="12.29886"><ele>433.59999999999997</ele><time>2026-05-02T15:58:19.406Z</time></trkpt><trkpt lat="46.2476633" lon="12.2989017"><ele>433.79999999999995</ele><time>2026-05-02T15:58:20.406Z</time></trkpt><trkpt lat="46.2475683" lon="12.2989483"><ele>434.0</ele><time>2026-05-02T15:58:21.406Z</time></trkpt><trkpt lat="46.24746" lon="12.2989767"><ele>433.0</ele><time>2026-05-02T15:58:22.406Z</time></trkpt><trkpt lat="46.2473483" lon="12.2990033"><ele>432.0</ele><time>2026-05-02T15:58:23.406Z</time></trkpt><trkpt lat="46.2472333" lon="12.29902"><ele>431.0</ele><time>2026-05-02T15:58:24.406Z</time></trkpt><trkpt lat="46.2471117" lon="12.2990367"><ele>430.0</ele><time>2026-05-02T15:58:25.406Z</time></trkpt><trkpt lat="46.2469867" lon="12.2990433"><ele>430.0</ele><time>2026-05-02T15:58:26.406Z</time></trkpt><trkpt lat="46.2468633" lon="12.2990317"><ele>430.0</ele><time>2026-05-02T15:58:27.406Z</time></trkpt><trkpt lat="46.2467383" lon="12.2990117"><ele>430.0</ele><time>2026-05-02T15:58:28.406Z</time></trkpt><trkpt lat="46.246595" lon="12.2989833"><ele>430.0</ele><time>2026-05-02T15:58:29.406Z</time></trkpt><trkpt lat="46.2464567" lon="12.2989317"><ele>431.0</ele><time>2026-05-02T15:58:30.406Z</time></trkpt><trkpt lat="46.2463217" lon="12.29887"><ele>432.0</ele><time>2026-05-02T15:58:31.406Z</time></trkpt><trkpt lat="46.246185" lon="12.298795"><ele>433.0</ele><time>2026-05-02T15:58:32.405Z</time></trkpt><trkpt lat="46.2460617" lon="12.2987083"><ele>434.0</ele><time>2026-05-02T15:58:33.405Z</time></trkpt><trkpt lat="46.245935" lon="12.2986133"><ele>434.0</ele><time>2026-05-02T15:58:34.406Z</time></trkpt><trkpt lat="46.2458183" lon="12.298505"><ele>434.0</ele><time>2026-05-02T15:58:35.406Z</time></trkpt><trkpt lat="46.2457067" lon="12.2983933"><ele>434.0</ele><time>2026-05-02T15:58:36.406Z</time></trkpt><trkpt lat="46.2456017" lon="12.2982833"><ele>434.0</ele><time>2026-05-02T15:58:37.406Z</time></trkpt><trkpt lat="46.2455117" lon="12.2981617"><ele>434.0</ele><time>2026-05-02T15:58:38.406Z</time></trkpt><trkpt lat="46.24542" lon="12.2980533"><ele>434.0</ele><time>2026-05-02T15:58:39.406Z</time></trkpt><trkpt lat="46.2453267" lon="12.2979383"><ele>434.0</ele><time>2026-05-02T15:58:40.406Z</time></trkpt><trkpt lat="46.245235" lon="12.2978267"><ele>434.0</ele><time>2026-05-02T15:58:41.406Z</time></trkpt><trkpt lat="46.2451367" lon="12.2977217"><ele>434.0</ele><time>2026-05-02T15:58:42.406Z</time></trkpt><trkpt lat="46.2450317" lon="12.2976117"><ele>434.0</ele><time>2026-05-02T15:58:43.406Z</time></trkpt><trkpt lat="46.244915" lon="12.2974967"><ele>434.0</ele><time>2026-05-02T15:58:44.405Z</time></trkpt><trkpt lat="46.2447917" lon="12.2973717"><ele>434.0</ele><time>2026-05-02T15:58:45.406Z</time></trkpt><trkpt lat="46.244665" lon="12.2972383"><ele>435.66666666666663</ele><time>2026-05-02T15:58:46.406Z</time></trkpt><trkpt lat="46.2445367" lon="12.29711"><ele>437.33333333333337</ele><time>2026-05-02T15:58:47.405Z</time></trkpt><trkpt lat="46.244415" lon="12.2969767"><ele>439.0</ele><time>2026-05-02T15:58:48.406Z</time></trkpt><trkpt lat="46.24429" lon="12.29686"><ele>439.0</ele><time>2026-05-02T15:58:49.406Z</time></trkpt><trkpt lat="46.24417" lon="12.2967367"><ele>439.0</ele><time>2026-05-02T15:58:50.406Z</time></trkpt><trkpt lat="46.24405" lon="12.296615"><ele>439.0</ele><time>2026-05-02T15:58:51.405Z</time></trkpt><trkpt lat="46.24393" lon="12.2964917"><ele>439.0</ele><time>2026-05-02T15:58:52.405Z</time></trkpt><trkpt lat="46.2438017" lon="12.2963583"><ele>439.6666666666667</ele><time>2026-05-02T15:58:53.405Z</time></trkpt><trkpt lat="46.24366" lon="12.2962217"><ele>440.33333333333337</ele><time>2026-05-02T15:58:54.406Z</time></trkpt><trkpt lat="46.2435217" lon="12.2960733"><ele>441.0</ele><time>2026-05-02T15:58:55.406Z</time></trkpt><trkpt lat="46.24339" lon="12.29593"><ele>441.0</ele><time>2026-05-02T15:58:56.406Z</time></trkpt><trkpt lat="46.24326" lon="12.2957933"><ele>441.0</ele><time>2026-05-02T15:58:57.406Z</time></trkpt><trkpt lat="46.2431333" lon="12.2956767"><ele>441.0</ele><time>2026-05-02T15:58:58.406Z</time></trkpt><trkpt lat="46.243025" lon="12.2955617"><ele>441.0</ele><time>2026-05-02T15:58:59.405Z</time></trkpt><trkpt lat="46.2429167" lon="12.2954733"><ele>441.75</ele><time>2026-05-02T15:59:00.406Z</time></trkpt><trkpt lat="46.242815" lon="12.295375"><ele>442.5</ele><time>2026-05-02T15:59:01.406Z</time></trkpt><trkpt lat="46.2427133" lon="12.2952633"><ele>443.25</ele><time>2026-05-02T15:59:02.405Z</time></trkpt><trkpt lat="46.24261" lon="12.2951583"><ele>444.0</ele><time>2026-05-02T15:59:03.406Z</time></trkpt><trkpt lat="46.2425067" lon="12.2950433"><ele>444.0</ele><time>2026-05-02T15:59:04.406Z</time></trkpt><trkpt lat="46.2423967" lon="12.2949367"><ele>444.0</ele><time>2026-05-02T15:59:05.406Z</time></trkpt><trkpt lat="46.242285" lon="12.2948433"><ele>444.0</ele><time>2026-05-02T15:59:06.406Z</time></trkpt><trkpt lat="46.2421633" lon="12.29475"><ele>444.0</ele><time>2026-05-02T15:59:07.406Z</time></trkpt><trkpt lat="46.2420333" lon="12.29467"><ele>447.5</ele><time>2026-05-02T15:59:08.406Z</time></trkpt><trkpt lat="46.2418967" lon="12.2946033"><ele>451.0</ele><time>2026-05-02T15:59:09.406Z</time></trkpt><trkpt lat="46.24176" lon="12.29456"><ele>454.5</ele><time>2026-05-02T15:59:10.406Z</time></trkpt><trkpt lat="46.2416233" lon="12.29453"><ele>458.0</ele><time>2026-05-02T15:59:11.406Z</time></trkpt><trkpt lat="46.24148" lon="12.29454"><ele>455.25</ele><time>2026-05-02T15:59:12.406Z</time></trkpt><trkpt lat="46.2413417" lon="12.2945617"><ele>452.5</ele><time>2026-05-02T15:59:13.406Z</time></trkpt><trkpt lat="46.2412233" lon="12.2946117"><ele>449.75</ele><time>2026-05-02T15:59:14.405Z</time></trkpt><trkpt lat="46.241115" lon="12.2946633"><ele>447.0</ele><time>2026-05-02T15:59:15.405Z</time></trkpt><trkpt lat="46.2410117" lon="12.2947433"><ele>444.5</ele><time>2026-05-02T15:59:16.406Z</time></trkpt><trkpt lat="46.2409033" lon="12.2948283"><ele>442.0</ele><time>2026-05-02T15:59:17.406Z</time></trkpt><trkpt lat="46.240795" lon="12.2949"><ele>439.5</ele><time>2026-05-02T15:59:18.406Z</time></trkpt><trkpt lat="46.2406867" lon="12.2949833"><ele>437.0</ele><time>2026-05-02T15:59:19.406Z</time></trkpt><trkpt lat="46.240575" lon="12.2950617"><ele>437.0</ele><time>2026-05-02T15:59:20.406Z</time></trkpt><trkpt lat="46.2404583" lon="12.2951483"><ele>437.0</ele><time>2026-05-02T15:59:21.405Z</time></trkpt><trkpt lat="46.24033" lon="12.29524"><ele>437.0</ele><time>2026-05-02T15:59:22.405Z</time></trkpt><trkpt lat="46.240185" lon="12.29533"><ele>437.0</ele><time>2026-05-02T15:59:23.406Z</time></trkpt><trkpt lat="46.2400233" lon="12.295415"><ele>437.0</ele><time>2026-05-02T15:59:24.405Z</time></trkpt><trkpt lat="46.23987" lon="12.295475"><ele>437.0</ele><time>2026-05-02T15:59:25.405Z</time></trkpt><trkpt lat="46.2397233" lon="12.2955167"><ele>437.0</ele><time>2026-05-02T15:59:26.406Z</time></trkpt><trkpt lat="46.2395917" lon="12.2955517"><ele>437.0</ele><time>2026-05-02T15:59:27.406Z</time></trkpt><trkpt lat="46.2394617" lon="12.295575"><ele>436.0</ele><time>2026-05-02T15:59:28.405Z</time></trkpt><trkpt lat="46.239325" lon="12.2955933"><ele>435.0</ele><time>2026-05-02T15:59:29.405Z</time></trkpt><trkpt lat="46.2391683" lon="12.29562"><ele>434.0</ele><time>2026-05-02T15:59:30.406Z</time></trkpt><trkpt lat="46.2390067" lon="12.29562"><ele>434.0</ele><time>2026-05-02T15:59:31.406Z</time></trkpt><trkpt lat="46.23885" lon="12.2956033"><ele>434.0</ele><time>2026-05-02T15:59:32.406Z</time></trkpt><trkpt lat="46.23871" lon="12.295575"><ele>434.0</ele><time>2026-05-02T15:59:33.406Z</time></trkpt><trkpt lat="46.2385783" lon="12.29555"><ele>434.0</ele><time>2026-05-02T15:59:34.406Z</time></trkpt><trkpt lat="46.2384433" lon="12.29551"><ele>434.0</ele><time>2026-05-02T15:59:35.406Z</time></trkpt><trkpt lat="46.23831" lon="12.29547"><ele>434.0</ele><time>2026-05-02T15:59:36.406Z</time></trkpt><trkpt lat="46.2381617" lon="12.2954233"><ele>434.0</ele><time>2026-05-02T15:59:37.405Z</time></trkpt><trkpt lat="46.2379917" lon="12.2953733"><ele>435.3333333333333</ele><time>2026-05-02T15:59:38.405Z</time></trkpt><trkpt lat="46.2378217" lon="12.2953067"><ele>436.66666666666663</ele><time>2026-05-02T15:59:39.406Z</time></trkpt><trkpt lat="46.2376667" lon="12.2952233"><ele>438.0</ele><time>2026-05-02T15:59:40.406Z</time></trkpt><trkpt lat="46.2375117" lon="12.2951583"><ele>438.0</ele><time>2026-05-02T15:59:41.405Z</time></trkpt><trkpt lat="46.23737" lon="12.2951117"><ele>438.0</ele><time>2026-05-02T15:59:42.406Z</time></trkpt><trkpt lat="46.2372333" lon="12.2950667"><ele>438.0</ele><time>2026-05-02T15:59:43.406Z</time></trkpt><trkpt lat="46.2371067" lon="12.295015"><ele>438.0</ele><time>2026-05-02T15:59:44.406Z</time></trkpt><trkpt lat="46.2369767" lon="12.294965"><ele>437.25</ele><time>2026-05-02T15:59:45.405Z</time></trkpt><trkpt lat="46.2368417" lon="12.2949133"><ele>436.5</ele><time>2026-05-02T15:59:46.406Z</time></trkpt><trkpt lat="46.236705" lon="12.2948583"><ele>435.75</ele><time>2026-05-02T15:59:47.406Z</time></trkpt><trkpt lat="46.236565" lon="12.2948017"><ele>435.0</ele><time>2026-05-02T15:59:48.406Z</time></trkpt><trkpt lat="46.2364217" lon="12.294755"><ele>437.0</ele><time>2026-05-02T15:59:49.406Z</time></trkpt><trkpt lat="46.2362683" lon="12.2947133"><ele>439.0</ele><time>2026-05-02T15:59:50.406Z</time></trkpt><trkpt lat="46.2361167" lon="12.29467"><ele>441.0</ele><time>2026-05-02T15:59:51.406Z</time></trkpt><trkpt lat="46.2359683" lon="12.29462"><ele>441.0</ele><time>2026-05-02T15:59:52.405Z</time></trkpt><trkpt lat="46.2358233" lon="12.29457"><ele>441.0</ele><time>2026-05-02T15:59:53.406Z</time></trkpt><trkpt lat="46.23566" lon="12.2945167"><ele>441.0</ele><time>2026-05-02T15:59:54.406Z</time></trkpt><trkpt lat="46.2354867" lon="12.2944533"><ele>441.0</ele><time>2026-05-02T15:59:55.406Z</time></trkpt><trkpt lat="46.2353167" lon="12.2943767"><ele>441.0</ele><time>2026-05-02T15:59:56.406Z</time></trkpt><trkpt lat="46.2351467" lon="12.294305"><ele>441.0</ele><time>2026-05-02T15:59:57.406Z</time></trkpt><trkpt lat="46.2349767" lon="12.2942317"><ele>441.0</ele><time>2026-05-02T15:59:58.406Z</time></trkpt><trkpt lat="46.2348067" lon="12.2941533"><ele>441.0</ele><time>2026-05-02T15:59:59.406Z</time></trkpt><trkpt lat="46.2346283" lon="12.2940817"><ele>441.0</ele><time>2026-05-02T16:00:00.406Z</time></trkpt><trkpt lat="46.2344533" lon="12.293975"><ele>438.66666666666663</ele><time>2026-05-02T16:00:01.406Z</time></trkpt><trkpt lat="46.2342833" lon="12.2938667"><ele>436.3333333333333</ele><time>2026-05-02T16:00:02.406Z</time></trkpt><trkpt lat="46.23411" lon="12.29375"><ele>434.0</ele><time>2026-05-02T16:00:03.405Z</time></trkpt><trkpt lat="46.2339467" lon="12.2936067"><ele>434.0</ele><time>2026-05-02T16:00:04.406Z</time></trkpt><trkpt lat="46.233785" lon="12.2934533"><ele>434.0</ele><time>2026-05-02T16:00:05.406Z</time></trkpt><trkpt lat="46.2336283" lon="12.293295"><ele>434.0</ele><time>2026-05-02T16:00:06.405Z</time></trkpt><trkpt lat="46.2334833" lon="12.2931367"><ele>433.3333333333333</ele><time>2026-05-02T16:00:07.406Z</time></trkpt><trkpt lat="46.2333383" lon="12.2929817"><ele>432.66666666666663</ele><time>2026-05-02T16:00:08.405Z</time></trkpt><trkpt lat="46.2331933" lon="12.2928367"><ele>432.0</ele><time>2026-05-02T16:00:09.406Z</time></trkpt><trkpt lat="46.233055" lon="12.292695"><ele>432.0</ele><time>2026-05-02T16:00:10.406Z</time></trkpt><trkpt lat="46.2329133" lon="12.29257"><ele>432.0</ele><time>2026-05-02T16:00:11.406Z</time></trkpt><trkpt lat="46.2327817" lon="12.2924333"><ele>432.0</ele><time>2026-05-02T16:00:12.405Z</time></trkpt><trkpt lat="46.232655" lon="12.29228"><ele>431.0</ele><time>2026-05-02T16:00:13.406Z</time></trkpt><trkpt lat="46.23253" lon="12.29212"><ele>430.0</ele><time>2026-05-02T16:00:14.406Z</time></trkpt><trkpt lat="46.232415" lon="12.29196"><ele>429.0</ele><time>2026-05-02T16:00:15.406Z</time></trkpt><trkpt lat="46.2322933" lon="12.291815"><ele>429.0</ele><time>2026-05-02T16:00:16.406Z</time></trkpt><trkpt lat="46.2321883" lon="12.2916683"><ele>429.0</ele><time>2026-05-02T16:00:17.406Z</time></trkpt><trkpt lat="46.23209" lon="12.2915133"><ele>429.0</ele><time>2026-05-02T16:00:18.406Z</time></trkpt><trkpt lat="46.23199" lon="12.2913583"><ele>429.0</ele><time>2026-05-02T16:00:19.406Z</time></trkpt><trkpt lat="46.2318883" lon="12.2912083"><ele>432.66666666666663</ele><time>2026-05-02T16:00:20.406Z</time></trkpt><trkpt lat="46.231775" lon="12.29107"><ele>436.3333333333333</ele><time>2026-05-02T16:00:21.406Z</time></trkpt><trkpt lat="46.23166" lon="12.290935"><ele>440.0</ele><time>2026-05-02T16:00:22.406Z</time></trkpt><trkpt lat="46.2315383" lon="12.2908"><ele>439.0</ele><time>2026-05-02T16:00:23.405Z</time></trkpt><trkpt lat="46.2314083" lon="12.29065"><ele>438.0</ele><time>2026-05-02T16:00:24.406Z</time></trkpt><trkpt lat="46.2312683" lon="12.2905133"><ele>437.0</ele><time>2026-05-02T16:00:25.406Z</time></trkpt><trkpt lat="46.2311267" lon="12.29038"><ele>437.0</ele><time>2026-05-02T16:00:26.406Z</time></trkpt><trkpt lat="46.230985" lon="12.29026"><ele>437.0</ele><time>2026-05-02T16:00:27.406Z</time></trkpt><trkpt lat="46.2308467" lon="12.2901467"><ele>437.0</ele><time>2026-05-02T16:00:28.405Z</time></trkpt><trkpt lat="46.2307133" lon="12.2900383"><ele>436.5</ele><time>2026-05-02T16:00:29.406Z</time></trkpt><trkpt lat="46.2305867" lon="12.289945"><ele>436.0</ele><time>2026-05-02T16:00:30.406Z</time></trkpt><trkpt lat="46.2304583" lon="12.289855"><ele>435.5</ele><time>2026-05-02T16:00:31.406Z</time></trkpt><trkpt lat="46.2303267" lon="12.2897783"><ele>435.0</ele><time>2026-05-02T16:00:32.405Z</time></trkpt><trkpt lat="46.2301933" lon="12.2897033"><ele>435.0</ele><time>2026-05-02T16:00:33.406Z</time></trkpt><trkpt lat="46.2300667" lon="12.2896283"><ele>435.0</ele><time>2026-05-02T16:00:34.405Z</time></trkpt><trkpt lat="46.2299367" lon="12.2895667"><ele>435.0</ele><time>2026-05-02T16:00:35.405Z</time></trkpt><trkpt lat="46.2298083" lon="12.28951"><ele>435.0</ele><time>2026-05-02T16:00:36.406Z</time></trkpt><trkpt lat="46.22968" lon="12.2894517"><ele>434.75</ele><time>2026-05-02T16:00:37.406Z</time></trkpt><trkpt lat="46.2295583" lon="12.2893967"><ele>434.5</ele><time>2026-05-02T16:00:38.406Z</time></trkpt><trkpt lat="46.22944" lon="12.2893433"><ele>434.25</ele><time>2026-05-02T16:00:39.406Z</time></trkpt><trkpt lat="46.2293267" lon="12.2892883"><ele>434.0</ele><time>2026-05-02T16:00:40.406Z</time></trkpt><trkpt lat="46.229215" lon="12.2892383"><ele>434.0</ele><time>2026-05-02T16:00:41.405Z</time></trkpt><trkpt lat="46.229105" lon="12.2891883"><ele>434.0</ele><time>2026-05-02T16:00:42.405Z</time></trkpt><trkpt lat="46.229005" lon="12.2891317"><ele>434.0</ele><time>2026-05-02T16:00:43.406Z</time></trkpt><trkpt lat="46.2289067" lon="12.2890733"><ele>434.0</ele><time>2026-05-02T16:00:44.406Z</time></trkpt><trkpt lat="46.2288117" lon="12.2890167"><ele>434.0</ele><time>2026-05-02T16:00:45.406Z</time></trkpt><trkpt lat="46.2287183" lon="12.2889617"><ele>434.2</ele><time>2026-05-02T16:00:46.405Z</time></trkpt><trkpt lat="46.2286233" lon="12.28892"><ele>434.4</ele><time>2026-05-02T16:00:47.406Z</time></trkpt><trkpt lat="46.2285283" lon="12.2888783"><ele>434.6</ele><time>2026-05-02T16:00:48.406Z</time></trkpt><trkpt lat="46.2284367" lon="12.2888283"><ele>434.8</ele><time>2026-05-02T16:00:49.405Z</time></trkpt><trkpt lat="46.2283467" lon="12.288795"><ele>435.0</ele><time>2026-05-02T16:00:50.405Z</time></trkpt><trkpt lat="46.2282567" lon="12.2887583"><ele>435.0</ele><time>2026-05-02T16:00:51.406Z</time></trkpt><trkpt lat="46.2281633" lon="12.2887117"><ele>435.0</ele><time>2026-05-02T16:00:52.406Z</time></trkpt><trkpt lat="46.228065" lon="12.28867"><ele>435.0</ele><time>2026-05-02T16:00:53.406Z</time></trkpt><trkpt lat="46.227965" lon="12.2886317"><ele>435.0</ele><time>2026-05-02T16:00:54.406Z</time></trkpt><trkpt lat="46.22785" lon="12.2885933"><ele>435.0</ele><time>2026-05-02T16:00:55.406Z</time></trkpt><trkpt lat="46.22772" lon="12.288545"><ele>434.5</ele><time>2026-05-02T16:00:56.405Z</time></trkpt><trkpt lat="46.2275833" lon="12.288495"><ele>434.0</ele><time>2026-05-02T16:00:57.405Z</time></trkpt><trkpt lat="46.22745" lon="12.28844"><ele>433.5</ele><time>2026-05-02T16:00:58.406Z</time></trkpt><trkpt lat="46.2273183" lon="12.288395"><ele>433.0</ele><time>2026-05-02T16:00:59.406Z</time></trkpt><trkpt lat="46.2271917" lon="12.28835"><ele>430.5</ele><time>2026-05-02T16:01:00.405Z</time></trkpt><trkpt lat="46.227065" lon="12.2883033"><ele>428.0</ele><time>2026-05-02T16:01:01.406Z</time></trkpt><trkpt lat="46.226945" lon="12.2882417"><ele>425.5</ele><time>2026-05-02T16:01:02.406Z</time></trkpt><trkpt lat="46.22681" lon="12.288175"><ele>423.0</ele><time>2026-05-02T16:01:03.406Z</time></trkpt><trkpt lat="46.2266717" lon="12.2881083"><ele>425.33333333333337</ele><time>2026-05-02T16:01:04.406Z</time></trkpt><trkpt lat="46.2265333" lon="12.2880317"><ele>427.6666666666667</ele><time>2026-05-02T16:01:05.405Z</time></trkpt><trkpt lat="46.2263867" lon="12.287955"><ele>430.0</ele><time>2026-05-02T16:01:06.406Z</time></trkpt><trkpt lat="46.2262333" lon="12.2878817"><ele>430.0</ele><time>2026-05-02T16:01:07.406Z</time></trkpt><trkpt lat="46.2260833" lon="12.2878083"><ele>430.0</ele><time>2026-05-02T16:01:08.406Z</time></trkpt><trkpt lat="46.2259467" lon="12.28773"><ele>430.0</ele><time>2026-05-02T16:01:09.406Z</time></trkpt><trkpt lat="46.2258233" lon="12.287655"><ele>430.0</ele><time>2026-05-02T16:01:10.406Z</time></trkpt><trkpt lat="46.2257133" lon="12.2875833"><ele>430.8</ele><time>2026-05-02T16:01:11.406Z</time></trkpt><trkpt lat="46.225615" lon="12.2875067"><ele>431.6</ele><time>2026-05-02T16:01:12.406Z</time></trkpt><trkpt lat="46.2255233" lon="12.2874417"><ele>432.4</ele><time>2026-05-02T16:01:13.406Z</time></trkpt><trkpt lat="46.2254483" lon="12.2873683"><ele>433.2</ele><time>2026-05-02T16:01:14.406Z</time></trkpt><trkpt lat="46.2253783" lon="12.2873067"><ele>434.0</ele><time>2026-05-02T16:01:15.406Z</time></trkpt><trkpt lat="46.2253167" lon="12.2872483"><ele>434.0</ele><time>2026-05-02T16:01:16.406Z</time></trkpt><trkpt lat="46.22526" lon="12.2871983"><ele>434.0</ele><time>2026-05-02T16:01:17.406Z</time></trkpt><trkpt lat="46.2252" lon="12.287145"><ele>434.0</ele><time>2026-05-02T16:01:18.406Z</time></trkpt><trkpt lat="46.2250917" lon="12.2870483"><ele>434.0</ele><time>2026-05-02T16:01:20.405Z</time></trkpt><trkpt lat="46.22504" lon="12.286985"><ele>434.0</ele><time>2026-05-02T16:01:21.405Z</time></trkpt><trkpt lat="46.224965" lon="12.2868517"><ele>434.0</ele><time>2026-05-02T16:01:23.406Z</time></trkpt><trkpt lat="46.224925" lon="12.286775"><ele>434.0</ele><time>2026-05-02T16:01:24.405Z</time></trkpt><trkpt lat="46.2248433" lon="12.286675"><ele>434.0</ele><time>2026-05-02T16:01:26.406Z</time></trkpt><trkpt lat="46.2247383" lon="12.2866733"><ele>434.0</ele><time>2026-05-02T16:01:28.406Z</time></trkpt><trkpt lat="46.2246683" lon="12.286715"><ele>434.0</ele><time>2026-05-02T16:01:29.405Z</time></trkpt><trkpt lat="46.2245733" lon="12.2867567"><ele>432.0</ele><time>2026-05-02T16:01:30.406Z</time></trkpt><trkpt lat="46.224475" lon="12.286785"><ele>430.0</ele><time>2026-05-02T16:01:31.406Z</time></trkpt><trkpt lat="46.2243767" lon="12.2867817"><ele>428.0</ele><time>2026-05-02T16:01:32.405Z</time></trkpt><trkpt lat="46.224275" lon="12.286755"><ele>426.0</ele><time>2026-05-02T16:01:33.406Z</time></trkpt><trkpt lat="46.2241617" lon="12.2867117"><ele>424.0</ele><time>2026-05-02T16:01:34.406Z</time></trkpt><trkpt lat="46.2240467" lon="12.286645"><ele>422.0</ele><time>2026-05-02T16:01:35.406Z</time></trkpt><trkpt lat="46.2239233" lon="12.28658"><ele>420.0</ele><time>2026-05-02T16:01:36.406Z</time></trkpt><trkpt lat="46.223795" lon="12.2865133"><ele>418.0</ele><time>2026-05-02T16:01:37.406Z</time></trkpt><trkpt lat="46.2236533" lon="12.2864483"><ele>416.0</ele><time>2026-05-02T16:01:38.406Z</time></trkpt><trkpt lat="46.2235083" lon="12.2863883"><ele>416.0</ele><time>2026-05-02T16:01:39.406Z</time></trkpt><trkpt lat="46.2233567" lon="12.2863267"><ele>416.0</ele><time>2026-05-02T16:01:40.406Z</time></trkpt><trkpt lat="46.2232017" lon="12.28627"><ele>416.0</ele><time>2026-05-02T16:01:41.405Z</time></trkpt><trkpt lat="46.2230383" lon="12.2862167"><ele>416.3333333333333</ele><time>2026-05-02T16:01:42.406Z</time></trkpt><trkpt lat="46.2228667" lon="12.2861683"><ele>416.66666666666663</ele><time>2026-05-02T16:01:43.406Z</time></trkpt><trkpt lat="46.222685" lon="12.28612"><ele>417.0</ele><time>2026-05-02T16:01:44.406Z</time></trkpt><trkpt lat="46.2225033" lon="12.2860767"><ele>417.0</ele><time>2026-05-02T16:01:45.406Z</time></trkpt><trkpt lat="46.2223267" lon="12.2860417"><ele>417.0</ele><time>2026-05-02T16:01:46.406Z</time></trkpt><trkpt lat="46.2221517" lon="12.2860183"><ele>417.0</ele><time>2026-05-02T16:01:47.406Z</time></trkpt><trkpt lat="46.221985" lon="12.28601"><ele>418.0</ele><time>2026-05-02T16:01:48.406Z</time></trkpt><trkpt lat="46.2218167" lon="12.286005"><ele>419.0</ele><time>2026-05-02T16:01:49.406Z</time></trkpt><trkpt lat="46.221655" lon="12.286"><ele>420.0</ele><time>2026-05-02T16:01:50.406Z</time></trkpt><trkpt lat="46.2215017" lon="12.285995"><ele>420.75</ele><time>2026-05-02T16:01:51.406Z</time></trkpt><trkpt lat="46.2213467" lon="12.2860033"><ele>421.5</ele><time>2026-05-02T16:01:52.406Z</time></trkpt><trkpt lat="46.221195" lon="12.2860133"><ele>422.25</ele><time>2026-05-02T16:01:53.406Z</time></trkpt><trkpt lat="46.2210583" lon="12.2860217"><ele>423.0</ele><time>2026-05-02T16:01:54.406Z</time></trkpt><trkpt lat="46.2209267" lon="12.2860233"><ele>423.0</ele><time>2026-05-02T16:01:55.405Z</time></trkpt><trkpt lat="46.220785" lon="12.2860433"><ele>423.0</ele><time>2026-05-02T16:01:56.406Z</time></trkpt><trkpt lat="46.2206433" lon="12.2860783"><ele>423.0</ele><time>2026-05-02T16:01:57.406Z</time></trkpt><trkpt lat="46.220495" lon="12.2861067"><ele>423.0</ele><time>2026-05-02T16:01:58.406Z</time></trkpt><trkpt lat="46.2203483" lon="12.2861467"><ele>423.66666666666663</ele><time>2026-05-02T16:01:59.405Z</time></trkpt><trkpt lat="46.2202017" lon="12.286195"><ele>424.3333333333333</ele><time>2026-05-02T16:02:00.406Z</time></trkpt><trkpt lat="46.22003" lon="12.2862533"><ele>425.0</ele><time>2026-05-02T16:02:01.406Z</time></trkpt><trkpt lat="46.2198383" lon="12.2863317"><ele>423.66666666666663</ele><time>2026-05-02T16:02:02.406Z</time></trkpt><trkpt lat="46.21964" lon="12.286425"><ele>422.33333333333337</ele><time>2026-05-02T16:02:03.406Z</time></trkpt><trkpt lat="46.2194317" lon="12.2865233"><ele>421.0</ele><time>2026-05-02T16:02:04.406Z</time></trkpt><trkpt lat="46.2192333" lon="12.28661"><ele>419.33333333333337</ele><time>2026-05-02T16:02:05.406Z</time></trkpt><trkpt lat="46.219045" lon="12.28669"><ele>417.66666666666663</ele><time>2026-05-02T16:02:06.405Z</time></trkpt><trkpt lat="46.21885" lon="12.2867967"><ele>416.0</ele><time>2026-05-02T16:02:07.406Z</time></trkpt><trkpt lat="46.218645" lon="12.2869183"><ele>416.0</ele><time>2026-05-02T16:02:08.405Z</time></trkpt><trkpt lat="46.21844" lon="12.2870417"><ele>416.0</ele><time>2026-05-02T16:02:09.406Z</time></trkpt><trkpt lat="46.2182367" lon="12.2871633"><ele>416.0</ele><time>2026-05-02T16:02:10.406Z</time></trkpt><trkpt lat="46.2180283" lon="12.2872883"><ele>413.3333333333333</ele><time>2026-05-02T16:02:11.406Z</time></trkpt><trkpt lat="46.2178233" lon="12.287405"><ele>410.66666666666663</ele><time>2026-05-02T16:02:12.406Z</time></trkpt><trkpt lat="46.2176283" lon="12.28751"><ele>408.0</ele><time>2026-05-02T16:02:13.405Z</time></trkpt><trkpt lat="46.2174383" lon="12.2876083"><ele>413.0</ele><time>2026-05-02T16:02:14.405Z</time></trkpt><trkpt lat="46.2172633" lon="12.2877033"><ele>418.0</ele><time>2026-05-02T16:02:15.405Z</time></trkpt><trkpt lat="46.2171" lon="12.2877933"><ele>423.0</ele><time>2026-05-02T16:02:16.405Z</time></trkpt><trkpt lat="46.2169267" lon="12.2878983"><ele>423.0</ele><time>2026-05-02T16:02:17.406Z</time></trkpt><trkpt lat="46.216725" lon="12.288005"><ele>423.0</ele><time>2026-05-02T16:02:18.405Z</time></trkpt><trkpt lat="46.2165083" lon="12.2880933"><ele>423.0</ele><time>2026-05-02T16:02:19.406Z</time></trkpt><trkpt lat="46.21629" lon="12.2881667"><ele>413.5</ele><time>2026-05-02T16:02:20.406Z</time></trkpt><trkpt lat="46.2160633" lon="12.28822"><ele>404.0</ele><time>2026-05-02T16:02:21.405Z</time></trkpt><trkpt lat="46.2158383" lon="12.2882517"><ele>405.0</ele><time>2026-05-02T16:02:22.406Z</time></trkpt><trkpt lat="46.2156017" lon="12.2882617"><ele>406.0</ele><time>2026-05-02T16:02:23.405Z</time></trkpt><trkpt lat="46.2153767" lon="12.2882467"><ele>406.0</ele><time>2026-05-02T16:02:24.406Z</time></trkpt><trkpt lat="46.215155" lon="12.28822"><ele>406.0</ele><time>2026-05-02T16:02:25.406Z</time></trkpt><trkpt lat="46.2149383" lon="12.2881767"><ele>406.0</ele><time>2026-05-02T16:02:26.406Z</time></trkpt><trkpt lat="46.21472" lon="12.28813"><ele>416.5</ele><time>2026-05-02T16:02:27.406Z</time></trkpt><trkpt lat="46.2145" lon="12.28807"><ele>427.0</ele><time>2026-05-02T16:02:28.406Z</time></trkpt><trkpt lat="46.2142667" lon="12.28798"><ele>427.0</ele><time>2026-05-02T16:02:29.406Z</time></trkpt><trkpt lat="46.2140233" lon="12.2878917"><ele>427.0</ele><time>2026-05-02T16:02:30.406Z</time></trkpt><trkpt lat="46.2138083" lon="12.2877983"><ele>423.0</ele><time>2026-05-02T16:02:31.406Z</time></trkpt><trkpt lat="46.2136067" lon="12.2877067"><ele>419.0</ele><time>2026-05-02T16:02:32.406Z</time></trkpt><trkpt lat="46.213415" lon="12.2876233"><ele>415.0</ele><time>2026-05-02T16:02:33.406Z</time></trkpt><trkpt lat="46.21323" lon="12.287545"><ele>411.6666666666667</ele><time>2026-05-02T16:02:34.406Z</time></trkpt><trkpt lat="46.2130583" lon="12.2874717"><ele>408.33333333333337</ele><time>2026-05-02T16:02:35.406Z</time></trkpt><trkpt lat="46.21289" lon="12.2874"><ele>405.0</ele><time>2026-05-02T16:02:36.406Z</time></trkpt><trkpt lat="46.2127283" lon="12.2873283"><ele>410.66666666666663</ele><time>2026-05-02T16:02:37.406Z</time></trkpt><trkpt lat="46.2125767" lon="12.2872583"><ele>416.3333333333333</ele><time>2026-05-02T16:02:38.405Z</time></trkpt><trkpt lat="46.212425" lon="12.2871833"><ele>422.0</ele><time>2026-05-02T16:02:39.406Z</time></trkpt><trkpt lat="46.2122717" lon="12.28712"><ele>422.0</ele><time>2026-05-02T16:02:40.406Z</time></trkpt><trkpt lat="46.212125" lon="12.2870667"><ele>422.0</ele><time>2026-05-02T16:02:41.406Z</time></trkpt><trkpt lat="46.2119867" lon="12.2870083"><ele>422.0</ele><time>2026-05-02T16:02:42.406Z</time></trkpt><trkpt lat="46.2118517" lon="12.2869517"><ele>422.0</ele><time>2026-05-02T16:02:43.406Z</time></trkpt><trkpt lat="46.2117233" lon="12.2868967"><ele>422.0</ele><time>2026-05-02T16:02:44.405Z</time></trkpt><trkpt lat="46.21159" lon="12.2868433"><ele>422.0</ele><time>2026-05-02T16:02:45.406Z</time></trkpt><trkpt lat="46.2114617" lon="12.286785"><ele>422.0</ele><time>2026-05-02T16:02:46.406Z</time></trkpt><trkpt lat="46.2113317" lon="12.2867283"><ele>422.0</ele><time>2026-05-02T16:02:47.406Z</time></trkpt><trkpt lat="46.2112033" lon="12.2866817"><ele>418.75</ele><time>2026-05-02T16:02:48.405Z</time></trkpt><trkpt lat="46.2110767" lon="12.2866317"><ele>415.5</ele><time>2026-05-02T16:02:49.406Z</time></trkpt><trkpt lat="46.2109467" lon="12.286585"><ele>412.25</ele><time>2026-05-02T16:02:50.406Z</time></trkpt><trkpt lat="46.21082" lon="12.2865283"><ele>409.0</ele><time>2026-05-02T16:02:51.406Z</time></trkpt><trkpt lat="46.2106933" lon="12.286475"><ele>410.33333333333337</ele><time>2026-05-02T16:02:52.406Z</time></trkpt><trkpt lat="46.21055" lon="12.2864267"><ele>411.66666666666663</ele><time>2026-05-02T16:02:53.406Z</time></trkpt><trkpt lat="46.2104067" lon="12.2863583"><ele>413.0</ele><time>2026-05-02T16:02:54.405Z</time></trkpt><trkpt lat="46.2102517" lon="12.2862917"><ele>413.0</ele><time>2026-05-02T16:02:55.405Z</time></trkpt><trkpt lat="46.2100883" lon="12.2862217"><ele>413.0</ele><time>2026-05-02T16:02:56.406Z</time></trkpt><trkpt lat="46.2099217" lon="12.2861567"><ele>413.0</ele><time>2026-05-02T16:02:57.406Z</time></trkpt><trkpt lat="46.2097617" lon="12.2860983"><ele>410.66666666666663</ele><time>2026-05-02T16:02:58.406Z</time></trkpt><trkpt lat="46.2096117" lon="12.28604"><ele>408.33333333333337</ele><time>2026-05-02T16:02:59.406Z</time></trkpt><trkpt lat="46.209465" lon="12.2859817"><ele>406.0</ele><time>2026-05-02T16:03:00.405Z</time></trkpt><trkpt lat="46.209325" lon="12.2859233"><ele>406.0</ele><time>2026-05-02T16:03:01.406Z</time></trkpt><trkpt lat="46.20919" lon="12.285865"><ele>406.0</ele><time>2026-05-02T16:03:02.405Z</time></trkpt><trkpt lat="46.209065" lon="12.2858067"><ele>406.0</ele><time>2026-05-02T16:03:03.406Z</time></trkpt><trkpt lat="46.2089433" lon="12.2857617"><ele>406.0</ele><time>2026-05-02T16:03:04.406Z</time></trkpt><trkpt lat="46.208825" lon="12.285705"><ele>406.75</ele><time>2026-05-02T16:03:05.406Z</time></trkpt><trkpt lat="46.2087067" lon="12.2856533"><ele>407.5</ele><time>2026-05-02T16:03:06.406Z</time></trkpt><trkpt lat="46.2085883" lon="12.2856083"><ele>408.25</ele><time>2026-05-02T16:03:07.405Z</time></trkpt><trkpt lat="46.20848" lon="12.2855483"><ele>409.0</ele><time>2026-05-02T16:03:08.406Z</time></trkpt><trkpt lat="46.2083783" lon="12.2854633"><ele>409.25</ele><time>2026-05-02T16:03:09.406Z</time></trkpt><trkpt lat="46.208285" lon="12.28535"><ele>409.5</ele><time>2026-05-02T16:03:10.406Z</time></trkpt><trkpt lat="46.2081983" lon="12.2852417"><ele>409.75</ele><time>2026-05-02T16:03:11.406Z</time></trkpt><trkpt lat="46.2081117" lon="12.2851367"><ele>410.0</ele><time>2026-05-02T16:03:12.406Z</time></trkpt><trkpt lat="46.2080267" lon="12.28504"><ele>410.0</ele><time>2026-05-02T16:03:13.406Z</time></trkpt><trkpt lat="46.2079283" lon="12.284955"><ele>410.0</ele><time>2026-05-02T16:03:14.406Z</time></trkpt><trkpt lat="46.2078233" lon="12.2848933"><ele>410.0</ele><time>2026-05-02T16:03:15.406Z</time></trkpt><trkpt lat="46.2076983" lon="12.2848767"><ele>410.0</ele><time>2026-05-02T16:03:16.406Z</time></trkpt><trkpt lat="46.20757" lon="12.284895"><ele>410.0</ele><time>2026-05-02T16:03:17.405Z</time></trkpt><trkpt lat="46.20745" lon="12.28494"><ele>410.0</ele><time>2026-05-02T16:03:18.406Z</time></trkpt><trkpt lat="46.2073483" lon="12.2850117"><ele>410.0</ele><time>2026-05-02T16:03:19.406Z</time></trkpt><trkpt lat="46.2072567" lon="12.2851083"><ele>410.0</ele><time>2026-05-02T16:03:20.406Z</time></trkpt><trkpt lat="46.2071683" lon="12.2852267"><ele>409.75</ele><time>2026-05-02T16:03:21.406Z</time></trkpt><trkpt lat="46.2070683" lon="12.2853383"><ele>409.5</ele><time>2026-05-02T16:03:22.406Z</time></trkpt><trkpt lat="46.2069617" lon="12.2854633"><ele>409.25</ele><time>2026-05-02T16:03:23.406Z</time></trkpt><trkpt lat="46.20686" lon="12.2856367"><ele>409.0</ele><time>2026-05-02T16:03:24.405Z</time></trkpt><trkpt lat="46.2067667" lon="12.2858467"><ele>409.0</ele><time>2026-05-02T16:03:25.406Z</time></trkpt><trkpt lat="46.2066767" lon="12.2860383"><ele>409.0</ele><time>2026-05-02T16:03:26.405Z</time></trkpt><trkpt lat="46.2065717" lon="12.2862217"><ele>409.0</ele><time>2026-05-02T16:03:27.406Z</time></trkpt><trkpt lat="46.2064667" lon="12.2863917"><ele>407.33333333333337</ele><time>2026-05-02T16:03:28.406Z</time></trkpt><trkpt lat="46.2063583" lon="12.2865567"><ele>405.66666666666663</ele><time>2026-05-02T16:03:29.406Z</time></trkpt><trkpt lat="46.2062483" lon="12.2867183"><ele>404.0</ele><time>2026-05-02T16:03:30.406Z</time></trkpt><trkpt lat="46.2061417" lon="12.286885"><ele>404.0</ele><time>2026-05-02T16:03:31.406Z</time></trkpt><trkpt lat="46.2060233" lon="12.28706"><ele>404.0</ele><time>2026-05-02T16:03:32.405Z</time></trkpt><trkpt lat="46.20591" lon="12.2872433"><ele>404.0</ele><time>2026-05-02T16:03:33.406Z</time></trkpt><trkpt lat="46.2057967" lon="12.287425"><ele>402.66666666666663</ele><time>2026-05-02T16:03:34.406Z</time></trkpt><trkpt lat="46.205685" lon="12.2876"><ele>401.33333333333337</ele><time>2026-05-02T16:03:35.406Z</time></trkpt><trkpt lat="46.2055733" lon="12.28777"><ele>400.0</ele><time>2026-05-02T16:03:36.406Z</time></trkpt><trkpt lat="46.2054533" lon="12.28793"><ele>400.0</ele><time>2026-05-02T16:03:37.406Z</time></trkpt><trkpt lat="46.20532" lon="12.288075"><ele>400.0</ele><time>2026-05-02T16:03:38.406Z</time></trkpt><trkpt lat="46.2051783" lon="12.28819"><ele>400.0</ele><time>2026-05-02T16:03:39.406Z</time></trkpt><trkpt lat="46.2050133" lon="12.288285"><ele>400.0</ele><time>2026-05-02T16:03:40.406Z</time></trkpt><trkpt lat="46.204835" lon="12.2883583"><ele>400.0</ele><time>2026-05-02T16:03:41.406Z</time></trkpt><trkpt lat="46.2046467" lon="12.2884317"><ele>400.0</ele><time>2026-05-02T16:03:42.405Z</time></trkpt><trkpt lat="46.2044617" lon="12.2885133"><ele>398.6666666666667</ele><time>2026-05-02T16:03:43.406Z</time></trkpt><trkpt lat="46.20428" lon="12.2885967"><ele>397.33333333333337</ele><time>2026-05-02T16:03:44.406Z</time></trkpt><trkpt lat="46.2040883" lon="12.2886733"><ele>396.0</ele><time>2026-05-02T16:03:45.405Z</time></trkpt><trkpt lat="46.2038917" lon="12.28874"><ele>395.66666666666663</ele><time>2026-05-02T16:03:46.405Z</time></trkpt><trkpt lat="46.2036883" lon="12.2888"><ele>395.3333333333333</ele><time>2026-05-02T16:03:47.406Z</time></trkpt><trkpt lat="46.203475" lon="12.2888683"><ele>395.0</ele><time>2026-05-02T16:03:48.406Z</time></trkpt><trkpt lat="46.2032583" lon="12.2889183"><ele>395.0</ele><time>2026-05-02T16:03:49.405Z</time></trkpt><trkpt lat="46.2030467" lon="12.2889683"><ele>395.0</ele><time>2026-05-02T16:03:50.406Z</time></trkpt><trkpt lat="46.2028317" lon="12.28902"><ele>395.0</ele><time>2026-05-02T16:03:51.406Z</time></trkpt><trkpt lat="46.2026117" lon="12.2890733"><ele>395.0</ele><time>2026-05-02T16:03:52.406Z</time></trkpt><trkpt lat="46.2023833" lon="12.289125"><ele>395.0</ele><time>2026-05-02T16:03:53.406Z</time></trkpt><trkpt lat="46.2021467" lon="12.289185"><ele>396.0</ele><time>2026-05-02T16:03:54.406Z</time></trkpt><trkpt lat="46.2019083" lon="12.2892417"><ele>397.0</ele><time>2026-05-02T16:03:55.406Z</time></trkpt><trkpt lat="46.2016617" lon="12.2893017"><ele>397.0</ele><time>2026-05-02T16:03:56.406Z</time></trkpt><trkpt lat="46.2014183" lon="12.28936"><ele>397.0</ele><time>2026-05-02T16:03:57.406Z</time></trkpt><trkpt lat="46.201165" lon="12.289415"><ele>397.0</ele><time>2026-05-02T16:03:58.406Z</time></trkpt><trkpt lat="46.2009067" lon="12.2894783"><ele>397.0</ele><time>2026-05-02T16:03:59.405Z</time></trkpt><trkpt lat="46.2006467" lon="12.2895283"><ele>395.5</ele><time>2026-05-02T16:04:00.406Z</time></trkpt><trkpt lat="46.20038" lon="12.28957"><ele>394.0</ele><time>2026-05-02T16:04:01.405Z</time></trkpt><trkpt lat="46.200115" lon="12.289625"><ele>394.0</ele><time>2026-05-02T16:04:02.405Z</time></trkpt><trkpt lat="46.1998433" lon="12.2896733"><ele>394.0</ele><time>2026-05-02T16:04:03.406Z</time></trkpt><trkpt lat="46.1995717" lon="12.2897183"><ele>393.0</ele><time>2026-05-02T16:04:04.405Z</time></trkpt><trkpt lat="46.1993033" lon="12.2897517"><ele>392.0</ele><time>2026-05-02T16:04:05.406Z</time></trkpt><trkpt lat="46.1990283" lon="12.2897867"><ele>391.5</ele><time>2026-05-02T16:04:06.406Z</time></trkpt><trkpt lat="46.1987567" lon="12.2898133"><ele>391.0</ele><time>2026-05-02T16:04:07.406Z</time></trkpt><trkpt lat="46.1984833" lon="12.2898417"><ele>391.0</ele><time>2026-05-02T16:04:08.406Z</time></trkpt><trkpt lat="46.1982067" lon="12.2898683"><ele>391.0</ele><time>2026-05-02T16:04:09.406Z</time></trkpt><trkpt lat="46.19793" lon="12.2898867"><ele>391.0</ele><time>2026-05-02T16:04:10.406Z</time></trkpt><trkpt lat="46.1976517" lon="12.289905"><ele>391.0</ele><time>2026-05-02T16:04:11.406Z</time></trkpt><trkpt lat="46.1973783" lon="12.2899133"><ele>391.5</ele><time>2026-05-02T16:04:12.406Z</time></trkpt><trkpt lat="46.197105" lon="12.2899267"><ele>392.0</ele><time>2026-05-02T16:04:13.406Z</time></trkpt><trkpt lat="46.1968283" lon="12.2899367"><ele>392.0</ele><time>2026-05-02T16:04:14.406Z</time></trkpt><trkpt lat="46.1965517" lon="12.28994"><ele>392.0</ele><time>2026-05-02T16:04:15.406Z</time></trkpt><trkpt lat="46.196275" lon="12.289945"><ele>392.0</ele><time>2026-05-02T16:04:16.405Z</time></trkpt><trkpt lat="46.1959983" lon="12.28995"><ele>392.0</ele><time>2026-05-02T16:04:17.406Z</time></trkpt><trkpt lat="46.1957217" lon="12.2899433"><ele>391.0</ele><time>2026-05-02T16:04:18.406Z</time></trkpt><trkpt lat="46.1954433" lon="12.2899267"><ele>390.0</ele><time>2026-05-02T16:04:19.406Z</time></trkpt><trkpt lat="46.1951683" lon="12.2899117"><ele>390.0</ele><time>2026-05-02T16:04:20.406Z</time></trkpt><trkpt lat="46.1948967" lon="12.2898817"><ele>390.0</ele><time>2026-05-02T16:04:21.406Z</time></trkpt><trkpt lat="46.1946233" lon="12.2898483"><ele>391.5</ele><time>2026-05-02T16:04:22.406Z</time></trkpt><trkpt lat="46.1943483" lon="12.2898133"><ele>393.0</ele><time>2026-05-02T16:04:23.405Z</time></trkpt><trkpt lat="46.1940717" lon="12.289775"><ele>399.5</ele><time>2026-05-02T16:04:24.406Z</time></trkpt><trkpt lat="46.1937983" lon="12.2897333"><ele>406.0</ele><time>2026-05-02T16:04:25.406Z</time></trkpt><trkpt lat="46.1935233" lon="12.2896967"><ele>406.0</ele><time>2026-05-02T16:04:26.406Z</time></trkpt><trkpt lat="46.1932517" lon="12.289665"><ele>406.0</ele><time>2026-05-02T16:04:27.405Z</time></trkpt><trkpt lat="46.192975" lon="12.289625"><ele>405.0</ele><time>2026-05-02T16:04:28.405Z</time></trkpt><trkpt lat="46.1926967" lon="12.289595"><ele>404.0</ele><time>2026-05-02T16:04:29.406Z</time></trkpt><trkpt lat="46.1924233" lon="12.2895783"><ele>403.0</ele><time>2026-05-02T16:04:30.406Z</time></trkpt><trkpt lat="46.192145" lon="12.2895533"><ele>402.0</ele><time>2026-05-02T16:04:31.406Z</time></trkpt><trkpt lat="46.1918667" lon="12.2895383"><ele>402.0</ele><time>2026-05-02T16:04:32.406Z</time></trkpt><trkpt lat="46.1915917" lon="12.289525"><ele>402.0</ele><time>2026-05-02T16:04:33.406Z</time></trkpt><trkpt lat="46.1913183" lon="12.2895167"><ele>402.5</ele><time>2026-05-02T16:04:34.406Z</time></trkpt><trkpt lat="46.19104" lon="12.2895083"><ele>403.0</ele><time>2026-05-02T16:04:35.405Z</time></trkpt><trkpt lat="46.1907667" lon="12.2894967"><ele>404.0</ele><time>2026-05-02T16:04:36.406Z</time></trkpt><trkpt lat="46.1904883" lon="12.2895017"><ele>405.0</ele><time>2026-05-02T16:04:37.405Z</time></trkpt><trkpt lat="46.1902133" lon="12.28951"><ele>405.0</ele><time>2026-05-02T16:04:38.406Z</time></trkpt><trkpt lat="46.1899383" lon="12.289535"><ele>405.0</ele><time>2026-05-02T16:04:39.406Z</time></trkpt><trkpt lat="46.1896633" lon="12.2895683"><ele>403.5</ele><time>2026-05-02T16:04:40.406Z</time></trkpt><trkpt lat="46.1893933" lon="12.289605"><ele>402.0</ele><time>2026-05-02T16:04:41.405Z</time></trkpt><trkpt lat="46.18912" lon="12.289655"><ele>403.0</ele><time>2026-05-02T16:04:42.405Z</time></trkpt><trkpt lat="46.1888517" lon="12.289715"><ele>404.0</ele><time>2026-05-02T16:04:43.405Z</time></trkpt><trkpt lat="46.1885833" lon="12.2897717"><ele>399.0</ele><time>2026-05-02T16:04:44.406Z</time></trkpt><trkpt lat="46.1883133" lon="12.28986"><ele>394.0</ele><time>2026-05-02T16:04:45.406Z</time></trkpt><trkpt lat="46.188035" lon="12.2899517"><ele>394.0</ele><time>2026-05-02T16:04:46.406Z</time></trkpt><trkpt lat="46.187765" lon="12.290045"><ele>394.0</ele><time>2026-05-02T16:04:47.405Z</time></trkpt><trkpt lat="46.1875" lon="12.29015"><ele>397.0</ele><time>2026-05-02T16:04:48.406Z</time></trkpt><trkpt lat="46.1872383" lon="12.2902683"><ele>400.0</ele><time>2026-05-02T16:04:49.406Z</time></trkpt><trkpt lat="46.1869817" lon="12.29039"><ele>400.0</ele><time>2026-05-02T16:04:50.405Z</time></trkpt><trkpt lat="46.1867283" lon="12.2905183"><ele>400.0</ele><time>2026-05-02T16:04:51.405Z</time></trkpt><trkpt lat="46.1864783" lon="12.2906533"><ele>397.5</ele><time>2026-05-02T16:04:52.406Z</time></trkpt><trkpt lat="46.1862267" lon="12.2907917"><ele>395.0</ele><time>2026-05-02T16:04:53.406Z</time></trkpt><trkpt lat="46.1859767" lon="12.2909433"><ele>395.0</ele><time>2026-05-02T16:04:54.406Z</time></trkpt><trkpt lat="46.1857333" lon="12.2911017"><ele>395.0</ele><time>2026-05-02T16:04:55.406Z</time></trkpt><trkpt lat="46.1854883" lon="12.29127"><ele>393.5</ele><time>2026-05-02T16:04:56.406Z</time></trkpt><trkpt lat="46.1852433" lon="12.2914583"><ele>392.0</ele><time>2026-05-02T16:04:57.406Z</time></trkpt><trkpt lat="46.18501" lon="12.2916417"><ele>396.5</ele><time>2026-05-02T16:04:58.406Z</time></trkpt><trkpt lat="46.1847733" lon="12.2918317"><ele>401.0</ele><time>2026-05-02T16:04:59.405Z</time></trkpt><trkpt lat="46.1845383" lon="12.29203"><ele>401.0</ele><time>2026-05-02T16:05:00.405Z</time></trkpt><trkpt lat="46.18431" lon="12.29223"><ele>401.0</ele><time>2026-05-02T16:05:01.406Z</time></trkpt><trkpt lat="46.1840833" lon="12.29243"><ele>400.0</ele><time>2026-05-02T16:05:02.406Z</time></trkpt><trkpt lat="46.18385" lon="12.2926417"><ele>399.0</ele><time>2026-05-02T16:05:03.406Z</time></trkpt><trkpt lat="46.1836217" lon="12.2928617"><ele>399.5</ele><time>2026-05-02T16:05:04.406Z</time></trkpt><trkpt lat="46.1833917" lon="12.2930917"><ele>400.0</ele><time>2026-05-02T16:05:05.406Z</time></trkpt><trkpt lat="46.18317" lon="12.2933183"><ele>400.0</ele><time>2026-05-02T16:05:06.406Z</time></trkpt><trkpt lat="46.1829467" lon="12.2935433"><ele>400.0</ele><time>2026-05-02T16:05:07.406Z</time></trkpt><trkpt lat="46.1827317" lon="12.2937817"><ele>398.5</ele><time>2026-05-02T16:05:08.406Z</time></trkpt><trkpt lat="46.1825117" lon="12.2940117"><ele>397.0</ele><time>2026-05-02T16:05:09.406Z</time></trkpt><trkpt lat="46.182295" lon="12.29425"><ele>397.0</ele><time>2026-05-02T16:05:10.406Z</time></trkpt><trkpt lat="46.1820833" lon="12.294485"><ele>397.0</ele><time>2026-05-02T16:05:11.406Z</time></trkpt><trkpt lat="46.18186" lon="12.2947233"><ele>397.0</ele><time>2026-05-02T16:05:12.406Z</time></trkpt><trkpt lat="46.1816517" lon="12.2949633"><ele>397.0</ele><time>2026-05-02T16:05:13.406Z</time></trkpt><trkpt lat="46.18144" lon="12.2952033"><ele>397.0</ele><time>2026-05-02T16:05:14.406Z</time></trkpt><trkpt lat="46.1812267" lon="12.2954383"><ele>397.0</ele><time>2026-05-02T16:05:15.406Z</time></trkpt><trkpt lat="46.1810083" lon="12.2956733"><ele>397.0</ele><time>2026-05-02T16:05:16.405Z</time></trkpt><trkpt lat="46.180795" lon="12.2959233"><ele>397.0</ele><time>2026-05-02T16:05:17.406Z</time></trkpt><trkpt lat="46.18058" lon="12.296165"><ele>397.0</ele><time>2026-05-02T16:05:18.406Z</time></trkpt><trkpt lat="46.1803667" lon="12.2964083"><ele>397.0</ele><time>2026-05-02T16:05:19.406Z</time></trkpt><trkpt lat="46.1801567" lon="12.2966467"><ele>396.5</ele><time>2026-05-02T16:05:20.405Z</time></trkpt><trkpt lat="46.1799533" lon="12.296895"><ele>396.0</ele><time>2026-05-02T16:05:21.406Z</time></trkpt><trkpt lat="46.1797383" lon="12.29714"><ele>395.0</ele><time>2026-05-02T16:05:22.406Z</time></trkpt><trkpt lat="46.179515" lon="12.2973733"><ele>394.0</ele><time>2026-05-02T16:05:23.406Z</time></trkpt><trkpt lat="46.1792967" lon="12.29761"><ele>394.0</ele><time>2026-05-02T16:05:24.406Z</time></trkpt><trkpt lat="46.1790817" lon="12.2978533"><ele>394.0</ele><time>2026-05-02T16:05:25.405Z</time></trkpt><trkpt lat="46.17887" lon="12.2981033"><ele>394.0</ele><time>2026-05-02T16:05:26.406Z</time></trkpt><trkpt lat="46.1786683" lon="12.2983617"><ele>394.0</ele><time>2026-05-02T16:05:27.406Z</time></trkpt><trkpt lat="46.1784617" lon="12.2986083"><ele>394.0</ele><time>2026-05-02T16:05:28.406Z</time></trkpt><trkpt lat="46.1782517" lon="12.29885"><ele>394.0</ele><time>2026-05-02T16:05:29.405Z</time></trkpt><trkpt lat="46.1780417" lon="12.2990967"><ele>391.0</ele><time>2026-05-02T16:05:30.406Z</time></trkpt><trkpt lat="46.1778233" lon="12.2993433"><ele>388.0</ele><time>2026-05-02T16:05:31.406Z</time></trkpt><trkpt lat="46.1776083" lon="12.299585"><ele>384.5</ele><time>2026-05-02T16:05:32.406Z</time></trkpt><trkpt lat="46.1774" lon="12.2998283"><ele>381.0</ele><time>2026-05-02T16:05:33.406Z</time></trkpt><trkpt lat="46.1771933" lon="12.3000867"><ele>380.0</ele><time>2026-05-02T16:05:34.406Z</time></trkpt><trkpt lat="46.1769883" lon="12.30035"><ele>379.0</ele><time>2026-05-02T16:05:35.406Z</time></trkpt><trkpt lat="46.1767833" lon="12.3006117"><ele>377.0</ele><time>2026-05-02T16:05:36.406Z</time></trkpt><trkpt lat="46.176585" lon="12.3008733"><ele>375.0</ele><time>2026-05-02T16:05:37.406Z</time></trkpt><trkpt lat="46.1763783" lon="12.301145"><ele>375.0</ele><time>2026-05-02T16:05:38.406Z</time></trkpt><trkpt lat="46.1761833" lon="12.301415"><ele>375.0</ele><time>2026-05-02T16:05:39.406Z</time></trkpt><trkpt lat="46.1759933" lon="12.3016967"><ele>376.0</ele><time>2026-05-02T16:05:40.405Z</time></trkpt><trkpt lat="46.1758067" lon="12.3019733"><ele>377.0</ele><time>2026-05-02T16:05:41.406Z</time></trkpt><trkpt lat="46.1756183" lon="12.3022533"><ele>380.0</ele><time>2026-05-02T16:05:42.406Z</time></trkpt><trkpt lat="46.17544" lon="12.302545"><ele>383.0</ele><time>2026-05-02T16:05:43.406Z</time></trkpt><trkpt lat="46.175265" lon="12.3028467"><ele>382.0</ele><time>2026-05-02T16:05:44.406Z</time></trkpt><trkpt lat="46.175095" lon="12.3031517"><ele>381.0</ele><time>2026-05-02T16:05:45.406Z</time></trkpt><trkpt lat="46.1749283" lon="12.30346"><ele>383.5</ele><time>2026-05-02T16:05:46.406Z</time></trkpt><trkpt lat="46.1747617" lon="12.30377"><ele>386.0</ele><time>2026-05-02T16:05:47.405Z</time></trkpt><trkpt lat="46.1745917" lon="12.30408"><ele>386.0</ele><time>2026-05-02T16:05:48.405Z</time></trkpt><trkpt lat="46.174425" lon="12.304385"><ele>386.0</ele><time>2026-05-02T16:05:49.406Z</time></trkpt><trkpt lat="46.1742583" lon="12.3046967"><ele>386.5</ele><time>2026-05-02T16:05:50.406Z</time></trkpt><trkpt lat="46.1740917" lon="12.3049983"><ele>387.0</ele><time>2026-05-02T16:05:51.406Z</time></trkpt><trkpt lat="46.1739183" lon="12.3053067"><ele>385.5</ele><time>2026-05-02T16:05:52.406Z</time></trkpt><trkpt lat="46.1737483" lon="12.30561"><ele>384.0</ele><time>2026-05-02T16:05:53.406Z</time></trkpt><trkpt lat="46.1735817" lon="12.3059083"><ele>384.0</ele><time>2026-05-02T16:05:54.405Z</time></trkpt><trkpt lat="46.1734033" lon="12.3061883"><ele>384.0</ele><time>2026-05-02T16:05:55.406Z</time></trkpt><trkpt lat="46.173225" lon="12.3064633"><ele>387.0</ele><time>2026-05-02T16:05:56.406Z</time></trkpt><trkpt lat="46.1730467" lon="12.30674"><ele>390.0</ele><time>2026-05-02T16:05:57.405Z</time></trkpt><trkpt lat="46.1728667" lon="12.307005"><ele>386.5</ele><time>2026-05-02T16:05:58.406Z</time></trkpt><trkpt lat="46.1726683" lon="12.30725"><ele>383.0</ele><time>2026-05-02T16:05:59.406Z</time></trkpt><trkpt lat="46.1724767" lon="12.307485"><ele>386.0</ele><time>2026-05-02T16:06:00.405Z</time></trkpt><trkpt lat="46.1722833" lon="12.30772"><ele>389.0</ele><time>2026-05-02T16:06:01.406Z</time></trkpt><trkpt lat="46.17209" lon="12.3079483"><ele>386.5</ele><time>2026-05-02T16:06:02.406Z</time></trkpt><trkpt lat="46.1718933" lon="12.3081667"><ele>384.0</ele><time>2026-05-02T16:06:03.406Z</time></trkpt><trkpt lat="46.1717" lon="12.308375"><ele>392.0</ele><time>2026-05-02T16:06:04.405Z</time></trkpt><trkpt lat="46.1715083" lon="12.3085717"><ele>400.0</ele><time>2026-05-02T16:06:05.405Z</time></trkpt><trkpt lat="46.17131" lon="12.308765"><ele>396.0</ele><time>2026-05-02T16:06:06.406Z</time></trkpt><trkpt lat="46.1711167" lon="12.3089517"><ele>392.0</ele><time>2026-05-02T16:06:07.406Z</time></trkpt><trkpt lat="46.170925" lon="12.3091267"><ele>392.0</ele><time>2026-05-02T16:06:08.406Z</time></trkpt><trkpt lat="46.1707417" lon="12.3092767"><ele>392.0</ele><time>2026-05-02T16:06:09.405Z</time></trkpt><trkpt lat="46.1705617" lon="12.3094183"><ele>392.0</ele><time>2026-05-02T16:06:10.406Z</time></trkpt><trkpt lat="46.1703917" lon="12.3095467"><ele>392.3333333333333</ele><time>2026-05-02T16:06:11.406Z</time></trkpt><trkpt lat="46.17023" lon="12.309665"><ele>392.66666666666663</ele><time>2026-05-02T16:06:12.406Z</time></trkpt><trkpt lat="46.1700767" lon="12.3097783"><ele>393.0</ele><time>2026-05-02T16:06:13.406Z</time></trkpt><trkpt lat="46.1699217" lon="12.3098833"><ele>399.0</ele><time>2026-05-02T16:06:14.406Z</time></trkpt><trkpt lat="46.1697617" lon="12.3099917"><ele>405.0</ele><time>2026-05-02T16:06:15.406Z</time></trkpt><trkpt lat="46.1696033" lon="12.3100917"><ele>411.0</ele><time>2026-05-02T16:06:16.406Z</time></trkpt><trkpt lat="46.1694417" lon="12.3101817"><ele>411.0</ele><time>2026-05-02T16:06:17.405Z</time></trkpt><trkpt lat="46.1692783" lon="12.31027"><ele>411.0</ele><time>2026-05-02T16:06:18.405Z</time></trkpt><trkpt lat="46.1691217" lon="12.3103583"><ele>411.0</ele><time>2026-05-02T16:06:19.406Z</time></trkpt><trkpt lat="46.1689683" lon="12.3104433"><ele>408.0</ele><time>2026-05-02T16:06:20.406Z</time></trkpt><trkpt lat="46.168815" lon="12.3105117"><ele>405.0</ele><time>2026-05-02T16:06:21.406Z</time></trkpt><trkpt lat="46.1686667" lon="12.3105733"><ele>402.0</ele><time>2026-05-02T16:06:22.406Z</time></trkpt><trkpt lat="46.1685167" lon="12.31063"><ele>402.0</ele><time>2026-05-02T16:06:23.406Z</time></trkpt><trkpt lat="46.16837" lon="12.31068"><ele>402.0</ele><time>2026-05-02T16:06:24.406Z</time></trkpt><trkpt lat="46.1682217" lon="12.310735"><ele>402.0</ele><time>2026-05-02T16:06:25.405Z</time></trkpt><trkpt lat="46.1680667" lon="12.310785"><ele>403.0</ele><time>2026-05-02T16:06:26.405Z</time></trkpt><trkpt lat="46.167905" lon="12.3108383"><ele>404.0</ele><time>2026-05-02T16:06:27.406Z</time></trkpt><trkpt lat="46.1677367" lon="12.31089"><ele>405.0</ele><time>2026-05-02T16:06:28.405Z</time></trkpt><trkpt lat="46.1675667" lon="12.3109433"><ele>405.0</ele><time>2026-05-02T16:06:29.405Z</time></trkpt><trkpt lat="46.1673933" lon="12.31099"><ele>405.0</ele><time>2026-05-02T16:06:30.406Z</time></trkpt><trkpt lat="46.1672167" lon="12.3110367"><ele>405.0</ele><time>2026-05-02T16:06:31.406Z</time></trkpt><trkpt lat="46.1670383" lon="12.3110717"><ele>406.33333333333337</ele><time>2026-05-02T16:06:32.406Z</time></trkpt><trkpt lat="46.16687" lon="12.3111033"><ele>407.6666666666667</ele><time>2026-05-02T16:06:33.405Z</time></trkpt><trkpt lat="46.16672" lon="12.3111283"><ele>409.0</ele><time>2026-05-02T16:06:34.405Z</time></trkpt><trkpt lat="46.1665717" lon="12.3111517"><ele>413.6666666666667</ele><time>2026-05-02T16:06:35.406Z</time></trkpt><trkpt lat="46.166415" lon="12.3111933"><ele>418.33333333333337</ele><time>2026-05-02T16:06:36.406Z</time></trkpt><trkpt lat="46.1662533" lon="12.31124"><ele>423.0</ele><time>2026-05-02T16:06:37.406Z</time></trkpt><trkpt lat="46.16609" lon="12.311285"><ele>423.0</ele><time>2026-05-02T16:06:38.405Z</time></trkpt><trkpt lat="46.1659267" lon="12.3113317"><ele>423.0</ele><time>2026-05-02T16:06:39.406Z</time></trkpt><trkpt lat="46.16663" lon="12.3122567"><ele>416.25</ele><time>2026-05-02T16:06:47.401Z</time></trkpt><trkpt lat="46.1666667" lon="12.3123917"><ele>409.5</ele><time>2026-05-02T16:06:48.4Z</time></trkpt><trkpt lat="46.1666817" lon="12.3125583"><ele>402.75</ele><time>2026-05-02T16:06:49.401Z</time></trkpt><trkpt lat="46.166685" lon="12.3127283"><ele>396.0</ele><time>2026-05-02T16:06:50.401Z</time></trkpt><trkpt lat="46.1666867" lon="12.3129233"><ele>395.33333333333337</ele><time>2026-05-02T16:06:51.401Z</time></trkpt><trkpt lat="46.1666767" lon="12.3131483"><ele>394.6666666666667</ele><time>2026-05-02T16:06:52.401Z</time></trkpt><trkpt lat="46.16667" lon="12.3133767"><ele>394.0</ele><time>2026-05-02T16:06:53.401Z</time></trkpt><trkpt lat="46.1666617" lon="12.3135933"><ele>394.0</ele><time>2026-05-02T16:06:54.401Z</time></trkpt><trkpt lat="46.1666433" lon="12.3137783"><ele>394.0</ele><time>2026-05-02T16:06:55.4Z</time></trkpt><trkpt lat="46.1666167" lon="12.3139267"><ele>394.0</ele><time>2026-05-02T16:06:56.401Z</time></trkpt><trkpt lat="46.1665683" lon="12.3140583"><ele>394.0</ele><time>2026-05-02T16:06:57.401Z</time></trkpt><trkpt lat="46.1665017" lon="12.3141817"><ele>394.0</ele><time>2026-05-02T16:06:58.401Z</time></trkpt><trkpt lat="46.1664117" lon="12.3143"><ele>393.25</ele><time>2026-05-02T16:06:59.401Z</time></trkpt><trkpt lat="46.166295" lon="12.314415"><ele>392.5</ele><time>2026-05-02T16:07:00.401Z</time></trkpt><trkpt lat="46.1661733" lon="12.314515"><ele>391.75</ele><time>2026-05-02T16:07:01.4Z</time></trkpt><trkpt lat="46.1660567" lon="12.3146133"><ele>391.0</ele><time>2026-05-02T16:07:02.4Z</time></trkpt><trkpt lat="46.1659433" lon="12.3147167"><ele>391.0</ele><time>2026-05-02T16:07:03.401Z</time></trkpt><trkpt lat="46.1658233" lon="12.3148183"><ele>391.0</ele><time>2026-05-02T16:07:04.401Z</time></trkpt><trkpt lat="46.1657" lon="12.314925"><ele>391.0</ele><time>2026-05-02T16:07:05.401Z</time></trkpt><trkpt lat="46.1655817" lon="12.315025"><ele>391.0</ele><time>2026-05-02T16:07:06.4Z</time></trkpt><trkpt lat="46.165465" lon="12.3150983"><ele>391.0</ele><time>2026-05-02T16:07:07.401Z</time></trkpt><trkpt lat="46.1653517" lon="12.3151617"><ele>391.0</ele><time>2026-05-02T16:07:08.401Z</time></trkpt><trkpt lat="46.165235" lon="12.315205"><ele>391.0</ele><time>2026-05-02T16:07:09.4Z</time></trkpt><trkpt lat="46.16511" lon="12.3152133"><ele>391.0</ele><time>2026-05-02T16:07:10.401Z</time></trkpt><trkpt lat="46.1649917" lon="12.3152"><ele>391.0</ele><time>2026-05-02T16:07:11.401Z</time></trkpt><trkpt lat="46.16488" lon="12.3151683"><ele>391.0</ele><time>2026-05-02T16:07:12.401Z</time></trkpt><trkpt lat="46.1647733" lon="12.3151133"><ele>391.0</ele><time>2026-05-02T16:07:13.4Z</time></trkpt><trkpt lat="46.1646717" lon="12.3150383"><ele>391.0</ele><time>2026-05-02T16:07:14.401Z</time></trkpt><trkpt lat="46.1645867" lon="12.3149367"><ele>391.8</ele><time>2026-05-02T16:07:15.401Z</time></trkpt><trkpt lat="46.1645133" lon="12.3148133"><ele>392.6</ele><time>2026-05-02T16:07:16.401Z</time></trkpt><trkpt lat="46.164475" lon="12.3146633"><ele>393.4</ele><time>2026-05-02T16:07:17.401Z</time></trkpt><trkpt lat="46.1644683" lon="12.3145017"><ele>394.2</ele><time>2026-05-02T16:07:18.401Z</time></trkpt><trkpt lat="46.164495" lon="12.3143467"><ele>395.0</ele><time>2026-05-02T16:07:19.401Z</time></trkpt><trkpt lat="46.1645467" lon="12.3142083"><ele>394.6</ele><time>2026-05-02T16:07:20.401Z</time></trkpt><trkpt lat="46.16462" lon="12.3141033"><ele>394.2</ele><time>2026-05-02T16:07:21.4Z</time></trkpt><trkpt lat="46.16472" lon="12.3140367"><ele>393.79999999999995</ele><time>2026-05-02T16:07:22.401Z</time></trkpt><trkpt lat="46.16483" lon="12.3140117"><ele>393.4</ele><time>2026-05-02T16:07:23.401Z</time></trkpt><trkpt lat="46.1649367" lon="12.3140417"><ele>393.0</ele><time>2026-05-02T16:07:24.401Z</time></trkpt><trkpt lat="46.1650383" lon="12.3141117"><ele>393.0</ele><time>2026-05-02T16:07:25.401Z</time></trkpt><trkpt lat="46.1651217" lon="12.3142333"><ele>393.0</ele><time>2026-05-02T16:07:26.401Z</time></trkpt><trkpt lat="46.1651733" lon="12.314375"><ele>393.0</ele><time>2026-05-02T16:07:27.401Z</time></trkpt><trkpt lat="46.1651917" lon="12.3145117"><ele>393.0</ele><time>2026-05-02T16:07:28.401Z</time></trkpt><trkpt lat="46.165185" lon="12.31464"><ele>393.0</ele><time>2026-05-02T16:07:29.401Z</time></trkpt><trkpt lat="46.1651533" lon="12.3147833"><ele>392.33333333333337</ele><time>2026-05-02T16:07:30.401Z</time></trkpt><trkpt lat="46.1650833" lon="12.3149267"><ele>391.6666666666667</ele><time>2026-05-02T16:07:31.401Z</time></trkpt><trkpt lat="46.1649767" lon="12.31509"><ele>391.0</ele><time>2026-05-02T16:07:32.401Z</time></trkpt><trkpt lat="46.16486" lon="12.3152783"><ele>392.33333333333337</ele><time>2026-05-02T16:07:33.4Z</time></trkpt><trkpt lat="46.1647367" lon="12.3154867"><ele>393.66666666666663</ele><time>2026-05-02T16:07:34.401Z</time></trkpt><trkpt lat="46.1646183" lon="12.3156717"><ele>395.0</ele><time>2026-05-02T16:07:35.401Z</time></trkpt><trkpt lat="46.1645" lon="12.3158517"><ele>395.0</ele><time>2026-05-02T16:07:36.401Z</time></trkpt><trkpt lat="46.1643933" lon="12.316045"><ele>395.0</ele><time>2026-05-02T16:07:37.401Z</time></trkpt><trkpt lat="46.1642783" lon="12.3162367"><ele>395.0</ele><time>2026-05-02T16:07:38.401Z</time></trkpt><trkpt lat="46.1641567" lon="12.3164233"><ele>395.66666666666663</ele><time>2026-05-02T16:07:39.401Z</time></trkpt><trkpt lat="46.16404" lon="12.3166183"><ele>396.33333333333337</ele><time>2026-05-02T16:07:40.4Z</time></trkpt><trkpt lat="46.1639183" lon="12.3168117"><ele>397.0</ele><time>2026-05-02T16:07:41.401Z</time></trkpt><trkpt lat="46.1637917" lon="12.3170117"><ele>398.0</ele><time>2026-05-02T16:07:42.401Z</time></trkpt><trkpt lat="46.16366" lon="12.317225"><ele>399.0</ele><time>2026-05-02T16:07:43.401Z</time></trkpt><trkpt lat="46.1635183" lon="12.3174483"><ele>400.0</ele><time>2026-05-02T16:07:44.401Z</time></trkpt><trkpt lat="46.1633517" lon="12.31768"><ele>400.0</ele><time>2026-05-02T16:07:45.401Z</time></trkpt><trkpt lat="46.1631667" lon="12.317915"><ele>400.0</ele><time>2026-05-02T16:07:46.401Z</time></trkpt><trkpt lat="46.1629783" lon="12.3181333"><ele>400.0</ele><time>2026-05-02T16:07:47.4Z</time></trkpt><trkpt lat="46.162795" lon="12.3183367"><ele>400.0</ele><time>2026-05-02T16:07:48.401Z</time></trkpt><trkpt lat="46.1626167" lon="12.31853"><ele>400.0</ele><time>2026-05-02T16:07:49.401Z</time></trkpt><trkpt lat="46.1624333" lon="12.3187217"><ele>400.0</ele><time>2026-05-02T16:07:50.4Z</time></trkpt><trkpt lat="46.1622567" lon="12.3189167"><ele>400.0</ele><time>2026-05-02T16:07:51.401Z</time></trkpt><trkpt lat="46.1620867" lon="12.31911"><ele>400.0</ele><time>2026-05-02T16:07:52.401Z</time></trkpt><trkpt lat="46.1619317" lon="12.319295"><ele>400.0</ele><time>2026-05-02T16:07:53.401Z</time></trkpt><trkpt lat="46.1617733" lon="12.3194633"><ele>400.0</ele><time>2026-05-02T16:07:54.401Z</time></trkpt><trkpt lat="46.1616167" lon="12.3195983"><ele>398.0</ele><time>2026-05-02T16:07:55.4Z</time></trkpt><trkpt lat="46.1614483" lon="12.319675"><ele>396.0</ele><time>2026-05-02T16:07:56.401Z</time></trkpt><trkpt lat="46.1612733" lon="12.3197033"><ele>394.0</ele><time>2026-05-02T16:07:57.401Z</time></trkpt><trkpt lat="46.1611033" lon="12.319685"><ele>394.0</ele><time>2026-05-02T16:07:58.401Z</time></trkpt><trkpt lat="46.160945" lon="12.319605"><ele>394.0</ele><time>2026-05-02T16:07:59.4Z</time></trkpt><trkpt lat="46.1608033" lon="12.31947"><ele>394.0</ele><time>2026-05-02T16:08:00.4Z</time></trkpt><trkpt lat="46.1606567" lon="12.3192967"><ele>393.6666666666667</ele><time>2026-05-02T16:08:01.401Z</time></trkpt><trkpt lat="46.1605067" lon="12.3191217"><ele>393.33333333333337</ele><time>2026-05-02T16:08:02.401Z</time></trkpt><trkpt lat="46.1603433" lon="12.3189533"><ele>393.0</ele><time>2026-05-02T16:08:03.401Z</time></trkpt><trkpt lat="46.160175" lon="12.31879"><ele>393.0</ele><time>2026-05-02T16:08:04.4Z</time></trkpt><trkpt lat="46.16" lon="12.3186483"><ele>393.0</ele><time>2026-05-02T16:08:05.401Z</time></trkpt><trkpt lat="46.1598183" lon="12.3185167"><ele>393.0</ele><time>2026-05-02T16:08:06.401Z</time></trkpt><trkpt lat="46.1596333" lon="12.318395"><ele>390.0</ele><time>2026-05-02T16:08:07.401Z</time></trkpt><trkpt lat="46.1594267" lon="12.318295"><ele>387.0</ele><time>2026-05-02T16:08:08.4Z</time></trkpt><trkpt lat="46.15922" lon="12.3182133"><ele>384.0</ele><time>2026-05-02T16:08:09.401Z</time></trkpt><trkpt lat="46.1590017" lon="12.31815"><ele>383.0</ele><time>2026-05-02T16:08:10.401Z</time></trkpt><trkpt lat="46.1587817" lon="12.318115"><ele>382.0</ele><time>2026-05-02T16:08:11.401Z</time></trkpt><trkpt lat="46.1585517" lon="12.3181033"><ele>382.0</ele><time>2026-05-02T16:08:12.401Z</time></trkpt><trkpt lat="46.1583067" lon="12.3180983"><ele>382.0</ele><time>2026-05-02T16:08:13.401Z</time></trkpt><trkpt lat="46.1580667" lon="12.3181267"><ele>382.5</ele><time>2026-05-02T16:08:14.401Z</time></trkpt><trkpt lat="46.15783" lon="12.3181567"><ele>383.0</ele><time>2026-05-02T16:08:15.401Z</time></trkpt><trkpt lat="46.157595" lon="12.3181983"><ele>386.5</ele><time>2026-05-02T16:08:16.401Z</time></trkpt><trkpt lat="46.157365" lon="12.3182517"><ele>390.0</ele><time>2026-05-02T16:08:17.401Z</time></trkpt><trkpt lat="46.1571283" lon="12.3183183"><ele>390.0</ele><time>2026-05-02T16:08:18.401Z</time></trkpt><trkpt lat="46.1569033" lon="12.3183983"><ele>390.0</ele><time>2026-05-02T16:08:19.401Z</time></trkpt><trkpt lat="46.1566717" lon="12.3184733"><ele>391.5</ele><time>2026-05-02T16:08:20.401Z</time></trkpt><trkpt lat="46.1564467" lon="12.318545"><ele>393.0</ele><time>2026-05-02T16:08:21.401Z</time></trkpt><trkpt lat="46.1562183" lon="12.3186083"><ele>393.0</ele><time>2026-05-02T16:08:22.4Z</time></trkpt><trkpt lat="46.156005" lon="12.3186717"><ele>393.0</ele><time>2026-05-02T16:08:23.401Z</time></trkpt><trkpt lat="46.1558" lon="12.3187317"><ele>393.0</ele><time>2026-05-02T16:08:24.401Z</time></trkpt><trkpt lat="46.1555983" lon="12.3187867"><ele>395.33333333333337</ele><time>2026-05-02T16:08:25.4Z</time></trkpt><trkpt lat="46.1553917" lon="12.3188483"><ele>397.6666666666667</ele><time>2026-05-02T16:08:26.4Z</time></trkpt><trkpt lat="46.1551833" lon="12.31894"><ele>400.0</ele><time>2026-05-02T16:08:27.4Z</time></trkpt><trkpt lat="46.1549783" lon="12.31901"><ele>396.0</ele><time>2026-05-02T16:08:28.401Z</time></trkpt><trkpt lat="46.1547767" lon="12.3190783"><ele>392.0</ele><time>2026-05-02T16:08:29.401Z</time></trkpt><trkpt lat="46.154565" lon="12.31914"><ele>388.0</ele><time>2026-05-02T16:08:30.401Z</time></trkpt><trkpt lat="46.1543583" lon="12.319185"><ele>388.0</ele><time>2026-05-02T16:08:31.401Z</time></trkpt><trkpt lat="46.154145" lon="12.3192217"><ele>388.0</ele><time>2026-05-02T16:08:32.401Z</time></trkpt><trkpt lat="46.1539317" lon="12.3192583"><ele>388.0</ele><time>2026-05-02T16:08:33.401Z</time></trkpt><trkpt lat="46.1537133" lon="12.319295"><ele>389.0</ele><time>2026-05-02T16:08:34.401Z</time></trkpt><trkpt lat="46.153495" lon="12.3193"><ele>390.0</ele><time>2026-05-02T16:08:35.401Z</time></trkpt><trkpt lat="46.1532767" lon="12.3193183"><ele>391.0</ele><time>2026-05-02T16:08:36.401Z</time></trkpt><trkpt lat="46.1530817" lon="12.3193133"><ele>391.0</ele><time>2026-05-02T16:08:37.401Z</time></trkpt><trkpt lat="46.1528867" lon="12.3193133"><ele>391.0</ele><time>2026-05-02T16:08:38.401Z</time></trkpt><trkpt lat="46.1526983" lon="12.3193183"><ele>391.0</ele><time>2026-05-02T16:08:39.401Z</time></trkpt><trkpt lat="46.1525067" lon="12.3193233"><ele>391.33333333333337</ele><time>2026-05-02T16:08:40.401Z</time></trkpt><trkpt lat="46.1523083" lon="12.3193333"><ele>391.66666666666663</ele><time>2026-05-02T16:08:41.4Z</time></trkpt><trkpt lat="46.152115" lon="12.3193283"><ele>392.0</ele><time>2026-05-02T16:08:42.401Z</time></trkpt><trkpt lat="46.1519167" lon="12.31932"><ele>392.0</ele><time>2026-05-02T16:08:43.4Z</time></trkpt><trkpt lat="46.151715" lon="12.3193067"><ele>392.0</ele><time>2026-05-02T16:08:44.401Z</time></trkpt><trkpt lat="46.1515233" lon="12.319285"><ele>392.0</ele><time>2026-05-02T16:08:45.401Z</time></trkpt><trkpt lat="46.151335" lon="12.319245"><ele>390.66666666666663</ele><time>2026-05-02T16:08:46.4Z</time></trkpt><trkpt lat="46.1511567" lon="12.3191967"><ele>389.33333333333337</ele><time>2026-05-02T16:08:47.401Z</time></trkpt><trkpt lat="46.1509883" lon="12.319115"><ele>388.0</ele><time>2026-05-02T16:08:48.401Z</time></trkpt><trkpt lat="46.1508167" lon="12.3190367"><ele>389.0</ele><time>2026-05-02T16:08:49.401Z</time></trkpt><trkpt lat="46.1506383" lon="12.3190033"><ele>390.0</ele><time>2026-05-02T16:08:50.401Z</time></trkpt><trkpt lat="46.1504633" lon="12.3189933"><ele>391.0</ele><time>2026-05-02T16:08:51.401Z</time></trkpt><trkpt lat="46.1502617" lon="12.3190283"><ele>391.0</ele><time>2026-05-02T16:08:52.401Z</time></trkpt><trkpt lat="46.1500667" lon="12.31907"><ele>391.0</ele><time>2026-05-02T16:08:53.401Z</time></trkpt><trkpt lat="46.1498783" lon="12.319115"><ele>391.0</ele><time>2026-05-02T16:08:54.4Z</time></trkpt><trkpt lat="46.149695" lon="12.3191583"><ele>390.6666666666667</ele><time>2026-05-02T16:08:55.401Z</time></trkpt><trkpt lat="46.1495233" lon="12.3192033"><ele>390.33333333333337</ele><time>2026-05-02T16:08:56.401Z</time></trkpt><trkpt lat="46.149345" lon="12.3192417"><ele>390.0</ele><time>2026-05-02T16:08:57.4Z</time></trkpt><trkpt lat="46.149175" lon="12.319265"><ele>390.33333333333337</ele><time>2026-05-02T16:08:58.401Z</time></trkpt><trkpt lat="46.1490067" lon="12.3192617"><ele>390.6666666666667</ele><time>2026-05-02T16:08:59.4Z</time></trkpt><trkpt lat="46.14883" lon="12.3192367"><ele>391.0</ele><time>2026-05-02T16:09:00.401Z</time></trkpt><trkpt lat="46.1486567" lon="12.3192"><ele>391.0</ele><time>2026-05-02T16:09:01.4Z</time></trkpt><trkpt lat="46.1484933" lon="12.319165"><ele>391.0</ele><time>2026-05-02T16:09:02.401Z</time></trkpt><trkpt lat="46.14833" lon="12.3191317"><ele>391.0</ele><time>2026-05-02T16:09:03.401Z</time></trkpt><trkpt lat="46.148165" lon="12.319105"><ele>391.33333333333337</ele><time>2026-05-02T16:09:04.401Z</time></trkpt><trkpt lat="46.147995" lon="12.3190783"><ele>391.66666666666663</ele><time>2026-05-02T16:09:05.401Z</time></trkpt><trkpt lat="46.1478167" lon="12.3190717"><ele>392.0</ele><time>2026-05-02T16:09:06.401Z</time></trkpt><trkpt lat="46.1476367" lon="12.3190883"><ele>392.0</ele><time>2026-05-02T16:09:07.4Z</time></trkpt><trkpt lat="46.1474517" lon="12.3191183"><ele>392.0</ele><time>2026-05-02T16:09:08.401Z</time></trkpt><trkpt lat="46.1472683" lon="12.3191533"><ele>392.0</ele><time>2026-05-02T16:09:09.401Z</time></trkpt><trkpt lat="46.1470783" lon="12.3191917"><ele>392.3333333333333</ele><time>2026-05-02T16:09:10.401Z</time></trkpt><trkpt lat="46.1468883" lon="12.31922"><ele>392.66666666666663</ele><time>2026-05-02T16:09:11.401Z</time></trkpt><trkpt lat="46.1467067" lon="12.31926"><ele>393.0</ele><time>2026-05-02T16:09:12.4Z</time></trkpt><trkpt lat="46.1465283" lon="12.3193067"><ele>393.0</ele><time>2026-05-02T16:09:13.401Z</time></trkpt><trkpt lat="46.14635" lon="12.3193483"><ele>393.0</ele><time>2026-05-02T16:09:14.401Z</time></trkpt><trkpt lat="46.1461617" lon="12.31938"><ele>393.0</ele><time>2026-05-02T16:09:15.401Z</time></trkpt><trkpt lat="46.1459767" lon="12.3194"><ele>393.0</ele><time>2026-05-02T16:09:16.401Z</time></trkpt><trkpt lat="46.1457933" lon="12.3194167"><ele>393.0</ele><time>2026-05-02T16:09:17.401Z</time></trkpt><trkpt lat="46.14561" lon="12.3194017"><ele>393.0</ele><time>2026-05-02T16:09:18.401Z</time></trkpt><trkpt lat="46.1454333" lon="12.3193783"><ele>390.66666666666663</ele><time>2026-05-02T16:09:19.401Z</time></trkpt><trkpt lat="46.1452633" lon="12.3193033"><ele>388.3333333333333</ele><time>2026-05-02T16:09:20.4Z</time></trkpt><trkpt lat="46.145095" lon="12.319195"><ele>386.0</ele><time>2026-05-02T16:09:21.401Z</time></trkpt><trkpt lat="46.144945" lon="12.3190667"><ele>387.3333333333333</ele><time>2026-05-02T16:09:22.4Z</time></trkpt><trkpt lat="46.1448" lon="12.318935"><ele>388.66666666666663</ele><time>2026-05-02T16:09:23.401Z</time></trkpt><trkpt lat="46.1446567" lon="12.3187767"><ele>390.0</ele><time>2026-05-02T16:09:24.401Z</time></trkpt><trkpt lat="46.1445183" lon="12.3186317"><ele>390.0</ele><time>2026-05-02T16:09:25.401Z</time></trkpt><trkpt lat="46.1443717" lon="12.3185033"><ele>390.0</ele><time>2026-05-02T16:09:26.4Z</time></trkpt><trkpt lat="46.14422" lon="12.3183967"><ele>390.0</ele><time>2026-05-02T16:09:27.401Z</time></trkpt><trkpt lat="46.144075" lon="12.3183083"><ele>389.0</ele><time>2026-05-02T16:09:28.4Z</time></trkpt><trkpt lat="46.1439333" lon="12.3182433"><ele>388.0</ele><time>2026-05-02T16:09:29.401Z</time></trkpt><trkpt lat="46.1437933" lon="12.318195"><ele>387.0</ele><time>2026-05-02T16:09:30.401Z</time></trkpt><trkpt lat="46.143645" lon="12.3181617"><ele>386.0</ele><time>2026-05-02T16:09:31.401Z</time></trkpt><trkpt lat="46.1435" lon="12.318115"><ele>385.75</ele><time>2026-05-02T16:09:32.401Z</time></trkpt><trkpt lat="46.1433617" lon="12.3180617"><ele>385.5</ele><time>2026-05-02T16:09:33.4Z</time></trkpt><trkpt lat="46.14322" lon="12.3179783"><ele>385.25</ele><time>2026-05-02T16:09:34.4Z</time></trkpt><trkpt lat="46.1430883" lon="12.317875"><ele>385.0</ele><time>2026-05-02T16:09:35.4Z</time></trkpt><trkpt lat="46.1429533" lon="12.3177567"><ele>385.0</ele><time>2026-05-02T16:09:36.401Z</time></trkpt><trkpt lat="46.14282" lon="12.3176217"><ele>385.0</ele><time>2026-05-02T16:09:37.401Z</time></trkpt><trkpt lat="46.14268" lon="12.3174783"><ele>385.0</ele><time>2026-05-02T16:09:38.401Z</time></trkpt><trkpt lat="46.1425233" lon="12.3173517"><ele>385.33333333333337</ele><time>2026-05-02T16:09:39.401Z</time></trkpt><trkpt lat="46.1423667" lon="12.317235"><ele>385.66666666666663</ele><time>2026-05-02T16:09:40.4Z</time></trkpt><trkpt lat="46.1421983" lon="12.3171317"><ele>386.0</ele><time>2026-05-02T16:09:41.401Z</time></trkpt><trkpt lat="46.1420333" lon="12.31703"><ele>386.0</ele><time>2026-05-02T16:09:42.401Z</time></trkpt><trkpt lat="46.1418683" lon="12.3169333"><ele>386.0</ele><time>2026-05-02T16:09:43.401Z</time></trkpt><trkpt lat="46.141695" lon="12.316835"><ele>386.0</ele><time>2026-05-02T16:09:44.401Z</time></trkpt><trkpt lat="46.1415317" lon="12.3167517"><ele>385.66666666666663</ele><time>2026-05-02T16:09:45.401Z</time></trkpt><trkpt lat="46.14137" lon="12.31668"><ele>385.33333333333337</ele><time>2026-05-02T16:09:46.4Z</time></trkpt><trkpt lat="46.1412117" lon="12.316615"><ele>385.0</ele><time>2026-05-02T16:09:47.401Z</time></trkpt><trkpt lat="46.1410517" lon="12.3165483"><ele>385.0</ele><time>2026-05-02T16:09:48.401Z</time></trkpt><trkpt lat="46.14089" lon="12.316475"><ele>385.0</ele><time>2026-05-02T16:09:49.401Z</time></trkpt><trkpt lat="46.1407333" lon="12.3164133"><ele>385.0</ele><time>2026-05-02T16:09:50.401Z</time></trkpt><trkpt lat="46.1405617" lon="12.3163767"><ele>387.33333333333337</ele><time>2026-05-02T16:09:51.401Z</time></trkpt><trkpt lat="46.140395" lon="12.3163467"><ele>389.66666666666663</ele><time>2026-05-02T16:09:52.401Z</time></trkpt><trkpt lat="46.14023" lon="12.3163333"><ele>392.0</ele><time>2026-05-02T16:09:53.401Z</time></trkpt><trkpt lat="46.1400617" lon="12.3163617"><ele>392.3333333333333</ele><time>2026-05-02T16:09:54.401Z</time></trkpt><trkpt lat="46.1398833" lon="12.3163933"><ele>392.66666666666663</ele><time>2026-05-02T16:09:55.4Z</time></trkpt><trkpt lat="46.1397017" lon="12.3164183"><ele>393.0</ele><time>2026-05-02T16:09:56.401Z</time></trkpt><trkpt lat="46.1395133" lon="12.3164483"><ele>391.66666666666663</ele><time>2026-05-02T16:09:57.4Z</time></trkpt><trkpt lat="46.1393167" lon="12.3165033"><ele>390.3333333333333</ele><time>2026-05-02T16:09:58.401Z</time></trkpt><trkpt lat="46.1391233" lon="12.316575"><ele>389.0</ele><time>2026-05-02T16:09:59.401Z</time></trkpt><trkpt lat="46.1389267" lon="12.3166533"><ele>389.0</ele><time>2026-05-02T16:10:00.401Z</time></trkpt><trkpt lat="46.138735" lon="12.3167367"><ele>389.0</ele><time>2026-05-02T16:10:01.401Z</time></trkpt><trkpt lat="46.1385433" lon="12.3168083"><ele>389.0</ele><time>2026-05-02T16:10:02.4Z</time></trkpt><trkpt lat="46.1383467" lon="12.3168917"><ele>389.3333333333333</ele><time>2026-05-02T16:10:03.401Z</time></trkpt><trkpt lat="46.13814" lon="12.3169533"><ele>389.66666666666663</ele><time>2026-05-02T16:10:04.401Z</time></trkpt><trkpt lat="46.1379333" lon="12.316995"><ele>390.0</ele><time>2026-05-02T16:10:05.4Z</time></trkpt><trkpt lat="46.13772" lon="12.317005"><ele>390.0</ele><time>2026-05-02T16:10:06.401Z</time></trkpt><trkpt lat="46.1375133" lon="12.316995"><ele>390.0</ele><time>2026-05-02T16:10:07.401Z</time></trkpt><trkpt lat="46.137315" lon="12.31696"><ele>390.0</ele><time>2026-05-02T16:10:08.4Z</time></trkpt><trkpt lat="46.1371317" lon="12.3169267"><ele>389.66666666666663</ele><time>2026-05-02T16:10:09.401Z</time></trkpt><trkpt lat="46.13696" lon="12.3168983"><ele>389.3333333333333</ele><time>2026-05-02T16:10:10.401Z</time></trkpt><trkpt lat="46.136795" lon="12.3168583"><ele>389.0</ele><time>2026-05-02T16:10:11.401Z</time></trkpt><trkpt lat="46.1366483" lon="12.31682"><ele>388.79999999999995</ele><time>2026-05-02T16:10:12.401Z</time></trkpt><trkpt lat="46.1365183" lon="12.3168017"><ele>388.59999999999997</ele><time>2026-05-02T16:10:13.4Z</time></trkpt><trkpt lat="46.1364117" lon="12.316785"><ele>388.4</ele><time>2026-05-02T16:10:14.401Z</time></trkpt><trkpt lat="46.13632" lon="12.3167733"><ele>388.2</ele><time>2026-05-02T16:10:15.401Z</time></trkpt><trkpt lat="46.1362467" lon="12.31677"><ele>388.0</ele><time>2026-05-02T16:10:16.401Z</time></trkpt><trkpt lat="46.1361767" lon="12.3167667"><ele>388.00000000000006</ele><time>2026-05-02T16:10:17.401Z</time></trkpt><trkpt lat="46.1361083" lon="12.3167633"><ele>388.0</ele><time>2026-05-02T16:10:18.401Z</time></trkpt><trkpt lat="46.1360417" lon="12.3167683"><ele>388.0</ele><time>2026-05-02T16:10:19.4Z</time></trkpt><trkpt lat="46.1359667" lon="12.31678"><ele>388.0</ele><time>2026-05-02T16:10:20.4Z</time></trkpt><trkpt lat="46.1358733" lon="12.3167833"><ele>388.00000000000006</ele><time>2026-05-02T16:10:21.401Z</time></trkpt><trkpt lat="46.1357567" lon="12.3167767"><ele>388.0</ele><time>2026-05-02T16:10:22.401Z</time></trkpt><trkpt lat="46.13562" lon="12.31676"><ele>387.33333333333337</ele><time>2026-05-02T16:10:23.4Z</time></trkpt><trkpt lat="46.1354733" lon="12.3167717"><ele>386.66666666666663</ele><time>2026-05-02T16:10:24.401Z</time></trkpt><trkpt lat="46.1353117" lon="12.3167667"><ele>386.0</ele><time>2026-05-02T16:10:25.401Z</time></trkpt><trkpt lat="46.1351367" lon="12.31676"><ele>386.0</ele><time>2026-05-02T16:10:26.4Z</time></trkpt><trkpt lat="46.13496" lon="12.3167483"><ele>386.0</ele><time>2026-05-02T16:10:27.4Z</time></trkpt><trkpt lat="46.1347767" lon="12.3167433"><ele>386.0</ele><time>2026-05-02T16:10:28.401Z</time></trkpt><trkpt lat="46.1345917" lon="12.31674"><ele>387.0</ele><time>2026-05-02T16:10:29.401Z</time></trkpt><trkpt lat="46.1344033" lon="12.3167467"><ele>388.0</ele><time>2026-05-02T16:10:30.401Z</time></trkpt><trkpt lat="46.1342" lon="12.3167833"><ele>389.0</ele><time>2026-05-02T16:10:31.401Z</time></trkpt><trkpt lat="46.13398" lon="12.3168433"><ele>391.66666666666663</ele><time>2026-05-02T16:10:32.401Z</time></trkpt><trkpt lat="46.13377" lon="12.3169083"><ele>394.33333333333337</ele><time>2026-05-02T16:10:33.401Z</time></trkpt><trkpt lat="46.133575" lon="12.3169683"><ele>397.0</ele><time>2026-05-02T16:10:34.401Z</time></trkpt><trkpt lat="46.13339" lon="12.3170217"><ele>397.6666666666667</ele><time>2026-05-02T16:10:35.401Z</time></trkpt><trkpt lat="46.1332017" lon="12.3170717"><ele>398.33333333333337</ele><time>2026-05-02T16:10:36.401Z</time></trkpt><trkpt lat="46.1330217" lon="12.3170983"><ele>399.0</ele><time>2026-05-02T16:10:37.401Z</time></trkpt><trkpt lat="46.132835" lon="12.31712"><ele>399.0</ele><time>2026-05-02T16:10:38.401Z</time></trkpt><trkpt lat="46.1326433" lon="12.3171217"><ele>399.0</ele><time>2026-05-02T16:10:39.4Z</time></trkpt><trkpt lat="46.13245" lon="12.3171133"><ele>399.0</ele><time>2026-05-02T16:10:40.401Z</time></trkpt><trkpt lat="46.13225" lon="12.3171017"><ele>400.0</ele><time>2026-05-02T16:10:41.4Z</time></trkpt><trkpt lat="46.1320267" lon="12.3171017"><ele>401.0</ele><time>2026-05-02T16:10:42.4Z</time></trkpt><trkpt lat="46.1318017" lon="12.3171067"><ele>402.0</ele><time>2026-05-02T16:10:43.4Z</time></trkpt><trkpt lat="46.1315767" lon="12.3171217"><ele>403.0</ele><time>2026-05-02T16:10:44.401Z</time></trkpt><trkpt lat="46.1313583" lon="12.3171617"><ele>404.0</ele><time>2026-05-02T16:10:45.401Z</time></trkpt><trkpt lat="46.1311467" lon="12.3172067"><ele>405.0</ele><time>2026-05-02T16:10:46.401Z</time></trkpt><trkpt lat="46.1309317" lon="12.317255"><ele>400.66666666666663</ele><time>2026-05-02T16:10:47.4Z</time></trkpt><trkpt lat="46.1307133" lon="12.3173033"><ele>396.3333333333333</ele><time>2026-05-02T16:10:48.401Z</time></trkpt><trkpt lat="46.1304933" lon="12.3173667"><ele>392.0</ele><time>2026-05-02T16:10:49.401Z</time></trkpt><trkpt lat="46.1302817" lon="12.3174517"><ele>392.0</ele><time>2026-05-02T16:10:50.401Z</time></trkpt><trkpt lat="46.1300817" lon="12.317555"><ele>392.0</ele><time>2026-05-02T16:10:51.401Z</time></trkpt><trkpt lat="46.1299" lon="12.317645"><ele>392.0</ele><time>2026-05-02T16:10:52.401Z</time></trkpt><trkpt lat="46.1297217" lon="12.3177283"><ele>393.3333333333333</ele><time>2026-05-02T16:10:53.401Z</time></trkpt><trkpt lat="46.129525" lon="12.317795"><ele>394.66666666666663</ele><time>2026-05-02T16:10:54.401Z</time></trkpt><trkpt lat="46.129335" lon="12.31785"><ele>396.0</ele><time>2026-05-02T16:10:55.401Z</time></trkpt><trkpt lat="46.1291467" lon="12.31787"><ele>401.33333333333337</ele><time>2026-05-02T16:10:56.401Z</time></trkpt><trkpt lat="46.1289667" lon="12.317895"><ele>406.6666666666667</ele><time>2026-05-02T16:10:57.401Z</time></trkpt><trkpt lat="46.128795" lon="12.3179267"><ele>412.0</ele><time>2026-05-02T16:10:58.4Z</time></trkpt><trkpt lat="46.1286283" lon="12.3179717"><ele>412.0</ele><time>2026-05-02T16:10:59.401Z</time></trkpt><trkpt lat="46.1284583" lon="12.3180317"><ele>412.0</ele><time>2026-05-02T16:11:00.4Z</time></trkpt><trkpt lat="46.1282817" lon="12.318105"><ele>412.0</ele><time>2026-05-02T16:11:01.401Z</time></trkpt><trkpt lat="46.1281" lon="12.3181933"><ele>405.6666666666667</ele><time>2026-05-02T16:11:02.4Z</time></trkpt><trkpt lat="46.1279083" lon="12.318285"><ele>399.33333333333337</ele><time>2026-05-02T16:11:03.401Z</time></trkpt><trkpt lat="46.1277283" lon="12.31837"><ele>393.0</ele><time>2026-05-02T16:11:04.401Z</time></trkpt><trkpt lat="46.1275583" lon="12.318465"><ele>393.0</ele><time>2026-05-02T16:11:05.4Z</time></trkpt><trkpt lat="46.1273967" lon="12.3185433"><ele>393.0</ele><time>2026-05-02T16:11:06.401Z</time></trkpt><trkpt lat="46.1272317" lon="12.3186367"><ele>393.0</ele><time>2026-05-02T16:11:07.401Z</time></trkpt><trkpt lat="46.127075" lon="12.3187133"><ele>396.66666666666663</ele><time>2026-05-02T16:11:08.4Z</time></trkpt><trkpt lat="46.1269117" lon="12.31878"><ele>400.3333333333333</ele><time>2026-05-02T16:11:09.401Z</time></trkpt><trkpt lat="46.126725" lon="12.3188267"><ele>404.0</ele><time>2026-05-02T16:11:10.401Z</time></trkpt><trkpt lat="46.1265067" lon="12.31884"><ele>400.0</ele><time>2026-05-02T16:11:11.401Z</time></trkpt><trkpt lat="46.126275" lon="12.31886"><ele>396.0</ele><time>2026-05-02T16:11:12.401Z</time></trkpt><trkpt lat="46.12602" lon="12.318925"><ele>396.0</ele><time>2026-05-02T16:11:13.401Z</time></trkpt><trkpt lat="46.1257683" lon="12.3190183"><ele>396.0</ele><time>2026-05-02T16:11:14.401Z</time></trkpt><trkpt lat="46.12552" lon="12.31911"><ele>398.0</ele><time>2026-05-02T16:11:15.4Z</time></trkpt><trkpt lat="46.1252817" lon="12.3192017"><ele>400.0</ele><time>2026-05-02T16:11:16.4Z</time></trkpt><trkpt lat="46.1250583" lon="12.319285"><ele>402.6666666666667</ele><time>2026-05-02T16:11:17.401Z</time></trkpt><trkpt lat="46.1248433" lon="12.3193633"><ele>405.33333333333337</ele><time>2026-05-02T16:11:18.401Z</time></trkpt><trkpt lat="46.1246267" lon="12.3194383"><ele>408.0</ele><time>2026-05-02T16:11:19.401Z</time></trkpt><trkpt lat="46.1244167" lon="12.31953"><ele>408.0</ele><time>2026-05-02T16:11:20.401Z</time></trkpt><trkpt lat="46.124205" lon="12.319665"><ele>408.0</ele><time>2026-05-02T16:11:21.401Z</time></trkpt><trkpt lat="46.1240033" lon="12.3198033"><ele>407.5</ele><time>2026-05-02T16:11:22.401Z</time></trkpt><trkpt lat="46.1238033" lon="12.3199833"><ele>407.0</ele><time>2026-05-02T16:11:23.4Z</time></trkpt><trkpt lat="46.1236017" lon="12.3201833"><ele>407.0</ele><time>2026-05-02T16:11:24.401Z</time></trkpt><trkpt lat="46.1234083" lon="12.3203817"><ele>407.0</ele><time>2026-05-02T16:11:25.401Z</time></trkpt><trkpt lat="46.12322" lon="12.3205867"><ele>408.5</ele><time>2026-05-02T16:11:26.401Z</time></trkpt><trkpt lat="46.1230333" lon="12.32078"><ele>410.0</ele><time>2026-05-02T16:11:27.401Z</time></trkpt><trkpt lat="46.1228517" lon="12.3209683"><ele>410.0</ele><time>2026-05-02T16:11:28.4Z</time></trkpt><trkpt lat="46.12268" lon="12.3211517"><ele>410.0</ele><time>2026-05-02T16:11:29.401Z</time></trkpt><trkpt lat="46.122505" lon="12.32133"><ele>410.0</ele><time>2026-05-02T16:11:30.4Z</time></trkpt><trkpt lat="46.1223383" lon="12.32151"><ele>408.66666666666663</ele><time>2026-05-02T16:11:31.401Z</time></trkpt><trkpt lat="46.1221733" lon="12.32167"><ele>407.33333333333337</ele><time>2026-05-02T16:11:32.401Z</time></trkpt><trkpt lat="46.122005" lon="12.3218083"><ele>406.0</ele><time>2026-05-02T16:11:33.401Z</time></trkpt><trkpt lat="46.1218367" lon="12.3219467"><ele>406.0</ele><time>2026-05-02T16:11:34.401Z</time></trkpt><trkpt lat="46.121665" lon="12.3220717"><ele>406.0</ele><time>2026-05-02T16:11:35.401Z</time></trkpt><trkpt lat="46.1214983" lon="12.3221983"><ele>406.0</ele><time>2026-05-02T16:11:36.401Z</time></trkpt><trkpt lat="46.1213333" lon="12.3223133"><ele>404.33333333333337</ele><time>2026-05-02T16:11:37.401Z</time></trkpt><trkpt lat="46.12116" lon="12.3224267"><ele>402.66666666666663</ele><time>2026-05-02T16:11:38.401Z</time></trkpt><trkpt lat="46.1209817" lon="12.3225217"><ele>401.0</ele><time>2026-05-02T16:11:39.401Z</time></trkpt><trkpt lat="46.1208083" lon="12.3226133"><ele>407.3333333333333</ele><time>2026-05-02T16:11:40.401Z</time></trkpt><trkpt lat="46.120645" lon="12.3226983"><ele>413.66666666666663</ele><time>2026-05-02T16:11:41.401Z</time></trkpt><trkpt lat="46.1204817" lon="12.3227883"><ele>420.0</ele><time>2026-05-02T16:11:42.401Z</time></trkpt><trkpt lat="46.1203117" lon="12.322875"><ele>420.0</ele><time>2026-05-02T16:11:43.401Z</time></trkpt><trkpt lat="46.1201467" lon="12.322965"><ele>420.0</ele><time>2026-05-02T16:11:44.401Z</time></trkpt><trkpt lat="46.11998" lon="12.3230483"><ele>420.0</ele><time>2026-05-02T16:11:45.401Z</time></trkpt><trkpt lat="46.1198133" lon="12.3231283"><ele>416.0</ele><time>2026-05-02T16:11:46.4Z</time></trkpt><trkpt lat="46.119645" lon="12.3232133"><ele>412.0</ele><time>2026-05-02T16:11:47.401Z</time></trkpt><trkpt lat="46.1194867" lon="12.3233"><ele>408.0</ele><time>2026-05-02T16:11:48.401Z</time></trkpt><trkpt lat="46.1193367" lon="12.3233883"><ele>408.0</ele><time>2026-05-02T16:11:49.401Z</time></trkpt><trkpt lat="46.11917" lon="12.3234717"><ele>408.0</ele><time>2026-05-02T16:11:50.401Z</time></trkpt><trkpt lat="46.1189933" lon="12.3235317"><ele>408.0</ele><time>2026-05-02T16:11:51.401Z</time></trkpt><trkpt lat="46.1188117" lon="12.3235783"><ele>411.66666666666663</ele><time>2026-05-02T16:11:52.401Z</time></trkpt><trkpt lat="46.118615" lon="12.3236067"><ele>415.3333333333333</ele><time>2026-05-02T16:11:53.401Z</time></trkpt><trkpt lat="46.118415" lon="12.3236217"><ele>419.0</ele><time>2026-05-02T16:11:54.401Z</time></trkpt><trkpt lat="46.11821" lon="12.3236617"><ele>421.3333333333333</ele><time>2026-05-02T16:11:55.4Z</time></trkpt><trkpt lat="46.1180083" lon="12.3237117"><ele>423.66666666666663</ele><time>2026-05-02T16:11:56.401Z</time></trkpt><trkpt lat="46.1178083" lon="12.3237733"><ele>426.0</ele><time>2026-05-02T16:11:57.401Z</time></trkpt><trkpt lat="46.117605" lon="12.3238283"><ele>426.0</ele><time>2026-05-02T16:11:58.401Z</time></trkpt><trkpt lat="46.11741" lon="12.3238783"><ele>426.0</ele><time>2026-05-02T16:11:59.401Z</time></trkpt><trkpt lat="46.1172233" lon="12.323925"><ele>426.0</ele><time>2026-05-02T16:12:00.401Z</time></trkpt><trkpt lat="46.1170383" lon="12.3239833"><ele>421.66666666666663</ele><time>2026-05-02T16:12:01.401Z</time></trkpt><trkpt lat="46.1168317" lon="12.324055"><ele>417.3333333333333</ele><time>2026-05-02T16:12:02.401Z</time></trkpt><trkpt lat="46.1166217" lon="12.3241533"><ele>413.0</ele><time>2026-05-02T16:12:03.4Z</time></trkpt><trkpt lat="46.1164167" lon="12.3242467"><ele>413.0</ele><time>2026-05-02T16:12:04.401Z</time></trkpt><trkpt lat="46.1162217" lon="12.3243633"><ele>413.0</ele><time>2026-05-02T16:12:05.401Z</time></trkpt><trkpt lat="46.1160333" lon="12.3244567"><ele>413.0</ele><time>2026-05-02T16:12:06.4Z</time></trkpt><trkpt lat="46.1158617" lon="12.3245433"><ele>412.0</ele><time>2026-05-02T16:12:07.4Z</time></trkpt><trkpt lat="46.1157" lon="12.32464"><ele>411.0</ele><time>2026-05-02T16:12:08.401Z</time></trkpt><trkpt lat="46.1155567" lon="12.32472"><ele>410.0</ele><time>2026-05-02T16:12:09.401Z</time></trkpt><trkpt lat="46.1154183" lon="12.3248033"><ele>410.0</ele><time>2026-05-02T16:12:10.4Z</time></trkpt><trkpt lat="46.1152933" lon="12.3248983"><ele>410.0</ele><time>2026-05-02T16:12:11.401Z</time></trkpt><trkpt lat="46.1151933" lon="12.325"><ele>410.0</ele><time>2026-05-02T16:12:12.4Z</time></trkpt><trkpt lat="46.1151083" lon="12.325125"><ele>410.0</ele><time>2026-05-02T16:12:13.401Z</time></trkpt><trkpt lat="46.1150417" lon="12.3252567"><ele>410.0</ele><time>2026-05-02T16:12:14.401Z</time></trkpt><trkpt lat="46.1149717" lon="12.3254067"><ele>410.0</ele><time>2026-05-02T16:12:15.401Z</time></trkpt><trkpt lat="46.1148917" lon="12.325555"><ele>410.0</ele><time>2026-05-02T16:12:16.401Z</time></trkpt><trkpt lat="46.114795" lon="12.3256867"><ele>410.0</ele><time>2026-05-02T16:12:17.4Z</time></trkpt><trkpt lat="46.1146817" lon="12.3258017"><ele>410.0</ele><time>2026-05-02T16:12:18.401Z</time></trkpt><trkpt lat="46.1145617" lon="12.3258967"><ele>410.0</ele><time>2026-05-02T16:12:19.401Z</time></trkpt><trkpt lat="46.1144217" lon="12.325975"><ele>410.0</ele><time>2026-05-02T16:12:20.401Z</time></trkpt><trkpt lat="46.1142633" lon="12.3260267"><ele>410.0</ele><time>2026-05-02T16:12:21.4Z</time></trkpt><trkpt lat="46.1140833" lon="12.3260667"><ele>411.3333333333333</ele><time>2026-05-02T16:12:22.401Z</time></trkpt><trkpt lat="46.1139" lon="12.3261"><ele>412.66666666666663</ele><time>2026-05-02T16:12:23.401Z</time></trkpt><trkpt lat="46.1137133" lon="12.3261417"><ele>414.0</ele><time>2026-05-02T16:12:24.4Z</time></trkpt><trkpt lat="46.113535" lon="12.32617"><ele>414.0</ele><time>2026-05-02T16:12:25.401Z</time></trkpt><trkpt lat="46.1133533" lon="12.3261883"><ele>414.0</ele><time>2026-05-02T16:12:26.401Z</time></trkpt><trkpt lat="46.11317" lon="12.3261917"><ele>414.0</ele><time>2026-05-02T16:12:27.401Z</time></trkpt><trkpt lat="46.1129883" lon="12.326165"><ele>413.0</ele><time>2026-05-02T16:12:28.401Z</time></trkpt><trkpt lat="46.11279" lon="12.3261067"><ele>412.0</ele><time>2026-05-02T16:12:29.401Z</time></trkpt><trkpt lat="46.112595" lon="12.3260283"><ele>411.0</ele><time>2026-05-02T16:12:30.401Z</time></trkpt><trkpt lat="46.1123917" lon="12.3259633"><ele>408.33333333333337</ele><time>2026-05-02T16:12:31.401Z</time></trkpt><trkpt lat="46.1121833" lon="12.32591"><ele>405.6666666666667</ele><time>2026-05-02T16:12:32.401Z</time></trkpt><trkpt lat="46.111975" lon="12.3258467"><ele>403.0</ele><time>2026-05-02T16:12:33.401Z</time></trkpt><trkpt lat="46.11177" lon="12.3258267"><ele>404.6666666666667</ele><time>2026-05-02T16:12:34.401Z</time></trkpt><trkpt lat="46.1115617" lon="12.325845"><ele>406.33333333333337</ele><time>2026-05-02T16:12:35.401Z</time></trkpt><trkpt lat="46.1113567" lon="12.3259017"><ele>408.0</ele><time>2026-05-02T16:12:36.401Z</time></trkpt><trkpt lat="46.1111583" lon="12.325985"><ele>408.0</ele><time>2026-05-02T16:12:37.401Z</time></trkpt><trkpt lat="46.110955" lon="12.3260933"><ele>408.0</ele><time>2026-05-02T16:12:38.4Z</time></trkpt><trkpt lat="46.1107567" lon="12.3262233"><ele>408.0</ele><time>2026-05-02T16:12:39.401Z</time></trkpt><trkpt lat="46.110555" lon="12.326345"><ele>404.33333333333337</ele><time>2026-05-02T16:12:40.4Z</time></trkpt><trkpt lat="46.1103567" lon="12.3264817"><ele>400.6666666666667</ele><time>2026-05-02T16:12:41.401Z</time></trkpt><trkpt lat="46.11016" lon="12.3266317"><ele>397.0</ele><time>2026-05-02T16:12:42.401Z</time></trkpt><trkpt lat="46.1099817" lon="12.3267767"><ele>395.33333333333337</ele><time>2026-05-02T16:12:43.401Z</time></trkpt><trkpt lat="46.1098" lon="12.32695"><ele>393.66666666666663</ele><time>2026-05-02T16:12:44.4Z</time></trkpt><trkpt lat="46.109615" lon="12.3271217"><ele>392.0</ele><time>2026-05-02T16:12:45.401Z</time></trkpt><trkpt lat="46.1094283" lon="12.3272783"><ele>392.0</ele><time>2026-05-02T16:12:46.401Z</time></trkpt><trkpt lat="46.1092433" lon="12.327415"><ele>392.0</ele><time>2026-05-02T16:12:47.4Z</time></trkpt><trkpt lat="46.109055" lon="12.32755"><ele>392.0</ele><time>2026-05-02T16:12:48.401Z</time></trkpt><trkpt lat="46.1088567" lon="12.3276617"><ele>396.66666666666663</ele><time>2026-05-02T16:12:49.4Z</time></trkpt><trkpt lat="46.10866" lon="12.3277267"><ele>401.33333333333337</ele><time>2026-05-02T16:12:50.401Z</time></trkpt><trkpt lat="46.10846" lon="12.327735"><ele>406.0</ele><time>2026-05-02T16:12:51.401Z</time></trkpt><trkpt lat="46.1082533" lon="12.32772"><ele>405.33333333333337</ele><time>2026-05-02T16:12:52.401Z</time></trkpt><trkpt lat="46.1080533" lon="12.3277133"><ele>404.66666666666663</ele><time>2026-05-02T16:12:53.401Z</time></trkpt><trkpt lat="46.107865" lon="12.3277833"><ele>404.0</ele><time>2026-05-02T16:12:54.4Z</time></trkpt><trkpt lat="46.1076967" lon="12.3278767"><ele>404.0</ele><time>2026-05-02T16:12:55.401Z</time></trkpt><trkpt lat="46.1075183" lon="12.3279767"><ele>404.0</ele><time>2026-05-02T16:12:56.4Z</time></trkpt><trkpt lat="46.1073317" lon="12.32805"><ele>404.0</ele><time>2026-05-02T16:12:57.401Z</time></trkpt><trkpt lat="46.10714" lon="12.328105"><ele>399.3333333333333</ele><time>2026-05-02T16:12:58.401Z</time></trkpt><trkpt lat="46.1069583" lon="12.3281233"><ele>394.66666666666663</ele><time>2026-05-02T16:12:59.401Z</time></trkpt><trkpt lat="46.1067717" lon="12.3281283"><ele>390.0</ele><time>2026-05-02T16:13:00.401Z</time></trkpt><trkpt lat="46.1065867" lon="12.3281583"><ele>391.66666666666663</ele><time>2026-05-02T16:13:01.401Z</time></trkpt><trkpt lat="46.1063967" lon="12.3281883"><ele>393.3333333333333</ele><time>2026-05-02T16:13:02.4Z</time></trkpt><trkpt lat="46.1062067" lon="12.328195"><ele>395.0</ele><time>2026-05-02T16:13:03.401Z</time></trkpt><trkpt lat="46.106025" lon="12.3281783"><ele>395.0</ele><time>2026-05-02T16:13:04.401Z</time></trkpt><trkpt lat="46.1058483" lon="12.3281417"><ele>395.0</ele><time>2026-05-02T16:13:05.4Z</time></trkpt><trkpt lat="46.1056717" lon="12.328095"><ele>395.0</ele><time>2026-05-02T16:13:06.401Z</time></trkpt><trkpt lat="46.105495" lon="12.328055"><ele>404.3333333333333</ele><time>2026-05-02T16:13:07.4Z</time></trkpt><trkpt lat="46.105325" lon="12.3280033"><ele>413.66666666666663</ele><time>2026-05-02T16:13:08.401Z</time></trkpt><trkpt lat="46.1051567" lon="12.32792"><ele>423.0</ele><time>2026-05-02T16:13:09.4Z</time></trkpt><trkpt lat="46.1049867" lon="12.327835"><ele>414.0</ele><time>2026-05-02T16:13:10.401Z</time></trkpt><trkpt lat="46.10481" lon="12.3277533"><ele>405.0</ele><time>2026-05-02T16:13:11.401Z</time></trkpt><trkpt lat="46.104625" lon="12.327675"><ele>396.0</ele><time>2026-05-02T16:13:12.401Z</time></trkpt><trkpt lat="46.1044283" lon="12.32758"><ele>396.0</ele><time>2026-05-02T16:13:13.401Z</time></trkpt><trkpt lat="46.10422" lon="12.3274917"><ele>396.0</ele><time>2026-05-02T16:13:14.401Z</time></trkpt><trkpt lat="46.1040333" lon="12.3273483"><ele>396.0</ele><time>2026-05-02T16:13:15.401Z</time></trkpt><trkpt lat="46.10386" lon="12.327195"><ele>400.0</ele><time>2026-05-02T16:13:16.4Z</time></trkpt><trkpt lat="46.1036917" lon="12.3270533"><ele>404.0</ele><time>2026-05-02T16:13:17.4Z</time></trkpt><trkpt lat="46.10351" lon="12.3269167"><ele>408.0</ele><time>2026-05-02T16:13:18.401Z</time></trkpt><trkpt lat="46.1033183" lon="12.3268117"><ele>405.66666666666663</ele><time>2026-05-02T16:13:19.401Z</time></trkpt><trkpt lat="46.1031283" lon="12.326725"><ele>403.3333333333333</ele><time>2026-05-02T16:13:20.401Z</time></trkpt><trkpt lat="46.1029417" lon="12.326645"><ele>401.0</ele><time>2026-05-02T16:13:21.401Z</time></trkpt><trkpt lat="46.1027533" lon="12.3265767"><ele>401.0</ele><time>2026-05-02T16:13:22.401Z</time></trkpt><trkpt lat="46.102545" lon="12.3265383"><ele>401.0</ele><time>2026-05-02T16:13:23.401Z</time></trkpt><trkpt lat="46.1023467" lon="12.3264883"><ele>401.0</ele><time>2026-05-02T16:13:24.401Z</time></trkpt><trkpt lat="46.1021533" lon="12.3264283"><ele>405.66666666666663</ele><time>2026-05-02T16:13:25.401Z</time></trkpt><trkpt lat="46.1019733" lon="12.3263833"><ele>410.33333333333337</ele><time>2026-05-02T16:13:26.401Z</time></trkpt><trkpt lat="46.10179" lon="12.326335"><ele>415.0</ele><time>2026-05-02T16:13:27.401Z</time></trkpt><trkpt lat="46.1016017" lon="12.3262917"><ele>414.6666666666667</ele><time>2026-05-02T16:13:28.401Z</time></trkpt><trkpt lat="46.1014133" lon="12.32625"><ele>414.33333333333337</ele><time>2026-05-02T16:13:29.401Z</time></trkpt><trkpt lat="46.10121" lon="12.3262083"><ele>414.0</ele><time>2026-05-02T16:13:30.4Z</time></trkpt><trkpt lat="46.100985" lon="12.3261783"><ele>414.0</ele><time>2026-05-02T16:13:31.401Z</time></trkpt><trkpt lat="46.1007517" lon="12.3261517"><ele>414.0</ele><time>2026-05-02T16:13:32.401Z</time></trkpt><trkpt lat="46.100505" lon="12.3261433"><ele>412.0</ele><time>2026-05-02T16:13:33.401Z</time></trkpt><trkpt lat="46.1002617" lon="12.32611"><ele>410.0</ele><time>2026-05-02T16:13:34.401Z</time></trkpt><trkpt lat="46.0999983" lon="12.3260883"><ele>407.5</ele><time>2026-05-02T16:13:35.401Z</time></trkpt><trkpt lat="46.0997317" lon="12.3260567"><ele>405.0</ele><time>2026-05-02T16:13:36.4Z</time></trkpt><trkpt lat="46.0994433" lon="12.3260317"><ele>405.0</ele><time>2026-05-02T16:13:37.401Z</time></trkpt><trkpt lat="46.0991517" lon="12.3260017"><ele>405.0</ele><time>2026-05-02T16:13:38.401Z</time></trkpt><trkpt lat="46.0988667" lon="12.32597"><ele>407.0</ele><time>2026-05-02T16:13:39.4Z</time></trkpt><trkpt lat="46.0986" lon="12.3259217"><ele>409.0</ele><time>2026-05-02T16:13:40.401Z</time></trkpt><trkpt lat="46.0983567" lon="12.32587"><ele>404.5</ele><time>2026-05-02T16:13:41.401Z</time></trkpt><trkpt lat="46.0981233" lon="12.325815"><ele>400.0</ele><time>2026-05-02T16:13:42.401Z</time></trkpt><trkpt lat="46.0978933" lon="12.3257717"><ele>400.0</ele><time>2026-05-02T16:13:43.401Z</time></trkpt><trkpt lat="46.0976733" lon="12.32573"><ele>400.0</ele><time>2026-05-02T16:13:44.4Z</time></trkpt><trkpt lat="46.09746" lon="12.325685"><ele>400.0</ele><time>2026-05-02T16:13:45.401Z</time></trkpt><trkpt lat="46.0972483" lon="12.3256367"><ele>400.33333333333337</ele><time>2026-05-02T16:13:46.401Z</time></trkpt><trkpt lat="46.0970417" lon="12.3255917"><ele>400.66666666666663</ele><time>2026-05-02T16:13:47.4Z</time></trkpt><trkpt lat="46.0968367" lon="12.3255783"><ele>401.0</ele><time>2026-05-02T16:13:48.401Z</time></trkpt><trkpt lat="46.0966233" lon="12.3255917"><ele>405.3333333333333</ele><time>2026-05-02T16:13:49.401Z</time></trkpt><trkpt lat="46.0964233" lon="12.3256617"><ele>409.66666666666663</ele><time>2026-05-02T16:13:50.4Z</time></trkpt><trkpt lat="46.0962283" lon="12.3257617"><ele>414.0</ele><time>2026-05-02T16:13:51.401Z</time></trkpt><trkpt lat="46.0960233" lon="12.3258983"><ele>414.0</ele><time>2026-05-02T16:13:52.401Z</time></trkpt><trkpt lat="46.095835" lon="12.3260117"><ele>414.0</ele><time>2026-05-02T16:13:53.4Z</time></trkpt><trkpt lat="46.0956433" lon="12.326125"><ele>414.0</ele><time>2026-05-02T16:13:54.401Z</time></trkpt><trkpt lat="46.0954483" lon="12.32623"><ele>415.33333333333337</ele><time>2026-05-02T16:13:55.401Z</time></trkpt><trkpt lat="46.0952733" lon="12.3263083"><ele>416.6666666666667</ele><time>2026-05-02T16:13:56.401Z</time></trkpt><trkpt lat="46.0950933" lon="12.32638"><ele>418.0</ele><time>2026-05-02T16:13:57.401Z</time></trkpt><trkpt lat="46.0949283" lon="12.3264567"><ele>417.6666666666667</ele><time>2026-05-02T16:13:58.401Z</time></trkpt><trkpt lat="46.0947717" lon="12.3265617"><ele>417.33333333333337</ele><time>2026-05-02T16:13:59.401Z</time></trkpt><trkpt lat="46.0946217" lon="12.32671"><ele>417.0</ele><time>2026-05-02T16:14:00.4Z</time></trkpt><trkpt lat="46.0945" lon="12.3268783"><ele>417.0</ele><time>2026-05-02T16:14:01.401Z</time></trkpt><trkpt lat="46.0944017" lon="12.32709"><ele>417.0</ele><time>2026-05-02T16:14:02.401Z</time></trkpt><trkpt lat="46.0943033" lon="12.3272983"><ele>417.0</ele><time>2026-05-02T16:14:03.4Z</time></trkpt><trkpt lat="46.094205" lon="12.3274933"><ele>416.5</ele><time>2026-05-02T16:14:04.401Z</time></trkpt><trkpt lat="46.0941117" lon="12.3276717"><ele>416.0</ele><time>2026-05-02T16:14:05.401Z</time></trkpt><trkpt lat="46.0940267" lon="12.327845"><ele>415.5</ele><time>2026-05-02T16:14:06.401Z</time></trkpt><trkpt lat="46.093945" lon="12.328005"><ele>415.0</ele><time>2026-05-02T16:14:07.401Z</time></trkpt><trkpt lat="46.093865" lon="12.3281633"><ele>415.0</ele><time>2026-05-02T16:14:08.4Z</time></trkpt><trkpt lat="46.093775" lon="12.3283533"><ele>415.0</ele><time>2026-05-02T16:14:09.401Z</time></trkpt><trkpt lat="46.09367" lon="12.328565"><ele>415.0</ele><time>2026-05-02T16:14:10.401Z</time></trkpt><trkpt lat="46.0935617" lon="12.3287817"><ele>416.0</ele><time>2026-05-02T16:14:11.4Z</time></trkpt><trkpt lat="46.0934633" lon="12.3289683"><ele>417.0</ele><time>2026-05-02T16:14:12.4Z</time></trkpt><trkpt lat="46.0933617" lon="12.3291317"><ele>418.0</ele><time>2026-05-02T16:14:13.4Z</time></trkpt><trkpt lat="46.0932367" lon="12.329275"><ele>418.0</ele><time>2026-05-02T16:14:14.401Z</time></trkpt><trkpt lat="46.0930867" lon="12.32939"><ele>418.0</ele><time>2026-05-02T16:14:15.401Z</time></trkpt><trkpt lat="46.092935" lon="12.3294783"><ele>418.0</ele><time>2026-05-02T16:14:16.4Z</time></trkpt><trkpt lat="46.092795" lon="12.32955"><ele>418.0</ele><time>2026-05-02T16:14:17.4Z</time></trkpt><trkpt lat="46.09266" lon="12.3296383"><ele>418.0</ele><time>2026-05-02T16:14:18.4Z</time></trkpt><trkpt lat="46.0925317" lon="12.3297383"><ele>418.0</ele><time>2026-05-02T16:14:19.401Z</time></trkpt><trkpt lat="46.0924083" lon="12.32986"><ele>418.0</ele><time>2026-05-02T16:14:20.401Z</time></trkpt><trkpt lat="46.0922917" lon="12.33"><ele>420.5</ele><time>2026-05-02T16:14:21.401Z</time></trkpt><trkpt lat="46.0921867" lon="12.3301517"><ele>423.0</ele><time>2026-05-02T16:14:22.4Z</time></trkpt><trkpt lat="46.0920983" lon="12.330305"><ele>425.5</ele><time>2026-05-02T16:14:23.401Z</time></trkpt><trkpt lat="46.0920267" lon="12.3304867"><ele>428.0</ele><time>2026-05-02T16:14:24.401Z</time></trkpt><trkpt lat="46.0919717" lon="12.3306883"><ele>428.0</ele><time>2026-05-02T16:14:25.401Z</time></trkpt><trkpt lat="46.09194" lon="12.33091"><ele>428.0</ele><time>2026-05-02T16:14:26.4Z</time></trkpt><trkpt lat="46.0919033" lon="12.3311467"><ele>428.0</ele><time>2026-05-02T16:14:27.401Z</time></trkpt><trkpt lat="46.09187" lon="12.3313783"><ele>427.3333333333333</ele><time>2026-05-02T16:14:28.401Z</time></trkpt><trkpt lat="46.09182" lon="12.331595"><ele>426.66666666666663</ele><time>2026-05-02T16:14:29.401Z</time></trkpt><trkpt lat="46.09174" lon="12.3317967"><ele>426.0</ele><time>2026-05-02T16:14:30.401Z</time></trkpt><trkpt lat="46.0916367" lon="12.331985"><ele>430.33333333333337</ele><time>2026-05-02T16:14:31.401Z</time></trkpt><trkpt lat="46.0915267" lon="12.332165"><ele>434.6666666666667</ele><time>2026-05-02T16:14:32.401Z</time></trkpt><trkpt lat="46.0914267" lon="12.3323283"><ele>439.0</ele><time>2026-05-02T16:14:33.401Z</time></trkpt><trkpt lat="46.0913183" lon="12.3325"><ele>439.0</ele><time>2026-05-02T16:14:34.4Z</time></trkpt><trkpt lat="46.091205" lon="12.3326717"><ele>439.0</ele><time>2026-05-02T16:14:35.4Z</time></trkpt><trkpt lat="46.0910767" lon="12.3328433"><ele>439.0</ele><time>2026-05-02T16:14:36.401Z</time></trkpt><trkpt lat="46.090945" lon="12.3330083"><ele>441.0</ele><time>2026-05-02T16:14:37.4Z</time></trkpt><trkpt lat="46.0908033" lon="12.3331567"><ele>443.0</ele><time>2026-05-02T16:14:38.401Z</time></trkpt><trkpt lat="46.0906767" lon="12.3332933"><ele>445.0</ele><time>2026-05-02T16:14:39.401Z</time></trkpt><trkpt lat="46.0905433" lon="12.333415"><ele>445.0</ele><time>2026-05-02T16:14:40.401Z</time></trkpt><trkpt lat="46.0904267" lon="12.333505"><ele>445.0</ele><time>2026-05-02T16:14:41.401Z</time></trkpt><trkpt lat="46.0903033" lon="12.33356"><ele>445.0</ele><time>2026-05-02T16:14:42.401Z</time></trkpt><trkpt lat="46.0901833" lon="12.3335783"><ele>445.0</ele><time>2026-05-02T16:14:43.401Z</time></trkpt><trkpt lat="46.0900817" lon="12.3336467"><ele>445.0</ele><time>2026-05-02T16:14:44.401Z</time></trkpt><trkpt lat="46.090005" lon="12.3337383"><ele>445.0</ele><time>2026-05-02T16:14:45.401Z</time></trkpt><trkpt lat="46.0899617" lon="12.3338633"><ele>445.0</ele><time>2026-05-02T16:14:46.401Z</time></trkpt><trkpt lat="46.0899483" lon="12.33404"><ele>445.0</ele><time>2026-05-02T16:14:47.401Z</time></trkpt><trkpt lat="46.089965" lon="12.3342567"><ele>441.25</ele><time>2026-05-02T16:14:48.401Z</time></trkpt><trkpt lat="46.0899917" lon="12.3344567"><ele>437.5</ele><time>2026-05-02T16:14:49.401Z</time></trkpt><trkpt lat="46.0900033" lon="12.3346383"><ele>433.75</ele><time>2026-05-02T16:14:50.401Z</time></trkpt><trkpt lat="46.0899817" lon="12.334785"><ele>430.0</ele><time>2026-05-02T16:14:51.401Z</time></trkpt><trkpt lat="46.0899233" lon="12.33488"><ele>430.0</ele><time>2026-05-02T16:14:52.401Z</time></trkpt><trkpt lat="46.08984" lon="12.3349267"><ele>430.0</ele><time>2026-05-02T16:14:53.401Z</time></trkpt><trkpt lat="46.089735" lon="12.3349083"><ele>430.0</ele><time>2026-05-02T16:14:54.401Z</time></trkpt><trkpt lat="46.0896067" lon="12.3348333"><ele>430.0</ele><time>2026-05-02T16:14:55.401Z</time></trkpt><trkpt lat="46.0894517" lon="12.3347117"><ele>432.0</ele><time>2026-05-02T16:14:56.401Z</time></trkpt><trkpt lat="46.0893" lon="12.3345917"><ele>434.0</ele><time>2026-05-02T16:14:57.4Z</time></trkpt><trkpt lat="46.0891433" lon="12.33447"><ele>436.0</ele><time>2026-05-02T16:14:58.401Z</time></trkpt><trkpt lat="46.0889817" lon="12.334325"><ele>436.0</ele><time>2026-05-02T16:14:59.4Z</time></trkpt><trkpt lat="46.0888467" lon="12.33418"><ele>436.0</ele><time>2026-05-02T16:15:00.401Z</time></trkpt><trkpt lat="46.0887183" lon="12.3340367"><ele>436.0</ele><time>2026-05-02T16:15:01.401Z</time></trkpt><trkpt lat="46.0885917" lon="12.3339333"><ele>441.6666666666667</ele><time>2026-05-02T16:15:02.4Z</time></trkpt><trkpt lat="46.0884483" lon="12.3338833"><ele>447.33333333333337</ele><time>2026-05-02T16:15:03.401Z</time></trkpt><trkpt lat="46.0882867" lon="12.33387"><ele>453.0</ele><time>2026-05-02T16:15:04.401Z</time></trkpt><trkpt lat="46.088115" lon="12.33387"><ele>454.25</ele><time>2026-05-02T16:15:05.401Z</time></trkpt><trkpt lat="46.0879567" lon="12.33388"><ele>455.5</ele><time>2026-05-02T16:15:06.401Z</time></trkpt><trkpt lat="46.087815" lon="12.333875"><ele>456.75</ele><time>2026-05-02T16:15:07.401Z</time></trkpt><trkpt lat="46.087685" lon="12.333875"><ele>458.0</ele><time>2026-05-02T16:15:08.4Z</time></trkpt><trkpt lat="46.087545" lon="12.333865"><ele>459.25</ele><time>2026-05-02T16:15:09.401Z</time></trkpt><trkpt lat="46.0874067" lon="12.3338517"><ele>460.5</ele><time>2026-05-02T16:15:10.401Z</time></trkpt><trkpt lat="46.087265" lon="12.333835"><ele>461.75</ele><time>2026-05-02T16:15:11.401Z</time></trkpt><trkpt lat="46.0871283" lon="12.3338217"><ele>463.0</ele><time>2026-05-02T16:15:12.4Z</time></trkpt><trkpt lat="46.08699" lon="12.3338133"><ele>463.0</ele><time>2026-05-02T16:15:13.401Z</time></trkpt><trkpt lat="46.0868483" lon="12.3338133"><ele>463.0</ele><time>2026-05-02T16:15:14.401Z</time></trkpt><trkpt lat="46.0867033" lon="12.3338267"><ele>463.0</ele><time>2026-05-02T16:15:15.4Z</time></trkpt><trkpt lat="46.0865633" lon="12.33386"><ele>463.0</ele><time>2026-05-02T16:15:16.401Z</time></trkpt><trkpt lat="46.086415" lon="12.3339333"><ele>463.33333333333337</ele><time>2026-05-02T16:15:17.401Z</time></trkpt><trkpt lat="46.0862817" lon="12.33403"><ele>463.66666666666663</ele><time>2026-05-02T16:15:18.401Z</time></trkpt><trkpt lat="46.08616" lon="12.334165"><ele>464.0</ele><time>2026-05-02T16:15:19.401Z</time></trkpt><trkpt lat="46.08604" lon="12.33433"><ele>464.0</ele><time>2026-05-02T16:15:20.401Z</time></trkpt><trkpt lat="46.0859433" lon="12.334525"><ele>464.0</ele><time>2026-05-02T16:15:21.4Z</time></trkpt><trkpt lat="46.0858683" lon="12.33474"><ele>464.0</ele><time>2026-05-02T16:15:22.401Z</time></trkpt><trkpt lat="46.08581" lon="12.3349683"><ele>461.3333333333333</ele><time>2026-05-02T16:15:23.401Z</time></trkpt><trkpt lat="46.0857833" lon="12.3352067"><ele>458.66666666666663</ele><time>2026-05-02T16:15:24.401Z</time></trkpt><trkpt lat="46.085775" lon="12.3354517"><ele>456.0</ele><time>2026-05-02T16:15:25.4Z</time></trkpt><trkpt lat="46.0857883" lon="12.3357"><ele>455.0</ele><time>2026-05-02T16:15:26.401Z</time></trkpt><trkpt lat="46.0858283" lon="12.3359483"><ele>454.0</ele><time>2026-05-02T16:15:27.401Z</time></trkpt><trkpt lat="46.085875" lon="12.3361917"><ele>453.0</ele><time>2026-05-02T16:15:28.4Z</time></trkpt><trkpt lat="46.0859133" lon="12.3364217"><ele>453.0</ele><time>2026-05-02T16:15:29.4Z</time></trkpt><trkpt lat="46.08593" lon="12.3366283"><ele>453.0</ele><time>2026-05-02T16:15:30.401Z</time></trkpt><trkpt lat="46.0859317" lon="12.336825"><ele>453.0</ele><time>2026-05-02T16:15:31.4Z</time></trkpt><trkpt lat="46.085905" lon="12.3370117"><ele>453.0</ele><time>2026-05-02T16:15:32.401Z</time></trkpt><trkpt lat="46.085865" lon="12.3371667"><ele>455.25</ele><time>2026-05-02T16:15:33.401Z</time></trkpt><trkpt lat="46.0857967" lon="12.3372967"><ele>457.5</ele><time>2026-05-02T16:15:34.401Z</time></trkpt><trkpt lat="46.0856967" lon="12.3374"><ele>459.75</ele><time>2026-05-02T16:15:35.4Z</time></trkpt><trkpt lat="46.0855667" lon="12.3374683"><ele>462.0</ele><time>2026-05-02T16:15:36.401Z</time></trkpt><trkpt lat="46.0854383" lon="12.3374933"><ele>463.0</ele><time>2026-05-02T16:15:37.4Z</time></trkpt><trkpt lat="46.0853033" lon="12.3374617"><ele>464.0</ele><time>2026-05-02T16:15:38.401Z</time></trkpt><trkpt lat="46.08517" lon="12.3373933"><ele>465.0</ele><time>2026-05-02T16:15:39.4Z</time></trkpt><trkpt lat="46.0850517" lon="12.3372717"><ele>466.0</ele><time>2026-05-02T16:15:40.401Z</time></trkpt><trkpt lat="46.0849367" lon="12.337095"><ele>472.6666666666667</ele><time>2026-05-02T16:15:41.401Z</time></trkpt><trkpt lat="46.0848183" lon="12.3369183"><ele>479.33333333333337</ele><time>2026-05-02T16:15:42.401Z</time></trkpt><trkpt lat="46.08471" lon="12.3367367"><ele>486.0</ele><time>2026-05-02T16:15:43.401Z</time></trkpt><trkpt lat="46.0846017" lon="12.33656"><ele>486.0</ele><time>2026-05-02T16:15:44.4Z</time></trkpt><trkpt lat="46.084495" lon="12.336395"><ele>486.0</ele><time>2026-05-02T16:15:45.401Z</time></trkpt><trkpt lat="46.084395" lon="12.336235"><ele>486.0</ele><time>2026-05-02T16:15:46.401Z</time></trkpt><trkpt lat="46.08429" lon="12.3360917"><ele>485.5</ele><time>2026-05-02T16:15:47.401Z</time></trkpt><trkpt lat="46.084175" lon="12.3359817"><ele>485.0</ele><time>2026-05-02T16:15:48.401Z</time></trkpt><trkpt lat="46.0840533" lon="12.3358967"><ele>484.5</ele><time>2026-05-02T16:15:49.4Z</time></trkpt><trkpt lat="46.0839367" lon="12.3358333"><ele>484.0</ele><time>2026-05-02T16:15:50.4Z</time></trkpt><trkpt lat="46.0838117" lon="12.33579"><ele>484.0</ele><time>2026-05-02T16:15:51.401Z</time></trkpt><trkpt lat="46.0836783" lon="12.3357617"><ele>484.0</ele><time>2026-05-02T16:15:52.401Z</time></trkpt><trkpt lat="46.083535" lon="12.3357467"><ele>484.0</ele><time>2026-05-02T16:15:53.401Z</time></trkpt><trkpt lat="46.0833783" lon="12.3357333"><ele>484.0</ele><time>2026-05-02T16:15:54.4Z</time></trkpt><trkpt lat="46.0832317" lon="12.33572"><ele>486.0</ele><time>2026-05-02T16:15:55.401Z</time></trkpt><trkpt lat="46.0830683" lon="12.3357167"><ele>488.0</ele><time>2026-05-02T16:15:56.401Z</time></trkpt><trkpt lat="46.0829083" lon="12.3357267"><ele>490.0</ele><time>2026-05-02T16:15:57.401Z</time></trkpt><trkpt lat="46.0827417" lon="12.3357617"><ele>490.0</ele><time>2026-05-02T16:15:58.401Z</time></trkpt><trkpt lat="46.0825817" lon="12.3357917"><ele>490.0</ele><time>2026-05-02T16:15:59.4Z</time></trkpt><trkpt lat="46.08241" lon="12.3358383"><ele>490.0</ele><time>2026-05-02T16:16:00.4Z</time></trkpt><trkpt lat="46.082245" lon="12.3358967"><ele>492.0</ele><time>2026-05-02T16:16:01.401Z</time></trkpt><trkpt lat="46.0820833" lon="12.3359583"><ele>494.0</ele><time>2026-05-02T16:16:02.401Z</time></trkpt><trkpt lat="46.0819233" lon="12.3360283"><ele>496.0</ele><time>2026-05-02T16:16:03.401Z</time></trkpt><trkpt lat="46.0817667" lon="12.3360883"><ele>498.33333333333337</ele><time>2026-05-02T16:16:04.401Z</time></trkpt><trkpt lat="46.0815933" lon="12.3361467"><ele>500.66666666666663</ele><time>2026-05-02T16:16:05.401Z</time></trkpt><trkpt lat="46.08141" lon="12.3362117"><ele>503.0</ele><time>2026-05-02T16:16:06.4Z</time></trkpt><trkpt lat="46.08122" lon="12.3362783"><ele>503.0</ele><time>2026-05-02T16:16:07.401Z</time></trkpt><trkpt lat="46.08103" lon="12.3363517"><ele>503.0</ele><time>2026-05-02T16:16:08.401Z</time></trkpt><trkpt lat="46.0808433" lon="12.3364267"><ele>503.0</ele><time>2026-05-02T16:16:09.4Z</time></trkpt><trkpt lat="46.080665" lon="12.3364933"><ele>499.66666666666663</ele><time>2026-05-02T16:16:10.401Z</time></trkpt><trkpt lat="46.08049" lon="12.33656"><ele>496.33333333333337</ele><time>2026-05-02T16:16:11.401Z</time></trkpt><trkpt lat="46.0803233" lon="12.336625"><ele>493.0</ele><time>2026-05-02T16:16:12.401Z</time></trkpt><trkpt lat="46.0801683" lon="12.336685"><ele>493.0</ele><time>2026-05-02T16:16:13.401Z</time></trkpt><trkpt lat="46.080025" lon="12.3367133"><ele>493.0</ele><time>2026-05-02T16:16:14.4Z</time></trkpt><trkpt lat="46.0798883" lon="12.33671"><ele>493.0</ele><time>2026-05-02T16:16:15.401Z</time></trkpt><trkpt lat="46.0797567" lon="12.3366767"><ele>493.0</ele><time>2026-05-02T16:16:16.401Z</time></trkpt><trkpt lat="46.0796583" lon="12.3366067"><ele>490.0</ele><time>2026-05-02T16:16:17.401Z</time></trkpt><trkpt lat="46.0795817" lon="12.336495"><ele>487.0</ele><time>2026-05-02T16:16:18.401Z</time></trkpt><trkpt lat="46.0795117" lon="12.3363133"><ele>484.0</ele><time>2026-05-02T16:16:19.4Z</time></trkpt><trkpt lat="46.079445" lon="12.3360767"><ele>481.0</ele><time>2026-05-02T16:16:20.401Z</time></trkpt><trkpt lat="46.0793733" lon="12.3358017"><ele>482.33333333333337</ele><time>2026-05-02T16:16:21.401Z</time></trkpt><trkpt lat="46.07931" lon="12.33552"><ele>483.66666666666663</ele><time>2026-05-02T16:16:22.4Z</time></trkpt><trkpt lat="46.0792417" lon="12.3352333"><ele>485.0</ele><time>2026-05-02T16:16:23.401Z</time></trkpt><trkpt lat="46.0791733" lon="12.3349483"><ele>482.0</ele><time>2026-05-02T16:16:24.401Z</time></trkpt><trkpt lat="46.0791033" lon="12.3346767"><ele>479.0</ele><time>2026-05-02T16:16:25.401Z</time></trkpt><trkpt lat="46.079015" lon="12.3344383"><ele>476.0</ele><time>2026-05-02T16:16:26.401Z</time></trkpt><trkpt lat="46.078935" lon="12.33423"><ele>476.0</ele><time>2026-05-02T16:16:27.4Z</time></trkpt><trkpt lat="46.0788517" lon="12.3340633"><ele>476.0</ele><time>2026-05-02T16:16:28.401Z</time></trkpt><trkpt lat="46.0787733" lon="12.3339317"><ele>476.0</ele><time>2026-05-02T16:16:29.401Z</time></trkpt><trkpt lat="46.0786683" lon="12.333845"><ele>476.0</ele><time>2026-05-02T16:16:30.401Z</time></trkpt><trkpt lat="46.0785517" lon="12.3338133"><ele>476.0</ele><time>2026-05-02T16:16:31.401Z</time></trkpt><trkpt lat="46.0784217" lon="12.333835"><ele>476.0</ele><time>2026-05-02T16:16:32.401Z</time></trkpt><trkpt lat="46.0782983" lon="12.333905"><ele>476.0</ele><time>2026-05-02T16:16:33.401Z</time></trkpt><trkpt lat="46.0782067" lon="12.33402"><ele>476.0</ele><time>2026-05-02T16:16:34.401Z</time></trkpt><trkpt lat="46.0781133" lon="12.3341933"><ele>471.0</ele><time>2026-05-02T16:16:35.401Z</time></trkpt><trkpt lat="46.078025" lon="12.3344033"><ele>466.0</ele><time>2026-05-02T16:16:36.4Z</time></trkpt><trkpt lat="46.077925" lon="12.3346117"><ele>461.0</ele><time>2026-05-02T16:16:37.401Z</time></trkpt><trkpt lat="46.07785" lon="12.3347867"><ele>461.0</ele><time>2026-05-02T16:16:38.401Z</time></trkpt><trkpt lat="46.0778033" lon="12.3349383"><ele>461.0</ele><time>2026-05-02T16:16:39.4Z</time></trkpt><trkpt lat="46.0777817" lon="12.3350883"><ele>461.0</ele><time>2026-05-02T16:16:40.401Z</time></trkpt><trkpt lat="46.0778017" lon="12.3352383"><ele>461.0</ele><time>2026-05-02T16:16:41.401Z</time></trkpt><trkpt lat="46.0778733" lon="12.3354067"><ele>461.3333333333333</ele><time>2026-05-02T16:16:42.401Z</time></trkpt><trkpt lat="46.0779817" lon="12.3355933"><ele>461.66666666666663</ele><time>2026-05-02T16:16:43.401Z</time></trkpt><trkpt lat="46.0781033" lon="12.3357583"><ele>462.0</ele><time>2026-05-02T16:16:44.401Z</time></trkpt><trkpt lat="46.0782083" lon="12.335935"><ele>462.5</ele><time>2026-05-02T16:16:45.401Z</time></trkpt><trkpt lat="46.07829" lon="12.3361017"><ele>463.0</ele><time>2026-05-02T16:16:46.4Z</time></trkpt><trkpt lat="46.0783267" lon="12.33627"><ele>463.5</ele><time>2026-05-02T16:16:47.401Z</time></trkpt><trkpt lat="46.0783383" lon="12.3364283"><ele>464.0</ele><time>2026-05-02T16:16:48.401Z</time></trkpt><trkpt lat="46.078315" lon="12.3365717"><ele>461.79999999999995</ele><time>2026-05-02T16:16:49.401Z</time></trkpt><trkpt lat="46.0782667" lon="12.33669"><ele>459.59999999999997</ele><time>2026-05-02T16:16:50.401Z</time></trkpt><trkpt lat="46.078185" lon="12.3367767"><ele>457.4</ele><time>2026-05-02T16:16:51.4Z</time></trkpt><trkpt lat="46.0780867" lon="12.3368117"><ele>455.2</ele><time>2026-05-02T16:16:52.401Z</time></trkpt><trkpt lat="46.07797" lon="12.3368"><ele>453.0</ele><time>2026-05-02T16:16:53.401Z</time></trkpt><trkpt lat="46.07783" lon="12.336725"><ele>453.0</ele><time>2026-05-02T16:16:54.401Z</time></trkpt><trkpt lat="46.0776567" lon="12.3366067"><ele>453.0</ele><time>2026-05-02T16:16:55.401Z</time></trkpt><trkpt lat="46.0774733" lon="12.336485"><ele>453.0</ele><time>2026-05-02T16:16:56.401Z</time></trkpt><trkpt lat="46.0773" lon="12.3363733"><ele>450.75</ele><time>2026-05-02T16:16:57.401Z</time></trkpt><trkpt lat="46.077155" lon="12.3362583"><ele>448.5</ele><time>2026-05-02T16:16:58.401Z</time></trkpt><trkpt lat="46.0770517" lon="12.336155"><ele>446.25</ele><time>2026-05-02T16:16:59.401Z</time></trkpt><trkpt lat="46.0769767" lon="12.3360367"><ele>444.0</ele><time>2026-05-02T16:17:00.401Z</time></trkpt><trkpt lat="46.0769283" lon="12.3358783"><ele>444.0</ele><time>2026-05-02T16:17:01.401Z</time></trkpt><trkpt lat="46.0769117" lon="12.3356517"><ele>444.0</ele><time>2026-05-02T16:17:02.401Z</time></trkpt><trkpt lat="46.076915" lon="12.3353633"><ele>444.0</ele><time>2026-05-02T16:17:03.401Z</time></trkpt><trkpt lat="46.0769217" lon="12.33505"><ele>443.66666666666663</ele><time>2026-05-02T16:17:04.4Z</time></trkpt><trkpt lat="46.07691" lon="12.33476"><ele>443.3333333333333</ele><time>2026-05-02T16:17:05.401Z</time></trkpt><trkpt lat="46.0768817" lon="12.334495"><ele>443.0</ele><time>2026-05-02T16:17:06.4Z</time></trkpt><trkpt lat="46.0768217" lon="12.3342617"><ele>442.4</ele><time>2026-05-02T16:17:07.401Z</time></trkpt><trkpt lat="46.0767617" lon="12.3340717"><ele>441.79999999999995</ele><time>2026-05-02T16:17:08.401Z</time></trkpt><trkpt lat="46.0766967" lon="12.33393"><ele>441.2</ele><time>2026-05-02T16:17:09.4Z</time></trkpt><trkpt lat="46.0766217" lon="12.33385"><ele>440.6</ele><time>2026-05-02T16:17:10.401Z</time></trkpt><trkpt lat="46.076535" lon="12.33382"><ele>440.0</ele><time>2026-05-02T16:17:11.401Z</time></trkpt><trkpt lat="46.0764333" lon="12.333865"><ele>435.3333333333333</ele><time>2026-05-02T16:17:12.401Z</time></trkpt><trkpt lat="46.076325" lon="12.333975"><ele>430.66666666666663</ele><time>2026-05-02T16:17:13.401Z</time></trkpt><trkpt lat="46.0762083" lon="12.33416"><ele>426.0</ele><time>2026-05-02T16:17:14.401Z</time></trkpt><trkpt lat="46.07607" lon="12.3343967"><ele>426.0</ele><time>2026-05-02T16:17:15.4Z</time></trkpt><trkpt lat="46.07593" lon="12.3346483"><ele>426.0</ele><time>2026-05-02T16:17:16.401Z</time></trkpt><trkpt lat="46.0757917" lon="12.3349317"><ele>417.5</ele><time>2026-05-02T16:17:17.4Z</time></trkpt><trkpt lat="46.0756483" lon="12.3352283"><ele>409.0</ele><time>2026-05-02T16:17:18.401Z</time></trkpt><trkpt lat="46.0755117" lon="12.3355067"><ele>412.33333333333337</ele><time>2026-05-02T16:17:19.4Z</time></trkpt><trkpt lat="46.0753783" lon="12.3357717"><ele>415.66666666666663</ele><time>2026-05-02T16:17:20.401Z</time></trkpt><trkpt lat="46.0752567" lon="12.33603"><ele>419.0</ele><time>2026-05-02T16:17:21.401Z</time></trkpt><trkpt lat="46.0751317" lon="12.3362783"><ele>419.66666666666663</ele><time>2026-05-02T16:17:22.401Z</time></trkpt><trkpt lat="46.0750217" lon="12.3365167"><ele>420.33333333333337</ele><time>2026-05-02T16:17:23.401Z</time></trkpt><trkpt lat="46.0749283" lon="12.3367583"><ele>421.0</ele><time>2026-05-02T16:17:24.401Z</time></trkpt><trkpt lat="46.0748517" lon="12.337"><ele>416.6666666666667</ele><time>2026-05-02T16:17:25.401Z</time></trkpt><trkpt lat="46.0748017" lon="12.3372383"><ele>412.33333333333337</ele><time>2026-05-02T16:17:26.4Z</time></trkpt><trkpt lat="46.07476" lon="12.337465"><ele>408.0</ele><time>2026-05-02T16:17:27.401Z</time></trkpt><trkpt lat="46.074725" lon="12.3376467"><ele>408.0</ele><time>2026-05-02T16:17:28.401Z</time></trkpt><trkpt lat="46.0746917" lon="12.3377833"><ele>408.0</ele><time>2026-05-02T16:17:29.4Z</time></trkpt><trkpt lat="46.07462" lon="12.3379017"><ele>408.0</ele><time>2026-05-02T16:17:30.401Z</time></trkpt><trkpt lat="46.0745117" lon="12.3380033"><ele>408.0</ele><time>2026-05-02T16:17:31.401Z</time></trkpt><trkpt lat="46.0743667" lon="12.33811"><ele>410.66666666666663</ele><time>2026-05-02T16:17:32.4Z</time></trkpt><trkpt lat="46.07422" lon="12.33826"><ele>413.3333333333333</ele><time>2026-05-02T16:17:33.401Z</time></trkpt><trkpt lat="46.074095" lon="12.3384233"><ele>416.0</ele><time>2026-05-02T16:17:34.401Z</time></trkpt><trkpt lat="46.074" lon="12.3385933"><ele>411.3333333333333</ele><time>2026-05-02T16:17:35.4Z</time></trkpt><trkpt lat="46.0739183" lon="12.3388017"><ele>406.66666666666663</ele><time>2026-05-02T16:17:36.401Z</time></trkpt><trkpt lat="46.0738317" lon="12.3390367"><ele>402.0</ele><time>2026-05-02T16:17:37.401Z</time></trkpt><trkpt lat="46.0737417" lon="12.3392683"><ele>402.0</ele><time>2026-05-02T16:17:38.401Z</time></trkpt><trkpt lat="46.0736417" lon="12.3394933"><ele>402.0</ele><time>2026-05-02T16:17:39.401Z</time></trkpt><trkpt lat="46.0735583" lon="12.3397233"><ele>402.0</ele><time>2026-05-02T16:17:40.401Z</time></trkpt><trkpt lat="46.073495" lon="12.3399517"><ele>403.33333333333337</ele><time>2026-05-02T16:17:41.401Z</time></trkpt><trkpt lat="46.0734367" lon="12.34019"><ele>404.6666666666667</ele><time>2026-05-02T16:17:42.4Z</time></trkpt><trkpt lat="46.0733883" lon="12.3404133"><ele>406.0</ele><time>2026-05-02T16:17:43.401Z</time></trkpt><trkpt lat="46.07334" lon="12.340585"><ele>403.5</ele><time>2026-05-02T16:17:44.4Z</time></trkpt><trkpt lat="46.0732617" lon="12.3407267"><ele>401.0</ele><time>2026-05-02T16:17:45.401Z</time></trkpt><trkpt lat="46.07314" lon="12.3408417"><ele>398.5</ele><time>2026-05-02T16:17:46.401Z</time></trkpt><trkpt lat="46.072995" lon="12.3409617"><ele>396.0</ele><time>2026-05-02T16:17:47.401Z</time></trkpt><trkpt lat="46.0728433" lon="12.3410933"><ele>396.0</ele><time>2026-05-02T16:17:48.4Z</time></trkpt><trkpt lat="46.0727067" lon="12.34123"><ele>396.0</ele><time>2026-05-02T16:17:49.401Z</time></trkpt><trkpt lat="46.0725717" lon="12.3413533"><ele>396.0</ele><time>2026-05-02T16:17:50.401Z</time></trkpt><trkpt lat="46.072425" lon="12.3414433"><ele>400.33333333333337</ele><time>2026-05-02T16:17:51.401Z</time></trkpt><trkpt lat="46.0722633" lon="12.3415"><ele>404.6666666666667</ele><time>2026-05-02T16:17:52.401Z</time></trkpt><trkpt lat="46.0720983" lon="12.3415317"><ele>409.0</ele><time>2026-05-02T16:17:53.401Z</time></trkpt><trkpt lat="46.0719417" lon="12.3415167"><ele>409.0</ele><time>2026-05-02T16:17:54.4Z</time></trkpt><trkpt lat="46.071785" lon="12.3414517"><ele>409.0</ele><time>2026-05-02T16:17:55.401Z</time></trkpt><trkpt lat="46.071615" lon="12.34133"><ele>409.0</ele><time>2026-05-02T16:17:56.4Z</time></trkpt><trkpt lat="46.0714433" lon="12.3411983"><ele>404.6666666666667</ele><time>2026-05-02T16:17:57.4Z</time></trkpt><trkpt lat="46.0712767" lon="12.34106"><ele>400.33333333333337</ele><time>2026-05-02T16:17:58.401Z</time></trkpt><trkpt lat="46.0711" lon="12.3409433"><ele>396.0</ele><time>2026-05-02T16:17:59.4Z</time></trkpt><trkpt lat="46.070915" lon="12.3408967"><ele>406.66666666666663</ele><time>2026-05-02T16:18:00.401Z</time></trkpt><trkpt lat="46.0707483" lon="12.340865"><ele>417.3333333333333</ele><time>2026-05-02T16:18:01.4Z</time></trkpt><trkpt lat="46.0705883" lon="12.340795"><ele>428.0</ele><time>2026-05-02T16:18:02.4Z</time></trkpt><trkpt lat="46.0704483" lon="12.340655"><ele>417.66666666666663</ele><time>2026-05-02T16:18:03.401Z</time></trkpt><trkpt lat="46.0703117" lon="12.340455"><ele>407.33333333333337</ele><time>2026-05-02T16:18:04.4Z</time></trkpt><trkpt lat="46.07018" lon="12.3402417"><ele>397.0</ele><time>2026-05-02T16:18:05.401Z</time></trkpt><trkpt lat="46.0700517" lon="12.340025"><ele>403.0</ele><time>2026-05-02T16:18:06.401Z</time></trkpt><trkpt lat="46.0699417" lon="12.3398017"><ele>409.0</ele><time>2026-05-02T16:18:07.401Z</time></trkpt><trkpt lat="46.0698517" lon="12.3395433"><ele>415.0</ele><time>2026-05-02T16:18:08.401Z</time></trkpt><trkpt lat="46.0697783" lon="12.3392883"><ele>415.0</ele><time>2026-05-02T16:18:09.401Z</time></trkpt><trkpt lat="46.069705" lon="12.33905"><ele>415.0</ele><time>2026-05-02T16:18:10.401Z</time></trkpt><trkpt lat="46.0696133" lon="12.338835"><ele>415.0</ele><time>2026-05-02T16:18:11.4Z</time></trkpt><trkpt lat="46.0694817" lon="12.3386233"><ele>407.33333333333337</ele><time>2026-05-02T16:18:12.401Z</time></trkpt><trkpt lat="46.0693283" lon="12.3384033"><ele>399.66666666666663</ele><time>2026-05-02T16:18:13.401Z</time></trkpt><trkpt lat="46.0691633" lon="12.33823"><ele>392.0</ele><time>2026-05-02T16:18:14.4Z</time></trkpt><trkpt lat="46.069025" lon="12.3380117"><ele>392.0</ele><time>2026-05-02T16:18:15.4Z</time></trkpt><trkpt lat="46.0689" lon="12.3377683"><ele>392.0</ele><time>2026-05-02T16:18:16.401Z</time></trkpt><trkpt lat="46.0687667" lon="12.337535"><ele>392.0</ele><time>2026-05-02T16:18:17.4Z</time></trkpt><trkpt lat="46.0686317" lon="12.3373333"><ele>385.66666666666663</ele><time>2026-05-02T16:18:18.401Z</time></trkpt><trkpt lat="46.0684833" lon="12.3371633"><ele>379.3333333333333</ele><time>2026-05-02T16:18:19.401Z</time></trkpt><trkpt lat="46.06833" lon="12.33702"><ele>373.0</ele><time>2026-05-02T16:18:20.401Z</time></trkpt><trkpt lat="46.0681467" lon="12.3369067"><ele>373.0</ele><time>2026-05-02T16:18:21.401Z</time></trkpt><trkpt lat="46.0679383" lon="12.3368233"><ele>373.0</ele><time>2026-05-02T16:18:22.401Z</time></trkpt><trkpt lat="46.0677283" lon="12.3367417"><ele>373.0</ele><time>2026-05-02T16:18:23.401Z</time></trkpt><trkpt lat="46.0675217" lon="12.3366683"><ele>381.0</ele><time>2026-05-02T16:18:24.4Z</time></trkpt><trkpt lat="46.0673367" lon="12.33659"><ele>389.0</ele><time>2026-05-02T16:18:25.401Z</time></trkpt><trkpt lat="46.0671617" lon="12.336505"><ele>397.0</ele><time>2026-05-02T16:18:26.401Z</time></trkpt><trkpt lat="46.066985" lon="12.3364167"><ele>392.6666666666667</ele><time>2026-05-02T16:18:27.401Z</time></trkpt><trkpt lat="46.0668067" lon="12.3363033"><ele>388.33333333333337</ele><time>2026-05-02T16:18:28.401Z</time></trkpt><trkpt lat="46.0666417" lon="12.3361767"><ele>384.0</ele><time>2026-05-02T16:18:29.401Z</time></trkpt><trkpt lat="46.0664783" lon="12.3360517"><ele>384.0</ele><time>2026-05-02T16:18:30.401Z</time></trkpt><trkpt lat="46.066325" lon="12.3359217"><ele>384.0</ele><time>2026-05-02T16:18:31.401Z</time></trkpt><trkpt lat="46.0661833" lon="12.3357867"><ele>384.0</ele><time>2026-05-02T16:18:32.401Z</time></trkpt><trkpt lat="46.0660283" lon="12.3356267"><ele>388.0</ele><time>2026-05-02T16:18:33.401Z</time></trkpt><trkpt lat="46.0658633" lon="12.3354467"><ele>392.0</ele><time>2026-05-02T16:18:34.401Z</time></trkpt><trkpt lat="46.0657017" lon="12.33523"><ele>396.0</ele><time>2026-05-02T16:18:35.4Z</time></trkpt><trkpt lat="46.0655417" lon="12.334995"><ele>396.0</ele><time>2026-05-02T16:18:36.4Z</time></trkpt><trkpt lat="46.065395" lon="12.3347367"><ele>396.0</ele><time>2026-05-02T16:18:37.401Z</time></trkpt><trkpt lat="46.0652467" lon="12.3344667"><ele>385.0</ele><time>2026-05-02T16:18:38.401Z</time></trkpt><trkpt lat="46.06511" lon="12.33421"><ele>374.0</ele><time>2026-05-02T16:18:39.4Z</time></trkpt><trkpt lat="46.0649767" lon="12.3339367"><ele>376.0</ele><time>2026-05-02T16:18:40.401Z</time></trkpt><trkpt lat="46.0648533" lon="12.3336483"><ele>378.0</ele><time>2026-05-02T16:18:41.4Z</time></trkpt><trkpt lat="46.0647383" lon="12.333375"><ele>378.0</ele><time>2026-05-02T16:18:42.401Z</time></trkpt><trkpt lat="46.0646033" lon="12.3331067"><ele>378.0</ele><time>2026-05-02T16:18:43.4Z</time></trkpt><trkpt lat="46.0644317" lon="12.3328383"><ele>385.5</ele><time>2026-05-02T16:18:44.401Z</time></trkpt><trkpt lat="46.0642283" lon="12.3325883"><ele>393.0</ele><time>2026-05-02T16:18:45.401Z</time></trkpt><trkpt lat="46.0640283" lon="12.3323017"><ele>379.0</ele><time>2026-05-02T16:18:46.401Z</time></trkpt><trkpt lat="46.0638283" lon="12.3320117"><ele>365.0</ele><time>2026-05-02T16:18:47.401Z</time></trkpt><trkpt lat="46.0636367" lon="12.331715"><ele>365.0</ele><time>2026-05-02T16:18:48.401Z</time></trkpt><trkpt lat="46.063435" lon="12.3314033"><ele>365.0</ele><time>2026-05-02T16:18:49.401Z</time></trkpt><trkpt lat="46.063235" lon="12.3310933"><ele>367.5</ele><time>2026-05-02T16:18:50.401Z</time></trkpt><trkpt lat="46.063025" lon="12.33079"><ele>370.0</ele><time>2026-05-02T16:18:51.401Z</time></trkpt><trkpt lat="46.0628267" lon="12.3304917"><ele>371.0</ele><time>2026-05-02T16:18:52.401Z</time></trkpt><trkpt lat="46.0626283" lon="12.3302"><ele>372.0</ele><time>2026-05-02T16:18:53.401Z</time></trkpt><trkpt lat="46.062445" lon="12.329925"><ele>356.5</ele><time>2026-05-02T16:18:54.401Z</time></trkpt><trkpt lat="46.0622683" lon="12.329655"><ele>341.0</ele><time>2026-05-02T16:18:55.4Z</time></trkpt><trkpt lat="46.0621067" lon="12.3293733"><ele>341.0</ele><time>2026-05-02T16:18:56.401Z</time></trkpt><trkpt lat="46.06194" lon="12.3290983"><ele>341.0</ele><time>2026-05-02T16:18:57.401Z</time></trkpt><trkpt lat="46.0617567" lon="12.3288417"><ele>344.5</ele><time>2026-05-02T16:18:58.401Z</time></trkpt><trkpt lat="46.0615533" lon="12.3286067"><ele>348.0</ele><time>2026-05-02T16:18:59.4Z</time></trkpt><trkpt lat="46.061335" lon="12.328405"><ele>348.0</ele><time>2026-05-02T16:19:00.4Z</time></trkpt><trkpt lat="46.0611183" lon="12.3282133"><ele>348.0</ele><time>2026-05-02T16:19:01.401Z</time></trkpt><trkpt lat="46.06092" lon="12.3280133"><ele>348.5</ele><time>2026-05-02T16:19:02.401Z</time></trkpt><trkpt lat="46.0607367" lon="12.327795"><ele>349.0</ele><time>2026-05-02T16:19:03.401Z</time></trkpt><trkpt lat="46.060575" lon="12.3275633"><ele>349.0</ele><time>2026-05-02T16:19:04.401Z</time></trkpt><trkpt lat="46.0604267" lon="12.3273167"><ele>349.0</ele><time>2026-05-02T16:19:05.401Z</time></trkpt><trkpt lat="46.0602867" lon="12.32708"><ele>349.0</ele><time>2026-05-02T16:19:06.401Z</time></trkpt><trkpt lat="46.0601283" lon="12.32687"><ele>352.0</ele><time>2026-05-02T16:19:07.401Z</time></trkpt><trkpt lat="46.05994" lon="12.3266733"><ele>355.0</ele><time>2026-05-02T16:19:08.401Z</time></trkpt><trkpt lat="46.059745" lon="12.32648"><ele>334.0</ele><time>2026-05-02T16:19:09.401Z</time></trkpt><trkpt lat="46.0595633" lon="12.32627"><ele>313.0</ele><time>2026-05-02T16:19:10.401Z</time></trkpt><trkpt lat="46.0593933" lon="12.326065"><ele>313.0</ele><time>2026-05-02T16:19:11.401Z</time></trkpt><trkpt lat="46.059225" lon="12.3258783"><ele>313.0</ele><time>2026-05-02T16:19:12.4Z</time></trkpt><trkpt lat="46.0590517" lon="12.3257067"><ele>313.0</ele><time>2026-05-02T16:19:13.401Z</time></trkpt><trkpt lat="46.05886" lon="12.3255317"><ele>311.5</ele><time>2026-05-02T16:19:14.4Z</time></trkpt><trkpt lat="46.0586617" lon="12.3253717"><ele>310.0</ele><time>2026-05-02T16:19:15.401Z</time></trkpt><trkpt lat="46.0584633" lon="12.325215"><ele>327.5</ele><time>2026-05-02T16:19:16.401Z</time></trkpt><trkpt lat="46.0582717" lon="12.325055"><ele>345.0</ele><time>2026-05-02T16:19:17.401Z</time></trkpt><trkpt lat="46.0580733" lon="12.3248817"><ele>328.0</ele><time>2026-05-02T16:19:18.401Z</time></trkpt><trkpt lat="46.05788" lon="12.3246933"><ele>311.0</ele><time>2026-05-02T16:19:19.401Z</time></trkpt><trkpt lat="46.0577083" lon="12.3244867"><ele>311.0</ele><time>2026-05-02T16:19:20.401Z</time></trkpt><trkpt lat="46.0575317" lon="12.3242717"><ele>311.0</ele><time>2026-05-02T16:19:21.401Z</time></trkpt><trkpt lat="46.0573567" lon="12.3240683"><ele>314.33333333333337</ele><time>2026-05-02T16:19:22.401Z</time></trkpt><trkpt lat="46.05718" lon="12.32391"><ele>317.6666666666667</ele><time>2026-05-02T16:19:23.401Z</time></trkpt><trkpt lat="46.05702" lon="12.32375"><ele>321.0</ele><time>2026-05-02T16:19:24.401Z</time></trkpt><trkpt lat="46.0568967" lon="12.3235883"><ele>321.0</ele><time>2026-05-02T16:19:25.401Z</time></trkpt><trkpt lat="46.0568133" lon="12.323415"><ele>321.0</ele><time>2026-05-02T16:19:26.401Z</time></trkpt><trkpt lat="46.0567517" lon="12.3232217"><ele>321.0</ele><time>2026-05-02T16:19:27.401Z</time></trkpt><trkpt lat="46.0567067" lon="12.32301"><ele>321.0</ele><time>2026-05-02T16:19:28.401Z</time></trkpt><trkpt lat="46.0566683" lon="12.3228017"><ele>323.0</ele><time>2026-05-02T16:19:29.401Z</time></trkpt><trkpt lat="46.0566267" lon="12.3225817"><ele>325.0</ele><time>2026-05-02T16:19:30.401Z</time></trkpt><trkpt lat="46.0565417" lon="12.3223867"><ele>327.0</ele><time>2026-05-02T16:19:31.401Z</time></trkpt><trkpt lat="46.0564017" lon="12.3221867"><ele>317.3333333333333</ele><time>2026-05-02T16:19:32.401Z</time></trkpt><trkpt lat="46.0562367" lon="12.321975"><ele>307.66666666666663</ele><time>2026-05-02T16:19:33.4Z</time></trkpt><trkpt lat="46.0560667" lon="12.321775"><ele>298.0</ele><time>2026-05-02T16:19:34.4Z</time></trkpt><trkpt lat="46.0559033" lon="12.32158"><ele>296.66666666666663</ele><time>2026-05-02T16:19:35.401Z</time></trkpt><trkpt lat="46.0557367" lon="12.3214117"><ele>295.3333333333333</ele><time>2026-05-02T16:19:36.401Z</time></trkpt><trkpt lat="46.0555817" lon="12.3212667"><ele>294.0</ele><time>2026-05-02T16:19:37.401Z</time></trkpt><trkpt lat="46.0554067" lon="12.3211517"><ele>294.0</ele><time>2026-05-02T16:19:38.401Z</time></trkpt><trkpt lat="46.05521" lon="12.3210567"><ele>294.0</ele><time>2026-05-02T16:19:39.401Z</time></trkpt><trkpt lat="46.0550417" lon="12.320935"><ele>294.0</ele><time>2026-05-02T16:19:40.4Z</time></trkpt><trkpt lat="46.0548633" lon="12.3207883"><ele>297.3333333333333</ele><time>2026-05-02T16:19:41.4Z</time></trkpt><trkpt lat="46.054695" lon="12.3206133"><ele>300.66666666666663</ele><time>2026-05-02T16:19:42.4Z</time></trkpt><trkpt lat="46.05455" lon="12.32043"><ele>304.0</ele><time>2026-05-02T16:19:43.401Z</time></trkpt><trkpt lat="46.05444" lon="12.3202217"><ele>304.0</ele><time>2026-05-02T16:19:44.401Z</time></trkpt><trkpt lat="46.0543483" lon="12.320025"><ele>304.0</ele><time>2026-05-02T16:19:45.401Z</time></trkpt><trkpt lat="46.0542767" lon="12.3198317"><ele>304.0</ele><time>2026-05-02T16:19:46.4Z</time></trkpt><trkpt lat="46.054225" lon="12.3196183"><ele>300.3333333333333</ele><time>2026-05-02T16:19:47.401Z</time></trkpt><trkpt lat="46.0541833" lon="12.3194017"><ele>296.6666666666667</ele><time>2026-05-02T16:19:48.401Z</time></trkpt><trkpt lat="46.054165" lon="12.31918"><ele>293.0</ele><time>2026-05-02T16:19:49.401Z</time></trkpt><trkpt lat="46.0541483" lon="12.3189683"><ele>292.0</ele><time>2026-05-02T16:19:50.401Z</time></trkpt><trkpt lat="46.0541217" lon="12.3187817"><ele>291.0</ele><time>2026-05-02T16:19:51.401Z</time></trkpt><trkpt lat="46.0540883" lon="12.3186067"><ele>290.0</ele><time>2026-05-02T16:19:52.401Z</time></trkpt><trkpt lat="46.05404" lon="12.3184267"><ele>289.0</ele><time>2026-05-02T16:19:53.401Z</time></trkpt><trkpt lat="46.0539867" lon="12.3182483"><ele>290.75</ele><time>2026-05-02T16:19:54.4Z</time></trkpt><trkpt lat="46.0539283" lon="12.3180717"><ele>292.5</ele><time>2026-05-02T16:19:55.401Z</time></trkpt><trkpt lat="46.053875" lon="12.31792"><ele>294.25</ele><time>2026-05-02T16:19:56.401Z</time></trkpt><trkpt lat="46.0538233" lon="12.317755"><ele>296.0</ele><time>2026-05-02T16:19:57.401Z</time></trkpt><trkpt lat="46.0537617" lon="12.3175917"><ele>296.0</ele><time>2026-05-02T16:19:58.401Z</time></trkpt><trkpt lat="46.0537017" lon="12.3174333"><ele>296.0</ele><time>2026-05-02T16:19:59.401Z</time></trkpt><trkpt lat="46.0536333" lon="12.3172883"><ele>296.0</ele><time>2026-05-02T16:20:00.401Z</time></trkpt><trkpt lat="46.0535533" lon="12.3171517"><ele>296.0</ele><time>2026-05-02T16:20:01.4Z</time></trkpt><trkpt lat="46.0534633" lon="12.3170267"><ele>295.25</ele><time>2026-05-02T16:20:02.401Z</time></trkpt><trkpt lat="46.053365" lon="12.3169133"><ele>294.5</ele><time>2026-05-02T16:20:03.4Z</time></trkpt><trkpt lat="46.0532667" lon="12.3168"><ele>293.75</ele><time>2026-05-02T16:20:04.401Z</time></trkpt><trkpt lat="46.053165" lon="12.3166933"><ele>293.0</ele><time>2026-05-02T16:20:05.401Z</time></trkpt><trkpt lat="46.0530617" lon="12.3165917"><ele>293.0</ele><time>2026-05-02T16:20:06.401Z</time></trkpt><trkpt lat="46.052965" lon="12.31648"><ele>293.0</ele><time>2026-05-02T16:20:07.4Z</time></trkpt><trkpt lat="46.05287" lon="12.3163817"><ele>293.0</ele><time>2026-05-02T16:20:08.401Z</time></trkpt><trkpt lat="46.0527733" lon="12.316285"><ele>293.0</ele><time>2026-05-02T16:20:09.401Z</time></trkpt><trkpt lat="46.0526767" lon="12.316195"><ele>292.75</ele><time>2026-05-02T16:20:10.401Z</time></trkpt><trkpt lat="46.0525783" lon="12.3161017"><ele>292.5</ele><time>2026-05-02T16:20:11.401Z</time></trkpt><trkpt lat="46.05249" lon="12.316"><ele>292.25</ele><time>2026-05-02T16:20:12.401Z</time></trkpt><trkpt lat="46.0524" lon="12.3159033"><ele>292.0</ele><time>2026-05-02T16:20:13.401Z</time></trkpt><trkpt lat="46.0523117" lon="12.315805"><ele>292.0</ele><time>2026-05-02T16:20:14.4Z</time></trkpt><trkpt lat="46.052225" lon="12.3157117"><ele>292.0</ele><time>2026-05-02T16:20:15.401Z</time></trkpt><trkpt lat="46.0521367" lon="12.3156133"><ele>292.0</ele><time>2026-05-02T16:20:16.401Z</time></trkpt><trkpt lat="46.0520517" lon="12.3155183"><ele>292.0</ele><time>2026-05-02T16:20:17.401Z</time></trkpt><trkpt lat="46.0519617" lon="12.3154167"><ele>292.0</ele><time>2026-05-02T16:20:18.401Z</time></trkpt><trkpt lat="46.0518633" lon="12.3153167"><ele>293.25</ele><time>2026-05-02T16:20:19.401Z</time></trkpt><trkpt lat="46.051765" lon="12.315215"><ele>294.5</ele><time>2026-05-02T16:20:20.4Z</time></trkpt><trkpt lat="46.0516667" lon="12.3151133"><ele>295.75</ele><time>2026-05-02T16:20:21.401Z</time></trkpt><trkpt lat="46.0515617" lon="12.3150133"><ele>297.0</ele><time>2026-05-02T16:20:22.4Z</time></trkpt><trkpt lat="46.051455" lon="12.3149033"><ele>297.0</ele><time>2026-05-02T16:20:23.401Z</time></trkpt><trkpt lat="46.0513433" lon="12.3147983"><ele>297.0</ele><time>2026-05-02T16:20:24.401Z</time></trkpt><trkpt lat="46.0512367" lon="12.3146833"><ele>297.0</ele><time>2026-05-02T16:20:25.4Z</time></trkpt><trkpt lat="46.0511267" lon="12.314565"><ele>297.0</ele><time>2026-05-02T16:20:26.401Z</time></trkpt><trkpt lat="46.0510133" lon="12.3144483"><ele>297.0</ele><time>2026-05-02T16:20:27.401Z</time></trkpt><trkpt lat="46.0509" lon="12.3143333"><ele>297.0</ele><time>2026-05-02T16:20:28.401Z</time></trkpt><trkpt lat="46.05079" lon="12.3142133"><ele>297.0</ele><time>2026-05-02T16:20:29.401Z</time></trkpt><trkpt lat="46.050675" lon="12.3140867"><ele>297.0</ele><time>2026-05-02T16:20:30.401Z</time></trkpt><trkpt lat="46.0505467" lon="12.3139617"><ele>295.0</ele><time>2026-05-02T16:20:31.401Z</time></trkpt><trkpt lat="46.0504217" lon="12.313825"><ele>293.0</ele><time>2026-05-02T16:20:32.401Z</time></trkpt><trkpt lat="46.0502917" lon="12.3136933"><ele>291.0</ele><time>2026-05-02T16:20:33.4Z</time></trkpt><trkpt lat="46.0501633" lon="12.313565"><ele>291.0</ele><time>2026-05-02T16:20:34.4Z</time></trkpt><trkpt lat="46.05004" lon="12.313435"><ele>291.0</ele><time>2026-05-02T16:20:35.401Z</time></trkpt><trkpt lat="46.0499267" lon="12.3132983"><ele>291.0</ele><time>2026-05-02T16:20:36.4Z</time></trkpt><trkpt lat="46.0498117" lon="12.3131717"><ele>291.0</ele><time>2026-05-02T16:20:37.401Z</time></trkpt><trkpt lat="46.0497033" lon="12.31304"><ele>290.75</ele><time>2026-05-02T16:20:38.401Z</time></trkpt><trkpt lat="46.0496" lon="12.3129017"><ele>290.5</ele><time>2026-05-02T16:20:39.401Z</time></trkpt><trkpt lat="46.0494983" lon="12.3127617"><ele>290.25</ele><time>2026-05-02T16:20:40.401Z</time></trkpt><trkpt lat="46.0493983" lon="12.3126183"><ele>290.0</ele><time>2026-05-02T16:20:41.401Z</time></trkpt><trkpt lat="46.0492983" lon="12.312475"><ele>290.0</ele><time>2026-05-02T16:20:42.401Z</time></trkpt><trkpt lat="46.0491983" lon="12.3123317"><ele>290.0</ele><time>2026-05-02T16:20:43.4Z</time></trkpt><trkpt lat="46.0491017" lon="12.312195"><ele>290.0</ele><time>2026-05-02T16:20:44.401Z</time></trkpt><trkpt lat="46.0490017" lon="12.3120567"><ele>290.0</ele><time>2026-05-02T16:20:45.401Z</time></trkpt><trkpt lat="46.0489067" lon="12.3119133"><ele>290.0</ele><time>2026-05-02T16:20:46.401Z</time></trkpt><trkpt lat="46.04881" lon="12.3117733"><ele>290.0</ele><time>2026-05-02T16:20:47.401Z</time></trkpt><trkpt lat="46.0487183" lon="12.3116417"><ele>290.0</ele><time>2026-05-02T16:20:48.401Z</time></trkpt><trkpt lat="46.0486333" lon="12.311515"><ele>290.0</ele><time>2026-05-02T16:20:49.401Z</time></trkpt><trkpt lat="46.048555" lon="12.311395"><ele>290.1666666666667</ele><time>2026-05-02T16:20:50.401Z</time></trkpt><trkpt lat="46.0484717" lon="12.311285"><ele>290.33333333333337</ele><time>2026-05-02T16:20:51.401Z</time></trkpt><trkpt lat="46.0484033" lon="12.3111833"><ele>290.5</ele><time>2026-05-02T16:20:52.4Z</time></trkpt><trkpt lat="46.0483417" lon="12.3110933"><ele>290.6666666666667</ele><time>2026-05-02T16:20:53.401Z</time></trkpt><trkpt lat="46.0482833" lon="12.31101"><ele>290.8333333333333</ele><time>2026-05-02T16:20:54.401Z</time></trkpt><trkpt lat="46.048235" lon="12.310945"><ele>291.0</ele><time>2026-05-02T16:20:55.401Z</time></trkpt><trkpt lat="46.04817" lon="12.3108917"><ele>291.0</ele><time>2026-05-02T16:20:57.401Z</time></trkpt><trkpt lat="46.0480917" lon="12.3108917"><ele>291.0</ele><time>2026-05-02T16:21:00.4Z</time></trkpt><trkpt lat="46.04801" lon="12.3108517"><ele>291.0</ele><time>2026-05-02T16:21:07.401Z</time></trkpt><trkpt lat="46.0479467" lon="12.310765"><ele>291.0</ele><time>2026-05-02T16:21:23.401Z</time></trkpt><trkpt lat="46.0478733" lon="12.3107283"><ele>291.0</ele><time>2026-05-02T16:21:26.401Z</time></trkpt><trkpt lat="46.0479433" lon="12.3107233"><ele>291.0</ele><time>2026-05-02T16:22:18.4Z</time></trkpt><trkpt lat="46.0479988" lon="12.3108091"><ele>291.0</ele><time>2026-05-02T16:24:54.447Z</time></trkpt><trkpt lat="46.0480165" lon="12.3109074"><ele>291.0</ele><time>2026-05-02T16:25:24.505Z</time></trkpt><trkpt lat="46.0479651" lon="12.3108396"><ele>291.0</ele><time>2026-05-02T17:03:54.484Z</time></trkpt><trkpt lat="46.0479068" lon="12.3108017"><ele>291.0</ele><time>2026-05-02T17:03:58.492Z</time></trkpt><trkpt lat="46.0478456" lon="12.3107595"><ele>291.0</ele><time>2026-05-02T17:04:04.502Z</time></trkpt><trkpt lat="46.0479633" lon="12.3108733"><ele>291.0</ele><time>2026-05-02T17:05:04.399Z</time></trkpt><trkpt lat="46.0480267" lon="12.3108583"><ele>291.0</ele><time>2026-05-02T17:05:45.398Z</time></trkpt><trkpt lat="46.0480683" lon="12.310935"><ele>291.0</ele><time>2026-05-02T17:05:50.398Z</time></trkpt><trkpt lat="46.048145" lon="12.3109417"><ele>291.0</ele><time>2026-05-02T17:05:56.399Z</time></trkpt><trkpt lat="46.0481367" lon="12.3108433"><ele>291.0</ele><time>2026-05-02T17:05:58.399Z</time></trkpt><trkpt lat="46.0480667" lon="12.3107133"><ele>291.0</ele><time>2026-05-02T17:06:00.399Z</time></trkpt><trkpt lat="46.04802" lon="12.3106383"><ele>291.0</ele><time>2026-05-02T17:06:01.399Z</time></trkpt><trkpt lat="46.047955" lon="12.310535"><ele>290.8</ele><time>2026-05-02T17:06:02.399Z</time></trkpt><trkpt lat="46.0478833" lon="12.3104333"><ele>290.6</ele><time>2026-05-02T17:06:03.399Z</time></trkpt><trkpt lat="46.0478083" lon="12.310335"><ele>290.4</ele><time>2026-05-02T17:06:04.399Z</time></trkpt><trkpt lat="46.0477317" lon="12.31022"><ele>290.2</ele><time>2026-05-02T17:06:05.399Z</time></trkpt><trkpt lat="46.047655" lon="12.3101083"><ele>290.0</ele><time>2026-05-02T17:06:06.399Z</time></trkpt><trkpt lat="46.04757" lon="12.3099983"><ele>290.0</ele><time>2026-05-02T17:06:07.399Z</time></trkpt><trkpt lat="46.047485" lon="12.3098817"><ele>290.0</ele><time>2026-05-02T17:06:08.399Z</time></trkpt><trkpt lat="46.04741" lon="12.3097583"><ele>290.0</ele><time>2026-05-02T17:06:09.399Z</time></trkpt><trkpt lat="46.0473267" lon="12.309635"><ele>290.0</ele><time>2026-05-02T17:06:10.399Z</time></trkpt><trkpt lat="46.0472467" lon="12.3095133"><ele>291.0</ele><time>2026-05-02T17:06:11.399Z</time></trkpt><trkpt lat="46.0471633" lon="12.309405"><ele>292.0</ele><time>2026-05-02T17:06:12.399Z</time></trkpt><trkpt lat="46.047085" lon="12.3093"><ele>293.0</ele><time>2026-05-02T17:06:13.399Z</time></trkpt><trkpt lat="46.0470167" lon="12.3092033"><ele>294.0</ele><time>2026-05-02T17:06:14.398Z</time></trkpt><trkpt lat="46.0469467" lon="12.30911"><ele>295.0</ele><time>2026-05-02T17:06:15.399Z</time></trkpt><trkpt lat="46.0468633" lon="12.3090283"><ele>295.0</ele><time>2026-05-02T17:06:16.399Z</time></trkpt><trkpt lat="46.046755" lon="12.3089583"><ele>295.0</ele><time>2026-05-02T17:06:17.398Z</time></trkpt><trkpt lat="46.04663" lon="12.3089017"><ele>295.0</ele><time>2026-05-02T17:06:18.399Z</time></trkpt><trkpt lat="46.0464983" lon="12.3088483"><ele>295.0</ele><time>2026-05-02T17:06:19.399Z</time></trkpt><trkpt lat="46.0463717" lon="12.3087933"><ele>293.75</ele><time>2026-05-02T17:06:20.398Z</time></trkpt><trkpt lat="46.0462367" lon="12.3087417"><ele>292.5</ele><time>2026-05-02T17:06:21.399Z</time></trkpt><trkpt lat="46.0460983" lon="12.3086867"><ele>291.25</ele><time>2026-05-02T17:06:22.398Z</time></trkpt><trkpt lat="46.045955" lon="12.308635"><ele>290.0</ele><time>2026-05-02T17:06:23.399Z</time></trkpt><trkpt lat="46.0458" lon="12.3085833"><ele>287.75</ele><time>2026-05-02T17:06:24.399Z</time></trkpt><trkpt lat="46.045655" lon="12.30854"><ele>285.5</ele><time>2026-05-02T17:06:25.399Z</time></trkpt><trkpt lat="46.0455167" lon="12.3084733"><ele>283.25</ele><time>2026-05-02T17:06:26.399Z</time></trkpt><trkpt lat="46.0453883" lon="12.308375"><ele>281.0</ele><time>2026-05-02T17:06:27.399Z</time></trkpt><trkpt lat="46.045285" lon="12.3082467"><ele>281.0</ele><time>2026-05-02T17:06:28.399Z</time></trkpt><trkpt lat="46.045185" lon="12.3080783"><ele>281.0</ele><time>2026-05-02T17:06:29.399Z</time></trkpt><trkpt lat="46.0451083" lon="12.3078667"><ele>281.0</ele><time>2026-05-02T17:06:30.399Z</time></trkpt><trkpt lat="46.04506" lon="12.3076383"><ele>281.33333333333337</ele><time>2026-05-02T17:06:31.399Z</time></trkpt><trkpt lat="46.0450117" lon="12.30742"><ele>281.6666666666667</ele><time>2026-05-02T17:06:32.399Z</time></trkpt><trkpt lat="46.04496" lon="12.3072117"><ele>282.0</ele><time>2026-05-02T17:06:33.398Z</time></trkpt><trkpt lat="46.04489" lon="12.3070317"><ele>281.0</ele><time>2026-05-02T17:06:34.399Z</time></trkpt><trkpt lat="46.0447933" lon="12.3068867"><ele>280.0</ele><time>2026-05-02T17:06:35.399Z</time></trkpt><trkpt lat="46.0446883" lon="12.30677"><ele>279.0</ele><time>2026-05-02T17:06:36.399Z</time></trkpt><trkpt lat="46.04457" lon="12.3066917"><ele>278.0</ele><time>2026-05-02T17:06:37.398Z</time></trkpt><trkpt lat="46.044445" lon="12.3066417"><ele>278.0</ele><time>2026-05-02T17:06:38.399Z</time></trkpt><trkpt lat="46.0443133" lon="12.3066167"><ele>278.0</ele><time>2026-05-02T17:06:39.398Z</time></trkpt><trkpt lat="46.0441567" lon="12.3066383"><ele>278.0</ele><time>2026-05-02T17:06:40.398Z</time></trkpt><trkpt lat="46.0439867" lon="12.3066833"><ele>277.33333333333337</ele><time>2026-05-02T17:06:41.398Z</time></trkpt><trkpt lat="46.043805" lon="12.3067267"><ele>276.6666666666667</ele><time>2026-05-02T17:06:42.398Z</time></trkpt><trkpt lat="46.0436283" lon="12.3067783"><ele>276.0</ele><time>2026-05-02T17:06:43.399Z</time></trkpt><trkpt lat="46.0434617" lon="12.306795"><ele>272.3333333333333</ele><time>2026-05-02T17:06:44.399Z</time></trkpt><trkpt lat="46.0432917" lon="12.3068033"><ele>268.66666666666663</ele><time>2026-05-02T17:06:45.399Z</time></trkpt><trkpt lat="46.0431317" lon="12.306805"><ele>265.0</ele><time>2026-05-02T17:06:46.398Z</time></trkpt><trkpt lat="46.0429783" lon="12.3068133"><ele>265.0</ele><time>2026-05-02T17:06:47.399Z</time></trkpt><trkpt lat="46.0428367" lon="12.306845"><ele>265.0</ele><time>2026-05-02T17:06:48.399Z</time></trkpt><trkpt lat="46.0427133" lon="12.3069067"><ele>265.0</ele><time>2026-05-02T17:06:49.399Z</time></trkpt><trkpt lat="46.04261" lon="12.30701"><ele>265.0</ele><time>2026-05-02T17:06:50.399Z</time></trkpt><trkpt lat="46.042525" lon="12.3071533"><ele>263.25</ele><time>2026-05-02T17:06:51.399Z</time></trkpt><trkpt lat="46.042465" lon="12.3073283"><ele>261.5</ele><time>2026-05-02T17:06:52.399Z</time></trkpt><trkpt lat="46.0424333" lon="12.3075283"><ele>259.75</ele><time>2026-05-02T17:06:53.398Z</time></trkpt><trkpt lat="46.042435" lon="12.3077483"><ele>258.0</ele><time>2026-05-02T17:06:54.399Z</time></trkpt><trkpt lat="46.04244" lon="12.3079667"><ele>255.5</ele><time>2026-05-02T17:06:55.399Z</time></trkpt><trkpt lat="46.0424267" lon="12.3081883"><ele>253.0</ele><time>2026-05-02T17:06:56.399Z</time></trkpt><trkpt lat="46.042395" lon="12.3083783"><ele>250.5</ele><time>2026-05-02T17:06:57.399Z</time></trkpt><trkpt lat="46.0423383" lon="12.30854"><ele>248.0</ele><time>2026-05-02T17:06:58.399Z</time></trkpt><trkpt lat="46.04225" lon="12.308665"><ele>248.0</ele><time>2026-05-02T17:06:59.398Z</time></trkpt><trkpt lat="46.0421467" lon="12.308745"><ele>248.0</ele><time>2026-05-02T17:07:00.398Z</time></trkpt><trkpt lat="46.042025" lon="12.308795"><ele>248.0</ele><time>2026-05-02T17:07:01.398Z</time></trkpt><trkpt lat="46.041875" lon="12.3087567"><ele>248.0</ele><time>2026-05-02T17:07:02.398Z</time></trkpt><trkpt lat="46.0417167" lon="12.3086833"><ele>245.0</ele><time>2026-05-02T17:07:03.399Z</time></trkpt><trkpt lat="46.04156" lon="12.3086017"><ele>242.0</ele><time>2026-05-02T17:07:04.398Z</time></trkpt><trkpt lat="46.0414133" lon="12.30852"><ele>239.0</ele><time>2026-05-02T17:07:05.399Z</time></trkpt><trkpt lat="46.041275" lon="12.30844"><ele>239.0</ele><time>2026-05-02T17:07:06.399Z</time></trkpt><trkpt lat="46.0411333" lon="12.3083667"><ele>239.0</ele><time>2026-05-02T17:07:07.399Z</time></trkpt><trkpt lat="46.0410033" lon="12.308325"><ele>239.0</ele><time>2026-05-02T17:07:08.399Z</time></trkpt><trkpt lat="46.0408733" lon="12.3083267"><ele>239.0</ele><time>2026-05-02T17:07:09.399Z</time></trkpt><trkpt lat="46.04076" lon="12.30837"><ele>232.66666666666669</ele><time>2026-05-02T17:07:10.399Z</time></trkpt><trkpt lat="46.040655" lon="12.3084733"><ele>226.33333333333331</ele><time>2026-05-02T17:07:11.399Z</time></trkpt><trkpt lat="46.040525" lon="12.30861"><ele>220.0</ele><time>2026-05-02T17:07:12.399Z</time></trkpt><trkpt lat="46.04039" lon="12.3087667"><ele>217.33333333333331</ele><time>2026-05-02T17:07:13.399Z</time></trkpt><trkpt lat="46.0402483" lon="12.3089117"><ele>214.66666666666669</ele><time>2026-05-02T17:07:14.399Z</time></trkpt><trkpt lat="46.0401033" lon="12.3090367"><ele>212.0</ele><time>2026-05-02T17:07:15.399Z</time></trkpt><trkpt lat="46.0399633" lon="12.309175"><ele>212.0</ele><time>2026-05-02T17:07:16.399Z</time></trkpt><trkpt lat="46.0398133" lon="12.309315"><ele>212.0</ele><time>2026-05-02T17:07:17.398Z</time></trkpt><trkpt lat="46.0396733" lon="12.3094517"><ele>212.0</ele><time>2026-05-02T17:07:18.399Z</time></trkpt><trkpt lat="46.03953" lon="12.3095867"><ele>212.0</ele><time>2026-05-02T17:07:19.399Z</time></trkpt><trkpt lat="46.0393767" lon="12.3097267"><ele>212.0</ele><time>2026-05-02T17:07:20.399Z</time></trkpt><trkpt lat="46.03923" lon="12.3098533"><ele>212.0</ele><time>2026-05-02T17:07:21.399Z</time></trkpt><trkpt lat="46.0390483" lon="12.3099583"><ele>217.33333333333334</ele><time>2026-05-02T17:07:22.399Z</time></trkpt><trkpt lat="46.0388717" lon="12.3100333"><ele>222.66666666666669</ele><time>2026-05-02T17:07:23.399Z</time></trkpt><trkpt lat="46.0386983" lon="12.3100617"><ele>228.0</ele><time>2026-05-02T17:07:24.399Z</time></trkpt><trkpt lat="46.03853" lon="12.3100583"><ele>228.0</ele><time>2026-05-02T17:07:25.399Z</time></trkpt><trkpt lat="46.0383467" lon="12.3100133"><ele>228.0</ele><time>2026-05-02T17:07:26.399Z</time></trkpt><trkpt lat="46.0381767" lon="12.3099233"><ele>228.0</ele><time>2026-05-02T17:07:27.399Z</time></trkpt><trkpt lat="46.03801" lon="12.30979"><ele>222.0</ele><time>2026-05-02T17:07:28.398Z</time></trkpt><trkpt lat="46.037865" lon="12.3095833"><ele>216.0</ele><time>2026-05-02T17:07:29.399Z</time></trkpt><trkpt lat="46.037705" lon="12.30942"><ele>210.0</ele><time>2026-05-02T17:07:30.399Z</time></trkpt><trkpt lat="46.0375517" lon="12.3092617"><ele>208.0</ele><time>2026-05-02T17:07:31.399Z</time></trkpt><trkpt lat="46.0373633" lon="12.3091283"><ele>206.0</ele><time>2026-05-02T17:07:32.399Z</time></trkpt><trkpt lat="46.037175" lon="12.309"><ele>204.0</ele><time>2026-05-02T17:07:33.398Z</time></trkpt><trkpt lat="46.0369767" lon="12.3089017"><ele>204.0</ele><time>2026-05-02T17:07:34.398Z</time></trkpt><trkpt lat="46.036775" lon="12.3088333"><ele>204.0</ele><time>2026-05-02T17:07:35.399Z</time></trkpt><trkpt lat="46.0365517" lon="12.3087817"><ele>204.0</ele><time>2026-05-02T17:07:36.399Z</time></trkpt><trkpt lat="46.0363633" lon="12.3086967"><ele>205.33333333333331</ele><time>2026-05-02T17:07:37.399Z</time></trkpt><trkpt lat="46.03619" lon="12.3085933"><ele>206.66666666666666</ele><time>2026-05-02T17:07:38.398Z</time></trkpt><trkpt lat="46.0360183" lon="12.3084683"><ele>208.0</ele><time>2026-05-02T17:07:39.399Z</time></trkpt><trkpt lat="46.0358417" lon="12.3083383"><ele>204.0</ele><time>2026-05-02T17:07:40.399Z</time></trkpt><trkpt lat="46.03567" lon="12.30818"><ele>200.0</ele><time>2026-05-02T17:07:41.399Z</time></trkpt><trkpt lat="46.0355033" lon="12.3080067"><ele>196.0</ele><time>2026-05-02T17:07:42.399Z</time></trkpt><trkpt lat="46.035335" lon="12.30782"><ele>196.0</ele><time>2026-05-02T17:07:43.399Z</time></trkpt><trkpt lat="46.0351817" lon="12.3076233"><ele>196.0</ele><time>2026-05-02T17:07:44.399Z</time></trkpt><trkpt lat="46.0350333" lon="12.3074167"><ele>196.0</ele><time>2026-05-02T17:07:45.399Z</time></trkpt><trkpt lat="46.0348867" lon="12.3072067"><ele>195.66666666666666</ele><time>2026-05-02T17:07:46.399Z</time></trkpt><trkpt lat="46.0347483" lon="12.3069933"><ele>195.33333333333331</ele><time>2026-05-02T17:07:47.399Z</time></trkpt><trkpt lat="46.034605" lon="12.3067817"><ele>195.0</ele><time>2026-05-02T17:07:48.399Z</time></trkpt><trkpt lat="46.0344617" lon="12.3065683"><ele>193.33333333333334</ele><time>2026-05-02T17:07:49.399Z</time></trkpt><trkpt lat="46.0343033" lon="12.306365"><ele>191.66666666666669</ele><time>2026-05-02T17:07:50.399Z</time></trkpt><trkpt lat="46.0341383" lon="12.3061817"><ele>190.0</ele><time>2026-05-02T17:07:51.399Z</time></trkpt><trkpt lat="46.0339717" lon="12.3060133"><ele>189.66666666666669</ele><time>2026-05-02T17:07:52.398Z</time></trkpt><trkpt lat="46.0337983" lon="12.3058533"><ele>189.33333333333334</ele><time>2026-05-02T17:07:53.399Z</time></trkpt><trkpt lat="46.0336367" lon="12.305675"><ele>189.0</ele><time>2026-05-02T17:07:54.399Z</time></trkpt><trkpt lat="46.0334733" lon="12.3054967"><ele>189.33333333333334</ele><time>2026-05-02T17:07:55.399Z</time></trkpt><trkpt lat="46.033315" lon="12.3053217"><ele>189.66666666666669</ele><time>2026-05-02T17:07:56.399Z</time></trkpt><trkpt lat="46.033155" lon="12.3051367"><ele>190.0</ele><time>2026-05-02T17:07:57.399Z</time></trkpt><trkpt lat="46.0329867" lon="12.3049683"><ele>190.0</ele><time>2026-05-02T17:07:58.399Z</time></trkpt><trkpt lat="46.0328233" lon="12.3047983"><ele>190.0</ele><time>2026-05-02T17:07:59.399Z</time></trkpt><trkpt lat="46.0326667" lon="12.3046267"><ele>190.0</ele><time>2026-05-02T17:08:00.399Z</time></trkpt><trkpt lat="46.03251" lon="12.30446"><ele>192.0</ele><time>2026-05-02T17:08:01.399Z</time></trkpt><trkpt lat="46.0323633" lon="12.3043"><ele>194.0</ele><time>2026-05-02T17:08:02.399Z</time></trkpt><trkpt lat="46.0322117" lon="12.3041283"><ele>196.0</ele><time>2026-05-02T17:08:03.398Z</time></trkpt><trkpt lat="46.0320617" lon="12.3039483"><ele>193.66666666666666</ele><time>2026-05-02T17:08:04.398Z</time></trkpt><trkpt lat="46.031925" lon="12.3037533"><ele>191.33333333333331</ele><time>2026-05-02T17:08:05.398Z</time></trkpt><trkpt lat="46.0318117" lon="12.3035367"><ele>189.0</ele><time>2026-05-02T17:08:06.399Z</time></trkpt><trkpt lat="46.0317033" lon="12.3033083"><ele>192.33333333333331</ele><time>2026-05-02T17:08:07.399Z</time></trkpt><trkpt lat="46.0316033" lon="12.3030767"><ele>195.66666666666666</ele><time>2026-05-02T17:08:08.399Z</time></trkpt><trkpt lat="46.0315067" lon="12.3028483"><ele>199.0</ele><time>2026-05-02T17:08:09.399Z</time></trkpt><trkpt lat="46.031415" lon="12.3026267"><ele>199.0</ele><time>2026-05-02T17:08:10.399Z</time></trkpt><trkpt lat="46.0313217" lon="12.3024317"><ele>199.0</ele><time>2026-05-02T17:08:11.399Z</time></trkpt><trkpt lat="46.0312317" lon="12.3022533"><ele>199.0</ele><time>2026-05-02T17:08:12.399Z</time></trkpt><trkpt lat="46.0311283" lon="12.30211"><ele>195.0</ele><time>2026-05-02T17:08:13.399Z</time></trkpt><trkpt lat="46.0310117" lon="12.3019867"><ele>191.0</ele><time>2026-05-02T17:08:14.399Z</time></trkpt><trkpt lat="46.0308917" lon="12.3018883"><ele>187.0</ele><time>2026-05-02T17:08:15.398Z</time></trkpt><trkpt lat="46.030775" lon="12.301835"><ele>183.0</ele><time>2026-05-02T17:08:16.398Z</time></trkpt><trkpt lat="46.0306733" lon="12.301845"><ele>183.5</ele><time>2026-05-02T17:08:17.399Z</time></trkpt><trkpt lat="46.03057" lon="12.301895"><ele>184.0</ele><time>2026-05-02T17:08:18.399Z</time></trkpt><trkpt lat="46.030465" lon="12.3020017"><ele>184.5</ele><time>2026-05-02T17:08:19.398Z</time></trkpt><trkpt lat="46.0303767" lon="12.3021517"><ele>185.0</ele><time>2026-05-02T17:08:20.399Z</time></trkpt><trkpt lat="46.03028" lon="12.3023317"><ele>185.0</ele><time>2026-05-02T17:08:21.399Z</time></trkpt><trkpt lat="46.030165" lon="12.302505"><ele>185.0</ele><time>2026-05-02T17:08:22.398Z</time></trkpt><trkpt lat="46.0300433" lon="12.3026967"><ele>185.0</ele><time>2026-05-02T17:08:23.398Z</time></trkpt><trkpt lat="46.0299383" lon="12.3029217"><ele>181.33333333333331</ele><time>2026-05-02T17:08:24.399Z</time></trkpt><trkpt lat="46.029855" lon="12.30317"><ele>177.66666666666666</ele><time>2026-05-02T17:08:25.399Z</time></trkpt><trkpt lat="46.0297917" lon="12.3033633"><ele>174.0</ele><time>2026-05-02T17:08:26.399Z</time></trkpt><trkpt lat="46.0297433" lon="12.3035333"><ele>174.0</ele><time>2026-05-02T17:08:27.398Z</time></trkpt><trkpt lat="46.029705" lon="12.30368"><ele>174.0</ele><time>2026-05-02T17:08:28.398Z</time></trkpt><trkpt lat="46.0296317" lon="12.3038133"><ele>174.0</ele><time>2026-05-02T17:08:29.399Z</time></trkpt><trkpt lat="46.0295383" lon="12.303905"><ele>174.0</ele><time>2026-05-02T17:08:30.398Z</time></trkpt><trkpt lat="46.02943" lon="12.3039383"><ele>174.0</ele><time>2026-05-02T17:08:31.398Z</time></trkpt><trkpt lat="46.0293033" lon="12.3039333"><ele>174.0</ele><time>2026-05-02T17:08:32.399Z</time></trkpt><trkpt lat="46.0291867" lon="12.3038467"><ele>174.0</ele><time>2026-05-02T17:08:33.399Z</time></trkpt><trkpt lat="46.0290717" lon="12.3037283"><ele>174.0</ele><time>2026-05-02T17:08:34.399Z</time></trkpt><trkpt lat="46.02897" lon="12.30357"><ele>174.66666666666666</ele><time>2026-05-02T17:08:35.399Z</time></trkpt><trkpt lat="46.028895" lon="12.303385"><ele>175.33333333333331</ele><time>2026-05-02T17:08:36.399Z</time></trkpt><trkpt lat="46.0288417" lon="12.3031767"><ele>176.0</ele><time>2026-05-02T17:08:37.399Z</time></trkpt><trkpt lat="46.0288033" lon="12.302965"><ele>172.33333333333331</ele><time>2026-05-02T17:08:38.398Z</time></trkpt><trkpt lat="46.0287883" lon="12.3027483"><ele>168.66666666666666</ele><time>2026-05-02T17:08:39.399Z</time></trkpt><trkpt lat="46.0287833" lon="12.30252"><ele>165.0</ele><time>2026-05-02T17:08:40.399Z</time></trkpt><trkpt lat="46.028775" lon="12.3023033"><ele>165.0</ele><time>2026-05-02T17:08:41.399Z</time></trkpt><trkpt lat="46.0287617" lon="12.3020917"><ele>165.0</ele><time>2026-05-02T17:08:42.399Z</time></trkpt><trkpt lat="46.0287433" lon="12.3018833"><ele>165.0</ele><time>2026-05-02T17:08:43.398Z</time></trkpt><trkpt lat="46.0286967" lon="12.3017"><ele>165.0</ele><time>2026-05-02T17:08:44.399Z</time></trkpt><trkpt lat="46.0286483" lon="12.3015267"><ele>165.5</ele><time>2026-05-02T17:08:45.399Z</time></trkpt><trkpt lat="46.0285867" lon="12.301375"><ele>166.0</ele><time>2026-05-02T17:08:46.399Z</time></trkpt><trkpt lat="46.0285183" lon="12.3012217"><ele>166.5</ele><time>2026-05-02T17:08:47.399Z</time></trkpt><trkpt lat="46.0284383" lon="12.30109"><ele>167.0</ele><time>2026-05-02T17:08:48.399Z</time></trkpt><trkpt lat="46.0283533" lon="12.3009517"><ele>166.25</ele><time>2026-05-02T17:08:49.398Z</time></trkpt><trkpt lat="46.02826" lon="12.3008283"><ele>165.5</ele><time>2026-05-02T17:08:50.399Z</time></trkpt><trkpt lat="46.0281567" lon="12.3007083"><ele>164.75</ele><time>2026-05-02T17:08:51.398Z</time></trkpt><trkpt lat="46.0280633" lon="12.3005833"><ele>164.0</ele><time>2026-05-02T17:08:52.399Z</time></trkpt><trkpt lat="46.0279667" lon="12.30046"><ele>164.0</ele><time>2026-05-02T17:08:53.399Z</time></trkpt><trkpt lat="46.0278767" lon="12.30033"><ele>164.0</ele><time>2026-05-02T17:08:54.398Z</time></trkpt><trkpt lat="46.0277767" lon="12.300195"><ele>164.0</ele><time>2026-05-02T17:08:55.399Z</time></trkpt><trkpt lat="46.027675" lon="12.30006"><ele>164.0</ele><time>2026-05-02T17:08:56.399Z</time></trkpt><trkpt lat="46.0275783" lon="12.299925"><ele>164.0</ele><time>2026-05-02T17:08:57.398Z</time></trkpt><trkpt lat="46.0274817" lon="12.2997867"><ele>164.0</ele><time>2026-05-02T17:08:58.398Z</time></trkpt><trkpt lat="46.0273867" lon="12.29964"><ele>164.0</ele><time>2026-05-02T17:08:59.398Z</time></trkpt><trkpt lat="46.0272883" lon="12.2995033"><ele>164.0</ele><time>2026-05-02T17:09:00.398Z</time></trkpt><trkpt lat="46.0271983" lon="12.2993583"><ele>164.25</ele><time>2026-05-02T17:09:01.398Z</time></trkpt><trkpt lat="46.0271017" lon="12.29922"><ele>164.5</ele><time>2026-05-02T17:09:02.399Z</time></trkpt><trkpt lat="46.0270017" lon="12.299075"><ele>164.75</ele><time>2026-05-02T17:09:03.399Z</time></trkpt><trkpt lat="46.0269" lon="12.2989233"><ele>165.0</ele><time>2026-05-02T17:09:04.399Z</time></trkpt><trkpt lat="46.0267867" lon="12.2987683"><ele>165.33333333333334</ele><time>2026-05-02T17:09:05.399Z</time></trkpt><trkpt lat="46.0266683" lon="12.2986067"><ele>165.66666666666669</ele><time>2026-05-02T17:09:06.399Z</time></trkpt><trkpt lat="46.0265517" lon="12.29845"><ele>166.0</ele><time>2026-05-02T17:09:07.399Z</time></trkpt><trkpt lat="46.0264367" lon="12.2982983"><ele>166.0</ele><time>2026-05-02T17:09:08.399Z</time></trkpt><trkpt lat="46.0263267" lon="12.2981417"><ele>166.0</ele><time>2026-05-02T17:09:09.399Z</time></trkpt><trkpt lat="46.0262183" lon="12.2979833"><ele>166.0</ele><time>2026-05-02T17:09:10.399Z</time></trkpt><trkpt lat="46.0261167" lon="12.2978167"><ele>166.0</ele><time>2026-05-02T17:09:11.398Z</time></trkpt><trkpt lat="46.0260267" lon="12.2976467"><ele>166.0</ele><time>2026-05-02T17:09:12.399Z</time></trkpt><trkpt lat="46.0259283" lon="12.2974583"><ele>166.0</ele><time>2026-05-02T17:09:13.399Z</time></trkpt><trkpt lat="46.0258367" lon="12.2972767"><ele>164.0</ele><time>2026-05-02T17:09:14.399Z</time></trkpt><trkpt lat="46.0257467" lon="12.297115"><ele>162.0</ele><time>2026-05-02T17:09:15.398Z</time></trkpt><trkpt lat="46.0256633" lon="12.296945"><ele>160.0</ele><time>2026-05-02T17:09:16.398Z</time></trkpt><trkpt lat="46.0255783" lon="12.2967817"><ele>158.0</ele><time>2026-05-02T17:09:17.399Z</time></trkpt><trkpt lat="46.0254817" lon="12.2966283"><ele>158.0</ele><time>2026-05-02T17:09:18.399Z</time></trkpt><trkpt lat="46.0253833" lon="12.2964817"><ele>158.0</ele><time>2026-05-02T17:09:19.398Z</time></trkpt><trkpt lat="46.0252833" lon="12.2963383"><ele>158.0</ele><time>2026-05-02T17:09:20.399Z</time></trkpt><trkpt lat="46.0251733" lon="12.2962017"><ele>158.0</ele><time>2026-05-02T17:09:21.398Z</time></trkpt><trkpt lat="46.0250533" lon="12.2960717"><ele>160.0</ele><time>2026-05-02T17:09:22.399Z</time></trkpt><trkpt lat="46.0249217" lon="12.2959383"><ele>162.0</ele><time>2026-05-02T17:09:23.398Z</time></trkpt><trkpt lat="46.0247833" lon="12.2958033"><ele>164.0</ele><time>2026-05-02T17:09:24.399Z</time></trkpt><trkpt lat="46.0246283" lon="12.29568"><ele>166.66666666666666</ele><time>2026-05-02T17:09:25.399Z</time></trkpt><trkpt lat="46.0244833" lon="12.2955583"><ele>169.33333333333334</ele><time>2026-05-02T17:09:26.399Z</time></trkpt><trkpt lat="46.024335" lon="12.2954283"><ele>172.0</ele><time>2026-05-02T17:09:27.399Z</time></trkpt><trkpt lat="46.0241983" lon="12.2953117"><ele>170.25</ele><time>2026-05-02T17:09:28.398Z</time></trkpt><trkpt lat="46.0240667" lon="12.2951933"><ele>168.5</ele><time>2026-05-02T17:09:29.399Z</time></trkpt><trkpt lat="46.0239317" lon="12.2950883"><ele>166.75</ele><time>2026-05-02T17:09:30.398Z</time></trkpt><trkpt lat="46.0238017" lon="12.29501"><ele>165.0</ele><time>2026-05-02T17:09:31.399Z</time></trkpt><trkpt lat="46.0236683" lon="12.294945"><ele>165.0</ele><time>2026-05-02T17:09:32.399Z</time></trkpt><trkpt lat="46.0235267" lon="12.2948933"><ele>165.0</ele><time>2026-05-02T17:09:33.398Z</time></trkpt><trkpt lat="46.0234" lon="12.2948133"><ele>165.0</ele><time>2026-05-02T17:09:34.398Z</time></trkpt><trkpt lat="46.0232817" lon="12.2947117"><ele>165.0</ele><time>2026-05-02T17:09:35.399Z</time></trkpt><trkpt lat="46.0231767" lon="12.294585"><ele>164.5</ele><time>2026-05-02T17:09:36.399Z</time></trkpt><trkpt lat="46.0230767" lon="12.294445"><ele>164.0</ele><time>2026-05-02T17:09:37.399Z</time></trkpt><trkpt lat="46.0229717" lon="12.294285"><ele>163.5</ele><time>2026-05-02T17:09:38.399Z</time></trkpt><trkpt lat="46.0228783" lon="12.2941267"><ele>163.0</ele><time>2026-05-02T17:09:39.399Z</time></trkpt><trkpt lat="46.0227683" lon="12.293985"><ele>163.75</ele><time>2026-05-02T17:09:40.399Z</time></trkpt><trkpt lat="46.022665" lon="12.2938383"><ele>164.5</ele><time>2026-05-02T17:09:41.399Z</time></trkpt><trkpt lat="46.0225517" lon="12.2936983"><ele>165.25</ele><time>2026-05-02T17:09:42.399Z</time></trkpt><trkpt lat="46.0224433" lon="12.2935533"><ele>166.0</ele><time>2026-05-02T17:09:43.399Z</time></trkpt><trkpt lat="46.0223317" lon="12.293395"><ele>166.0</ele><time>2026-05-02T17:09:44.399Z</time></trkpt><trkpt lat="46.022225" lon="12.2932267"><ele>166.0</ele><time>2026-05-02T17:09:45.399Z</time></trkpt><trkpt lat="46.022095" lon="12.2930483"><ele>166.0</ele><time>2026-05-02T17:09:46.399Z</time></trkpt><trkpt lat="46.0219483" lon="12.2928517"><ele>167.0</ele><time>2026-05-02T17:09:47.399Z</time></trkpt><trkpt lat="46.0218" lon="12.292635"><ele>168.0</ele><time>2026-05-02T17:09:48.398Z</time></trkpt><trkpt lat="46.02165" lon="12.2924317"><ele>169.0</ele><time>2026-05-02T17:09:49.398Z</time></trkpt><trkpt lat="46.021515" lon="12.2922383"><ele>169.33333333333334</ele><time>2026-05-02T17:09:50.399Z</time></trkpt><trkpt lat="46.0213783" lon="12.2920583"><ele>169.66666666666666</ele><time>2026-05-02T17:09:51.398Z</time></trkpt><trkpt lat="46.0212383" lon="12.29189"><ele>170.0</ele><time>2026-05-02T17:09:52.398Z</time></trkpt><trkpt lat="46.0210883" lon="12.2917283"><ele>170.0</ele><time>2026-05-02T17:09:53.399Z</time></trkpt><trkpt lat="46.02093" lon="12.2915833"><ele>170.0</ele><time>2026-05-02T17:09:54.399Z</time></trkpt><trkpt lat="46.020775" lon="12.291465"><ele>170.0</ele><time>2026-05-02T17:09:55.398Z</time></trkpt><trkpt lat="46.0206117" lon="12.29136"><ele>170.0</ele><time>2026-05-02T17:09:56.399Z</time></trkpt><trkpt lat="46.020445" lon="12.2912583"><ele>170.0</ele><time>2026-05-02T17:09:57.399Z</time></trkpt><trkpt lat="46.0202767" lon="12.2911567"><ele>170.0</ele><time>2026-05-02T17:09:58.399Z</time></trkpt><trkpt lat="46.0201033" lon="12.2910617"><ele>168.33333333333331</ele><time>2026-05-02T17:09:59.398Z</time></trkpt><trkpt lat="46.0199333" lon="12.2909633"><ele>166.66666666666666</ele><time>2026-05-02T17:10:00.399Z</time></trkpt><trkpt lat="46.0197583" lon="12.2908767"><ele>165.0</ele><time>2026-05-02T17:10:01.399Z</time></trkpt><trkpt lat="46.01958" lon="12.2907917"><ele>165.0</ele><time>2026-05-02T17:10:02.399Z</time></trkpt><trkpt lat="46.019405" lon="12.2906933"><ele>165.0</ele><time>2026-05-02T17:10:03.399Z</time></trkpt><trkpt lat="46.019245" lon="12.2905967"><ele>165.0</ele><time>2026-05-02T17:10:04.398Z</time></trkpt><trkpt lat="46.01908" lon="12.2905067"><ele>164.66666666666666</ele><time>2026-05-02T17:10:05.398Z</time></trkpt><trkpt lat="46.0189133" lon="12.2904067"><ele>164.33333333333331</ele><time>2026-05-02T17:10:06.398Z</time></trkpt><trkpt lat="46.01874" lon="12.2903"><ele>164.0</ele><time>2026-05-02T17:10:07.399Z</time></trkpt><trkpt lat="46.0185683" lon="12.2901983"><ele>164.0</ele><time>2026-05-02T17:10:08.398Z</time></trkpt><trkpt lat="46.0183933" lon="12.2901017"><ele>164.0</ele><time>2026-05-02T17:10:09.398Z</time></trkpt><trkpt lat="46.0182183" lon="12.2899833"><ele>164.0</ele><time>2026-05-02T17:10:10.399Z</time></trkpt><trkpt lat="46.01805" lon="12.2898667"><ele>164.33333333333331</ele><time>2026-05-02T17:10:11.398Z</time></trkpt><trkpt lat="46.0178817" lon="12.28974"><ele>164.66666666666666</ele><time>2026-05-02T17:10:12.399Z</time></trkpt><trkpt lat="46.0177233" lon="12.2896217"><ele>165.0</ele><time>2026-05-02T17:10:13.399Z</time></trkpt><trkpt lat="46.01758" lon="12.289495"><ele>163.66666666666666</ele><time>2026-05-02T17:10:14.399Z</time></trkpt><trkpt lat="46.017435" lon="12.289365"><ele>162.33333333333331</ele><time>2026-05-02T17:10:15.399Z</time></trkpt><trkpt lat="46.0172883" lon="12.2892267"><ele>161.0</ele><time>2026-05-02T17:10:16.399Z</time></trkpt><trkpt lat="46.0171383" lon="12.28909"><ele>161.0</ele><time>2026-05-02T17:10:17.399Z</time></trkpt><trkpt lat="46.0169883" lon="12.288965"><ele>161.0</ele><time>2026-05-02T17:10:18.399Z</time></trkpt><trkpt lat="46.0168267" lon="12.288865"><ele>161.0</ele><time>2026-05-02T17:10:19.399Z</time></trkpt><trkpt lat="46.0166633" lon="12.2887967"><ele>168.0</ele><time>2026-05-02T17:10:20.398Z</time></trkpt><trkpt lat="46.01651" lon="12.2887583"><ele>175.0</ele><time>2026-05-02T17:10:21.399Z</time></trkpt><trkpt lat="46.0163467" lon="12.2887433"><ele>182.0</ele><time>2026-05-02T17:10:22.399Z</time></trkpt><trkpt lat="46.0161567" lon="12.2887517"><ele>182.0</ele><time>2026-05-02T17:10:23.399Z</time></trkpt><trkpt lat="46.0159667" lon="12.2887267"><ele>182.0</ele><time>2026-05-02T17:10:24.398Z</time></trkpt><trkpt lat="46.015775" lon="12.2886967"><ele>182.0</ele><time>2026-05-02T17:10:25.399Z</time></trkpt><trkpt lat="46.0155967" lon="12.2886983"><ele>180.66666666666666</ele><time>2026-05-02T17:10:26.399Z</time></trkpt><trkpt lat="46.015415" lon="12.288735"><ele>179.33333333333334</ele><time>2026-05-02T17:10:27.399Z</time></trkpt><trkpt lat="46.015215" lon="12.288785"><ele>178.0</ele><time>2026-05-02T17:10:28.399Z</time></trkpt><trkpt lat="46.0150117" lon="12.288865"><ele>180.0</ele><time>2026-05-02T17:10:29.399Z</time></trkpt><trkpt lat="46.014815" lon="12.2889183"><ele>182.0</ele><time>2026-05-02T17:10:30.399Z</time></trkpt><trkpt lat="46.0146317" lon="12.2889483"><ele>184.0</ele><time>2026-05-02T17:10:31.398Z</time></trkpt><trkpt lat="46.0144517" lon="12.288975"><ele>188.0</ele><time>2026-05-02T17:10:32.398Z</time></trkpt><trkpt lat="46.0143" lon="12.2890183"><ele>192.0</ele><time>2026-05-02T17:10:33.399Z</time></trkpt><trkpt lat="46.0141667" lon="12.2890933"><ele>196.0</ele><time>2026-05-02T17:10:34.399Z</time></trkpt><trkpt lat="46.0140367" lon="12.2892233"><ele>196.0</ele><time>2026-05-02T17:10:35.399Z</time></trkpt><trkpt lat="46.013945" lon="12.2894033"><ele>196.0</ele><time>2026-05-02T17:10:36.399Z</time></trkpt><trkpt lat="46.0138667" lon="12.2896033"><ele>196.0</ele><time>2026-05-02T17:10:37.399Z</time></trkpt><trkpt lat="46.0137783" lon="12.289795"><ele>190.5</ele><time>2026-05-02T17:10:38.399Z</time></trkpt><trkpt lat="46.0137117" lon="12.2899583"><ele>185.0</ele><time>2026-05-02T17:10:39.399Z</time></trkpt><trkpt lat="46.0136283" lon="12.2900883"><ele>179.5</ele><time>2026-05-02T17:10:40.398Z</time></trkpt><trkpt lat="46.01356" lon="12.2901667"><ele>174.0</ele><time>2026-05-02T17:10:41.398Z</time></trkpt><trkpt lat="46.013455" lon="12.2902183"><ele>174.0</ele><time>2026-05-02T17:10:42.399Z</time></trkpt><trkpt lat="46.013325" lon="12.2902267"><ele>174.0</ele><time>2026-05-02T17:10:43.399Z</time></trkpt><trkpt lat="46.0131683" lon="12.2901283"><ele>174.0</ele><time>2026-05-02T17:10:44.399Z</time></trkpt><trkpt lat="46.012975" lon="12.29001"><ele>173.0</ele><time>2026-05-02T17:10:45.399Z</time></trkpt><trkpt lat="46.0127783" lon="12.289905"><ele>172.0</ele><time>2026-05-02T17:10:46.398Z</time></trkpt><trkpt lat="46.01258" lon="12.2897967"><ele>171.0</ele><time>2026-05-02T17:10:47.399Z</time></trkpt><trkpt lat="46.0124067" lon="12.2897167"><ele>171.0</ele><time>2026-05-02T17:10:48.399Z</time></trkpt><trkpt lat="46.0122083" lon="12.2896883"><ele>171.0</ele><time>2026-05-02T17:10:49.399Z</time></trkpt><trkpt lat="46.012025" lon="12.28967"><ele>171.0</ele><time>2026-05-02T17:10:50.399Z</time></trkpt><trkpt lat="46.01185" lon="12.2896417"><ele>171.0</ele><time>2026-05-02T17:10:51.399Z</time></trkpt><trkpt lat="46.0116883" lon="12.2895783"><ele>171.0</ele><time>2026-05-02T17:10:52.398Z</time></trkpt><trkpt lat="46.0115533" lon="12.2894717"><ele>171.0</ele><time>2026-05-02T17:10:53.398Z</time></trkpt><trkpt lat="46.01142" lon="12.2893467"><ele>167.66666666666666</ele><time>2026-05-02T17:10:54.399Z</time></trkpt><trkpt lat="46.011295" lon="12.2891783"><ele>164.33333333333331</ele><time>2026-05-02T17:10:55.398Z</time></trkpt><trkpt lat="46.0111483" lon="12.28901"><ele>161.0</ele><time>2026-05-02T17:10:56.399Z</time></trkpt><trkpt lat="46.01102" lon="12.2888133"><ele>161.0</ele><time>2026-05-02T17:10:57.399Z</time></trkpt><trkpt lat="46.0108917" lon="12.2886183"><ele>161.0</ele><time>2026-05-02T17:10:58.399Z</time></trkpt><trkpt lat="46.010765" lon="12.2884067"><ele>161.0</ele><time>2026-05-02T17:10:59.399Z</time></trkpt><trkpt lat="46.0106533" lon="12.2882217"><ele>161.0</ele><time>2026-05-02T17:11:00.399Z</time></trkpt><trkpt lat="46.0105333" lon="12.2880683"><ele>161.0</ele><time>2026-05-02T17:11:01.399Z</time></trkpt><trkpt lat="46.010415" lon="12.28791"><ele>161.0</ele><time>2026-05-02T17:11:02.399Z</time></trkpt><trkpt lat="46.010315" lon="12.2877617"><ele>161.0</ele><time>2026-05-02T17:11:03.398Z</time></trkpt><trkpt lat="46.0102083" lon="12.2876267"><ele>161.0</ele><time>2026-05-02T17:11:04.399Z</time></trkpt><trkpt lat="46.0100967" lon="12.2875083"><ele>161.0</ele><time>2026-05-02T17:11:05.399Z</time></trkpt><trkpt lat="46.0099883" lon="12.2874133"><ele>161.0</ele><time>2026-05-02T17:11:06.399Z</time></trkpt><trkpt lat="46.009885" lon="12.2873383"><ele>160.8</ele><time>2026-05-02T17:11:07.399Z</time></trkpt><trkpt lat="46.0097683" lon="12.287295"><ele>160.60000000000002</ele><time>2026-05-02T17:11:08.399Z</time></trkpt><trkpt lat="46.0096633" lon="12.28725"><ele>160.4</ele><time>2026-05-02T17:11:09.398Z</time></trkpt><trkpt lat="46.0095817" lon="12.2872017"><ele>160.2</ele><time>2026-05-02T17:11:10.399Z</time></trkpt><trkpt lat="46.0095083" lon="12.2871233"><ele>160.0</ele><time>2026-05-02T17:11:11.399Z</time></trkpt><trkpt lat="46.0094333" lon="12.2869917"><ele>160.0</ele><time>2026-05-02T17:11:12.399Z</time></trkpt><trkpt lat="46.0093767" lon="12.286845"><ele>160.0</ele><time>2026-05-02T17:11:13.399Z</time></trkpt><trkpt lat="46.0093383" lon="12.2866767"><ele>160.0</ele><time>2026-05-02T17:11:14.399Z</time></trkpt><trkpt lat="46.0092983" lon="12.2865217"><ele>160.0</ele><time>2026-05-02T17:11:15.399Z</time></trkpt><trkpt lat="46.0092333" lon="12.2863917"><ele>159.75</ele><time>2026-05-02T17:11:16.399Z</time></trkpt><trkpt lat="46.00914" lon="12.2862817"><ele>159.5</ele><time>2026-05-02T17:11:17.399Z</time></trkpt><trkpt lat="46.00902" lon="12.286205"><ele>159.25</ele><time>2026-05-02T17:11:18.399Z</time></trkpt><trkpt lat="46.008885" lon="12.28616"><ele>159.0</ele><time>2026-05-02T17:11:19.399Z</time></trkpt><trkpt lat="46.0087367" lon="12.2861383"><ele>159.0</ele><time>2026-05-02T17:11:20.398Z</time></trkpt><trkpt lat="46.0086" lon="12.2861133"><ele>159.0</ele><time>2026-05-02T17:11:21.399Z</time></trkpt><trkpt lat="46.008475" lon="12.2860967"><ele>159.0</ele><time>2026-05-02T17:11:22.398Z</time></trkpt><trkpt lat="46.0083517" lon="12.2860967"><ele>159.0</ele><time>2026-05-02T17:11:23.399Z</time></trkpt><trkpt lat="46.008225" lon="12.2860717"><ele>158.33333333333334</ele><time>2026-05-02T17:11:24.398Z</time></trkpt><trkpt lat="46.0080767" lon="12.2860417"><ele>157.66666666666669</ele><time>2026-05-02T17:11:25.398Z</time></trkpt><trkpt lat="46.0079217" lon="12.286005"><ele>157.0</ele><time>2026-05-02T17:11:26.399Z</time></trkpt><trkpt lat="46.0077617" lon="12.28598"><ele>157.0</ele><time>2026-05-02T17:11:27.399Z</time></trkpt><trkpt lat="46.0076033" lon="12.2859517"><ele>157.0</ele><time>2026-05-02T17:11:28.399Z</time></trkpt><trkpt lat="46.007445" lon="12.285925"><ele>157.0</ele><time>2026-05-02T17:11:29.398Z</time></trkpt><trkpt lat="46.00729" lon="12.2859"><ele>156.5</ele><time>2026-05-02T17:11:30.399Z</time></trkpt><trkpt lat="46.0071483" lon="12.285885"><ele>156.0</ele><time>2026-05-02T17:11:31.399Z</time></trkpt><trkpt lat="46.00701" lon="12.2858583"><ele>155.5</ele><time>2026-05-02T17:11:32.399Z</time></trkpt><trkpt lat="46.006875" lon="12.2858367"><ele>155.0</ele><time>2026-05-02T17:11:33.398Z</time></trkpt><trkpt lat="46.006765" lon="12.2858167"><ele>155.0</ele><time>2026-05-02T17:11:34.398Z</time></trkpt><trkpt lat="46.0066833" lon="12.2857917"><ele>155.0</ele><time>2026-05-02T17:11:35.399Z</time></trkpt><trkpt lat="46.0066183" lon="12.2857683"><ele>155.0</ele><time>2026-05-02T17:11:36.399Z</time></trkpt><trkpt lat="46.0065533" lon="12.2857383"><ele>155.0</ele><time>2026-05-02T17:11:37.399Z</time></trkpt><trkpt lat="46.00649" lon="12.2856033"><ele>155.0</ele><time>2026-05-02T17:11:39.399Z</time></trkpt><trkpt lat="46.0064883" lon="12.28549"><ele>155.0</ele><time>2026-05-02T17:11:40.399Z</time></trkpt><trkpt lat="46.0065133" lon="12.2853333"><ele>156.5</ele><time>2026-05-02T17:11:41.399Z</time></trkpt><trkpt lat="46.0065433" lon="12.2851617"><ele>158.0</ele><time>2026-05-02T17:11:42.399Z</time></trkpt><trkpt lat="46.006585" lon="12.2849783"><ele>159.5</ele><time>2026-05-02T17:11:43.399Z</time></trkpt><trkpt lat="46.0066417" lon="12.284795"><ele>161.0</ele><time>2026-05-02T17:11:44.398Z</time></trkpt><trkpt lat="46.0066917" lon="12.2846217"><ele>161.0</ele><time>2026-05-02T17:11:45.399Z</time></trkpt><trkpt lat="46.0067483" lon="12.28445"><ele>161.0</ele><time>2026-05-02T17:11:46.398Z</time></trkpt><trkpt lat="46.006795" lon="12.2843033"><ele>161.0</ele><time>2026-05-02T17:11:47.398Z</time></trkpt><trkpt lat="46.0068333" lon="12.2841667"><ele>161.0</ele><time>2026-05-02T17:11:48.399Z</time></trkpt><trkpt lat="46.00687" lon="12.284045"><ele>161.0</ele><time>2026-05-02T17:11:49.398Z</time></trkpt><trkpt lat="46.0069167" lon="12.28392"><ele>161.25</ele><time>2026-05-02T17:11:50.399Z</time></trkpt><trkpt lat="46.006965" lon="12.2837833"><ele>161.5</ele><time>2026-05-02T17:11:51.399Z</time></trkpt><trkpt lat="46.00701" lon="12.2836333"><ele>161.75</ele><time>2026-05-02T17:11:52.399Z</time></trkpt><trkpt lat="46.0070433" lon="12.2834633"><ele>162.0</ele><time>2026-05-02T17:11:53.399Z</time></trkpt><trkpt lat="46.007065" lon="12.283275"><ele>162.5</ele><time>2026-05-02T17:11:54.399Z</time></trkpt><trkpt lat="46.0070717" lon="12.28309"><ele>163.0</ele><time>2026-05-02T17:11:55.399Z</time></trkpt><trkpt lat="46.0070667" lon="12.2828967"><ele>163.5</ele><time>2026-05-02T17:11:56.399Z</time></trkpt><trkpt lat="46.0070567" lon="12.2827117"><ele>164.0</ele><time>2026-05-02T17:11:57.399Z</time></trkpt><trkpt lat="46.0070483" lon="12.2825333"><ele>164.0</ele><time>2026-05-02T17:11:58.399Z</time></trkpt><trkpt lat="46.0070433" lon="12.2823683"><ele>164.0</ele><time>2026-05-02T17:11:59.399Z</time></trkpt><trkpt lat="46.0070317" lon="12.2822083"><ele>164.0</ele><time>2026-05-02T17:12:00.399Z</time></trkpt><trkpt lat="46.00703" lon="12.28204"><ele>164.0</ele><time>2026-05-02T17:12:01.398Z</time></trkpt><trkpt lat="46.0070217" lon="12.281875"><ele>164.5</ele><time>2026-05-02T17:12:02.399Z</time></trkpt><trkpt lat="46.0070083" lon="12.2817067"><ele>165.0</ele><time>2026-05-02T17:12:03.399Z</time></trkpt><trkpt lat="46.007005" lon="12.2815317"><ele>165.5</ele><time>2026-05-02T17:12:04.399Z</time></trkpt><trkpt lat="46.0069917" lon="12.281365"><ele>166.0</ele><time>2026-05-02T17:12:05.399Z</time></trkpt><trkpt lat="46.0069883" lon="12.281195"><ele>166.0</ele><time>2026-05-02T17:12:06.398Z</time></trkpt><trkpt lat="46.0069817" lon="12.2810233"><ele>166.0</ele><time>2026-05-02T17:12:07.399Z</time></trkpt><trkpt lat="46.00697" lon="12.2808517"><ele>166.0</ele><time>2026-05-02T17:12:08.399Z</time></trkpt><trkpt lat="46.0069633" lon="12.2806767"><ele>166.0</ele><time>2026-05-02T17:12:09.399Z</time></trkpt><trkpt lat="46.0069583" lon="12.280495"><ele>166.25</ele><time>2026-05-02T17:12:10.398Z</time></trkpt><trkpt lat="46.0069517" lon="12.2803067"><ele>166.5</ele><time>2026-05-02T17:12:11.399Z</time></trkpt><trkpt lat="46.006945" lon="12.28011"><ele>166.75</ele><time>2026-05-02T17:12:12.399Z</time></trkpt><trkpt lat="46.00694" lon="12.27992"><ele>167.0</ele><time>2026-05-02T17:12:13.399Z</time></trkpt><trkpt lat="46.00694" lon="12.27973"><ele>167.0</ele><time>2026-05-02T17:12:14.399Z</time></trkpt><trkpt lat="46.0069333" lon="12.2795517"><ele>167.0</ele><time>2026-05-02T17:12:15.399Z</time></trkpt><trkpt lat="46.00693" lon="12.2793783"><ele>167.0</ele><time>2026-05-02T17:12:16.399Z</time></trkpt><trkpt lat="46.0069333" lon="12.2792017"><ele>167.0</ele><time>2026-05-02T17:12:17.399Z</time></trkpt><trkpt lat="46.0069283" lon="12.2790233"><ele>167.0</ele><time>2026-05-02T17:12:18.399Z</time></trkpt><trkpt lat="46.006925" lon="12.27883"><ele>167.0</ele><time>2026-05-02T17:12:19.399Z</time></trkpt><trkpt lat="46.006915" lon="12.2786117"><ele>167.0</ele><time>2026-05-02T17:12:20.399Z</time></trkpt><trkpt lat="46.006905" lon="12.2783717"><ele>167.0</ele><time>2026-05-02T17:12:21.399Z</time></trkpt><trkpt lat="46.0069033" lon="12.2781133"><ele>167.0</ele><time>2026-05-02T17:12:22.399Z</time></trkpt><trkpt lat="46.006895" lon="12.2778483"><ele>167.0</ele><time>2026-05-02T17:12:23.399Z</time></trkpt><trkpt lat="46.00689" lon="12.2775867"><ele>167.33333333333331</ele><time>2026-05-02T17:12:24.399Z</time></trkpt><trkpt lat="46.0068767" lon="12.27733"><ele>167.66666666666666</ele><time>2026-05-02T17:12:25.398Z</time></trkpt><trkpt lat="46.0068617" lon="12.277075"><ele>168.0</ele><time>2026-05-02T17:12:26.399Z</time></trkpt><trkpt lat="46.0068433" lon="12.2768133"><ele>169.33333333333334</ele><time>2026-05-02T17:12:27.399Z</time></trkpt><trkpt lat="46.006815" lon="12.276535"><ele>170.66666666666669</ele><time>2026-05-02T17:12:28.399Z</time></trkpt><trkpt lat="46.006775" lon="12.2762633"><ele>172.0</ele><time>2026-05-02T17:12:29.399Z</time></trkpt><trkpt lat="46.0067417" lon="12.27597"><ele>173.66666666666669</ele><time>2026-05-02T17:12:30.398Z</time></trkpt><trkpt lat="46.00669" lon="12.2757317"><ele>175.33333333333334</ele><time>2026-05-02T17:12:31.399Z</time></trkpt><trkpt lat="46.006635" lon="12.2754883"><ele>177.0</ele><time>2026-05-02T17:12:32.398Z</time></trkpt><trkpt lat="46.0065917" lon="12.2752283"><ele>177.0</ele><time>2026-05-02T17:12:33.399Z</time></trkpt><trkpt lat="46.00655" lon="12.2749717"><ele>177.0</ele><time>2026-05-02T17:12:34.399Z</time></trkpt><trkpt lat="46.00651" lon="12.2747383"><ele>177.0</ele><time>2026-05-02T17:12:35.399Z</time></trkpt><trkpt lat="46.0064783" lon="12.2745217"><ele>178.0</ele><time>2026-05-02T17:12:36.399Z</time></trkpt><trkpt lat="46.00645" lon="12.27432"><ele>179.0</ele><time>2026-05-02T17:12:37.399Z</time></trkpt><trkpt lat="46.0064217" lon="12.2741233"><ele>180.0</ele><time>2026-05-02T17:12:38.398Z</time></trkpt><trkpt lat="46.0063933" lon="12.2739383"><ele>181.0</ele><time>2026-05-02T17:12:39.399Z</time></trkpt><trkpt lat="46.0063633" lon="12.2737583"><ele>183.0</ele><time>2026-05-02T17:12:40.399Z</time></trkpt><trkpt lat="46.006335" lon="12.2735783"><ele>185.0</ele><time>2026-05-02T17:12:41.399Z</time></trkpt><trkpt lat="46.0063067" lon="12.273405"><ele>187.0</ele><time>2026-05-02T17:12:42.399Z</time></trkpt><trkpt lat="46.006285" lon="12.2732333"><ele>189.0</ele><time>2026-05-02T17:12:43.399Z</time></trkpt><trkpt lat="46.0062583" lon="12.2730683"><ele>189.5</ele><time>2026-05-02T17:12:44.398Z</time></trkpt><trkpt lat="46.0062333" lon="12.2728917"><ele>190.0</ele><time>2026-05-02T17:12:45.399Z</time></trkpt><trkpt lat="46.006205" lon="12.2726967"><ele>190.5</ele><time>2026-05-02T17:12:46.399Z</time></trkpt><trkpt lat="46.0061717" lon="12.272485"><ele>191.0</ele><time>2026-05-02T17:12:47.399Z</time></trkpt><trkpt lat="46.0061333" lon="12.2722633"><ele>191.33333333333331</ele><time>2026-05-02T17:12:48.399Z</time></trkpt><trkpt lat="46.0060917" lon="12.2720383"><ele>191.66666666666666</ele><time>2026-05-02T17:12:49.399Z</time></trkpt><trkpt lat="46.006045" lon="12.2718167"><ele>192.0</ele><time>2026-05-02T17:12:50.399Z</time></trkpt><trkpt lat="46.0060117" lon="12.2715833"><ele>193.0</ele><time>2026-05-02T17:12:51.399Z</time></trkpt><trkpt lat="46.0059683" lon="12.2713483"><ele>194.0</ele><time>2026-05-02T17:12:52.399Z</time></trkpt><trkpt lat="46.0059283" lon="12.2711067"><ele>195.0</ele><time>2026-05-02T17:12:53.399Z</time></trkpt><trkpt lat="46.0058933" lon="12.2708683"><ele>195.0</ele><time>2026-05-02T17:12:54.398Z</time></trkpt><trkpt lat="46.00586" lon="12.2706217"><ele>195.0</ele><time>2026-05-02T17:12:55.399Z</time></trkpt><trkpt lat="46.0058233" lon="12.2703767"><ele>195.0</ele><time>2026-05-02T17:12:56.399Z</time></trkpt><trkpt lat="46.0057883" lon="12.2701367"><ele>194.66666666666669</ele><time>2026-05-02T17:12:57.399Z</time></trkpt><trkpt lat="46.0057567" lon="12.269895"><ele>194.33333333333334</ele><time>2026-05-02T17:12:58.399Z</time></trkpt><trkpt lat="46.00571" lon="12.2696583"><ele>194.0</ele><time>2026-05-02T17:12:59.399Z</time></trkpt><trkpt lat="46.00566" lon="12.269415"><ele>194.0</ele><time>2026-05-02T17:13:00.399Z</time></trkpt><trkpt lat="46.0055933" lon="12.2691733"><ele>194.0</ele><time>2026-05-02T17:13:01.399Z</time></trkpt><trkpt lat="46.00551" lon="12.2689333"><ele>194.0</ele><time>2026-05-02T17:13:02.399Z</time></trkpt><trkpt lat="46.0054267" lon="12.2686733"><ele>196.5</ele><time>2026-05-02T17:13:03.399Z</time></trkpt><trkpt lat="46.0053117" lon="12.268395"><ele>199.0</ele><time>2026-05-02T17:13:04.399Z</time></trkpt><trkpt lat="46.0051917" lon="12.268105"><ele>198.5</ele><time>2026-05-02T17:13:05.399Z</time></trkpt><trkpt lat="46.0050633" lon="12.2677767"><ele>198.0</ele><time>2026-05-02T17:13:06.398Z</time></trkpt><trkpt lat="46.0049417" lon="12.26745"><ele>202.5</ele><time>2026-05-02T17:13:07.399Z</time></trkpt><trkpt lat="46.0048333" lon="12.2671433"><ele>207.0</ele><time>2026-05-02T17:13:08.399Z</time></trkpt><trkpt lat="46.00473" lon="12.2668617"><ele>207.0</ele><time>2026-05-02T17:13:09.399Z</time></trkpt><trkpt lat="46.00463" lon="12.266595"><ele>207.0</ele><time>2026-05-02T17:13:10.399Z</time></trkpt><trkpt lat="46.0045283" lon="12.2663817"><ele>207.0</ele><time>2026-05-02T17:13:11.399Z</time></trkpt><trkpt lat="46.0044133" lon="12.2662083"><ele>209.66666666666669</ele><time>2026-05-02T17:13:12.398Z</time></trkpt><trkpt lat="46.004295" lon="12.2660667"><ele>212.33333333333334</ele><time>2026-05-02T17:13:13.399Z</time></trkpt><trkpt lat="46.004155" lon="12.26597"><ele>215.0</ele><time>2026-05-02T17:13:14.399Z</time></trkpt><trkpt lat="46.0039983" lon="12.2659133"><ele>215.66666666666669</ele><time>2026-05-02T17:13:15.399Z</time></trkpt><trkpt lat="46.003835" lon="12.2658983"><ele>216.33333333333331</ele><time>2026-05-02T17:13:16.399Z</time></trkpt><trkpt lat="46.0036733" lon="12.2659117"><ele>217.0</ele><time>2026-05-02T17:13:17.399Z</time></trkpt><trkpt lat="46.0035033" lon="12.2659367"><ele>217.0</ele><time>2026-05-02T17:13:18.399Z</time></trkpt><trkpt lat="46.0033333" lon="12.2659517"><ele>217.0</ele><time>2026-05-02T17:13:19.398Z</time></trkpt><trkpt lat="46.0031633" lon="12.2659417"><ele>217.0</ele><time>2026-05-02T17:13:20.399Z</time></trkpt><trkpt lat="46.002995" lon="12.2659"><ele>218.0</ele><time>2026-05-02T17:13:21.398Z</time></trkpt><trkpt lat="46.00284" lon="12.2658067"><ele>219.0</ele><time>2026-05-02T17:13:22.398Z</time></trkpt><trkpt lat="46.0026983" lon="12.2656633"><ele>220.0</ele><time>2026-05-02T17:13:23.399Z</time></trkpt><trkpt lat="46.002565" lon="12.2654933"><ele>220.33333333333331</ele><time>2026-05-02T17:13:24.398Z</time></trkpt><trkpt lat="46.0024417" lon="12.2652667"><ele>220.66666666666669</ele><time>2026-05-02T17:13:25.399Z</time></trkpt><trkpt lat="46.0023117" lon="12.265005"><ele>221.0</ele><time>2026-05-02T17:13:26.399Z</time></trkpt><trkpt lat="46.0021767" lon="12.2647333"><ele>224.5</ele><time>2026-05-02T17:13:27.398Z</time></trkpt><trkpt lat="46.0020317" lon="12.2644467"><ele>228.0</ele><time>2026-05-02T17:13:28.399Z</time></trkpt><trkpt lat="46.00189" lon="12.2641583"><ele>232.5</ele><time>2026-05-02T17:13:29.398Z</time></trkpt><trkpt lat="46.0017383" lon="12.2638917"><ele>237.0</ele><time>2026-05-02T17:13:30.399Z</time></trkpt><trkpt lat="46.00161" lon="12.26364"><ele>237.0</ele><time>2026-05-02T17:13:31.399Z</time></trkpt><trkpt lat="46.00148" lon="12.2634067"><ele>237.0</ele><time>2026-05-02T17:13:32.399Z</time></trkpt><trkpt lat="46.0013717" lon="12.2631917"><ele>237.0</ele><time>2026-05-02T17:13:33.398Z</time></trkpt><trkpt lat="46.0012683" lon="12.2629883"><ele>239.0</ele><time>2026-05-02T17:13:34.399Z</time></trkpt><trkpt lat="46.00117" lon="12.2627783"><ele>241.0</ele><time>2026-05-02T17:13:35.399Z</time></trkpt><trkpt lat="46.0010767" lon="12.2625467"><ele>243.0</ele><time>2026-05-02T17:13:36.398Z</time></trkpt><trkpt lat="46.001" lon="12.2623167"><ele>242.66666666666669</ele><time>2026-05-02T17:13:37.398Z</time></trkpt><trkpt lat="46.00095" lon="12.26208"><ele>242.33333333333334</ele><time>2026-05-02T17:13:38.399Z</time></trkpt><trkpt lat="46.00092" lon="12.2618267"><ele>242.0</ele><time>2026-05-02T17:13:39.398Z</time></trkpt><trkpt lat="46.00091" lon="12.2615683"><ele>241.33333333333334</ele><time>2026-05-02T17:13:40.399Z</time></trkpt><trkpt lat="46.0009067" lon="12.2613133"><ele>240.66666666666669</ele><time>2026-05-02T17:13:41.399Z</time></trkpt><trkpt lat="46.00092" lon="12.2610567"><ele>240.0</ele><time>2026-05-02T17:13:42.399Z</time></trkpt><trkpt lat="46.0009533" lon="12.2608033"><ele>238.66666666666669</ele><time>2026-05-02T17:13:43.399Z</time></trkpt><trkpt lat="46.0009917" lon="12.26055"><ele>237.33333333333334</ele><time>2026-05-02T17:13:44.399Z</time></trkpt><trkpt lat="46.0010317" lon="12.2602967"><ele>236.0</ele><time>2026-05-02T17:13:45.398Z</time></trkpt><trkpt lat="46.0010683" lon="12.2600567"><ele>236.0</ele><time>2026-05-02T17:13:46.399Z</time></trkpt><trkpt lat="46.0011" lon="12.2598083"><ele>236.0</ele><time>2026-05-02T17:13:47.399Z</time></trkpt><trkpt lat="46.0011167" lon="12.2595667"><ele>236.0</ele><time>2026-05-02T17:13:48.399Z</time></trkpt><trkpt lat="46.0011117" lon="12.2593133"><ele>236.0</ele><time>2026-05-02T17:13:49.398Z</time></trkpt><trkpt lat="46.0010767" lon="12.25906"><ele>236.0</ele><time>2026-05-02T17:13:50.399Z</time></trkpt><trkpt lat="46.0010317" lon="12.2588183"><ele>236.0</ele><time>2026-05-02T17:13:51.398Z</time></trkpt><trkpt lat="46.0009717" lon="12.258585"><ele>238.0</ele><time>2026-05-02T17:13:52.398Z</time></trkpt><trkpt lat="46.0009" lon="12.25838"><ele>240.0</ele><time>2026-05-02T17:13:53.398Z</time></trkpt><trkpt lat="46.000825" lon="12.2581833"><ele>242.0</ele><time>2026-05-02T17:13:54.399Z</time></trkpt><trkpt lat="46.0007417" lon="12.2579967"><ele>243.33333333333334</ele><time>2026-05-02T17:13:55.398Z</time></trkpt><trkpt lat="46.00066" lon="12.2578067"><ele>244.66666666666669</ele><time>2026-05-02T17:13:56.399Z</time></trkpt><trkpt lat="46.0005683" lon="12.2576283"><ele>246.0</ele><time>2026-05-02T17:13:57.399Z</time></trkpt><trkpt lat="46.000475" lon="12.2574617"><ele>246.0</ele><time>2026-05-02T17:13:58.398Z</time></trkpt><trkpt lat="46.000385" lon="12.2573067"><ele>246.0</ele><time>2026-05-02T17:13:59.398Z</time></trkpt><trkpt lat="46.0002917" lon="12.2571567"><ele>246.0</ele><time>2026-05-02T17:14:00.399Z</time></trkpt><trkpt lat="46.000195" lon="12.2570117"><ele>246.0</ele><time>2026-05-02T17:14:01.399Z</time></trkpt><trkpt lat="46.000085" lon="12.2568617"><ele>246.66666666666669</ele><time>2026-05-02T17:14:02.399Z</time></trkpt><trkpt lat="45.9999683" lon="12.25671"><ele>247.33333333333334</ele><time>2026-05-02T17:14:03.399Z</time></trkpt><trkpt lat="45.9998617" lon="12.25654"><ele>248.0</ele><time>2026-05-02T17:14:04.398Z</time></trkpt><trkpt lat="45.9997783" lon="12.25636"><ele>249.33333333333334</ele><time>2026-05-02T17:14:05.399Z</time></trkpt><trkpt lat="45.999695" lon="12.2561733"><ele>250.66666666666669</ele><time>2026-05-02T17:14:06.399Z</time></trkpt><trkpt lat="45.9996217" lon="12.255975"><ele>252.0</ele><time>2026-05-02T17:14:07.399Z</time></trkpt><trkpt lat="45.99954" lon="12.2557733"><ele>254.0</ele><time>2026-05-02T17:14:08.399Z</time></trkpt><trkpt lat="45.999455" lon="12.2555633"><ele>256.0</ele><time>2026-05-02T17:14:09.399Z</time></trkpt><trkpt lat="45.999355" lon="12.25537"><ele>258.0</ele><time>2026-05-02T17:14:10.398Z</time></trkpt><trkpt lat="45.99927" lon="12.255175"><ele>258.0</ele><time>2026-05-02T17:14:11.399Z</time></trkpt><trkpt lat="45.9991767" lon="12.2549633"><ele>258.0</ele><time>2026-05-02T17:14:12.399Z</time></trkpt><trkpt lat="45.99906" lon="12.25479"><ele>258.0</ele><time>2026-05-02T17:14:13.399Z</time></trkpt><trkpt lat="45.9989567" lon="12.2545833"><ele>255.0</ele><time>2026-05-02T17:14:14.399Z</time></trkpt><trkpt lat="45.99886" lon="12.2543867"><ele>252.0</ele><time>2026-05-02T17:14:15.399Z</time></trkpt><trkpt lat="45.9987567" lon="12.2541933"><ele>249.0</ele><time>2026-05-02T17:14:16.398Z</time></trkpt><trkpt lat="45.998655" lon="12.2540067"><ele>251.0</ele><time>2026-05-02T17:14:17.399Z</time></trkpt><trkpt lat="45.9985517" lon="12.2538217"><ele>253.0</ele><time>2026-05-02T17:14:18.399Z</time></trkpt><trkpt lat="45.9984467" lon="12.2536317"><ele>255.0</ele><time>2026-05-02T17:14:19.399Z</time></trkpt><trkpt lat="45.9983417" lon="12.253425"><ele>251.66666666666669</ele><time>2026-05-02T17:14:20.399Z</time></trkpt><trkpt lat="45.9982367" lon="12.2532317"><ele>248.33333333333334</ele><time>2026-05-02T17:14:21.399Z</time></trkpt><trkpt lat="45.998125" lon="12.2530317"><ele>245.0</ele><time>2026-05-02T17:14:22.398Z</time></trkpt><trkpt lat="45.998005" lon="12.2528283"><ele>245.0</ele><time>2026-05-02T17:14:23.399Z</time></trkpt><trkpt lat="45.9979" lon="12.2526033"><ele>245.0</ele><time>2026-05-02T17:14:24.399Z</time></trkpt><trkpt lat="45.997815" lon="12.25236"><ele>245.0</ele><time>2026-05-02T17:14:25.399Z</time></trkpt><trkpt lat="45.9977417" lon="12.25212"><ele>245.33333333333334</ele><time>2026-05-02T17:14:26.398Z</time></trkpt><trkpt lat="45.9976867" lon="12.2518517"><ele>245.66666666666669</ele><time>2026-05-02T17:14:27.399Z</time></trkpt><trkpt lat="45.9976633" lon="12.2515667"><ele>246.0</ele><time>2026-05-02T17:14:28.398Z</time></trkpt><trkpt lat="45.99765" lon="12.2512917"><ele>246.0</ele><time>2026-05-02T17:14:29.399Z</time></trkpt><trkpt lat="45.9976383" lon="12.2510133"><ele>246.0</ele><time>2026-05-02T17:14:30.399Z</time></trkpt><trkpt lat="45.997635" lon="12.2507367"><ele>246.0</ele><time>2026-05-02T17:14:31.399Z</time></trkpt><trkpt lat="45.99765" lon="12.2504433"><ele>245.66666666666669</ele><time>2026-05-02T17:14:32.399Z</time></trkpt><trkpt lat="45.99767" lon="12.2501417"><ele>245.33333333333334</ele><time>2026-05-02T17:14:33.399Z</time></trkpt><trkpt lat="45.99769" lon="12.2498483"><ele>245.0</ele><time>2026-05-02T17:14:34.399Z</time></trkpt><trkpt lat="45.9977083" lon="12.24956"><ele>244.0</ele><time>2026-05-02T17:14:35.399Z</time></trkpt><trkpt lat="45.9977233" lon="12.2492767"><ele>243.0</ele><time>2026-05-02T17:14:36.398Z</time></trkpt><trkpt lat="45.997745" lon="12.2489917"><ele>242.0</ele><time>2026-05-02T17:14:37.399Z</time></trkpt><trkpt lat="45.99776" lon="12.2487217"><ele>241.66666666666669</ele><time>2026-05-02T17:14:38.398Z</time></trkpt><trkpt lat="45.9977717" lon="12.2484583"><ele>241.33333333333331</ele><time>2026-05-02T17:14:39.399Z</time></trkpt><trkpt lat="45.9977817" lon="12.248185"><ele>241.0</ele><time>2026-05-02T17:14:40.399Z</time></trkpt><trkpt lat="45.99778" lon="12.2479117"><ele>244.0</ele><time>2026-05-02T17:14:41.399Z</time></trkpt><trkpt lat="45.9977567" lon="12.247625"><ele>247.0</ele><time>2026-05-02T17:14:42.399Z</time></trkpt><trkpt lat="45.9977017" lon="12.24735"><ele>250.0</ele><time>2026-05-02T17:14:43.398Z</time></trkpt><trkpt lat="45.99763" lon="12.2470817"><ele>248.0</ele><time>2026-05-02T17:14:44.399Z</time></trkpt><trkpt lat="45.9975317" lon="12.2468417"><ele>246.0</ele><time>2026-05-02T17:14:45.398Z</time></trkpt><trkpt lat="45.99743" lon="12.2466183"><ele>244.0</ele><time>2026-05-02T17:14:46.398Z</time></trkpt><trkpt lat="45.9973183" lon="12.2464117"><ele>244.0</ele><time>2026-05-02T17:14:47.399Z</time></trkpt><trkpt lat="45.9972083" lon="12.246215"><ele>244.0</ele><time>2026-05-02T17:14:48.399Z</time></trkpt><trkpt lat="45.9971017" lon="12.2460133"><ele>244.0</ele><time>2026-05-02T17:14:49.399Z</time></trkpt><trkpt lat="45.9970033" lon="12.24582"><ele>248.66666666666666</ele><time>2026-05-02T17:14:50.399Z</time></trkpt><trkpt lat="45.9969067" lon="12.245625"><ele>253.33333333333331</ele><time>2026-05-02T17:14:51.399Z</time></trkpt><trkpt lat="45.9968117" lon="12.2454333"><ele>258.0</ele><time>2026-05-02T17:14:52.399Z</time></trkpt><trkpt lat="45.9967167" lon="12.2452383"><ele>252.33333333333331</ele><time>2026-05-02T17:14:53.399Z</time></trkpt><trkpt lat="45.9966167" lon="12.2450533"><ele>246.66666666666666</ele><time>2026-05-02T17:14:54.399Z</time></trkpt><trkpt lat="45.9965133" lon="12.2448583"><ele>241.0</ele><time>2026-05-02T17:14:55.399Z</time></trkpt><trkpt lat="45.9964067" lon="12.2446567"><ele>241.0</ele><time>2026-05-02T17:14:56.398Z</time></trkpt><trkpt lat="45.9962917" lon="12.2444517"><ele>241.0</ele><time>2026-05-02T17:14:57.399Z</time></trkpt><trkpt lat="45.99618" lon="12.24424"><ele>241.0</ele><time>2026-05-02T17:14:58.399Z</time></trkpt><trkpt lat="45.9960683" lon="12.24403"><ele>238.33333333333331</ele><time>2026-05-02T17:14:59.399Z</time></trkpt><trkpt lat="45.9959583" lon="12.2438217"><ele>235.66666666666669</ele><time>2026-05-02T17:15:00.399Z</time></trkpt><trkpt lat="45.9958567" lon="12.24361"><ele>233.0</ele><time>2026-05-02T17:15:01.398Z</time></trkpt><trkpt lat="45.995775" lon="12.24338"><ele>233.0</ele><time>2026-05-02T17:15:02.399Z</time></trkpt><trkpt lat="45.9957017" lon="12.2431417"><ele>233.0</ele><time>2026-05-02T17:15:03.398Z</time></trkpt><trkpt lat="45.9956417" lon="12.242885"><ele>233.0</ele><time>2026-05-02T17:15:04.399Z</time></trkpt><trkpt lat="45.9955917" lon="12.242605"><ele>234.66666666666669</ele><time>2026-05-02T17:15:05.399Z</time></trkpt><trkpt lat="45.995545" lon="12.2423167"><ele>236.33333333333331</ele><time>2026-05-02T17:15:06.399Z</time></trkpt><trkpt lat="45.9954917" lon="12.2420117"><ele>238.0</ele><time>2026-05-02T17:15:07.399Z</time></trkpt><trkpt lat="45.9954417" lon="12.2417"><ele>244.33333333333331</ele><time>2026-05-02T17:15:08.399Z</time></trkpt><trkpt lat="45.9953883" lon="12.2413967"><ele>250.66666666666669</ele><time>2026-05-02T17:15:09.399Z</time></trkpt><trkpt lat="45.9953083" lon="12.2411117"><ele>257.0</ele><time>2026-05-02T17:15:10.398Z</time></trkpt><trkpt lat="45.995215" lon="12.2408583"><ele>260.0</ele><time>2026-05-02T17:15:11.399Z</time></trkpt><trkpt lat="45.9951133" lon="12.2406067"><ele>263.0</ele><time>2026-05-02T17:15:12.399Z</time></trkpt><trkpt lat="45.9950017" lon="12.2403567"><ele>266.0</ele><time>2026-05-02T17:15:13.399Z</time></trkpt><trkpt lat="45.99488" lon="12.2401117"><ele>258.6666666666667</ele><time>2026-05-02T17:15:14.399Z</time></trkpt><trkpt lat="45.9947533" lon="12.23988"><ele>251.33333333333331</ele><time>2026-05-02T17:15:15.399Z</time></trkpt><trkpt lat="45.994625" lon="12.2396433"><ele>244.0</ele><time>2026-05-02T17:15:16.399Z</time></trkpt><trkpt lat="45.9944967" lon="12.23941"><ele>244.0</ele><time>2026-05-02T17:15:17.398Z</time></trkpt><trkpt lat="45.99438" lon="12.23918"><ele>244.0</ele><time>2026-05-02T17:15:18.398Z</time></trkpt><trkpt lat="45.994255" lon="12.238965"><ele>244.0</ele><time>2026-05-02T17:15:19.398Z</time></trkpt><trkpt lat="45.9941417" lon="12.2387417"><ele>243.33333333333331</ele><time>2026-05-02T17:15:20.399Z</time></trkpt><trkpt lat="45.9940167" lon="12.238525"><ele>242.66666666666669</ele><time>2026-05-02T17:15:21.399Z</time></trkpt><trkpt lat="45.99389" lon="12.238315"><ele>242.0</ele><time>2026-05-02T17:15:22.399Z</time></trkpt><trkpt lat="45.9937667" lon="12.238095"><ele>242.0</ele><time>2026-05-02T17:15:23.399Z</time></trkpt><trkpt lat="45.99365" lon="12.237865"><ele>242.0</ele><time>2026-05-02T17:15:24.399Z</time></trkpt><trkpt lat="45.9935367" lon="12.23765"><ele>242.0</ele><time>2026-05-02T17:15:25.399Z</time></trkpt><trkpt lat="45.9934233" lon="12.2374383"><ele>241.0</ele><time>2026-05-02T17:15:26.399Z</time></trkpt><trkpt lat="45.9933133" lon="12.2372367"><ele>240.0</ele><time>2026-05-02T17:15:27.399Z</time></trkpt><trkpt lat="45.9932083" lon="12.2370433"><ele>239.0</ele><time>2026-05-02T17:15:28.399Z</time></trkpt><trkpt lat="45.9931117" lon="12.2368583"><ele>239.0</ele><time>2026-05-02T17:15:29.399Z</time></trkpt><trkpt lat="45.993015" lon="12.236685"><ele>239.0</ele><time>2026-05-02T17:15:30.399Z</time></trkpt><trkpt lat="45.99292" lon="12.2365117"><ele>239.0</ele><time>2026-05-02T17:15:31.398Z</time></trkpt><trkpt lat="45.9928217" lon="12.2363433"><ele>241.66666666666669</ele><time>2026-05-02T17:15:32.399Z</time></trkpt><trkpt lat="45.9927283" lon="12.236165"><ele>244.33333333333331</ele><time>2026-05-02T17:15:33.399Z</time></trkpt><trkpt lat="45.99264" lon="12.235975"><ele>247.0</ele><time>2026-05-02T17:15:34.399Z</time></trkpt><trkpt lat="45.99256" lon="12.23576"><ele>245.33333333333331</ele><time>2026-05-02T17:15:35.399Z</time></trkpt><trkpt lat="45.9924933" lon="12.2355317"><ele>243.66666666666669</ele><time>2026-05-02T17:15:36.399Z</time></trkpt><trkpt lat="45.99243" lon="12.235305"><ele>242.0</ele><time>2026-05-02T17:15:37.398Z</time></trkpt><trkpt lat="45.9923733" lon="12.2350733"><ele>242.0</ele><time>2026-05-02T17:15:38.398Z</time></trkpt><trkpt lat="45.99232" lon="12.234835"><ele>242.0</ele><time>2026-05-02T17:15:39.399Z</time></trkpt><trkpt lat="45.9922683" lon="12.2346"><ele>242.0</ele><time>2026-05-02T17:15:40.399Z</time></trkpt><trkpt lat="45.9922167" lon="12.2343583"><ele>243.66666666666669</ele><time>2026-05-02T17:15:41.399Z</time></trkpt><trkpt lat="45.9921567" lon="12.23412"><ele>245.33333333333331</ele><time>2026-05-02T17:15:42.399Z</time></trkpt><trkpt lat="45.9920933" lon="12.2338883"><ele>247.0</ele><time>2026-05-02T17:15:43.399Z</time></trkpt><trkpt lat="45.99202" lon="12.2336767"><ele>249.33333333333331</ele><time>2026-05-02T17:15:44.399Z</time></trkpt><trkpt lat="45.9919483" lon="12.23347"><ele>251.66666666666669</ele><time>2026-05-02T17:15:45.399Z</time></trkpt><trkpt lat="45.9918767" lon="12.2332567"><ele>254.0</ele><time>2026-05-02T17:15:46.398Z</time></trkpt><trkpt lat="45.991805" lon="12.2330433"><ele>256.33333333333337</ele><time>2026-05-02T17:15:47.399Z</time></trkpt><trkpt lat="45.9917317" lon="12.232835"><ele>258.6666666666667</ele><time>2026-05-02T17:15:48.399Z</time></trkpt><trkpt lat="45.9916617" lon="12.23263"><ele>261.0</ele><time>2026-05-02T17:15:49.399Z</time></trkpt><trkpt lat="45.991585" lon="12.2324217"><ele>256.6666666666667</ele><time>2026-05-02T17:15:50.399Z</time></trkpt><trkpt lat="45.9915083" lon="12.2322083"><ele>252.33333333333334</ele><time>2026-05-02T17:15:51.399Z</time></trkpt><trkpt lat="45.9914167" lon="12.232005"><ele>248.0</ele><time>2026-05-02T17:15:52.399Z</time></trkpt><trkpt lat="45.99132" lon="12.2318033"><ele>248.0</ele><time>2026-05-02T17:15:53.398Z</time></trkpt><trkpt lat="45.9912067" lon="12.2316183"><ele>248.0</ele><time>2026-05-02T17:15:54.398Z</time></trkpt><trkpt lat="45.99109" lon="12.2314467"><ele>248.0</ele><time>2026-05-02T17:15:55.399Z</time></trkpt><trkpt lat="45.9909717" lon="12.231265"><ele>248.33333333333334</ele><time>2026-05-02T17:15:56.398Z</time></trkpt><trkpt lat="45.990855" lon="12.231085"><ele>248.66666666666669</ele><time>2026-05-02T17:15:57.399Z</time></trkpt><trkpt lat="45.9907567" lon="12.2308817"><ele>249.0</ele><time>2026-05-02T17:15:58.399Z</time></trkpt><trkpt lat="45.990665" lon="12.2306783"><ele>245.0</ele><time>2026-05-02T17:15:59.399Z</time></trkpt><trkpt lat="45.990585" lon="12.23046"><ele>241.0</ele><time>2026-05-02T17:16:00.399Z</time></trkpt><trkpt lat="45.9904983" lon="12.230245"><ele>237.0</ele><time>2026-05-02T17:16:01.399Z</time></trkpt><trkpt lat="45.9904083" lon="12.2300233"><ele>237.0</ele><time>2026-05-02T17:16:02.399Z</time></trkpt><trkpt lat="45.9903267" lon="12.2297917"><ele>237.0</ele><time>2026-05-02T17:16:03.399Z</time></trkpt><trkpt lat="45.9902417" lon="12.2295617"><ele>237.0</ele><time>2026-05-02T17:16:04.399Z</time></trkpt><trkpt lat="45.99016" lon="12.2293417"><ele>237.0</ele><time>2026-05-02T17:16:05.399Z</time></trkpt><trkpt lat="45.990075" lon="12.22912"><ele>237.0</ele><time>2026-05-02T17:16:06.399Z</time></trkpt><trkpt lat="45.989995" lon="12.2288917"><ele>237.0</ele><time>2026-05-02T17:16:07.399Z</time></trkpt><trkpt lat="45.9899083" lon="12.2286783"><ele>237.33333333333331</ele><time>2026-05-02T17:16:08.399Z</time></trkpt><trkpt lat="45.9898283" lon="12.2284567"><ele>237.66666666666666</ele><time>2026-05-02T17:16:09.399Z</time></trkpt><trkpt lat="45.989745" lon="12.2282367"><ele>238.0</ele><time>2026-05-02T17:16:10.399Z</time></trkpt><trkpt lat="45.9896583" lon="12.2280133"><ele>238.0</ele><time>2026-05-02T17:16:11.399Z</time></trkpt><trkpt lat="45.9895867" lon="12.227795"><ele>238.0</ele><time>2026-05-02T17:16:12.399Z</time></trkpt><trkpt lat="45.9894967" lon="12.2275917"><ele>238.0</ele><time>2026-05-02T17:16:13.398Z</time></trkpt><trkpt lat="45.9894217" lon="12.227385"><ele>239.66666666666666</ele><time>2026-05-02T17:16:14.399Z</time></trkpt><trkpt lat="45.9893467" lon="12.2271783"><ele>241.33333333333331</ele><time>2026-05-02T17:16:15.399Z</time></trkpt><trkpt lat="45.9892733" lon="12.22698"><ele>243.0</ele><time>2026-05-02T17:16:16.399Z</time></trkpt><trkpt lat="45.9891967" lon="12.2267767"><ele>241.0</ele><time>2026-05-02T17:16:17.399Z</time></trkpt><trkpt lat="45.9891217" lon="12.226575"><ele>239.0</ele><time>2026-05-02T17:16:18.398Z</time></trkpt><trkpt lat="45.9890567" lon="12.2263617"><ele>237.0</ele><time>2026-05-02T17:16:19.399Z</time></trkpt><trkpt lat="45.9889967" lon="12.22614"><ele>237.0</ele><time>2026-05-02T17:16:20.399Z</time></trkpt><trkpt lat="45.9889417" lon="12.225905"><ele>237.0</ele><time>2026-05-02T17:16:21.399Z</time></trkpt><trkpt lat="45.98889" lon="12.2256667"><ele>237.0</ele><time>2026-05-02T17:16:22.399Z</time></trkpt><trkpt lat="45.9888483" lon="12.2254183"><ele>239.0</ele><time>2026-05-02T17:16:23.399Z</time></trkpt><trkpt lat="45.98881" lon="12.2251633"><ele>241.0</ele><time>2026-05-02T17:16:24.398Z</time></trkpt><trkpt lat="45.98878" lon="12.2248967"><ele>243.0</ele><time>2026-05-02T17:16:25.399Z</time></trkpt><trkpt lat="45.9887417" lon="12.2246167"><ele>243.66666666666669</ele><time>2026-05-02T17:16:26.399Z</time></trkpt><trkpt lat="45.9887017" lon="12.224325"><ele>244.33333333333334</ele><time>2026-05-02T17:16:27.399Z</time></trkpt><trkpt lat="45.9886633" lon="12.2240267"><ele>245.0</ele><time>2026-05-02T17:16:28.399Z</time></trkpt><trkpt lat="45.98862" lon="12.2236983"><ele>247.0</ele><time>2026-05-02T17:16:29.399Z</time></trkpt><trkpt lat="45.9885783" lon="12.2233333"><ele>249.0</ele><time>2026-05-02T17:16:30.399Z</time></trkpt><trkpt lat="45.988545" lon="12.2229617"><ele>251.0</ele><time>2026-05-02T17:16:31.399Z</time></trkpt><trkpt lat="45.988515" lon="12.2226"><ele>253.0</ele><time>2026-05-02T17:16:32.398Z</time></trkpt><trkpt lat="45.9884783" lon="12.2222817"><ele>255.0</ele><time>2026-05-02T17:16:33.398Z</time></trkpt><trkpt lat="45.9884333" lon="12.2219983"><ele>257.0</ele><time>2026-05-02T17:16:34.398Z</time></trkpt><trkpt lat="45.9883433" lon="12.221715"><ele>259.0</ele><time>2026-05-02T17:16:35.399Z</time></trkpt><trkpt lat="45.98822" lon="12.221425"><ele>251.5</ele><time>2026-05-02T17:16:36.399Z</time></trkpt><trkpt lat="45.9880883" lon="12.2211533"><ele>244.0</ele><time>2026-05-02T17:16:37.399Z</time></trkpt><trkpt lat="45.9879583" lon="12.2208867"><ele>246.33333333333331</ele><time>2026-05-02T17:16:38.398Z</time></trkpt><trkpt lat="45.987825" lon="12.22063"><ele>248.66666666666669</ele><time>2026-05-02T17:16:39.399Z</time></trkpt><trkpt lat="45.9877033" lon="12.2203883"><ele>251.0</ele><time>2026-05-02T17:16:40.399Z</time></trkpt><trkpt lat="45.9875867" lon="12.22016"><ele>249.0</ele><time>2026-05-02T17:16:41.399Z</time></trkpt><trkpt lat="45.9874733" lon="12.2199467"><ele>247.0</ele><time>2026-05-02T17:16:42.399Z</time></trkpt><trkpt lat="45.9873617" lon="12.21974"><ele>245.0</ele><time>2026-05-02T17:16:43.398Z</time></trkpt><trkpt lat="45.9872567" lon="12.2195333"><ele>245.0</ele><time>2026-05-02T17:16:44.398Z</time></trkpt><trkpt lat="45.9871433" lon="12.21934"><ele>245.0</ele><time>2026-05-02T17:16:45.399Z</time></trkpt><trkpt lat="45.9870333" lon="12.2191617"><ele>245.0</ele><time>2026-05-02T17:16:46.399Z</time></trkpt><trkpt lat="45.9869333" lon="12.21901"><ele>245.5</ele><time>2026-05-02T17:16:47.398Z</time></trkpt><trkpt lat="45.9868567" lon="12.2188583"><ele>246.0</ele><time>2026-05-02T17:16:48.399Z</time></trkpt><trkpt lat="45.9867867" lon="12.2186983"><ele>246.5</ele><time>2026-05-02T17:16:49.399Z</time></trkpt><trkpt lat="45.9867167" lon="12.2185133"><ele>247.0</ele><time>2026-05-02T17:16:50.399Z</time></trkpt><trkpt lat="45.98666" lon="12.2183233"><ele>245.0</ele><time>2026-05-02T17:16:51.399Z</time></trkpt><trkpt lat="45.986595" lon="12.2181333"><ele>243.0</ele><time>2026-05-02T17:16:52.398Z</time></trkpt><trkpt lat="45.9865283" lon="12.217945"><ele>241.0</ele><time>2026-05-02T17:16:53.399Z</time></trkpt><trkpt lat="45.9864683" lon="12.2177517"><ele>239.0</ele><time>2026-05-02T17:16:54.399Z</time></trkpt><trkpt lat="45.98642" lon="12.21755"><ele>239.0</ele><time>2026-05-02T17:16:55.399Z</time></trkpt><trkpt lat="45.9863717" lon="12.2173533"><ele>239.0</ele><time>2026-05-02T17:16:56.399Z</time></trkpt><trkpt lat="45.9863267" lon="12.217155"><ele>239.0</ele><time>2026-05-02T17:16:57.398Z</time></trkpt><trkpt lat="45.9862933" lon="12.216945"><ele>239.0</ele><time>2026-05-02T17:16:58.399Z</time></trkpt><trkpt lat="45.9862633" lon="12.2167283"><ele>239.33333333333334</ele><time>2026-05-02T17:16:59.399Z</time></trkpt><trkpt lat="45.9862317" lon="12.2165067"><ele>239.66666666666669</ele><time>2026-05-02T17:17:00.399Z</time></trkpt><trkpt lat="45.9862033" lon="12.2162733"><ele>240.0</ele><time>2026-05-02T17:17:01.399Z</time></trkpt><trkpt lat="45.98618" lon="12.21604"><ele>240.0</ele><time>2026-05-02T17:17:02.399Z</time></trkpt><trkpt lat="45.9861533" lon="12.2158067"><ele>240.0</ele><time>2026-05-02T17:17:03.399Z</time></trkpt><trkpt lat="45.9861233" lon="12.21558"><ele>240.0</ele><time>2026-05-02T17:17:04.399Z</time></trkpt><trkpt lat="45.98608" lon="12.2153567"><ele>240.33333333333331</ele><time>2026-05-02T17:17:05.399Z</time></trkpt><trkpt lat="45.9860517" lon="12.2151167"><ele>240.66666666666666</ele><time>2026-05-02T17:17:06.399Z</time></trkpt><trkpt lat="45.9859867" lon="12.2148933"><ele>241.0</ele><time>2026-05-02T17:17:07.399Z</time></trkpt><trkpt lat="45.9859117" lon="12.214675"><ele>239.66666666666666</ele><time>2026-05-02T17:17:08.399Z</time></trkpt><trkpt lat="45.9858317" lon="12.214475"><ele>238.33333333333331</ele><time>2026-05-02T17:17:09.399Z</time></trkpt><trkpt lat="45.985715" lon="12.214275"><ele>237.0</ele><time>2026-05-02T17:17:10.399Z</time></trkpt><trkpt lat="45.9856017" lon="12.2140617"><ele>237.33333333333331</ele><time>2026-05-02T17:17:11.399Z</time></trkpt><trkpt lat="45.9854983" lon="12.2138317"><ele>237.66666666666666</ele><time>2026-05-02T17:17:12.398Z</time></trkpt><trkpt lat="45.98539" lon="12.2136017"><ele>238.0</ele><time>2026-05-02T17:17:13.399Z</time></trkpt><trkpt lat="45.985275" lon="12.213355"><ele>238.33333333333331</ele><time>2026-05-02T17:17:14.399Z</time></trkpt><trkpt lat="45.9851583" lon="12.2131133"><ele>238.66666666666669</ele><time>2026-05-02T17:17:15.399Z</time></trkpt><trkpt lat="45.98504" lon="12.212865"><ele>239.0</ele><time>2026-05-02T17:17:16.399Z</time></trkpt><trkpt lat="45.9849133" lon="12.2126183"><ele>237.66666666666669</ele><time>2026-05-02T17:17:17.399Z</time></trkpt><trkpt lat="45.9847883" lon="12.2123767"><ele>236.33333333333331</ele><time>2026-05-02T17:17:18.399Z</time></trkpt><trkpt lat="45.98467" lon="12.2121367"><ele>235.0</ele><time>2026-05-02T17:17:19.399Z</time></trkpt><trkpt lat="45.9845583" lon="12.2118983"><ele>235.0</ele><time>2026-05-02T17:17:20.399Z</time></trkpt><trkpt lat="45.9844483" lon="12.2116717"><ele>235.0</ele><time>2026-05-02T17:17:21.399Z</time></trkpt><trkpt lat="45.9843417" lon="12.211455"><ele>235.0</ele><time>2026-05-02T17:17:22.398Z</time></trkpt><trkpt lat="45.984235" lon="12.2112517"><ele>234.75</ele><time>2026-05-02T17:17:23.399Z</time></trkpt><trkpt lat="45.98414" lon="12.2110667"><ele>234.5</ele><time>2026-05-02T17:17:24.399Z</time></trkpt><trkpt lat="45.984055" lon="12.210895"><ele>234.25</ele><time>2026-05-02T17:17:25.399Z</time></trkpt><trkpt lat="45.9839733" lon="12.2107483"><ele>234.0</ele><time>2026-05-02T17:17:26.399Z</time></trkpt><trkpt lat="45.9839017" lon="12.2106217"><ele>234.0</ele><time>2026-05-02T17:17:27.399Z</time></trkpt><trkpt lat="45.983815" lon="12.2105183"><ele>233.99999999999997</ele><time>2026-05-02T17:17:28.399Z</time></trkpt><trkpt lat="45.9837317" lon="12.2104183"><ele>233.99999999999997</ele><time>2026-05-02T17:17:29.398Z</time></trkpt><trkpt lat="45.9836517" lon="12.2103017"><ele>234.0</ele><time>2026-05-02T17:17:30.399Z</time></trkpt><trkpt lat="45.9835933" lon="12.21017"><ele>234.0</ele><time>2026-05-02T17:17:31.399Z</time></trkpt><trkpt lat="45.98354" lon="12.2099983"><ele>234.66666666666669</ele><time>2026-05-02T17:17:32.399Z</time></trkpt><trkpt lat="45.9834767" lon="12.2097933"><ele>235.33333333333334</ele><time>2026-05-02T17:17:33.399Z</time></trkpt><trkpt lat="45.983395" lon="12.2095483"><ele>236.0</ele><time>2026-05-02T17:17:34.399Z</time></trkpt><trkpt lat="45.9833067" lon="12.2092783"><ele>235.0</ele><time>2026-05-02T17:17:35.398Z</time></trkpt><trkpt lat="45.9832167" lon="12.208985"><ele>234.0</ele><time>2026-05-02T17:17:36.399Z</time></trkpt><trkpt lat="45.9831317" lon="12.2086867"><ele>233.0</ele><time>2026-05-02T17:17:37.399Z</time></trkpt><trkpt lat="45.983045" lon="12.2083783"><ele>235.0</ele><time>2026-05-02T17:17:38.399Z</time></trkpt><trkpt lat="45.9829533" lon="12.208065"><ele>237.0</ele><time>2026-05-02T17:17:39.399Z</time></trkpt><trkpt lat="45.9828633" lon="12.207755"><ele>237.0</ele><time>2026-05-02T17:17:40.399Z</time></trkpt><trkpt lat="45.9827767" lon="12.20744"><ele>237.0</ele><time>2026-05-02T17:17:41.398Z</time></trkpt><trkpt lat="45.982685" lon="12.2071283"><ele>236.5</ele><time>2026-05-02T17:17:42.399Z</time></trkpt><trkpt lat="45.9825983" lon="12.2068117"><ele>236.0</ele><time>2026-05-02T17:17:43.399Z</time></trkpt><trkpt lat="45.9825133" lon="12.2064933"><ele>235.0</ele><time>2026-05-02T17:17:44.398Z</time></trkpt><trkpt lat="45.9824267" lon="12.206175"><ele>234.0</ele><time>2026-05-02T17:17:45.399Z</time></trkpt><trkpt lat="45.982335" lon="12.2058583"><ele>235.0</ele><time>2026-05-02T17:17:46.399Z</time></trkpt><trkpt lat="45.98225" lon="12.205535"><ele>236.0</ele><time>2026-05-02T17:17:47.399Z</time></trkpt><trkpt lat="45.9821583" lon="12.2052117"><ele>236.0</ele><time>2026-05-02T17:17:48.399Z</time></trkpt><trkpt lat="45.9820667" lon="12.204895"><ele>236.0</ele><time>2026-05-02T17:17:49.399Z</time></trkpt><trkpt lat="45.9819867" lon="12.20458"><ele>237.5</ele><time>2026-05-02T17:17:50.398Z</time></trkpt><trkpt lat="45.9819" lon="12.20427"><ele>239.0</ele><time>2026-05-02T17:17:51.399Z</time></trkpt><trkpt lat="45.9818183" lon="12.2039583"><ele>239.0</ele><time>2026-05-02T17:17:52.399Z</time></trkpt><trkpt lat="45.9817367" lon="12.2036533"><ele>239.0</ele><time>2026-05-02T17:17:53.399Z</time></trkpt><trkpt lat="45.98166" lon="12.2033517"><ele>237.0</ele><time>2026-05-02T17:17:54.399Z</time></trkpt><trkpt lat="45.981575" lon="12.2030533"><ele>235.0</ele><time>2026-05-02T17:17:55.399Z</time></trkpt><trkpt lat="45.9814883" lon="12.20276"><ele>233.0</ele><time>2026-05-02T17:17:56.399Z</time></trkpt><trkpt lat="45.9814067" lon="12.202465"><ele>233.0</ele><time>2026-05-02T17:17:57.399Z</time></trkpt><trkpt lat="45.9813067" lon="12.202175"><ele>233.0</ele><time>2026-05-02T17:17:58.399Z</time></trkpt><trkpt lat="45.9811983" lon="12.201885"><ele>233.0</ele><time>2026-05-02T17:17:59.399Z</time></trkpt><trkpt lat="45.981085" lon="12.2016017"><ele>233.0</ele><time>2026-05-02T17:18:00.399Z</time></trkpt><trkpt lat="45.9809633" lon="12.2013183"><ele>230.5</ele><time>2026-05-02T17:18:01.399Z</time></trkpt><trkpt lat="45.9808383" lon="12.2010333"><ele>228.0</ele><time>2026-05-02T17:18:02.399Z</time></trkpt><trkpt lat="45.980715" lon="12.2007483"><ele>230.0</ele><time>2026-05-02T17:18:03.398Z</time></trkpt><trkpt lat="45.98059" lon="12.20047"><ele>232.0</ele><time>2026-05-02T17:18:04.399Z</time></trkpt><trkpt lat="45.98047" lon="12.2002"><ele>232.0</ele><time>2026-05-02T17:18:05.399Z</time></trkpt><trkpt lat="45.9803517" lon="12.1999317"><ele>232.0</ele><time>2026-05-02T17:18:06.399Z</time></trkpt><trkpt lat="45.9802333" lon="12.19966"><ele>232.0</ele><time>2026-05-02T17:18:07.399Z</time></trkpt><trkpt lat="45.9801133" lon="12.1993917"><ele>231.33333333333331</ele><time>2026-05-02T17:18:08.398Z</time></trkpt><trkpt lat="45.9800017" lon="12.1991317"><ele>230.66666666666669</ele><time>2026-05-02T17:18:09.399Z</time></trkpt><trkpt lat="45.979885" lon="12.1988883"><ele>230.0</ele><time>2026-05-02T17:18:10.399Z</time></trkpt><trkpt lat="45.9797783" lon="12.1986433"><ele>230.0</ele><time>2026-05-02T17:18:11.399Z</time></trkpt><trkpt lat="45.97967" lon="12.198395"><ele>230.0</ele><time>2026-05-02T17:18:12.399Z</time></trkpt><trkpt lat="45.9795567" lon="12.1981433"><ele>230.0</ele><time>2026-05-02T17:18:13.398Z</time></trkpt><trkpt lat="45.9794517" lon="12.1979017"><ele>230.0</ele><time>2026-05-02T17:18:14.399Z</time></trkpt><trkpt lat="45.9793517" lon="12.197665"><ele>230.0</ele><time>2026-05-02T17:18:15.398Z</time></trkpt><trkpt lat="45.9792533" lon="12.1974317"><ele>230.0</ele><time>2026-05-02T17:18:16.399Z</time></trkpt><trkpt lat="45.9791517" lon="12.1972067"><ele>228.66666666666669</ele><time>2026-05-02T17:18:17.399Z</time></trkpt><trkpt lat="45.9790517" lon="12.196985"><ele>227.33333333333331</ele><time>2026-05-02T17:18:18.399Z</time></trkpt><trkpt lat="45.9789583" lon="12.19676"><ele>226.0</ele><time>2026-05-02T17:18:19.399Z</time></trkpt><trkpt lat="45.9788683" lon="12.1965367"><ele>226.33333333333331</ele><time>2026-05-02T17:18:20.399Z</time></trkpt><trkpt lat="45.9787867" lon="12.196305"><ele>226.66666666666669</ele><time>2026-05-02T17:18:21.399Z</time></trkpt><trkpt lat="45.9787083" lon="12.1960667"><ele>227.0</ele><time>2026-05-02T17:18:22.399Z</time></trkpt><trkpt lat="45.9786333" lon="12.1958367"><ele>228.33333333333334</ele><time>2026-05-02T17:18:23.399Z</time></trkpt><trkpt lat="45.9785633" lon="12.1956117"><ele>229.66666666666669</ele><time>2026-05-02T17:18:24.399Z</time></trkpt><trkpt lat="45.9784917" lon="12.1953867"><ele>231.0</ele><time>2026-05-02T17:18:25.398Z</time></trkpt><trkpt lat="45.9784283" lon="12.1951717"><ele>231.0</ele><time>2026-05-02T17:18:26.399Z</time></trkpt><trkpt lat="45.97836" lon="12.1949483"><ele>231.0</ele><time>2026-05-02T17:18:27.399Z</time></trkpt><trkpt lat="45.9782967" lon="12.1947417"><ele>231.0</ele><time>2026-05-02T17:18:28.399Z</time></trkpt><trkpt lat="45.9782333" lon="12.1945417"><ele>231.0</ele><time>2026-05-02T17:18:29.399Z</time></trkpt><trkpt lat="45.9781733" lon="12.194345"><ele>231.0</ele><time>2026-05-02T17:18:30.398Z</time></trkpt><trkpt lat="45.9781167" lon="12.1941583"><ele>231.0</ele><time>2026-05-02T17:18:31.399Z</time></trkpt><trkpt lat="45.97806" lon="12.1939817"><ele>231.0</ele><time>2026-05-02T17:18:32.399Z</time></trkpt><trkpt lat="45.9780033" lon="12.1938033"><ele>231.0</ele><time>2026-05-02T17:18:33.399Z</time></trkpt><trkpt lat="45.9779517" lon="12.1936283"><ele>231.0</ele><time>2026-05-02T17:18:34.399Z</time></trkpt><trkpt lat="45.9779017" lon="12.1934533"><ele>231.0</ele><time>2026-05-02T17:18:35.399Z</time></trkpt><trkpt lat="45.9778483" lon="12.1932783"><ele>231.0</ele><time>2026-05-02T17:18:36.399Z</time></trkpt><trkpt lat="45.9777967" lon="12.1930917"><ele>231.33333333333331</ele><time>2026-05-02T17:18:37.399Z</time></trkpt><trkpt lat="45.97774" lon="12.192895"><ele>231.66666666666666</ele><time>2026-05-02T17:18:38.398Z</time></trkpt><trkpt lat="45.9776817" lon="12.1926783"><ele>232.0</ele><time>2026-05-02T17:18:39.399Z</time></trkpt><trkpt lat="45.9776167" lon="12.1924583"><ele>233.0</ele><time>2026-05-02T17:18:40.399Z</time></trkpt><trkpt lat="45.9775583" lon="12.192225"><ele>234.0</ele><time>2026-05-02T17:18:41.399Z</time></trkpt><trkpt lat="45.9774817" lon="12.191985"><ele>235.0</ele><time>2026-05-02T17:18:42.399Z</time></trkpt><trkpt lat="45.977395" lon="12.1917317"><ele>232.0</ele><time>2026-05-02T17:18:43.398Z</time></trkpt><trkpt lat="45.9773133" lon="12.1914683"><ele>229.0</ele><time>2026-05-02T17:18:44.399Z</time></trkpt><trkpt lat="45.97723" lon="12.1911933"><ele>226.0</ele><time>2026-05-02T17:18:45.399Z</time></trkpt><trkpt lat="45.977135" lon="12.1909067"><ele>229.0</ele><time>2026-05-02T17:18:46.399Z</time></trkpt><trkpt lat="45.9770417" lon="12.1906083"><ele>232.0</ele><time>2026-05-02T17:18:47.399Z</time></trkpt><trkpt lat="45.9769517" lon="12.1903033"><ele>232.0</ele><time>2026-05-02T17:18:48.399Z</time></trkpt><trkpt lat="45.9768617" lon="12.1899917"><ele>232.0</ele><time>2026-05-02T17:18:49.399Z</time></trkpt><trkpt lat="45.9767683" lon="12.18969"><ele>230.5</ele><time>2026-05-02T17:18:50.399Z</time></trkpt><trkpt lat="45.9766733" lon="12.1893933"><ele>229.0</ele><time>2026-05-02T17:18:51.399Z</time></trkpt><trkpt lat="45.9765683" lon="12.1891033"><ele>230.33333333333331</ele><time>2026-05-02T17:18:52.399Z</time></trkpt><trkpt lat="45.976455" lon="12.188835"><ele>231.66666666666669</ele><time>2026-05-02T17:18:53.398Z</time></trkpt><trkpt lat="45.97634" lon="12.1885717"><ele>233.0</ele><time>2026-05-02T17:18:54.398Z</time></trkpt><trkpt lat="45.97623" lon="12.188305"><ele>235.33333333333334</ele><time>2026-05-02T17:18:55.399Z</time></trkpt><trkpt lat="45.9761183" lon="12.18806"><ele>237.66666666666669</ele><time>2026-05-02T17:18:56.399Z</time></trkpt><trkpt lat="45.9760183" lon="12.18781"><ele>240.0</ele><time>2026-05-02T17:18:57.399Z</time></trkpt><trkpt lat="45.97592" lon="12.1875667"><ele>237.0</ele><time>2026-05-02T17:18:58.399Z</time></trkpt><trkpt lat="45.97582" lon="12.1873317"><ele>234.0</ele><time>2026-05-02T17:18:59.398Z</time></trkpt><trkpt lat="45.9757233" lon="12.1871067"><ele>231.0</ele><time>2026-05-02T17:19:00.398Z</time></trkpt><trkpt lat="45.9756383" lon="12.1868817"><ele>231.0</ele><time>2026-05-02T17:19:01.398Z</time></trkpt><trkpt lat="45.9755517" lon="12.1866567"><ele>231.0</ele><time>2026-05-02T17:19:02.399Z</time></trkpt><trkpt lat="45.97547" lon="12.1864317"><ele>231.0</ele><time>2026-05-02T17:19:03.399Z</time></trkpt><trkpt lat="45.9753833" lon="12.1862117"><ele>234.33333333333331</ele><time>2026-05-02T17:19:04.399Z</time></trkpt><trkpt lat="45.9752983" lon="12.1859833"><ele>237.66666666666666</ele><time>2026-05-02T17:19:05.399Z</time></trkpt><trkpt lat="45.9752283" lon="12.1857467"><ele>241.0</ele><time>2026-05-02T17:19:06.399Z</time></trkpt><trkpt lat="45.97517" lon="12.1855033"><ele>243.0</ele><time>2026-05-02T17:19:07.399Z</time></trkpt><trkpt lat="45.9751067" lon="12.18525"><ele>245.0</ele><time>2026-05-02T17:19:08.398Z</time></trkpt><trkpt lat="45.9750467" lon="12.18496"><ele>247.0</ele><time>2026-05-02T17:19:09.399Z</time></trkpt><trkpt lat="45.975" lon="12.18463"><ele>242.5</ele><time>2026-05-02T17:19:10.399Z</time></trkpt><trkpt lat="45.9749467" lon="12.1842917"><ele>238.0</ele><time>2026-05-02T17:19:11.399Z</time></trkpt><trkpt lat="45.974895" lon="12.183945"><ele>238.0</ele><time>2026-05-02T17:19:12.399Z</time></trkpt><trkpt lat="45.97484" lon="12.1835917"><ele>238.0</ele><time>2026-05-02T17:19:13.399Z</time></trkpt><trkpt lat="45.9747967" lon="12.1832267"><ele>237.0</ele><time>2026-05-02T17:19:14.399Z</time></trkpt><trkpt lat="45.97475" lon="12.1828717"><ele>236.0</ele><time>2026-05-02T17:19:15.399Z</time></trkpt><trkpt lat="45.9747017" lon="12.182525"><ele>233.5</ele><time>2026-05-02T17:19:16.399Z</time></trkpt><trkpt lat="45.9746567" lon="12.1821833"><ele>231.0</ele><time>2026-05-02T17:19:17.399Z</time></trkpt><trkpt lat="45.9746133" lon="12.1818517"><ele>231.0</ele><time>2026-05-02T17:19:18.399Z</time></trkpt><trkpt lat="45.9745717" lon="12.1815383"><ele>231.0</ele><time>2026-05-02T17:19:19.399Z</time></trkpt><trkpt lat="45.9745283" lon="12.1812483"><ele>231.0</ele><time>2026-05-02T17:19:20.399Z</time></trkpt><trkpt lat="45.97449" lon="12.1809717"><ele>231.33333333333331</ele><time>2026-05-02T17:19:21.399Z</time></trkpt><trkpt lat="45.9744533" lon="12.180715"><ele>231.66666666666666</ele><time>2026-05-02T17:19:22.399Z</time></trkpt><trkpt lat="45.974415" lon="12.1804567"><ele>232.0</ele><time>2026-05-02T17:19:23.399Z</time></trkpt><trkpt lat="45.97438" lon="12.1801983"><ele>232.66666666666666</ele><time>2026-05-02T17:19:24.399Z</time></trkpt><trkpt lat="45.9743517" lon="12.179935"><ele>233.33333333333331</ele><time>2026-05-02T17:19:25.399Z</time></trkpt><trkpt lat="45.9743067" lon="12.1796717"><ele>234.0</ele><time>2026-05-02T17:19:26.399Z</time></trkpt><trkpt lat="45.9742617" lon="12.1794067"><ele>235.0</ele><time>2026-05-02T17:19:27.399Z</time></trkpt><trkpt lat="45.9742267" lon="12.1791333"><ele>236.0</ele><time>2026-05-02T17:19:28.398Z</time></trkpt><trkpt lat="45.974195" lon="12.178865"><ele>237.0</ele><time>2026-05-02T17:19:29.399Z</time></trkpt><trkpt lat="45.9741583" lon="12.1786017"><ele>237.0</ele><time>2026-05-02T17:19:30.399Z</time></trkpt><trkpt lat="45.9741217" lon="12.1783567"><ele>237.0</ele><time>2026-05-02T17:19:31.398Z</time></trkpt><trkpt lat="45.9740867" lon="12.178125"><ele>237.0</ele><time>2026-05-02T17:19:32.399Z</time></trkpt><trkpt lat="45.9740533" lon="12.1779033"><ele>236.75</ele><time>2026-05-02T17:19:33.399Z</time></trkpt><trkpt lat="45.9740283" lon="12.1776933"><ele>236.5</ele><time>2026-05-02T17:19:34.399Z</time></trkpt><trkpt lat="45.974005" lon="12.1774867"><ele>236.25</ele><time>2026-05-02T17:19:35.398Z</time></trkpt><trkpt lat="45.9739767" lon="12.1773033"><ele>236.0</ele><time>2026-05-02T17:19:36.399Z</time></trkpt><trkpt lat="45.97396" lon="12.177125"><ele>236.0</ele><time>2026-05-02T17:19:37.398Z</time></trkpt><trkpt lat="45.9739383" lon="12.17695"><ele>236.0</ele><time>2026-05-02T17:19:38.398Z</time></trkpt><trkpt lat="45.97392" lon="12.1767617"><ele>236.0</ele><time>2026-05-02T17:19:39.399Z</time></trkpt><trkpt lat="45.9738883" lon="12.1765683"><ele>236.0</ele><time>2026-05-02T17:19:40.399Z</time></trkpt><trkpt lat="45.973845" lon="12.1763467"><ele>236.0</ele><time>2026-05-02T17:19:41.398Z</time></trkpt><trkpt lat="45.973795" lon="12.1761083"><ele>236.0</ele><time>2026-05-02T17:19:42.398Z</time></trkpt><trkpt lat="45.9737467" lon="12.175855"><ele>236.0</ele><time>2026-05-02T17:19:43.399Z</time></trkpt><trkpt lat="45.973715" lon="12.1756017"><ele>236.66666666666669</ele><time>2026-05-02T17:19:44.399Z</time></trkpt><trkpt lat="45.9736833" lon="12.175335"><ele>237.33333333333331</ele><time>2026-05-02T17:19:45.399Z</time></trkpt><trkpt lat="45.9736517" lon="12.1750667"><ele>238.0</ele><time>2026-05-02T17:19:46.399Z</time></trkpt><trkpt lat="45.9736183" lon="12.1748033"><ele>238.0</ele><time>2026-05-02T17:19:47.399Z</time></trkpt><trkpt lat="45.9735783" lon="12.1745333"><ele>238.0</ele><time>2026-05-02T17:19:48.399Z</time></trkpt><trkpt lat="45.9735333" lon="12.17427"><ele>238.0</ele><time>2026-05-02T17:19:49.399Z</time></trkpt><trkpt lat="45.97348" lon="12.1740083"><ele>238.66666666666666</ele><time>2026-05-02T17:19:50.399Z</time></trkpt><trkpt lat="45.9734117" lon="12.1737517"><ele>239.33333333333331</ele><time>2026-05-02T17:19:51.399Z</time></trkpt><trkpt lat="45.973345" lon="12.173495"><ele>240.0</ele><time>2026-05-02T17:19:52.399Z</time></trkpt><trkpt lat="45.9732683" lon="12.17324"><ele>244.0</ele><time>2026-05-02T17:19:53.398Z</time></trkpt><trkpt lat="45.9731933" lon="12.172985"><ele>248.0</ele><time>2026-05-02T17:19:54.399Z</time></trkpt><trkpt lat="45.9731167" lon="12.17273"><ele>252.0</ele><time>2026-05-02T17:19:55.399Z</time></trkpt><trkpt lat="45.97304" lon="12.1724783"><ele>259.6666666666667</ele><time>2026-05-02T17:19:56.399Z</time></trkpt><trkpt lat="45.9729667" lon="12.1722367"><ele>267.33333333333337</ele><time>2026-05-02T17:19:57.399Z</time></trkpt><trkpt lat="45.97289" lon="12.1719933"><ele>275.0</ele><time>2026-05-02T17:19:58.399Z</time></trkpt><trkpt lat="45.97282" lon="12.1717383"><ele>282.33333333333337</ele><time>2026-05-02T17:19:59.399Z</time></trkpt><trkpt lat="45.9727483" lon="12.17148"><ele>289.6666666666667</ele><time>2026-05-02T17:20:00.399Z</time></trkpt><trkpt lat="45.9726833" lon="12.1712117"><ele>297.0</ele><time>2026-05-02T17:20:01.399Z</time></trkpt><trkpt lat="45.9726133" lon="12.1709483"><ele>300.6666666666667</ele><time>2026-05-02T17:20:02.399Z</time></trkpt><trkpt lat="45.9725433" lon="12.170675"><ele>304.33333333333337</ele><time>2026-05-02T17:20:03.399Z</time></trkpt><trkpt lat="45.9724817" lon="12.1703983"><ele>308.0</ele><time>2026-05-02T17:20:04.399Z</time></trkpt><trkpt lat="45.9724333" lon="12.1701283"><ele>290.6666666666667</ele><time>2026-05-02T17:20:05.399Z</time></trkpt><trkpt lat="45.9723883" lon="12.1698417"><ele>273.3333333333333</ele><time>2026-05-02T17:20:06.398Z</time></trkpt><trkpt lat="45.97234" lon="12.169555"><ele>256.0</ele><time>2026-05-02T17:20:07.399Z</time></trkpt><trkpt lat="45.9722883" lon="12.1692683"><ele>258.66666666666663</ele><time>2026-05-02T17:20:08.399Z</time></trkpt><trkpt lat="45.9722333" lon="12.1689883"><ele>261.3333333333333</ele><time>2026-05-02T17:20:09.399Z</time></trkpt><trkpt lat="45.9721783" lon="12.1686967"><ele>264.0</ele><time>2026-05-02T17:20:10.399Z</time></trkpt><trkpt lat="45.9721233" lon="12.168415"><ele>265.3333333333333</ele><time>2026-05-02T17:20:11.399Z</time></trkpt><trkpt lat="45.97207" lon="12.1681283"><ele>266.66666666666663</ele><time>2026-05-02T17:20:12.398Z</time></trkpt><trkpt lat="45.972015" lon="12.167845"><ele>268.0</ele><time>2026-05-02T17:20:13.399Z</time></trkpt><trkpt lat="45.971965" lon="12.1675567"><ele>268.66666666666663</ele><time>2026-05-02T17:20:14.398Z</time></trkpt><trkpt lat="45.9719083" lon="12.167275"><ele>269.3333333333333</ele><time>2026-05-02T17:20:15.399Z</time></trkpt><trkpt lat="45.9718517" lon="12.1669967"><ele>270.0</ele><time>2026-05-02T17:20:16.399Z</time></trkpt><trkpt lat="45.9718133" lon="12.1667017"><ele>268.3333333333333</ele><time>2026-05-02T17:20:17.399Z</time></trkpt><trkpt lat="45.97178" lon="12.1664083"><ele>266.66666666666663</ele><time>2026-05-02T17:20:18.399Z</time></trkpt><trkpt lat="45.97177" lon="12.166105"><ele>265.0</ele><time>2026-05-02T17:20:19.399Z</time></trkpt><trkpt lat="45.9717617" lon="12.16581"><ele>263.66666666666663</ele><time>2026-05-02T17:20:20.399Z</time></trkpt><trkpt lat="45.97175" lon="12.165535"><ele>262.3333333333333</ele><time>2026-05-02T17:20:21.399Z</time></trkpt><trkpt lat="45.971745" lon="12.1652667"><ele>261.0</ele><time>2026-05-02T17:20:22.399Z</time></trkpt><trkpt lat="45.9717383" lon="12.165005"><ele>260.3333333333333</ele><time>2026-05-02T17:20:23.399Z</time></trkpt><trkpt lat="45.9717333" lon="12.1647483"><ele>259.66666666666663</ele><time>2026-05-02T17:20:24.399Z</time></trkpt><trkpt lat="45.9717283" lon="12.1644867"><ele>259.0</ele><time>2026-05-02T17:20:25.399Z</time></trkpt><trkpt lat="45.971725" lon="12.1642467"><ele>259.66666666666663</ele><time>2026-05-02T17:20:26.399Z</time></trkpt><trkpt lat="45.97172" lon="12.1640133"><ele>260.3333333333333</ele><time>2026-05-02T17:20:27.399Z</time></trkpt><trkpt lat="45.9717183" lon="12.1637733"><ele>261.0</ele><time>2026-05-02T17:20:28.399Z</time></trkpt><trkpt lat="45.9717183" lon="12.1635283"><ele>261.0</ele><time>2026-05-02T17:20:29.399Z</time></trkpt><trkpt lat="45.9717183" lon="12.1632817"><ele>261.0</ele><time>2026-05-02T17:20:30.399Z</time></trkpt><trkpt lat="45.9717083" lon="12.1630367"><ele>261.0</ele><time>2026-05-02T17:20:31.399Z</time></trkpt><trkpt lat="45.9717067" lon="12.1627817"><ele>261.0</ele><time>2026-05-02T17:20:32.399Z</time></trkpt><trkpt lat="45.9717217" lon="12.16251"><ele>261.0</ele><time>2026-05-02T17:20:33.399Z</time></trkpt><trkpt lat="45.9717367" lon="12.162215"><ele>261.0</ele><time>2026-05-02T17:20:34.399Z</time></trkpt><trkpt lat="45.9717183" lon="12.1619267"><ele>254.0</ele><time>2026-05-02T17:20:35.399Z</time></trkpt><trkpt lat="45.97169" lon="12.1616317"><ele>247.0</ele><time>2026-05-02T17:20:36.399Z</time></trkpt><trkpt lat="45.9716517" lon="12.161335"><ele>240.0</ele><time>2026-05-02T17:20:37.399Z</time></trkpt><trkpt lat="45.9715917" lon="12.161035"><ele>240.0</ele><time>2026-05-02T17:20:38.399Z</time></trkpt><trkpt lat="45.9715167" lon="12.16074"><ele>240.0</ele><time>2026-05-02T17:20:39.399Z</time></trkpt><trkpt lat="45.971445" lon="12.1604333"><ele>240.0</ele><time>2026-05-02T17:20:40.399Z</time></trkpt><trkpt lat="45.9713583" lon="12.1601217"><ele>254.5</ele><time>2026-05-02T17:20:41.398Z</time></trkpt><trkpt lat="45.9712733" lon="12.1598"><ele>269.0</ele><time>2026-05-02T17:20:42.399Z</time></trkpt><trkpt lat="45.97119" lon="12.1594717"><ele>269.0</ele><time>2026-05-02T17:20:43.398Z</time></trkpt><trkpt lat="45.97111" lon="12.1591517"><ele>269.0</ele><time>2026-05-02T17:20:44.399Z</time></trkpt><trkpt lat="45.9710367" lon="12.1588517"><ele>272.0</ele><time>2026-05-02T17:20:45.399Z</time></trkpt><trkpt lat="45.9709483" lon="12.1585617"><ele>275.0</ele><time>2026-05-02T17:20:46.399Z</time></trkpt><trkpt lat="45.970855" lon="12.1582783"><ele>278.0</ele><time>2026-05-02T17:20:47.399Z</time></trkpt><trkpt lat="45.9707517" lon="12.1580033"><ele>275.33333333333337</ele><time>2026-05-02T17:20:48.398Z</time></trkpt><trkpt lat="45.9706383" lon="12.1577467"><ele>272.6666666666667</ele><time>2026-05-02T17:20:49.399Z</time></trkpt><trkpt lat="45.9705167" lon="12.1574983"><ele>270.0</ele><time>2026-05-02T17:20:50.399Z</time></trkpt><trkpt lat="45.97039" lon="12.1572633"><ele>270.0</ele><time>2026-05-02T17:20:51.399Z</time></trkpt><trkpt lat="45.9702633" lon="12.1570367"><ele>270.0</ele><time>2026-05-02T17:20:52.398Z</time></trkpt><trkpt lat="45.9701433" lon="12.1568167"><ele>270.0</ele><time>2026-05-02T17:20:53.398Z</time></trkpt><trkpt lat="45.9700283" lon="12.15661"><ele>263.6666666666667</ele><time>2026-05-02T17:20:54.399Z</time></trkpt><trkpt lat="45.96992" lon="12.156405"><ele>257.33333333333337</ele><time>2026-05-02T17:20:55.399Z</time></trkpt><trkpt lat="45.9698133" lon="12.1562083"><ele>251.0</ele><time>2026-05-02T17:20:56.399Z</time></trkpt><trkpt lat="45.9697083" lon="12.15602"><ele>251.0</ele><time>2026-05-02T17:20:57.399Z</time></trkpt><trkpt lat="45.969605" lon="12.1558367"><ele>251.0</ele><time>2026-05-02T17:20:58.399Z</time></trkpt><trkpt lat="45.9695083" lon="12.1556583"><ele>251.0</ele><time>2026-05-02T17:20:59.399Z</time></trkpt><trkpt lat="45.9694133" lon="12.1554817"><ele>249.66666666666669</ele><time>2026-05-02T17:21:00.399Z</time></trkpt><trkpt lat="45.9693233" lon="12.1553067"><ele>248.33333333333331</ele><time>2026-05-02T17:21:01.399Z</time></trkpt><trkpt lat="45.9692267" lon="12.1551317"><ele>247.0</ele><time>2026-05-02T17:21:02.399Z</time></trkpt><trkpt lat="45.9691383" lon="12.1549583"><ele>249.66666666666666</ele><time>2026-05-02T17:21:03.399Z</time></trkpt><trkpt lat="45.9690467" lon="12.1547883"><ele>252.33333333333331</ele><time>2026-05-02T17:21:04.399Z</time></trkpt><trkpt lat="45.9689583" lon="12.1546083"><ele>255.0</ele><time>2026-05-02T17:21:05.399Z</time></trkpt><trkpt lat="45.9688633" lon="12.1544367"><ele>255.0</ele><time>2026-05-02T17:21:06.398Z</time></trkpt><trkpt lat="45.96877" lon="12.1542667"><ele>255.0</ele><time>2026-05-02T17:21:07.399Z</time></trkpt><trkpt lat="45.9686733" lon="12.1541033"><ele>255.0</ele><time>2026-05-02T17:21:08.399Z</time></trkpt><trkpt lat="45.968585" lon="12.1539383"><ele>255.0</ele><time>2026-05-02T17:21:09.399Z</time></trkpt><trkpt lat="45.9685" lon="12.1537733"><ele>257.3333333333333</ele><time>2026-05-02T17:21:10.398Z</time></trkpt><trkpt lat="45.96841" lon="12.1535933"><ele>259.66666666666663</ele><time>2026-05-02T17:21:11.398Z</time></trkpt><trkpt lat="45.9683183" lon="12.15342"><ele>262.0</ele><time>2026-05-02T17:21:12.399Z</time></trkpt><trkpt lat="45.96824" lon="12.15323"><ele>259.0</ele><time>2026-05-02T17:21:13.398Z</time></trkpt><trkpt lat="45.9681667" lon="12.1530283"><ele>256.0</ele><time>2026-05-02T17:21:14.399Z</time></trkpt><trkpt lat="45.9680917" lon="12.1528217"><ele>253.0</ele><time>2026-05-02T17:21:15.399Z</time></trkpt><trkpt lat="45.9680217" lon="12.1526117"><ele>253.0</ele><time>2026-05-02T17:21:16.399Z</time></trkpt><trkpt lat="45.9679533" lon="12.1523967"><ele>253.0</ele><time>2026-05-02T17:21:17.399Z</time></trkpt><trkpt lat="45.9679" lon="12.1521867"><ele>253.0</ele><time>2026-05-02T17:21:18.399Z</time></trkpt><trkpt lat="45.9678433" lon="12.151985"><ele>255.66666666666666</ele><time>2026-05-02T17:21:19.399Z</time></trkpt><trkpt lat="45.9677867" lon="12.151775"><ele>258.3333333333333</ele><time>2026-05-02T17:21:20.399Z</time></trkpt><trkpt lat="45.96773" lon="12.151555"><ele>261.0</ele><time>2026-05-02T17:21:21.399Z</time></trkpt><trkpt lat="45.9676617" lon="12.1513333"><ele>261.0</ele><time>2026-05-02T17:21:22.398Z</time></trkpt><trkpt lat="45.96759" lon="12.151105"><ele>261.0</ele><time>2026-05-02T17:21:23.398Z</time></trkpt><trkpt lat="45.9675233" lon="12.15087"><ele>261.0</ele><time>2026-05-02T17:21:24.399Z</time></trkpt><trkpt lat="45.9674583" lon="12.1506417"><ele>257.6666666666667</ele><time>2026-05-02T17:21:25.398Z</time></trkpt><trkpt lat="45.9673867" lon="12.1504217"><ele>254.33333333333334</ele><time>2026-05-02T17:21:26.399Z</time></trkpt><trkpt lat="45.96732" lon="12.1501983"><ele>251.0</ele><time>2026-05-02T17:21:27.399Z</time></trkpt><trkpt lat="45.9672467" lon="12.14997"><ele>251.0</ele><time>2026-05-02T17:21:28.399Z</time></trkpt><trkpt lat="45.9671733" lon="12.149735"><ele>251.0</ele><time>2026-05-02T17:21:29.399Z</time></trkpt><trkpt lat="45.967095" lon="12.1495033"><ele>251.0</ele><time>2026-05-02T17:21:30.399Z</time></trkpt><trkpt lat="45.9670167" lon="12.14927"><ele>250.66666666666669</ele><time>2026-05-02T17:21:31.399Z</time></trkpt><trkpt lat="45.9669367" lon="12.149035"><ele>250.33333333333331</ele><time>2026-05-02T17:21:32.399Z</time></trkpt><trkpt lat="45.9668467" lon="12.1488067"><ele>250.0</ele><time>2026-05-02T17:21:33.399Z</time></trkpt><trkpt lat="45.966755" lon="12.14857"><ele>249.33333333333331</ele><time>2026-05-02T17:21:34.399Z</time></trkpt><trkpt lat="45.9666533" lon="12.14831"><ele>248.66666666666669</ele><time>2026-05-02T17:21:35.399Z</time></trkpt><trkpt lat="45.9665383" lon="12.14805"><ele>248.0</ele><time>2026-05-02T17:21:36.398Z</time></trkpt><trkpt lat="45.9664217" lon="12.1477633"><ele>246.33333333333334</ele><time>2026-05-02T17:21:37.399Z</time></trkpt><trkpt lat="45.9663183" lon="12.147485"><ele>244.66666666666669</ele><time>2026-05-02T17:21:38.399Z</time></trkpt><trkpt lat="45.9662233" lon="12.1472267"><ele>243.0</ele><time>2026-05-02T17:21:39.399Z</time></trkpt><trkpt lat="45.96613" lon="12.1469933"><ele>242.33333333333331</ele><time>2026-05-02T17:21:40.398Z</time></trkpt><trkpt lat="45.9660433" lon="12.1467767"><ele>241.66666666666666</ele><time>2026-05-02T17:21:41.398Z</time></trkpt><trkpt lat="45.96597" lon="12.1465733"><ele>241.0</ele><time>2026-05-02T17:21:42.399Z</time></trkpt><trkpt lat="45.9658933" lon="12.1463633"><ele>239.66666666666666</ele><time>2026-05-02T17:21:43.399Z</time></trkpt><trkpt lat="45.9658217" lon="12.14615"><ele>238.33333333333331</ele><time>2026-05-02T17:21:44.399Z</time></trkpt><trkpt lat="45.9657517" lon="12.1459267"><ele>237.0</ele><time>2026-05-02T17:21:45.399Z</time></trkpt><trkpt lat="45.9656917" lon="12.1457"><ele>236.33333333333331</ele><time>2026-05-02T17:21:46.398Z</time></trkpt><trkpt lat="45.9656383" lon="12.1454617"><ele>235.66666666666666</ele><time>2026-05-02T17:21:47.399Z</time></trkpt><trkpt lat="45.9655917" lon="12.1452133"><ele>235.0</ele><time>2026-05-02T17:21:48.398Z</time></trkpt><trkpt lat="45.965565" lon="12.1449683"><ele>235.66666666666666</ele><time>2026-05-02T17:21:49.399Z</time></trkpt><trkpt lat="45.96554" lon="12.1447283"><ele>236.33333333333331</ele><time>2026-05-02T17:21:50.399Z</time></trkpt><trkpt lat="45.9655217" lon="12.1444933"><ele>237.0</ele><time>2026-05-02T17:21:51.399Z</time></trkpt><trkpt lat="45.9655017" lon="12.1442683"><ele>238.0</ele><time>2026-05-02T17:21:52.399Z</time></trkpt><trkpt lat="45.96549" lon="12.1440433"><ele>239.0</ele><time>2026-05-02T17:21:53.398Z</time></trkpt><trkpt lat="45.9654783" lon="12.1438167"><ele>240.0</ele><time>2026-05-02T17:21:54.399Z</time></trkpt><trkpt lat="45.9654617" lon="12.1435967"><ele>240.0</ele><time>2026-05-02T17:21:55.398Z</time></trkpt><trkpt lat="45.9654483" lon="12.14338"><ele>240.0</ele><time>2026-05-02T17:21:56.398Z</time></trkpt><trkpt lat="45.9654383" lon="12.14317"><ele>240.0</ele><time>2026-05-02T17:21:57.399Z</time></trkpt><trkpt lat="45.9654233" lon="12.14298"><ele>240.0</ele><time>2026-05-02T17:21:58.398Z</time></trkpt><trkpt lat="45.96541" lon="12.1428017"><ele>240.25</ele><time>2026-05-02T17:21:59.399Z</time></trkpt><trkpt lat="45.9654067" lon="12.14262"><ele>240.5</ele><time>2026-05-02T17:22:00.399Z</time></trkpt><trkpt lat="45.96541" lon="12.1424467"><ele>240.75</ele><time>2026-05-02T17:22:01.399Z</time></trkpt><trkpt lat="45.9654117" lon="12.1422917"><ele>241.0</ele><time>2026-05-02T17:22:02.399Z</time></trkpt><trkpt lat="45.9654167" lon="12.1421483"><ele>241.20000000000002</ele><time>2026-05-02T17:22:03.399Z</time></trkpt><trkpt lat="45.9654267" lon="12.142015"><ele>241.40000000000003</ele><time>2026-05-02T17:22:04.398Z</time></trkpt><trkpt lat="45.9654317" lon="12.1418733"><ele>241.6</ele><time>2026-05-02T17:22:05.399Z</time></trkpt><trkpt lat="45.9654217" lon="12.1417183"><ele>241.8</ele><time>2026-05-02T17:22:06.399Z</time></trkpt><trkpt lat="45.9654067" lon="12.1415583"><ele>242.0</ele><time>2026-05-02T17:22:07.399Z</time></trkpt><trkpt lat="45.965405" lon="12.14139"><ele>242.0</ele><time>2026-05-02T17:22:08.399Z</time></trkpt><trkpt lat="45.965415" lon="12.1412083"><ele>242.0</ele><time>2026-05-02T17:22:09.399Z</time></trkpt><trkpt lat="45.96543" lon="12.1410183"><ele>242.0</ele><time>2026-05-02T17:22:10.399Z</time></trkpt><trkpt lat="45.9654533" lon="12.1408267"><ele>242.0</ele><time>2026-05-02T17:22:11.399Z</time></trkpt><trkpt lat="45.96548" lon="12.1406417"><ele>241.25</ele><time>2026-05-02T17:22:12.399Z</time></trkpt><trkpt lat="45.9655017" lon="12.140445"><ele>240.5</ele><time>2026-05-02T17:22:13.398Z</time></trkpt><trkpt lat="45.965535" lon="12.140245"><ele>239.75</ele><time>2026-05-02T17:22:14.399Z</time></trkpt><trkpt lat="45.9655583" lon="12.1400467"><ele>239.0</ele><time>2026-05-02T17:22:15.399Z</time></trkpt><trkpt lat="45.9655833" lon="12.1398467"><ele>239.0</ele><time>2026-05-02T17:22:16.398Z</time></trkpt><trkpt lat="45.9656067" lon="12.139655"><ele>239.0</ele><time>2026-05-02T17:22:17.399Z</time></trkpt><trkpt lat="45.9656317" lon="12.1394583"><ele>239.0</ele><time>2026-05-02T17:22:18.399Z</time></trkpt><trkpt lat="45.96566" lon="12.13925"><ele>239.0</ele><time>2026-05-02T17:22:19.398Z</time></trkpt><trkpt lat="45.9656867" lon="12.1390533"><ele>239.0</ele><time>2026-05-02T17:22:20.399Z</time></trkpt><trkpt lat="45.96571" lon="12.1388683"><ele>239.0</ele><time>2026-05-02T17:22:21.398Z</time></trkpt><trkpt lat="45.9657267" lon="12.1386883"><ele>239.0</ele><time>2026-05-02T17:22:22.399Z</time></trkpt><trkpt lat="45.965745" lon="12.1385183"><ele>239.0</ele><time>2026-05-02T17:22:23.398Z</time></trkpt><trkpt lat="45.9657667" lon="12.138355"><ele>238.6</ele><time>2026-05-02T17:22:24.399Z</time></trkpt><trkpt lat="45.9657833" lon="12.1382167"><ele>238.2</ele><time>2026-05-02T17:22:25.398Z</time></trkpt><trkpt lat="45.9658067" lon="12.1380817"><ele>237.79999999999998</ele><time>2026-05-02T17:22:26.399Z</time></trkpt><trkpt lat="45.9658383" lon="12.1379483"><ele>237.39999999999998</ele><time>2026-05-02T17:22:27.399Z</time></trkpt><trkpt lat="45.9658783" lon="12.13783"><ele>237.0</ele><time>2026-05-02T17:22:28.398Z</time></trkpt><trkpt lat="45.96592" lon="12.13773"><ele>239.2</ele><time>2026-05-02T17:22:29.399Z</time></trkpt><trkpt lat="45.9659467" lon="12.1376183"><ele>241.39999999999998</ele><time>2026-05-02T17:22:30.399Z</time></trkpt><trkpt lat="45.965955" lon="12.137485"><ele>243.60000000000002</ele><time>2026-05-02T17:22:31.399Z</time></trkpt><trkpt lat="45.965935" lon="12.1373267"><ele>245.8</ele><time>2026-05-02T17:22:32.398Z</time></trkpt><trkpt lat="45.965905" lon="12.13715"><ele>248.0</ele><time>2026-05-02T17:22:33.399Z</time></trkpt><trkpt lat="45.9658783" lon="12.136965"><ele>246.5</ele><time>2026-05-02T17:22:34.399Z</time></trkpt><trkpt lat="45.9658683" lon="12.1367683"><ele>245.0</ele><time>2026-05-02T17:22:35.399Z</time></trkpt><trkpt lat="45.9658617" lon="12.1365617"><ele>243.5</ele><time>2026-05-02T17:22:36.399Z</time></trkpt><trkpt lat="45.9658467" lon="12.1363367"><ele>242.0</ele><time>2026-05-02T17:22:37.399Z</time></trkpt><trkpt lat="45.9657983" lon="12.1360767"><ele>242.0</ele><time>2026-05-02T17:22:38.399Z</time></trkpt><trkpt lat="45.9657317" lon="12.1357833"><ele>242.0</ele><time>2026-05-02T17:22:39.398Z</time></trkpt><trkpt lat="45.9656633" lon="12.1354883"><ele>242.0</ele><time>2026-05-02T17:22:40.399Z</time></trkpt><trkpt lat="45.96559" lon="12.1352167"><ele>241.0</ele><time>2026-05-02T17:22:41.399Z</time></trkpt><trkpt lat="45.9654867" lon="12.1349583"><ele>240.0</ele><time>2026-05-02T17:22:42.399Z</time></trkpt><trkpt lat="45.9653567" lon="12.1347033"><ele>239.0</ele><time>2026-05-02T17:22:43.399Z</time></trkpt><trkpt lat="45.9652083" lon="12.134465"><ele>237.0</ele><time>2026-05-02T17:22:44.399Z</time></trkpt><trkpt lat="45.9650467" lon="12.134225"><ele>235.0</ele><time>2026-05-02T17:22:45.399Z</time></trkpt><trkpt lat="45.9648783" lon="12.13399"><ele>234.0</ele><time>2026-05-02T17:22:46.399Z</time></trkpt><trkpt lat="45.9647183" lon="12.1337733"><ele>233.0</ele><time>2026-05-02T17:22:47.399Z</time></trkpt><trkpt lat="45.9645617" lon="12.1335717"><ele>232.0</ele><time>2026-05-02T17:22:48.398Z</time></trkpt><trkpt lat="45.9644067" lon="12.1333783"><ele>231.66666666666666</ele><time>2026-05-02T17:22:49.399Z</time></trkpt><trkpt lat="45.96426" lon="12.1331867"><ele>231.33333333333331</ele><time>2026-05-02T17:22:50.399Z</time></trkpt><trkpt lat="45.96412" lon="12.133"><ele>231.0</ele><time>2026-05-02T17:22:51.399Z</time></trkpt><trkpt lat="45.9639833" lon="12.132825"><ele>230.0</ele><time>2026-05-02T17:22:52.399Z</time></trkpt><trkpt lat="45.9638567" lon="12.1326517"><ele>229.0</ele><time>2026-05-02T17:22:53.399Z</time></trkpt><trkpt lat="45.9637383" lon="12.1324867"><ele>228.0</ele><time>2026-05-02T17:22:54.399Z</time></trkpt><trkpt lat="45.9636183" lon="12.1323217"><ele>227.66666666666669</ele><time>2026-05-02T17:22:55.399Z</time></trkpt><trkpt lat="45.963495" lon="12.1321533"><ele>227.33333333333334</ele><time>2026-05-02T17:22:56.399Z</time></trkpt><trkpt lat="45.96337" lon="12.131975"><ele>227.0</ele><time>2026-05-02T17:22:57.399Z</time></trkpt><trkpt lat="45.9632417" lon="12.1317933"><ele>227.0</ele><time>2026-05-02T17:22:58.399Z</time></trkpt><trkpt lat="45.9631183" lon="12.13162"><ele>227.0</ele><time>2026-05-02T17:22:59.398Z</time></trkpt><trkpt lat="45.9629983" lon="12.1314467"><ele>227.0</ele><time>2026-05-02T17:23:00.399Z</time></trkpt><trkpt lat="45.9628783" lon="12.1312783"><ele>225.66666666666669</ele><time>2026-05-02T17:23:01.399Z</time></trkpt><trkpt lat="45.9627583" lon="12.1311183"><ele>224.33333333333331</ele><time>2026-05-02T17:23:02.398Z</time></trkpt><trkpt lat="45.96264" lon="12.1309667"><ele>223.0</ele><time>2026-05-02T17:23:03.399Z</time></trkpt><trkpt lat="45.96253" lon="12.1308217"><ele>222.25</ele><time>2026-05-02T17:23:04.399Z</time></trkpt><trkpt lat="45.9624317" lon="12.13068"><ele>221.5</ele><time>2026-05-02T17:23:05.399Z</time></trkpt><trkpt lat="45.962335" lon="12.130545"><ele>220.75</ele><time>2026-05-02T17:23:06.399Z</time></trkpt><trkpt lat="45.9622433" lon="12.1304133"><ele>220.0</ele><time>2026-05-02T17:23:07.399Z</time></trkpt><trkpt lat="45.9621533" lon="12.130285"><ele>220.0</ele><time>2026-05-02T17:23:08.399Z</time></trkpt><trkpt lat="45.9620533" lon="12.130155"><ele>220.0</ele><time>2026-05-02T17:23:09.399Z</time></trkpt><trkpt lat="45.9619533" lon="12.1300217"><ele>220.0</ele><time>2026-05-02T17:23:10.399Z</time></trkpt><trkpt lat="45.96185" lon="12.129885"><ele>220.0</ele><time>2026-05-02T17:23:11.398Z</time></trkpt><trkpt lat="45.96174" lon="12.1297517"><ele>220.25</ele><time>2026-05-02T17:23:12.399Z</time></trkpt><trkpt lat="45.9616317" lon="12.1296233"><ele>220.5</ele><time>2026-05-02T17:23:13.399Z</time></trkpt><trkpt lat="45.961525" lon="12.1294867"><ele>220.75</ele><time>2026-05-02T17:23:14.399Z</time></trkpt><trkpt lat="45.961425" lon="12.1293517"><ele>221.0</ele><time>2026-05-02T17:23:15.399Z</time></trkpt><trkpt lat="45.96132" lon="12.12921"><ele>221.0</ele><time>2026-05-02T17:23:16.398Z</time></trkpt><trkpt lat="45.9612117" lon="12.1290633"><ele>221.0</ele><time>2026-05-02T17:23:17.398Z</time></trkpt><trkpt lat="45.9610983" lon="12.128905"><ele>221.0</ele><time>2026-05-02T17:23:18.399Z</time></trkpt><trkpt lat="45.9609817" lon="12.1287483"><ele>220.0</ele><time>2026-05-02T17:23:19.398Z</time></trkpt><trkpt lat="45.9608667" lon="12.1285867"><ele>219.0</ele><time>2026-05-02T17:23:20.399Z</time></trkpt><trkpt lat="45.9607567" lon="12.1284367"><ele>218.0</ele><time>2026-05-02T17:23:21.399Z</time></trkpt><trkpt lat="45.9606433" lon="12.1282867"><ele>218.0</ele><time>2026-05-02T17:23:22.398Z</time></trkpt><trkpt lat="45.960545" lon="12.1281383"><ele>218.0</ele><time>2026-05-02T17:23:23.399Z</time></trkpt><trkpt lat="45.9604533" lon="12.1279867"><ele>218.0</ele><time>2026-05-02T17:23:24.399Z</time></trkpt><trkpt lat="45.9603667" lon="12.127825"><ele>218.0</ele><time>2026-05-02T17:23:25.398Z</time></trkpt><trkpt lat="45.9602867" lon="12.1276583"><ele>218.0</ele><time>2026-05-02T17:23:26.399Z</time></trkpt><trkpt lat="45.960205" lon="12.1274833"><ele>218.0</ele><time>2026-05-02T17:23:27.399Z</time></trkpt><trkpt lat="45.9601317" lon="12.1273017"><ele>218.0</ele><time>2026-05-02T17:23:28.398Z</time></trkpt><trkpt lat="45.9600617" lon="12.1271117"><ele>218.0</ele><time>2026-05-02T17:23:29.398Z</time></trkpt><trkpt lat="45.9599933" lon="12.1269217"><ele>217.25</ele><time>2026-05-02T17:23:30.399Z</time></trkpt><trkpt lat="45.9599367" lon="12.1267183"><ele>216.5</ele><time>2026-05-02T17:23:31.399Z</time></trkpt><trkpt lat="45.9598783" lon="12.126525"><ele>215.75</ele><time>2026-05-02T17:23:32.398Z</time></trkpt><trkpt lat="45.959815" lon="12.1263383"><ele>215.0</ele><time>2026-05-02T17:23:33.399Z</time></trkpt><trkpt lat="45.95975" lon="12.126155"><ele>215.0</ele><time>2026-05-02T17:23:34.398Z</time></trkpt><trkpt lat="45.9596883" lon="12.1259717"><ele>215.0</ele><time>2026-05-02T17:23:35.399Z</time></trkpt><trkpt lat="45.9596317" lon="12.1257833"><ele>215.0</ele><time>2026-05-02T17:23:36.399Z</time></trkpt><trkpt lat="45.9595667" lon="12.1256"><ele>215.0</ele><time>2026-05-02T17:23:37.399Z</time></trkpt><trkpt lat="45.9594983" lon="12.1254233"><ele>214.75</ele><time>2026-05-02T17:23:38.399Z</time></trkpt><trkpt lat="45.9594233" lon="12.1252483"><ele>214.5</ele><time>2026-05-02T17:23:39.399Z</time></trkpt><trkpt lat="45.9593433" lon="12.1250717"><ele>214.25</ele><time>2026-05-02T17:23:40.399Z</time></trkpt><trkpt lat="45.959265" lon="12.1248917"><ele>214.0</ele><time>2026-05-02T17:23:41.399Z</time></trkpt><trkpt lat="45.959185" lon="12.1247233"><ele>213.5</ele><time>2026-05-02T17:23:42.399Z</time></trkpt><trkpt lat="45.9590983" lon="12.124575"><ele>213.0</ele><time>2026-05-02T17:23:43.399Z</time></trkpt><trkpt lat="45.9589983" lon="12.12443"><ele>212.5</ele><time>2026-05-02T17:23:44.399Z</time></trkpt><trkpt lat="45.9589133" lon="12.1242733"><ele>212.0</ele><time>2026-05-02T17:23:45.398Z</time></trkpt><trkpt lat="45.95881" lon="12.1241333"><ele>211.0</ele><time>2026-05-02T17:23:46.399Z</time></trkpt><trkpt lat="45.958715" lon="12.1239967"><ele>210.0</ele><time>2026-05-02T17:23:47.399Z</time></trkpt><trkpt lat="45.9586083" lon="12.1238717"><ele>209.0</ele><time>2026-05-02T17:23:48.398Z</time></trkpt><trkpt lat="45.9585033" lon="12.12375"><ele>208.0</ele><time>2026-05-02T17:23:49.399Z</time></trkpt><trkpt lat="45.9583967" lon="12.12363"><ele>207.75</ele><time>2026-05-02T17:23:50.399Z</time></trkpt><trkpt lat="45.9582767" lon="12.1235233"><ele>207.5</ele><time>2026-05-02T17:23:51.399Z</time></trkpt><trkpt lat="45.9581517" lon="12.1234133"><ele>207.25</ele><time>2026-05-02T17:23:52.399Z</time></trkpt><trkpt lat="45.9580283" lon="12.123305"><ele>207.0</ele><time>2026-05-02T17:23:53.399Z</time></trkpt><trkpt lat="45.957905" lon="12.1231967"><ele>206.0</ele><time>2026-05-02T17:23:54.399Z</time></trkpt><trkpt lat="45.9577767" lon="12.12308"><ele>205.0</ele><time>2026-05-02T17:23:55.399Z</time></trkpt><trkpt lat="45.95765" lon="12.12297"><ele>204.0</ele><time>2026-05-02T17:23:56.399Z</time></trkpt><trkpt lat="45.9575233" lon="12.122855"><ele>203.66666666666669</ele><time>2026-05-02T17:23:57.399Z</time></trkpt><trkpt lat="45.9573917" lon="12.1227267"><ele>203.33333333333334</ele><time>2026-05-02T17:23:58.398Z</time></trkpt><trkpt lat="45.9572567" lon="12.122605"><ele>203.0</ele><time>2026-05-02T17:23:59.398Z</time></trkpt><trkpt lat="45.9571217" lon="12.12247"><ele>203.0</ele><time>2026-05-02T17:24:00.399Z</time></trkpt><trkpt lat="45.9569833" lon="12.122335"><ele>203.0</ele><time>2026-05-02T17:24:01.399Z</time></trkpt><trkpt lat="45.956845" lon="12.122205"><ele>203.0</ele><time>2026-05-02T17:24:02.399Z</time></trkpt><trkpt lat="45.9566967" lon="12.1220683"><ele>202.33333333333334</ele><time>2026-05-02T17:24:03.399Z</time></trkpt><trkpt lat="45.95655" lon="12.1219333"><ele>201.66666666666669</ele><time>2026-05-02T17:24:04.399Z</time></trkpt><trkpt lat="45.95639" lon="12.121805"><ele>201.0</ele><time>2026-05-02T17:24:05.399Z</time></trkpt><trkpt lat="45.95624" lon="12.12167"><ele>201.66666666666669</ele><time>2026-05-02T17:24:06.399Z</time></trkpt><trkpt lat="45.9560967" lon="12.12153"><ele>202.33333333333334</ele><time>2026-05-02T17:24:07.398Z</time></trkpt><trkpt lat="45.9559433" lon="12.1213983"><ele>203.0</ele><time>2026-05-02T17:24:08.398Z</time></trkpt><trkpt lat="45.9557883" lon="12.1212767"><ele>201.66666666666669</ele><time>2026-05-02T17:24:09.399Z</time></trkpt><trkpt lat="45.9556367" lon="12.12115"><ele>200.33333333333331</ele><time>2026-05-02T17:24:10.399Z</time></trkpt><trkpt lat="45.9554967" lon="12.1210083"><ele>199.0</ele><time>2026-05-02T17:24:11.399Z</time></trkpt><trkpt lat="45.9553583" lon="12.1208717"><ele>199.33333333333331</ele><time>2026-05-02T17:24:12.399Z</time></trkpt><trkpt lat="45.955215" lon="12.12073"><ele>199.66666666666669</ele><time>2026-05-02T17:24:13.399Z</time></trkpt><trkpt lat="45.9550683" lon="12.1205933"><ele>200.0</ele><time>2026-05-02T17:24:14.398Z</time></trkpt><trkpt lat="45.9549267" lon="12.1204417"><ele>199.0</ele><time>2026-05-02T17:24:15.398Z</time></trkpt><trkpt lat="45.9547833" lon="12.1202883"><ele>198.0</ele><time>2026-05-02T17:24:16.399Z</time></trkpt><trkpt lat="45.9546467" lon="12.1201383"><ele>197.0</ele><time>2026-05-02T17:24:17.399Z</time></trkpt><trkpt lat="45.95451" lon="12.1199917"><ele>198.0</ele><time>2026-05-02T17:24:18.398Z</time></trkpt><trkpt lat="45.9543717" lon="12.1198517"><ele>199.0</ele><time>2026-05-02T17:24:19.398Z</time></trkpt><trkpt lat="45.9542383" lon="12.11972"><ele>200.0</ele><time>2026-05-02T17:24:20.399Z</time></trkpt><trkpt lat="45.9541033" lon="12.1195933"><ele>200.0</ele><time>2026-05-02T17:24:21.399Z</time></trkpt><trkpt lat="45.953985" lon="12.1194533"><ele>200.0</ele><time>2026-05-02T17:24:22.399Z</time></trkpt><trkpt lat="45.9538717" lon="12.1193083"><ele>200.0</ele><time>2026-05-02T17:24:23.399Z</time></trkpt><trkpt lat="45.953775" lon="12.11916"><ele>200.0</ele><time>2026-05-02T17:24:24.399Z</time></trkpt><trkpt lat="45.95369" lon="12.118995"><ele>201.25</ele><time>2026-05-02T17:24:25.399Z</time></trkpt><trkpt lat="45.9536117" lon="12.1188217"><ele>202.5</ele><time>2026-05-02T17:24:26.399Z</time></trkpt><trkpt lat="45.9535467" lon="12.11865"><ele>203.75</ele><time>2026-05-02T17:24:27.399Z</time></trkpt><trkpt lat="45.9534833" lon="12.1184983"><ele>205.0</ele><time>2026-05-02T17:24:28.399Z</time></trkpt><trkpt lat="45.9534117" lon="12.1183667"><ele>202.75</ele><time>2026-05-02T17:24:29.399Z</time></trkpt><trkpt lat="45.9533217" lon="12.1182583"><ele>200.5</ele><time>2026-05-02T17:24:30.399Z</time></trkpt><trkpt lat="45.9532" lon="12.11815"><ele>198.25</ele><time>2026-05-02T17:24:31.398Z</time></trkpt><trkpt lat="45.953095" lon="12.11802"><ele>196.0</ele><time>2026-05-02T17:24:32.399Z</time></trkpt><trkpt lat="45.9530067" lon="12.117865"><ele>195.5</ele><time>2026-05-02T17:24:33.398Z</time></trkpt><trkpt lat="45.952925" lon="12.117685"><ele>195.0</ele><time>2026-05-02T17:24:34.399Z</time></trkpt><trkpt lat="45.9528417" lon="12.1175133"><ele>194.5</ele><time>2026-05-02T17:24:35.399Z</time></trkpt><trkpt lat="45.9527583" lon="12.117335"><ele>194.0</ele><time>2026-05-02T17:24:36.398Z</time></trkpt><trkpt lat="45.9526683" lon="12.1171533"><ele>194.0</ele><time>2026-05-02T17:24:37.399Z</time></trkpt><trkpt lat="45.9525817" lon="12.116965"><ele>194.0</ele><time>2026-05-02T17:24:38.399Z</time></trkpt><trkpt lat="45.9525" lon="12.11677"><ele>194.0</ele><time>2026-05-02T17:24:39.398Z</time></trkpt><trkpt lat="45.9524033" lon="12.1165983"><ele>194.66666666666669</ele><time>2026-05-02T17:24:40.399Z</time></trkpt><trkpt lat="45.9523067" lon="12.11642"><ele>195.33333333333331</ele><time>2026-05-02T17:24:41.399Z</time></trkpt><trkpt lat="45.952215" lon="12.116245"><ele>196.0</ele><time>2026-05-02T17:24:42.399Z</time></trkpt><trkpt lat="45.95213" lon="12.1160633"><ele>196.0</ele><time>2026-05-02T17:24:43.399Z</time></trkpt><trkpt lat="45.9520467" lon="12.1158617"><ele>196.0</ele><time>2026-05-02T17:24:44.399Z</time></trkpt><trkpt lat="45.9519767" lon="12.11564"><ele>196.0</ele><time>2026-05-02T17:24:45.399Z</time></trkpt><trkpt lat="45.9519167" lon="12.1153983"><ele>197.0</ele><time>2026-05-02T17:24:46.398Z</time></trkpt><trkpt lat="45.9518733" lon="12.11515"><ele>198.0</ele><time>2026-05-02T17:24:47.398Z</time></trkpt><trkpt lat="45.9518417" lon="12.1149033"><ele>199.0</ele><time>2026-05-02T17:24:48.399Z</time></trkpt><trkpt lat="45.9518133" lon="12.1146533"><ele>200.0</ele><time>2026-05-02T17:24:49.399Z</time></trkpt><trkpt lat="45.9517933" lon="12.1144067"><ele>201.0</ele><time>2026-05-02T17:24:50.399Z</time></trkpt><trkpt lat="45.9517883" lon="12.1141517"><ele>202.0</ele><time>2026-05-02T17:24:51.398Z</time></trkpt><trkpt lat="45.9517633" lon="12.1139067"><ele>203.66666666666666</ele><time>2026-05-02T17:24:52.398Z</time></trkpt><trkpt lat="45.9517417" lon="12.1136467"><ele>205.33333333333331</ele><time>2026-05-02T17:24:53.399Z</time></trkpt><trkpt lat="45.9517267" lon="12.11339"><ele>207.0</ele><time>2026-05-02T17:24:54.399Z</time></trkpt><trkpt lat="45.9517117" lon="12.1131317"><ele>206.66666666666669</ele><time>2026-05-02T17:24:55.399Z</time></trkpt><trkpt lat="45.9516967" lon="12.1128833"><ele>206.33333333333334</ele><time>2026-05-02T17:24:56.398Z</time></trkpt><trkpt lat="45.9516783" lon="12.112635"><ele>206.0</ele><time>2026-05-02T17:24:57.399Z</time></trkpt><trkpt lat="45.9516617" lon="12.112405"><ele>206.75</ele><time>2026-05-02T17:24:58.399Z</time></trkpt><trkpt lat="45.9516433" lon="12.112185"><ele>207.5</ele><time>2026-05-02T17:24:59.399Z</time></trkpt><trkpt lat="45.95163" lon="12.11198"><ele>208.25</ele><time>2026-05-02T17:25:00.399Z</time></trkpt><trkpt lat="45.9516117" lon="12.1117917"><ele>209.0</ele><time>2026-05-02T17:25:01.399Z</time></trkpt><trkpt lat="45.9515867" lon="12.11163"><ele>209.66666666666669</ele><time>2026-05-02T17:25:02.399Z</time></trkpt><trkpt lat="45.9515683" lon="12.1115"><ele>210.33333333333334</ele><time>2026-05-02T17:25:03.399Z</time></trkpt><trkpt lat="45.9515617" lon="12.1113917"><ele>211.0</ele><time>2026-05-02T17:25:04.398Z</time></trkpt><trkpt lat="45.9516083" lon="12.11124"><ele>211.66666666666669</ele><time>2026-05-02T17:25:06.399Z</time></trkpt><trkpt lat="45.9516683" lon="12.1111867"><ele>212.33333333333334</ele><time>2026-05-02T17:25:07.399Z</time></trkpt><trkpt lat="45.951745" lon="12.11113"><ele>213.0</ele><time>2026-05-02T17:25:08.399Z</time></trkpt><trkpt lat="45.95183" lon="12.1110833"><ele>215.60000000000002</ele><time>2026-05-02T17:25:09.399Z</time></trkpt><trkpt lat="45.9519" lon="12.1110417"><ele>218.20000000000002</ele><time>2026-05-02T17:25:10.398Z</time></trkpt><trkpt lat="45.9519933" lon="12.111045"><ele>220.8</ele><time>2026-05-02T17:25:12.399Z</time></trkpt><trkpt lat="45.9520633" lon="12.1112033"><ele>223.4</ele><time>2026-05-02T17:25:14.399Z</time></trkpt><trkpt lat="45.9520917" lon="12.1113183"><ele>226.0</ele><time>2026-05-02T17:25:15.398Z</time></trkpt><trkpt lat="45.9521117" lon="12.1114167"><ele>225.99999999999997</ele><time>2026-05-02T17:25:16.399Z</time></trkpt><trkpt lat="45.9521383" lon="12.1115283"><ele>226.0</ele><time>2026-05-02T17:25:18.398Z</time></trkpt><trkpt lat="45.952205" lon="12.1115633"><ele>226.0</ele><time>2026-05-02T17:27:06.398Z</time></trkpt><trkpt lat="45.9522633" lon="12.1116033"><ele>226.0</ele><time>2026-05-02T17:27:22.398Z</time></trkpt><trkpt lat="45.95219" lon="12.1115967"><ele>225.99999999999997</ele><time>2026-05-02T17:27:41.399Z</time></trkpt><trkpt lat="45.9522083" lon="12.1117267"><ele>226.0</ele><time>2026-05-02T17:27:55.399Z</time></trkpt><trkpt lat="45.9522583" lon="12.1118283"><ele>226.8</ele><time>2026-05-02T17:27:56.399Z</time></trkpt><trkpt lat="45.9523217" lon="12.1119483"><ele>227.60000000000002</ele><time>2026-05-02T17:27:57.398Z</time></trkpt><trkpt lat="45.9523867" lon="12.1120767"><ele>228.4</ele><time>2026-05-02T17:27:58.399Z</time></trkpt><trkpt lat="45.952445" lon="12.11222"><ele>229.2</ele><time>2026-05-02T17:27:59.398Z</time></trkpt><trkpt lat="45.9525067" lon="12.11235"><ele>230.0</ele><time>2026-05-02T17:28:00.399Z</time></trkpt><trkpt lat="45.9525667" lon="12.1124717"><ele>230.0</ele><time>2026-05-02T17:28:01.398Z</time></trkpt><trkpt lat="45.952625" lon="12.1125867"><ele>230.0</ele><time>2026-05-02T17:28:02.398Z</time></trkpt><trkpt lat="45.952685" lon="12.1126917"><ele>230.0</ele><time>2026-05-02T17:28:03.399Z</time></trkpt><trkpt lat="45.952745" lon="12.1127733"><ele>230.0</ele><time>2026-05-02T17:28:04.399Z</time></trkpt><trkpt lat="45.9527983" lon="12.1128533"><ele>230.0</ele><time>2026-05-02T17:28:05.398Z</time></trkpt><trkpt lat="45.9528683" lon="12.1129783"><ele>230.0</ele><time>2026-05-02T17:28:07.399Z</time></trkpt><trkpt lat="45.9528833" lon="12.1130867"><ele>230.0</ele><time>2026-05-02T17:28:09.399Z</time></trkpt><trkpt lat="45.9527917" lon="12.1132567"><ele>230.0</ele><time>2026-05-02T17:28:11.399Z</time></trkpt><trkpt lat="45.9527133" lon="12.1133733"><ele>230.0</ele><time>2026-05-02T17:28:12.399Z</time></trkpt><trkpt lat="45.9526383" lon="12.11347"><ele>230.0</ele><time>2026-05-02T17:28:13.399Z</time></trkpt><trkpt lat="45.9525417" lon="12.1135533"><ele>226.0</ele><time>2026-05-02T17:28:15.398Z</time></trkpt><trkpt lat="45.95248" lon="12.1135133"><ele>222.0</ele><time>2026-05-02T17:28:18.399Z</time></trkpt><trkpt lat="45.9523933" lon="12.1133233"><ele>218.0</ele><time>2026-05-02T17:28:20.398Z</time></trkpt><trkpt lat="45.9523283" lon="12.1131483"><ele>214.0</ele><time>2026-05-02T17:28:21.399Z</time></trkpt><trkpt lat="45.9522517" lon="12.112965"><ele>214.0</ele><time>2026-05-02T17:28:22.399Z</time></trkpt><trkpt lat="45.9521633" lon="12.1127683"><ele>214.0</ele><time>2026-05-02T17:28:23.399Z</time></trkpt><trkpt lat="45.95208" lon="12.112565"><ele>214.0</ele><time>2026-05-02T17:28:24.399Z</time></trkpt><trkpt lat="45.9519933" lon="12.1123783"><ele>215.0</ele><time>2026-05-02T17:28:25.399Z</time></trkpt><trkpt lat="45.951925" lon="12.1122033"><ele>215.99999999999997</ele><time>2026-05-02T17:28:26.399Z</time></trkpt><trkpt lat="45.9518583" lon="12.1120467"><ele>216.99999999999997</ele><time>2026-05-02T17:28:27.398Z</time></trkpt><trkpt lat="45.9517983" lon="12.1119283"><ele>218.0</ele><time>2026-05-02T17:28:28.399Z</time></trkpt><trkpt lat="45.951765" lon="12.1118433"><ele>219.0</ele><time>2026-05-02T17:28:29.399Z</time></trkpt><trkpt lat="45.9516983" lon="12.1118217"><ele>217.0</ele><time>2026-05-02T17:28:31.399Z</time></trkpt><trkpt lat="45.9516433" lon="12.1119"><ele>214.99999999999997</ele><time>2026-05-02T17:28:33.399Z</time></trkpt><trkpt lat="45.9516267" lon="12.1120033"><ele>213.0</ele><time>2026-05-02T17:28:34.398Z</time></trkpt><trkpt lat="45.9516283" lon="12.1121583"><ele>211.0</ele><time>2026-05-02T17:28:35.399Z</time></trkpt><trkpt lat="45.9516517" lon="12.1123717"><ele>209.0</ele><time>2026-05-02T17:28:36.399Z</time></trkpt><trkpt lat="45.9516683" lon="12.112635"><ele>208.33333333333334</ele><time>2026-05-02T17:28:37.398Z</time></trkpt><trkpt lat="45.951685" lon="12.1129217"><ele>207.66666666666669</ele><time>2026-05-02T17:28:38.399Z</time></trkpt><trkpt lat="45.951705" lon="12.1132333"><ele>207.0</ele><time>2026-05-02T17:28:39.398Z</time></trkpt><trkpt lat="45.9517167" lon="12.113565"><ele>207.0</ele><time>2026-05-02T17:28:40.399Z</time></trkpt><trkpt lat="45.95174" lon="12.113885"><ele>207.0</ele><time>2026-05-02T17:28:41.398Z</time></trkpt><trkpt lat="45.951755" lon="12.1141967"><ele>207.0</ele><time>2026-05-02T17:28:42.399Z</time></trkpt><trkpt lat="45.9517783" lon="12.1144983"><ele>205.33333333333331</ele><time>2026-05-02T17:28:43.399Z</time></trkpt><trkpt lat="45.9518083" lon="12.1148067"><ele>203.66666666666666</ele><time>2026-05-02T17:28:44.399Z</time></trkpt><trkpt lat="45.9518467" lon="12.1151083"><ele>202.0</ele><time>2026-05-02T17:28:45.399Z</time></trkpt><trkpt lat="45.951905" lon="12.1154"><ele>201.0</ele><time>2026-05-02T17:28:46.399Z</time></trkpt><trkpt lat="45.95198" lon="12.1156817"><ele>200.0</ele><time>2026-05-02T17:28:47.399Z</time></trkpt><trkpt lat="45.9520633" lon="12.1159533"><ele>199.0</ele><time>2026-05-02T17:28:48.399Z</time></trkpt><trkpt lat="45.9521633" lon="12.1161983"><ele>198.0</ele><time>2026-05-02T17:28:49.399Z</time></trkpt><trkpt lat="45.9522717" lon="12.1164317"><ele>197.0</ele><time>2026-05-02T17:28:50.399Z</time></trkpt><trkpt lat="45.9523767" lon="12.1166583"><ele>196.0</ele><time>2026-05-02T17:28:51.399Z</time></trkpt><trkpt lat="45.9524883" lon="12.1168717"><ele>195.33333333333331</ele><time>2026-05-02T17:28:52.399Z</time></trkpt><trkpt lat="45.9526033" lon="12.1170767"><ele>194.66666666666669</ele><time>2026-05-02T17:28:53.399Z</time></trkpt><trkpt lat="45.9527083" lon="12.1172733"><ele>194.0</ele><time>2026-05-02T17:28:54.398Z</time></trkpt><trkpt lat="45.952805" lon="12.1174583"><ele>194.0</ele><time>2026-05-02T17:28:55.399Z</time></trkpt><trkpt lat="45.9528883" lon="12.11763"><ele>194.0</ele><time>2026-05-02T17:28:56.399Z</time></trkpt><trkpt lat="45.9529533" lon="12.117775"><ele>194.0</ele><time>2026-05-02T17:28:57.399Z</time></trkpt><trkpt lat="45.9530083" lon="12.117885"><ele>194.0</ele><time>2026-05-02T17:28:58.399Z</time></trkpt><trkpt lat="45.9530533" lon="12.117985"><ele>194.0</ele><time>2026-05-02T17:28:59.398Z</time></trkpt><trkpt lat="45.95308" lon="12.1180783"><ele>194.0</ele><time>2026-05-02T17:29:00.399Z</time></trkpt><trkpt lat="45.9530783" lon="12.11819"><ele>194.0</ele><time>2026-05-02T17:29:01.399Z</time></trkpt><trkpt lat="45.9530567" lon="12.11829"><ele>194.0</ele><time>2026-05-02T17:29:02.399Z</time></trkpt><trkpt lat="45.9530083" lon="12.1183833"><ele>194.0</ele><time>2026-05-02T17:29:03.399Z</time></trkpt><trkpt lat="45.9529417" lon="12.1184817"><ele>194.0</ele><time>2026-05-02T17:29:04.399Z</time></trkpt><trkpt lat="45.9528117" lon="12.1185517"><ele>194.0</ele><time>2026-05-02T17:29:05.399Z</time></trkpt><trkpt lat="45.95267" lon="12.1186183"><ele>194.0</ele><time>2026-05-02T17:29:06.398Z</time></trkpt><trkpt lat="45.9525217" lon="12.11868"><ele>194.0</ele><time>2026-05-02T17:29:07.399Z</time></trkpt><trkpt lat="45.9523783" lon="12.1187383"><ele>194.0</ele><time>2026-05-02T17:29:08.399Z</time></trkpt><trkpt lat="45.9522333" lon="12.118815"><ele>194.0</ele><time>2026-05-02T17:29:09.399Z</time></trkpt><trkpt lat="45.9520917" lon="12.1188867"><ele>194.0</ele><time>2026-05-02T17:29:10.399Z</time></trkpt><trkpt lat="45.95197" lon="12.1189733"><ele>194.0</ele><time>2026-05-02T17:29:11.399Z</time></trkpt><trkpt lat="45.9518533" lon="12.1190667"><ele>193.5</ele><time>2026-05-02T17:29:12.399Z</time></trkpt><trkpt lat="45.9517317" lon="12.1191717"><ele>193.0</ele><time>2026-05-02T17:29:13.399Z</time></trkpt><trkpt lat="45.9516117" lon="12.1193033"><ele>192.5</ele><time>2026-05-02T17:29:14.398Z</time></trkpt><trkpt lat="45.9514967" lon="12.1194517"><ele>192.0</ele><time>2026-05-02T17:29:15.398Z</time></trkpt><trkpt lat="45.95138" lon="12.1195967"><ele>191.66666666666666</ele><time>2026-05-02T17:29:16.399Z</time></trkpt><trkpt lat="45.9512633" lon="12.1197483"><ele>191.33333333333331</ele><time>2026-05-02T17:29:17.398Z</time></trkpt><trkpt lat="45.951145" lon="12.1198783"><ele>191.0</ele><time>2026-05-02T17:29:18.399Z</time></trkpt><trkpt lat="45.9510383" lon="12.12002"><ele>190.75</ele><time>2026-05-02T17:29:19.399Z</time></trkpt><trkpt lat="45.950925" lon="12.12013"><ele>190.5</ele><time>2026-05-02T17:29:20.399Z</time></trkpt><trkpt lat="45.9508183" lon="12.12026"><ele>190.25</ele><time>2026-05-02T17:29:21.399Z</time></trkpt><trkpt lat="45.950705" lon="12.1203717"><ele>190.0</ele><time>2026-05-02T17:29:22.399Z</time></trkpt><trkpt lat="45.9505933" lon="12.120485"><ele>190.0</ele><time>2026-05-02T17:29:23.398Z</time></trkpt><trkpt lat="45.9504583" lon="12.1206117"><ele>190.0</ele><time>2026-05-02T17:29:24.399Z</time></trkpt><trkpt lat="45.95032" lon="12.1207283"><ele>190.0</ele><time>2026-05-02T17:29:25.399Z</time></trkpt><trkpt lat="45.9501783" lon="12.120835"><ele>189.66666666666669</ele><time>2026-05-02T17:29:26.399Z</time></trkpt><trkpt lat="45.9500383" lon="12.12095"><ele>189.33333333333334</ele><time>2026-05-02T17:29:27.399Z</time></trkpt><trkpt lat="45.9499067" lon="12.121065"><ele>189.0</ele><time>2026-05-02T17:29:28.399Z</time></trkpt><trkpt lat="45.9497683" lon="12.1211767"><ele>189.0</ele><time>2026-05-02T17:29:29.398Z</time></trkpt><trkpt lat="45.94964" lon="12.12128"><ele>189.0</ele><time>2026-05-02T17:29:30.399Z</time></trkpt><trkpt lat="45.9495117" lon="12.121385"><ele>189.0</ele><time>2026-05-02T17:29:31.398Z</time></trkpt><trkpt lat="45.9493833" lon="12.121495"><ele>189.0</ele><time>2026-05-02T17:29:32.399Z</time></trkpt><trkpt lat="45.949235" lon="12.121625"><ele>187.66666666666666</ele><time>2026-05-02T17:29:33.399Z</time></trkpt><trkpt lat="45.9490733" lon="12.1217633"><ele>186.33333333333331</ele><time>2026-05-02T17:29:34.399Z</time></trkpt><trkpt lat="45.9489017" lon="12.12188"><ele>185.0</ele><time>2026-05-02T17:29:35.398Z</time></trkpt><trkpt lat="45.9487467" lon="12.1219967"><ele>185.0</ele><time>2026-05-02T17:29:36.399Z</time></trkpt><trkpt lat="45.9485983" lon="12.1221067"><ele>185.0</ele><time>2026-05-02T17:29:37.399Z</time></trkpt><trkpt lat="45.9484633" lon="12.1222217"><ele>185.0</ele><time>2026-05-02T17:29:38.399Z</time></trkpt><trkpt lat="45.948345" lon="12.1223317"><ele>184.25</ele><time>2026-05-02T17:29:39.399Z</time></trkpt><trkpt lat="45.9482417" lon="12.1224467"><ele>183.5</ele><time>2026-05-02T17:29:40.398Z</time></trkpt><trkpt lat="45.948125" lon="12.1225533"><ele>182.75</ele><time>2026-05-02T17:29:41.399Z</time></trkpt><trkpt lat="45.94798" lon="12.1226633"><ele>182.0</ele><time>2026-05-02T17:29:42.399Z</time></trkpt><trkpt lat="45.9478083" lon="12.12277"><ele>182.0</ele><time>2026-05-02T17:29:43.399Z</time></trkpt><trkpt lat="45.9476117" lon="12.1228983"><ele>182.0</ele><time>2026-05-02T17:29:44.398Z</time></trkpt><trkpt lat="45.94741" lon="12.1230417"><ele>182.0</ele><time>2026-05-02T17:29:45.399Z</time></trkpt><trkpt lat="45.9472017" lon="12.1232017"><ele>182.0</ele><time>2026-05-02T17:29:46.399Z</time></trkpt><trkpt lat="45.9469867" lon="12.1233667"><ele>182.0</ele><time>2026-05-02T17:29:47.399Z</time></trkpt><trkpt lat="45.94677" lon="12.12354"><ele>181.5</ele><time>2026-05-02T17:29:48.399Z</time></trkpt><trkpt lat="45.9465533" lon="12.1237133"><ele>181.0</ele><time>2026-05-02T17:29:49.399Z</time></trkpt><trkpt lat="45.9463483" lon="12.1238817"><ele>181.0</ele><time>2026-05-02T17:29:50.399Z</time></trkpt><trkpt lat="45.9461567" lon="12.124065"><ele>181.0</ele><time>2026-05-02T17:29:51.399Z</time></trkpt><trkpt lat="45.9459617" lon="12.1242583"><ele>180.5</ele><time>2026-05-02T17:29:52.399Z</time></trkpt><trkpt lat="45.9457617" lon="12.1244867"><ele>180.0</ele><time>2026-05-02T17:29:53.399Z</time></trkpt><trkpt lat="45.9455633" lon="12.1247233"><ele>182.5</ele><time>2026-05-02T17:29:54.399Z</time></trkpt><trkpt lat="45.9453633" lon="12.1249783"><ele>185.0</ele><time>2026-05-02T17:29:55.399Z</time></trkpt><trkpt lat="45.9451617" lon="12.1252483"><ele>181.0</ele><time>2026-05-02T17:29:56.399Z</time></trkpt><trkpt lat="45.944955" lon="12.1255183"><ele>177.0</ele><time>2026-05-02T17:29:57.399Z</time></trkpt><trkpt lat="45.944755" lon="12.12579"><ele>176.5</ele><time>2026-05-02T17:29:58.399Z</time></trkpt><trkpt lat="45.9445517" lon="12.1260433"><ele>176.0</ele><time>2026-05-02T17:29:59.399Z</time></trkpt><trkpt lat="45.9443567" lon="12.12628"><ele>175.5</ele><time>2026-05-02T17:30:00.399Z</time></trkpt><trkpt lat="45.9441667" lon="12.1265183"><ele>175.0</ele><time>2026-05-02T17:30:01.399Z</time></trkpt><trkpt lat="45.9439667" lon="12.1267517"><ele>174.5</ele><time>2026-05-02T17:30:02.399Z</time></trkpt><trkpt lat="45.94378" lon="12.126975"><ele>174.0</ele><time>2026-05-02T17:30:03.399Z</time></trkpt><trkpt lat="45.9436067" lon="12.1272033"><ele>174.0</ele><time>2026-05-02T17:30:04.398Z</time></trkpt><trkpt lat="45.94343" lon="12.1274217"><ele>174.0</ele><time>2026-05-02T17:30:05.398Z</time></trkpt><trkpt lat="45.9432633" lon="12.1276317"><ele>174.33333333333334</ele><time>2026-05-02T17:30:06.398Z</time></trkpt><trkpt lat="45.9431033" lon="12.1278267"><ele>174.66666666666669</ele><time>2026-05-02T17:30:07.399Z</time></trkpt><trkpt lat="45.9429533" lon="12.1280183"><ele>175.0</ele><time>2026-05-02T17:30:08.399Z</time></trkpt><trkpt lat="45.9428067" lon="12.128195"><ele>175.66666666666669</ele><time>2026-05-02T17:30:09.399Z</time></trkpt><trkpt lat="45.9426617" lon="12.1283717"><ele>176.33333333333334</ele><time>2026-05-02T17:30:10.399Z</time></trkpt><trkpt lat="45.9425183" lon="12.12855"><ele>177.0</ele><time>2026-05-02T17:30:11.398Z</time></trkpt><trkpt lat="45.9423883" lon="12.1287367"><ele>177.0</ele><time>2026-05-02T17:30:12.399Z</time></trkpt><trkpt lat="45.9422667" lon="12.12891"><ele>177.0</ele><time>2026-05-02T17:30:13.399Z</time></trkpt><trkpt lat="45.942135" lon="12.1290883"><ele>177.0</ele><time>2026-05-02T17:30:14.399Z</time></trkpt><trkpt lat="45.9420133" lon="12.1292717"><ele>176.33333333333334</ele><time>2026-05-02T17:30:15.399Z</time></trkpt><trkpt lat="45.9418933" lon="12.1294433"><ele>175.66666666666669</ele><time>2026-05-02T17:30:16.399Z</time></trkpt><trkpt lat="45.9417667" lon="12.1296067"><ele>175.0</ele><time>2026-05-02T17:30:17.399Z</time></trkpt><trkpt lat="45.9416467" lon="12.1297667"><ele>175.0</ele><time>2026-05-02T17:30:18.399Z</time></trkpt><trkpt lat="45.9415217" lon="12.1299283"><ele>175.0</ele><time>2026-05-02T17:30:19.399Z</time></trkpt><trkpt lat="45.94141" lon="12.1300917"><ele>175.0</ele><time>2026-05-02T17:30:20.399Z</time></trkpt><trkpt lat="45.941305" lon="12.1302533"><ele>175.0</ele><time>2026-05-02T17:30:21.399Z</time></trkpt><trkpt lat="45.9411983" lon="12.1304017"><ele>175.0</ele><time>2026-05-02T17:30:22.399Z</time></trkpt><trkpt lat="45.9410867" lon="12.13055"><ele>175.0</ele><time>2026-05-02T17:30:23.398Z</time></trkpt><trkpt lat="45.9409783" lon="12.1307"><ele>173.75</ele><time>2026-05-02T17:30:24.399Z</time></trkpt><trkpt lat="45.9408733" lon="12.1308483"><ele>172.5</ele><time>2026-05-02T17:30:25.399Z</time></trkpt><trkpt lat="45.9407667" lon="12.13099"><ele>171.25</ele><time>2026-05-02T17:30:26.399Z</time></trkpt><trkpt lat="45.9406767" lon="12.1311133"><ele>170.0</ele><time>2026-05-02T17:30:27.399Z</time></trkpt><trkpt lat="45.9406067" lon="12.1312017"><ele>170.0</ele><time>2026-05-02T17:30:28.398Z</time></trkpt><trkpt lat="45.9405433" lon="12.1312533"><ele>170.0</ele><time>2026-05-02T17:30:29.399Z</time></trkpt><trkpt lat="45.9404017" lon="12.1312367"><ele>170.0</ele><time>2026-05-02T17:30:31.399Z</time></trkpt><trkpt lat="45.9403" lon="12.1311467"><ele>170.0</ele><time>2026-05-02T17:30:32.399Z</time></trkpt><trkpt lat="45.940175" lon="12.1310233"><ele>169.66666666666666</ele><time>2026-05-02T17:30:33.399Z</time></trkpt><trkpt lat="45.9400283" lon="12.1308567"><ele>169.33333333333334</ele><time>2026-05-02T17:30:34.399Z</time></trkpt><trkpt lat="45.9398717" lon="12.1306767"><ele>169.0</ele><time>2026-05-02T17:30:35.398Z</time></trkpt><trkpt lat="45.9397117" lon="12.1305"><ele>170.0</ele><time>2026-05-02T17:30:36.399Z</time></trkpt><trkpt lat="45.9395583" lon="12.13035"><ele>171.0</ele><time>2026-05-02T17:30:37.398Z</time></trkpt><trkpt lat="45.9394133" lon="12.130215"><ele>172.0</ele><time>2026-05-02T17:30:38.399Z</time></trkpt><trkpt lat="45.93929" lon="12.1300633"><ele>172.0</ele><time>2026-05-02T17:30:39.399Z</time></trkpt><trkpt lat="45.9391633" lon="12.12991"><ele>172.0</ele><time>2026-05-02T17:30:40.398Z</time></trkpt><trkpt lat="45.939055" lon="12.12973"><ele>172.0</ele><time>2026-05-02T17:30:41.398Z</time></trkpt><trkpt lat="45.9389533" lon="12.129545"><ele>172.0</ele><time>2026-05-02T17:30:42.399Z</time></trkpt><trkpt lat="45.938855" lon="12.1293267"><ele>172.0</ele><time>2026-05-02T17:30:43.399Z</time></trkpt><trkpt lat="45.9387617" lon="12.129105"><ele>172.0</ele><time>2026-05-02T17:30:44.399Z</time></trkpt><trkpt lat="45.93869" lon="12.1289033"><ele>172.25</ele><time>2026-05-02T17:30:45.399Z</time></trkpt><trkpt lat="45.9386267" lon="12.128715"><ele>172.5</ele><time>2026-05-02T17:30:46.399Z</time></trkpt><trkpt lat="45.93858" lon="12.128525"><ele>172.75</ele><time>2026-05-02T17:30:47.398Z</time></trkpt><trkpt lat="45.9385483" lon="12.1283367"><ele>173.0</ele><time>2026-05-02T17:30:48.399Z</time></trkpt><trkpt lat="45.9385367" lon="12.12813"><ele>173.66666666666666</ele><time>2026-05-02T17:30:49.399Z</time></trkpt><trkpt lat="45.93853" lon="12.127895"><ele>174.33333333333334</ele><time>2026-05-02T17:30:50.398Z</time></trkpt><trkpt lat="45.938545" lon="12.1276683"><ele>175.0</ele><time>2026-05-02T17:30:51.399Z</time></trkpt><trkpt lat="45.93853" lon="12.127475"><ele>175.75</ele><time>2026-05-02T17:30:52.399Z</time></trkpt><trkpt lat="45.9385033" lon="12.12729"><ele>176.5</ele><time>2026-05-02T17:30:53.399Z</time></trkpt><trkpt lat="45.93847" lon="12.12712"><ele>177.25</ele><time>2026-05-02T17:30:54.399Z</time></trkpt><trkpt lat="45.9383983" lon="12.126965"><ele>178.0</ele><time>2026-05-02T17:30:55.399Z</time></trkpt><trkpt lat="45.9382967" lon="12.12682"><ele>179.25</ele><time>2026-05-02T17:30:56.398Z</time></trkpt><trkpt lat="45.938175" lon="12.12669"><ele>180.5</ele><time>2026-05-02T17:30:57.399Z</time></trkpt><trkpt lat="45.9380667" lon="12.1265483"><ele>181.75</ele><time>2026-05-02T17:30:58.398Z</time></trkpt><trkpt lat="45.9379767" lon="12.12641"><ele>183.0</ele><time>2026-05-02T17:30:59.399Z</time></trkpt><trkpt lat="45.9379033" lon="12.1262967"><ele>183.75</ele><time>2026-05-02T17:31:00.399Z</time></trkpt><trkpt lat="45.9378017" lon="12.1261983"><ele>184.5</ele><time>2026-05-02T17:31:01.398Z</time></trkpt><trkpt lat="45.937675" lon="12.126125"><ele>185.25</ele><time>2026-05-02T17:31:02.399Z</time></trkpt><trkpt lat="45.9375433" lon="12.1260717"><ele>186.0</ele><time>2026-05-02T17:31:03.399Z</time></trkpt><trkpt lat="45.93745" lon="12.1260183"><ele>186.0</ele><time>2026-05-02T17:31:04.398Z</time></trkpt><trkpt lat="45.9373933" lon="12.1259617"><ele>186.0</ele><time>2026-05-02T17:31:05.399Z</time></trkpt><trkpt lat="45.937375" lon="12.1258617"><ele>186.0</ele><time>2026-05-02T17:31:08.399Z</time></trkpt><trkpt lat="45.9374633" lon="12.1257067"><ele>186.0</ele><time>2026-05-02T17:31:10.398Z</time></trkpt><trkpt lat="45.9375383" lon="12.125625"><ele>186.0</ele><time>2026-05-02T17:31:11.399Z</time></trkpt><trkpt lat="45.9376017" lon="12.1255683"><ele>186.0</ele><time>2026-05-02T17:31:12.398Z</time></trkpt><trkpt lat="45.93766" lon="12.1255333"><ele>189.20000000000002</ele><time>2026-05-02T17:31:13.399Z</time></trkpt><trkpt lat="45.9375867" lon="12.1254667"><ele>192.4</ele><time>2026-05-02T17:31:19.399Z</time></trkpt><trkpt lat="45.9374983" lon="12.1254683"><ele>195.6</ele><time>2026-05-02T17:31:20.399Z</time></trkpt><trkpt lat="45.9373867" lon="12.12546"><ele>198.8</ele><time>2026-05-02T17:31:21.399Z</time></trkpt><trkpt lat="45.9372667" lon="12.1254333"><ele>202.0</ele><time>2026-05-02T17:31:22.399Z</time></trkpt><trkpt lat="45.9371617" lon="12.1254117"><ele>202.0</ele><time>2026-05-02T17:31:23.399Z</time></trkpt><trkpt lat="45.9370767" lon="12.1253917"><ele>202.0</ele><time>2026-05-02T17:31:24.399Z</time></trkpt><trkpt lat="45.9369967" lon="12.1253817"><ele>202.0</ele><time>2026-05-02T17:31:25.398Z</time></trkpt><trkpt lat="45.9369267" lon="12.1253783"><ele>202.0</ele><time>2026-05-02T17:31:26.399Z</time></trkpt><trkpt lat="45.9368617" lon="12.1253633"><ele>202.0</ele><time>2026-05-02T17:31:27.399Z</time></trkpt><trkpt lat="45.9367983" lon="12.125355"><ele>202.0</ele><time>2026-05-02T17:31:28.399Z</time></trkpt><trkpt lat="45.936735" lon="12.12535"><ele>202.0</ele><time>2026-05-02T17:31:29.399Z</time></trkpt><trkpt lat="45.93667" lon="12.1253417"><ele>202.16666666666666</ele><time>2026-05-02T17:31:30.399Z</time></trkpt><trkpt lat="45.9365617" lon="12.1253167"><ele>202.33333333333331</ele><time>2026-05-02T17:31:32.399Z</time></trkpt><trkpt lat="45.936475" lon="12.125265"><ele>202.5</ele><time>2026-05-02T17:31:34.399Z</time></trkpt><trkpt lat="45.9364083" lon="12.1252717"><ele>202.66666666666669</ele><time>2026-05-02T17:31:37.399Z</time></trkpt><trkpt lat="45.93634" lon="12.1252817"><ele>202.83333333333334</ele><time>2026-05-02T17:31:41.399Z</time></trkpt><trkpt lat="45.9364033" lon="12.1252667"><ele>203.0</ele><time>2026-05-02T17:32:25.399Z</time></trkpt><trkpt lat="45.9364667" lon="12.1252683"><ele>203.00000000000003</ele><time>2026-05-02T17:32:30.399Z</time></trkpt><trkpt lat="45.9365333" lon="12.125265"><ele>203.0</ele><time>2026-05-02T17:32:38.399Z</time></trkpt><trkpt lat="45.9365963" lon="12.1252789"><ele>203.0</ele><time>2026-05-02T17:32:48.48Z</time></trkpt><trkpt lat="45.9366733" lon="12.125285"><ele>203.0</ele><time>2026-05-02T17:33:48.399Z</time></trkpt><trkpt lat="45.9367617" lon="12.1252933"><ele>203.00000000000003</ele><time>2026-05-02T17:33:52.399Z</time></trkpt><trkpt lat="45.9368583" lon="12.1253467"><ele>203.0</ele><time>2026-05-02T17:33:56.399Z</time></trkpt><trkpt lat="45.936965" lon="12.1253733"><ele>202.83333333333334</ele><time>2026-05-02T17:34:01.402Z</time></trkpt><trkpt lat="45.93705" lon="12.125355"><ele>202.66666666666669</ele><time>2026-05-02T17:34:09.403Z</time></trkpt><trkpt lat="45.93704" lon="12.12523"><ele>202.5</ele><time>2026-05-02T17:34:11.403Z</time></trkpt><trkpt lat="45.93702" lon="12.1251217"><ele>202.33333333333331</ele><time>2026-05-02T17:34:14.403Z</time></trkpt><trkpt lat="45.9370733" lon="12.1250567"><ele>202.16666666666666</ele><time>2026-05-02T17:34:17.403Z</time></trkpt><trkpt lat="45.937135" lon="12.1250317"><ele>202.0</ele><time>2026-05-02T17:34:22.403Z</time></trkpt><trkpt lat="45.9372017" lon="12.1250817"><ele>202.0</ele><time>2026-05-02T17:34:27.402Z</time></trkpt><trkpt lat="45.936757" lon="12.1251812"><ele>202.0</ele><time>2026-05-02T17:34:39.069Z</time></trkpt><trkpt lat="45.9366869" lon="12.1251715"><ele>202.0</ele><time>2026-05-02T17:34:45.104Z</time></trkpt><trkpt lat="45.9367867" lon="12.1249517"><ele>202.0</ele><time>2026-05-02T17:35:53.402Z</time></trkpt><trkpt lat="45.936695" lon="12.1250483"><ele>202.0</ele><time>2026-05-02T17:35:55.402Z</time></trkpt><trkpt lat="45.9366367" lon="12.1251017"><ele>202.0</ele><time>2026-05-02T17:35:56.402Z</time></trkpt><trkpt lat="45.9366983" lon="12.12508"><ele>202.0</ele><time>2026-05-02T17:36:03.402Z</time></trkpt><trkpt lat="45.9366333" lon="12.1250733"><ele>202.0</ele><time>2026-05-02T17:41:25.401Z</time></trkpt><trkpt lat="45.9366933" lon="12.1251067"><ele>202.0</ele><time>2026-05-02T17:42:22.402Z</time></trkpt><trkpt lat="45.9367383" lon="12.12503"><ele>202.0</ele><time>2026-05-02T17:44:40.402Z</time></trkpt><trkpt lat="45.93665" lon="12.12509"><ele>202.0</ele><time>2026-05-02T17:45:53.401Z</time></trkpt><trkpt lat="45.9367067" lon="12.1250333"><ele>202.0</ele><time>2026-05-02T17:45:55.402Z</time></trkpt><trkpt lat="45.9366767" lon="12.1249533"><ele>202.0</ele><time>2026-05-02T17:46:58.402Z</time></trkpt><trkpt lat="45.9367267" lon="12.12489"><ele>205.49999999999997</ele><time>2026-05-02T17:47:35.401Z</time></trkpt><trkpt lat="45.936835" lon="12.1248617"><ele>209.0</ele><time>2026-05-02T17:47:49.401Z</time></trkpt><trkpt lat="45.936915" lon="12.12483"><ele>212.5</ele><time>2026-05-02T17:47:56.401Z</time></trkpt><trkpt lat="45.9368483" lon="12.1248367"><ele>216.0</ele><time>2026-05-02T17:47:59.401Z</time></trkpt><trkpt lat="45.93677" lon="12.1248133"><ele>219.49999999999997</ele><time>2026-05-02T17:48:21.4Z</time></trkpt><trkpt lat="45.9368317" lon="12.1247767"><ele>223.0</ele><time>2026-05-02T17:48:46.379Z</time></trkpt><trkpt lat="45.936795" lon="12.1248667"><ele>223.0</ele><time>2026-05-02T17:50:11.4Z</time></trkpt></trkseg></trk></gpx>